<?xml version="1.0" encoding="UTF-8" standalone="no" ?>
<gpx xmlns="http://www.topografix.com/GPX/1/1" xmlns:xsi="http://www.w3.org/2001/XMLSchema-instance" xsi:schemaLocation="http://www.topografix.com/GPX/1/1 http://www.topografix.com/GPX/1/1/gpx.xsd" version="1.1" creator="VisuGPX - https://www.visugpx.com">
  <metadata>
    <name>Traversée de Belledonne - étape 2 - Les 7 Laux --&gt;Refuge de la Pierre du Carré</name>
    <desc><![CDATA[Traversée de Belledonne - Les 7 Laux -->Refuge de la Pierre du Carré
étape 2 : 35 km - 2750 m D  / 3200 m D- 
jeudi 9 août 2012]]></desc>
  </metadata>
  <trk>
    <name><![CDATA[Traversée de Belledonne - étape 2 - Les 7 Laux -->Refuge de la Pierre du Carré_1]]></name>
    <trkseg>
      <trkpt lat="45.24907" lon="6.0787">
        <ele>2150.1259765625</ele>
        <time>2012-08-09T06:44:11Z</time>
      </trkpt>
      <trkpt lat="45.24907" lon="6.0787">
        <ele>2150.1259765625</ele>
        <time>2012-08-09T06:44:12Z</time>
      </trkpt>
      <trkpt lat="45.24908" lon="6.07873">
        <ele>2150.1259765625</ele>
        <time>2012-08-09T06:44:16Z</time>
      </trkpt>
      <trkpt lat="45.24912" lon="6.07872">
        <ele>2150.1259765625</ele>
        <time>2012-08-09T06:44:21Z</time>
      </trkpt>
      <trkpt lat="45.24916" lon="6.07876">
        <ele>2148.6838378906</ele>
        <time>2012-08-09T06:44:27Z</time>
      </trkpt>
      <trkpt lat="45.24922" lon="6.07877">
        <ele>2148.203125</ele>
        <time>2012-08-09T06:44:33Z</time>
      </trkpt>
      <trkpt lat="45.24924" lon="6.07876">
        <ele>2148.203125</ele>
        <time>2012-08-09T06:44:35Z</time>
      </trkpt>
      <trkpt lat="45.24931" lon="6.07885">
        <ele>2147.72265625</ele>
        <time>2012-08-09T06:44:42Z</time>
      </trkpt>
      <trkpt lat="45.24932" lon="6.07888">
        <ele>2147.72265625</ele>
        <time>2012-08-09T06:44:45Z</time>
      </trkpt>
      <trkpt lat="45.24937" lon="6.07892">
        <ele>2147.72265625</ele>
        <time>2012-08-09T06:44:50Z</time>
      </trkpt>
      <trkpt lat="45.24943" lon="6.07897">
        <ele>2149.1645507812</ele>
        <time>2012-08-09T06:44:57Z</time>
      </trkpt>
      <trkpt lat="45.2495" lon="6.079">
        <ele>2149.6452636719</ele>
        <time>2012-08-09T06:45:04Z</time>
      </trkpt>
      <trkpt lat="45.24957" lon="6.07904">
        <ele>2147.2419433594</ele>
        <time>2012-08-09T06:45:12Z</time>
      </trkpt>
      <trkpt lat="45.24958" lon="6.07907">
        <ele>2146.7612304688</ele>
        <time>2012-08-09T06:45:14Z</time>
      </trkpt>
      <trkpt lat="45.24963" lon="6.07918">
        <ele>2146.2807617188</ele>
        <time>2012-08-09T06:45:22Z</time>
      </trkpt>
      <trkpt lat="45.24968" lon="6.07928">
        <ele>2146.2807617188</ele>
        <time>2012-08-09T06:45:29Z</time>
      </trkpt>
      <trkpt lat="45.24975" lon="6.07944">
        <ele>2146.2807617188</ele>
        <time>2012-08-09T06:45:40Z</time>
      </trkpt>
      <trkpt lat="45.24976" lon="6.07946">
        <ele>2146.2807617188</ele>
        <time>2012-08-09T06:45:42Z</time>
      </trkpt>
      <trkpt lat="45.2498" lon="6.07956">
        <ele>2144.8386230469</ele>
        <time>2012-08-09T06:45:49Z</time>
      </trkpt>
      <trkpt lat="45.24982" lon="6.07966">
        <ele>2146.2807617188</ele>
        <time>2012-08-09T06:45:55Z</time>
      </trkpt>
      <trkpt lat="45.24983" lon="6.07979">
        <ele>2147.72265625</ele>
        <time>2012-08-09T06:46:03Z</time>
      </trkpt>
      <trkpt lat="45.24984" lon="6.07987">
        <ele>2148.6838378906</ele>
        <time>2012-08-09T06:46:08Z</time>
      </trkpt>
      <trkpt lat="45.24989" lon="6.07997">
        <ele>2149.1645507812</ele>
        <time>2012-08-09T06:46:15Z</time>
      </trkpt>
      <trkpt lat="45.24994" lon="6.08004">
        <ele>2148.203125</ele>
        <time>2012-08-09T06:46:21Z</time>
      </trkpt>
      <trkpt lat="45.24995" lon="6.0801">
        <ele>2147.2419433594</ele>
        <time>2012-08-09T06:46:27Z</time>
      </trkpt>
      <trkpt lat="45.24997" lon="6.08014">
        <ele>2147.2419433594</ele>
        <time>2012-08-09T06:46:29Z</time>
      </trkpt>
      <trkpt lat="45.25" lon="6.08021">
        <ele>2146.7612304688</ele>
        <time>2012-08-09T06:46:34Z</time>
      </trkpt>
      <trkpt lat="45.25008" lon="6.08038">
        <ele>2146.2807617188</ele>
        <time>2012-08-09T06:46:45Z</time>
      </trkpt>
      <trkpt lat="45.25015" lon="6.08053">
        <ele>2145.8000488281</ele>
        <time>2012-08-09T06:46:55Z</time>
      </trkpt>
      <trkpt lat="45.25018" lon="6.08055">
        <ele>2145.3193359375</ele>
        <time>2012-08-09T06:46:57Z</time>
      </trkpt>
      <trkpt lat="45.25029" lon="6.0806">
        <ele>2144.8386230469</ele>
        <time>2012-08-09T06:47:03Z</time>
      </trkpt>
      <trkpt lat="45.2504" lon="6.08062">
        <ele>2144.8386230469</ele>
        <time>2012-08-09T06:47:10Z</time>
      </trkpt>
      <trkpt lat="45.25048" lon="6.08068">
        <ele>2143.8774414062</ele>
        <time>2012-08-09T06:47:17Z</time>
      </trkpt>
      <trkpt lat="45.25051" lon="6.08071">
        <ele>2143.3967285156</ele>
        <time>2012-08-09T06:47:20Z</time>
      </trkpt>
      <trkpt lat="45.2506" lon="6.08065">
        <ele>2143.8774414062</ele>
        <time>2012-08-09T06:47:28Z</time>
      </trkpt>
      <trkpt lat="45.25068" lon="6.08055">
        <ele>2143.3967285156</ele>
        <time>2012-08-09T06:47:35Z</time>
      </trkpt>
      <trkpt lat="45.25078" lon="6.08043">
        <ele>2141.9548339844</ele>
        <time>2012-08-09T06:47:45Z</time>
      </trkpt>
      <trkpt lat="45.25084" lon="6.08034">
        <ele>2141.9548339844</ele>
        <time>2012-08-09T06:47:53Z</time>
      </trkpt>
      <trkpt lat="45.2509" lon="6.08029">
        <ele>2143.3967285156</ele>
        <time>2012-08-09T06:48:01Z</time>
      </trkpt>
      <trkpt lat="45.25095" lon="6.08023">
        <ele>2145.3193359375</ele>
        <time>2012-08-09T06:48:08Z</time>
      </trkpt>
      <trkpt lat="45.25103" lon="6.08019">
        <ele>2144.3579101562</ele>
        <time>2012-08-09T06:48:14Z</time>
      </trkpt>
      <trkpt lat="45.25105" lon="6.08018">
        <ele>2144.3579101562</ele>
        <time>2012-08-09T06:48:15Z</time>
      </trkpt>
      <trkpt lat="45.25114" lon="6.08007">
        <ele>2143.8774414062</ele>
        <time>2012-08-09T06:48:24Z</time>
      </trkpt>
      <trkpt lat="45.25122" lon="6.08002">
        <ele>2142.916015625</ele>
        <time>2012-08-09T06:48:30Z</time>
      </trkpt>
      <trkpt lat="45.25131" lon="6.07996">
        <ele>2142.916015625</ele>
        <time>2012-08-09T06:48:38Z</time>
      </trkpt>
      <trkpt lat="45.2514" lon="6.07991">
        <ele>2143.3967285156</ele>
        <time>2012-08-09T06:48:45Z</time>
      </trkpt>
      <trkpt lat="45.25148" lon="6.07989">
        <ele>2143.8774414062</ele>
        <time>2012-08-09T06:48:51Z</time>
      </trkpt>
      <trkpt lat="45.25156" lon="6.07987">
        <ele>2144.8386230469</ele>
        <time>2012-08-09T06:48:59Z</time>
      </trkpt>
      <trkpt lat="45.25164" lon="6.0799">
        <ele>2145.8000488281</ele>
        <time>2012-08-09T06:49:06Z</time>
      </trkpt>
      <trkpt lat="45.2517" lon="6.0799">
        <ele>2144.3579101562</ele>
        <time>2012-08-09T06:49:12Z</time>
      </trkpt>
      <trkpt lat="45.25172" lon="6.0799">
        <ele>2142.435546875</ele>
        <time>2012-08-09T06:49:18Z</time>
      </trkpt>
      <trkpt lat="45.2518" lon="6.07989">
        <ele>2140.5126953125</ele>
        <time>2012-08-09T06:49:26Z</time>
      </trkpt>
      <trkpt lat="45.25188" lon="6.0799">
        <ele>2138.5900878906</ele>
        <time>2012-08-09T06:49:31Z</time>
      </trkpt>
      <trkpt lat="45.25193" lon="6.07993">
        <ele>2139.0705566406</ele>
        <time>2012-08-09T06:49:34Z</time>
      </trkpt>
      <trkpt lat="45.25194" lon="6.07994">
        <ele>2138.5900878906</ele>
        <time>2012-08-09T06:49:35Z</time>
      </trkpt>
      <trkpt lat="45.25195" lon="6.07997">
        <ele>2138.5900878906</ele>
        <time>2012-08-09T06:49:38Z</time>
      </trkpt>
      <trkpt lat="45.25201" lon="6.08001">
        <ele>2137.6286621094</ele>
        <time>2012-08-09T06:49:44Z</time>
      </trkpt>
      <trkpt lat="45.25211" lon="6.08002">
        <ele>2138.109375</ele>
        <time>2012-08-09T06:49:52Z</time>
      </trkpt>
      <trkpt lat="45.25217" lon="6.08002">
        <ele>2137.6286621094</ele>
        <time>2012-08-09T06:49:58Z</time>
      </trkpt>
      <trkpt lat="45.25217" lon="6.08002">
        <ele>2137.1479492188</ele>
        <time>2012-08-09T06:50:05Z</time>
      </trkpt>
      <trkpt lat="45.25216" lon="6.07999">
        <ele>2136.1867675781</ele>
        <time>2012-08-09T06:50:11Z</time>
      </trkpt>
      <trkpt lat="45.25215" lon="6.07998">
        <ele>2136.1867675781</ele>
        <time>2012-08-09T06:50:12Z</time>
      </trkpt>
      <trkpt lat="45.25209" lon="6.07992">
        <ele>2133.302734375</ele>
        <time>2012-08-09T06:50:19Z</time>
      </trkpt>
      <trkpt lat="45.25206" lon="6.07988">
        <ele>2130.8996582031</ele>
        <time>2012-08-09T06:50:24Z</time>
      </trkpt>
      <trkpt lat="45.25204" lon="6.07988">
        <ele>2130.4189453125</ele>
        <time>2012-08-09T06:50:26Z</time>
      </trkpt>
      <trkpt lat="45.25199" lon="6.07982">
        <ele>2129.9382324219</ele>
        <time>2012-08-09T06:50:32Z</time>
      </trkpt>
      <trkpt lat="45.252" lon="6.07976">
        <ele>2129.4575195312</ele>
        <time>2012-08-09T06:50:36Z</time>
      </trkpt>
      <trkpt lat="45.25201" lon="6.07967">
        <ele>2129.9382324219</ele>
        <time>2012-08-09T06:50:43Z</time>
      </trkpt>
      <trkpt lat="45.25203" lon="6.07965">
        <ele>2129.4575195312</ele>
        <time>2012-08-09T06:50:45Z</time>
      </trkpt>
      <trkpt lat="45.25207" lon="6.07961">
        <ele>2129.4575195312</ele>
        <time>2012-08-09T06:50:49Z</time>
      </trkpt>
      <trkpt lat="45.25212" lon="6.0795">
        <ele>2127.5349121094</ele>
        <time>2012-08-09T06:50:57Z</time>
      </trkpt>
      <trkpt lat="45.25216" lon="6.07941">
        <ele>2126.0930175781</ele>
        <time>2012-08-09T06:51:03Z</time>
      </trkpt>
      <trkpt lat="45.25217" lon="6.07939">
        <ele>2126.0930175781</ele>
        <time>2012-08-09T06:51:05Z</time>
      </trkpt>
      <trkpt lat="45.25222" lon="6.0793">
        <ele>2126.5737304688</ele>
        <time>2012-08-09T06:51:12Z</time>
      </trkpt>
      <trkpt lat="45.25224" lon="6.07925">
        <ele>2125.1315917969</ele>
        <time>2012-08-09T06:51:16Z</time>
      </trkpt>
      <trkpt lat="45.2523" lon="6.07913">
        <ele>2124.1704101562</ele>
        <time>2012-08-09T06:51:23Z</time>
      </trkpt>
      <trkpt lat="45.25231" lon="6.0791">
        <ele>2125.6123046875</ele>
        <time>2012-08-09T06:51:25Z</time>
      </trkpt>
      <trkpt lat="45.25234" lon="6.07905">
        <ele>2127.0544433594</ele>
        <time>2012-08-09T06:51:29Z</time>
      </trkpt>
      <trkpt lat="45.25239" lon="6.079">
        <ele>2126.5737304688</ele>
        <time>2012-08-09T06:51:33Z</time>
      </trkpt>
      <trkpt lat="45.25245" lon="6.07888">
        <ele>2129.4575195312</ele>
        <time>2012-08-09T06:51:40Z</time>
      </trkpt>
      <trkpt lat="45.25251" lon="6.07876">
        <ele>2128.015625</ele>
        <time>2012-08-09T06:51:48Z</time>
      </trkpt>
      <trkpt lat="45.25252" lon="6.07875">
        <ele>2128.015625</ele>
        <time>2012-08-09T06:51:49Z</time>
      </trkpt>
      <trkpt lat="45.25253" lon="6.07866">
        <ele>2128.015625</ele>
        <time>2012-08-09T06:51:55Z</time>
      </trkpt>
      <trkpt lat="45.25256" lon="6.07862">
        <ele>2127.0544433594</ele>
        <time>2012-08-09T06:52:01Z</time>
      </trkpt>
      <trkpt lat="45.25258" lon="6.07855">
        <ele>2127.5349121094</ele>
        <time>2012-08-09T06:52:06Z</time>
      </trkpt>
      <trkpt lat="45.25261" lon="6.07849">
        <ele>2129.9382324219</ele>
        <time>2012-08-09T06:52:12Z</time>
      </trkpt>
      <trkpt lat="45.25262" lon="6.07846">
        <ele>2129.9382324219</ele>
        <time>2012-08-09T06:52:14Z</time>
      </trkpt>
      <trkpt lat="45.25263" lon="6.07841">
        <ele>2130.4189453125</ele>
        <time>2012-08-09T06:52:17Z</time>
      </trkpt>
      <trkpt lat="45.25265" lon="6.07835">
        <ele>2131.3801269531</ele>
        <time>2012-08-09T06:52:21Z</time>
      </trkpt>
      <trkpt lat="45.25269" lon="6.07822">
        <ele>2132.8220214844</ele>
        <time>2012-08-09T06:52:30Z</time>
      </trkpt>
      <trkpt lat="45.25275" lon="6.07807">
        <ele>2135.7060546875</ele>
        <time>2012-08-09T06:52:40Z</time>
      </trkpt>
      <trkpt lat="45.25277" lon="6.07799">
        <ele>2137.1479492188</ele>
        <time>2012-08-09T06:52:47Z</time>
      </trkpt>
      <trkpt lat="45.25281" lon="6.07796">
        <ele>2136.1867675781</ele>
        <time>2012-08-09T06:52:52Z</time>
      </trkpt>
      <trkpt lat="45.25283" lon="6.07796">
        <ele>2136.1867675781</ele>
        <time>2012-08-09T06:52:54Z</time>
      </trkpt>
      <trkpt lat="45.25292" lon="6.07799">
        <ele>2135.2253417969</ele>
        <time>2012-08-09T06:53:01Z</time>
      </trkpt>
      <trkpt lat="45.25297" lon="6.07802">
        <ele>2135.7060546875</ele>
        <time>2012-08-09T06:53:05Z</time>
      </trkpt>
      <trkpt lat="45.25305" lon="6.07805">
        <ele>2136.1867675781</ele>
        <time>2012-08-09T06:53:12Z</time>
      </trkpt>
      <trkpt lat="45.25313" lon="6.07805">
        <ele>2134.7448730469</ele>
        <time>2012-08-09T06:53:18Z</time>
      </trkpt>
      <trkpt lat="45.25319" lon="6.07801">
        <ele>2133.302734375</ele>
        <time>2012-08-09T06:53:24Z</time>
      </trkpt>
      <trkpt lat="45.2532" lon="6.07801">
        <ele>2133.302734375</ele>
        <time>2012-08-09T06:53:25Z</time>
      </trkpt>
      <trkpt lat="45.25326" lon="6.07796">
        <ele>2132.3415527344</ele>
        <time>2012-08-09T06:53:31Z</time>
      </trkpt>
      <trkpt lat="45.2533" lon="6.07789">
        <ele>2131.3801269531</ele>
        <time>2012-08-09T06:53:37Z</time>
      </trkpt>
      <trkpt lat="45.25331" lon="6.07788">
        <ele>2130.8996582031</ele>
        <time>2012-08-09T06:53:38Z</time>
      </trkpt>
      <trkpt lat="45.25335" lon="6.07791">
        <ele>2129.9382324219</ele>
        <time>2012-08-09T06:53:43Z</time>
      </trkpt>
      <trkpt lat="45.25338" lon="6.07795">
        <ele>2128.4963378906</ele>
        <time>2012-08-09T06:53:49Z</time>
      </trkpt>
      <trkpt lat="45.25341" lon="6.07801">
        <ele>2127.5349121094</ele>
        <time>2012-08-09T06:53:55Z</time>
      </trkpt>
      <trkpt lat="45.25348" lon="6.07803">
        <ele>2126.0930175781</ele>
        <time>2012-08-09T06:54:01Z</time>
      </trkpt>
      <trkpt lat="45.25349" lon="6.07803">
        <ele>2126.0930175781</ele>
        <time>2012-08-09T06:54:02Z</time>
      </trkpt>
      <trkpt lat="45.25353" lon="6.07802">
        <ele>2125.1315917969</ele>
        <time>2012-08-09T06:54:07Z</time>
      </trkpt>
      <trkpt lat="45.25357" lon="6.07798">
        <ele>2124.1704101562</ele>
        <time>2012-08-09T06:54:12Z</time>
      </trkpt>
      <trkpt lat="45.25361" lon="6.07796">
        <ele>2122.2475585938</ele>
        <time>2012-08-09T06:54:18Z</time>
      </trkpt>
      <trkpt lat="45.25368" lon="6.0779">
        <ele>2119.8442382812</ele>
        <time>2012-08-09T06:54:25Z</time>
      </trkpt>
      <trkpt lat="45.25375" lon="6.07787">
        <ele>2118.40234375</ele>
        <time>2012-08-09T06:54:30Z</time>
      </trkpt>
      <trkpt lat="45.25381" lon="6.07778">
        <ele>2117.4409179688</ele>
        <time>2012-08-09T06:54:37Z</time>
      </trkpt>
      <trkpt lat="45.25383" lon="6.07774">
        <ele>2116.9604492188</ele>
        <time>2012-08-09T06:54:41Z</time>
      </trkpt>
      <trkpt lat="45.25384" lon="6.07771">
        <ele>2118.40234375</ele>
        <time>2012-08-09T06:54:50Z</time>
      </trkpt>
      <trkpt lat="45.25386" lon="6.07769">
        <ele>2118.40234375</ele>
        <time>2012-08-09T06:54:57Z</time>
      </trkpt>
      <trkpt lat="45.25389" lon="6.07766">
        <ele>2117.4409179688</ele>
        <time>2012-08-09T06:55:03Z</time>
      </trkpt>
      <trkpt lat="45.25393" lon="6.07764">
        <ele>2116.9604492188</ele>
        <time>2012-08-09T06:55:08Z</time>
      </trkpt>
      <trkpt lat="45.25402" lon="6.0776">
        <ele>2115.5185546875</ele>
        <time>2012-08-09T06:55:16Z</time>
      </trkpt>
      <trkpt lat="45.25407" lon="6.07757">
        <ele>2115.5185546875</ele>
        <time>2012-08-09T06:55:22Z</time>
      </trkpt>
      <trkpt lat="45.25409" lon="6.07756">
        <ele>2115.9990234375</ele>
        <time>2012-08-09T06:55:24Z</time>
      </trkpt>
      <trkpt lat="45.2541" lon="6.07756">
        <ele>2115.9990234375</ele>
        <time>2012-08-09T06:55:26Z</time>
      </trkpt>
      <trkpt lat="45.25416" lon="6.07754">
        <ele>2115.5185546875</ele>
        <time>2012-08-09T06:55:32Z</time>
      </trkpt>
      <trkpt lat="45.25421" lon="6.07754">
        <ele>2115.0378417969</ele>
        <time>2012-08-09T06:55:37Z</time>
      </trkpt>
      <trkpt lat="45.25428" lon="6.07756">
        <ele>2115.5185546875</ele>
        <time>2012-08-09T06:55:43Z</time>
      </trkpt>
      <trkpt lat="45.25431" lon="6.07756">
        <ele>2115.5185546875</ele>
        <time>2012-08-09T06:55:46Z</time>
      </trkpt>
      <trkpt lat="45.2544" lon="6.07755">
        <ele>2115.0378417969</ele>
        <time>2012-08-09T06:55:53Z</time>
      </trkpt>
      <trkpt lat="45.25441" lon="6.07754">
        <ele>2115.0378417969</ele>
        <time>2012-08-09T06:55:54Z</time>
      </trkpt>
      <trkpt lat="45.25448" lon="6.07753">
        <ele>2114.5571289062</ele>
        <time>2012-08-09T06:55:59Z</time>
      </trkpt>
      <trkpt lat="45.25455" lon="6.07752">
        <ele>2114.5571289062</ele>
        <time>2012-08-09T06:56:06Z</time>
      </trkpt>
      <trkpt lat="45.25459" lon="6.07753">
        <ele>2112.6345214844</ele>
        <time>2012-08-09T06:56:11Z</time>
      </trkpt>
      <trkpt lat="45.25463" lon="6.07753">
        <ele>2111.1926269531</ele>
        <time>2012-08-09T06:56:17Z</time>
      </trkpt>
      <trkpt lat="45.25466" lon="6.07753">
        <ele>2109.2700195312</ele>
        <time>2012-08-09T06:56:21Z</time>
      </trkpt>
      <trkpt lat="45.25471" lon="6.07754">
        <ele>2108.30859375</ele>
        <time>2012-08-09T06:56:27Z</time>
      </trkpt>
      <trkpt lat="45.25477" lon="6.07751">
        <ele>2107.3471679688</ele>
        <time>2012-08-09T06:56:33Z</time>
      </trkpt>
      <trkpt lat="45.25483" lon="6.07747">
        <ele>2105.4245605469</ele>
        <time>2012-08-09T06:56:39Z</time>
      </trkpt>
      <trkpt lat="45.25486" lon="6.07741">
        <ele>2102.5405273438</ele>
        <time>2012-08-09T06:56:45Z</time>
      </trkpt>
      <trkpt lat="45.25489" lon="6.07737">
        <ele>2101.0986328125</ele>
        <time>2012-08-09T06:56:50Z</time>
      </trkpt>
      <trkpt lat="45.25493" lon="6.07734">
        <ele>2100.6179199219</ele>
        <time>2012-08-09T06:56:55Z</time>
      </trkpt>
      <trkpt lat="45.25499" lon="6.07735">
        <ele>2101.0986328125</ele>
        <time>2012-08-09T06:57:00Z</time>
      </trkpt>
      <trkpt lat="45.25505" lon="6.07738">
        <ele>2101.0986328125</ele>
        <time>2012-08-09T06:57:06Z</time>
      </trkpt>
      <trkpt lat="45.25508" lon="6.0774">
        <ele>2101.0986328125</ele>
        <time>2012-08-09T06:57:09Z</time>
      </trkpt>
      <trkpt lat="45.25512" lon="6.0774">
        <ele>2102.0598144531</ele>
        <time>2012-08-09T06:57:13Z</time>
      </trkpt>
      <trkpt lat="45.25518" lon="6.07739">
        <ele>2102.0598144531</ele>
        <time>2012-08-09T06:57:21Z</time>
      </trkpt>
      <trkpt lat="45.25521" lon="6.07741">
        <ele>2103.0212402344</ele>
        <time>2012-08-09T06:57:26Z</time>
      </trkpt>
      <trkpt lat="45.25524" lon="6.07742">
        <ele>2103.0212402344</ele>
        <time>2012-08-09T06:57:30Z</time>
      </trkpt>
      <trkpt lat="45.25531" lon="6.07745">
        <ele>2102.0598144531</ele>
        <time>2012-08-09T06:57:37Z</time>
      </trkpt>
      <trkpt lat="45.25532" lon="6.07745">
        <ele>2102.5405273438</ele>
        <time>2012-08-09T06:57:38Z</time>
      </trkpt>
      <trkpt lat="45.25538" lon="6.07751">
        <ele>2102.5405273438</ele>
        <time>2012-08-09T06:57:44Z</time>
      </trkpt>
      <trkpt lat="45.25545" lon="6.07756">
        <ele>2102.0598144531</ele>
        <time>2012-08-09T06:57:50Z</time>
      </trkpt>
      <trkpt lat="45.25553" lon="6.07765">
        <ele>2101.5793457031</ele>
        <time>2012-08-09T06:57:58Z</time>
      </trkpt>
      <trkpt lat="45.25555" lon="6.07767">
        <ele>2101.5793457031</ele>
        <time>2012-08-09T06:58:00Z</time>
      </trkpt>
      <trkpt lat="45.25558" lon="6.07769">
        <ele>2100.6179199219</ele>
        <time>2012-08-09T06:58:04Z</time>
      </trkpt>
      <trkpt lat="45.25561" lon="6.07771">
        <ele>2099.6567382812</ele>
        <time>2012-08-09T06:58:07Z</time>
      </trkpt>
      <trkpt lat="45.25564" lon="6.07776">
        <ele>2098.2145996094</ele>
        <time>2012-08-09T06:58:13Z</time>
      </trkpt>
      <trkpt lat="45.25567" lon="6.07782">
        <ele>2097.2534179688</ele>
        <time>2012-08-09T06:58:18Z</time>
      </trkpt>
      <trkpt lat="45.25568" lon="6.07786">
        <ele>2096.7727050781</ele>
        <time>2012-08-09T06:58:20Z</time>
      </trkpt>
      <trkpt lat="45.25575" lon="6.07787">
        <ele>2094.8500976562</ele>
        <time>2012-08-09T06:58:26Z</time>
      </trkpt>
      <trkpt lat="45.25583" lon="6.07793">
        <ele>2093.408203125</ele>
        <time>2012-08-09T06:58:33Z</time>
      </trkpt>
      <trkpt lat="45.25587" lon="6.07797">
        <ele>2092.4470214844</ele>
        <time>2012-08-09T06:58:37Z</time>
      </trkpt>
      <trkpt lat="45.25592" lon="6.078">
        <ele>2091.0046386719</ele>
        <time>2012-08-09T06:58:42Z</time>
      </trkpt>
      <trkpt lat="45.25595" lon="6.07807">
        <ele>2089.5627441406</ele>
        <time>2012-08-09T06:58:47Z</time>
      </trkpt>
      <trkpt lat="45.25597" lon="6.07814">
        <ele>2088.6015625</ele>
        <time>2012-08-09T06:58:52Z</time>
      </trkpt>
      <trkpt lat="45.25602" lon="6.07822">
        <ele>2086.6787109375</ele>
        <time>2012-08-09T06:58:57Z</time>
      </trkpt>
      <trkpt lat="45.25606" lon="6.07824">
        <ele>2085.7175292969</ele>
        <time>2012-08-09T06:59:01Z</time>
      </trkpt>
      <trkpt lat="45.25609" lon="6.07827">
        <ele>2084.2756347656</ele>
        <time>2012-08-09T06:59:05Z</time>
      </trkpt>
      <trkpt lat="45.2561" lon="6.07829">
        <ele>2083.3142089844</ele>
        <time>2012-08-09T06:59:07Z</time>
      </trkpt>
      <trkpt lat="45.25613" lon="6.07833">
        <ele>2082.3530273438</ele>
        <time>2012-08-09T06:59:10Z</time>
      </trkpt>
      <trkpt lat="45.25615" lon="6.07829">
        <ele>2079.9497070312</ele>
        <time>2012-08-09T06:59:16Z</time>
      </trkpt>
      <trkpt lat="45.25618" lon="6.0783">
        <ele>2077.5463867188</ele>
        <time>2012-08-09T06:59:21Z</time>
      </trkpt>
      <trkpt lat="45.25618" lon="6.07833">
        <ele>2076.5852050781</ele>
        <time>2012-08-09T06:59:25Z</time>
      </trkpt>
      <trkpt lat="45.25621" lon="6.07835">
        <ele>2074.6623535156</ele>
        <time>2012-08-09T06:59:32Z</time>
      </trkpt>
      <trkpt lat="45.25624" lon="6.07841">
        <ele>2072.2590332031</ele>
        <time>2012-08-09T06:59:39Z</time>
      </trkpt>
      <trkpt lat="45.25624" lon="6.07843">
        <ele>2070.8171386719</ele>
        <time>2012-08-09T06:59:44Z</time>
      </trkpt>
      <trkpt lat="45.25626" lon="6.07843">
        <ele>2069.8557128906</ele>
        <time>2012-08-09T06:59:49Z</time>
      </trkpt>
      <trkpt lat="45.25628" lon="6.07846">
        <ele>2068.4138183594</ele>
        <time>2012-08-09T06:59:53Z</time>
      </trkpt>
      <trkpt lat="45.25631" lon="6.07849">
        <ele>2066.0104980469</ele>
        <time>2012-08-09T06:59:59Z</time>
      </trkpt>
      <trkpt lat="45.25635" lon="6.07856">
        <ele>2064.5686035156</ele>
        <time>2012-08-09T07:00:04Z</time>
      </trkpt>
      <trkpt lat="45.25635" lon="6.0786">
        <ele>2064.5686035156</ele>
        <time>2012-08-09T07:00:07Z</time>
      </trkpt>
      <trkpt lat="45.25636" lon="6.07865">
        <ele>2063.6071777344</ele>
        <time>2012-08-09T07:00:11Z</time>
      </trkpt>
      <trkpt lat="45.25639" lon="6.07869">
        <ele>2062.1652832031</ele>
        <time>2012-08-09T07:00:17Z</time>
      </trkpt>
      <trkpt lat="45.25643" lon="6.07868">
        <ele>2059.28125</ele>
        <time>2012-08-09T07:00:24Z</time>
      </trkpt>
      <trkpt lat="45.25646" lon="6.07876">
        <ele>2056.8779296875</ele>
        <time>2012-08-09T07:00:30Z</time>
      </trkpt>
      <trkpt lat="45.25649" lon="6.07874">
        <ele>2055.4360351562</ele>
        <time>2012-08-09T07:00:35Z</time>
      </trkpt>
      <trkpt lat="45.25653" lon="6.0787">
        <ele>2053.0327148438</ele>
        <time>2012-08-09T07:00:41Z</time>
      </trkpt>
      <trkpt lat="45.25658" lon="6.07877">
        <ele>2049.1875</ele>
        <time>2012-08-09T07:00:46Z</time>
      </trkpt>
      <trkpt lat="45.25664" lon="6.07881">
        <ele>2046.7841796875</ele>
        <time>2012-08-09T07:00:52Z</time>
      </trkpt>
      <trkpt lat="45.25668" lon="6.07887">
        <ele>2044.380859375</ele>
        <time>2012-08-09T07:00:57Z</time>
      </trkpt>
      <trkpt lat="45.25669" lon="6.07896">
        <ele>2042.4582519531</ele>
        <time>2012-08-09T07:01:03Z</time>
      </trkpt>
      <trkpt lat="45.2567" lon="6.07902">
        <ele>2041.9775390625</ele>
        <time>2012-08-09T07:01:06Z</time>
      </trkpt>
      <trkpt lat="45.25674" lon="6.07907">
        <ele>2040.0549316406</ele>
        <time>2012-08-09T07:01:12Z</time>
      </trkpt>
      <trkpt lat="45.25675" lon="6.07907">
        <ele>2039.57421875</ele>
        <time>2012-08-09T07:01:13Z</time>
      </trkpt>
      <trkpt lat="45.25677" lon="6.07914">
        <ele>2038.6130371094</ele>
        <time>2012-08-09T07:01:18Z</time>
      </trkpt>
      <trkpt lat="45.25674" lon="6.07923">
        <ele>2037.6516113281</ele>
        <time>2012-08-09T07:01:25Z</time>
      </trkpt>
      <trkpt lat="45.25674" lon="6.07926">
        <ele>2036.6901855469</ele>
        <time>2012-08-09T07:01:29Z</time>
      </trkpt>
      <trkpt lat="45.25679" lon="6.07931">
        <ele>2034.287109375</ele>
        <time>2012-08-09T07:01:36Z</time>
      </trkpt>
      <trkpt lat="45.2568" lon="6.07935">
        <ele>2032.8449707031</ele>
        <time>2012-08-09T07:01:42Z</time>
      </trkpt>
      <trkpt lat="45.25681" lon="6.07939">
        <ele>2031.4030761719</ele>
        <time>2012-08-09T07:01:48Z</time>
      </trkpt>
      <trkpt lat="45.25682" lon="6.07945">
        <ele>2029.9611816406</ele>
        <time>2012-08-09T07:01:52Z</time>
      </trkpt>
      <trkpt lat="45.25683" lon="6.0795">
        <ele>2028.5192871094</ele>
        <time>2012-08-09T07:01:56Z</time>
      </trkpt>
      <trkpt lat="45.25684" lon="6.07962">
        <ele>2026.1157226562</ele>
        <time>2012-08-09T07:02:00Z</time>
      </trkpt>
      <trkpt lat="45.25681" lon="6.07971">
        <ele>2025.154296875</ele>
        <time>2012-08-09T07:02:05Z</time>
      </trkpt>
      <trkpt lat="45.25679" lon="6.07981">
        <ele>2023.7124023438</ele>
        <time>2012-08-09T07:02:10Z</time>
      </trkpt>
      <trkpt lat="45.25681" lon="6.07983">
        <ele>2022.7512207031</ele>
        <time>2012-08-09T07:02:13Z</time>
      </trkpt>
      <trkpt lat="45.25685" lon="6.07984">
        <ele>2020.8286132812</ele>
        <time>2012-08-09T07:02:16Z</time>
      </trkpt>
      <trkpt lat="45.25689" lon="6.07981">
        <ele>2018.4252929688</ele>
        <time>2012-08-09T07:02:22Z</time>
      </trkpt>
      <trkpt lat="45.25695" lon="6.07984">
        <ele>2016.9833984375</ele>
        <time>2012-08-09T07:02:27Z</time>
      </trkpt>
      <trkpt lat="45.25698" lon="6.07985">
        <ele>2014.0993652344</ele>
        <time>2012-08-09T07:02:31Z</time>
      </trkpt>
      <trkpt lat="45.25702" lon="6.07987">
        <ele>2012.1767578125</ele>
        <time>2012-08-09T07:02:37Z</time>
      </trkpt>
      <trkpt lat="45.25705" lon="6.07987">
        <ele>2010.25390625</ele>
        <time>2012-08-09T07:02:42Z</time>
      </trkpt>
      <trkpt lat="45.25706" lon="6.07992">
        <ele>2010.25390625</ele>
        <time>2012-08-09T07:02:47Z</time>
      </trkpt>
      <trkpt lat="45.25706" lon="6.07996">
        <ele>2009.7731933594</ele>
        <time>2012-08-09T07:02:51Z</time>
      </trkpt>
      <trkpt lat="45.25705" lon="6.08">
        <ele>2008.3312988281</ele>
        <time>2012-08-09T07:02:56Z</time>
      </trkpt>
      <trkpt lat="45.25707" lon="6.08002">
        <ele>2006.8894042969</ele>
        <time>2012-08-09T07:03:01Z</time>
      </trkpt>
      <trkpt lat="45.2571" lon="6.08005">
        <ele>2005.9279785156</ele>
        <time>2012-08-09T07:03:05Z</time>
      </trkpt>
      <trkpt lat="45.25715" lon="6.08008">
        <ele>2003.5249023438</ele>
        <time>2012-08-09T07:03:10Z</time>
      </trkpt>
      <trkpt lat="45.25716" lon="6.08007">
        <ele>2002.5634765625</ele>
        <time>2012-08-09T07:03:11Z</time>
      </trkpt>
      <trkpt lat="45.25721" lon="6.08">
        <ele>2000.1604003906</ele>
        <time>2012-08-09T07:03:16Z</time>
      </trkpt>
      <trkpt lat="45.25723" lon="6.07997">
        <ele>1998.7182617188</ele>
        <time>2012-08-09T07:03:19Z</time>
      </trkpt>
      <trkpt lat="45.25728" lon="6.07991">
        <ele>1997.2763671875</ele>
        <time>2012-08-09T07:03:24Z</time>
      </trkpt>
      <trkpt lat="45.25734" lon="6.07988">
        <ele>1996.3151855469</ele>
        <time>2012-08-09T07:03:30Z</time>
      </trkpt>
      <trkpt lat="45.25736" lon="6.07991">
        <ele>1996.7956542969</ele>
        <time>2012-08-09T07:03:32Z</time>
      </trkpt>
      <trkpt lat="45.25738" lon="6.07993">
        <ele>1996.7956542969</ele>
        <time>2012-08-09T07:03:34Z</time>
      </trkpt>
      <trkpt lat="45.2574" lon="6.08001">
        <ele>1996.3151855469</ele>
        <time>2012-08-09T07:03:40Z</time>
      </trkpt>
      <trkpt lat="45.25744" lon="6.08007">
        <ele>1995.353515625</ele>
        <time>2012-08-09T07:03:45Z</time>
      </trkpt>
      <trkpt lat="45.25748" lon="6.08012">
        <ele>1993.4309082031</ele>
        <time>2012-08-09T07:03:50Z</time>
      </trkpt>
      <trkpt lat="45.25747" lon="6.08019">
        <ele>1991.9890136719</ele>
        <time>2012-08-09T07:03:54Z</time>
      </trkpt>
      <trkpt lat="45.25747" lon="6.08028">
        <ele>1990.06640625</ele>
        <time>2012-08-09T07:04:00Z</time>
      </trkpt>
      <trkpt lat="45.25751" lon="6.08034">
        <ele>1988.1437988281</ele>
        <time>2012-08-09T07:04:04Z</time>
      </trkpt>
      <trkpt lat="45.25756" lon="6.08032">
        <ele>1983.3371582031</ele>
        <time>2012-08-09T07:04:13Z</time>
      </trkpt>
      <trkpt lat="45.25763" lon="6.08033">
        <ele>1983.3371582031</ele>
        <time>2012-08-09T07:04:17Z</time>
      </trkpt>
      <trkpt lat="45.25771" lon="6.08038">
        <ele>1981.8952636719</ele>
        <time>2012-08-09T07:04:21Z</time>
      </trkpt>
      <trkpt lat="45.2578" lon="6.08043">
        <ele>1978.5305175781</ele>
        <time>2012-08-09T07:04:26Z</time>
      </trkpt>
      <trkpt lat="45.25781" lon="6.08044">
        <ele>1978.5305175781</ele>
        <time>2012-08-09T07:04:27Z</time>
      </trkpt>
      <trkpt lat="45.25785" lon="6.0805">
        <ele>1978.0498046875</ele>
        <time>2012-08-09T07:04:32Z</time>
      </trkpt>
      <trkpt lat="45.25788" lon="6.08056">
        <ele>1979.0109863281</ele>
        <time>2012-08-09T07:04:37Z</time>
      </trkpt>
      <trkpt lat="45.25788" lon="6.08057">
        <ele>1979.0109863281</ele>
        <time>2012-08-09T07:04:38Z</time>
      </trkpt>
      <trkpt lat="45.25792" lon="6.08061">
        <ele>1979.0109863281</ele>
        <time>2012-08-09T07:04:44Z</time>
      </trkpt>
      <trkpt lat="45.25798" lon="6.08061">
        <ele>1978.5305175781</ele>
        <time>2012-08-09T07:04:49Z</time>
      </trkpt>
      <trkpt lat="45.25803" lon="6.08057">
        <ele>1977.5690917969</ele>
        <time>2012-08-09T07:04:55Z</time>
      </trkpt>
      <trkpt lat="45.25807" lon="6.08054">
        <ele>1976.6079101562</ele>
        <time>2012-08-09T07:04:59Z</time>
      </trkpt>
      <trkpt lat="45.25809" lon="6.08053">
        <ele>1976.6079101562</ele>
        <time>2012-08-09T07:05:01Z</time>
      </trkpt>
      <trkpt lat="45.25813" lon="6.08049">
        <ele>1975.646484375</ele>
        <time>2012-08-09T07:05:08Z</time>
      </trkpt>
      <trkpt lat="45.25817" lon="6.08042">
        <ele>1975.646484375</ele>
        <time>2012-08-09T07:05:14Z</time>
      </trkpt>
      <trkpt lat="45.25819" lon="6.0804">
        <ele>1976.1271972656</ele>
        <time>2012-08-09T07:05:16Z</time>
      </trkpt>
      <trkpt lat="45.25822" lon="6.08039">
        <ele>1977.5690917969</ele>
        <time>2012-08-09T07:05:20Z</time>
      </trkpt>
      <trkpt lat="45.25826" lon="6.08032">
        <ele>1976.6079101562</ele>
        <time>2012-08-09T07:05:28Z</time>
      </trkpt>
      <trkpt lat="45.25827" lon="6.08025">
        <ele>1974.6853027344</ele>
        <time>2012-08-09T07:05:36Z</time>
      </trkpt>
      <trkpt lat="45.25827" lon="6.08021">
        <ele>1973.2434082031</ele>
        <time>2012-08-09T07:05:41Z</time>
      </trkpt>
      <trkpt lat="45.25826" lon="6.08016">
        <ele>1970.8400878906</ele>
        <time>2012-08-09T07:05:48Z</time>
      </trkpt>
      <trkpt lat="45.25825" lon="6.08012">
        <ele>1969.3981933594</ele>
        <time>2012-08-09T07:05:54Z</time>
      </trkpt>
      <trkpt lat="45.25826" lon="6.0801">
        <ele>1966.9948730469</ele>
        <time>2012-08-09T07:06:00Z</time>
      </trkpt>
      <trkpt lat="45.25826" lon="6.08005">
        <ele>1964.5915527344</ele>
        <time>2012-08-09T07:06:06Z</time>
      </trkpt>
      <trkpt lat="45.25831" lon="6.08002">
        <ele>1961.7075195312</ele>
        <time>2012-08-09T07:06:11Z</time>
      </trkpt>
      <trkpt lat="45.25834" lon="6.08001">
        <ele>1960.2653808594</ele>
        <time>2012-08-09T07:06:16Z</time>
      </trkpt>
      <trkpt lat="45.25831" lon="6.07999">
        <ele>1958.8234863281</ele>
        <time>2012-08-09T07:06:21Z</time>
      </trkpt>
      <trkpt lat="45.25833" lon="6.07997">
        <ele>1957.3815917969</ele>
        <time>2012-08-09T07:06:26Z</time>
      </trkpt>
      <trkpt lat="45.25837" lon="6.07995">
        <ele>1955.939453125</ele>
        <time>2012-08-09T07:06:31Z</time>
      </trkpt>
      <trkpt lat="45.25837" lon="6.07991">
        <ele>1953.0556640625</ele>
        <time>2012-08-09T07:06:38Z</time>
      </trkpt>
      <trkpt lat="45.2584" lon="6.0799">
        <ele>1951.6137695312</ele>
        <time>2012-08-09T07:06:43Z</time>
      </trkpt>
      <trkpt lat="45.25843" lon="6.07991">
        <ele>1950.65234375</ele>
        <time>2012-08-09T07:06:49Z</time>
      </trkpt>
      <trkpt lat="45.25848" lon="6.07992">
        <ele>1949.6911621094</ele>
        <time>2012-08-09T07:06:54Z</time>
      </trkpt>
      <trkpt lat="45.25846" lon="6.07989">
        <ele>1948.2490234375</ele>
        <time>2012-08-09T07:06:59Z</time>
      </trkpt>
      <trkpt lat="45.25845" lon="6.07986">
        <ele>1947.2875976562</ele>
        <time>2012-08-09T07:07:04Z</time>
      </trkpt>
      <trkpt lat="45.25844" lon="6.07982">
        <ele>1946.3264160156</ele>
        <time>2012-08-09T07:07:09Z</time>
      </trkpt>
      <trkpt lat="45.25843" lon="6.07977">
        <ele>1944.8842773438</ele>
        <time>2012-08-09T07:07:15Z</time>
      </trkpt>
      <trkpt lat="45.25842" lon="6.07973">
        <ele>1942.4812011719</ele>
        <time>2012-08-09T07:07:20Z</time>
      </trkpt>
      <trkpt lat="45.25843" lon="6.07969">
        <ele>1940.0778808594</ele>
        <time>2012-08-09T07:07:25Z</time>
      </trkpt>
      <trkpt lat="45.25845" lon="6.07972">
        <ele>1938.6359863281</ele>
        <time>2012-08-09T07:07:29Z</time>
      </trkpt>
      <trkpt lat="45.2585" lon="6.07977">
        <ele>1936.2326660156</ele>
        <time>2012-08-09T07:07:35Z</time>
      </trkpt>
      <trkpt lat="45.25853" lon="6.07981">
        <ele>1935.2712402344</ele>
        <time>2012-08-09T07:07:40Z</time>
      </trkpt>
      <trkpt lat="45.25854" lon="6.07982">
        <ele>1934.7907714844</ele>
        <time>2012-08-09T07:07:41Z</time>
      </trkpt>
      <trkpt lat="45.25857" lon="6.07986">
        <ele>1933.3486328125</ele>
        <time>2012-08-09T07:07:45Z</time>
      </trkpt>
      <trkpt lat="45.25861" lon="6.0799">
        <ele>1931.9064941406</ele>
        <time>2012-08-09T07:07:50Z</time>
      </trkpt>
      <trkpt lat="45.25863" lon="6.07987">
        <ele>1931.42578125</ele>
        <time>2012-08-09T07:07:54Z</time>
      </trkpt>
      <trkpt lat="45.25863" lon="6.07984">
        <ele>1931.42578125</ele>
        <time>2012-08-09T07:07:56Z</time>
      </trkpt>
      <trkpt lat="45.25861" lon="6.07977">
        <ele>1930.4645996094</ele>
        <time>2012-08-09T07:08:00Z</time>
      </trkpt>
      <trkpt lat="45.2586" lon="6.07971">
        <ele>1929.5031738281</ele>
        <time>2012-08-09T07:08:04Z</time>
      </trkpt>
      <trkpt lat="45.25859" lon="6.07966">
        <ele>1927.5805664062</ele>
        <time>2012-08-09T07:08:10Z</time>
      </trkpt>
      <trkpt lat="45.25858" lon="6.07961">
        <ele>1925.1772460938</ele>
        <time>2012-08-09T07:08:14Z</time>
      </trkpt>
      <trkpt lat="45.2586" lon="6.07957">
        <ele>1923.2548828125</ele>
        <time>2012-08-09T07:08:19Z</time>
      </trkpt>
      <trkpt lat="45.25864" lon="6.07953">
        <ele>1921.33203125</ele>
        <time>2012-08-09T07:08:25Z</time>
      </trkpt>
      <trkpt lat="45.25866" lon="6.07951">
        <ele>1919.8901367188</ele>
        <time>2012-08-09T07:08:30Z</time>
      </trkpt>
      <trkpt lat="45.25868" lon="6.07947">
        <ele>1918.4482421875</ele>
        <time>2012-08-09T07:08:34Z</time>
      </trkpt>
      <trkpt lat="45.25869" lon="6.07941">
        <ele>1917.4868164062</ele>
        <time>2012-08-09T07:08:39Z</time>
      </trkpt>
      <trkpt lat="45.25869" lon="6.07936">
        <ele>1917.0063476562</ele>
        <time>2012-08-09T07:08:42Z</time>
      </trkpt>
      <trkpt lat="45.25873" lon="6.07934">
        <ele>1915.5642089844</ele>
        <time>2012-08-09T07:08:48Z</time>
      </trkpt>
      <trkpt lat="45.25874" lon="6.0794">
        <ele>1915.0834960938</ele>
        <time>2012-08-09T07:08:52Z</time>
      </trkpt>
      <trkpt lat="45.25875" lon="6.07943">
        <ele>1915.0834960938</ele>
        <time>2012-08-09T07:08:54Z</time>
      </trkpt>
      <trkpt lat="45.25879" lon="6.07947">
        <ele>1915.0834960938</ele>
        <time>2012-08-09T07:08:59Z</time>
      </trkpt>
      <trkpt lat="45.25884" lon="6.07954">
        <ele>1914.1220703125</ele>
        <time>2012-08-09T07:09:05Z</time>
      </trkpt>
      <trkpt lat="45.25886" lon="6.07959">
        <ele>1913.1608886719</ele>
        <time>2012-08-09T07:09:12Z</time>
      </trkpt>
      <trkpt lat="45.25886" lon="6.07961">
        <ele>1913.1608886719</ele>
        <time>2012-08-09T07:09:16Z</time>
      </trkpt>
      <trkpt lat="45.25887" lon="6.07962">
        <ele>1912.1994628906</ele>
        <time>2012-08-09T07:09:21Z</time>
      </trkpt>
      <trkpt lat="45.2589" lon="6.07968">
        <ele>1910.2768554688</ele>
        <time>2012-08-09T07:09:32Z</time>
      </trkpt>
      <trkpt lat="45.25894" lon="6.07975">
        <ele>1909.3156738281</ele>
        <time>2012-08-09T07:09:38Z</time>
      </trkpt>
      <trkpt lat="45.25895" lon="6.07976">
        <ele>1909.3156738281</ele>
        <time>2012-08-09T07:09:39Z</time>
      </trkpt>
      <trkpt lat="45.25897" lon="6.0798">
        <ele>1908.3542480469</ele>
        <time>2012-08-09T07:09:45Z</time>
      </trkpt>
      <trkpt lat="45.25899" lon="6.07982">
        <ele>1907.3930664062</ele>
        <time>2012-08-09T07:09:51Z</time>
      </trkpt>
      <trkpt lat="45.25902" lon="6.07984">
        <ele>1906.9123535156</ele>
        <time>2012-08-09T07:09:55Z</time>
      </trkpt>
      <trkpt lat="45.25905" lon="6.07983">
        <ele>1905.4704589844</ele>
        <time>2012-08-09T07:10:02Z</time>
      </trkpt>
      <trkpt lat="45.25903" lon="6.07979">
        <ele>1904.0285644531</ele>
        <time>2012-08-09T07:10:07Z</time>
      </trkpt>
      <trkpt lat="45.25901" lon="6.07975">
        <ele>1901.6252441406</ele>
        <time>2012-08-09T07:10:11Z</time>
      </trkpt>
      <trkpt lat="45.259" lon="6.07969">
        <ele>1901.14453125</ele>
        <time>2012-08-09T07:10:15Z</time>
      </trkpt>
      <trkpt lat="45.25898" lon="6.07963">
        <ele>1898.7409667969</ele>
        <time>2012-08-09T07:10:22Z</time>
      </trkpt>
      <trkpt lat="45.25898" lon="6.07957">
        <ele>1896.337890625</ele>
        <time>2012-08-09T07:10:31Z</time>
      </trkpt>
      <trkpt lat="45.259" lon="6.07953">
        <ele>1895.3764648438</ele>
        <time>2012-08-09T07:10:36Z</time>
      </trkpt>
      <trkpt lat="45.25901" lon="6.07957">
        <ele>1894.4150390625</ele>
        <time>2012-08-09T07:10:41Z</time>
      </trkpt>
      <trkpt lat="45.25904" lon="6.07962">
        <ele>1892.9731445312</ele>
        <time>2012-08-09T07:10:46Z</time>
      </trkpt>
      <trkpt lat="45.25907" lon="6.07967">
        <ele>1891.53125</ele>
        <time>2012-08-09T07:10:50Z</time>
      </trkpt>
      <trkpt lat="45.25911" lon="6.07971">
        <ele>1891.0505371094</ele>
        <time>2012-08-09T07:10:54Z</time>
      </trkpt>
      <trkpt lat="45.25915" lon="6.07975">
        <ele>1891.0505371094</ele>
        <time>2012-08-09T07:10:59Z</time>
      </trkpt>
      <trkpt lat="45.25919" lon="6.07978">
        <ele>1890.0893554688</ele>
        <time>2012-08-09T07:11:04Z</time>
      </trkpt>
      <trkpt lat="45.25923" lon="6.07974">
        <ele>1889.1279296875</ele>
        <time>2012-08-09T07:11:10Z</time>
      </trkpt>
      <trkpt lat="45.25924" lon="6.07972">
        <ele>1888.6474609375</ele>
        <time>2012-08-09T07:11:12Z</time>
      </trkpt>
      <trkpt lat="45.25922" lon="6.07964">
        <ele>1886.724609375</ele>
        <time>2012-08-09T07:11:19Z</time>
      </trkpt>
      <trkpt lat="45.25921" lon="6.07959">
        <ele>1884.3215332031</ele>
        <time>2012-08-09T07:11:25Z</time>
      </trkpt>
      <trkpt lat="45.2592" lon="6.07953">
        <ele>1883.3598632812</ele>
        <time>2012-08-09T07:11:29Z</time>
      </trkpt>
      <trkpt lat="45.25919" lon="6.07947">
        <ele>1882.3986816406</ele>
        <time>2012-08-09T07:11:34Z</time>
      </trkpt>
      <trkpt lat="45.25917" lon="6.07945">
        <ele>1881.91796875</ele>
        <time>2012-08-09T07:11:35Z</time>
      </trkpt>
      <trkpt lat="45.25916" lon="6.0794">
        <ele>1880.4760742188</ele>
        <time>2012-08-09T07:11:39Z</time>
      </trkpt>
      <trkpt lat="45.25916" lon="6.07934">
        <ele>1879.5146484375</ele>
        <time>2012-08-09T07:11:43Z</time>
      </trkpt>
      <trkpt lat="45.25915" lon="6.07927">
        <ele>1878.0727539062</ele>
        <time>2012-08-09T07:11:48Z</time>
      </trkpt>
      <trkpt lat="45.25914" lon="6.07918">
        <ele>1876.1501464844</ele>
        <time>2012-08-09T07:11:53Z</time>
      </trkpt>
      <trkpt lat="45.25921" lon="6.07922">
        <ele>1874.2275390625</ele>
        <time>2012-08-09T07:12:00Z</time>
      </trkpt>
      <trkpt lat="45.25922" lon="6.07923">
        <ele>1874.2275390625</ele>
        <time>2012-08-09T07:12:01Z</time>
      </trkpt>
      <trkpt lat="45.2593" lon="6.07926">
        <ele>1872.7856445312</ele>
        <time>2012-08-09T07:12:08Z</time>
      </trkpt>
      <trkpt lat="45.2593" lon="6.07926">
        <ele>1871.82421875</ele>
        <time>2012-08-09T07:12:09Z</time>
      </trkpt>
      <trkpt lat="45.25932" lon="6.07923">
        <ele>1870.8630371094</ele>
        <time>2012-08-09T07:12:12Z</time>
      </trkpt>
      <trkpt lat="45.25931" lon="6.07914">
        <ele>1867.9787597656</ele>
        <time>2012-08-09T07:12:20Z</time>
      </trkpt>
      <trkpt lat="45.25929" lon="6.07908">
        <ele>1866.5368652344</ele>
        <time>2012-08-09T07:12:26Z</time>
      </trkpt>
      <trkpt lat="45.25928" lon="6.079">
        <ele>1865.0949707031</ele>
        <time>2012-08-09T07:12:32Z</time>
      </trkpt>
      <trkpt lat="45.25929" lon="6.07896">
        <ele>1863.1723632812</ele>
        <time>2012-08-09T07:12:36Z</time>
      </trkpt>
      <trkpt lat="45.25933" lon="6.07898">
        <ele>1861.73046875</ele>
        <time>2012-08-09T07:12:41Z</time>
      </trkpt>
      <trkpt lat="45.25935" lon="6.07899">
        <ele>1861.2497558594</ele>
        <time>2012-08-09T07:12:42Z</time>
      </trkpt>
      <trkpt lat="45.25938" lon="6.07902">
        <ele>1860.7690429688</ele>
        <time>2012-08-09T07:12:46Z</time>
      </trkpt>
      <trkpt lat="45.2594" lon="6.07899">
        <ele>1859.3271484375</ele>
        <time>2012-08-09T07:12:51Z</time>
      </trkpt>
      <trkpt lat="45.2594" lon="6.07898">
        <ele>1858.8464355469</ele>
        <time>2012-08-09T07:12:52Z</time>
      </trkpt>
      <trkpt lat="45.25939" lon="6.07893">
        <ele>1857.8852539062</ele>
        <time>2012-08-09T07:12:55Z</time>
      </trkpt>
      <trkpt lat="45.2594" lon="6.07881">
        <ele>1855.4819335938</ele>
        <time>2012-08-09T07:13:03Z</time>
      </trkpt>
      <trkpt lat="45.25939" lon="6.0788">
        <ele>1855.4819335938</ele>
        <time>2012-08-09T07:13:04Z</time>
      </trkpt>
      <trkpt lat="45.25938" lon="6.07874">
        <ele>1854.0400390625</ele>
        <time>2012-08-09T07:13:08Z</time>
      </trkpt>
      <trkpt lat="45.25939" lon="6.07872">
        <ele>1853.5593261719</ele>
        <time>2012-08-09T07:13:10Z</time>
      </trkpt>
      <trkpt lat="45.25941" lon="6.07871">
        <ele>1853.0786132812</ele>
        <time>2012-08-09T07:13:12Z</time>
      </trkpt>
      <trkpt lat="45.25945" lon="6.07877">
        <ele>1853.0786132812</ele>
        <time>2012-08-09T07:13:17Z</time>
      </trkpt>
      <trkpt lat="45.2595" lon="6.07881">
        <ele>1851.6364746094</ele>
        <time>2012-08-09T07:13:24Z</time>
      </trkpt>
      <trkpt lat="45.25955" lon="6.07886">
        <ele>1850.6750488281</ele>
        <time>2012-08-09T07:13:30Z</time>
      </trkpt>
      <trkpt lat="45.25957" lon="6.07887">
        <ele>1850.6750488281</ele>
        <time>2012-08-09T07:13:32Z</time>
      </trkpt>
      <trkpt lat="45.25963" lon="6.07893">
        <ele>1848.7524414062</ele>
        <time>2012-08-09T07:13:39Z</time>
      </trkpt>
      <trkpt lat="45.25967" lon="6.07902">
        <ele>1846.3493652344</ele>
        <time>2012-08-09T07:13:45Z</time>
      </trkpt>
      <trkpt lat="45.25974" lon="6.07907">
        <ele>1844.9072265625</ele>
        <time>2012-08-09T07:13:51Z</time>
      </trkpt>
      <trkpt lat="45.25971" lon="6.07898">
        <ele>1843.4653320312</ele>
        <time>2012-08-09T07:13:56Z</time>
      </trkpt>
      <trkpt lat="45.25971" lon="6.07892">
        <ele>1842.0234375</ele>
        <time>2012-08-09T07:13:59Z</time>
      </trkpt>
      <trkpt lat="45.25973" lon="6.0789">
        <ele>1840.5812988281</ele>
        <time>2012-08-09T07:14:01Z</time>
      </trkpt>
      <trkpt lat="45.25975" lon="6.07882">
        <ele>1838.1782226562</ele>
        <time>2012-08-09T07:14:07Z</time>
      </trkpt>
      <trkpt lat="45.25976" lon="6.07882">
        <ele>1837.216796875</ele>
        <time>2012-08-09T07:14:08Z</time>
      </trkpt>
      <trkpt lat="45.25982" lon="6.07889">
        <ele>1834.8134765625</ele>
        <time>2012-08-09T07:14:15Z</time>
      </trkpt>
      <trkpt lat="45.25988" lon="6.07893">
        <ele>1834.3327636719</ele>
        <time>2012-08-09T07:14:21Z</time>
      </trkpt>
      <trkpt lat="45.2599" lon="6.07895">
        <ele>1834.3327636719</ele>
        <time>2012-08-09T07:14:23Z</time>
      </trkpt>
      <trkpt lat="45.25994" lon="6.07896">
        <ele>1832.890625</ele>
        <time>2012-08-09T07:14:28Z</time>
      </trkpt>
      <trkpt lat="45.25996" lon="6.07888">
        <ele>1831.4487304688</ele>
        <time>2012-08-09T07:14:35Z</time>
      </trkpt>
      <trkpt lat="45.25999" lon="6.07884">
        <ele>1830.0068359375</ele>
        <time>2012-08-09T07:14:39Z</time>
      </trkpt>
      <trkpt lat="45.26" lon="6.07881">
        <ele>1829.0454101562</ele>
        <time>2012-08-09T07:14:42Z</time>
      </trkpt>
      <trkpt lat="45.26" lon="6.07872">
        <ele>1825.6809082031</ele>
        <time>2012-08-09T07:14:48Z</time>
      </trkpt>
      <trkpt lat="45.25999" lon="6.07869">
        <ele>1824.7197265625</ele>
        <time>2012-08-09T07:14:50Z</time>
      </trkpt>
      <trkpt lat="45.25999" lon="6.07864">
        <ele>1823.2778320312</ele>
        <time>2012-08-09T07:14:53Z</time>
      </trkpt>
      <trkpt lat="45.25999" lon="6.07856">
        <ele>1821.8356933594</ele>
        <time>2012-08-09T07:14:57Z</time>
      </trkpt>
      <trkpt lat="45.25997" lon="6.0785">
        <ele>1821.3549804688</ele>
        <time>2012-08-09T07:15:01Z</time>
      </trkpt>
      <trkpt lat="45.25994" lon="6.07843">
        <ele>1820.3937988281</ele>
        <time>2012-08-09T07:15:07Z</time>
      </trkpt>
      <trkpt lat="45.25994" lon="6.07841">
        <ele>1820.3937988281</ele>
        <time>2012-08-09T07:15:08Z</time>
      </trkpt>
      <trkpt lat="45.26" lon="6.07838">
        <ele>1818.4709472656</ele>
        <time>2012-08-09T07:15:16Z</time>
      </trkpt>
      <trkpt lat="45.26003" lon="6.07839">
        <ele>1817.0290527344</ele>
        <time>2012-08-09T07:15:21Z</time>
      </trkpt>
      <trkpt lat="45.26006" lon="6.07837">
        <ele>1815.5871582031</ele>
        <time>2012-08-09T07:15:25Z</time>
      </trkpt>
      <trkpt lat="45.2601" lon="6.07839">
        <ele>1815.1064453125</ele>
        <time>2012-08-09T07:15:29Z</time>
      </trkpt>
      <trkpt lat="45.26013" lon="6.0784">
        <ele>1814.1450195312</ele>
        <time>2012-08-09T07:15:32Z</time>
      </trkpt>
      <trkpt lat="45.26019" lon="6.07844">
        <ele>1812.703125</ele>
        <time>2012-08-09T07:15:37Z</time>
      </trkpt>
      <trkpt lat="45.26019" lon="6.07841">
        <ele>1811.7419433594</ele>
        <time>2012-08-09T07:15:40Z</time>
      </trkpt>
      <trkpt lat="45.26019" lon="6.07835">
        <ele>1810.2998046875</ele>
        <time>2012-08-09T07:15:44Z</time>
      </trkpt>
      <trkpt lat="45.26014" lon="6.07828">
        <ele>1808.3771972656</ele>
        <time>2012-08-09T07:15:49Z</time>
      </trkpt>
      <trkpt lat="45.26016" lon="6.07826">
        <ele>1806.4545898438</ele>
        <time>2012-08-09T07:15:52Z</time>
      </trkpt>
      <trkpt lat="45.26017" lon="6.07821">
        <ele>1804.5319824219</ele>
        <time>2012-08-09T07:15:59Z</time>
      </trkpt>
      <trkpt lat="45.26017" lon="6.07817">
        <ele>1802.6091308594</ele>
        <time>2012-08-09T07:16:04Z</time>
      </trkpt>
      <trkpt lat="45.2602" lon="6.07813">
        <ele>1800.6865234375</ele>
        <time>2012-08-09T07:16:09Z</time>
      </trkpt>
      <trkpt lat="45.26023" lon="6.07811">
        <ele>1799.7253417969</ele>
        <time>2012-08-09T07:16:13Z</time>
      </trkpt>
      <trkpt lat="45.26027" lon="6.0781">
        <ele>1799.7253417969</ele>
        <time>2012-08-09T07:16:17Z</time>
      </trkpt>
      <trkpt lat="45.2603" lon="6.07808">
        <ele>1798.283203125</ele>
        <time>2012-08-09T07:16:20Z</time>
      </trkpt>
      <trkpt lat="45.26037" lon="6.07806">
        <ele>1797.3220214844</ele>
        <time>2012-08-09T07:16:27Z</time>
      </trkpt>
      <trkpt lat="45.2604" lon="6.07804">
        <ele>1796.8413085938</ele>
        <time>2012-08-09T07:16:30Z</time>
      </trkpt>
      <trkpt lat="45.26047" lon="6.07802">
        <ele>1794.9187011719</ele>
        <time>2012-08-09T07:16:38Z</time>
      </trkpt>
      <trkpt lat="45.26052" lon="6.07805">
        <ele>1793.4768066406</ele>
        <time>2012-08-09T07:16:44Z</time>
      </trkpt>
      <trkpt lat="45.26055" lon="6.07801">
        <ele>1792.99609375</ele>
        <time>2012-08-09T07:16:48Z</time>
      </trkpt>
      <trkpt lat="45.26062" lon="6.07792">
        <ele>1790.1123046875</ele>
        <time>2012-08-09T07:16:57Z</time>
      </trkpt>
      <trkpt lat="45.26064" lon="6.07789">
        <ele>1790.1123046875</ele>
        <time>2012-08-09T07:16:59Z</time>
      </trkpt>
      <trkpt lat="45.26068" lon="6.07788">
        <ele>1789.1508789062</ele>
        <time>2012-08-09T07:17:04Z</time>
      </trkpt>
      <trkpt lat="45.26072" lon="6.07784">
        <ele>1788.1896972656</ele>
        <time>2012-08-09T07:17:08Z</time>
      </trkpt>
      <trkpt lat="45.26074" lon="6.07777">
        <ele>1787.7087402344</ele>
        <time>2012-08-09T07:17:13Z</time>
      </trkpt>
      <trkpt lat="45.26075" lon="6.07772">
        <ele>1785.7861328125</ele>
        <time>2012-08-09T07:17:17Z</time>
      </trkpt>
      <trkpt lat="45.26077" lon="6.07769">
        <ele>1784.8249511719</ele>
        <time>2012-08-09T07:17:20Z</time>
      </trkpt>
      <trkpt lat="45.26081" lon="6.07763">
        <ele>1782.4216308594</ele>
        <time>2012-08-09T07:17:27Z</time>
      </trkpt>
      <trkpt lat="45.26086" lon="6.07757">
        <ele>1780.9797363281</ele>
        <time>2012-08-09T07:17:32Z</time>
      </trkpt>
      <trkpt lat="45.26088" lon="6.07755">
        <ele>1780.0183105469</ele>
        <time>2012-08-09T07:17:35Z</time>
      </trkpt>
      <trkpt lat="45.26089" lon="6.07753">
        <ele>1780.0183105469</ele>
        <time>2012-08-09T07:17:37Z</time>
      </trkpt>
      <trkpt lat="45.26094" lon="6.07751">
        <ele>1778.5764160156</ele>
        <time>2012-08-09T07:17:43Z</time>
      </trkpt>
      <trkpt lat="45.26098" lon="6.07747">
        <ele>1777.1345214844</ele>
        <time>2012-08-09T07:17:49Z</time>
      </trkpt>
      <trkpt lat="45.26101" lon="6.07744">
        <ele>1775.2116699219</ele>
        <time>2012-08-09T07:17:54Z</time>
      </trkpt>
      <trkpt lat="45.26104" lon="6.07741">
        <ele>1773.7697753906</ele>
        <time>2012-08-09T07:17:59Z</time>
      </trkpt>
      <trkpt lat="45.26108" lon="6.0774">
        <ele>1771.8469238281</ele>
        <time>2012-08-09T07:18:05Z</time>
      </trkpt>
      <trkpt lat="45.2611" lon="6.07744">
        <ele>1770.8857421875</ele>
        <time>2012-08-09T07:18:12Z</time>
      </trkpt>
      <trkpt lat="45.26115" lon="6.07743">
        <ele>1771.8469238281</ele>
        <time>2012-08-09T07:18:18Z</time>
      </trkpt>
      <trkpt lat="45.26118" lon="6.07738">
        <ele>1771.8469238281</ele>
        <time>2012-08-09T07:18:22Z</time>
      </trkpt>
      <trkpt lat="45.26124" lon="6.07733">
        <ele>1771.3662109375</ele>
        <time>2012-08-09T07:18:27Z</time>
      </trkpt>
      <trkpt lat="45.26132" lon="6.07728">
        <ele>1771.8469238281</ele>
        <time>2012-08-09T07:18:34Z</time>
      </trkpt>
      <trkpt lat="45.26136" lon="6.07722">
        <ele>1770.4050292969</ele>
        <time>2012-08-09T07:18:39Z</time>
      </trkpt>
      <trkpt lat="45.26138" lon="6.07718">
        <ele>1769.9243164062</ele>
        <time>2012-08-09T07:18:42Z</time>
      </trkpt>
      <trkpt lat="45.26144" lon="6.0771">
        <ele>1769.4438476562</ele>
        <time>2012-08-09T07:18:49Z</time>
      </trkpt>
      <trkpt lat="45.26146" lon="6.07709">
        <ele>1768.9631347656</ele>
        <time>2012-08-09T07:18:51Z</time>
      </trkpt>
      <trkpt lat="45.26154" lon="6.07709">
        <ele>1768.9631347656</ele>
        <time>2012-08-09T07:18:57Z</time>
      </trkpt>
      <trkpt lat="45.26155" lon="6.07709">
        <ele>1768.482421875</ele>
        <time>2012-08-09T07:18:59Z</time>
      </trkpt>
      <trkpt lat="45.2616" lon="6.07712">
        <ele>1768.0017089844</ele>
        <time>2012-08-09T07:19:05Z</time>
      </trkpt>
      <trkpt lat="45.26164" lon="6.07709">
        <ele>1767.0405273438</ele>
        <time>2012-08-09T07:19:10Z</time>
      </trkpt>
      <trkpt lat="45.26168" lon="6.07707">
        <ele>1766.5598144531</ele>
        <time>2012-08-09T07:19:14Z</time>
      </trkpt>
      <trkpt lat="45.26172" lon="6.07702">
        <ele>1767.5209960938</ele>
        <time>2012-08-09T07:19:20Z</time>
      </trkpt>
      <trkpt lat="45.26176" lon="6.07698">
        <ele>1769.4438476562</ele>
        <time>2012-08-09T07:19:24Z</time>
      </trkpt>
      <trkpt lat="45.2618" lon="6.07696">
        <ele>1769.4438476562</ele>
        <time>2012-08-09T07:19:28Z</time>
      </trkpt>
      <trkpt lat="45.26185" lon="6.07693">
        <ele>1770.4050292969</ele>
        <time>2012-08-09T07:19:35Z</time>
      </trkpt>
      <trkpt lat="45.26191" lon="6.07693">
        <ele>1771.8469238281</ele>
        <time>2012-08-09T07:19:40Z</time>
      </trkpt>
      <trkpt lat="45.26194" lon="6.07692">
        <ele>1771.8469238281</ele>
        <time>2012-08-09T07:19:44Z</time>
      </trkpt>
      <trkpt lat="45.26197" lon="6.07689">
        <ele>1771.3662109375</ele>
        <time>2012-08-09T07:19:49Z</time>
      </trkpt>
      <trkpt lat="45.26204" lon="6.07685">
        <ele>1771.3662109375</ele>
        <time>2012-08-09T07:19:56Z</time>
      </trkpt>
      <trkpt lat="45.26206" lon="6.07684">
        <ele>1771.3662109375</ele>
        <time>2012-08-09T07:19:58Z</time>
      </trkpt>
      <trkpt lat="45.26208" lon="6.07685">
        <ele>1771.8469238281</ele>
        <time>2012-08-09T07:20:04Z</time>
      </trkpt>
      <trkpt lat="45.26213" lon="6.07687">
        <ele>1774.2504882812</ele>
        <time>2012-08-09T07:20:10Z</time>
      </trkpt>
      <trkpt lat="45.26213" lon="6.07689">
        <ele>1775.2116699219</ele>
        <time>2012-08-09T07:20:16Z</time>
      </trkpt>
      <trkpt lat="45.2622" lon="6.07689">
        <ele>1778.095703125</ele>
        <time>2012-08-09T07:20:30Z</time>
      </trkpt>
      <trkpt lat="45.26225" lon="6.07692">
        <ele>1779.5375976562</ele>
        <time>2012-08-09T07:20:36Z</time>
      </trkpt>
      <trkpt lat="45.26226" lon="6.0769">
        <ele>1778.095703125</ele>
        <time>2012-08-09T07:20:40Z</time>
      </trkpt>
      <trkpt lat="45.26229" lon="6.07684">
        <ele>1775.6923828125</ele>
        <time>2012-08-09T07:20:46Z</time>
      </trkpt>
      <trkpt lat="45.26235" lon="6.07677">
        <ele>1773.7697753906</ele>
        <time>2012-08-09T07:20:53Z</time>
      </trkpt>
      <trkpt lat="45.26239" lon="6.07669">
        <ele>1770.8857421875</ele>
        <time>2012-08-09T07:21:00Z</time>
      </trkpt>
      <trkpt lat="45.26242" lon="6.07664">
        <ele>1768.482421875</ele>
        <time>2012-08-09T07:21:05Z</time>
      </trkpt>
      <trkpt lat="45.26246" lon="6.07662">
        <ele>1767.5209960938</ele>
        <time>2012-08-09T07:21:10Z</time>
      </trkpt>
      <trkpt lat="45.26249" lon="6.07659">
        <ele>1765.1179199219</ele>
        <time>2012-08-09T07:21:15Z</time>
      </trkpt>
      <trkpt lat="45.26248" lon="6.07653">
        <ele>1763.1953125</ele>
        <time>2012-08-09T07:21:19Z</time>
      </trkpt>
      <trkpt lat="45.2625" lon="6.0765">
        <ele>1762.2338867188</ele>
        <time>2012-08-09T07:21:23Z</time>
      </trkpt>
      <trkpt lat="45.26254" lon="6.07647">
        <ele>1759.8305664062</ele>
        <time>2012-08-09T07:21:29Z</time>
      </trkpt>
      <trkpt lat="45.26258" lon="6.07644">
        <ele>1757.4274902344</ele>
        <time>2012-08-09T07:21:35Z</time>
      </trkpt>
      <trkpt lat="45.2626" lon="6.07642">
        <ele>1756.4660644531</ele>
        <time>2012-08-09T07:21:40Z</time>
      </trkpt>
      <trkpt lat="45.26263" lon="6.07638">
        <ele>1754.0627441406</ele>
        <time>2012-08-09T07:21:46Z</time>
      </trkpt>
      <trkpt lat="45.26266" lon="6.07636">
        <ele>1752.1398925781</ele>
        <time>2012-08-09T07:21:51Z</time>
      </trkpt>
      <trkpt lat="45.26271" lon="6.07625">
        <ele>1747.8142089844</ele>
        <time>2012-08-09T07:22:05Z</time>
      </trkpt>
      <trkpt lat="45.26273" lon="6.07623">
        <ele>1747.8142089844</ele>
        <time>2012-08-09T07:22:09Z</time>
      </trkpt>
      <trkpt lat="45.26273" lon="6.07617">
        <ele>1745.4108886719</ele>
        <time>2012-08-09T07:22:16Z</time>
      </trkpt>
      <trkpt lat="45.26274" lon="6.07608">
        <ele>1741.5656738281</ele>
        <time>2012-08-09T07:22:29Z</time>
      </trkpt>
      <trkpt lat="45.26274" lon="6.07601">
        <ele>1739.6428222656</ele>
        <time>2012-08-09T07:22:35Z</time>
      </trkpt>
      <trkpt lat="45.26277" lon="6.07595">
        <ele>1737.2395019531</ele>
        <time>2012-08-09T07:22:39Z</time>
      </trkpt>
      <trkpt lat="45.2628" lon="6.07587">
        <ele>1735.7976074219</ele>
        <time>2012-08-09T07:22:45Z</time>
      </trkpt>
      <trkpt lat="45.26281" lon="6.07588">
        <ele>1734.3557128906</ele>
        <time>2012-08-09T07:22:50Z</time>
      </trkpt>
      <trkpt lat="45.26284" lon="6.07585">
        <ele>1732.9135742188</ele>
        <time>2012-08-09T07:22:55Z</time>
      </trkpt>
      <trkpt lat="45.26285" lon="6.07583">
        <ele>1731.9523925781</ele>
        <time>2012-08-09T07:22:57Z</time>
      </trkpt>
      <trkpt lat="45.26291" lon="6.07582">
        <ele>1731.4716796875</ele>
        <time>2012-08-09T07:23:02Z</time>
      </trkpt>
      <trkpt lat="45.26296" lon="6.0758">
        <ele>1730.0297851562</ele>
        <time>2012-08-09T07:23:07Z</time>
      </trkpt>
      <trkpt lat="45.26297" lon="6.07573">
        <ele>1726.6652832031</ele>
        <time>2012-08-09T07:23:14Z</time>
      </trkpt>
      <trkpt lat="45.26296" lon="6.07564">
        <ele>1723.3005371094</ele>
        <time>2012-08-09T07:23:21Z</time>
      </trkpt>
      <trkpt lat="45.26295" lon="6.07558">
        <ele>1721.8583984375</ele>
        <time>2012-08-09T07:23:25Z</time>
      </trkpt>
      <trkpt lat="45.26297" lon="6.07547">
        <ele>1720.4165039062</ele>
        <time>2012-08-09T07:23:32Z</time>
      </trkpt>
      <trkpt lat="45.26296" lon="6.07541">
        <ele>1718.974609375</ele>
        <time>2012-08-09T07:23:36Z</time>
      </trkpt>
      <trkpt lat="45.26297" lon="6.07537">
        <ele>1718.4938964844</ele>
        <time>2012-08-09T07:23:39Z</time>
      </trkpt>
      <trkpt lat="45.26293" lon="6.07527">
        <ele>1716.5712890625</ele>
        <time>2012-08-09T07:23:46Z</time>
      </trkpt>
      <trkpt lat="45.263" lon="6.07527">
        <ele>1714.16796875</ele>
        <time>2012-08-09T07:23:51Z</time>
      </trkpt>
      <trkpt lat="45.26302" lon="6.07524">
        <ele>1714.16796875</ele>
        <time>2012-08-09T07:23:55Z</time>
      </trkpt>
      <trkpt lat="45.26305" lon="6.07523">
        <ele>1713.2067871094</ele>
        <time>2012-08-09T07:23:58Z</time>
      </trkpt>
      <trkpt lat="45.26308" lon="6.07513">
        <ele>1713.2067871094</ele>
        <time>2012-08-09T07:24:02Z</time>
      </trkpt>
      <trkpt lat="45.26314" lon="6.07515">
        <ele>1711.7648925781</ele>
        <time>2012-08-09T07:24:05Z</time>
      </trkpt>
      <trkpt lat="45.26318" lon="6.07511">
        <ele>1709.3615722656</ele>
        <time>2012-08-09T07:24:11Z</time>
      </trkpt>
      <trkpt lat="45.26317" lon="6.07503">
        <ele>1705.9965820312</ele>
        <time>2012-08-09T07:24:17Z</time>
      </trkpt>
      <trkpt lat="45.26317" lon="6.07502">
        <ele>1705.9965820312</ele>
        <time>2012-08-09T07:24:18Z</time>
      </trkpt>
      <trkpt lat="45.26318" lon="6.07496">
        <ele>1704.07421875</ele>
        <time>2012-08-09T07:24:24Z</time>
      </trkpt>
      <trkpt lat="45.26321" lon="6.07493">
        <ele>1703.1127929688</ele>
        <time>2012-08-09T07:24:28Z</time>
      </trkpt>
      <trkpt lat="45.26324" lon="6.07489">
        <ele>1702.1513671875</ele>
        <time>2012-08-09T07:24:36Z</time>
      </trkpt>
      <trkpt lat="45.26323" lon="6.07487">
        <ele>1700.7094726562</ele>
        <time>2012-08-09T07:24:38Z</time>
      </trkpt>
      <trkpt lat="45.26328" lon="6.07479">
        <ele>1702.1513671875</ele>
        <time>2012-08-09T07:24:44Z</time>
      </trkpt>
      <trkpt lat="45.26333" lon="6.07475">
        <ele>1705.5161132812</ele>
        <time>2012-08-09T07:24:47Z</time>
      </trkpt>
      <trkpt lat="45.26336" lon="6.07472">
        <ele>1702.6320800781</ele>
        <time>2012-08-09T07:24:52Z</time>
      </trkpt>
      <trkpt lat="45.26342" lon="6.07471">
        <ele>1702.1513671875</ele>
        <time>2012-08-09T07:24:56Z</time>
      </trkpt>
      <trkpt lat="45.26346" lon="6.07474">
        <ele>1698.7868652344</ele>
        <time>2012-08-09T07:25:00Z</time>
      </trkpt>
      <trkpt lat="45.26345" lon="6.07473">
        <ele>1697.8256835938</ele>
        <time>2012-08-09T07:25:01Z</time>
      </trkpt>
      <trkpt lat="45.2634" lon="6.07464">
        <ele>1693.4997558594</ele>
        <time>2012-08-09T07:25:05Z</time>
      </trkpt>
      <trkpt lat="45.26339" lon="6.0746">
        <ele>1691.0961914062</ele>
        <time>2012-08-09T07:25:09Z</time>
      </trkpt>
      <trkpt lat="45.26341" lon="6.07455">
        <ele>1687.7316894531</ele>
        <time>2012-08-09T07:25:16Z</time>
      </trkpt>
      <trkpt lat="45.26342" lon="6.07452">
        <ele>1686.2897949219</ele>
        <time>2012-08-09T07:25:20Z</time>
      </trkpt>
      <trkpt lat="45.26345" lon="6.07449">
        <ele>1685.3283691406</ele>
        <time>2012-08-09T07:25:24Z</time>
      </trkpt>
      <trkpt lat="45.26348" lon="6.07448">
        <ele>1683.8864746094</ele>
        <time>2012-08-09T07:25:28Z</time>
      </trkpt>
      <trkpt lat="45.26348" lon="6.07445">
        <ele>1683.4057617188</ele>
        <time>2012-08-09T07:25:33Z</time>
      </trkpt>
      <trkpt lat="45.2635" lon="6.07444">
        <ele>1681.4831542969</ele>
        <time>2012-08-09T07:25:37Z</time>
      </trkpt>
      <trkpt lat="45.2635" lon="6.07438">
        <ele>1676.6767578125</ele>
        <time>2012-08-09T07:25:44Z</time>
      </trkpt>
      <trkpt lat="45.26352" lon="6.0743">
        <ele>1676.1960449219</ele>
        <time>2012-08-09T07:25:53Z</time>
      </trkpt>
      <trkpt lat="45.26353" lon="6.07426">
        <ele>1674.75390625</ele>
        <time>2012-08-09T07:25:57Z</time>
      </trkpt>
      <trkpt lat="45.2636" lon="6.07421">
        <ele>1673.3120117188</ele>
        <time>2012-08-09T07:26:12Z</time>
      </trkpt>
      <trkpt lat="45.26365" lon="6.07417">
        <ele>1674.75390625</ele>
        <time>2012-08-09T07:26:18Z</time>
      </trkpt>
      <trkpt lat="45.26368" lon="6.07413">
        <ele>1674.2731933594</ele>
        <time>2012-08-09T07:26:23Z</time>
      </trkpt>
      <trkpt lat="45.26367" lon="6.07399">
        <ele>1669.466796875</ele>
        <time>2012-08-09T07:26:44Z</time>
      </trkpt>
      <trkpt lat="45.26366" lon="6.07399">
        <ele>1668.0246582031</ele>
        <time>2012-08-09T07:26:45Z</time>
      </trkpt>
      <trkpt lat="45.26369" lon="6.07394">
        <ele>1663.6987304688</ele>
        <time>2012-08-09T07:26:51Z</time>
      </trkpt>
      <trkpt lat="45.2637" lon="6.0739">
        <ele>1659.8532714844</ele>
        <time>2012-08-09T07:26:56Z</time>
      </trkpt>
      <trkpt lat="45.2637" lon="6.07385">
        <ele>1656.0080566406</ele>
        <time>2012-08-09T07:27:00Z</time>
      </trkpt>
      <trkpt lat="45.26371" lon="6.07381">
        <ele>1654.0856933594</ele>
        <time>2012-08-09T07:27:03Z</time>
      </trkpt>
      <trkpt lat="45.26371" lon="6.07379">
        <ele>1652.6435546875</ele>
        <time>2012-08-09T07:27:06Z</time>
      </trkpt>
      <trkpt lat="45.26363" lon="6.07372">
        <ele>1651.2016601562</ele>
        <time>2012-08-09T07:27:23Z</time>
      </trkpt>
      <trkpt lat="45.26359" lon="6.0737">
        <ele>1649.759765625</ele>
        <time>2012-08-09T07:27:27Z</time>
      </trkpt>
      <trkpt lat="45.26358" lon="6.07364">
        <ele>1646.3952636719</ele>
        <time>2012-08-09T07:27:33Z</time>
      </trkpt>
      <trkpt lat="45.26358" lon="6.07359">
        <ele>1644.953125</ele>
        <time>2012-08-09T07:27:36Z</time>
      </trkpt>
      <trkpt lat="45.26358" lon="6.07357">
        <ele>1642.5498046875</ele>
        <time>2012-08-09T07:27:43Z</time>
      </trkpt>
      <trkpt lat="45.26357" lon="6.07354">
        <ele>1642.0690917969</ele>
        <time>2012-08-09T07:27:45Z</time>
      </trkpt>
      <trkpt lat="45.2635" lon="6.07348">
        <ele>1642.0690917969</ele>
        <time>2012-08-09T07:27:49Z</time>
      </trkpt>
      <trkpt lat="45.26347" lon="6.07344">
        <ele>1641.5883789062</ele>
        <time>2012-08-09T07:27:51Z</time>
      </trkpt>
      <trkpt lat="45.26342" lon="6.07338">
        <ele>1641.1076660156</ele>
        <time>2012-08-09T07:27:55Z</time>
      </trkpt>
      <trkpt lat="45.2634" lon="6.07334">
        <ele>1640.626953125</ele>
        <time>2012-08-09T07:27:58Z</time>
      </trkpt>
      <trkpt lat="45.26338" lon="6.07325">
        <ele>1639.1850585938</ele>
        <time>2012-08-09T07:28:02Z</time>
      </trkpt>
      <trkpt lat="45.2634" lon="6.07321">
        <ele>1636.3012695312</ele>
        <time>2012-08-09T07:28:07Z</time>
      </trkpt>
      <trkpt lat="45.2634" lon="6.07319">
        <ele>1633.8979492188</ele>
        <time>2012-08-09T07:28:10Z</time>
      </trkpt>
      <trkpt lat="45.26343" lon="6.07311">
        <ele>1629.5720214844</ele>
        <time>2012-08-09T07:28:15Z</time>
      </trkpt>
      <trkpt lat="45.26344" lon="6.07308">
        <ele>1628.6108398438</ele>
        <time>2012-08-09T07:28:17Z</time>
      </trkpt>
      <trkpt lat="45.26347" lon="6.07306">
        <ele>1627.6491699219</ele>
        <time>2012-08-09T07:28:19Z</time>
      </trkpt>
      <trkpt lat="45.26351" lon="6.07301">
        <ele>1627.6491699219</ele>
        <time>2012-08-09T07:28:23Z</time>
      </trkpt>
      <trkpt lat="45.26358" lon="6.073">
        <ele>1627.1687011719</ele>
        <time>2012-08-09T07:28:28Z</time>
      </trkpt>
      <trkpt lat="45.26361" lon="6.073">
        <ele>1627.1687011719</ele>
        <time>2012-08-09T07:28:30Z</time>
      </trkpt>
      <trkpt lat="45.26365" lon="6.07298">
        <ele>1627.1687011719</ele>
        <time>2012-08-09T07:28:33Z</time>
      </trkpt>
      <trkpt lat="45.26366" lon="6.07292">
        <ele>1625.7265625</ele>
        <time>2012-08-09T07:28:38Z</time>
      </trkpt>
      <trkpt lat="45.2637" lon="6.07293">
        <ele>1624.7653808594</ele>
        <time>2012-08-09T07:28:42Z</time>
      </trkpt>
      <trkpt lat="45.26372" lon="6.0729">
        <ele>1624.2846679688</ele>
        <time>2012-08-09T07:28:46Z</time>
      </trkpt>
      <trkpt lat="45.26377" lon="6.07289">
        <ele>1623.3234863281</ele>
        <time>2012-08-09T07:28:52Z</time>
      </trkpt>
      <trkpt lat="45.26381" lon="6.07287">
        <ele>1623.3234863281</ele>
        <time>2012-08-09T07:28:59Z</time>
      </trkpt>
      <trkpt lat="45.26379" lon="6.0728">
        <ele>1620.439453125</ele>
        <time>2012-08-09T07:29:07Z</time>
      </trkpt>
      <trkpt lat="45.26378" lon="6.07273">
        <ele>1618.9975585938</ele>
        <time>2012-08-09T07:29:15Z</time>
      </trkpt>
      <trkpt lat="45.26377" lon="6.07271">
        <ele>1618.0361328125</ele>
        <time>2012-08-09T07:29:18Z</time>
      </trkpt>
      <trkpt lat="45.26382" lon="6.07269">
        <ele>1616.1135253906</ele>
        <time>2012-08-09T07:29:23Z</time>
      </trkpt>
      <trkpt lat="45.26382" lon="6.07263">
        <ele>1614.6716308594</ele>
        <time>2012-08-09T07:29:27Z</time>
      </trkpt>
      <trkpt lat="45.26386" lon="6.07262">
        <ele>1614.6716308594</ele>
        <time>2012-08-09T07:29:32Z</time>
      </trkpt>
      <trkpt lat="45.26388" lon="6.07257">
        <ele>1613.2297363281</ele>
        <time>2012-08-09T07:29:38Z</time>
      </trkpt>
      <trkpt lat="45.26384" lon="6.0725">
        <ele>1612.7490234375</ele>
        <time>2012-08-09T07:29:43Z</time>
      </trkpt>
      <trkpt lat="45.26379" lon="6.07243">
        <ele>1611.7875976562</ele>
        <time>2012-08-09T07:29:46Z</time>
      </trkpt>
      <trkpt lat="45.26379" lon="6.0724">
        <ele>1610.3454589844</ele>
        <time>2012-08-09T07:29:51Z</time>
      </trkpt>
      <trkpt lat="45.26383" lon="6.07241">
        <ele>1609.3842773438</ele>
        <time>2012-08-09T07:29:53Z</time>
      </trkpt>
      <trkpt lat="45.26386" lon="6.0724">
        <ele>1608.9035644531</ele>
        <time>2012-08-09T07:29:56Z</time>
      </trkpt>
      <trkpt lat="45.26387" lon="6.07238">
        <ele>1608.4228515625</ele>
        <time>2012-08-09T07:29:58Z</time>
      </trkpt>
      <trkpt lat="45.2639" lon="6.07234">
        <ele>1606.9809570312</ele>
        <time>2012-08-09T07:30:02Z</time>
      </trkpt>
      <trkpt lat="45.26389" lon="6.07232">
        <ele>1606.5002441406</ele>
        <time>2012-08-09T07:30:03Z</time>
      </trkpt>
      <trkpt lat="45.26396" lon="6.07224">
        <ele>1603.6164550781</ele>
        <time>2012-08-09T07:30:13Z</time>
      </trkpt>
      <trkpt lat="45.26399" lon="6.07219">
        <ele>1602.1743164062</ele>
        <time>2012-08-09T07:30:18Z</time>
      </trkpt>
      <trkpt lat="45.26399" lon="6.07218">
        <ele>1601.6938476562</ele>
        <time>2012-08-09T07:30:19Z</time>
      </trkpt>
      <trkpt lat="45.26402" lon="6.07206">
        <ele>1600.732421875</ele>
        <time>2012-08-09T07:30:25Z</time>
      </trkpt>
      <trkpt lat="45.26402" lon="6.07193">
        <ele>1600.251953125</ele>
        <time>2012-08-09T07:30:30Z</time>
      </trkpt>
      <trkpt lat="45.26407" lon="6.07194">
        <ele>1600.251953125</ele>
        <time>2012-08-09T07:30:32Z</time>
      </trkpt>
      <trkpt lat="45.2642" lon="6.07202">
        <ele>1599.2905273438</ele>
        <time>2012-08-09T07:30:37Z</time>
      </trkpt>
      <trkpt lat="45.26432" lon="6.0721">
        <ele>1597.8486328125</ele>
        <time>2012-08-09T07:30:45Z</time>
      </trkpt>
      <trkpt lat="45.26432" lon="6.07208">
        <ele>1596.8872070312</ele>
        <time>2012-08-09T07:30:47Z</time>
      </trkpt>
      <trkpt lat="45.26437" lon="6.072">
        <ele>1595.92578125</ele>
        <time>2012-08-09T07:30:53Z</time>
      </trkpt>
      <trkpt lat="45.2644" lon="6.07197">
        <ele>1596.4067382812</ele>
        <time>2012-08-09T07:30:57Z</time>
      </trkpt>
      <trkpt lat="45.2644" lon="6.07193">
        <ele>1596.4067382812</ele>
        <time>2012-08-09T07:31:01Z</time>
      </trkpt>
      <trkpt lat="45.26442" lon="6.07184">
        <ele>1594.9643554688</ele>
        <time>2012-08-09T07:31:07Z</time>
      </trkpt>
      <trkpt lat="45.26441" lon="6.07179">
        <ele>1594.4836425781</ele>
        <time>2012-08-09T07:31:10Z</time>
      </trkpt>
      <trkpt lat="45.26438" lon="6.07171">
        <ele>1592.5612792969</ele>
        <time>2012-08-09T07:31:14Z</time>
      </trkpt>
      <trkpt lat="45.26437" lon="6.0717">
        <ele>1591.119140625</ele>
        <time>2012-08-09T07:31:17Z</time>
      </trkpt>
      <trkpt lat="45.26435" lon="6.07165">
        <ele>1589.1965332031</ele>
        <time>2012-08-09T07:31:21Z</time>
      </trkpt>
      <trkpt lat="45.26434" lon="6.07161">
        <ele>1587.7546386719</ele>
        <time>2012-08-09T07:31:25Z</time>
      </trkpt>
      <trkpt lat="45.26427" lon="6.07157">
        <ele>1584.3901367188</ele>
        <time>2012-08-09T07:31:30Z</time>
      </trkpt>
      <trkpt lat="45.26423" lon="6.07153">
        <ele>1583.9094238281</ele>
        <time>2012-08-09T07:31:36Z</time>
      </trkpt>
      <trkpt lat="45.2642" lon="6.07151">
        <ele>1583.4287109375</ele>
        <time>2012-08-09T07:31:40Z</time>
      </trkpt>
      <trkpt lat="45.26418" lon="6.0715">
        <ele>1582.4675292969</ele>
        <time>2012-08-09T07:31:45Z</time>
      </trkpt>
      <trkpt lat="45.26416" lon="6.07149">
        <ele>1582.4675292969</ele>
        <time>2012-08-09T07:31:48Z</time>
      </trkpt>
      <trkpt lat="45.26414" lon="6.07148">
        <ele>1581.9868164062</ele>
        <time>2012-08-09T07:31:53Z</time>
      </trkpt>
      <trkpt lat="45.26412" lon="6.07146">
        <ele>1584.3901367188</ele>
        <time>2012-08-09T07:32:00Z</time>
      </trkpt>
      <trkpt lat="45.2641" lon="6.07143">
        <ele>1584.8708496094</ele>
        <time>2012-08-09T07:32:05Z</time>
      </trkpt>
      <trkpt lat="45.26406" lon="6.07138">
        <ele>1585.3513183594</ele>
        <time>2012-08-09T07:32:09Z</time>
      </trkpt>
      <trkpt lat="45.26409" lon="6.0713">
        <ele>1583.9094238281</ele>
        <time>2012-08-09T07:32:14Z</time>
      </trkpt>
      <trkpt lat="45.26409" lon="6.07128">
        <ele>1583.4287109375</ele>
        <time>2012-08-09T07:32:15Z</time>
      </trkpt>
      <trkpt lat="45.26412" lon="6.07123">
        <ele>1582.4675292969</ele>
        <time>2012-08-09T07:32:19Z</time>
      </trkpt>
      <trkpt lat="45.26408" lon="6.07112">
        <ele>1583.4287109375</ele>
        <time>2012-08-09T07:32:25Z</time>
      </trkpt>
      <trkpt lat="45.26407" lon="6.07108">
        <ele>1583.4287109375</ele>
        <time>2012-08-09T07:32:27Z</time>
      </trkpt>
      <trkpt lat="45.26403" lon="6.071">
        <ele>1583.4287109375</ele>
        <time>2012-08-09T07:32:31Z</time>
      </trkpt>
      <trkpt lat="45.26401" lon="6.07094">
        <ele>1583.9094238281</ele>
        <time>2012-08-09T07:32:35Z</time>
      </trkpt>
      <trkpt lat="45.26402" lon="6.07089">
        <ele>1583.9094238281</ele>
        <time>2012-08-09T07:32:38Z</time>
      </trkpt>
      <trkpt lat="45.26405" lon="6.07085">
        <ele>1584.8708496094</ele>
        <time>2012-08-09T07:32:42Z</time>
      </trkpt>
      <trkpt lat="45.26408" lon="6.07079">
        <ele>1585.3513183594</ele>
        <time>2012-08-09T07:32:46Z</time>
      </trkpt>
      <trkpt lat="45.2641" lon="6.07076">
        <ele>1585.3513183594</ele>
        <time>2012-08-09T07:32:48Z</time>
      </trkpt>
      <trkpt lat="45.26411" lon="6.07069">
        <ele>1587.7546386719</ele>
        <time>2012-08-09T07:32:53Z</time>
      </trkpt>
      <trkpt lat="45.26412" lon="6.07063">
        <ele>1589.1965332031</ele>
        <time>2012-08-09T07:32:58Z</time>
      </trkpt>
      <trkpt lat="45.26413" lon="6.07059">
        <ele>1589.1965332031</ele>
        <time>2012-08-09T07:33:00Z</time>
      </trkpt>
      <trkpt lat="45.26419" lon="6.0705">
        <ele>1590.1579589844</ele>
        <time>2012-08-09T07:33:06Z</time>
      </trkpt>
      <trkpt lat="45.26421" lon="6.07044">
        <ele>1590.1579589844</ele>
        <time>2012-08-09T07:33:09Z</time>
      </trkpt>
      <trkpt lat="45.26421" lon="6.07041">
        <ele>1589.6772460938</ele>
        <time>2012-08-09T07:33:11Z</time>
      </trkpt>
      <trkpt lat="45.26428" lon="6.07029">
        <ele>1590.6384277344</ele>
        <time>2012-08-09T07:33:19Z</time>
      </trkpt>
      <trkpt lat="45.26429" lon="6.07028">
        <ele>1590.6384277344</ele>
        <time>2012-08-09T07:33:20Z</time>
      </trkpt>
      <trkpt lat="45.26437" lon="6.07022">
        <ele>1588.7160644531</ele>
        <time>2012-08-09T07:33:27Z</time>
      </trkpt>
      <trkpt lat="45.26438" lon="6.07022">
        <ele>1588.2353515625</ele>
        <time>2012-08-09T07:33:28Z</time>
      </trkpt>
      <trkpt lat="45.26443" lon="6.0702">
        <ele>1586.7932128906</ele>
        <time>2012-08-09T07:33:32Z</time>
      </trkpt>
      <trkpt lat="45.26448" lon="6.07015">
        <ele>1585.83203125</ele>
        <time>2012-08-09T07:33:37Z</time>
      </trkpt>
      <trkpt lat="45.26455" lon="6.07008">
        <ele>1584.8708496094</ele>
        <time>2012-08-09T07:33:44Z</time>
      </trkpt>
      <trkpt lat="45.26465" lon="6.07007">
        <ele>1583.9094238281</ele>
        <time>2012-08-09T07:33:49Z</time>
      </trkpt>
      <trkpt lat="45.26467" lon="6.07006">
        <ele>1583.9094238281</ele>
        <time>2012-08-09T07:33:50Z</time>
      </trkpt>
      <trkpt lat="45.26472" lon="6.07005">
        <ele>1584.3901367188</ele>
        <time>2012-08-09T07:33:52Z</time>
      </trkpt>
      <trkpt lat="45.2648" lon="6.07001">
        <ele>1582.9479980469</ele>
        <time>2012-08-09T07:33:56Z</time>
      </trkpt>
      <trkpt lat="45.26491" lon="6.07002">
        <ele>1581.5061035156</ele>
        <time>2012-08-09T07:34:00Z</time>
      </trkpt>
      <trkpt lat="45.26497" lon="6.07002">
        <ele>1578.6220703125</ele>
        <time>2012-08-09T07:34:05Z</time>
      </trkpt>
      <trkpt lat="45.26502" lon="6.07005">
        <ele>1575.7380371094</ele>
        <time>2012-08-09T07:34:09Z</time>
      </trkpt>
      <trkpt lat="45.26506" lon="6.07006">
        <ele>1574.2961425781</ele>
        <time>2012-08-09T07:34:11Z</time>
      </trkpt>
      <trkpt lat="45.26514" lon="6.07006">
        <ele>1572.8542480469</ele>
        <time>2012-08-09T07:34:15Z</time>
      </trkpt>
      <trkpt lat="45.2652" lon="6.07006">
        <ele>1573.3349609375</ele>
        <time>2012-08-09T07:34:18Z</time>
      </trkpt>
      <trkpt lat="45.26522" lon="6.07005">
        <ele>1571.8928222656</ele>
        <time>2012-08-09T07:34:20Z</time>
      </trkpt>
      <trkpt lat="45.26529" lon="6.07005">
        <ele>1573.3349609375</ele>
        <time>2012-08-09T07:34:24Z</time>
      </trkpt>
      <trkpt lat="45.26531" lon="6.07006">
        <ele>1573.3349609375</ele>
        <time>2012-08-09T07:34:25Z</time>
      </trkpt>
      <trkpt lat="45.26542" lon="6.0701">
        <ele>1574.7768554688</ele>
        <time>2012-08-09T07:34:29Z</time>
      </trkpt>
      <trkpt lat="45.2655" lon="6.07011">
        <ele>1575.7380371094</ele>
        <time>2012-08-09T07:34:33Z</time>
      </trkpt>
      <trkpt lat="45.26556" lon="6.07006">
        <ele>1574.2961425781</ele>
        <time>2012-08-09T07:34:37Z</time>
      </trkpt>
      <trkpt lat="45.26564" lon="6.07003">
        <ele>1571.412109375</ele>
        <time>2012-08-09T07:34:43Z</time>
      </trkpt>
      <trkpt lat="45.26566" lon="6.07002">
        <ele>1572.3735351562</ele>
        <time>2012-08-09T07:34:46Z</time>
      </trkpt>
      <trkpt lat="45.26572" lon="6.07001">
        <ele>1573.8154296875</ele>
        <time>2012-08-09T07:34:49Z</time>
      </trkpt>
      <trkpt lat="45.26582" lon="6.07002">
        <ele>1572.3735351562</ele>
        <time>2012-08-09T07:34:54Z</time>
      </trkpt>
      <trkpt lat="45.2659" lon="6.07006">
        <ele>1569.4897460938</ele>
        <time>2012-08-09T07:34:59Z</time>
      </trkpt>
      <trkpt lat="45.26593" lon="6.07008">
        <ele>1569.9702148438</ele>
        <time>2012-08-09T07:35:03Z</time>
      </trkpt>
      <trkpt lat="45.26602" lon="6.07007">
        <ele>1575.2573242188</ele>
        <time>2012-08-09T07:35:12Z</time>
      </trkpt>
      <trkpt lat="45.26601" lon="6.07006">
        <ele>1575.2573242188</ele>
        <time>2012-08-09T07:35:13Z</time>
      </trkpt>
      <trkpt lat="45.26598" lon="6.07001">
        <ele>1572.8542480469</ele>
        <time>2012-08-09T07:35:17Z</time>
      </trkpt>
      <trkpt lat="45.266" lon="6.06997">
        <ele>1570.931640625</ele>
        <time>2012-08-09T07:35:21Z</time>
      </trkpt>
      <trkpt lat="45.26606" lon="6.06999">
        <ele>1568.5283203125</ele>
        <time>2012-08-09T07:35:27Z</time>
      </trkpt>
      <trkpt lat="45.26609" lon="6.06995">
        <ele>1567.0864257812</ele>
        <time>2012-08-09T07:35:33Z</time>
      </trkpt>
      <trkpt lat="45.26616" lon="6.06995">
        <ele>1563.7214355469</ele>
        <time>2012-08-09T07:35:38Z</time>
      </trkpt>
      <trkpt lat="45.26618" lon="6.06998">
        <ele>1562.7602539062</ele>
        <time>2012-08-09T07:35:42Z</time>
      </trkpt>
      <trkpt lat="45.26625" lon="6.06989">
        <ele>1560.3569335938</ele>
        <time>2012-08-09T07:35:58Z</time>
      </trkpt>
      <trkpt lat="45.26628" lon="6.06987">
        <ele>1563.7214355469</ele>
        <time>2012-08-09T07:36:02Z</time>
      </trkpt>
      <trkpt lat="45.26631" lon="6.06986">
        <ele>1561.7990722656</ele>
        <time>2012-08-09T07:36:06Z</time>
      </trkpt>
      <trkpt lat="45.26641" lon="6.06989">
        <ele>1563.7214355469</ele>
        <time>2012-08-09T07:36:11Z</time>
      </trkpt>
      <trkpt lat="45.26645" lon="6.06991">
        <ele>1566.125</ele>
        <time>2012-08-09T07:36:15Z</time>
      </trkpt>
      <trkpt lat="45.26651" lon="6.06992">
        <ele>1569.4897460938</ele>
        <time>2012-08-09T07:36:19Z</time>
      </trkpt>
      <trkpt lat="45.26658" lon="6.06994">
        <ele>1570.4509277344</ele>
        <time>2012-08-09T07:36:26Z</time>
      </trkpt>
      <trkpt lat="45.26664" lon="6.06994">
        <ele>1566.6057128906</ele>
        <time>2012-08-09T07:36:32Z</time>
      </trkpt>
      <trkpt lat="45.26665" lon="6.06996">
        <ele>1566.125</ele>
        <time>2012-08-09T07:36:36Z</time>
      </trkpt>
      <trkpt lat="45.26668" lon="6.06998">
        <ele>1566.6057128906</ele>
        <time>2012-08-09T07:36:39Z</time>
      </trkpt>
      <trkpt lat="45.26678" lon="6.07002">
        <ele>1565.1638183594</ele>
        <time>2012-08-09T07:36:46Z</time>
      </trkpt>
      <trkpt lat="45.26682" lon="6.07001">
        <ele>1563.7214355469</ele>
        <time>2012-08-09T07:36:52Z</time>
      </trkpt>
      <trkpt lat="45.2669" lon="6.07004">
        <ele>1564.6831054688</ele>
        <time>2012-08-09T07:36:57Z</time>
      </trkpt>
      <trkpt lat="45.26696" lon="6.07008">
        <ele>1564.2023925781</ele>
        <time>2012-08-09T07:37:02Z</time>
      </trkpt>
      <trkpt lat="45.26701" lon="6.07009">
        <ele>1562.2795410156</ele>
        <time>2012-08-09T07:37:06Z</time>
      </trkpt>
      <trkpt lat="45.26706" lon="6.0701">
        <ele>1561.7990722656</ele>
        <time>2012-08-09T07:37:11Z</time>
      </trkpt>
      <trkpt lat="45.26708" lon="6.0701">
        <ele>1562.7602539062</ele>
        <time>2012-08-09T07:37:12Z</time>
      </trkpt>
      <trkpt lat="45.26717" lon="6.07012">
        <ele>1567.0864257812</ele>
        <time>2012-08-09T07:37:18Z</time>
      </trkpt>
      <trkpt lat="45.26723" lon="6.0701">
        <ele>1568.0476074219</ele>
        <time>2012-08-09T07:37:22Z</time>
      </trkpt>
      <trkpt lat="45.26725" lon="6.07003">
        <ele>1566.125</ele>
        <time>2012-08-09T07:37:29Z</time>
      </trkpt>
      <trkpt lat="45.26728" lon="6.07007">
        <ele>1566.125</ele>
        <time>2012-08-09T07:37:36Z</time>
      </trkpt>
      <trkpt lat="45.2673" lon="6.0701">
        <ele>1564.2023925781</ele>
        <time>2012-08-09T07:37:41Z</time>
      </trkpt>
      <trkpt lat="45.26734" lon="6.07012">
        <ele>1568.5283203125</ele>
        <time>2012-08-09T07:37:43Z</time>
      </trkpt>
      <trkpt lat="45.26737" lon="6.07013">
        <ele>1569.0090332031</ele>
        <time>2012-08-09T07:37:45Z</time>
      </trkpt>
      <trkpt lat="45.2674" lon="6.07013">
        <ele>1568.5283203125</ele>
        <time>2012-08-09T07:37:47Z</time>
      </trkpt>
      <trkpt lat="45.26745" lon="6.07015">
        <ele>1568.0476074219</ele>
        <time>2012-08-09T07:37:51Z</time>
      </trkpt>
      <trkpt lat="45.26751" lon="6.07022">
        <ele>1567.0864257812</ele>
        <time>2012-08-09T07:37:56Z</time>
      </trkpt>
      <trkpt lat="45.26752" lon="6.0703">
        <ele>1563.2409667969</ele>
        <time>2012-08-09T07:38:01Z</time>
      </trkpt>
      <trkpt lat="45.26754" lon="6.07032">
        <ele>1560.8376464844</ele>
        <time>2012-08-09T07:38:03Z</time>
      </trkpt>
      <trkpt lat="45.26757" lon="6.07036">
        <ele>1559.8762207031</ele>
        <time>2012-08-09T07:38:07Z</time>
      </trkpt>
      <trkpt lat="45.26762" lon="6.07036">
        <ele>1556.9924316406</ele>
        <time>2012-08-09T07:38:12Z</time>
      </trkpt>
      <trkpt lat="45.26765" lon="6.07038">
        <ele>1556.0310058594</ele>
        <time>2012-08-09T07:38:14Z</time>
      </trkpt>
      <trkpt lat="45.26767" lon="6.07043">
        <ele>1552.6665039062</ele>
        <time>2012-08-09T07:38:17Z</time>
      </trkpt>
      <trkpt lat="45.26773" lon="6.07056">
        <ele>1548.3405761719</ele>
        <time>2012-08-09T07:38:23Z</time>
      </trkpt>
      <trkpt lat="45.26774" lon="6.07059">
        <ele>1547.3791503906</ele>
        <time>2012-08-09T07:38:25Z</time>
      </trkpt>
      <trkpt lat="45.2678" lon="6.0707">
        <ele>1544.9758300781</ele>
        <time>2012-08-09T07:38:31Z</time>
      </trkpt>
      <trkpt lat="45.26778" lon="6.07084">
        <ele>1543.0532226562</ele>
        <time>2012-08-09T07:38:36Z</time>
      </trkpt>
      <trkpt lat="45.26786" lon="6.07096">
        <ele>1544.4951171875</ele>
        <time>2012-08-09T07:38:41Z</time>
      </trkpt>
      <trkpt lat="45.2679" lon="6.07097">
        <ele>1544.4951171875</ele>
        <time>2012-08-09T07:38:43Z</time>
      </trkpt>
      <trkpt lat="45.26792" lon="6.07097">
        <ele>1545.9372558594</ele>
        <time>2012-08-09T07:38:49Z</time>
      </trkpt>
      <trkpt lat="45.26792" lon="6.07101">
        <ele>1544.4951171875</ele>
        <time>2012-08-09T07:38:54Z</time>
      </trkpt>
      <trkpt lat="45.26794" lon="6.07107">
        <ele>1543.0532226562</ele>
        <time>2012-08-09T07:39:00Z</time>
      </trkpt>
      <trkpt lat="45.26796" lon="6.07111">
        <ele>1542.5727539062</ele>
        <time>2012-08-09T07:39:04Z</time>
      </trkpt>
      <trkpt lat="45.26797" lon="6.07117">
        <ele>1540.6499023438</ele>
        <time>2012-08-09T07:39:10Z</time>
      </trkpt>
      <trkpt lat="45.26799" lon="6.07116">
        <ele>1541.1306152344</ele>
        <time>2012-08-09T07:39:12Z</time>
      </trkpt>
      <trkpt lat="45.26804" lon="6.0712">
        <ele>1541.611328125</ele>
        <time>2012-08-09T07:39:18Z</time>
      </trkpt>
      <trkpt lat="45.26808" lon="6.07121">
        <ele>1541.611328125</ele>
        <time>2012-08-09T07:39:22Z</time>
      </trkpt>
      <trkpt lat="45.26815" lon="6.0712">
        <ele>1542.5727539062</ele>
        <time>2012-08-09T07:39:27Z</time>
      </trkpt>
      <trkpt lat="45.2681" lon="6.07112">
        <ele>1538.7275390625</ele>
        <time>2012-08-09T07:39:32Z</time>
      </trkpt>
      <trkpt lat="45.26815" lon="6.07105">
        <ele>1537.2854003906</ele>
        <time>2012-08-09T07:39:37Z</time>
      </trkpt>
      <trkpt lat="45.26819" lon="6.07094">
        <ele>1534.4016113281</ele>
        <time>2012-08-09T07:39:43Z</time>
      </trkpt>
      <trkpt lat="45.26824" lon="6.07096">
        <ele>1533.4401855469</ele>
        <time>2012-08-09T07:39:48Z</time>
      </trkpt>
      <trkpt lat="45.26826" lon="6.07097">
        <ele>1531.0368652344</ele>
        <time>2012-08-09T07:39:52Z</time>
      </trkpt>
      <trkpt lat="45.2683" lon="6.07098">
        <ele>1529.1140136719</ele>
        <time>2012-08-09T07:39:57Z</time>
      </trkpt>
      <trkpt lat="45.26835" lon="6.07097">
        <ele>1528.1528320312</ele>
        <time>2012-08-09T07:40:03Z</time>
      </trkpt>
      <trkpt lat="45.26838" lon="6.07095">
        <ele>1527.6721191406</ele>
        <time>2012-08-09T07:40:07Z</time>
      </trkpt>
      <trkpt lat="45.26842" lon="6.07094">
        <ele>1527.1916503906</ele>
        <time>2012-08-09T07:40:09Z</time>
      </trkpt>
      <trkpt lat="45.2685" lon="6.07094">
        <ele>1529.5947265625</ele>
        <time>2012-08-09T07:40:14Z</time>
      </trkpt>
      <trkpt lat="45.26856" lon="6.07091">
        <ele>1532.4790039062</ele>
        <time>2012-08-09T07:40:19Z</time>
      </trkpt>
      <trkpt lat="45.26859" lon="6.07089">
        <ele>1527.6721191406</ele>
        <time>2012-08-09T07:40:25Z</time>
      </trkpt>
      <trkpt lat="45.2686" lon="6.07088">
        <ele>1527.6721191406</ele>
        <time>2012-08-09T07:40:26Z</time>
      </trkpt>
      <trkpt lat="45.26867" lon="6.07087">
        <ele>1529.5947265625</ele>
        <time>2012-08-09T07:40:30Z</time>
      </trkpt>
      <trkpt lat="45.26876" lon="6.07088">
        <ele>1531.998046875</ele>
        <time>2012-08-09T07:40:37Z</time>
      </trkpt>
      <trkpt lat="45.26883" lon="6.07088">
        <ele>1532.9594726562</ele>
        <time>2012-08-09T07:40:43Z</time>
      </trkpt>
      <trkpt lat="45.26883" lon="6.07087">
        <ele>1528.6335449219</ele>
        <time>2012-08-09T07:40:49Z</time>
      </trkpt>
      <trkpt lat="45.26885" lon="6.07081">
        <ele>1524.3076171875</ele>
        <time>2012-08-09T07:40:55Z</time>
      </trkpt>
      <trkpt lat="45.26887" lon="6.07072">
        <ele>1520.9431152344</ele>
        <time>2012-08-09T07:40:59Z</time>
      </trkpt>
      <trkpt lat="45.26893" lon="6.07071">
        <ele>1520.4624023438</ele>
        <time>2012-08-09T07:41:04Z</time>
      </trkpt>
      <trkpt lat="45.26896" lon="6.07073">
        <ele>1520.4624023438</ele>
        <time>2012-08-09T07:41:07Z</time>
      </trkpt>
      <trkpt lat="45.26902" lon="6.07077">
        <ele>1521.4235839844</ele>
        <time>2012-08-09T07:41:10Z</time>
      </trkpt>
      <trkpt lat="45.26907" lon="6.0708">
        <ele>1519.9816894531</ele>
        <time>2012-08-09T07:41:14Z</time>
      </trkpt>
      <trkpt lat="45.26915" lon="6.0708">
        <ele>1523.3464355469</ele>
        <time>2012-08-09T07:41:20Z</time>
      </trkpt>
      <trkpt lat="45.2692" lon="6.07077">
        <ele>1522.8657226562</ele>
        <time>2012-08-09T07:41:25Z</time>
      </trkpt>
      <trkpt lat="45.26922" lon="6.07072">
        <ele>1522.3850097656</ele>
        <time>2012-08-09T07:41:29Z</time>
      </trkpt>
      <trkpt lat="45.26927" lon="6.07067">
        <ele>1522.3850097656</ele>
        <time>2012-08-09T07:41:33Z</time>
      </trkpt>
      <trkpt lat="45.2693" lon="6.07066">
        <ele>1521.4235839844</ele>
        <time>2012-08-09T07:41:35Z</time>
      </trkpt>
      <trkpt lat="45.26936" lon="6.07066">
        <ele>1517.5783691406</ele>
        <time>2012-08-09T07:41:41Z</time>
      </trkpt>
      <trkpt lat="45.26941" lon="6.07063">
        <ele>1516.6171875</ele>
        <time>2012-08-09T07:41:47Z</time>
      </trkpt>
      <trkpt lat="45.26944" lon="6.07061">
        <ele>1516.1364746094</ele>
        <time>2012-08-09T07:41:50Z</time>
      </trkpt>
      <trkpt lat="45.26952" lon="6.07059">
        <ele>1514.6943359375</ele>
        <time>2012-08-09T07:41:56Z</time>
      </trkpt>
      <trkpt lat="45.26957" lon="6.07056">
        <ele>1513.7329101562</ele>
        <time>2012-08-09T07:42:00Z</time>
      </trkpt>
      <trkpt lat="45.26957" lon="6.07054">
        <ele>1513.2524414062</ele>
        <time>2012-08-09T07:42:01Z</time>
      </trkpt>
      <trkpt lat="45.26958" lon="6.07048">
        <ele>1513.2524414062</ele>
        <time>2012-08-09T07:42:04Z</time>
      </trkpt>
      <trkpt lat="45.26972" lon="6.07051">
        <ele>1513.7329101562</ele>
        <time>2012-08-09T07:42:09Z</time>
      </trkpt>
      <trkpt lat="45.26982" lon="6.07056">
        <ele>1513.2524414062</ele>
        <time>2012-08-09T07:42:13Z</time>
      </trkpt>
      <trkpt lat="45.26986" lon="6.07056">
        <ele>1513.2524414062</ele>
        <time>2012-08-09T07:42:15Z</time>
      </trkpt>
      <trkpt lat="45.26989" lon="6.07051">
        <ele>1509.4072265625</ele>
        <time>2012-08-09T07:42:20Z</time>
      </trkpt>
      <trkpt lat="45.26991" lon="6.07045">
        <ele>1509.4072265625</ele>
        <time>2012-08-09T07:42:24Z</time>
      </trkpt>
      <trkpt lat="45.26989" lon="6.07043">
        <ele>1507.00390625</ele>
        <time>2012-08-09T07:42:28Z</time>
      </trkpt>
      <trkpt lat="45.26991" lon="6.07046">
        <ele>1508.9265136719</ele>
        <time>2012-08-09T07:42:30Z</time>
      </trkpt>
      <trkpt lat="45.26993" lon="6.07052">
        <ele>1509.4072265625</ele>
        <time>2012-08-09T07:42:34Z</time>
      </trkpt>
      <trkpt lat="45.27002" lon="6.07059">
        <ele>1509.4072265625</ele>
        <time>2012-08-09T07:42:41Z</time>
      </trkpt>
      <trkpt lat="45.27003" lon="6.07058">
        <ele>1507.4846191406</ele>
        <time>2012-08-09T07:42:43Z</time>
      </trkpt>
      <trkpt lat="45.27008" lon="6.07062">
        <ele>1506.0424804688</ele>
        <time>2012-08-09T07:42:48Z</time>
      </trkpt>
      <trkpt lat="45.27011" lon="6.07065">
        <ele>1506.0424804688</ele>
        <time>2012-08-09T07:42:50Z</time>
      </trkpt>
      <trkpt lat="45.27017" lon="6.07074">
        <ele>1502.6779785156</ele>
        <time>2012-08-09T07:42:56Z</time>
      </trkpt>
      <trkpt lat="45.27021" lon="6.07078">
        <ele>1500.7553710938</ele>
        <time>2012-08-09T07:43:00Z</time>
      </trkpt>
      <trkpt lat="45.27028" lon="6.07087">
        <ele>1496.4294433594</ele>
        <time>2012-08-09T07:43:07Z</time>
      </trkpt>
      <trkpt lat="45.27033" lon="6.07094">
        <ele>1493.0646972656</ele>
        <time>2012-08-09T07:43:13Z</time>
      </trkpt>
      <trkpt lat="45.27037" lon="6.071">
        <ele>1490.1809082031</ele>
        <time>2012-08-09T07:43:18Z</time>
      </trkpt>
      <trkpt lat="45.2704" lon="6.07101">
        <ele>1489.2194824219</ele>
        <time>2012-08-09T07:43:21Z</time>
      </trkpt>
      <trkpt lat="45.27048" lon="6.07102">
        <ele>1493.5454101562</ele>
        <time>2012-08-09T07:43:24Z</time>
      </trkpt>
      <trkpt lat="45.27054" lon="6.07103">
        <ele>1496.4294433594</ele>
        <time>2012-08-09T07:43:27Z</time>
      </trkpt>
      <trkpt lat="45.27058" lon="6.07107">
        <ele>1495.4680175781</ele>
        <time>2012-08-09T07:43:31Z</time>
      </trkpt>
      <trkpt lat="45.27061" lon="6.07107">
        <ele>1496.9099121094</ele>
        <time>2012-08-09T07:43:33Z</time>
      </trkpt>
      <trkpt lat="45.27067" lon="6.07112">
        <ele>1497.8713378906</ele>
        <time>2012-08-09T07:43:38Z</time>
      </trkpt>
      <trkpt lat="45.27072" lon="6.0712">
        <ele>1492.5842285156</ele>
        <time>2012-08-09T07:43:43Z</time>
      </trkpt>
      <trkpt lat="45.27072" lon="6.07121">
        <ele>1492.103515625</ele>
        <time>2012-08-09T07:43:44Z</time>
      </trkpt>
      <trkpt lat="45.2707" lon="6.07121">
        <ele>1492.5842285156</ele>
        <time>2012-08-09T07:43:47Z</time>
      </trkpt>
      <trkpt lat="45.27066" lon="6.07112">
        <ele>1489.7001953125</ele>
        <time>2012-08-09T07:43:53Z</time>
      </trkpt>
      <trkpt lat="45.27068" lon="6.07105">
        <ele>1485.3742675781</ele>
        <time>2012-08-09T07:43:57Z</time>
      </trkpt>
      <trkpt lat="45.27074" lon="6.07106">
        <ele>1484.4130859375</ele>
        <time>2012-08-09T07:44:02Z</time>
      </trkpt>
      <trkpt lat="45.27078" lon="6.0711">
        <ele>1483.9321289062</ele>
        <time>2012-08-09T07:44:07Z</time>
      </trkpt>
      <trkpt lat="45.27079" lon="6.07111">
        <ele>1483.4514160156</ele>
        <time>2012-08-09T07:44:08Z</time>
      </trkpt>
      <trkpt lat="45.27085" lon="6.07118">
        <ele>1481.0483398438</ele>
        <time>2012-08-09T07:44:14Z</time>
      </trkpt>
      <trkpt lat="45.2709" lon="6.07129">
        <ele>1476.2416992188</ele>
        <time>2012-08-09T07:44:21Z</time>
      </trkpt>
      <trkpt lat="45.27092" lon="6.07131">
        <ele>1475.7609863281</ele>
        <time>2012-08-09T07:44:23Z</time>
      </trkpt>
      <trkpt lat="45.27096" lon="6.07132">
        <ele>1475.2802734375</ele>
        <time>2012-08-09T07:44:26Z</time>
      </trkpt>
      <trkpt lat="45.27103" lon="6.07139">
        <ele>1473.8383789062</ele>
        <time>2012-08-09T07:44:32Z</time>
      </trkpt>
      <trkpt lat="45.27105" lon="6.07144">
        <ele>1472.396484375</ele>
        <time>2012-08-09T07:44:35Z</time>
      </trkpt>
      <trkpt lat="45.27109" lon="6.0715">
        <ele>1470.4738769531</ele>
        <time>2012-08-09T07:44:41Z</time>
      </trkpt>
      <trkpt lat="45.27109" lon="6.07155">
        <ele>1467.5895996094</ele>
        <time>2012-08-09T07:44:46Z</time>
      </trkpt>
      <trkpt lat="45.27111" lon="6.07161">
        <ele>1468.0705566406</ele>
        <time>2012-08-09T07:44:50Z</time>
      </trkpt>
      <trkpt lat="45.27111" lon="6.07165">
        <ele>1467.1091308594</ele>
        <time>2012-08-09T07:44:53Z</time>
      </trkpt>
      <trkpt lat="45.27115" lon="6.07175">
        <ele>1460.8605957031</ele>
        <time>2012-08-09T07:44:59Z</time>
      </trkpt>
      <trkpt lat="45.27118" lon="6.07181">
        <ele>1458.4572753906</ele>
        <time>2012-08-09T07:45:04Z</time>
      </trkpt>
      <trkpt lat="45.27124" lon="6.07185">
        <ele>1458.4572753906</ele>
        <time>2012-08-09T07:45:08Z</time>
      </trkpt>
      <trkpt lat="45.2713" lon="6.07191">
        <ele>1460.3798828125</ele>
        <time>2012-08-09T07:45:14Z</time>
      </trkpt>
      <trkpt lat="45.27131" lon="6.07193">
        <ele>1461.3413085938</ele>
        <time>2012-08-09T07:45:15Z</time>
      </trkpt>
      <trkpt lat="45.27132" lon="6.07197">
        <ele>1458.9379882812</ele>
        <time>2012-08-09T07:45:18Z</time>
      </trkpt>
      <trkpt lat="45.27134" lon="6.07206">
        <ele>1456.5346679688</ele>
        <time>2012-08-09T07:45:24Z</time>
      </trkpt>
      <trkpt lat="45.27137" lon="6.07213">
        <ele>1452.689453125</ele>
        <time>2012-08-09T07:45:28Z</time>
      </trkpt>
      <trkpt lat="45.27142" lon="6.0722">
        <ele>1450.7666015625</ele>
        <time>2012-08-09T07:45:34Z</time>
      </trkpt>
      <trkpt lat="45.27144" lon="6.07225">
        <ele>1447.8828125</ele>
        <time>2012-08-09T07:45:39Z</time>
      </trkpt>
      <trkpt lat="45.27145" lon="6.07227">
        <ele>1446.9213867188</ele>
        <time>2012-08-09T07:45:42Z</time>
      </trkpt>
      <trkpt lat="45.2715" lon="6.07228">
        <ele>1444.0375976562</ele>
        <time>2012-08-09T07:45:48Z</time>
      </trkpt>
      <trkpt lat="45.27154" lon="6.07233">
        <ele>1440.1923828125</ele>
        <time>2012-08-09T07:45:55Z</time>
      </trkpt>
      <trkpt lat="45.27158" lon="6.07235">
        <ele>1442.1149902344</ele>
        <time>2012-08-09T07:46:00Z</time>
      </trkpt>
      <trkpt lat="45.27162" lon="6.07237">
        <ele>1440.1923828125</ele>
        <time>2012-08-09T07:46:04Z</time>
      </trkpt>
      <trkpt lat="45.27163" lon="6.07242">
        <ele>1439.7116699219</ele>
        <time>2012-08-09T07:46:06Z</time>
      </trkpt>
      <trkpt lat="45.27162" lon="6.07246">
        <ele>1436.3471679688</ele>
        <time>2012-08-09T07:46:08Z</time>
      </trkpt>
      <trkpt lat="45.27164" lon="6.07251">
        <ele>1434.4243164062</ele>
        <time>2012-08-09T07:46:15Z</time>
      </trkpt>
      <trkpt lat="45.27167" lon="6.07254">
        <ele>1432.0209960938</ele>
        <time>2012-08-09T07:46:20Z</time>
      </trkpt>
      <trkpt lat="45.27169" lon="6.07258">
        <ele>1430.0983886719</ele>
        <time>2012-08-09T07:46:23Z</time>
      </trkpt>
      <trkpt lat="45.27171" lon="6.07261">
        <ele>1430.5791015625</ele>
        <time>2012-08-09T07:46:26Z</time>
      </trkpt>
      <trkpt lat="45.27174" lon="6.07259">
        <ele>1429.6176757812</ele>
        <time>2012-08-09T07:46:31Z</time>
      </trkpt>
      <trkpt lat="45.27174" lon="6.07254">
        <ele>1425.7724609375</ele>
        <time>2012-08-09T07:46:35Z</time>
      </trkpt>
      <trkpt lat="45.27175" lon="6.07245">
        <ele>1423.3693847656</ele>
        <time>2012-08-09T07:46:41Z</time>
      </trkpt>
      <trkpt lat="45.27177" lon="6.07237">
        <ele>1422.888671875</ele>
        <time>2012-08-09T07:46:45Z</time>
      </trkpt>
      <trkpt lat="45.2718" lon="6.07236">
        <ele>1423.8498535156</ele>
        <time>2012-08-09T07:46:47Z</time>
      </trkpt>
      <trkpt lat="45.27181" lon="6.07238">
        <ele>1421.9272460938</ele>
        <time>2012-08-09T07:46:50Z</time>
      </trkpt>
      <trkpt lat="45.27185" lon="6.07242">
        <ele>1419.5239257812</ele>
        <time>2012-08-09T07:46:55Z</time>
      </trkpt>
      <trkpt lat="45.27189" lon="6.0725">
        <ele>1418.5625</ele>
        <time>2012-08-09T07:47:03Z</time>
      </trkpt>
      <trkpt lat="45.27192" lon="6.07254">
        <ele>1418.5625</ele>
        <time>2012-08-09T07:47:07Z</time>
      </trkpt>
      <trkpt lat="45.27194" lon="6.07259">
        <ele>1418.0817871094</ele>
        <time>2012-08-09T07:47:13Z</time>
      </trkpt>
      <trkpt lat="45.27196" lon="6.07265">
        <ele>1419.5239257812</ele>
        <time>2012-08-09T07:47:18Z</time>
      </trkpt>
      <trkpt lat="45.27199" lon="6.07272">
        <ele>1418.5625</ele>
        <time>2012-08-09T07:47:22Z</time>
      </trkpt>
      <trkpt lat="45.27202" lon="6.07281">
        <ele>1422.4079589844</ele>
        <time>2012-08-09T07:47:27Z</time>
      </trkpt>
      <trkpt lat="45.27203" lon="6.07284">
        <ele>1412.7946777344</ele>
        <time>2012-08-09T07:47:33Z</time>
      </trkpt>
      <trkpt lat="45.27204" lon="6.07282">
        <ele>1408.9494628906</ele>
        <time>2012-08-09T07:47:36Z</time>
      </trkpt>
      <trkpt lat="45.27205" lon="6.07285">
        <ele>1406.0654296875</ele>
        <time>2012-08-09T07:47:40Z</time>
      </trkpt>
      <trkpt lat="45.27207" lon="6.07289">
        <ele>1401.7395019531</ele>
        <time>2012-08-09T07:47:45Z</time>
      </trkpt>
      <trkpt lat="45.27208" lon="6.07295">
        <ele>1401.7395019531</ele>
        <time>2012-08-09T07:47:49Z</time>
      </trkpt>
      <trkpt lat="45.27209" lon="6.07297">
        <ele>1402.7006835938</ele>
        <time>2012-08-09T07:47:50Z</time>
      </trkpt>
      <trkpt lat="45.27211" lon="6.07306">
        <ele>1404.1430664062</ele>
        <time>2012-08-09T07:47:54Z</time>
      </trkpt>
      <trkpt lat="45.27215" lon="6.07307">
        <ele>1404.6235351562</ele>
        <time>2012-08-09T07:47:57Z</time>
      </trkpt>
      <trkpt lat="45.27219" lon="6.07312">
        <ele>1404.6235351562</ele>
        <time>2012-08-09T07:48:02Z</time>
      </trkpt>
      <trkpt lat="45.27222" lon="6.07315">
        <ele>1401.2587890625</ele>
        <time>2012-08-09T07:48:07Z</time>
      </trkpt>
      <trkpt lat="45.27228" lon="6.07322">
        <ele>1400.2976074219</ele>
        <time>2012-08-09T07:48:12Z</time>
      </trkpt>
      <trkpt lat="45.2723" lon="6.07331">
        <ele>1397.4135742188</ele>
        <time>2012-08-09T07:48:17Z</time>
      </trkpt>
      <trkpt lat="45.2723" lon="6.07333">
        <ele>1396.9328613281</ele>
        <time>2012-08-09T07:48:18Z</time>
      </trkpt>
      <trkpt lat="45.27232" lon="6.07336">
        <ele>1396.4523925781</ele>
        <time>2012-08-09T07:48:20Z</time>
      </trkpt>
      <trkpt lat="45.27237" lon="6.07337">
        <ele>1395.4909667969</ele>
        <time>2012-08-09T07:48:24Z</time>
      </trkpt>
      <trkpt lat="45.27242" lon="6.07338">
        <ele>1393.0876464844</ele>
        <time>2012-08-09T07:48:29Z</time>
      </trkpt>
      <trkpt lat="45.27247" lon="6.07341">
        <ele>1392.1264648438</ele>
        <time>2012-08-09T07:48:33Z</time>
      </trkpt>
      <trkpt lat="45.2725" lon="6.07346">
        <ele>1388.7619628906</ele>
        <time>2012-08-09T07:48:36Z</time>
      </trkpt>
      <trkpt lat="45.27252" lon="6.07356">
        <ele>1384.9165039062</ele>
        <time>2012-08-09T07:48:40Z</time>
      </trkpt>
      <trkpt lat="45.27255" lon="6.07359">
        <ele>1382.9936523438</ele>
        <time>2012-08-09T07:48:43Z</time>
      </trkpt>
      <trkpt lat="45.27261" lon="6.07363">
        <ele>1381.5517578125</ele>
        <time>2012-08-09T07:48:48Z</time>
      </trkpt>
      <trkpt lat="45.27269" lon="6.07363">
        <ele>1382.5131835938</ele>
        <time>2012-08-09T07:48:53Z</time>
      </trkpt>
      <trkpt lat="45.27276" lon="6.07371">
        <ele>1375.7839355469</ele>
        <time>2012-08-09T07:48:59Z</time>
      </trkpt>
      <trkpt lat="45.2728" lon="6.07374">
        <ele>1374.8227539062</ele>
        <time>2012-08-09T07:49:02Z</time>
      </trkpt>
      <trkpt lat="45.27282" lon="6.07378">
        <ele>1371.4577636719</ele>
        <time>2012-08-09T07:49:06Z</time>
      </trkpt>
      <trkpt lat="45.27283" lon="6.07381">
        <ele>1370.4965820312</ele>
        <time>2012-08-09T07:49:08Z</time>
      </trkpt>
      <trkpt lat="45.27287" lon="6.07395">
        <ele>1367.1320800781</ele>
        <time>2012-08-09T07:49:15Z</time>
      </trkpt>
      <trkpt lat="45.27292" lon="6.07401">
        <ele>1367.6125488281</ele>
        <time>2012-08-09T07:49:20Z</time>
      </trkpt>
      <trkpt lat="45.27298" lon="6.0741">
        <ele>1371.4577636719</ele>
        <time>2012-08-09T07:49:26Z</time>
      </trkpt>
      <trkpt lat="45.273" lon="6.07412">
        <ele>1373.380859375</ele>
        <time>2012-08-09T07:49:28Z</time>
      </trkpt>
      <trkpt lat="45.27313" lon="6.07413">
        <ele>1378.1872558594</ele>
        <time>2012-08-09T07:49:34Z</time>
      </trkpt>
      <trkpt lat="45.27314" lon="6.07412">
        <ele>1378.1872558594</ele>
        <time>2012-08-09T07:49:35Z</time>
      </trkpt>
      <trkpt lat="45.27323" lon="6.07421">
        <ele>1377.7065429688</ele>
        <time>2012-08-09T07:49:42Z</time>
      </trkpt>
      <trkpt lat="45.27326" lon="6.07427">
        <ele>1376.2646484375</ele>
        <time>2012-08-09T07:49:46Z</time>
      </trkpt>
      <trkpt lat="45.27327" lon="6.07435">
        <ele>1371.4577636719</ele>
        <time>2012-08-09T07:49:52Z</time>
      </trkpt>
      <trkpt lat="45.27328" lon="6.0744">
        <ele>1369.5354003906</ele>
        <time>2012-08-09T07:49:55Z</time>
      </trkpt>
      <trkpt lat="45.27332" lon="6.07448">
        <ele>1365.6901855469</ele>
        <time>2012-08-09T07:50:00Z</time>
      </trkpt>
      <trkpt lat="45.27335" lon="6.0745">
        <ele>1365.2094726562</ele>
        <time>2012-08-09T07:50:02Z</time>
      </trkpt>
      <trkpt lat="45.2734" lon="6.07454">
        <ele>1361.8449707031</ele>
        <time>2012-08-09T07:50:07Z</time>
      </trkpt>
      <trkpt lat="45.27345" lon="6.07456">
        <ele>1359.4416503906</ele>
        <time>2012-08-09T07:50:13Z</time>
      </trkpt>
      <trkpt lat="45.27349" lon="6.07458">
        <ele>1360.8835449219</ele>
        <time>2012-08-09T07:50:17Z</time>
      </trkpt>
      <trkpt lat="45.27351" lon="6.07458">
        <ele>1361.3642578125</ele>
        <time>2012-08-09T07:50:18Z</time>
      </trkpt>
      <trkpt lat="45.27362" lon="6.07462">
        <ele>1366.6513671875</ele>
        <time>2012-08-09T07:50:24Z</time>
      </trkpt>
      <trkpt lat="45.2737" lon="6.07463">
        <ele>1367.1320800781</ele>
        <time>2012-08-09T07:50:28Z</time>
      </trkpt>
      <trkpt lat="45.27384" lon="6.07466">
        <ele>1366.6513671875</ele>
        <time>2012-08-09T07:50:34Z</time>
      </trkpt>
      <trkpt lat="45.27389" lon="6.07468">
        <ele>1367.1320800781</ele>
        <time>2012-08-09T07:50:37Z</time>
      </trkpt>
      <trkpt lat="45.27392" lon="6.07468">
        <ele>1368.0932617188</ele>
        <time>2012-08-09T07:50:39Z</time>
      </trkpt>
      <trkpt lat="45.27396" lon="6.07469">
        <ele>1369.5354003906</ele>
        <time>2012-08-09T07:50:42Z</time>
      </trkpt>
      <trkpt lat="45.27403" lon="6.07468">
        <ele>1370.4965820312</ele>
        <time>2012-08-09T07:50:46Z</time>
      </trkpt>
      <trkpt lat="45.27407" lon="6.0747">
        <ele>1364.248046875</ele>
        <time>2012-08-09T07:50:52Z</time>
      </trkpt>
      <trkpt lat="45.27412" lon="6.07478">
        <ele>1367.1320800781</ele>
        <time>2012-08-09T07:50:57Z</time>
      </trkpt>
      <trkpt lat="45.27413" lon="6.07484">
        <ele>1365.6901855469</ele>
        <time>2012-08-09T07:51:02Z</time>
      </trkpt>
      <trkpt lat="45.27415" lon="6.0749">
        <ele>1360.4028320312</ele>
        <time>2012-08-09T07:51:09Z</time>
      </trkpt>
      <trkpt lat="45.27414" lon="6.07494">
        <ele>1356.0769042969</ele>
        <time>2012-08-09T07:51:15Z</time>
      </trkpt>
      <trkpt lat="45.2741" lon="6.07498">
        <ele>1351.7509765625</ele>
        <time>2012-08-09T07:51:20Z</time>
      </trkpt>
      <trkpt lat="45.27408" lon="6.07501">
        <ele>1349.8283691406</ele>
        <time>2012-08-09T07:51:23Z</time>
      </trkpt>
      <trkpt lat="45.27407" lon="6.07507">
        <ele>1344.541015625</ele>
        <time>2012-08-09T07:51:29Z</time>
      </trkpt>
      <trkpt lat="45.27409" lon="6.07508">
        <ele>1346.4638671875</ele>
        <time>2012-08-09T07:51:32Z</time>
      </trkpt>
      <trkpt lat="45.27416" lon="6.07504">
        <ele>1344.541015625</ele>
        <time>2012-08-09T07:51:38Z</time>
      </trkpt>
      <trkpt lat="45.27417" lon="6.07501">
        <ele>1340.2153320312</ele>
        <time>2012-08-09T07:51:44Z</time>
      </trkpt>
      <trkpt lat="45.27425" lon="6.07501">
        <ele>1340.6958007812</ele>
        <time>2012-08-09T07:51:49Z</time>
      </trkpt>
      <trkpt lat="45.27433" lon="6.07498">
        <ele>1342.1379394531</ele>
        <time>2012-08-09T07:51:54Z</time>
      </trkpt>
      <trkpt lat="45.27441" lon="6.075">
        <ele>1343.5798339844</ele>
        <time>2012-08-09T07:51:59Z</time>
      </trkpt>
      <trkpt lat="45.27443" lon="6.07503">
        <ele>1342.1379394531</ele>
        <time>2012-08-09T07:52:02Z</time>
      </trkpt>
      <trkpt lat="45.27449" lon="6.07508">
        <ele>1340.2153320312</ele>
        <time>2012-08-09T07:52:07Z</time>
      </trkpt>
      <trkpt lat="45.27453" lon="6.07517">
        <ele>1332.5246582031</ele>
        <time>2012-08-09T07:52:14Z</time>
      </trkpt>
      <trkpt lat="45.27461" lon="6.07527">
        <ele>1324.8342285156</ele>
        <time>2012-08-09T07:52:21Z</time>
      </trkpt>
      <trkpt lat="45.27462" lon="6.07528">
        <ele>1323.3920898438</ele>
        <time>2012-08-09T07:52:22Z</time>
      </trkpt>
      <trkpt lat="45.27469" lon="6.07531">
        <ele>1319.546875</ele>
        <time>2012-08-09T07:52:28Z</time>
      </trkpt>
      <trkpt lat="45.27472" lon="6.07533">
        <ele>1318.1047363281</ele>
        <time>2012-08-09T07:52:33Z</time>
      </trkpt>
      <trkpt lat="45.27475" lon="6.07536">
        <ele>1314.740234375</ele>
        <time>2012-08-09T07:52:39Z</time>
      </trkpt>
      <trkpt lat="45.27476" lon="6.07542">
        <ele>1312.3369140625</ele>
        <time>2012-08-09T07:52:46Z</time>
      </trkpt>
      <trkpt lat="45.27483" lon="6.07544">
        <ele>1311.8564453125</ele>
        <time>2012-08-09T07:52:51Z</time>
      </trkpt>
      <trkpt lat="45.27489" lon="6.07545">
        <ele>1311.3757324219</ele>
        <time>2012-08-09T07:52:57Z</time>
      </trkpt>
      <trkpt lat="45.27491" lon="6.07545">
        <ele>1312.3369140625</ele>
        <time>2012-08-09T07:52:58Z</time>
      </trkpt>
      <trkpt lat="45.27495" lon="6.07544">
        <ele>1310.8950195312</ele>
        <time>2012-08-09T07:53:03Z</time>
      </trkpt>
      <trkpt lat="45.27498" lon="6.07542">
        <ele>1308.9724121094</ele>
        <time>2012-08-09T07:53:07Z</time>
      </trkpt>
      <trkpt lat="45.275" lon="6.07542">
        <ele>1308.9724121094</ele>
        <time>2012-08-09T07:53:08Z</time>
      </trkpt>
      <trkpt lat="45.27504" lon="6.07551">
        <ele>1309.93359375</ele>
        <time>2012-08-09T07:53:13Z</time>
      </trkpt>
      <trkpt lat="45.27509" lon="6.07552">
        <ele>1305.126953125</ele>
        <time>2012-08-09T07:53:19Z</time>
      </trkpt>
      <trkpt lat="45.2751" lon="6.07555">
        <ele>1303.2043457031</ele>
        <time>2012-08-09T07:53:22Z</time>
      </trkpt>
      <trkpt lat="45.27514" lon="6.07557">
        <ele>1298.8784179688</ele>
        <time>2012-08-09T07:53:26Z</time>
      </trkpt>
      <trkpt lat="45.2752" lon="6.07557">
        <ele>1295.9946289062</ele>
        <time>2012-08-09T07:53:33Z</time>
      </trkpt>
      <trkpt lat="45.27524" lon="6.07556">
        <ele>1289.7458496094</ele>
        <time>2012-08-09T07:53:38Z</time>
      </trkpt>
      <trkpt lat="45.27525" lon="6.07557">
        <ele>1288.7846679688</ele>
        <time>2012-08-09T07:53:39Z</time>
      </trkpt>
      <trkpt lat="45.2753" lon="6.0756">
        <ele>1288.7846679688</ele>
        <time>2012-08-09T07:53:45Z</time>
      </trkpt>
      <trkpt lat="45.27532" lon="6.0756">
        <ele>1290.2265625</ele>
        <time>2012-08-09T07:53:47Z</time>
      </trkpt>
      <trkpt lat="45.27533" lon="6.07567">
        <ele>1289.7458496094</ele>
        <time>2012-08-09T07:53:51Z</time>
      </trkpt>
      <trkpt lat="45.27532" lon="6.07573">
        <ele>1288.7846679688</ele>
        <time>2012-08-09T07:53:56Z</time>
      </trkpt>
      <trkpt lat="45.27536" lon="6.07572">
        <ele>1289.2651367188</ele>
        <time>2012-08-09T07:53:59Z</time>
      </trkpt>
      <trkpt lat="45.27542" lon="6.0758">
        <ele>1287.8232421875</ele>
        <time>2012-08-09T07:54:04Z</time>
      </trkpt>
      <trkpt lat="45.27537" lon="6.07583">
        <ele>1286.3813476562</ele>
        <time>2012-08-09T07:54:09Z</time>
      </trkpt>
      <trkpt lat="45.27533" lon="6.07585">
        <ele>1283.4973144531</ele>
        <time>2012-08-09T07:54:12Z</time>
      </trkpt>
      <trkpt lat="45.27525" lon="6.07592">
        <ele>1274.8454589844</ele>
        <time>2012-08-09T07:54:19Z</time>
      </trkpt>
      <trkpt lat="45.27517" lon="6.07601">
        <ele>1274.8454589844</ele>
        <time>2012-08-09T07:54:23Z</time>
      </trkpt>
      <trkpt lat="45.27513" lon="6.07605">
        <ele>1273.8840332031</ele>
        <time>2012-08-09T07:54:25Z</time>
      </trkpt>
      <trkpt lat="45.27509" lon="6.07611">
        <ele>1275.3259277344</ele>
        <time>2012-08-09T07:54:27Z</time>
      </trkpt>
      <trkpt lat="45.27501" lon="6.07621">
        <ele>1278.6909179688</ele>
        <time>2012-08-09T07:54:33Z</time>
      </trkpt>
      <trkpt lat="45.27496" lon="6.07624">
        <ele>1272.4421386719</ele>
        <time>2012-08-09T07:54:38Z</time>
      </trkpt>
      <trkpt lat="45.27494" lon="6.07631">
        <ele>1273.4035644531</ele>
        <time>2012-08-09T07:54:42Z</time>
      </trkpt>
      <trkpt lat="45.27503" lon="6.07633">
        <ele>1276.2875976562</ele>
        <time>2012-08-09T07:54:48Z</time>
      </trkpt>
      <trkpt lat="45.27505" lon="6.07634">
        <ele>1275.806640625</ele>
        <time>2012-08-09T07:54:49Z</time>
      </trkpt>
      <trkpt lat="45.27507" lon="6.07633">
        <ele>1273.4035644531</ele>
        <time>2012-08-09T07:54:51Z</time>
      </trkpt>
      <trkpt lat="45.27511" lon="6.07632">
        <ele>1269.0776367188</ele>
        <time>2012-08-09T07:54:55Z</time>
      </trkpt>
      <trkpt lat="45.27518" lon="6.07632">
        <ele>1265.7131347656</ele>
        <time>2012-08-09T07:55:00Z</time>
      </trkpt>
      <trkpt lat="45.27521" lon="6.07631">
        <ele>1263.7902832031</ele>
        <time>2012-08-09T07:55:02Z</time>
      </trkpt>
      <trkpt lat="45.27523" lon="6.07634">
        <ele>1262.8291015625</ele>
        <time>2012-08-09T07:55:04Z</time>
      </trkpt>
      <trkpt lat="45.2753" lon="6.07632">
        <ele>1261.3872070312</ele>
        <time>2012-08-09T07:55:08Z</time>
      </trkpt>
      <trkpt lat="45.2754" lon="6.07631">
        <ele>1259.4643554688</ele>
        <time>2012-08-09T07:55:14Z</time>
      </trkpt>
      <trkpt lat="45.27548" lon="6.07632">
        <ele>1259.4643554688</ele>
        <time>2012-08-09T07:55:18Z</time>
      </trkpt>
      <trkpt lat="45.2755" lon="6.07632">
        <ele>1258.9836425781</ele>
        <time>2012-08-09T07:55:19Z</time>
      </trkpt>
      <trkpt lat="45.27554" lon="6.07633">
        <ele>1258.5029296875</ele>
        <time>2012-08-09T07:55:21Z</time>
      </trkpt>
      <trkpt lat="45.27565" lon="6.07631">
        <ele>1255.1384277344</ele>
        <time>2012-08-09T07:55:27Z</time>
      </trkpt>
      <trkpt lat="45.27567" lon="6.07631">
        <ele>1255.619140625</ele>
        <time>2012-08-09T07:55:28Z</time>
      </trkpt>
      <trkpt lat="45.2758" lon="6.07629">
        <ele>1255.619140625</ele>
        <time>2012-08-09T07:55:34Z</time>
      </trkpt>
      <trkpt lat="45.27591" lon="6.0763">
        <ele>1255.619140625</ele>
        <time>2012-08-09T07:55:40Z</time>
      </trkpt>
      <trkpt lat="45.27599" lon="6.07629">
        <ele>1255.1384277344</ele>
        <time>2012-08-09T07:55:44Z</time>
      </trkpt>
      <trkpt lat="45.27612" lon="6.07625">
        <ele>1253.2158203125</ele>
        <time>2012-08-09T07:55:49Z</time>
      </trkpt>
      <trkpt lat="45.27615" lon="6.07624">
        <ele>1252.7351074219</ele>
        <time>2012-08-09T07:55:50Z</time>
      </trkpt>
      <trkpt lat="45.27622" lon="6.07622">
        <ele>1251.7739257812</ele>
        <time>2012-08-09T07:55:53Z</time>
      </trkpt>
      <trkpt lat="45.27631" lon="6.07611">
        <ele>1241.6799316406</ele>
        <time>2012-08-09T07:55:59Z</time>
      </trkpt>
      <trkpt lat="45.27634" lon="6.07604">
        <ele>1231.1057128906</ele>
        <time>2012-08-09T07:56:04Z</time>
      </trkpt>
      <trkpt lat="45.27636" lon="6.07603">
        <ele>1230.625</ele>
        <time>2012-08-09T07:56:05Z</time>
      </trkpt>
      <trkpt lat="45.2764" lon="6.07597">
        <ele>1228.7023925781</ele>
        <time>2012-08-09T07:56:09Z</time>
      </trkpt>
      <trkpt lat="45.2764" lon="6.07592">
        <ele>1226.298828125</ele>
        <time>2012-08-09T07:56:12Z</time>
      </trkpt>
      <trkpt lat="45.27643" lon="6.07588">
        <ele>1226.298828125</ele>
        <time>2012-08-09T07:56:15Z</time>
      </trkpt>
      <trkpt lat="45.2765" lon="6.07583">
        <ele>1227.7407226562</ele>
        <time>2012-08-09T07:56:19Z</time>
      </trkpt>
      <trkpt lat="45.27655" lon="6.07572">
        <ele>1225.8181152344</ele>
        <time>2012-08-09T07:56:24Z</time>
      </trkpt>
      <trkpt lat="45.27655" lon="6.0757">
        <ele>1225.3374023438</ele>
        <time>2012-08-09T07:56:25Z</time>
      </trkpt>
      <trkpt lat="45.27657" lon="6.07561">
        <ele>1220.0502929688</ele>
        <time>2012-08-09T07:56:31Z</time>
      </trkpt>
      <trkpt lat="45.2766" lon="6.07558">
        <ele>1218.6083984375</ele>
        <time>2012-08-09T07:56:34Z</time>
      </trkpt>
      <trkpt lat="45.27666" lon="6.07562">
        <ele>1214.7631835938</ele>
        <time>2012-08-09T07:56:40Z</time>
      </trkpt>
      <trkpt lat="45.27667" lon="6.07563">
        <ele>1214.7631835938</ele>
        <time>2012-08-09T07:56:41Z</time>
      </trkpt>
      <trkpt lat="45.27673" lon="6.07578">
        <ele>1214.7631835938</ele>
        <time>2012-08-09T07:56:47Z</time>
      </trkpt>
      <trkpt lat="45.27673" lon="6.07579">
        <ele>1214.2824707031</ele>
        <time>2012-08-09T07:56:48Z</time>
      </trkpt>
      <trkpt lat="45.27673" lon="6.07581">
        <ele>1211.8791503906</ele>
        <time>2012-08-09T07:56:51Z</time>
      </trkpt>
      <trkpt lat="45.27675" lon="6.0758">
        <ele>1212.3598632812</ele>
        <time>2012-08-09T07:56:53Z</time>
      </trkpt>
      <trkpt lat="45.27677" lon="6.07574">
        <ele>1211.3984375</ele>
        <time>2012-08-09T07:56:57Z</time>
      </trkpt>
      <trkpt lat="45.2768" lon="6.0757">
        <ele>1211.3984375</ele>
        <time>2012-08-09T07:57:00Z</time>
      </trkpt>
      <trkpt lat="45.2768" lon="6.07564">
        <ele>1208.9951171875</ele>
        <time>2012-08-09T07:57:03Z</time>
      </trkpt>
      <trkpt lat="45.27681" lon="6.07556">
        <ele>1208.0339355469</ele>
        <time>2012-08-09T07:57:07Z</time>
      </trkpt>
      <trkpt lat="45.27682" lon="6.07546">
        <ele>1207.0725097656</ele>
        <time>2012-08-09T07:57:11Z</time>
      </trkpt>
      <trkpt lat="45.27679" lon="6.07533">
        <ele>1207.0725097656</ele>
        <time>2012-08-09T07:57:16Z</time>
      </trkpt>
      <trkpt lat="45.2768" lon="6.07525">
        <ele>1205.6306152344</ele>
        <time>2012-08-09T07:57:20Z</time>
      </trkpt>
      <trkpt lat="45.27685" lon="6.07514">
        <ele>1203.7080078125</ele>
        <time>2012-08-09T07:57:25Z</time>
      </trkpt>
      <trkpt lat="45.27687" lon="6.07507">
        <ele>1203.2272949219</ele>
        <time>2012-08-09T07:57:29Z</time>
      </trkpt>
      <trkpt lat="45.27688" lon="6.07505">
        <ele>1203.2272949219</ele>
        <time>2012-08-09T07:57:30Z</time>
      </trkpt>
      <trkpt lat="45.2769" lon="6.07502">
        <ele>1203.2272949219</ele>
        <time>2012-08-09T07:57:32Z</time>
      </trkpt>
      <trkpt lat="45.27691" lon="6.075">
        <ele>1203.2272949219</ele>
        <time>2012-08-09T07:57:34Z</time>
      </trkpt>
      <trkpt lat="45.27697" lon="6.0749">
        <ele>1199.8627929688</ele>
        <time>2012-08-09T07:57:40Z</time>
      </trkpt>
      <trkpt lat="45.27699" lon="6.07482">
        <ele>1192.1721191406</ele>
        <time>2012-08-09T07:57:45Z</time>
      </trkpt>
      <trkpt lat="45.27701" lon="6.07475">
        <ele>1188.8076171875</ele>
        <time>2012-08-09T07:57:49Z</time>
      </trkpt>
      <trkpt lat="45.27702" lon="6.0747">
        <ele>1187.3654785156</ele>
        <time>2012-08-09T07:57:52Z</time>
      </trkpt>
      <trkpt lat="45.27704" lon="6.07461">
        <ele>1186.404296875</ele>
        <time>2012-08-09T07:57:56Z</time>
      </trkpt>
      <trkpt lat="45.27703" lon="6.0745">
        <ele>1185.9235839844</ele>
        <time>2012-08-09T07:58:01Z</time>
      </trkpt>
      <trkpt lat="45.27708" lon="6.07452">
        <ele>1181.1171875</ele>
        <time>2012-08-09T07:58:06Z</time>
      </trkpt>
      <trkpt lat="45.27708" lon="6.07451">
        <ele>1182.0783691406</ele>
        <time>2012-08-09T07:58:07Z</time>
      </trkpt>
      <trkpt lat="45.27714" lon="6.07454">
        <ele>1180.6364746094</ele>
        <time>2012-08-09T07:58:20Z</time>
      </trkpt>
      <trkpt lat="45.27716" lon="6.07456">
        <ele>1179.6748046875</ele>
        <time>2012-08-09T07:58:22Z</time>
      </trkpt>
      <trkpt lat="45.27719" lon="6.0746">
        <ele>1181.1171875</ele>
        <time>2012-08-09T07:58:25Z</time>
      </trkpt>
      <trkpt lat="45.27718" lon="6.07468">
        <ele>1178.7136230469</ele>
        <time>2012-08-09T07:58:30Z</time>
      </trkpt>
      <trkpt lat="45.27714" lon="6.0748">
        <ele>1177.7521972656</ele>
        <time>2012-08-09T07:58:39Z</time>
      </trkpt>
      <trkpt lat="45.2771" lon="6.07485">
        <ele>1171.984375</ele>
        <time>2012-08-09T07:58:46Z</time>
      </trkpt>
      <trkpt lat="45.27707" lon="6.07493">
        <ele>1172.9458007812</ele>
        <time>2012-08-09T07:58:52Z</time>
      </trkpt>
      <trkpt lat="45.27705" lon="6.07502">
        <ele>1175.3488769531</ele>
        <time>2012-08-09T07:58:57Z</time>
      </trkpt>
      <trkpt lat="45.27702" lon="6.0751">
        <ele>1179.1940917969</ele>
        <time>2012-08-09T07:59:03Z</time>
      </trkpt>
      <trkpt lat="45.277" lon="6.07513">
        <ele>1179.6748046875</ele>
        <time>2012-08-09T07:59:06Z</time>
      </trkpt>
      <trkpt lat="45.27702" lon="6.07523">
        <ele>1189.2880859375</ele>
        <time>2012-08-09T07:59:10Z</time>
      </trkpt>
      <trkpt lat="45.27703" lon="6.07534">
        <ele>1194.5751953125</ele>
        <time>2012-08-09T07:59:16Z</time>
      </trkpt>
      <trkpt lat="45.27704" lon="6.07543">
        <ele>1200.8239746094</ele>
        <time>2012-08-09T07:59:23Z</time>
      </trkpt>
      <trkpt lat="45.27705" lon="6.07547">
        <ele>1202.7465820312</ele>
        <time>2012-08-09T07:59:26Z</time>
      </trkpt>
      <trkpt lat="45.27707" lon="6.07553">
        <ele>1196.9787597656</ele>
        <time>2012-08-09T07:59:32Z</time>
      </trkpt>
      <trkpt lat="45.27704" lon="6.07561">
        <ele>1192.6528320312</ele>
        <time>2012-08-09T07:59:39Z</time>
      </trkpt>
      <trkpt lat="45.27703" lon="6.07569">
        <ele>1194.5751953125</ele>
        <time>2012-08-09T07:59:45Z</time>
      </trkpt>
      <trkpt lat="45.27701" lon="6.07576">
        <ele>1196.017578125</ele>
        <time>2012-08-09T07:59:51Z</time>
      </trkpt>
      <trkpt lat="45.27697" lon="6.07583">
        <ele>1194.5751953125</ele>
        <time>2012-08-09T07:59:57Z</time>
      </trkpt>
      <trkpt lat="45.27696" lon="6.07594">
        <ele>1201.3046875</ele>
        <time>2012-08-09T08:00:02Z</time>
      </trkpt>
      <trkpt lat="45.27693" lon="6.07602">
        <ele>1200.3435058594</ele>
        <time>2012-08-09T08:00:07Z</time>
      </trkpt>
      <trkpt lat="45.27692" lon="6.07608">
        <ele>1198.9013671875</ele>
        <time>2012-08-09T08:00:11Z</time>
      </trkpt>
      <trkpt lat="45.27691" lon="6.07611">
        <ele>1197.9401855469</ele>
        <time>2012-08-09T08:00:14Z</time>
      </trkpt>
      <trkpt lat="45.27689" lon="6.07618">
        <ele>1194.5751953125</ele>
        <time>2012-08-09T08:00:19Z</time>
      </trkpt>
      <trkpt lat="45.27684" lon="6.07626">
        <ele>1191.69140625</ele>
        <time>2012-08-09T08:00:26Z</time>
      </trkpt>
      <trkpt lat="45.27681" lon="6.07629">
        <ele>1188.3269042969</ele>
        <time>2012-08-09T08:00:30Z</time>
      </trkpt>
      <trkpt lat="45.27673" lon="6.0764">
        <ele>1192.6528320312</ele>
        <time>2012-08-09T08:00:39Z</time>
      </trkpt>
      <trkpt lat="45.27666" lon="6.07652">
        <ele>1197.9401855469</ele>
        <time>2012-08-09T08:00:48Z</time>
      </trkpt>
      <trkpt lat="45.27659" lon="6.07658">
        <ele>1202.7465820312</ele>
        <time>2012-08-09T08:00:54Z</time>
      </trkpt>
      <trkpt lat="45.27652" lon="6.07663">
        <ele>1203.2272949219</ele>
        <time>2012-08-09T08:01:00Z</time>
      </trkpt>
      <trkpt lat="45.27648" lon="6.07664">
        <ele>1203.2272949219</ele>
        <time>2012-08-09T08:01:04Z</time>
      </trkpt>
      <trkpt lat="45.27641" lon="6.07666">
        <ele>1197.4594726562</ele>
        <time>2012-08-09T08:01:11Z</time>
      </trkpt>
      <trkpt lat="45.27634" lon="6.07667">
        <ele>1196.4982910156</ele>
        <time>2012-08-09T08:01:17Z</time>
      </trkpt>
      <trkpt lat="45.2763" lon="6.07669">
        <ele>1199.8627929688</ele>
        <time>2012-08-09T08:01:21Z</time>
      </trkpt>
      <trkpt lat="45.27628" lon="6.07669">
        <ele>1198.9013671875</ele>
        <time>2012-08-09T08:01:23Z</time>
      </trkpt>
      <trkpt lat="45.27623" lon="6.07677">
        <ele>1203.2272949219</ele>
        <time>2012-08-09T08:01:30Z</time>
      </trkpt>
      <trkpt lat="45.27618" lon="6.07683">
        <ele>1204.6691894531</ele>
        <time>2012-08-09T08:01:36Z</time>
      </trkpt>
      <trkpt lat="45.27613" lon="6.07686">
        <ele>1201.3046875</ele>
        <time>2012-08-09T08:01:41Z</time>
      </trkpt>
      <trkpt lat="45.27609" lon="6.07693">
        <ele>1210.4370117188</ele>
        <time>2012-08-09T08:01:48Z</time>
      </trkpt>
      <trkpt lat="45.27608" lon="6.07699">
        <ele>1215.2438964844</ele>
        <time>2012-08-09T08:01:51Z</time>
      </trkpt>
      <trkpt lat="45.27601" lon="6.07714">
        <ele>1221.9729003906</ele>
        <time>2012-08-09T08:01:59Z</time>
      </trkpt>
      <trkpt lat="45.27598" lon="6.07717">
        <ele>1218.6083984375</ele>
        <time>2012-08-09T08:02:05Z</time>
      </trkpt>
      <trkpt lat="45.27594" lon="6.07724">
        <ele>1214.7631835938</ele>
        <time>2012-08-09T08:02:10Z</time>
      </trkpt>
      <trkpt lat="45.27588" lon="6.07726">
        <ele>1204.6691894531</ele>
        <time>2012-08-09T08:02:15Z</time>
      </trkpt>
      <trkpt lat="45.27587" lon="6.07728">
        <ele>1201.7854003906</ele>
        <time>2012-08-09T08:02:18Z</time>
      </trkpt>
      <trkpt lat="45.27586" lon="6.07733">
        <ele>1199.3820800781</ele>
        <time>2012-08-09T08:02:21Z</time>
      </trkpt>
      <trkpt lat="45.2758" lon="6.07741">
        <ele>1196.017578125</ele>
        <time>2012-08-09T08:02:27Z</time>
      </trkpt>
      <trkpt lat="45.27579" lon="6.07742">
        <ele>1196.017578125</ele>
        <time>2012-08-09T08:02:28Z</time>
      </trkpt>
      <trkpt lat="45.27577" lon="6.07748">
        <ele>1190.2495117188</ele>
        <time>2012-08-09T08:02:35Z</time>
      </trkpt>
      <trkpt lat="45.27581" lon="6.07754">
        <ele>1193.6140136719</ele>
        <time>2012-08-09T08:02:42Z</time>
      </trkpt>
      <trkpt lat="45.27586" lon="6.07758">
        <ele>1196.017578125</ele>
        <time>2012-08-09T08:02:45Z</time>
      </trkpt>
      <trkpt lat="45.27594" lon="6.07758">
        <ele>1198.4206542969</ele>
        <time>2012-08-09T08:02:50Z</time>
      </trkpt>
      <trkpt lat="45.27595" lon="6.07759">
        <ele>1197.4594726562</ele>
        <time>2012-08-09T08:02:52Z</time>
      </trkpt>
      <trkpt lat="45.27591" lon="6.07767">
        <ele>1189.2880859375</ele>
        <time>2012-08-09T08:02:59Z</time>
      </trkpt>
      <trkpt lat="45.27592" lon="6.0777">
        <ele>1186.884765625</ele>
        <time>2012-08-09T08:03:03Z</time>
      </trkpt>
      <trkpt lat="45.27597" lon="6.07774">
        <ele>1184.4816894531</ele>
        <time>2012-08-09T08:03:09Z</time>
      </trkpt>
      <trkpt lat="45.27599" lon="6.07778">
        <ele>1182.5590820312</ele>
        <time>2012-08-09T08:03:12Z</time>
      </trkpt>
      <trkpt lat="45.27597" lon="6.07781">
        <ele>1174.8684082031</ele>
        <time>2012-08-09T08:03:18Z</time>
      </trkpt>
      <trkpt lat="45.27592" lon="6.07786">
        <ele>1173.9069824219</ele>
        <time>2012-08-09T08:03:24Z</time>
      </trkpt>
      <trkpt lat="45.27589" lon="6.0779">
        <ele>1170.0617675781</ele>
        <time>2012-08-09T08:03:28Z</time>
      </trkpt>
      <trkpt lat="45.27584" lon="6.07792">
        <ele>1164.2939453125</ele>
        <time>2012-08-09T08:03:32Z</time>
      </trkpt>
      <trkpt lat="45.27581" lon="6.07795">
        <ele>1164.2939453125</ele>
        <time>2012-08-09T08:03:34Z</time>
      </trkpt>
      <trkpt lat="45.27577" lon="6.078">
        <ele>1160.9291992188</ele>
        <time>2012-08-09T08:03:37Z</time>
      </trkpt>
      <trkpt lat="45.27573" lon="6.07806">
        <ele>1160.9291992188</ele>
        <time>2012-08-09T08:03:41Z</time>
      </trkpt>
      <trkpt lat="45.27575" lon="6.07809">
        <ele>1161.890625</ele>
        <time>2012-08-09T08:03:47Z</time>
      </trkpt>
      <trkpt lat="45.27578" lon="6.07811">
        <ele>1162.37109375</ele>
        <time>2012-08-09T08:03:52Z</time>
      </trkpt>
      <trkpt lat="45.27579" lon="6.07812">
        <ele>1163.3325195312</ele>
        <time>2012-08-09T08:03:54Z</time>
      </trkpt>
      <trkpt lat="45.27582" lon="6.07821">
        <ele>1165.7360839844</ele>
        <time>2012-08-09T08:03:59Z</time>
      </trkpt>
      <trkpt lat="45.27581" lon="6.07831">
        <ele>1166.2165527344</ele>
        <time>2012-08-09T08:04:06Z</time>
      </trkpt>
      <trkpt lat="45.27578" lon="6.07838">
        <ele>1171.0231933594</ele>
        <time>2012-08-09T08:04:11Z</time>
      </trkpt>
      <trkpt lat="45.27577" lon="6.07842">
        <ele>1173.9069824219</ele>
        <time>2012-08-09T08:04:13Z</time>
      </trkpt>
      <trkpt lat="45.27575" lon="6.07847">
        <ele>1176.3103027344</ele>
        <time>2012-08-09T08:04:16Z</time>
      </trkpt>
      <trkpt lat="45.27573" lon="6.07854">
        <ele>1180.1557617188</ele>
        <time>2012-08-09T08:04:19Z</time>
      </trkpt>
      <trkpt lat="45.27569" lon="6.07858">
        <ele>1184.9624023438</ele>
        <time>2012-08-09T08:04:23Z</time>
      </trkpt>
      <trkpt lat="45.27565" lon="6.07858">
        <ele>1179.1940917969</ele>
        <time>2012-08-09T08:04:29Z</time>
      </trkpt>
      <trkpt lat="45.27559" lon="6.07861">
        <ele>1172.9458007812</ele>
        <time>2012-08-09T08:04:35Z</time>
      </trkpt>
      <trkpt lat="45.27558" lon="6.07863">
        <ele>1172.9458007812</ele>
        <time>2012-08-09T08:04:37Z</time>
      </trkpt>
      <trkpt lat="45.27558" lon="6.07871">
        <ele>1169.1005859375</ele>
        <time>2012-08-09T08:04:41Z</time>
      </trkpt>
      <trkpt lat="45.27557" lon="6.07873">
        <ele>1163.8129882812</ele>
        <time>2012-08-09T08:04:44Z</time>
      </trkpt>
      <trkpt lat="45.27555" lon="6.07876">
        <ele>1164.2939453125</ele>
        <time>2012-08-09T08:04:46Z</time>
      </trkpt>
      <trkpt lat="45.27549" lon="6.07891">
        <ele>1173.9069824219</ele>
        <time>2012-08-09T08:04:53Z</time>
      </trkpt>
      <trkpt lat="45.27543" lon="6.07896">
        <ele>1173.9069824219</ele>
        <time>2012-08-09T08:04:59Z</time>
      </trkpt>
      <trkpt lat="45.27539" lon="6.07898">
        <ele>1170.5424804688</ele>
        <time>2012-08-09T08:05:03Z</time>
      </trkpt>
      <trkpt lat="45.27539" lon="6.079">
        <ele>1167.6584472656</ele>
        <time>2012-08-09T08:05:05Z</time>
      </trkpt>
      <trkpt lat="45.27532" lon="6.07907">
        <ele>1164.7746582031</ele>
        <time>2012-08-09T08:05:13Z</time>
      </trkpt>
      <trkpt lat="45.27527" lon="6.07912">
        <ele>1165.2553710938</ele>
        <time>2012-08-09T08:05:18Z</time>
      </trkpt>
      <trkpt lat="45.27523" lon="6.0791">
        <ele>1164.2939453125</ele>
        <time>2012-08-09T08:05:22Z</time>
      </trkpt>
      <trkpt lat="45.2751" lon="6.07916">
        <ele>1156.6032714844</ele>
        <time>2012-08-09T08:05:32Z</time>
      </trkpt>
      <trkpt lat="45.27507" lon="6.07921">
        <ele>1156.6032714844</ele>
        <time>2012-08-09T08:05:37Z</time>
      </trkpt>
      <trkpt lat="45.27502" lon="6.07925">
        <ele>1159.4873046875</ele>
        <time>2012-08-09T08:05:42Z</time>
      </trkpt>
      <trkpt lat="45.27492" lon="6.0793">
        <ele>1159.0065917969</ele>
        <time>2012-08-09T08:05:49Z</time>
      </trkpt>
      <trkpt lat="45.27487" lon="6.07934">
        <ele>1161.4099121094</ele>
        <time>2012-08-09T08:05:53Z</time>
      </trkpt>
      <trkpt lat="45.2748" lon="6.07934">
        <ele>1164.2939453125</ele>
        <time>2012-08-09T08:05:58Z</time>
      </trkpt>
      <trkpt lat="45.27473" lon="6.07935">
        <ele>1170.5424804688</ele>
        <time>2012-08-09T08:06:03Z</time>
      </trkpt>
      <trkpt lat="45.2747" lon="6.07935">
        <ele>1166.697265625</ele>
        <time>2012-08-09T08:06:07Z</time>
      </trkpt>
      <trkpt lat="45.2746" lon="6.07936">
        <ele>1168.1391601562</ele>
        <time>2012-08-09T08:06:13Z</time>
      </trkpt>
      <trkpt lat="45.27458" lon="6.07938">
        <ele>1169.1005859375</ele>
        <time>2012-08-09T08:06:16Z</time>
      </trkpt>
      <trkpt lat="45.27452" lon="6.07942">
        <ele>1171.0231933594</ele>
        <time>2012-08-09T08:06:20Z</time>
      </trkpt>
      <trkpt lat="45.2745" lon="6.07942">
        <ele>1169.1005859375</ele>
        <time>2012-08-09T08:06:22Z</time>
      </trkpt>
      <trkpt lat="45.27444" lon="6.07943">
        <ele>1164.2939453125</ele>
        <time>2012-08-09T08:06:26Z</time>
      </trkpt>
      <trkpt lat="45.27438" lon="6.07944">
        <ele>1160.4484863281</ele>
        <time>2012-08-09T08:06:31Z</time>
      </trkpt>
      <trkpt lat="45.27431" lon="6.07946">
        <ele>1166.2165527344</ele>
        <time>2012-08-09T08:06:36Z</time>
      </trkpt>
      <trkpt lat="45.27423" lon="6.07947">
        <ele>1172.4650878906</ele>
        <time>2012-08-09T08:06:42Z</time>
      </trkpt>
      <trkpt lat="45.27419" lon="6.07949">
        <ele>1177.2717285156</ele>
        <time>2012-08-09T08:06:46Z</time>
      </trkpt>
      <trkpt lat="45.27416" lon="6.07948">
        <ele>1179.6748046875</ele>
        <time>2012-08-09T08:06:50Z</time>
      </trkpt>
      <trkpt lat="45.27409" lon="6.07947">
        <ele>1178.2329101562</ele>
        <time>2012-08-09T08:06:55Z</time>
      </trkpt>
      <trkpt lat="45.27403" lon="6.07953">
        <ele>1190.2495117188</ele>
        <time>2012-08-09T08:07:01Z</time>
      </trkpt>
      <trkpt lat="45.274" lon="6.07958">
        <ele>1205.1499023438</ele>
        <time>2012-08-09T08:07:06Z</time>
      </trkpt>
      <trkpt lat="45.27395" lon="6.07961">
        <ele>1214.7631835938</ele>
        <time>2012-08-09T08:07:12Z</time>
      </trkpt>
      <trkpt lat="45.27393" lon="6.07965">
        <ele>1220.5310058594</ele>
        <time>2012-08-09T08:07:18Z</time>
      </trkpt>
      <trkpt lat="45.27385" lon="6.07964">
        <ele>1215.2438964844</ele>
        <time>2012-08-09T08:07:23Z</time>
      </trkpt>
      <trkpt lat="45.27374" lon="6.07973">
        <ele>1228.7023925781</ele>
        <time>2012-08-09T08:07:35Z</time>
      </trkpt>
      <trkpt lat="45.27363" lon="6.07971">
        <ele>1227.7407226562</ele>
        <time>2012-08-09T08:07:42Z</time>
      </trkpt>
      <trkpt lat="45.27349" lon="6.0797">
        <ele>1222.4536132812</ele>
        <time>2012-08-09T08:07:49Z</time>
      </trkpt>
      <trkpt lat="45.27341" lon="6.07974">
        <ele>1223.4150390625</ele>
        <time>2012-08-09T08:07:55Z</time>
      </trkpt>
      <trkpt lat="45.27339" lon="6.07975">
        <ele>1219.5698242188</ele>
        <time>2012-08-09T08:08:00Z</time>
      </trkpt>
      <trkpt lat="45.27337" lon="6.07975">
        <ele>1218.1276855469</ele>
        <time>2012-08-09T08:08:01Z</time>
      </trkpt>
      <trkpt lat="45.27328" lon="6.07975">
        <ele>1213.8017578125</ele>
        <time>2012-08-09T08:08:05Z</time>
      </trkpt>
      <trkpt lat="45.27319" lon="6.07976">
        <ele>1209.9562988281</ele>
        <time>2012-08-09T08:08:10Z</time>
      </trkpt>
      <trkpt lat="45.27306" lon="6.07977">
        <ele>1207.0725097656</ele>
        <time>2012-08-09T08:08:17Z</time>
      </trkpt>
      <trkpt lat="45.27301" lon="6.07975">
        <ele>1204.1887207031</ele>
        <time>2012-08-09T08:08:21Z</time>
      </trkpt>
      <trkpt lat="45.27301" lon="6.07977">
        <ele>1198.4206542969</ele>
        <time>2012-08-09T08:08:26Z</time>
      </trkpt>
      <trkpt lat="45.273" lon="6.07977">
        <ele>1196.9787597656</ele>
        <time>2012-08-09T08:08:31Z</time>
      </trkpt>
      <trkpt lat="45.27299" lon="6.07983">
        <ele>1190.7299804688</ele>
        <time>2012-08-09T08:08:47Z</time>
      </trkpt>
      <trkpt lat="45.27296" lon="6.07997">
        <ele>1193.6140136719</ele>
        <time>2012-08-09T08:08:57Z</time>
      </trkpt>
      <trkpt lat="45.27292" lon="6.08">
        <ele>1191.69140625</ele>
        <time>2012-08-09T08:09:06Z</time>
      </trkpt>
      <trkpt lat="45.27288" lon="6.08003">
        <ele>1194.5751953125</ele>
        <time>2012-08-09T08:09:10Z</time>
      </trkpt>
      <trkpt lat="45.27288" lon="6.08004">
        <ele>1195.5366210938</ele>
        <time>2012-08-09T08:09:11Z</time>
      </trkpt>
      <trkpt lat="45.27285" lon="6.08008">
        <ele>1201.7854003906</ele>
        <time>2012-08-09T08:09:16Z</time>
      </trkpt>
      <trkpt lat="45.27293" lon="6.08026">
        <ele>1210.9177246094</ele>
        <time>2012-08-09T08:09:58Z</time>
      </trkpt>
      <trkpt lat="45.27297" lon="6.08022">
        <ele>1209.4758300781</ele>
        <time>2012-08-09T08:10:02Z</time>
      </trkpt>
      <trkpt lat="45.27299" lon="6.08019">
        <ele>1207.5532226562</ele>
        <time>2012-08-09T08:10:05Z</time>
      </trkpt>
      <trkpt lat="45.27302" lon="6.08022">
        <ele>1202.2658691406</ele>
        <time>2012-08-09T08:10:08Z</time>
      </trkpt>
      <trkpt lat="45.27307" lon="6.08025">
        <ele>1196.4982910156</ele>
        <time>2012-08-09T08:10:14Z</time>
      </trkpt>
      <trkpt lat="45.27309" lon="6.08024">
        <ele>1196.017578125</ele>
        <time>2012-08-09T08:10:18Z</time>
      </trkpt>
      <trkpt lat="45.27317" lon="6.08025">
        <ele>1192.1721191406</ele>
        <time>2012-08-09T08:10:24Z</time>
      </trkpt>
      <trkpt lat="45.27322" lon="6.08029">
        <ele>1189.7687988281</ele>
        <time>2012-08-09T08:10:29Z</time>
      </trkpt>
      <trkpt lat="45.27329" lon="6.08031">
        <ele>1185.9235839844</ele>
        <time>2012-08-09T08:10:34Z</time>
      </trkpt>
      <trkpt lat="45.27335" lon="6.08033">
        <ele>1184.0009765625</ele>
        <time>2012-08-09T08:10:39Z</time>
      </trkpt>
      <trkpt lat="45.27341" lon="6.08037">
        <ele>1182.0783691406</ele>
        <time>2012-08-09T08:10:44Z</time>
      </trkpt>
      <trkpt lat="45.27346" lon="6.08042">
        <ele>1182.5590820312</ele>
        <time>2012-08-09T08:10:48Z</time>
      </trkpt>
      <trkpt lat="45.27349" lon="6.08042">
        <ele>1184.0009765625</ele>
        <time>2012-08-09T08:10:50Z</time>
      </trkpt>
      <trkpt lat="45.27355" lon="6.08043">
        <ele>1184.0009765625</ele>
        <time>2012-08-09T08:10:53Z</time>
      </trkpt>
      <trkpt lat="45.27364" lon="6.0805">
        <ele>1184.9624023438</ele>
        <time>2012-08-09T08:11:01Z</time>
      </trkpt>
      <trkpt lat="45.27367" lon="6.08054">
        <ele>1180.6364746094</ele>
        <time>2012-08-09T08:11:07Z</time>
      </trkpt>
      <trkpt lat="45.2737" lon="6.08056">
        <ele>1178.7136230469</ele>
        <time>2012-08-09T08:11:09Z</time>
      </trkpt>
      <trkpt lat="45.27373" lon="6.08055">
        <ele>1177.7521972656</ele>
        <time>2012-08-09T08:11:12Z</time>
      </trkpt>
      <trkpt lat="45.27378" lon="6.0805">
        <ele>1176.791015625</ele>
        <time>2012-08-09T08:11:18Z</time>
      </trkpt>
      <trkpt lat="45.27381" lon="6.08049">
        <ele>1178.2329101562</ele>
        <time>2012-08-09T08:11:20Z</time>
      </trkpt>
      <trkpt lat="45.27388" lon="6.08047">
        <ele>1179.6748046875</ele>
        <time>2012-08-09T08:11:25Z</time>
      </trkpt>
      <trkpt lat="45.27392" lon="6.08049">
        <ele>1177.7521972656</ele>
        <time>2012-08-09T08:11:30Z</time>
      </trkpt>
      <trkpt lat="45.27398" lon="6.08056">
        <ele>1178.7136230469</ele>
        <time>2012-08-09T08:11:41Z</time>
      </trkpt>
      <trkpt lat="45.27399" lon="6.08059">
        <ele>1177.7521972656</ele>
        <time>2012-08-09T08:11:46Z</time>
      </trkpt>
      <trkpt lat="45.27401" lon="6.08057">
        <ele>1176.3103027344</ele>
        <time>2012-08-09T08:11:52Z</time>
      </trkpt>
      <trkpt lat="45.27404" lon="6.08056">
        <ele>1177.7521972656</ele>
        <time>2012-08-09T08:11:55Z</time>
      </trkpt>
      <trkpt lat="45.27407" lon="6.0805">
        <ele>1178.2329101562</ele>
        <time>2012-08-09T08:11:59Z</time>
      </trkpt>
      <trkpt lat="45.27408" lon="6.08041">
        <ele>1179.6748046875</ele>
        <time>2012-08-09T08:12:02Z</time>
      </trkpt>
      <trkpt lat="45.27412" lon="6.0803">
        <ele>1184.9624023438</ele>
        <time>2012-08-09T08:12:07Z</time>
      </trkpt>
      <trkpt lat="45.27417" lon="6.08033">
        <ele>1180.6364746094</ele>
        <time>2012-08-09T08:12:10Z</time>
      </trkpt>
      <trkpt lat="45.27426" lon="6.08033">
        <ele>1177.2717285156</ele>
        <time>2012-08-09T08:12:15Z</time>
      </trkpt>
      <trkpt lat="45.27429" lon="6.08032">
        <ele>1175.8295898438</ele>
        <time>2012-08-09T08:12:17Z</time>
      </trkpt>
      <trkpt lat="45.27438" lon="6.08034">
        <ele>1173.9069824219</ele>
        <time>2012-08-09T08:12:24Z</time>
      </trkpt>
      <trkpt lat="45.27444" lon="6.08034">
        <ele>1173.4265136719</ele>
        <time>2012-08-09T08:12:29Z</time>
      </trkpt>
      <trkpt lat="45.27453" lon="6.0803">
        <ele>1173.4265136719</ele>
        <time>2012-08-09T08:12:35Z</time>
      </trkpt>
      <trkpt lat="45.27459" lon="6.08021">
        <ele>1177.2717285156</ele>
        <time>2012-08-09T08:12:40Z</time>
      </trkpt>
      <trkpt lat="45.27464" lon="6.08015">
        <ele>1180.1557617188</ele>
        <time>2012-08-09T08:12:46Z</time>
      </trkpt>
      <trkpt lat="45.27468" lon="6.0801">
        <ele>1181.59765625</ele>
        <time>2012-08-09T08:12:50Z</time>
      </trkpt>
      <trkpt lat="45.27468" lon="6.08009">
        <ele>1181.59765625</ele>
        <time>2012-08-09T08:12:51Z</time>
      </trkpt>
      <trkpt lat="45.27475" lon="6.07999">
        <ele>1184.4816894531</ele>
        <time>2012-08-09T08:12:58Z</time>
      </trkpt>
      <trkpt lat="45.27483" lon="6.07985">
        <ele>1190.7299804688</ele>
        <time>2012-08-09T08:13:06Z</time>
      </trkpt>
      <trkpt lat="45.27484" lon="6.07976">
        <ele>1197.4594726562</ele>
        <time>2012-08-09T08:13:09Z</time>
      </trkpt>
      <trkpt lat="45.27492" lon="6.07971">
        <ele>1196.4982910156</ele>
        <time>2012-08-09T08:13:16Z</time>
      </trkpt>
      <trkpt lat="45.27495" lon="6.07971">
        <ele>1193.6140136719</ele>
        <time>2012-08-09T08:13:18Z</time>
      </trkpt>
      <trkpt lat="45.27502" lon="6.07974">
        <ele>1188.8076171875</ele>
        <time>2012-08-09T08:13:22Z</time>
      </trkpt>
      <trkpt lat="45.2751" lon="6.07976">
        <ele>1184.4816894531</ele>
        <time>2012-08-09T08:13:27Z</time>
      </trkpt>
      <trkpt lat="45.27518" lon="6.07979">
        <ele>1183.0395507812</ele>
        <time>2012-08-09T08:13:33Z</time>
      </trkpt>
      <trkpt lat="45.27529" lon="6.0798">
        <ele>1182.5590820312</ele>
        <time>2012-08-09T08:13:39Z</time>
      </trkpt>
      <trkpt lat="45.27537" lon="6.07981">
        <ele>1184.9624023438</ele>
        <time>2012-08-09T08:13:44Z</time>
      </trkpt>
      <trkpt lat="45.27547" lon="6.07978">
        <ele>1185.9235839844</ele>
        <time>2012-08-09T08:13:50Z</time>
      </trkpt>
      <trkpt lat="45.27558" lon="6.07976">
        <ele>1185.4428710938</ele>
        <time>2012-08-09T08:13:57Z</time>
      </trkpt>
      <trkpt lat="45.27565" lon="6.07973">
        <ele>1185.4428710938</ele>
        <time>2012-08-09T08:14:01Z</time>
      </trkpt>
      <trkpt lat="45.27573" lon="6.07969">
        <ele>1184.4816894531</ele>
        <time>2012-08-09T08:14:05Z</time>
      </trkpt>
      <trkpt lat="45.27578" lon="6.07964">
        <ele>1184.0009765625</ele>
        <time>2012-08-09T08:14:10Z</time>
      </trkpt>
      <trkpt lat="45.27586" lon="6.07963">
        <ele>1181.1171875</ele>
        <time>2012-08-09T08:14:15Z</time>
      </trkpt>
      <trkpt lat="45.27591" lon="6.07963">
        <ele>1178.7136230469</ele>
        <time>2012-08-09T08:14:19Z</time>
      </trkpt>
      <trkpt lat="45.27604" lon="6.07957">
        <ele>1178.2329101562</ele>
        <time>2012-08-09T08:14:29Z</time>
      </trkpt>
      <trkpt lat="45.27609" lon="6.07956">
        <ele>1177.2717285156</ele>
        <time>2012-08-09T08:14:34Z</time>
      </trkpt>
      <trkpt lat="45.2762" lon="6.07952">
        <ele>1176.3103027344</ele>
        <time>2012-08-09T08:14:43Z</time>
      </trkpt>
      <trkpt lat="45.27622" lon="6.07953">
        <ele>1175.8295898438</ele>
        <time>2012-08-09T08:14:45Z</time>
      </trkpt>
      <trkpt lat="45.27634" lon="6.07949">
        <ele>1175.3488769531</ele>
        <time>2012-08-09T08:14:54Z</time>
      </trkpt>
      <trkpt lat="45.27644" lon="6.07952">
        <ele>1172.9458007812</ele>
        <time>2012-08-09T08:15:02Z</time>
      </trkpt>
      <trkpt lat="45.27652" lon="6.07955">
        <ele>1172.4650878906</ele>
        <time>2012-08-09T08:15:09Z</time>
      </trkpt>
      <trkpt lat="45.27654" lon="6.07953">
        <ele>1173.9069824219</ele>
        <time>2012-08-09T08:15:12Z</time>
      </trkpt>
      <trkpt lat="45.27657" lon="6.07955">
        <ele>1177.2717285156</ele>
        <time>2012-08-09T08:15:19Z</time>
      </trkpt>
      <trkpt lat="45.2766" lon="6.07955">
        <ele>1180.1557617188</ele>
        <time>2012-08-09T08:15:25Z</time>
      </trkpt>
      <trkpt lat="45.27663" lon="6.07945">
        <ele>1182.0783691406</ele>
        <time>2012-08-09T08:15:31Z</time>
      </trkpt>
      <trkpt lat="45.27669" lon="6.07942">
        <ele>1176.791015625</ele>
        <time>2012-08-09T08:15:36Z</time>
      </trkpt>
      <trkpt lat="45.27672" lon="6.07942">
        <ele>1175.3488769531</ele>
        <time>2012-08-09T08:15:38Z</time>
      </trkpt>
      <trkpt lat="45.27683" lon="6.07942">
        <ele>1168.1391601562</ele>
        <time>2012-08-09T08:15:44Z</time>
      </trkpt>
      <trkpt lat="45.27689" lon="6.07946">
        <ele>1163.3325195312</ele>
        <time>2012-08-09T08:15:49Z</time>
      </trkpt>
      <trkpt lat="45.27691" lon="6.07947">
        <ele>1163.3325195312</ele>
        <time>2012-08-09T08:15:50Z</time>
      </trkpt>
      <trkpt lat="45.277" lon="6.07948">
        <ele>1159.4873046875</ele>
        <time>2012-08-09T08:15:57Z</time>
      </trkpt>
      <trkpt lat="45.27703" lon="6.07949">
        <ele>1159.9677734375</ele>
        <time>2012-08-09T08:16:00Z</time>
      </trkpt>
      <trkpt lat="45.27706" lon="6.07948">
        <ele>1162.37109375</ele>
        <time>2012-08-09T08:16:08Z</time>
      </trkpt>
      <trkpt lat="45.27711" lon="6.07948">
        <ele>1161.890625</ele>
        <time>2012-08-09T08:16:13Z</time>
      </trkpt>
      <trkpt lat="45.27713" lon="6.07948">
        <ele>1160.9291992188</ele>
        <time>2012-08-09T08:16:14Z</time>
      </trkpt>
      <trkpt lat="45.2772" lon="6.07952">
        <ele>1159.0065917969</ele>
        <time>2012-08-09T08:16:20Z</time>
      </trkpt>
      <trkpt lat="45.27725" lon="6.07952">
        <ele>1157.5646972656</ele>
        <time>2012-08-09T08:16:26Z</time>
      </trkpt>
      <trkpt lat="45.27727" lon="6.07952">
        <ele>1157.5646972656</ele>
        <time>2012-08-09T08:16:27Z</time>
      </trkpt>
      <trkpt lat="45.27739" lon="6.07949">
        <ele>1160.4484863281</ele>
        <time>2012-08-09T08:16:32Z</time>
      </trkpt>
      <trkpt lat="45.27746" lon="6.07944">
        <ele>1164.2939453125</ele>
        <time>2012-08-09T08:16:37Z</time>
      </trkpt>
      <trkpt lat="45.27752" lon="6.07943">
        <ele>1167.1779785156</ele>
        <time>2012-08-09T08:16:41Z</time>
      </trkpt>
      <trkpt lat="45.2776" lon="6.0794">
        <ele>1168.1391601562</ele>
        <time>2012-08-09T08:16:46Z</time>
      </trkpt>
      <trkpt lat="45.27766" lon="6.07942">
        <ele>1169.5812988281</ele>
        <time>2012-08-09T08:16:52Z</time>
      </trkpt>
      <trkpt lat="45.2777" lon="6.07939">
        <ele>1169.5812988281</ele>
        <time>2012-08-09T08:16:58Z</time>
      </trkpt>
      <trkpt lat="45.27771" lon="6.07939">
        <ele>1170.0617675781</ele>
        <time>2012-08-09T08:16:59Z</time>
      </trkpt>
      <trkpt lat="45.27776" lon="6.07937">
        <ele>1169.1005859375</ele>
        <time>2012-08-09T08:17:03Z</time>
      </trkpt>
      <trkpt lat="45.2778" lon="6.07935">
        <ele>1169.1005859375</ele>
        <time>2012-08-09T08:17:06Z</time>
      </trkpt>
      <trkpt lat="45.27789" lon="6.07936">
        <ele>1167.1779785156</ele>
        <time>2012-08-09T08:17:13Z</time>
      </trkpt>
      <trkpt lat="45.27794" lon="6.07935">
        <ele>1168.1391601562</ele>
        <time>2012-08-09T08:17:16Z</time>
      </trkpt>
      <trkpt lat="45.27805" lon="6.0794">
        <ele>1165.2553710938</ele>
        <time>2012-08-09T08:17:21Z</time>
      </trkpt>
      <trkpt lat="45.27816" lon="6.07948">
        <ele>1160.4484863281</ele>
        <time>2012-08-09T08:17:25Z</time>
      </trkpt>
      <trkpt lat="45.27824" lon="6.07954">
        <ele>1157.5646972656</ele>
        <time>2012-08-09T08:17:30Z</time>
      </trkpt>
      <trkpt lat="45.27828" lon="6.07954">
        <ele>1159.0065917969</ele>
        <time>2012-08-09T08:17:32Z</time>
      </trkpt>
      <trkpt lat="45.27836" lon="6.07952">
        <ele>1159.9677734375</ele>
        <time>2012-08-09T08:17:36Z</time>
      </trkpt>
      <trkpt lat="45.27846" lon="6.0795">
        <ele>1161.890625</ele>
        <time>2012-08-09T08:17:43Z</time>
      </trkpt>
      <trkpt lat="45.27851" lon="6.07947">
        <ele>1162.8518066406</ele>
        <time>2012-08-09T08:17:47Z</time>
      </trkpt>
      <trkpt lat="45.27862" lon="6.07943">
        <ele>1163.3325195312</ele>
        <time>2012-08-09T08:17:53Z</time>
      </trkpt>
      <trkpt lat="45.27868" lon="6.07942">
        <ele>1161.890625</ele>
        <time>2012-08-09T08:17:57Z</time>
      </trkpt>
      <trkpt lat="45.27869" lon="6.07942">
        <ele>1161.4099121094</ele>
        <time>2012-08-09T08:17:58Z</time>
      </trkpt>
      <trkpt lat="45.27879" lon="6.07944">
        <ele>1155.6420898438</ele>
        <time>2012-08-09T08:18:03Z</time>
      </trkpt>
      <trkpt lat="45.27885" lon="6.07944">
        <ele>1152.27734375</ele>
        <time>2012-08-09T08:18:07Z</time>
      </trkpt>
      <trkpt lat="45.27888" lon="6.07945">
        <ele>1150.3549804688</ele>
        <time>2012-08-09T08:18:09Z</time>
      </trkpt>
      <trkpt lat="45.27898" lon="6.07944">
        <ele>1144.1062011719</ele>
        <time>2012-08-09T08:18:17Z</time>
      </trkpt>
      <trkpt lat="45.279" lon="6.07944">
        <ele>1143.6254882812</ele>
        <time>2012-08-09T08:18:18Z</time>
      </trkpt>
      <trkpt lat="45.27908" lon="6.07939">
        <ele>1139.2995605469</ele>
        <time>2012-08-09T08:18:23Z</time>
      </trkpt>
      <trkpt lat="45.27911" lon="6.07929">
        <ele>1134.9738769531</ele>
        <time>2012-08-09T08:18:28Z</time>
      </trkpt>
      <trkpt lat="45.27911" lon="6.07914">
        <ele>1131.6088867188</ele>
        <time>2012-08-09T08:18:35Z</time>
      </trkpt>
      <trkpt lat="45.27913" lon="6.07904">
        <ele>1128.7250976562</ele>
        <time>2012-08-09T08:18:39Z</time>
      </trkpt>
      <trkpt lat="45.27913" lon="6.07901">
        <ele>1127.283203125</ele>
        <time>2012-08-09T08:18:40Z</time>
      </trkpt>
      <trkpt lat="45.27913" lon="6.07897">
        <ele>1124.3991699219</ele>
        <time>2012-08-09T08:18:42Z</time>
      </trkpt>
      <trkpt lat="45.27915" lon="6.07891">
        <ele>1123.9184570312</ele>
        <time>2012-08-09T08:18:47Z</time>
      </trkpt>
      <trkpt lat="45.27916" lon="6.07891">
        <ele>1124.3991699219</ele>
        <time>2012-08-09T08:18:49Z</time>
      </trkpt>
      <trkpt lat="45.27918" lon="6.07888">
        <ele>1123.9184570312</ele>
        <time>2012-08-09T08:18:56Z</time>
      </trkpt>
      <trkpt lat="45.27921" lon="6.07888">
        <ele>1124.3991699219</ele>
        <time>2012-08-09T08:19:01Z</time>
      </trkpt>
      <trkpt lat="45.27925" lon="6.0789">
        <ele>1124.8798828125</ele>
        <time>2012-08-09T08:19:08Z</time>
      </trkpt>
      <trkpt lat="45.27924" lon="6.07888">
        <ele>1125.3603515625</ele>
        <time>2012-08-09T08:19:14Z</time>
      </trkpt>
      <trkpt lat="45.27917" lon="6.07889">
        <ele>1124.3991699219</ele>
        <time>2012-08-09T08:19:21Z</time>
      </trkpt>
      <trkpt lat="45.27908" lon="6.07887">
        <ele>1125.3603515625</ele>
        <time>2012-08-09T08:19:29Z</time>
      </trkpt>
      <trkpt lat="45.27898" lon="6.07882">
        <ele>1125.3603515625</ele>
        <time>2012-08-09T08:19:38Z</time>
      </trkpt>
      <trkpt lat="45.27888" lon="6.07875">
        <ele>1125.3603515625</ele>
        <time>2012-08-09T08:19:47Z</time>
      </trkpt>
      <trkpt lat="45.27879" lon="6.07869">
        <ele>1127.283203125</ele>
        <time>2012-08-09T08:19:55Z</time>
      </trkpt>
      <trkpt lat="45.27871" lon="6.07861">
        <ele>1128.2443847656</ele>
        <time>2012-08-09T08:20:03Z</time>
      </trkpt>
      <trkpt lat="45.27866" lon="6.0785">
        <ele>1128.7250976562</ele>
        <time>2012-08-09T08:20:11Z</time>
      </trkpt>
      <trkpt lat="45.27866" lon="6.07848">
        <ele>1128.2443847656</ele>
        <time>2012-08-09T08:20:12Z</time>
      </trkpt>
      <trkpt lat="45.27862" lon="6.07844">
        <ele>1128.2443847656</ele>
        <time>2012-08-09T08:20:16Z</time>
      </trkpt>
      <trkpt lat="45.27858" lon="6.0784">
        <ele>1128.7250976562</ele>
        <time>2012-08-09T08:20:20Z</time>
      </trkpt>
      <trkpt lat="45.27857" lon="6.0784">
        <ele>1128.2443847656</ele>
        <time>2012-08-09T08:20:25Z</time>
      </trkpt>
      <trkpt lat="45.2787" lon="6.07869">
        <ele>1126.8024902344</ele>
        <time>2012-08-09T08:20:54Z</time>
      </trkpt>
      <trkpt lat="45.27849" lon="6.07841">
        <ele>1127.283203125</ele>
        <time>2012-08-09T08:20:59Z</time>
      </trkpt>
      <trkpt lat="45.27844" lon="6.07836">
        <ele>1126.3217773438</ele>
        <time>2012-08-09T08:21:06Z</time>
      </trkpt>
      <trkpt lat="45.27839" lon="6.07834">
        <ele>1127.283203125</ele>
        <time>2012-08-09T08:21:12Z</time>
      </trkpt>
      <trkpt lat="45.27837" lon="6.07831">
        <ele>1127.763671875</ele>
        <time>2012-08-09T08:21:14Z</time>
      </trkpt>
      <trkpt lat="45.27835" lon="6.07827">
        <ele>1128.2443847656</ele>
        <time>2012-08-09T08:21:17Z</time>
      </trkpt>
      <trkpt lat="45.27835" lon="6.07823">
        <ele>1128.7250976562</ele>
        <time>2012-08-09T08:21:25Z</time>
      </trkpt>
      <trkpt lat="45.27837" lon="6.07818">
        <ele>1128.7250976562</ele>
        <time>2012-08-09T08:21:28Z</time>
      </trkpt>
      <trkpt lat="45.27844" lon="6.07802">
        <ele>1130.1669921875</ele>
        <time>2012-08-09T08:21:38Z</time>
      </trkpt>
      <trkpt lat="45.27847" lon="6.07789">
        <ele>1130.6477050781</ele>
        <time>2012-08-09T08:21:46Z</time>
      </trkpt>
      <trkpt lat="45.27848" lon="6.07788">
        <ele>1130.1669921875</ele>
        <time>2012-08-09T08:21:54Z</time>
      </trkpt>
      <trkpt lat="45.27848" lon="6.07789">
        <ele>1128.7250976562</ele>
        <time>2012-08-09T08:22:01Z</time>
      </trkpt>
      <trkpt lat="45.27848" lon="6.07788">
        <ele>1127.763671875</ele>
        <time>2012-08-09T08:22:10Z</time>
      </trkpt>
      <trkpt lat="45.27848" lon="6.07789">
        <ele>1126.8024902344</ele>
        <time>2012-08-09T08:22:21Z</time>
      </trkpt>
      <trkpt lat="45.27848" lon="6.07789">
        <ele>1126.3217773438</ele>
        <time>2012-08-09T08:22:34Z</time>
      </trkpt>
      <trkpt lat="45.27849" lon="6.07791">
        <ele>1126.3217773438</ele>
        <time>2012-08-09T08:22:37Z</time>
      </trkpt>
      <trkpt lat="45.27853" lon="6.07793">
        <ele>1125.3603515625</ele>
        <time>2012-08-09T08:22:41Z</time>
      </trkpt>
      <trkpt lat="45.2786" lon="6.0779">
        <ele>1125.3603515625</ele>
        <time>2012-08-09T08:22:46Z</time>
      </trkpt>
      <trkpt lat="45.27867" lon="6.07798">
        <ele>1123.4379882812</ele>
        <time>2012-08-09T08:22:53Z</time>
      </trkpt>
      <trkpt lat="45.27868" lon="6.07809">
        <ele>1122.9572753906</ele>
        <time>2012-08-09T08:22:59Z</time>
      </trkpt>
      <trkpt lat="45.2787" lon="6.07815">
        <ele>1122.4765625</ele>
        <time>2012-08-09T08:23:02Z</time>
      </trkpt>
      <trkpt lat="45.27869" lon="6.0783">
        <ele>1121.9958496094</ele>
        <time>2012-08-09T08:23:10Z</time>
      </trkpt>
      <trkpt lat="45.27867" lon="6.07843">
        <ele>1122.4765625</ele>
        <time>2012-08-09T08:23:17Z</time>
      </trkpt>
      <trkpt lat="45.27868" lon="6.07856">
        <ele>1122.4765625</ele>
        <time>2012-08-09T08:23:24Z</time>
      </trkpt>
      <trkpt lat="45.27875" lon="6.07863">
        <ele>1122.4765625</ele>
        <time>2012-08-09T08:23:31Z</time>
      </trkpt>
      <trkpt lat="45.27882" lon="6.07871">
        <ele>1121.5151367188</ele>
        <time>2012-08-09T08:23:37Z</time>
      </trkpt>
      <trkpt lat="45.27891" lon="6.07879">
        <ele>1122.9572753906</ele>
        <time>2012-08-09T08:23:44Z</time>
      </trkpt>
      <trkpt lat="45.27898" lon="6.07885">
        <ele>1122.9572753906</ele>
        <time>2012-08-09T08:23:50Z</time>
      </trkpt>
      <trkpt lat="45.27911" lon="6.0789">
        <ele>1121.5151367188</ele>
        <time>2012-08-09T08:24:00Z</time>
      </trkpt>
      <trkpt lat="45.27925" lon="6.07894">
        <ele>1119.1120605469</ele>
        <time>2012-08-09T08:24:10Z</time>
      </trkpt>
      <trkpt lat="45.27935" lon="6.07894">
        <ele>1117.189453125</ele>
        <time>2012-08-09T08:24:18Z</time>
      </trkpt>
      <trkpt lat="45.27938" lon="6.07889">
        <ele>1120.0732421875</ele>
        <time>2012-08-09T08:24:24Z</time>
      </trkpt>
      <trkpt lat="45.2794" lon="6.0789">
        <ele>1121.5151367188</ele>
        <time>2012-08-09T08:24:31Z</time>
      </trkpt>
      <trkpt lat="45.27941" lon="6.07887">
        <ele>1128.2443847656</ele>
        <time>2012-08-09T08:24:50Z</time>
      </trkpt>
      <trkpt lat="45.27942" lon="6.07883">
        <ele>1127.763671875</ele>
        <time>2012-08-09T08:25:08Z</time>
      </trkpt>
      <trkpt lat="45.27944" lon="6.07881">
        <ele>1125.8410644531</ele>
        <time>2012-08-09T08:25:10Z</time>
      </trkpt>
      <trkpt lat="45.27946" lon="6.0788">
        <ele>1123.9184570312</ele>
        <time>2012-08-09T08:25:12Z</time>
      </trkpt>
      <trkpt lat="45.27954" lon="6.07877">
        <ele>1120.5539550781</ele>
        <time>2012-08-09T08:25:18Z</time>
      </trkpt>
      <trkpt lat="45.27959" lon="6.07876">
        <ele>1118.6313476562</ele>
        <time>2012-08-09T08:25:22Z</time>
      </trkpt>
      <trkpt lat="45.27967" lon="6.07871">
        <ele>1114.7858886719</ele>
        <time>2012-08-09T08:25:29Z</time>
      </trkpt>
      <trkpt lat="45.27974" lon="6.07856">
        <ele>1114.7858886719</ele>
        <time>2012-08-09T08:25:38Z</time>
      </trkpt>
      <trkpt lat="45.2798" lon="6.07846">
        <ele>1113.8244628906</ele>
        <time>2012-08-09T08:25:45Z</time>
      </trkpt>
      <trkpt lat="45.27986" lon="6.07839">
        <ele>1109.9792480469</ele>
        <time>2012-08-09T08:25:52Z</time>
      </trkpt>
      <trkpt lat="45.27996" lon="6.07832">
        <ele>1110.9406738281</ele>
        <time>2012-08-09T08:26:00Z</time>
      </trkpt>
      <trkpt lat="45.28006" lon="6.07827">
        <ele>1109.9792480469</ele>
        <time>2012-08-09T08:26:07Z</time>
      </trkpt>
      <trkpt lat="45.28017" lon="6.07821">
        <ele>1108.0568847656</ele>
        <time>2012-08-09T08:26:16Z</time>
      </trkpt>
      <trkpt lat="45.28024" lon="6.07819">
        <ele>1107.576171875</ele>
        <time>2012-08-09T08:26:22Z</time>
      </trkpt>
      <trkpt lat="45.28034" lon="6.07814">
        <ele>1106.6147460938</ele>
        <time>2012-08-09T08:26:29Z</time>
      </trkpt>
      <trkpt lat="45.28037" lon="6.07812">
        <ele>1106.1340332031</ele>
        <time>2012-08-09T08:26:33Z</time>
      </trkpt>
      <trkpt lat="45.28049" lon="6.07808">
        <ele>1103.2502441406</ele>
        <time>2012-08-09T08:26:41Z</time>
      </trkpt>
      <trkpt lat="45.28054" lon="6.07804">
        <ele>1101.3276367188</ele>
        <time>2012-08-09T08:26:45Z</time>
      </trkpt>
      <trkpt lat="45.28066" lon="6.07799">
        <ele>1099.8854980469</ele>
        <time>2012-08-09T08:26:53Z</time>
      </trkpt>
      <trkpt lat="45.28075" lon="6.07789">
        <ele>1096.5209960938</ele>
        <time>2012-08-09T08:27:01Z</time>
      </trkpt>
      <trkpt lat="45.2808" lon="6.07779">
        <ele>1096.5209960938</ele>
        <time>2012-08-09T08:27:06Z</time>
      </trkpt>
      <trkpt lat="45.28084" lon="6.07767">
        <ele>1097.4821777344</ele>
        <time>2012-08-09T08:27:11Z</time>
      </trkpt>
      <trkpt lat="45.28087" lon="6.07759">
        <ele>1097.0014648438</ele>
        <time>2012-08-09T08:27:15Z</time>
      </trkpt>
      <trkpt lat="45.28094" lon="6.07749">
        <ele>1095.0788574219</ele>
        <time>2012-08-09T08:27:22Z</time>
      </trkpt>
      <trkpt lat="45.281" lon="6.07745">
        <ele>1093.15625</ele>
        <time>2012-08-09T08:27:26Z</time>
      </trkpt>
      <trkpt lat="45.28109" lon="6.07747">
        <ele>1093.15625</ele>
        <time>2012-08-09T08:27:33Z</time>
      </trkpt>
      <trkpt lat="45.28115" lon="6.07758">
        <ele>1091.7143554688</ele>
        <time>2012-08-09T08:27:39Z</time>
      </trkpt>
      <trkpt lat="45.28119" lon="6.07765">
        <ele>1091.2336425781</ele>
        <time>2012-08-09T08:27:43Z</time>
      </trkpt>
      <trkpt lat="45.28128" lon="6.07779">
        <ele>1090.7529296875</ele>
        <time>2012-08-09T08:27:52Z</time>
      </trkpt>
      <trkpt lat="45.28137" lon="6.07782">
        <ele>1089.7917480469</ele>
        <time>2012-08-09T08:27:58Z</time>
      </trkpt>
      <trkpt lat="45.28146" lon="6.07778">
        <ele>1088.3498535156</ele>
        <time>2012-08-09T08:28:03Z</time>
      </trkpt>
      <trkpt lat="45.28154" lon="6.07777">
        <ele>1086.4272460938</ele>
        <time>2012-08-09T08:28:07Z</time>
      </trkpt>
      <trkpt lat="45.28162" lon="6.07778">
        <ele>1084.5046386719</ele>
        <time>2012-08-09T08:28:11Z</time>
      </trkpt>
      <trkpt lat="45.28171" lon="6.07783">
        <ele>1083.54296875</ele>
        <time>2012-08-09T08:28:16Z</time>
      </trkpt>
      <trkpt lat="45.28172" lon="6.07784">
        <ele>1084.5046386719</ele>
        <time>2012-08-09T08:28:17Z</time>
      </trkpt>
      <trkpt lat="45.28176" lon="6.07785">
        <ele>1084.9853515625</ele>
        <time>2012-08-09T08:28:20Z</time>
      </trkpt>
      <trkpt lat="45.28183" lon="6.07795">
        <ele>1083.54296875</ele>
        <time>2012-08-09T08:28:25Z</time>
      </trkpt>
      <trkpt lat="45.28184" lon="6.07797">
        <ele>1083.0622558594</ele>
        <time>2012-08-09T08:28:26Z</time>
      </trkpt>
      <trkpt lat="45.28193" lon="6.07804">
        <ele>1082.5817871094</ele>
        <time>2012-08-09T08:28:32Z</time>
      </trkpt>
      <trkpt lat="45.28195" lon="6.07809">
        <ele>1081.6203613281</ele>
        <time>2012-08-09T08:28:35Z</time>
      </trkpt>
      <trkpt lat="45.28197" lon="6.07821">
        <ele>1080.1784667969</ele>
        <time>2012-08-09T08:28:39Z</time>
      </trkpt>
      <trkpt lat="45.282" lon="6.07827">
        <ele>1079.6977539062</ele>
        <time>2012-08-09T08:28:41Z</time>
      </trkpt>
      <trkpt lat="45.28209" lon="6.07837">
        <ele>1077.2946777344</ele>
        <time>2012-08-09T08:28:47Z</time>
      </trkpt>
      <trkpt lat="45.2821" lon="6.07838">
        <ele>1077.2946777344</ele>
        <time>2012-08-09T08:28:48Z</time>
      </trkpt>
      <trkpt lat="45.28222" lon="6.07841">
        <ele>1076.8139648438</ele>
        <time>2012-08-09T08:28:53Z</time>
      </trkpt>
      <trkpt lat="45.28226" lon="6.07842">
        <ele>1076.3332519531</ele>
        <time>2012-08-09T08:28:55Z</time>
      </trkpt>
      <trkpt lat="45.28236" lon="6.07843">
        <ele>1075.8525390625</ele>
        <time>2012-08-09T08:29:00Z</time>
      </trkpt>
      <trkpt lat="45.2824" lon="6.07843">
        <ele>1075.3718261719</ele>
        <time>2012-08-09T08:29:02Z</time>
      </trkpt>
      <trkpt lat="45.28252" lon="6.07838">
        <ele>1072.4880371094</ele>
        <time>2012-08-09T08:29:08Z</time>
      </trkpt>
      <trkpt lat="45.28254" lon="6.07836">
        <ele>1072.0073242188</ele>
        <time>2012-08-09T08:29:09Z</time>
      </trkpt>
      <trkpt lat="45.28268" lon="6.07831">
        <ele>1071.5266113281</ele>
        <time>2012-08-09T08:29:15Z</time>
      </trkpt>
      <trkpt lat="45.28277" lon="6.07829">
        <ele>1072.4880371094</ele>
        <time>2012-08-09T08:29:19Z</time>
      </trkpt>
      <trkpt lat="45.28287" lon="6.07827">
        <ele>1073.4494628906</ele>
        <time>2012-08-09T08:29:24Z</time>
      </trkpt>
      <trkpt lat="45.28297" lon="6.07818">
        <ele>1079.2170410156</ele>
        <time>2012-08-09T08:29:28Z</time>
      </trkpt>
      <trkpt lat="45.28307" lon="6.07813">
        <ele>1079.2170410156</ele>
        <time>2012-08-09T08:29:33Z</time>
      </trkpt>
      <trkpt lat="45.28312" lon="6.07811">
        <ele>1080.1784667969</ele>
        <time>2012-08-09T08:29:35Z</time>
      </trkpt>
      <trkpt lat="45.28327" lon="6.07806">
        <ele>1078.7365722656</ele>
        <time>2012-08-09T08:29:42Z</time>
      </trkpt>
      <trkpt lat="45.28337" lon="6.07801">
        <ele>1078.255859375</ele>
        <time>2012-08-09T08:29:47Z</time>
      </trkpt>
      <trkpt lat="45.28341" lon="6.078">
        <ele>1077.7751464844</ele>
        <time>2012-08-09T08:29:49Z</time>
      </trkpt>
      <trkpt lat="45.28348" lon="6.07796">
        <ele>1078.7365722656</ele>
        <time>2012-08-09T08:29:54Z</time>
      </trkpt>
      <trkpt lat="45.28358" lon="6.07795">
        <ele>1079.6977539062</ele>
        <time>2012-08-09T08:29:59Z</time>
      </trkpt>
      <trkpt lat="45.28366" lon="6.07792">
        <ele>1082.5817871094</ele>
        <time>2012-08-09T08:30:03Z</time>
      </trkpt>
      <trkpt lat="45.28374" lon="6.07793">
        <ele>1083.0622558594</ele>
        <time>2012-08-09T08:30:07Z</time>
      </trkpt>
      <trkpt lat="45.28387" lon="6.07789">
        <ele>1095.0788574219</ele>
        <time>2012-08-09T08:30:13Z</time>
      </trkpt>
      <trkpt lat="45.28396" lon="6.07788">
        <ele>1102.76953125</ele>
        <time>2012-08-09T08:30:18Z</time>
      </trkpt>
      <trkpt lat="45.284" lon="6.07786">
        <ele>1106.1340332031</ele>
        <time>2012-08-09T08:30:20Z</time>
      </trkpt>
      <trkpt lat="45.28409" lon="6.07783">
        <ele>1114.7858886719</ele>
        <time>2012-08-09T08:30:25Z</time>
      </trkpt>
      <trkpt lat="45.28415" lon="6.07786">
        <ele>1116.7087402344</ele>
        <time>2012-08-09T08:30:28Z</time>
      </trkpt>
      <trkpt lat="45.2843" lon="6.07783">
        <ele>1114.7858886719</ele>
        <time>2012-08-09T08:30:34Z</time>
      </trkpt>
      <trkpt lat="45.28436" lon="6.07782">
        <ele>1115.7473144531</ele>
        <time>2012-08-09T08:30:36Z</time>
      </trkpt>
      <trkpt lat="45.28442" lon="6.07779">
        <ele>1118.1506347656</ele>
        <time>2012-08-09T08:30:39Z</time>
      </trkpt>
      <trkpt lat="45.28453" lon="6.07776">
        <ele>1113.3439941406</ele>
        <time>2012-08-09T08:30:44Z</time>
      </trkpt>
      <trkpt lat="45.28463" lon="6.07775">
        <ele>1106.6147460938</ele>
        <time>2012-08-09T08:30:48Z</time>
      </trkpt>
      <trkpt lat="45.28479" lon="6.07769">
        <ele>1084.0239257812</ele>
        <time>2012-08-09T08:30:56Z</time>
      </trkpt>
      <trkpt lat="45.28487" lon="6.07766">
        <ele>1072.96875</ele>
        <time>2012-08-09T08:31:00Z</time>
      </trkpt>
      <trkpt lat="45.28489" lon="6.07764">
        <ele>1071.0461425781</ele>
        <time>2012-08-09T08:31:01Z</time>
      </trkpt>
      <trkpt lat="45.28502" lon="6.07755">
        <ele>1064.7973632812</ele>
        <time>2012-08-09T08:31:06Z</time>
      </trkpt>
      <trkpt lat="45.28512" lon="6.07747">
        <ele>1063.35546875</ele>
        <time>2012-08-09T08:31:12Z</time>
      </trkpt>
      <trkpt lat="45.28522" lon="6.0774">
        <ele>1067.6811523438</ele>
        <time>2012-08-09T08:31:17Z</time>
      </trkpt>
      <trkpt lat="45.28535" lon="6.07738">
        <ele>1066.2392578125</ele>
        <time>2012-08-09T08:31:22Z</time>
      </trkpt>
      <trkpt lat="45.28547" lon="6.07734">
        <ele>1070.0847167969</ele>
        <time>2012-08-09T08:31:27Z</time>
      </trkpt>
      <trkpt lat="45.2856" lon="6.07727">
        <ele>1077.2946777344</ele>
        <time>2012-08-09T08:31:33Z</time>
      </trkpt>
      <trkpt lat="45.28564" lon="6.07719">
        <ele>1089.3110351562</ele>
        <time>2012-08-09T08:31:36Z</time>
      </trkpt>
      <trkpt lat="45.28573" lon="6.07721">
        <ele>1087.869140625</ele>
        <time>2012-08-09T08:31:40Z</time>
      </trkpt>
      <trkpt lat="45.28582" lon="6.07732">
        <ele>1080.1784667969</ele>
        <time>2012-08-09T08:31:45Z</time>
      </trkpt>
      <trkpt lat="45.2859" lon="6.07737">
        <ele>1077.2946777344</ele>
        <time>2012-08-09T08:31:50Z</time>
      </trkpt>
      <trkpt lat="45.28592" lon="6.07738">
        <ele>1075.8525390625</ele>
        <time>2012-08-09T08:31:51Z</time>
      </trkpt>
      <trkpt lat="45.28604" lon="6.07747">
        <ele>1069.6042480469</ele>
        <time>2012-08-09T08:31:57Z</time>
      </trkpt>
      <trkpt lat="45.28617" lon="6.07752">
        <ele>1069.1235351562</ele>
        <time>2012-08-09T08:32:03Z</time>
      </trkpt>
      <trkpt lat="45.28625" lon="6.07757">
        <ele>1066.2392578125</ele>
        <time>2012-08-09T08:32:07Z</time>
      </trkpt>
      <trkpt lat="45.28633" lon="6.0776">
        <ele>1066.2392578125</ele>
        <time>2012-08-09T08:32:11Z</time>
      </trkpt>
      <trkpt lat="45.28647" lon="6.07763">
        <ele>1064.3166503906</ele>
        <time>2012-08-09T08:32:17Z</time>
      </trkpt>
      <trkpt lat="45.28651" lon="6.07765">
        <ele>1063.8359375</ele>
        <time>2012-08-09T08:32:19Z</time>
      </trkpt>
      <trkpt lat="45.28666" lon="6.07764">
        <ele>1062.3940429688</ele>
        <time>2012-08-09T08:32:25Z</time>
      </trkpt>
      <trkpt lat="45.28675" lon="6.07761">
        <ele>1061.9135742188</ele>
        <time>2012-08-09T08:32:29Z</time>
      </trkpt>
      <trkpt lat="45.28682" lon="6.07761">
        <ele>1064.7973632812</ele>
        <time>2012-08-09T08:32:33Z</time>
      </trkpt>
      <trkpt lat="45.2869" lon="6.07755">
        <ele>1066.7199707031</ele>
        <time>2012-08-09T08:32:38Z</time>
      </trkpt>
      <trkpt lat="45.28692" lon="6.07753">
        <ele>1066.7199707031</ele>
        <time>2012-08-09T08:32:39Z</time>
      </trkpt>
      <trkpt lat="45.28704" lon="6.0775">
        <ele>1058.548828125</ele>
        <time>2012-08-09T08:32:46Z</time>
      </trkpt>
      <trkpt lat="45.28707" lon="6.07748">
        <ele>1057.1069335938</ele>
        <time>2012-08-09T08:32:48Z</time>
      </trkpt>
      <trkpt lat="45.28716" lon="6.07739">
        <ele>1053.26171875</ele>
        <time>2012-08-09T08:32:54Z</time>
      </trkpt>
      <trkpt lat="45.28726" lon="6.0773">
        <ele>1053.26171875</ele>
        <time>2012-08-09T08:32:59Z</time>
      </trkpt>
      <trkpt lat="45.28738" lon="6.07722">
        <ele>1053.7424316406</ele>
        <time>2012-08-09T08:33:04Z</time>
      </trkpt>
      <trkpt lat="45.2875" lon="6.07715">
        <ele>1052.3002929688</ele>
        <time>2012-08-09T08:33:10Z</time>
      </trkpt>
      <trkpt lat="45.28758" lon="6.07709">
        <ele>1052.7810058594</ele>
        <time>2012-08-09T08:33:14Z</time>
      </trkpt>
      <trkpt lat="45.2877" lon="6.07699">
        <ele>1053.7424316406</ele>
        <time>2012-08-09T08:33:20Z</time>
      </trkpt>
      <trkpt lat="45.2878" lon="6.07691">
        <ele>1053.7424316406</ele>
        <time>2012-08-09T08:33:25Z</time>
      </trkpt>
      <trkpt lat="45.28789" lon="6.07685">
        <ele>1054.2231445312</ele>
        <time>2012-08-09T08:33:29Z</time>
      </trkpt>
      <trkpt lat="45.28801" lon="6.07679">
        <ele>1052.7810058594</ele>
        <time>2012-08-09T08:33:34Z</time>
      </trkpt>
      <trkpt lat="45.2881" lon="6.07679">
        <ele>1051.3388671875</ele>
        <time>2012-08-09T08:33:38Z</time>
      </trkpt>
      <trkpt lat="45.28821" lon="6.07682">
        <ele>1047.9743652344</ele>
        <time>2012-08-09T08:33:42Z</time>
      </trkpt>
      <trkpt lat="45.28831" lon="6.07692">
        <ele>1045.0903320312</ele>
        <time>2012-08-09T08:33:47Z</time>
      </trkpt>
      <trkpt lat="45.28845" lon="6.07699">
        <ele>1042.2065429688</ele>
        <time>2012-08-09T08:33:54Z</time>
      </trkpt>
      <trkpt lat="45.28856" lon="6.07702">
        <ele>1044.6096191406</ele>
        <time>2012-08-09T08:34:02Z</time>
      </trkpt>
      <trkpt lat="45.28863" lon="6.07707">
        <ele>1045.0903320312</ele>
        <time>2012-08-09T08:34:08Z</time>
      </trkpt>
      <trkpt lat="45.28867" lon="6.0771">
        <ele>1045.0903320312</ele>
        <time>2012-08-09T08:34:11Z</time>
      </trkpt>
      <trkpt lat="45.28873" lon="6.07717">
        <ele>1045.0903320312</ele>
        <time>2012-08-09T08:34:17Z</time>
      </trkpt>
      <trkpt lat="45.28876" lon="6.07725">
        <ele>1045.5710449219</ele>
        <time>2012-08-09T08:34:22Z</time>
      </trkpt>
      <trkpt lat="45.28878" lon="6.07728">
        <ele>1046.5324707031</ele>
        <time>2012-08-09T08:34:24Z</time>
      </trkpt>
      <trkpt lat="45.28881" lon="6.07735">
        <ele>1047.9743652344</ele>
        <time>2012-08-09T08:34:28Z</time>
      </trkpt>
      <trkpt lat="45.28884" lon="6.07745">
        <ele>1049.8969726562</ele>
        <time>2012-08-09T08:34:34Z</time>
      </trkpt>
      <trkpt lat="45.28888" lon="6.07751">
        <ele>1049.8969726562</ele>
        <time>2012-08-09T08:34:39Z</time>
      </trkpt>
      <trkpt lat="45.28891" lon="6.07757">
        <ele>1051.3388671875</ele>
        <time>2012-08-09T08:34:44Z</time>
      </trkpt>
      <trkpt lat="45.28893" lon="6.07759">
        <ele>1052.3002929688</ele>
        <time>2012-08-09T08:34:46Z</time>
      </trkpt>
      <trkpt lat="45.28899" lon="6.07768">
        <ele>1054.2231445312</ele>
        <time>2012-08-09T08:34:54Z</time>
      </trkpt>
      <trkpt lat="45.28902" lon="6.07775">
        <ele>1056.1455078125</ele>
        <time>2012-08-09T08:34:58Z</time>
      </trkpt>
      <trkpt lat="45.28907" lon="6.07783">
        <ele>1057.1069335938</ele>
        <time>2012-08-09T08:35:04Z</time>
      </trkpt>
      <trkpt lat="45.28911" lon="6.07789">
        <ele>1058.548828125</ele>
        <time>2012-08-09T08:35:09Z</time>
      </trkpt>
      <trkpt lat="45.28917" lon="6.07794">
        <ele>1058.548828125</ele>
        <time>2012-08-09T08:35:15Z</time>
      </trkpt>
      <trkpt lat="45.28921" lon="6.07804">
        <ele>1059.0295410156</ele>
        <time>2012-08-09T08:35:21Z</time>
      </trkpt>
      <trkpt lat="45.28923" lon="6.07808">
        <ele>1059.5102539062</ele>
        <time>2012-08-09T08:35:23Z</time>
      </trkpt>
      <trkpt lat="45.28923" lon="6.07812">
        <ele>1063.35546875</ele>
        <time>2012-08-09T08:35:27Z</time>
      </trkpt>
      <trkpt lat="45.28925" lon="6.07825">
        <ele>1070.5654296875</ele>
        <time>2012-08-09T08:35:35Z</time>
      </trkpt>
      <trkpt lat="45.28928" lon="6.07832">
        <ele>1070.0847167969</ele>
        <time>2012-08-09T08:35:40Z</time>
      </trkpt>
      <trkpt lat="45.28932" lon="6.07837">
        <ele>1071.0461425781</ele>
        <time>2012-08-09T08:35:43Z</time>
      </trkpt>
      <trkpt lat="45.28935" lon="6.07842">
        <ele>1072.96875</ele>
        <time>2012-08-09T08:35:48Z</time>
      </trkpt>
      <trkpt lat="45.28937" lon="6.07846">
        <ele>1074.4106445312</ele>
        <time>2012-08-09T08:35:53Z</time>
      </trkpt>
      <trkpt lat="45.28941" lon="6.0785">
        <ele>1072.96875</ele>
        <time>2012-08-09T08:35:57Z</time>
      </trkpt>
      <trkpt lat="45.28949" lon="6.07858">
        <ele>1067.2006835938</ele>
        <time>2012-08-09T08:36:03Z</time>
      </trkpt>
      <trkpt lat="45.28948" lon="6.0787">
        <ele>1066.2392578125</ele>
        <time>2012-08-09T08:36:09Z</time>
      </trkpt>
      <trkpt lat="45.28949" lon="6.07877">
        <ele>1067.6811523438</ele>
        <time>2012-08-09T08:36:12Z</time>
      </trkpt>
      <trkpt lat="45.28948" lon="6.07885">
        <ele>1070.0847167969</ele>
        <time>2012-08-09T08:36:16Z</time>
      </trkpt>
      <trkpt lat="45.28948" lon="6.07895">
        <ele>1072.96875</ele>
        <time>2012-08-09T08:36:22Z</time>
      </trkpt>
      <trkpt lat="45.28949" lon="6.079">
        <ele>1072.4880371094</ele>
        <time>2012-08-09T08:36:25Z</time>
      </trkpt>
      <trkpt lat="45.28949" lon="6.07905">
        <ele>1078.7365722656</ele>
        <time>2012-08-09T08:36:30Z</time>
      </trkpt>
      <trkpt lat="45.28959" lon="6.07911">
        <ele>1078.255859375</ele>
        <time>2012-08-09T08:36:37Z</time>
      </trkpt>
      <trkpt lat="45.28963" lon="6.07918">
        <ele>1076.8139648438</ele>
        <time>2012-08-09T08:36:41Z</time>
      </trkpt>
      <trkpt lat="45.2897" lon="6.07924">
        <ele>1076.3332519531</ele>
        <time>2012-08-09T08:36:46Z</time>
      </trkpt>
      <trkpt lat="45.28977" lon="6.07938">
        <ele>1076.3332519531</ele>
        <time>2012-08-09T08:36:54Z</time>
      </trkpt>
      <trkpt lat="45.28985" lon="6.07951">
        <ele>1073.4494628906</ele>
        <time>2012-08-09T08:37:02Z</time>
      </trkpt>
      <trkpt lat="45.28984" lon="6.0796">
        <ele>1074.4106445312</ele>
        <time>2012-08-09T08:37:06Z</time>
      </trkpt>
      <trkpt lat="45.28983" lon="6.07967">
        <ele>1074.8913574219</ele>
        <time>2012-08-09T08:37:10Z</time>
      </trkpt>
      <trkpt lat="45.28982" lon="6.0798">
        <ele>1072.0073242188</ele>
        <time>2012-08-09T08:37:16Z</time>
      </trkpt>
      <trkpt lat="45.28986" lon="6.07986">
        <ele>1072.96875</ele>
        <time>2012-08-09T08:37:20Z</time>
      </trkpt>
      <trkpt lat="45.28991" lon="6.07994">
        <ele>1070.0847167969</ele>
        <time>2012-08-09T08:37:24Z</time>
      </trkpt>
      <trkpt lat="45.28999" lon="6.08005">
        <ele>1069.1235351562</ele>
        <time>2012-08-09T08:37:29Z</time>
      </trkpt>
      <trkpt lat="45.29002" lon="6.08012">
        <ele>1068.162109375</ele>
        <time>2012-08-09T08:37:31Z</time>
      </trkpt>
      <trkpt lat="45.29012" lon="6.08017">
        <ele>1068.162109375</ele>
        <time>2012-08-09T08:37:35Z</time>
      </trkpt>
      <trkpt lat="45.2902" lon="6.08018">
        <ele>1072.96875</ele>
        <time>2012-08-09T08:37:39Z</time>
      </trkpt>
      <trkpt lat="45.29027" lon="6.0802">
        <ele>1078.7365722656</ele>
        <time>2012-08-09T08:37:43Z</time>
      </trkpt>
      <trkpt lat="45.29033" lon="6.08017">
        <ele>1082.5817871094</ele>
        <time>2012-08-09T08:37:47Z</time>
      </trkpt>
      <trkpt lat="45.29046" lon="6.08021">
        <ele>1076.3332519531</ele>
        <time>2012-08-09T08:37:52Z</time>
      </trkpt>
      <trkpt lat="45.29052" lon="6.08022">
        <ele>1074.4106445312</ele>
        <time>2012-08-09T08:37:54Z</time>
      </trkpt>
      <trkpt lat="45.29055" lon="6.08025">
        <ele>1070.5654296875</ele>
        <time>2012-08-09T08:37:56Z</time>
      </trkpt>
      <trkpt lat="45.29063" lon="6.08031">
        <ele>1070.0847167969</ele>
        <time>2012-08-09T08:38:01Z</time>
      </trkpt>
      <trkpt lat="45.29071" lon="6.08031">
        <ele>1070.5654296875</ele>
        <time>2012-08-09T08:38:07Z</time>
      </trkpt>
      <trkpt lat="45.29081" lon="6.08035">
        <ele>1070.0847167969</ele>
        <time>2012-08-09T08:38:12Z</time>
      </trkpt>
      <trkpt lat="45.29085" lon="6.08036">
        <ele>1071.5266113281</ele>
        <time>2012-08-09T08:38:14Z</time>
      </trkpt>
      <trkpt lat="45.29096" lon="6.08035">
        <ele>1071.5266113281</ele>
        <time>2012-08-09T08:38:19Z</time>
      </trkpt>
      <trkpt lat="45.29104" lon="6.08036">
        <ele>1069.6042480469</ele>
        <time>2012-08-09T08:38:23Z</time>
      </trkpt>
      <trkpt lat="45.29114" lon="6.08036">
        <ele>1070.0847167969</ele>
        <time>2012-08-09T08:38:28Z</time>
      </trkpt>
      <trkpt lat="45.29116" lon="6.08035">
        <ele>1070.5654296875</ele>
        <time>2012-08-09T08:38:29Z</time>
      </trkpt>
      <trkpt lat="45.29127" lon="6.08036">
        <ele>1068.162109375</ele>
        <time>2012-08-09T08:38:35Z</time>
      </trkpt>
      <trkpt lat="45.29134" lon="6.08036">
        <ele>1064.3166503906</ele>
        <time>2012-08-09T08:38:40Z</time>
      </trkpt>
      <trkpt lat="45.29143" lon="6.08029">
        <ele>1067.2006835938</ele>
        <time>2012-08-09T08:38:47Z</time>
      </trkpt>
      <trkpt lat="45.29151" lon="6.08022">
        <ele>1068.162109375</ele>
        <time>2012-08-09T08:38:53Z</time>
      </trkpt>
      <trkpt lat="45.29158" lon="6.08014">
        <ele>1065.7587890625</ele>
        <time>2012-08-09T08:38:58Z</time>
      </trkpt>
      <trkpt lat="45.29168" lon="6.0801">
        <ele>1057.5876464844</ele>
        <time>2012-08-09T08:39:05Z</time>
      </trkpt>
      <trkpt lat="45.29172" lon="6.08004">
        <ele>1055.6650390625</ele>
        <time>2012-08-09T08:39:09Z</time>
      </trkpt>
      <trkpt lat="45.29176" lon="6.08001">
        <ele>1050.3776855469</ele>
        <time>2012-08-09T08:39:12Z</time>
      </trkpt>
      <trkpt lat="45.29181" lon="6.07992">
        <ele>1051.3388671875</ele>
        <time>2012-08-09T08:39:17Z</time>
      </trkpt>
      <trkpt lat="45.29184" lon="6.07986">
        <ele>1051.3388671875</ele>
        <time>2012-08-09T08:39:20Z</time>
      </trkpt>
      <trkpt lat="45.29193" lon="6.07981">
        <ele>1050.3776855469</ele>
        <time>2012-08-09T08:39:26Z</time>
      </trkpt>
      <trkpt lat="45.29198" lon="6.0798">
        <ele>1049.4162597656</ele>
        <time>2012-08-09T08:39:28Z</time>
      </trkpt>
      <trkpt lat="45.2921" lon="6.07979">
        <ele>1048.935546875</ele>
        <time>2012-08-09T08:39:33Z</time>
      </trkpt>
      <trkpt lat="45.29219" lon="6.07978">
        <ele>1049.4162597656</ele>
        <time>2012-08-09T08:39:37Z</time>
      </trkpt>
      <trkpt lat="45.2923" lon="6.07979">
        <ele>1049.4162597656</ele>
        <time>2012-08-09T08:39:41Z</time>
      </trkpt>
      <trkpt lat="45.2924" lon="6.07981">
        <ele>1046.0517578125</ele>
        <time>2012-08-09T08:39:46Z</time>
      </trkpt>
      <trkpt lat="45.29247" lon="6.07982">
        <ele>1045.5710449219</ele>
        <time>2012-08-09T08:39:50Z</time>
      </trkpt>
      <trkpt lat="45.29256" lon="6.07984">
        <ele>1044.6096191406</ele>
        <time>2012-08-09T08:39:55Z</time>
      </trkpt>
      <trkpt lat="45.29266" lon="6.07983">
        <ele>1045.5710449219</ele>
        <time>2012-08-09T08:40:00Z</time>
      </trkpt>
      <trkpt lat="45.29272" lon="6.07983">
        <ele>1043.6484375</ele>
        <time>2012-08-09T08:40:04Z</time>
      </trkpt>
      <trkpt lat="45.29281" lon="6.07984">
        <ele>1037.3999023438</ele>
        <time>2012-08-09T08:40:10Z</time>
      </trkpt>
      <trkpt lat="45.29284" lon="6.07984">
        <ele>1034.9965820312</ele>
        <time>2012-08-09T08:40:12Z</time>
      </trkpt>
      <trkpt lat="45.29294" lon="6.07984">
        <ele>1029.228515625</ele>
        <time>2012-08-09T08:40:18Z</time>
      </trkpt>
      <trkpt lat="45.29307" lon="6.07983">
        <ele>1026.3447265625</ele>
        <time>2012-08-09T08:40:23Z</time>
      </trkpt>
      <trkpt lat="45.29316" lon="6.07985">
        <ele>1025.3833007812</ele>
        <time>2012-08-09T08:40:27Z</time>
      </trkpt>
      <trkpt lat="45.2932" lon="6.07985">
        <ele>1025.8640136719</ele>
        <time>2012-08-09T08:40:29Z</time>
      </trkpt>
      <trkpt lat="45.2933" lon="6.07982">
        <ele>1022.9802246094</ele>
        <time>2012-08-09T08:40:34Z</time>
      </trkpt>
      <trkpt lat="45.29334" lon="6.07985">
        <ele>1018.6540527344</ele>
        <time>2012-08-09T08:40:37Z</time>
      </trkpt>
      <trkpt lat="45.29344" lon="6.07987">
        <ele>1012.8862304688</ele>
        <time>2012-08-09T08:40:42Z</time>
      </trkpt>
      <trkpt lat="45.29354" lon="6.07987">
        <ele>1010.4829101562</ele>
        <time>2012-08-09T08:40:46Z</time>
      </trkpt>
      <trkpt lat="45.29356" lon="6.07988">
        <ele>1010.4829101562</ele>
        <time>2012-08-09T08:40:47Z</time>
      </trkpt>
      <trkpt lat="45.29367" lon="6.0799">
        <ele>1008.0798339844</ele>
        <time>2012-08-09T08:40:51Z</time>
      </trkpt>
      <trkpt lat="45.2938" lon="6.07998">
        <ele>1006.1569824219</ele>
        <time>2012-08-09T08:40:56Z</time>
      </trkpt>
      <trkpt lat="45.29389" lon="6.08006">
        <ele>1003.7536621094</ele>
        <time>2012-08-09T08:41:00Z</time>
      </trkpt>
      <trkpt lat="45.2939" lon="6.08007">
        <ele>1004.7150878906</ele>
        <time>2012-08-09T08:41:01Z</time>
      </trkpt>
      <trkpt lat="45.29403" lon="6.08019">
        <ele>1006.1569824219</ele>
        <time>2012-08-09T08:41:08Z</time>
      </trkpt>
      <trkpt lat="45.29413" lon="6.08022">
        <ele>1006.6376953125</ele>
        <time>2012-08-09T08:41:13Z</time>
      </trkpt>
      <trkpt lat="45.29417" lon="6.08021">
        <ele>1007.1184082031</ele>
        <time>2012-08-09T08:41:15Z</time>
      </trkpt>
      <trkpt lat="45.29428" lon="6.08024">
        <ele>1006.6376953125</ele>
        <time>2012-08-09T08:41:21Z</time>
      </trkpt>
      <trkpt lat="45.2944" lon="6.08027">
        <ele>1007.1184082031</ele>
        <time>2012-08-09T08:41:28Z</time>
      </trkpt>
      <trkpt lat="45.29453" lon="6.08026">
        <ele>1007.5991210938</ele>
        <time>2012-08-09T08:41:35Z</time>
      </trkpt>
      <trkpt lat="45.29463" lon="6.08026">
        <ele>1006.6376953125</ele>
        <time>2012-08-09T08:41:42Z</time>
      </trkpt>
      <trkpt lat="45.29467" lon="6.08025">
        <ele>1005.6765136719</ele>
        <time>2012-08-09T08:41:45Z</time>
      </trkpt>
      <trkpt lat="45.29473" lon="6.08021">
        <ele>1007.1184082031</ele>
        <time>2012-08-09T08:41:50Z</time>
      </trkpt>
      <trkpt lat="45.29478" lon="6.08019">
        <ele>1008.5603027344</ele>
        <time>2012-08-09T08:41:56Z</time>
      </trkpt>
      <trkpt lat="45.29478" lon="6.08018">
        <ele>1010.4829101562</ele>
        <time>2012-08-09T08:42:09Z</time>
      </trkpt>
      <trkpt lat="45.29482" lon="6.08015">
        <ele>1013.8474121094</ele>
        <time>2012-08-09T08:42:19Z</time>
      </trkpt>
      <trkpt lat="45.2949" lon="6.08014">
        <ele>1014.8088378906</ele>
        <time>2012-08-09T08:42:26Z</time>
      </trkpt>
      <trkpt lat="45.295" lon="6.08015">
        <ele>1015.2895507812</ele>
        <time>2012-08-09T08:42:34Z</time>
      </trkpt>
      <trkpt lat="45.2951" lon="6.08015">
        <ele>1014.8088378906</ele>
        <time>2012-08-09T08:42:42Z</time>
      </trkpt>
      <trkpt lat="45.29519" lon="6.08016">
        <ele>1013.3669433594</ele>
        <time>2012-08-09T08:42:48Z</time>
      </trkpt>
      <trkpt lat="45.2953" lon="6.08015">
        <ele>1011.9250488281</ele>
        <time>2012-08-09T08:42:57Z</time>
      </trkpt>
      <trkpt lat="45.29542" lon="6.08011">
        <ele>1012.4055175781</ele>
        <time>2012-08-09T08:43:06Z</time>
      </trkpt>
      <trkpt lat="45.29549" lon="6.08009">
        <ele>1011.9250488281</ele>
        <time>2012-08-09T08:43:12Z</time>
      </trkpt>
      <trkpt lat="45.29558" lon="6.08">
        <ele>1017.2121582031</ele>
        <time>2012-08-09T08:43:19Z</time>
      </trkpt>
      <trkpt lat="45.29567" lon="6.07996">
        <ele>1016.2507324219</ele>
        <time>2012-08-09T08:43:26Z</time>
      </trkpt>
      <trkpt lat="45.29577" lon="6.07991">
        <ele>1014.8088378906</ele>
        <time>2012-08-09T08:43:34Z</time>
      </trkpt>
      <trkpt lat="45.29585" lon="6.07986">
        <ele>1013.8474121094</ele>
        <time>2012-08-09T08:43:40Z</time>
      </trkpt>
      <trkpt lat="45.29593" lon="6.07981">
        <ele>1015.7702636719</ele>
        <time>2012-08-09T08:43:46Z</time>
      </trkpt>
      <trkpt lat="45.29603" lon="6.07969">
        <ele>1020.0961914062</ele>
        <time>2012-08-09T08:43:54Z</time>
      </trkpt>
      <trkpt lat="45.29612" lon="6.07968">
        <ele>1013.3669433594</ele>
        <time>2012-08-09T08:44:00Z</time>
      </trkpt>
      <trkpt lat="45.29621" lon="6.07967">
        <ele>1007.1184082031</ele>
        <time>2012-08-09T08:44:08Z</time>
      </trkpt>
      <trkpt lat="45.29622" lon="6.07966">
        <ele>1007.5991210938</ele>
        <time>2012-08-09T08:44:09Z</time>
      </trkpt>
      <trkpt lat="45.29631" lon="6.07962">
        <ele>1007.1184082031</ele>
        <time>2012-08-09T08:44:16Z</time>
      </trkpt>
      <trkpt lat="45.29642" lon="6.07954">
        <ele>1010.4829101562</ele>
        <time>2012-08-09T08:44:23Z</time>
      </trkpt>
      <trkpt lat="45.29651" lon="6.07945">
        <ele>1014.328125</ele>
        <time>2012-08-09T08:44:30Z</time>
      </trkpt>
      <trkpt lat="45.2966" lon="6.07944">
        <ele>1011.4443359375</ele>
        <time>2012-08-09T08:44:36Z</time>
      </trkpt>
      <trkpt lat="45.29663" lon="6.07943">
        <ele>1011.9250488281</ele>
        <time>2012-08-09T08:44:38Z</time>
      </trkpt>
      <trkpt lat="45.2967" lon="6.07944">
        <ele>1010.9636230469</ele>
        <time>2012-08-09T08:44:44Z</time>
      </trkpt>
      <trkpt lat="45.29673" lon="6.07944">
        <ele>1010.0021972656</ele>
        <time>2012-08-09T08:44:46Z</time>
      </trkpt>
      <trkpt lat="45.29675" lon="6.07948">
        <ele>1008.0798339844</ele>
        <time>2012-08-09T08:44:55Z</time>
      </trkpt>
      <trkpt lat="45.29675" lon="6.07957">
        <ele>1006.6376953125</ele>
        <time>2012-08-09T08:45:00Z</time>
      </trkpt>
      <trkpt lat="45.2967" lon="6.07965">
        <ele>1005.6765136719</ele>
        <time>2012-08-09T08:45:08Z</time>
      </trkpt>
      <trkpt lat="45.29667" lon="6.07972">
        <ele>1006.1569824219</ele>
        <time>2012-08-09T08:45:14Z</time>
      </trkpt>
      <trkpt lat="45.29665" lon="6.07977">
        <ele>1005.1958007812</ele>
        <time>2012-08-09T08:45:20Z</time>
      </trkpt>
      <trkpt lat="45.29663" lon="6.07983">
        <ele>1007.1184082031</ele>
        <time>2012-08-09T08:45:25Z</time>
      </trkpt>
      <trkpt lat="45.29662" lon="6.07988">
        <ele>1008.0798339844</ele>
        <time>2012-08-09T08:45:28Z</time>
      </trkpt>
      <trkpt lat="45.29662" lon="6.07996">
        <ele>1010.0021972656</ele>
        <time>2012-08-09T08:45:33Z</time>
      </trkpt>
      <trkpt lat="45.29662" lon="6.07997">
        <ele>1011.4443359375</ele>
        <time>2012-08-09T08:45:45Z</time>
      </trkpt>
      <trkpt lat="45.29663" lon="6.08002">
        <ele>1010.9636230469</ele>
        <time>2012-08-09T08:45:51Z</time>
      </trkpt>
      <trkpt lat="45.29664" lon="6.08009">
        <ele>1011.4443359375</ele>
        <time>2012-08-09T08:45:58Z</time>
      </trkpt>
      <trkpt lat="45.29664" lon="6.08022">
        <ele>1011.9250488281</ele>
        <time>2012-08-09T08:46:06Z</time>
      </trkpt>
      <trkpt lat="45.29663" lon="6.08034">
        <ele>1011.4443359375</ele>
        <time>2012-08-09T08:46:13Z</time>
      </trkpt>
      <trkpt lat="45.29663" lon="6.08038">
        <ele>1010.9636230469</ele>
        <time>2012-08-09T08:46:16Z</time>
      </trkpt>
      <trkpt lat="45.29663" lon="6.08047">
        <ele>1010.0021972656</ele>
        <time>2012-08-09T08:46:21Z</time>
      </trkpt>
      <trkpt lat="45.29663" lon="6.08052">
        <ele>1010.0021972656</ele>
        <time>2012-08-09T08:46:24Z</time>
      </trkpt>
      <trkpt lat="45.29662" lon="6.08059">
        <ele>1010.4829101562</ele>
        <time>2012-08-09T08:46:29Z</time>
      </trkpt>
      <trkpt lat="45.29659" lon="6.08066">
        <ele>1017.6926269531</ele>
        <time>2012-08-09T08:46:36Z</time>
      </trkpt>
      <trkpt lat="45.29659" lon="6.08074">
        <ele>1020.5769042969</ele>
        <time>2012-08-09T08:46:41Z</time>
      </trkpt>
      <trkpt lat="45.29659" lon="6.08081">
        <ele>1019.134765625</ele>
        <time>2012-08-09T08:46:46Z</time>
      </trkpt>
      <trkpt lat="45.29659" lon="6.08089">
        <ele>1016.7314453125</ele>
        <time>2012-08-09T08:46:52Z</time>
      </trkpt>
      <trkpt lat="45.29657" lon="6.08097">
        <ele>1020.0961914062</ele>
        <time>2012-08-09T08:46:56Z</time>
      </trkpt>
      <trkpt lat="45.29657" lon="6.08104">
        <ele>1019.6154785156</ele>
        <time>2012-08-09T08:47:01Z</time>
      </trkpt>
      <trkpt lat="45.29655" lon="6.08112">
        <ele>1022.4995117188</ele>
        <time>2012-08-09T08:47:06Z</time>
      </trkpt>
      <trkpt lat="45.29655" lon="6.08124">
        <ele>1023.4609375</ele>
        <time>2012-08-09T08:47:12Z</time>
      </trkpt>
      <trkpt lat="45.29656" lon="6.08135">
        <ele>1021.5380859375</ele>
        <time>2012-08-09T08:47:19Z</time>
      </trkpt>
      <trkpt lat="45.29657" lon="6.08142">
        <ele>1020.0961914062</ele>
        <time>2012-08-09T08:47:24Z</time>
      </trkpt>
      <trkpt lat="45.29658" lon="6.08152">
        <ele>1021.5380859375</ele>
        <time>2012-08-09T08:47:30Z</time>
      </trkpt>
      <trkpt lat="45.2966" lon="6.08161">
        <ele>1022.0187988281</ele>
        <time>2012-08-09T08:47:36Z</time>
      </trkpt>
      <trkpt lat="45.2966" lon="6.08172">
        <ele>1023.4609375</ele>
        <time>2012-08-09T08:47:42Z</time>
      </trkpt>
      <trkpt lat="45.2966" lon="6.08178">
        <ele>1022.9802246094</ele>
        <time>2012-08-09T08:47:46Z</time>
      </trkpt>
      <trkpt lat="45.29662" lon="6.08187">
        <ele>1025.8640136719</ele>
        <time>2012-08-09T08:47:53Z</time>
      </trkpt>
      <trkpt lat="45.29663" lon="6.08194">
        <ele>1024.4221191406</ele>
        <time>2012-08-09T08:47:58Z</time>
      </trkpt>
      <trkpt lat="45.29663" lon="6.082">
        <ele>1022.0187988281</ele>
        <time>2012-08-09T08:48:02Z</time>
      </trkpt>
      <trkpt lat="45.29663" lon="6.08206">
        <ele>1021.0576171875</ele>
        <time>2012-08-09T08:48:06Z</time>
      </trkpt>
      <trkpt lat="45.29664" lon="6.08218">
        <ele>1022.4995117188</ele>
        <time>2012-08-09T08:48:14Z</time>
      </trkpt>
      <trkpt lat="45.29664" lon="6.08221">
        <ele>1022.4995117188</ele>
        <time>2012-08-09T08:48:16Z</time>
      </trkpt>
      <trkpt lat="45.29665" lon="6.08225">
        <ele>1021.0576171875</ele>
        <time>2012-08-09T08:48:19Z</time>
      </trkpt>
      <trkpt lat="45.29665" lon="6.08229">
        <ele>1020.5769042969</ele>
        <time>2012-08-09T08:48:21Z</time>
      </trkpt>
      <trkpt lat="45.29665" lon="6.08232">
        <ele>1021.5380859375</ele>
        <time>2012-08-09T08:48:23Z</time>
      </trkpt>
      <trkpt lat="45.29665" lon="6.08244">
        <ele>1023.4609375</ele>
        <time>2012-08-09T08:48:29Z</time>
      </trkpt>
      <trkpt lat="45.29664" lon="6.08249">
        <ele>1023.94140625</ele>
        <time>2012-08-09T08:48:34Z</time>
      </trkpt>
      <trkpt lat="45.29662" lon="6.08254">
        <ele>1025.8640136719</ele>
        <time>2012-08-09T08:48:37Z</time>
      </trkpt>
      <trkpt lat="45.29662" lon="6.08261">
        <ele>1027.3061523438</ele>
        <time>2012-08-09T08:48:42Z</time>
      </trkpt>
      <trkpt lat="45.29661" lon="6.08265">
        <ele>1027.7866210938</ele>
        <time>2012-08-09T08:48:44Z</time>
      </trkpt>
      <trkpt lat="45.29659" lon="6.08277">
        <ele>1028.2673339844</ele>
        <time>2012-08-09T08:48:52Z</time>
      </trkpt>
      <trkpt lat="45.29657" lon="6.08288">
        <ele>1029.7092285156</ele>
        <time>2012-08-09T08:48:59Z</time>
      </trkpt>
      <trkpt lat="45.29657" lon="6.08289">
        <ele>1029.7092285156</ele>
        <time>2012-08-09T08:49:00Z</time>
      </trkpt>
      <trkpt lat="45.29657" lon="6.08292">
        <ele>1030.1899414062</ele>
        <time>2012-08-09T08:49:02Z</time>
      </trkpt>
      <trkpt lat="45.29655" lon="6.083">
        <ele>1032.5932617188</ele>
        <time>2012-08-09T08:49:08Z</time>
      </trkpt>
      <trkpt lat="45.29654" lon="6.08308">
        <ele>1034.9965820312</ele>
        <time>2012-08-09T08:49:13Z</time>
      </trkpt>
      <trkpt lat="45.29654" lon="6.08319">
        <ele>1038.361328125</ele>
        <time>2012-08-09T08:49:20Z</time>
      </trkpt>
      <trkpt lat="45.29654" lon="6.08323">
        <ele>1038.361328125</ele>
        <time>2012-08-09T08:49:23Z</time>
      </trkpt>
      <trkpt lat="45.29654" lon="6.08327">
        <ele>1038.361328125</ele>
        <time>2012-08-09T08:49:26Z</time>
      </trkpt>
      <trkpt lat="45.29653" lon="6.0833">
        <ele>1038.8420410156</ele>
        <time>2012-08-09T08:49:28Z</time>
      </trkpt>
      <trkpt lat="45.29653" lon="6.08333">
        <ele>1038.8420410156</ele>
        <time>2012-08-09T08:49:30Z</time>
      </trkpt>
      <trkpt lat="45.29651" lon="6.08344">
        <ele>1039.3225097656</ele>
        <time>2012-08-09T08:49:37Z</time>
      </trkpt>
      <trkpt lat="45.2965" lon="6.08351">
        <ele>1040.7644042969</ele>
        <time>2012-08-09T08:49:42Z</time>
      </trkpt>
      <trkpt lat="45.2965" lon="6.08353">
        <ele>1041.2451171875</ele>
        <time>2012-08-09T08:49:43Z</time>
      </trkpt>
      <trkpt lat="45.29651" lon="6.08358">
        <ele>1042.2065429688</ele>
        <time>2012-08-09T08:49:47Z</time>
      </trkpt>
      <trkpt lat="45.29649" lon="6.08367">
        <ele>1043.6484375</ele>
        <time>2012-08-09T08:49:53Z</time>
      </trkpt>
      <trkpt lat="45.29646" lon="6.08371">
        <ele>1044.1291503906</ele>
        <time>2012-08-09T08:49:57Z</time>
      </trkpt>
      <trkpt lat="45.29646" lon="6.0838">
        <ele>1046.5324707031</ele>
        <time>2012-08-09T08:50:04Z</time>
      </trkpt>
      <trkpt lat="45.29643" lon="6.08386">
        <ele>1046.5324707031</ele>
        <time>2012-08-09T08:50:09Z</time>
      </trkpt>
      <trkpt lat="45.2964" lon="6.08391">
        <ele>1046.5324707031</ele>
        <time>2012-08-09T08:50:14Z</time>
      </trkpt>
      <trkpt lat="45.29639" lon="6.08395">
        <ele>1047.4936523438</ele>
        <time>2012-08-09T08:50:19Z</time>
      </trkpt>
      <trkpt lat="45.29638" lon="6.08399">
        <ele>1048.4548339844</ele>
        <time>2012-08-09T08:50:23Z</time>
      </trkpt>
      <trkpt lat="45.29637" lon="6.08405">
        <ele>1048.935546875</ele>
        <time>2012-08-09T08:50:28Z</time>
      </trkpt>
      <trkpt lat="45.29638" lon="6.08413">
        <ele>1049.8969726562</ele>
        <time>2012-08-09T08:50:33Z</time>
      </trkpt>
      <trkpt lat="45.29638" lon="6.08418">
        <ele>1050.3776855469</ele>
        <time>2012-08-09T08:50:36Z</time>
      </trkpt>
      <trkpt lat="45.29637" lon="6.08423">
        <ele>1051.8195800781</ele>
        <time>2012-08-09T08:50:40Z</time>
      </trkpt>
      <trkpt lat="45.29636" lon="6.08425">
        <ele>1051.8195800781</ele>
        <time>2012-08-09T08:50:42Z</time>
      </trkpt>
      <trkpt lat="45.2963" lon="6.08434">
        <ele>1051.3388671875</ele>
        <time>2012-08-09T08:50:49Z</time>
      </trkpt>
      <trkpt lat="45.29628" lon="6.08436">
        <ele>1051.3388671875</ele>
        <time>2012-08-09T08:50:51Z</time>
      </trkpt>
      <trkpt lat="45.29624" lon="6.0844">
        <ele>1051.8195800781</ele>
        <time>2012-08-09T08:50:55Z</time>
      </trkpt>
      <trkpt lat="45.29619" lon="6.08448">
        <ele>1053.7424316406</ele>
        <time>2012-08-09T08:51:01Z</time>
      </trkpt>
      <trkpt lat="45.29618" lon="6.0845">
        <ele>1056.6262207031</ele>
        <time>2012-08-09T08:51:05Z</time>
      </trkpt>
      <trkpt lat="45.29615" lon="6.08452">
        <ele>1059.5102539062</ele>
        <time>2012-08-09T08:51:11Z</time>
      </trkpt>
      <trkpt lat="45.29612" lon="6.08452">
        <ele>1061.4328613281</ele>
        <time>2012-08-09T08:51:15Z</time>
      </trkpt>
      <trkpt lat="45.29606" lon="6.08456">
        <ele>1063.35546875</ele>
        <time>2012-08-09T08:51:21Z</time>
      </trkpt>
      <trkpt lat="45.29602" lon="6.08461">
        <ele>1064.3166503906</ele>
        <time>2012-08-09T08:51:26Z</time>
      </trkpt>
      <trkpt lat="45.29602" lon="6.08462">
        <ele>1064.3166503906</ele>
        <time>2012-08-09T08:51:27Z</time>
      </trkpt>
      <trkpt lat="45.29597" lon="6.08463">
        <ele>1063.8359375</ele>
        <time>2012-08-09T08:51:32Z</time>
      </trkpt>
      <trkpt lat="45.29596" lon="6.08466">
        <ele>1063.8359375</ele>
        <time>2012-08-09T08:51:36Z</time>
      </trkpt>
      <trkpt lat="45.29595" lon="6.08468">
        <ele>1064.3166503906</ele>
        <time>2012-08-09T08:51:39Z</time>
      </trkpt>
      <trkpt lat="45.29592" lon="6.08471">
        <ele>1063.8359375</ele>
        <time>2012-08-09T08:51:44Z</time>
      </trkpt>
      <trkpt lat="45.29588" lon="6.08477">
        <ele>1064.7973632812</ele>
        <time>2012-08-09T08:51:49Z</time>
      </trkpt>
      <trkpt lat="45.29586" lon="6.0848">
        <ele>1065.2780761719</ele>
        <time>2012-08-09T08:51:51Z</time>
      </trkpt>
      <trkpt lat="45.2958" lon="6.08486">
        <ele>1067.2006835938</ele>
        <time>2012-08-09T08:51:58Z</time>
      </trkpt>
      <trkpt lat="45.29578" lon="6.08488">
        <ele>1067.2006835938</ele>
        <time>2012-08-09T08:52:00Z</time>
      </trkpt>
      <trkpt lat="45.29576" lon="6.08498">
        <ele>1069.1235351562</ele>
        <time>2012-08-09T08:52:07Z</time>
      </trkpt>
      <trkpt lat="45.29572" lon="6.08503">
        <ele>1069.6042480469</ele>
        <time>2012-08-09T08:52:13Z</time>
      </trkpt>
      <trkpt lat="45.29568" lon="6.08509">
        <ele>1072.4880371094</ele>
        <time>2012-08-09T08:52:18Z</time>
      </trkpt>
      <trkpt lat="45.29568" lon="6.08511">
        <ele>1073.9299316406</ele>
        <time>2012-08-09T08:52:22Z</time>
      </trkpt>
      <trkpt lat="45.29568" lon="6.08516">
        <ele>1075.3718261719</ele>
        <time>2012-08-09T08:52:27Z</time>
      </trkpt>
      <trkpt lat="45.29568" lon="6.08525">
        <ele>1077.2946777344</ele>
        <time>2012-08-09T08:52:34Z</time>
      </trkpt>
      <trkpt lat="45.29567" lon="6.0853">
        <ele>1078.255859375</ele>
        <time>2012-08-09T08:52:38Z</time>
      </trkpt>
      <trkpt lat="45.29567" lon="6.08534">
        <ele>1079.6977539062</ele>
        <time>2012-08-09T08:52:41Z</time>
      </trkpt>
      <trkpt lat="45.29567" lon="6.08536">
        <ele>1079.6977539062</ele>
        <time>2012-08-09T08:52:42Z</time>
      </trkpt>
      <trkpt lat="45.29566" lon="6.08542">
        <ele>1081.1398925781</ele>
        <time>2012-08-09T08:52:47Z</time>
      </trkpt>
      <trkpt lat="45.29565" lon="6.08546">
        <ele>1082.5817871094</ele>
        <time>2012-08-09T08:52:50Z</time>
      </trkpt>
      <trkpt lat="45.29564" lon="6.08548">
        <ele>1085.4658203125</ele>
        <time>2012-08-09T08:52:54Z</time>
      </trkpt>
      <trkpt lat="45.29562" lon="6.08552">
        <ele>1088.3498535156</ele>
        <time>2012-08-09T08:52:58Z</time>
      </trkpt>
      <trkpt lat="45.29561" lon="6.08555">
        <ele>1090.2724609375</ele>
        <time>2012-08-09T08:53:02Z</time>
      </trkpt>
      <trkpt lat="45.29561" lon="6.08558">
        <ele>1093.15625</ele>
        <time>2012-08-09T08:53:05Z</time>
      </trkpt>
      <trkpt lat="45.29559" lon="6.08561">
        <ele>1096.0402832031</ele>
        <time>2012-08-09T08:53:10Z</time>
      </trkpt>
      <trkpt lat="45.29559" lon="6.08564">
        <ele>1097.0014648438</ele>
        <time>2012-08-09T08:53:14Z</time>
      </trkpt>
      <trkpt lat="45.2956" lon="6.08564">
        <ele>1099.4047851562</ele>
        <time>2012-08-09T08:53:16Z</time>
      </trkpt>
      <trkpt lat="45.29561" lon="6.08568">
        <ele>1103.7309570312</ele>
        <time>2012-08-09T08:53:20Z</time>
      </trkpt>
      <trkpt lat="45.2956" lon="6.08573">
        <ele>1105.6535644531</ele>
        <time>2012-08-09T08:53:24Z</time>
      </trkpt>
      <trkpt lat="45.29559" lon="6.08578">
        <ele>1105.6535644531</ele>
        <time>2012-08-09T08:53:26Z</time>
      </trkpt>
      <trkpt lat="45.29559" lon="6.08585">
        <ele>1110.4599609375</ele>
        <time>2012-08-09T08:53:32Z</time>
      </trkpt>
      <trkpt lat="45.29557" lon="6.08587">
        <ele>1110.4599609375</ele>
        <time>2012-08-09T08:53:34Z</time>
      </trkpt>
      <trkpt lat="45.29559" lon="6.08593">
        <ele>1112.3825683594</ele>
        <time>2012-08-09T08:53:38Z</time>
      </trkpt>
      <trkpt lat="45.2956" lon="6.08596">
        <ele>1112.3825683594</ele>
        <time>2012-08-09T08:53:40Z</time>
      </trkpt>
      <trkpt lat="45.29565" lon="6.08601">
        <ele>1117.189453125</ele>
        <time>2012-08-09T08:53:45Z</time>
      </trkpt>
      <trkpt lat="45.29567" lon="6.08603">
        <ele>1117.189453125</ele>
        <time>2012-08-09T08:53:46Z</time>
      </trkpt>
      <trkpt lat="45.29567" lon="6.08609">
        <ele>1121.5151367188</ele>
        <time>2012-08-09T08:53:50Z</time>
      </trkpt>
      <trkpt lat="45.29564" lon="6.08615">
        <ele>1121.0346679688</ele>
        <time>2012-08-09T08:53:54Z</time>
      </trkpt>
      <trkpt lat="45.29557" lon="6.08618">
        <ele>1121.0346679688</ele>
        <time>2012-08-09T08:53:59Z</time>
      </trkpt>
      <trkpt lat="45.29556" lon="6.08615">
        <ele>1125.8410644531</ele>
        <time>2012-08-09T08:54:02Z</time>
      </trkpt>
      <trkpt lat="45.29554" lon="6.08617">
        <ele>1125.8410644531</ele>
        <time>2012-08-09T08:54:04Z</time>
      </trkpt>
      <trkpt lat="45.29546" lon="6.08618">
        <ele>1127.283203125</ele>
        <time>2012-08-09T08:54:09Z</time>
      </trkpt>
      <trkpt lat="45.2954" lon="6.0862">
        <ele>1128.7250976562</ele>
        <time>2012-08-09T08:54:13Z</time>
      </trkpt>
      <trkpt lat="45.29541" lon="6.08626">
        <ele>1130.6477050781</ele>
        <time>2012-08-09T08:54:17Z</time>
      </trkpt>
      <trkpt lat="45.29539" lon="6.08626">
        <ele>1137.376953125</ele>
        <time>2012-08-09T08:54:23Z</time>
      </trkpt>
      <trkpt lat="45.29537" lon="6.08628">
        <ele>1138.8190917969</ele>
        <time>2012-08-09T08:54:25Z</time>
      </trkpt>
      <trkpt lat="45.29533" lon="6.08629">
        <ele>1143.6254882812</ele>
        <time>2012-08-09T08:54:30Z</time>
      </trkpt>
      <trkpt lat="45.29528" lon="6.08631">
        <ele>1144.5866699219</ele>
        <time>2012-08-09T08:54:34Z</time>
      </trkpt>
      <trkpt lat="45.29526" lon="6.08632">
        <ele>1146.5095214844</ele>
        <time>2012-08-09T08:54:38Z</time>
      </trkpt>
      <trkpt lat="45.29519" lon="6.08636">
        <ele>1147.470703125</ele>
        <time>2012-08-09T08:54:43Z</time>
      </trkpt>
      <trkpt lat="45.29517" lon="6.08642">
        <ele>1144.5866699219</ele>
        <time>2012-08-09T08:54:46Z</time>
      </trkpt>
      <trkpt lat="45.29517" lon="6.08648">
        <ele>1142.6643066406</ele>
        <time>2012-08-09T08:54:49Z</time>
      </trkpt>
      <trkpt lat="45.29515" lon="6.08649">
        <ele>1148.9128417969</ele>
        <time>2012-08-09T08:54:56Z</time>
      </trkpt>
      <trkpt lat="45.2952" lon="6.0865">
        <ele>1151.796875</ele>
        <time>2012-08-09T08:55:01Z</time>
      </trkpt>
      <trkpt lat="45.29529" lon="6.0866">
        <ele>1151.3161621094</ele>
        <time>2012-08-09T08:55:08Z</time>
      </trkpt>
      <trkpt lat="45.2953" lon="6.08662">
        <ele>1150.8354492188</ele>
        <time>2012-08-09T08:55:09Z</time>
      </trkpt>
      <trkpt lat="45.29536" lon="6.08669">
        <ele>1144.5866699219</ele>
        <time>2012-08-09T08:55:16Z</time>
      </trkpt>
      <trkpt lat="45.29537" lon="6.08669">
        <ele>1142.18359375</ele>
        <time>2012-08-09T08:55:18Z</time>
      </trkpt>
      <trkpt lat="45.29541" lon="6.08668">
        <ele>1139.2995605469</ele>
        <time>2012-08-09T08:55:22Z</time>
      </trkpt>
      <trkpt lat="45.29546" lon="6.08669">
        <ele>1134.9738769531</ele>
        <time>2012-08-09T08:55:28Z</time>
      </trkpt>
      <trkpt lat="45.29549" lon="6.0867">
        <ele>1134.4931640625</ele>
        <time>2012-08-09T08:55:32Z</time>
      </trkpt>
      <trkpt lat="45.2955" lon="6.08671">
        <ele>1134.4931640625</ele>
        <time>2012-08-09T08:55:36Z</time>
      </trkpt>
      <trkpt lat="45.29553" lon="6.08673">
        <ele>1133.5317382812</ele>
        <time>2012-08-09T08:55:43Z</time>
      </trkpt>
      <trkpt lat="45.29556" lon="6.08674">
        <ele>1134.9738769531</ele>
        <time>2012-08-09T08:55:47Z</time>
      </trkpt>
      <trkpt lat="45.29559" lon="6.08676">
        <ele>1134.9738769531</ele>
        <time>2012-08-09T08:55:50Z</time>
      </trkpt>
      <trkpt lat="45.29564" lon="6.08677">
        <ele>1134.4931640625</ele>
        <time>2012-08-09T08:55:55Z</time>
      </trkpt>
      <trkpt lat="45.29567" lon="6.08677">
        <ele>1133.5317382812</ele>
        <time>2012-08-09T08:55:59Z</time>
      </trkpt>
      <trkpt lat="45.29568" lon="6.0869">
        <ele>1127.763671875</ele>
        <time>2012-08-09T08:56:10Z</time>
      </trkpt>
      <trkpt lat="45.29566" lon="6.08693">
        <ele>1124.8798828125</ele>
        <time>2012-08-09T08:56:14Z</time>
      </trkpt>
      <trkpt lat="45.29563" lon="6.08696">
        <ele>1124.3991699219</ele>
        <time>2012-08-09T08:56:19Z</time>
      </trkpt>
      <trkpt lat="45.29562" lon="6.08703">
        <ele>1122.4765625</ele>
        <time>2012-08-09T08:56:28Z</time>
      </trkpt>
      <trkpt lat="45.29564" lon="6.08702">
        <ele>1127.283203125</ele>
        <time>2012-08-09T08:56:34Z</time>
      </trkpt>
      <trkpt lat="45.29567" lon="6.08703">
        <ele>1128.7250976562</ele>
        <time>2012-08-09T08:56:41Z</time>
      </trkpt>
      <trkpt lat="45.29569" lon="6.08705">
        <ele>1129.2055664062</ele>
        <time>2012-08-09T08:56:46Z</time>
      </trkpt>
      <trkpt lat="45.29572" lon="6.08705">
        <ele>1131.1284179688</ele>
        <time>2012-08-09T08:56:52Z</time>
      </trkpt>
      <trkpt lat="45.29574" lon="6.08706">
        <ele>1132.08984375</ele>
        <time>2012-08-09T08:56:56Z</time>
      </trkpt>
      <trkpt lat="45.29576" lon="6.08708">
        <ele>1133.5317382812</ele>
        <time>2012-08-09T08:57:00Z</time>
      </trkpt>
      <trkpt lat="45.2957" lon="6.08713">
        <ele>1142.6643066406</ele>
        <time>2012-08-09T08:57:23Z</time>
      </trkpt>
      <trkpt lat="45.29569" lon="6.08713">
        <ele>1143.1447753906</ele>
        <time>2012-08-09T08:57:26Z</time>
      </trkpt>
      <trkpt lat="45.29566" lon="6.08716">
        <ele>1143.1447753906</ele>
        <time>2012-08-09T08:57:30Z</time>
      </trkpt>
      <trkpt lat="45.29565" lon="6.08721">
        <ele>1141.7028808594</ele>
        <time>2012-08-09T08:57:34Z</time>
      </trkpt>
      <trkpt lat="45.29562" lon="6.08727">
        <ele>1141.2221679688</ele>
        <time>2012-08-09T08:57:39Z</time>
      </trkpt>
      <trkpt lat="45.29559" lon="6.08731">
        <ele>1142.6643066406</ele>
        <time>2012-08-09T08:57:45Z</time>
      </trkpt>
      <trkpt lat="45.29559" lon="6.08735">
        <ele>1145.5480957031</ele>
        <time>2012-08-09T08:57:49Z</time>
      </trkpt>
      <trkpt lat="45.29558" lon="6.08741">
        <ele>1147.9514160156</ele>
        <time>2012-08-09T08:57:55Z</time>
      </trkpt>
      <trkpt lat="45.29557" lon="6.08743">
        <ele>1148.9128417969</ele>
        <time>2012-08-09T08:57:58Z</time>
      </trkpt>
      <trkpt lat="45.29556" lon="6.08747">
        <ele>1148.9128417969</ele>
        <time>2012-08-09T08:58:02Z</time>
      </trkpt>
      <trkpt lat="45.29556" lon="6.08749">
        <ele>1153.7194824219</ele>
        <time>2012-08-09T08:58:08Z</time>
      </trkpt>
      <trkpt lat="45.29554" lon="6.08755">
        <ele>1155.6420898438</ele>
        <time>2012-08-09T08:58:18Z</time>
      </trkpt>
      <trkpt lat="45.29554" lon="6.08765">
        <ele>1153.7194824219</ele>
        <time>2012-08-09T08:58:30Z</time>
      </trkpt>
      <trkpt lat="45.29552" lon="6.08768">
        <ele>1154.6806640625</ele>
        <time>2012-08-09T08:58:33Z</time>
      </trkpt>
      <trkpt lat="45.2955" lon="6.08778">
        <ele>1152.7580566406</ele>
        <time>2012-08-09T08:58:38Z</time>
      </trkpt>
      <trkpt lat="45.29549" lon="6.08781">
        <ele>1152.7580566406</ele>
        <time>2012-08-09T08:58:42Z</time>
      </trkpt>
      <trkpt lat="45.29546" lon="6.08786">
        <ele>1155.1613769531</ele>
        <time>2012-08-09T08:58:48Z</time>
      </trkpt>
      <trkpt lat="45.29545" lon="6.0879">
        <ele>1156.6032714844</ele>
        <time>2012-08-09T08:58:54Z</time>
      </trkpt>
      <trkpt lat="45.29544" lon="6.08794">
        <ele>1156.6032714844</ele>
        <time>2012-08-09T08:58:58Z</time>
      </trkpt>
      <trkpt lat="45.29541" lon="6.088">
        <ele>1158.5258789062</ele>
        <time>2012-08-09T08:59:03Z</time>
      </trkpt>
      <trkpt lat="45.29539" lon="6.08806">
        <ele>1161.890625</ele>
        <time>2012-08-09T08:59:08Z</time>
      </trkpt>
      <trkpt lat="45.29538" lon="6.0881">
        <ele>1161.890625</ele>
        <time>2012-08-09T08:59:11Z</time>
      </trkpt>
      <trkpt lat="45.29539" lon="6.08816">
        <ele>1162.8518066406</ele>
        <time>2012-08-09T08:59:15Z</time>
      </trkpt>
      <trkpt lat="45.29535" lon="6.08824">
        <ele>1162.8518066406</ele>
        <time>2012-08-09T08:59:20Z</time>
      </trkpt>
      <trkpt lat="45.29534" lon="6.08829">
        <ele>1164.7746582031</ele>
        <time>2012-08-09T08:59:23Z</time>
      </trkpt>
      <trkpt lat="45.29532" lon="6.08834">
        <ele>1165.2553710938</ele>
        <time>2012-08-09T08:59:26Z</time>
      </trkpt>
      <trkpt lat="45.29531" lon="6.08836">
        <ele>1166.697265625</ele>
        <time>2012-08-09T08:59:28Z</time>
      </trkpt>
      <trkpt lat="45.29525" lon="6.08838">
        <ele>1167.6584472656</ele>
        <time>2012-08-09T08:59:32Z</time>
      </trkpt>
      <trkpt lat="45.29523" lon="6.08838">
        <ele>1170.5424804688</ele>
        <time>2012-08-09T08:59:34Z</time>
      </trkpt>
      <trkpt lat="45.29517" lon="6.08846">
        <ele>1171.984375</ele>
        <time>2012-08-09T08:59:40Z</time>
      </trkpt>
      <trkpt lat="45.29514" lon="6.08852">
        <ele>1171.5036621094</ele>
        <time>2012-08-09T08:59:44Z</time>
      </trkpt>
      <trkpt lat="45.29514" lon="6.08853">
        <ele>1170.0617675781</ele>
        <time>2012-08-09T08:59:45Z</time>
      </trkpt>
      <trkpt lat="45.29512" lon="6.08859">
        <ele>1170.5424804688</ele>
        <time>2012-08-09T08:59:50Z</time>
      </trkpt>
      <trkpt lat="45.29512" lon="6.08863">
        <ele>1170.0617675781</ele>
        <time>2012-08-09T08:59:54Z</time>
      </trkpt>
      <trkpt lat="45.29513" lon="6.08862">
        <ele>1176.791015625</ele>
        <time>2012-08-09T09:00:01Z</time>
      </trkpt>
      <trkpt lat="45.29512" lon="6.08864">
        <ele>1180.6364746094</ele>
        <time>2012-08-09T09:00:05Z</time>
      </trkpt>
      <trkpt lat="45.29512" lon="6.08865">
        <ele>1184.0009765625</ele>
        <time>2012-08-09T09:00:10Z</time>
      </trkpt>
      <trkpt lat="45.29509" lon="6.08868">
        <ele>1185.4428710938</ele>
        <time>2012-08-09T09:00:13Z</time>
      </trkpt>
      <trkpt lat="45.29508" lon="6.08875">
        <ele>1182.0783691406</ele>
        <time>2012-08-09T09:00:18Z</time>
      </trkpt>
      <trkpt lat="45.29508" lon="6.08883">
        <ele>1179.6748046875</ele>
        <time>2012-08-09T09:00:27Z</time>
      </trkpt>
      <trkpt lat="45.29507" lon="6.08888">
        <ele>1181.1171875</ele>
        <time>2012-08-09T09:00:33Z</time>
      </trkpt>
      <trkpt lat="45.29505" lon="6.08891">
        <ele>1182.5590820312</ele>
        <time>2012-08-09T09:00:37Z</time>
      </trkpt>
      <trkpt lat="45.29504" lon="6.08897">
        <ele>1182.0783691406</ele>
        <time>2012-08-09T09:00:41Z</time>
      </trkpt>
      <trkpt lat="45.29504" lon="6.08902">
        <ele>1182.0783691406</ele>
        <time>2012-08-09T09:00:45Z</time>
      </trkpt>
      <trkpt lat="45.29505" lon="6.08905">
        <ele>1181.59765625</ele>
        <time>2012-08-09T09:00:50Z</time>
      </trkpt>
      <trkpt lat="45.29507" lon="6.08906">
        <ele>1183.0395507812</ele>
        <time>2012-08-09T09:00:54Z</time>
      </trkpt>
      <trkpt lat="45.29506" lon="6.08907">
        <ele>1182.5590820312</ele>
        <time>2012-08-09T09:00:55Z</time>
      </trkpt>
      <trkpt lat="45.29506" lon="6.08912">
        <ele>1181.1171875</ele>
        <time>2012-08-09T09:00:59Z</time>
      </trkpt>
      <trkpt lat="45.29508" lon="6.08913">
        <ele>1184.4816894531</ele>
        <time>2012-08-09T09:01:03Z</time>
      </trkpt>
      <trkpt lat="45.29508" lon="6.08917">
        <ele>1184.9624023438</ele>
        <time>2012-08-09T09:01:08Z</time>
      </trkpt>
      <trkpt lat="45.29509" lon="6.08918">
        <ele>1187.8461914062</ele>
        <time>2012-08-09T09:01:14Z</time>
      </trkpt>
      <trkpt lat="45.29513" lon="6.08918">
        <ele>1191.2106933594</ele>
        <time>2012-08-09T09:01:20Z</time>
      </trkpt>
      <trkpt lat="45.29512" lon="6.08925">
        <ele>1190.2495117188</ele>
        <time>2012-08-09T09:01:28Z</time>
      </trkpt>
      <trkpt lat="45.29512" lon="6.08929">
        <ele>1191.2106933594</ele>
        <time>2012-08-09T09:01:33Z</time>
      </trkpt>
      <trkpt lat="45.29514" lon="6.08933">
        <ele>1192.1721191406</ele>
        <time>2012-08-09T09:01:38Z</time>
      </trkpt>
      <trkpt lat="45.29515" lon="6.08938">
        <ele>1191.2106933594</ele>
        <time>2012-08-09T09:01:43Z</time>
      </trkpt>
      <trkpt lat="45.29517" lon="6.08938">
        <ele>1194.5751953125</ele>
        <time>2012-08-09T09:01:51Z</time>
      </trkpt>
      <trkpt lat="45.29518" lon="6.08939">
        <ele>1197.4594726562</ele>
        <time>2012-08-09T09:01:56Z</time>
      </trkpt>
      <trkpt lat="45.29519" lon="6.08944">
        <ele>1198.9013671875</ele>
        <time>2012-08-09T09:02:04Z</time>
      </trkpt>
      <trkpt lat="45.2952" lon="6.08947">
        <ele>1200.3435058594</ele>
        <time>2012-08-09T09:02:09Z</time>
      </trkpt>
      <trkpt lat="45.29522" lon="6.08949">
        <ele>1202.7465820312</ele>
        <time>2012-08-09T09:02:14Z</time>
      </trkpt>
      <trkpt lat="45.29524" lon="6.08955">
        <ele>1200.3435058594</ele>
        <time>2012-08-09T09:02:21Z</time>
      </trkpt>
      <trkpt lat="45.29524" lon="6.08957">
        <ele>1201.7854003906</ele>
        <time>2012-08-09T09:02:27Z</time>
      </trkpt>
      <trkpt lat="45.29526" lon="6.0896">
        <ele>1202.7465820312</ele>
        <time>2012-08-09T09:02:31Z</time>
      </trkpt>
      <trkpt lat="45.29528" lon="6.08965">
        <ele>1202.2658691406</ele>
        <time>2012-08-09T09:02:36Z</time>
      </trkpt>
      <trkpt lat="45.2953" lon="6.0897">
        <ele>1202.2658691406</ele>
        <time>2012-08-09T09:02:40Z</time>
      </trkpt>
      <trkpt lat="45.29533" lon="6.08974">
        <ele>1203.7080078125</ele>
        <time>2012-08-09T09:02:47Z</time>
      </trkpt>
      <trkpt lat="45.29534" lon="6.08974">
        <ele>1207.0725097656</ele>
        <time>2012-08-09T09:02:53Z</time>
      </trkpt>
      <trkpt lat="45.29536" lon="6.08975">
        <ele>1208.5144042969</ele>
        <time>2012-08-09T09:02:59Z</time>
      </trkpt>
      <trkpt lat="45.29538" lon="6.08977">
        <ele>1210.9177246094</ele>
        <time>2012-08-09T09:03:03Z</time>
      </trkpt>
      <trkpt lat="45.29541" lon="6.08983">
        <ele>1209.4758300781</ele>
        <time>2012-08-09T09:03:08Z</time>
      </trkpt>
      <trkpt lat="45.29543" lon="6.08984">
        <ele>1210.4370117188</ele>
        <time>2012-08-09T09:03:13Z</time>
      </trkpt>
      <trkpt lat="45.29546" lon="6.08987">
        <ele>1209.4758300781</ele>
        <time>2012-08-09T09:03:18Z</time>
      </trkpt>
      <trkpt lat="45.29548" lon="6.08987">
        <ele>1213.3212890625</ele>
        <time>2012-08-09T09:03:24Z</time>
      </trkpt>
      <trkpt lat="45.2955" lon="6.08987">
        <ele>1211.8791503906</ele>
        <time>2012-08-09T09:03:31Z</time>
      </trkpt>
      <trkpt lat="45.2955" lon="6.08985">
        <ele>1212.3598632812</ele>
        <time>2012-08-09T09:03:35Z</time>
      </trkpt>
      <trkpt lat="45.2955" lon="6.08982">
        <ele>1214.2824707031</ele>
        <time>2012-08-09T09:03:42Z</time>
      </trkpt>
      <trkpt lat="45.29552" lon="6.0898">
        <ele>1214.2824707031</ele>
        <time>2012-08-09T09:03:48Z</time>
      </trkpt>
      <trkpt lat="45.29553" lon="6.0898">
        <ele>1214.2824707031</ele>
        <time>2012-08-09T09:03:53Z</time>
      </trkpt>
      <trkpt lat="45.29556" lon="6.08976">
        <ele>1216.6857910156</ele>
        <time>2012-08-09T09:03:59Z</time>
      </trkpt>
      <trkpt lat="45.29558" lon="6.08974">
        <ele>1220.0502929688</ele>
        <time>2012-08-09T09:04:03Z</time>
      </trkpt>
      <trkpt lat="45.29561" lon="6.08972">
        <ele>1221.4921875</ele>
        <time>2012-08-09T09:04:08Z</time>
      </trkpt>
      <trkpt lat="45.29564" lon="6.08973">
        <ele>1221.01171875</ele>
        <time>2012-08-09T09:04:13Z</time>
      </trkpt>
      <trkpt lat="45.29566" lon="6.08969">
        <ele>1224.3762207031</ele>
        <time>2012-08-09T09:04:18Z</time>
      </trkpt>
      <trkpt lat="45.29567" lon="6.08963">
        <ele>1227.7407226562</ele>
        <time>2012-08-09T09:04:23Z</time>
      </trkpt>
      <trkpt lat="45.29571" lon="6.08965">
        <ele>1226.298828125</ele>
        <time>2012-08-09T09:04:28Z</time>
      </trkpt>
      <trkpt lat="45.29573" lon="6.08966">
        <ele>1225.8181152344</ele>
        <time>2012-08-09T09:04:32Z</time>
      </trkpt>
      <trkpt lat="45.29575" lon="6.08968">
        <ele>1228.2216796875</ele>
        <time>2012-08-09T09:04:37Z</time>
      </trkpt>
      <trkpt lat="45.29578" lon="6.08967">
        <ele>1230.1442871094</ele>
        <time>2012-08-09T09:04:41Z</time>
      </trkpt>
      <trkpt lat="45.2958" lon="6.08964">
        <ele>1230.1442871094</ele>
        <time>2012-08-09T09:04:45Z</time>
      </trkpt>
      <trkpt lat="45.29582" lon="6.08962">
        <ele>1231.5861816406</ele>
        <time>2012-08-09T09:04:50Z</time>
      </trkpt>
      <trkpt lat="45.29585" lon="6.08963">
        <ele>1231.5861816406</ele>
        <time>2012-08-09T09:04:57Z</time>
      </trkpt>
      <trkpt lat="45.29587" lon="6.08961">
        <ele>1231.5861816406</ele>
        <time>2012-08-09T09:05:01Z</time>
      </trkpt>
      <trkpt lat="45.29589" lon="6.0896">
        <ele>1233.0280761719</ele>
        <time>2012-08-09T09:05:05Z</time>
      </trkpt>
      <trkpt lat="45.29592" lon="6.08958">
        <ele>1236.3928222656</ele>
        <time>2012-08-09T09:05:12Z</time>
      </trkpt>
      <trkpt lat="45.29594" lon="6.08954">
        <ele>1242.6413574219</ele>
        <time>2012-08-09T09:05:18Z</time>
      </trkpt>
      <trkpt lat="45.29596" lon="6.08956">
        <ele>1243.6025390625</ele>
        <time>2012-08-09T09:05:23Z</time>
      </trkpt>
      <trkpt lat="45.29599" lon="6.08956">
        <ele>1244.0834960938</ele>
        <time>2012-08-09T09:05:31Z</time>
      </trkpt>
      <trkpt lat="45.29603" lon="6.08958">
        <ele>1245.0446777344</ele>
        <time>2012-08-09T09:05:39Z</time>
      </trkpt>
      <trkpt lat="45.29609" lon="6.08962">
        <ele>1246.0061035156</ele>
        <time>2012-08-09T09:05:47Z</time>
      </trkpt>
      <trkpt lat="45.29613" lon="6.08964">
        <ele>1246.9672851562</ele>
        <time>2012-08-09T09:05:53Z</time>
      </trkpt>
      <trkpt lat="45.29616" lon="6.08965">
        <ele>1247.4479980469</ele>
        <time>2012-08-09T09:05:55Z</time>
      </trkpt>
      <trkpt lat="45.29621" lon="6.08968">
        <ele>1248.8898925781</ele>
        <time>2012-08-09T09:06:01Z</time>
      </trkpt>
      <trkpt lat="45.29624" lon="6.08971">
        <ele>1246.9672851562</ele>
        <time>2012-08-09T09:06:05Z</time>
      </trkpt>
      <trkpt lat="45.29626" lon="6.08975">
        <ele>1246.0061035156</ele>
        <time>2012-08-09T09:06:09Z</time>
      </trkpt>
      <trkpt lat="45.29628" lon="6.08983">
        <ele>1245.525390625</ele>
        <time>2012-08-09T09:06:16Z</time>
      </trkpt>
      <trkpt lat="45.29631" lon="6.08988">
        <ele>1246.0061035156</ele>
        <time>2012-08-09T09:06:21Z</time>
      </trkpt>
      <trkpt lat="45.29634" lon="6.08992">
        <ele>1245.525390625</ele>
        <time>2012-08-09T09:06:26Z</time>
      </trkpt>
      <trkpt lat="45.29637" lon="6.08995">
        <ele>1246.9672851562</ele>
        <time>2012-08-09T09:06:31Z</time>
      </trkpt>
      <trkpt lat="45.29639" lon="6.09">
        <ele>1247.9287109375</ele>
        <time>2012-08-09T09:06:36Z</time>
      </trkpt>
      <trkpt lat="45.29639" lon="6.09005">
        <ele>1250.33203125</ele>
        <time>2012-08-09T09:06:42Z</time>
      </trkpt>
      <trkpt lat="45.29641" lon="6.0901">
        <ele>1251.7739257812</ele>
        <time>2012-08-09T09:06:46Z</time>
      </trkpt>
      <trkpt lat="45.29641" lon="6.09013">
        <ele>1252.2543945312</ele>
        <time>2012-08-09T09:06:49Z</time>
      </trkpt>
      <trkpt lat="45.29642" lon="6.09016">
        <ele>1253.2158203125</ele>
        <time>2012-08-09T09:06:54Z</time>
      </trkpt>
      <trkpt lat="45.29644" lon="6.09019">
        <ele>1254.1772460938</ele>
        <time>2012-08-09T09:06:58Z</time>
      </trkpt>
      <trkpt lat="45.29645" lon="6.09023">
        <ele>1254.6577148438</ele>
        <time>2012-08-09T09:07:03Z</time>
      </trkpt>
      <trkpt lat="45.29647" lon="6.09028">
        <ele>1255.1384277344</ele>
        <time>2012-08-09T09:07:09Z</time>
      </trkpt>
      <trkpt lat="45.29649" lon="6.09031">
        <ele>1255.619140625</ele>
        <time>2012-08-09T09:07:14Z</time>
      </trkpt>
      <trkpt lat="45.29651" lon="6.09035">
        <ele>1257.5417480469</ele>
        <time>2012-08-09T09:07:20Z</time>
      </trkpt>
      <trkpt lat="45.29654" lon="6.09041">
        <ele>1257.5417480469</ele>
        <time>2012-08-09T09:07:25Z</time>
      </trkpt>
      <trkpt lat="45.29657" lon="6.09045">
        <ele>1258.0224609375</ele>
        <time>2012-08-09T09:07:31Z</time>
      </trkpt>
      <trkpt lat="45.29658" lon="6.09049">
        <ele>1257.5417480469</ele>
        <time>2012-08-09T09:07:36Z</time>
      </trkpt>
      <trkpt lat="45.2966" lon="6.09052">
        <ele>1258.0224609375</ele>
        <time>2012-08-09T09:07:40Z</time>
      </trkpt>
      <trkpt lat="45.29662" lon="6.09056">
        <ele>1258.9836425781</ele>
        <time>2012-08-09T09:07:45Z</time>
      </trkpt>
      <trkpt lat="45.29663" lon="6.09061">
        <ele>1259.4643554688</ele>
        <time>2012-08-09T09:07:50Z</time>
      </trkpt>
      <trkpt lat="45.29667" lon="6.09066">
        <ele>1260.42578125</ele>
        <time>2012-08-09T09:07:56Z</time>
      </trkpt>
      <trkpt lat="45.29667" lon="6.09069">
        <ele>1261.3872070312</ele>
        <time>2012-08-09T09:08:00Z</time>
      </trkpt>
      <trkpt lat="45.29668" lon="6.09072">
        <ele>1261.8679199219</ele>
        <time>2012-08-09T09:08:04Z</time>
      </trkpt>
      <trkpt lat="45.29672" lon="6.09074">
        <ele>1264.2709960938</ele>
        <time>2012-08-09T09:08:10Z</time>
      </trkpt>
      <trkpt lat="45.29675" lon="6.09077">
        <ele>1267.6354980469</ele>
        <time>2012-08-09T09:08:17Z</time>
      </trkpt>
      <trkpt lat="45.29674" lon="6.09078">
        <ele>1270.0388183594</ele>
        <time>2012-08-09T09:08:26Z</time>
      </trkpt>
      <trkpt lat="45.29676" lon="6.09082">
        <ele>1269.5583496094</ele>
        <time>2012-08-09T09:08:31Z</time>
      </trkpt>
      <trkpt lat="45.29679" lon="6.09084">
        <ele>1270.0388183594</ele>
        <time>2012-08-09T09:08:33Z</time>
      </trkpt>
      <trkpt lat="45.29681" lon="6.09088">
        <ele>1270.0388183594</ele>
        <time>2012-08-09T09:08:37Z</time>
      </trkpt>
      <trkpt lat="45.29683" lon="6.09092">
        <ele>1269.5583496094</ele>
        <time>2012-08-09T09:08:41Z</time>
      </trkpt>
      <trkpt lat="45.29685" lon="6.09099">
        <ele>1270.0388183594</ele>
        <time>2012-08-09T09:08:45Z</time>
      </trkpt>
      <trkpt lat="45.29685" lon="6.09107">
        <ele>1270.51953125</ele>
        <time>2012-08-09T09:08:49Z</time>
      </trkpt>
      <trkpt lat="45.29687" lon="6.09116">
        <ele>1271.0002441406</ele>
        <time>2012-08-09T09:08:55Z</time>
      </trkpt>
      <trkpt lat="45.2969" lon="6.09123">
        <ele>1271.4807128906</ele>
        <time>2012-08-09T09:09:00Z</time>
      </trkpt>
      <trkpt lat="45.29691" lon="6.09128">
        <ele>1271.9614257812</ele>
        <time>2012-08-09T09:09:03Z</time>
      </trkpt>
      <trkpt lat="45.29692" lon="6.09136">
        <ele>1273.4035644531</ele>
        <time>2012-08-09T09:09:08Z</time>
      </trkpt>
      <trkpt lat="45.29692" lon="6.09143">
        <ele>1276.2875976562</ele>
        <time>2012-08-09T09:09:13Z</time>
      </trkpt>
      <trkpt lat="45.29694" lon="6.09151">
        <ele>1284.4587402344</ele>
        <time>2012-08-09T09:09:21Z</time>
      </trkpt>
      <trkpt lat="45.29696" lon="6.09155">
        <ele>1289.7458496094</ele>
        <time>2012-08-09T09:09:27Z</time>
      </trkpt>
      <trkpt lat="45.29698" lon="6.09149">
        <ele>1292.6301269531</ele>
        <time>2012-08-09T09:09:32Z</time>
      </trkpt>
      <trkpt lat="45.29698" lon="6.09146">
        <ele>1293.5913085938</ele>
        <time>2012-08-09T09:09:34Z</time>
      </trkpt>
      <trkpt lat="45.29692" lon="6.09132">
        <ele>1299.3591308594</ele>
        <time>2012-08-09T09:09:42Z</time>
      </trkpt>
      <trkpt lat="45.29692" lon="6.09124">
        <ele>1293.1105957031</ele>
        <time>2012-08-09T09:09:49Z</time>
      </trkpt>
      <trkpt lat="45.29693" lon="6.09114">
        <ele>1290.70703125</ele>
        <time>2012-08-09T09:09:56Z</time>
      </trkpt>
      <trkpt lat="45.29696" lon="6.09108">
        <ele>1293.5913085938</ele>
        <time>2012-08-09T09:10:02Z</time>
      </trkpt>
      <trkpt lat="45.29697" lon="6.09106">
        <ele>1293.1105957031</ele>
        <time>2012-08-09T09:10:06Z</time>
      </trkpt>
      <trkpt lat="45.29698" lon="6.09104">
        <ele>1295.5139160156</ele>
        <time>2012-08-09T09:10:10Z</time>
      </trkpt>
      <trkpt lat="45.29699" lon="6.09099">
        <ele>1299.83984375</ele>
        <time>2012-08-09T09:10:15Z</time>
      </trkpt>
      <trkpt lat="45.29703" lon="6.09102">
        <ele>1297.9172363281</ele>
        <time>2012-08-09T09:10:20Z</time>
      </trkpt>
      <trkpt lat="45.29706" lon="6.09105">
        <ele>1297.4365234375</ele>
        <time>2012-08-09T09:10:24Z</time>
      </trkpt>
      <trkpt lat="45.2971" lon="6.09107">
        <ele>1298.8784179688</ele>
        <time>2012-08-09T09:10:29Z</time>
      </trkpt>
      <trkpt lat="45.29716" lon="6.09107">
        <ele>1299.83984375</ele>
        <time>2012-08-09T09:10:35Z</time>
      </trkpt>
      <trkpt lat="45.2972" lon="6.09109">
        <ele>1302.2429199219</ele>
        <time>2012-08-09T09:10:40Z</time>
      </trkpt>
      <trkpt lat="45.29726" lon="6.09112">
        <ele>1309.93359375</ele>
        <time>2012-08-09T09:10:47Z</time>
      </trkpt>
      <trkpt lat="45.29728" lon="6.09111">
        <ele>1311.8564453125</ele>
        <time>2012-08-09T09:10:52Z</time>
      </trkpt>
      <trkpt lat="45.29732" lon="6.09108">
        <ele>1313.7788085938</ele>
        <time>2012-08-09T09:10:58Z</time>
      </trkpt>
      <trkpt lat="45.29736" lon="6.09109">
        <ele>1310.4143066406</ele>
        <time>2012-08-09T09:11:06Z</time>
      </trkpt>
      <trkpt lat="45.29737" lon="6.09108">
        <ele>1309.453125</ele>
        <time>2012-08-09T09:11:10Z</time>
      </trkpt>
      <trkpt lat="45.29744" lon="6.09109">
        <ele>1307.5302734375</ele>
        <time>2012-08-09T09:11:17Z</time>
      </trkpt>
      <trkpt lat="45.29749" lon="6.09107">
        <ele>1307.5302734375</ele>
        <time>2012-08-09T09:11:22Z</time>
      </trkpt>
      <trkpt lat="45.2975" lon="6.09106">
        <ele>1307.5302734375</ele>
        <time>2012-08-09T09:11:23Z</time>
      </trkpt>
      <trkpt lat="45.29754" lon="6.09104">
        <ele>1307.0495605469</ele>
        <time>2012-08-09T09:11:29Z</time>
      </trkpt>
      <trkpt lat="45.29759" lon="6.09098">
        <ele>1311.8564453125</ele>
        <time>2012-08-09T09:11:35Z</time>
      </trkpt>
      <trkpt lat="45.2976" lon="6.09096">
        <ele>1315.2209472656</ele>
        <time>2012-08-09T09:11:37Z</time>
      </trkpt>
      <trkpt lat="45.29765" lon="6.09092">
        <ele>1316.6628417969</ele>
        <time>2012-08-09T09:11:43Z</time>
      </trkpt>
      <trkpt lat="45.29767" lon="6.0909">
        <ele>1315.2209472656</ele>
        <time>2012-08-09T09:11:48Z</time>
      </trkpt>
      <trkpt lat="45.29768" lon="6.09084">
        <ele>1320.5080566406</ele>
        <time>2012-08-09T09:11:54Z</time>
      </trkpt>
      <trkpt lat="45.29769" lon="6.09081">
        <ele>1323.3920898438</ele>
        <time>2012-08-09T09:11:58Z</time>
      </trkpt>
      <trkpt lat="45.29773" lon="6.0908">
        <ele>1324.8342285156</ele>
        <time>2012-08-09T09:12:03Z</time>
      </trkpt>
      <trkpt lat="45.29776" lon="6.09072">
        <ele>1327.2375488281</ele>
        <time>2012-08-09T09:12:10Z</time>
      </trkpt>
      <trkpt lat="45.29776" lon="6.09067">
        <ele>1327.7180175781</ele>
        <time>2012-08-09T09:12:12Z</time>
      </trkpt>
      <trkpt lat="45.29776" lon="6.09062">
        <ele>1327.2375488281</ele>
        <time>2012-08-09T09:12:16Z</time>
      </trkpt>
      <trkpt lat="45.29782" lon="6.09062">
        <ele>1326.7568359375</ele>
        <time>2012-08-09T09:12:22Z</time>
      </trkpt>
      <trkpt lat="45.2979" lon="6.09066">
        <ele>1329.640625</ele>
        <time>2012-08-09T09:12:27Z</time>
      </trkpt>
      <trkpt lat="45.29794" lon="6.09073">
        <ele>1331.5632324219</ele>
        <time>2012-08-09T09:12:33Z</time>
      </trkpt>
      <trkpt lat="45.29798" lon="6.09085">
        <ele>1333.0051269531</ele>
        <time>2012-08-09T09:12:43Z</time>
      </trkpt>
      <trkpt lat="45.29795" lon="6.091">
        <ele>1330.1213378906</ele>
        <time>2012-08-09T09:12:51Z</time>
      </trkpt>
      <trkpt lat="45.29793" lon="6.09116">
        <ele>1333.0051269531</ele>
        <time>2012-08-09T09:13:00Z</time>
      </trkpt>
      <trkpt lat="45.29793" lon="6.0913">
        <ele>1333.9665527344</ele>
        <time>2012-08-09T09:13:08Z</time>
      </trkpt>
      <trkpt lat="45.29794" lon="6.09145">
        <ele>1336.8503417969</ele>
        <time>2012-08-09T09:13:18Z</time>
      </trkpt>
      <trkpt lat="45.29794" lon="6.09148">
        <ele>1337.8117675781</ele>
        <time>2012-08-09T09:13:20Z</time>
      </trkpt>
      <trkpt lat="45.29792" lon="6.09154">
        <ele>1338.7731933594</ele>
        <time>2012-08-09T09:13:23Z</time>
      </trkpt>
      <trkpt lat="45.29787" lon="6.09165">
        <ele>1339.2536621094</ele>
        <time>2012-08-09T09:13:29Z</time>
      </trkpt>
      <trkpt lat="45.29781" lon="6.09179">
        <ele>1337.3310546875</ele>
        <time>2012-08-09T09:13:35Z</time>
      </trkpt>
      <trkpt lat="45.29778" lon="6.09185">
        <ele>1336.8503417969</ele>
        <time>2012-08-09T09:13:39Z</time>
      </trkpt>
      <trkpt lat="45.29776" lon="6.0919">
        <ele>1333.0051269531</ele>
        <time>2012-08-09T09:13:43Z</time>
      </trkpt>
      <trkpt lat="45.29774" lon="6.09199">
        <ele>1328.6794433594</ele>
        <time>2012-08-09T09:13:48Z</time>
      </trkpt>
      <trkpt lat="45.29773" lon="6.09205">
        <ele>1326.7568359375</ele>
        <time>2012-08-09T09:13:52Z</time>
      </trkpt>
      <trkpt lat="45.29768" lon="6.09219">
        <ele>1322.4306640625</ele>
        <time>2012-08-09T09:13:59Z</time>
      </trkpt>
      <trkpt lat="45.29764" lon="6.09229">
        <ele>1321.4692382812</ele>
        <time>2012-08-09T09:14:05Z</time>
      </trkpt>
      <trkpt lat="45.29762" lon="6.09236">
        <ele>1320.9887695312</ele>
        <time>2012-08-09T09:14:09Z</time>
      </trkpt>
      <trkpt lat="45.2976" lon="6.09246">
        <ele>1319.546875</ele>
        <time>2012-08-09T09:14:14Z</time>
      </trkpt>
      <trkpt lat="45.29761" lon="6.09249">
        <ele>1322.4306640625</ele>
        <time>2012-08-09T09:14:20Z</time>
      </trkpt>
      <trkpt lat="45.29765" lon="6.09249">
        <ele>1324.353515625</ele>
        <time>2012-08-09T09:14:28Z</time>
      </trkpt>
      <trkpt lat="45.2977" lon="6.09246">
        <ele>1323.3920898438</ele>
        <time>2012-08-09T09:14:35Z</time>
      </trkpt>
      <trkpt lat="45.29773" lon="6.0924">
        <ele>1324.353515625</ele>
        <time>2012-08-09T09:14:39Z</time>
      </trkpt>
      <trkpt lat="45.29775" lon="6.09235">
        <ele>1325.7954101562</ele>
        <time>2012-08-09T09:14:43Z</time>
      </trkpt>
      <trkpt lat="45.29777" lon="6.09227">
        <ele>1326.7568359375</ele>
        <time>2012-08-09T09:14:49Z</time>
      </trkpt>
      <trkpt lat="45.29781" lon="6.09215">
        <ele>1329.640625</ele>
        <time>2012-08-09T09:14:57Z</time>
      </trkpt>
      <trkpt lat="45.29784" lon="6.09205">
        <ele>1330.1213378906</ele>
        <time>2012-08-09T09:15:04Z</time>
      </trkpt>
      <trkpt lat="45.29788" lon="6.09198">
        <ele>1330.1213378906</ele>
        <time>2012-08-09T09:15:10Z</time>
      </trkpt>
      <trkpt lat="45.2979" lon="6.09191">
        <ele>1330.6020507812</ele>
        <time>2012-08-09T09:15:14Z</time>
      </trkpt>
      <trkpt lat="45.29797" lon="6.0918">
        <ele>1328.6794433594</ele>
        <time>2012-08-09T09:15:23Z</time>
      </trkpt>
      <trkpt lat="45.29802" lon="6.09165">
        <ele>1327.2375488281</ele>
        <time>2012-08-09T09:15:32Z</time>
      </trkpt>
      <trkpt lat="45.29805" lon="6.09157">
        <ele>1325.7954101562</ele>
        <time>2012-08-09T09:15:38Z</time>
      </trkpt>
      <trkpt lat="45.29806" lon="6.09155">
        <ele>1325.7954101562</ele>
        <time>2012-08-09T09:15:39Z</time>
      </trkpt>
      <trkpt lat="45.29808" lon="6.09144">
        <ele>1325.3146972656</ele>
        <time>2012-08-09T09:15:45Z</time>
      </trkpt>
      <trkpt lat="45.2981" lon="6.0914">
        <ele>1325.3146972656</ele>
        <time>2012-08-09T09:15:48Z</time>
      </trkpt>
      <trkpt lat="45.29811" lon="6.09134">
        <ele>1326.7568359375</ele>
        <time>2012-08-09T09:15:51Z</time>
      </trkpt>
      <trkpt lat="45.29813" lon="6.09131">
        <ele>1327.2375488281</ele>
        <time>2012-08-09T09:15:54Z</time>
      </trkpt>
      <trkpt lat="45.29816" lon="6.09121">
        <ele>1330.6020507812</ele>
        <time>2012-08-09T09:16:00Z</time>
      </trkpt>
      <trkpt lat="45.29818" lon="6.09118">
        <ele>1332.5246582031</ele>
        <time>2012-08-09T09:16:03Z</time>
      </trkpt>
      <trkpt lat="45.29821" lon="6.09117">
        <ele>1334.9279785156</ele>
        <time>2012-08-09T09:16:07Z</time>
      </trkpt>
      <trkpt lat="45.29824" lon="6.09113">
        <ele>1338.2924804688</ele>
        <time>2012-08-09T09:16:14Z</time>
      </trkpt>
      <trkpt lat="45.29826" lon="6.09111">
        <ele>1339.734375</ele>
        <time>2012-08-09T09:16:18Z</time>
      </trkpt>
      <trkpt lat="45.29828" lon="6.09112">
        <ele>1339.2536621094</ele>
        <time>2012-08-09T09:16:22Z</time>
      </trkpt>
      <trkpt lat="45.29829" lon="6.09116">
        <ele>1340.2153320312</ele>
        <time>2012-08-09T09:16:28Z</time>
      </trkpt>
      <trkpt lat="45.29831" lon="6.09119">
        <ele>1340.6958007812</ele>
        <time>2012-08-09T09:16:33Z</time>
      </trkpt>
      <trkpt lat="45.29833" lon="6.0912">
        <ele>1340.6958007812</ele>
        <time>2012-08-09T09:16:38Z</time>
      </trkpt>
      <trkpt lat="45.29835" lon="6.09117">
        <ele>1342.1379394531</ele>
        <time>2012-08-09T09:16:45Z</time>
      </trkpt>
      <trkpt lat="45.29837" lon="6.09113">
        <ele>1342.1379394531</ele>
        <time>2012-08-09T09:16:51Z</time>
      </trkpt>
      <trkpt lat="45.2984" lon="6.09117">
        <ele>1344.541015625</ele>
        <time>2012-08-09T09:16:58Z</time>
      </trkpt>
      <trkpt lat="45.29844" lon="6.09121">
        <ele>1347.4250488281</ele>
        <time>2012-08-09T09:17:03Z</time>
      </trkpt>
      <trkpt lat="45.29847" lon="6.09126">
        <ele>1349.34765625</ele>
        <time>2012-08-09T09:17:08Z</time>
      </trkpt>
      <trkpt lat="45.29849" lon="6.09131">
        <ele>1351.2702636719</ele>
        <time>2012-08-09T09:17:14Z</time>
      </trkpt>
      <trkpt lat="45.29849" lon="6.09137">
        <ele>1349.8283691406</ele>
        <time>2012-08-09T09:17:19Z</time>
      </trkpt>
      <trkpt lat="45.29852" lon="6.09141">
        <ele>1351.2702636719</ele>
        <time>2012-08-09T09:17:25Z</time>
      </trkpt>
      <trkpt lat="45.29854" lon="6.09145">
        <ele>1353.1928710938</ele>
        <time>2012-08-09T09:17:31Z</time>
      </trkpt>
      <trkpt lat="45.29856" lon="6.09148">
        <ele>1352.7121582031</ele>
        <time>2012-08-09T09:17:36Z</time>
      </trkpt>
      <trkpt lat="45.29858" lon="6.0915">
        <ele>1354.634765625</ele>
        <time>2012-08-09T09:17:42Z</time>
      </trkpt>
      <trkpt lat="45.29861" lon="6.09156">
        <ele>1353.1928710938</ele>
        <time>2012-08-09T09:17:50Z</time>
      </trkpt>
      <trkpt lat="45.29862" lon="6.09157">
        <ele>1351.2702636719</ele>
        <time>2012-08-09T09:17:54Z</time>
      </trkpt>
      <trkpt lat="45.29866" lon="6.0916">
        <ele>1351.2702636719</ele>
        <time>2012-08-09T09:18:01Z</time>
      </trkpt>
      <trkpt lat="45.29869" lon="6.0916">
        <ele>1363.7673339844</ele>
        <time>2012-08-09T09:18:19Z</time>
      </trkpt>
      <trkpt lat="45.29869" lon="6.09163">
        <ele>1363.7673339844</ele>
        <time>2012-08-09T09:18:23Z</time>
      </trkpt>
      <trkpt lat="45.29871" lon="6.09166">
        <ele>1367.1320800781</ele>
        <time>2012-08-09T09:18:30Z</time>
      </trkpt>
      <trkpt lat="45.29871" lon="6.09169">
        <ele>1370.0158691406</ele>
        <time>2012-08-09T09:18:35Z</time>
      </trkpt>
      <trkpt lat="45.29876" lon="6.09174">
        <ele>1373.380859375</ele>
        <time>2012-08-09T09:18:43Z</time>
      </trkpt>
      <trkpt lat="45.29878" lon="6.09177">
        <ele>1373.861328125</ele>
        <time>2012-08-09T09:18:48Z</time>
      </trkpt>
      <trkpt lat="45.2988" lon="6.0918">
        <ele>1375.7839355469</ele>
        <time>2012-08-09T09:18:54Z</time>
      </trkpt>
      <trkpt lat="45.29878" lon="6.09187">
        <ele>1375.3032226562</ele>
        <time>2012-08-09T09:19:01Z</time>
      </trkpt>
      <trkpt lat="45.29879" lon="6.09191">
        <ele>1373.380859375</ele>
        <time>2012-08-09T09:19:08Z</time>
      </trkpt>
      <trkpt lat="45.29882" lon="6.09192">
        <ele>1375.3032226562</ele>
        <time>2012-08-09T09:19:12Z</time>
      </trkpt>
      <trkpt lat="45.29881" lon="6.09197">
        <ele>1376.7453613281</ele>
        <time>2012-08-09T09:19:18Z</time>
      </trkpt>
      <trkpt lat="45.29882" lon="6.09199">
        <ele>1379.6291503906</ele>
        <time>2012-08-09T09:19:24Z</time>
      </trkpt>
      <trkpt lat="45.29887" lon="6.09204">
        <ele>1385.3969726562</ele>
        <time>2012-08-09T09:19:31Z</time>
      </trkpt>
      <trkpt lat="45.29887" lon="6.09206">
        <ele>1386.8388671875</ele>
        <time>2012-08-09T09:19:35Z</time>
      </trkpt>
      <trkpt lat="45.29882" lon="6.09217">
        <ele>1390.2038574219</ele>
        <time>2012-08-09T09:19:46Z</time>
      </trkpt>
      <trkpt lat="45.29883" lon="6.0922">
        <ele>1390.2038574219</ele>
        <time>2012-08-09T09:19:50Z</time>
      </trkpt>
      <trkpt lat="45.2989" lon="6.09221">
        <ele>1392.1264648438</ele>
        <time>2012-08-09T09:20:06Z</time>
      </trkpt>
      <trkpt lat="45.2989" lon="6.09222">
        <ele>1394.0490722656</ele>
        <time>2012-08-09T09:20:14Z</time>
      </trkpt>
      <trkpt lat="45.29893" lon="6.09225">
        <ele>1395.9716796875</ele>
        <time>2012-08-09T09:20:22Z</time>
      </trkpt>
      <trkpt lat="45.29898" lon="6.09231">
        <ele>1397.4135742188</ele>
        <time>2012-08-09T09:20:35Z</time>
      </trkpt>
      <trkpt lat="45.29902" lon="6.09235">
        <ele>1397.4135742188</ele>
        <time>2012-08-09T09:20:45Z</time>
      </trkpt>
      <trkpt lat="45.29905" lon="6.09238">
        <ele>1398.85546875</ele>
        <time>2012-08-09T09:20:52Z</time>
      </trkpt>
      <trkpt lat="45.29907" lon="6.09244">
        <ele>1397.4135742188</ele>
        <time>2012-08-09T09:20:56Z</time>
      </trkpt>
      <trkpt lat="45.29908" lon="6.09254">
        <ele>1401.2587890625</ele>
        <time>2012-08-09T09:21:09Z</time>
      </trkpt>
      <trkpt lat="45.29907" lon="6.09258">
        <ele>1400.7780761719</ele>
        <time>2012-08-09T09:21:13Z</time>
      </trkpt>
      <trkpt lat="45.29905" lon="6.09262">
        <ele>1402.7006835938</ele>
        <time>2012-08-09T09:21:20Z</time>
      </trkpt>
      <trkpt lat="45.29907" lon="6.09265">
        <ele>1403.1813964844</ele>
        <time>2012-08-09T09:21:23Z</time>
      </trkpt>
      <trkpt lat="45.29909" lon="6.09269">
        <ele>1403.1813964844</ele>
        <time>2012-08-09T09:21:27Z</time>
      </trkpt>
      <trkpt lat="45.29911" lon="6.09273">
        <ele>1403.1813964844</ele>
        <time>2012-08-09T09:21:31Z</time>
      </trkpt>
      <trkpt lat="45.29912" lon="6.09275">
        <ele>1406.0654296875</ele>
        <time>2012-08-09T09:21:37Z</time>
      </trkpt>
      <trkpt lat="45.29914" lon="6.09278">
        <ele>1412.3139648438</ele>
        <time>2012-08-09T09:21:47Z</time>
      </trkpt>
      <trkpt lat="45.29916" lon="6.09283">
        <ele>1413.275390625</ele>
        <time>2012-08-09T09:21:57Z</time>
      </trkpt>
      <trkpt lat="45.29918" lon="6.09289">
        <ele>1418.5625</ele>
        <time>2012-08-09T09:22:09Z</time>
      </trkpt>
      <trkpt lat="45.29918" lon="6.09287">
        <ele>1422.4079589844</ele>
        <time>2012-08-09T09:22:13Z</time>
      </trkpt>
      <trkpt lat="45.29919" lon="6.09286">
        <ele>1422.888671875</ele>
        <time>2012-08-09T09:22:17Z</time>
      </trkpt>
      <trkpt lat="45.29922" lon="6.09289">
        <ele>1422.888671875</ele>
        <time>2012-08-09T09:22:25Z</time>
      </trkpt>
      <trkpt lat="45.29925" lon="6.09292">
        <ele>1422.4079589844</ele>
        <time>2012-08-09T09:22:29Z</time>
      </trkpt>
      <trkpt lat="45.29927" lon="6.09292">
        <ele>1424.8112792969</ele>
        <time>2012-08-09T09:22:35Z</time>
      </trkpt>
      <trkpt lat="45.29931" lon="6.09291">
        <ele>1426.2531738281</ele>
        <time>2012-08-09T09:22:40Z</time>
      </trkpt>
      <trkpt lat="45.29934" lon="6.09296">
        <ele>1426.2531738281</ele>
        <time>2012-08-09T09:22:47Z</time>
      </trkpt>
      <trkpt lat="45.29936" lon="6.09297">
        <ele>1425.7724609375</ele>
        <time>2012-08-09T09:22:55Z</time>
      </trkpt>
      <trkpt lat="45.29936" lon="6.09299">
        <ele>1424.3305664062</ele>
        <time>2012-08-09T09:23:02Z</time>
      </trkpt>
      <trkpt lat="45.29938" lon="6.09298">
        <ele>1423.8498535156</ele>
        <time>2012-08-09T09:23:06Z</time>
      </trkpt>
      <trkpt lat="45.29937" lon="6.09301">
        <ele>1424.8112792969</ele>
        <time>2012-08-09T09:23:13Z</time>
      </trkpt>
      <trkpt lat="45.29941" lon="6.09301">
        <ele>1428.17578125</ele>
        <time>2012-08-09T09:23:28Z</time>
      </trkpt>
      <trkpt lat="45.29947" lon="6.09305">
        <ele>1433.9436035156</ele>
        <time>2012-08-09T09:23:41Z</time>
      </trkpt>
      <trkpt lat="45.2995" lon="6.0931">
        <ele>1435.8662109375</ele>
        <time>2012-08-09T09:23:48Z</time>
      </trkpt>
      <trkpt lat="45.29953" lon="6.09313">
        <ele>1436.3471679688</ele>
        <time>2012-08-09T09:23:59Z</time>
      </trkpt>
      <trkpt lat="45.29955" lon="6.09316">
        <ele>1436.8276367188</ele>
        <time>2012-08-09T09:24:04Z</time>
      </trkpt>
      <trkpt lat="45.29958" lon="6.09317">
        <ele>1438.2697753906</ele>
        <time>2012-08-09T09:24:08Z</time>
      </trkpt>
      <trkpt lat="45.2996" lon="6.0932">
        <ele>1438.7504882812</ele>
        <time>2012-08-09T09:24:13Z</time>
      </trkpt>
      <trkpt lat="45.29963" lon="6.09322">
        <ele>1439.7116699219</ele>
        <time>2012-08-09T09:24:19Z</time>
      </trkpt>
      <trkpt lat="45.29967" lon="6.09324">
        <ele>1444.5180664062</ele>
        <time>2012-08-09T09:24:33Z</time>
      </trkpt>
      <trkpt lat="45.29971" lon="6.09325">
        <ele>1448.36328125</ele>
        <time>2012-08-09T09:24:42Z</time>
      </trkpt>
      <trkpt lat="45.2997" lon="6.0933">
        <ele>1448.8439941406</ele>
        <time>2012-08-09T09:24:46Z</time>
      </trkpt>
      <trkpt lat="45.2997" lon="6.09347">
        <ele>1448.36328125</ele>
        <time>2012-08-09T09:25:03Z</time>
      </trkpt>
      <trkpt lat="45.29969" lon="6.09352">
        <ele>1447.4020996094</ele>
        <time>2012-08-09T09:25:08Z</time>
      </trkpt>
      <trkpt lat="45.29967" lon="6.09357">
        <ele>1448.36328125</ele>
        <time>2012-08-09T09:25:12Z</time>
      </trkpt>
      <trkpt lat="45.29968" lon="6.09364">
        <ele>1443.5568847656</ele>
        <time>2012-08-09T09:25:17Z</time>
      </trkpt>
      <trkpt lat="45.29969" lon="6.09369">
        <ele>1441.6342773438</ele>
        <time>2012-08-09T09:25:23Z</time>
      </trkpt>
      <trkpt lat="45.29971" lon="6.09373">
        <ele>1441.1535644531</ele>
        <time>2012-08-09T09:25:27Z</time>
      </trkpt>
      <trkpt lat="45.29974" lon="6.0937">
        <ele>1445.9602050781</ele>
        <time>2012-08-09T09:25:35Z</time>
      </trkpt>
      <trkpt lat="45.29977" lon="6.09371">
        <ele>1446.4409179688</ele>
        <time>2012-08-09T09:25:41Z</time>
      </trkpt>
      <trkpt lat="45.29982" lon="6.09373">
        <ele>1457.49609375</ele>
        <time>2012-08-09T09:25:58Z</time>
      </trkpt>
      <trkpt lat="45.29983" lon="6.09376">
        <ele>1458.4572753906</ele>
        <time>2012-08-09T09:26:05Z</time>
      </trkpt>
      <trkpt lat="45.29988" lon="6.09369">
        <ele>1464.7058105469</ele>
        <time>2012-08-09T09:26:27Z</time>
      </trkpt>
      <trkpt lat="45.29993" lon="6.09362">
        <ele>1469.9931640625</ele>
        <time>2012-08-09T09:26:39Z</time>
      </trkpt>
      <trkpt lat="45.29997" lon="6.0936">
        <ele>1469.9931640625</ele>
        <time>2012-08-09T09:26:43Z</time>
      </trkpt>
      <trkpt lat="45.30002" lon="6.0936">
        <ele>1470.4738769531</ele>
        <time>2012-08-09T09:26:49Z</time>
      </trkpt>
      <trkpt lat="45.3001" lon="6.09357">
        <ele>1472.396484375</ele>
        <time>2012-08-09T09:27:01Z</time>
      </trkpt>
      <trkpt lat="45.30011" lon="6.09358">
        <ele>1473.3579101562</ele>
        <time>2012-08-09T09:27:08Z</time>
      </trkpt>
      <trkpt lat="45.30013" lon="6.09359">
        <ele>1474.3190917969</ele>
        <time>2012-08-09T09:27:13Z</time>
      </trkpt>
      <trkpt lat="45.30016" lon="6.09359">
        <ele>1477.203125</ele>
        <time>2012-08-09T09:27:20Z</time>
      </trkpt>
      <trkpt lat="45.30022" lon="6.09359">
        <ele>1478.6450195312</ele>
        <time>2012-08-09T09:27:27Z</time>
      </trkpt>
      <trkpt lat="45.30024" lon="6.09359">
        <ele>1479.1254882812</ele>
        <time>2012-08-09T09:27:32Z</time>
      </trkpt>
      <trkpt lat="45.30032" lon="6.09361">
        <ele>1480.5676269531</ele>
        <time>2012-08-09T09:27:39Z</time>
      </trkpt>
      <trkpt lat="45.30037" lon="6.09361">
        <ele>1480.5676269531</ele>
        <time>2012-08-09T09:27:45Z</time>
      </trkpt>
      <trkpt lat="45.30042" lon="6.09364">
        <ele>1479.6062011719</ele>
        <time>2012-08-09T09:27:51Z</time>
      </trkpt>
      <trkpt lat="45.30048" lon="6.09365">
        <ele>1480.5676269531</ele>
        <time>2012-08-09T09:27:57Z</time>
      </trkpt>
      <trkpt lat="45.30056" lon="6.09368">
        <ele>1483.4514160156</ele>
        <time>2012-08-09T09:28:04Z</time>
      </trkpt>
      <trkpt lat="45.30061" lon="6.09373">
        <ele>1479.6062011719</ele>
        <time>2012-08-09T09:28:08Z</time>
      </trkpt>
      <trkpt lat="45.30066" lon="6.09383">
        <ele>1477.203125</ele>
        <time>2012-08-09T09:28:16Z</time>
      </trkpt>
      <trkpt lat="45.30067" lon="6.09385">
        <ele>1477.203125</ele>
        <time>2012-08-09T09:28:18Z</time>
      </trkpt>
      <trkpt lat="45.30071" lon="6.09391">
        <ele>1478.1643066406</ele>
        <time>2012-08-09T09:28:25Z</time>
      </trkpt>
      <trkpt lat="45.30072" lon="6.09397">
        <ele>1479.1254882812</ele>
        <time>2012-08-09T09:28:31Z</time>
      </trkpt>
      <trkpt lat="45.30074" lon="6.094">
        <ele>1482.970703125</ele>
        <time>2012-08-09T09:28:37Z</time>
      </trkpt>
      <trkpt lat="45.30075" lon="6.09404">
        <ele>1483.4514160156</ele>
        <time>2012-08-09T09:28:40Z</time>
      </trkpt>
      <trkpt lat="45.30076" lon="6.09407">
        <ele>1484.4130859375</ele>
        <time>2012-08-09T09:28:44Z</time>
      </trkpt>
      <trkpt lat="45.30077" lon="6.0941">
        <ele>1485.3742675781</ele>
        <time>2012-08-09T09:28:48Z</time>
      </trkpt>
      <trkpt lat="45.30077" lon="6.09413">
        <ele>1487.296875</ele>
        <time>2012-08-09T09:28:53Z</time>
      </trkpt>
      <trkpt lat="45.30079" lon="6.09416">
        <ele>1488.7390136719</ele>
        <time>2012-08-09T09:28:58Z</time>
      </trkpt>
      <trkpt lat="45.30081" lon="6.09421">
        <ele>1489.7001953125</ele>
        <time>2012-08-09T09:29:05Z</time>
      </trkpt>
      <trkpt lat="45.30084" lon="6.09428">
        <ele>1488.7390136719</ele>
        <time>2012-08-09T09:29:11Z</time>
      </trkpt>
      <trkpt lat="45.30086" lon="6.09433">
        <ele>1489.2194824219</ele>
        <time>2012-08-09T09:29:17Z</time>
      </trkpt>
      <trkpt lat="45.30088" lon="6.09436">
        <ele>1491.1420898438</ele>
        <time>2012-08-09T09:29:21Z</time>
      </trkpt>
      <trkpt lat="45.30089" lon="6.09439">
        <ele>1491.1420898438</ele>
        <time>2012-08-09T09:29:24Z</time>
      </trkpt>
      <trkpt lat="45.30091" lon="6.09444">
        <ele>1490.6613769531</ele>
        <time>2012-08-09T09:29:29Z</time>
      </trkpt>
      <trkpt lat="45.30093" lon="6.09448">
        <ele>1491.6228027344</ele>
        <time>2012-08-09T09:29:34Z</time>
      </trkpt>
      <trkpt lat="45.30095" lon="6.09451">
        <ele>1492.5842285156</ele>
        <time>2012-08-09T09:29:38Z</time>
      </trkpt>
      <trkpt lat="45.30097" lon="6.09455">
        <ele>1493.5454101562</ele>
        <time>2012-08-09T09:29:43Z</time>
      </trkpt>
      <trkpt lat="45.301" lon="6.09458">
        <ele>1494.0261230469</ele>
        <time>2012-08-09T09:29:48Z</time>
      </trkpt>
      <trkpt lat="45.30103" lon="6.09465">
        <ele>1493.5454101562</ele>
        <time>2012-08-09T09:29:54Z</time>
      </trkpt>
      <trkpt lat="45.30105" lon="6.09468">
        <ele>1493.0646972656</ele>
        <time>2012-08-09T09:29:57Z</time>
      </trkpt>
      <trkpt lat="45.3011" lon="6.09472">
        <ele>1494.0261230469</ele>
        <time>2012-08-09T09:30:04Z</time>
      </trkpt>
      <trkpt lat="45.30112" lon="6.09476">
        <ele>1494.5065917969</ele>
        <time>2012-08-09T09:30:09Z</time>
      </trkpt>
      <trkpt lat="45.30114" lon="6.09479">
        <ele>1495.4680175781</ele>
        <time>2012-08-09T09:30:13Z</time>
      </trkpt>
      <trkpt lat="45.30117" lon="6.09482">
        <ele>1496.4294433594</ele>
        <time>2012-08-09T09:30:18Z</time>
      </trkpt>
      <trkpt lat="45.3012" lon="6.09486">
        <ele>1497.390625</ele>
        <time>2012-08-09T09:30:24Z</time>
      </trkpt>
      <trkpt lat="45.30124" lon="6.09491">
        <ele>1498.3518066406</ele>
        <time>2012-08-09T09:30:30Z</time>
      </trkpt>
      <trkpt lat="45.30126" lon="6.09494">
        <ele>1500.2749023438</ele>
        <time>2012-08-09T09:30:35Z</time>
      </trkpt>
      <trkpt lat="45.30127" lon="6.09498">
        <ele>1501.2360839844</ele>
        <time>2012-08-09T09:30:40Z</time>
      </trkpt>
      <trkpt lat="45.30129" lon="6.09502">
        <ele>1501.716796875</ele>
        <time>2012-08-09T09:30:45Z</time>
      </trkpt>
      <trkpt lat="45.30132" lon="6.09506">
        <ele>1504.6005859375</ele>
        <time>2012-08-09T09:30:51Z</time>
      </trkpt>
      <trkpt lat="45.30132" lon="6.0951">
        <ele>1507.4846191406</ele>
        <time>2012-08-09T09:30:56Z</time>
      </trkpt>
      <trkpt lat="45.30133" lon="6.09514">
        <ele>1508.4458007812</ele>
        <time>2012-08-09T09:31:00Z</time>
      </trkpt>
      <trkpt lat="45.30135" lon="6.09518">
        <ele>1509.4072265625</ele>
        <time>2012-08-09T09:31:06Z</time>
      </trkpt>
      <trkpt lat="45.30137" lon="6.09522">
        <ele>1510.8491210938</ele>
        <time>2012-08-09T09:31:11Z</time>
      </trkpt>
      <trkpt lat="45.3014" lon="6.09526">
        <ele>1512.291015625</ele>
        <time>2012-08-09T09:31:17Z</time>
      </trkpt>
      <trkpt lat="45.30141" lon="6.0953">
        <ele>1513.2524414062</ele>
        <time>2012-08-09T09:31:22Z</time>
      </trkpt>
      <trkpt lat="45.30143" lon="6.09535">
        <ele>1513.7329101562</ele>
        <time>2012-08-09T09:31:26Z</time>
      </trkpt>
      <trkpt lat="45.30144" lon="6.09539">
        <ele>1514.2136230469</ele>
        <time>2012-08-09T09:31:30Z</time>
      </trkpt>
      <trkpt lat="45.30146" lon="6.09543">
        <ele>1514.2136230469</ele>
        <time>2012-08-09T09:31:34Z</time>
      </trkpt>
      <trkpt lat="45.30149" lon="6.09548">
        <ele>1514.2136230469</ele>
        <time>2012-08-09T09:31:39Z</time>
      </trkpt>
      <trkpt lat="45.30148" lon="6.09551">
        <ele>1515.1750488281</ele>
        <time>2012-08-09T09:31:45Z</time>
      </trkpt>
      <trkpt lat="45.3015" lon="6.09556">
        <ele>1516.6171875</ele>
        <time>2012-08-09T09:31:50Z</time>
      </trkpt>
      <trkpt lat="45.30151" lon="6.09559">
        <ele>1517.5783691406</ele>
        <time>2012-08-09T09:31:55Z</time>
      </trkpt>
      <trkpt lat="45.30151" lon="6.09559">
        <ele>1520.4624023438</ele>
        <time>2012-08-09T09:32:02Z</time>
      </trkpt>
      <trkpt lat="45.30151" lon="6.09563">
        <ele>1519.5012207031</ele>
        <time>2012-08-09T09:32:12Z</time>
      </trkpt>
      <trkpt lat="45.30154" lon="6.09566">
        <ele>1520.4624023438</ele>
        <time>2012-08-09T09:32:17Z</time>
      </trkpt>
      <trkpt lat="45.30157" lon="6.0957">
        <ele>1520.9431152344</ele>
        <time>2012-08-09T09:32:22Z</time>
      </trkpt>
      <trkpt lat="45.30159" lon="6.09572">
        <ele>1521.904296875</ele>
        <time>2012-08-09T09:32:26Z</time>
      </trkpt>
      <trkpt lat="45.30161" lon="6.09575">
        <ele>1523.3464355469</ele>
        <time>2012-08-09T09:32:31Z</time>
      </trkpt>
      <trkpt lat="45.30162" lon="6.09577">
        <ele>1524.3076171875</ele>
        <time>2012-08-09T09:32:35Z</time>
      </trkpt>
      <trkpt lat="45.30164" lon="6.09579">
        <ele>1525.2687988281</ele>
        <time>2012-08-09T09:32:39Z</time>
      </trkpt>
      <trkpt lat="45.30165" lon="6.09583">
        <ele>1526.2302246094</ele>
        <time>2012-08-09T09:32:44Z</time>
      </trkpt>
      <trkpt lat="45.30169" lon="6.09585">
        <ele>1527.6721191406</ele>
        <time>2012-08-09T09:32:49Z</time>
      </trkpt>
      <trkpt lat="45.30172" lon="6.09586">
        <ele>1529.5947265625</ele>
        <time>2012-08-09T09:32:54Z</time>
      </trkpt>
      <trkpt lat="45.30174" lon="6.09587">
        <ele>1530.5561523438</ele>
        <time>2012-08-09T09:32:58Z</time>
      </trkpt>
      <trkpt lat="45.3018" lon="6.09589">
        <ele>1532.9594726562</ele>
        <time>2012-08-09T09:33:04Z</time>
      </trkpt>
      <trkpt lat="45.30183" lon="6.09593">
        <ele>1533.4401855469</ele>
        <time>2012-08-09T09:33:09Z</time>
      </trkpt>
      <trkpt lat="45.30186" lon="6.09596">
        <ele>1533.9208984375</ele>
        <time>2012-08-09T09:33:15Z</time>
      </trkpt>
      <trkpt lat="45.30191" lon="6.096">
        <ele>1533.9208984375</ele>
        <time>2012-08-09T09:33:21Z</time>
      </trkpt>
      <trkpt lat="45.30196" lon="6.09603">
        <ele>1533.9208984375</ele>
        <time>2012-08-09T09:33:26Z</time>
      </trkpt>
      <trkpt lat="45.30203" lon="6.09608">
        <ele>1534.8823242188</ele>
        <time>2012-08-09T09:33:34Z</time>
      </trkpt>
      <trkpt lat="45.30208" lon="6.09609">
        <ele>1536.32421875</ele>
        <time>2012-08-09T09:33:40Z</time>
      </trkpt>
      <trkpt lat="45.30213" lon="6.09609">
        <ele>1537.2854003906</ele>
        <time>2012-08-09T09:33:46Z</time>
      </trkpt>
      <trkpt lat="45.30217" lon="6.09613">
        <ele>1538.2468261719</ele>
        <time>2012-08-09T09:33:52Z</time>
      </trkpt>
      <trkpt lat="45.30219" lon="6.09616">
        <ele>1538.2468261719</ele>
        <time>2012-08-09T09:33:56Z</time>
      </trkpt>
      <trkpt lat="45.30222" lon="6.09619">
        <ele>1539.6887207031</ele>
        <time>2012-08-09T09:34:01Z</time>
      </trkpt>
      <trkpt lat="45.30225" lon="6.09622">
        <ele>1540.1694335938</ele>
        <time>2012-08-09T09:34:05Z</time>
      </trkpt>
      <trkpt lat="45.30223" lon="6.09624">
        <ele>1540.6499023438</ele>
        <time>2012-08-09T09:34:09Z</time>
      </trkpt>
      <trkpt lat="45.30221" lon="6.09626">
        <ele>1541.611328125</ele>
        <time>2012-08-09T09:34:14Z</time>
      </trkpt>
      <trkpt lat="45.30219" lon="6.09628">
        <ele>1543.0532226562</ele>
        <time>2012-08-09T09:34:19Z</time>
      </trkpt>
      <trkpt lat="45.30217" lon="6.09633">
        <ele>1542.5727539062</ele>
        <time>2012-08-09T09:34:28Z</time>
      </trkpt>
      <trkpt lat="45.30213" lon="6.09633">
        <ele>1546.41796875</ele>
        <time>2012-08-09T09:34:35Z</time>
      </trkpt>
      <trkpt lat="45.30207" lon="6.09636">
        <ele>1546.8984375</ele>
        <time>2012-08-09T09:34:42Z</time>
      </trkpt>
      <trkpt lat="45.30209" lon="6.0964">
        <ele>1546.41796875</ele>
        <time>2012-08-09T09:34:48Z</time>
      </trkpt>
      <trkpt lat="45.30211" lon="6.09641">
        <ele>1545.9372558594</ele>
        <time>2012-08-09T09:34:54Z</time>
      </trkpt>
      <trkpt lat="45.30214" lon="6.09645">
        <ele>1545.4565429688</ele>
        <time>2012-08-09T09:35:00Z</time>
      </trkpt>
      <trkpt lat="45.30215" lon="6.09647">
        <ele>1548.3405761719</ele>
        <time>2012-08-09T09:35:05Z</time>
      </trkpt>
      <trkpt lat="45.30216" lon="6.09648">
        <ele>1552.1857910156</ele>
        <time>2012-08-09T09:35:11Z</time>
      </trkpt>
      <trkpt lat="45.30214" lon="6.09651">
        <ele>1552.1857910156</ele>
        <time>2012-08-09T09:35:15Z</time>
      </trkpt>
      <trkpt lat="45.3021" lon="6.09655">
        <ele>1552.1857910156</ele>
        <time>2012-08-09T09:35:21Z</time>
      </trkpt>
      <trkpt lat="45.30207" lon="6.09656">
        <ele>1554.1086425781</ele>
        <time>2012-08-09T09:35:26Z</time>
      </trkpt>
      <trkpt lat="45.30207" lon="6.09656">
        <ele>1559.3957519531</ele>
        <time>2012-08-09T09:35:32Z</time>
      </trkpt>
      <trkpt lat="45.30208" lon="6.09656">
        <ele>1565.64453125</ele>
        <time>2012-08-09T09:35:40Z</time>
      </trkpt>
      <trkpt lat="45.30205" lon="6.09662">
        <ele>1568.0476074219</ele>
        <time>2012-08-09T09:35:51Z</time>
      </trkpt>
      <trkpt lat="45.30205" lon="6.09664">
        <ele>1569.4897460938</ele>
        <time>2012-08-09T09:35:58Z</time>
      </trkpt>
      <trkpt lat="45.30206" lon="6.09664">
        <ele>1571.412109375</ele>
        <time>2012-08-09T09:36:03Z</time>
      </trkpt>
      <trkpt lat="45.30207" lon="6.09666">
        <ele>1570.931640625</ele>
        <time>2012-08-09T09:36:10Z</time>
      </trkpt>
      <trkpt lat="45.30209" lon="6.09669">
        <ele>1571.8928222656</ele>
        <time>2012-08-09T09:36:17Z</time>
      </trkpt>
      <trkpt lat="45.30208" lon="6.09671">
        <ele>1571.412109375</ele>
        <time>2012-08-09T09:36:22Z</time>
      </trkpt>
      <trkpt lat="45.30204" lon="6.09676">
        <ele>1569.9702148438</ele>
        <time>2012-08-09T09:36:27Z</time>
      </trkpt>
      <trkpt lat="45.30203" lon="6.09681">
        <ele>1570.931640625</ele>
        <time>2012-08-09T09:36:32Z</time>
      </trkpt>
      <trkpt lat="45.30202" lon="6.09685">
        <ele>1572.3735351562</ele>
        <time>2012-08-09T09:36:37Z</time>
      </trkpt>
      <trkpt lat="45.30197" lon="6.09688">
        <ele>1574.2961425781</ele>
        <time>2012-08-09T09:36:43Z</time>
      </trkpt>
      <trkpt lat="45.30194" lon="6.09689">
        <ele>1574.7768554688</ele>
        <time>2012-08-09T09:36:48Z</time>
      </trkpt>
      <trkpt lat="45.30193" lon="6.09692">
        <ele>1577.1801757812</ele>
        <time>2012-08-09T09:36:55Z</time>
      </trkpt>
      <trkpt lat="45.30188" lon="6.09697">
        <ele>1576.21875</ele>
        <time>2012-08-09T09:37:02Z</time>
      </trkpt>
      <trkpt lat="45.30181" lon="6.09703">
        <ele>1574.2961425781</ele>
        <time>2012-08-09T09:37:09Z</time>
      </trkpt>
      <trkpt lat="45.3018" lon="6.09704">
        <ele>1574.7768554688</ele>
        <time>2012-08-09T09:37:12Z</time>
      </trkpt>
      <trkpt lat="45.30182" lon="6.09706">
        <ele>1576.21875</ele>
        <time>2012-08-09T09:37:17Z</time>
      </trkpt>
      <trkpt lat="45.30181" lon="6.09708">
        <ele>1575.7380371094</ele>
        <time>2012-08-09T09:37:23Z</time>
      </trkpt>
      <trkpt lat="45.30184" lon="6.09712">
        <ele>1575.2573242188</ele>
        <time>2012-08-09T09:37:30Z</time>
      </trkpt>
      <trkpt lat="45.30184" lon="6.09712">
        <ele>1578.6220703125</ele>
        <time>2012-08-09T09:37:36Z</time>
      </trkpt>
      <trkpt lat="45.30183" lon="6.09714">
        <ele>1580.544921875</ele>
        <time>2012-08-09T09:37:43Z</time>
      </trkpt>
      <trkpt lat="45.30187" lon="6.09715">
        <ele>1583.9094238281</ele>
        <time>2012-08-09T09:37:50Z</time>
      </trkpt>
      <trkpt lat="45.30189" lon="6.09717">
        <ele>1585.83203125</ele>
        <time>2012-08-09T09:37:56Z</time>
      </trkpt>
      <trkpt lat="45.30188" lon="6.09722">
        <ele>1587.2739257812</ele>
        <time>2012-08-09T09:38:04Z</time>
      </trkpt>
      <trkpt lat="45.30187" lon="6.09724">
        <ele>1588.7160644531</ele>
        <time>2012-08-09T09:38:08Z</time>
      </trkpt>
      <trkpt lat="45.30189" lon="6.09728">
        <ele>1587.7546386719</ele>
        <time>2012-08-09T09:38:14Z</time>
      </trkpt>
      <trkpt lat="45.30191" lon="6.09731">
        <ele>1589.1965332031</ele>
        <time>2012-08-09T09:38:18Z</time>
      </trkpt>
      <trkpt lat="45.30192" lon="6.09735">
        <ele>1592.0805664062</ele>
        <time>2012-08-09T09:38:24Z</time>
      </trkpt>
      <trkpt lat="45.30193" lon="6.09737">
        <ele>1593.5224609375</ele>
        <time>2012-08-09T09:38:30Z</time>
      </trkpt>
      <trkpt lat="45.30195" lon="6.09739">
        <ele>1596.8872070312</ele>
        <time>2012-08-09T09:38:37Z</time>
      </trkpt>
      <trkpt lat="45.30192" lon="6.09739">
        <ele>1597.3679199219</ele>
        <time>2012-08-09T09:38:43Z</time>
      </trkpt>
      <trkpt lat="45.30194" lon="6.0974">
        <ele>1597.3679199219</ele>
        <time>2012-08-09T09:38:51Z</time>
      </trkpt>
      <trkpt lat="45.30194" lon="6.09744">
        <ele>1598.3291015625</ele>
        <time>2012-08-09T09:38:55Z</time>
      </trkpt>
      <trkpt lat="45.30195" lon="6.09748">
        <ele>1599.7712402344</ele>
        <time>2012-08-09T09:39:00Z</time>
      </trkpt>
      <trkpt lat="45.30196" lon="6.09751">
        <ele>1602.6550292969</ele>
        <time>2012-08-09T09:39:06Z</time>
      </trkpt>
      <trkpt lat="45.30198" lon="6.09754">
        <ele>1603.1357421875</ele>
        <time>2012-08-09T09:39:12Z</time>
      </trkpt>
      <trkpt lat="45.30199" lon="6.09756">
        <ele>1605.0583496094</ele>
        <time>2012-08-09T09:39:17Z</time>
      </trkpt>
      <trkpt lat="45.30201" lon="6.09761">
        <ele>1606.9809570312</ele>
        <time>2012-08-09T09:39:27Z</time>
      </trkpt>
      <trkpt lat="45.30202" lon="6.09765">
        <ele>1608.9035644531</ele>
        <time>2012-08-09T09:39:35Z</time>
      </trkpt>
      <trkpt lat="45.30204" lon="6.09769">
        <ele>1610.3454589844</ele>
        <time>2012-08-09T09:39:40Z</time>
      </trkpt>
      <trkpt lat="45.30205" lon="6.09772">
        <ele>1611.3068847656</ele>
        <time>2012-08-09T09:39:45Z</time>
      </trkpt>
      <trkpt lat="45.30207" lon="6.09774">
        <ele>1614.1909179688</ele>
        <time>2012-08-09T09:39:51Z</time>
      </trkpt>
      <trkpt lat="45.30206" lon="6.09779">
        <ele>1615.15234375</ele>
        <time>2012-08-09T09:39:56Z</time>
      </trkpt>
      <trkpt lat="45.30207" lon="6.09783">
        <ele>1615.6330566406</ele>
        <time>2012-08-09T09:40:02Z</time>
      </trkpt>
      <trkpt lat="45.30204" lon="6.09787">
        <ele>1615.6330566406</ele>
        <time>2012-08-09T09:40:08Z</time>
      </trkpt>
      <trkpt lat="45.30203" lon="6.09791">
        <ele>1618.5168457031</ele>
        <time>2012-08-09T09:40:14Z</time>
      </trkpt>
      <trkpt lat="45.30203" lon="6.09796">
        <ele>1619.4782714844</ele>
        <time>2012-08-09T09:40:19Z</time>
      </trkpt>
      <trkpt lat="45.30207" lon="6.09796">
        <ele>1619.9587402344</ele>
        <time>2012-08-09T09:40:28Z</time>
      </trkpt>
      <trkpt lat="45.30208" lon="6.09798">
        <ele>1621.4006347656</ele>
        <time>2012-08-09T09:40:33Z</time>
      </trkpt>
      <trkpt lat="45.30207" lon="6.09803">
        <ele>1623.3234863281</ele>
        <time>2012-08-09T09:40:39Z</time>
      </trkpt>
      <trkpt lat="45.30207" lon="6.09809">
        <ele>1622.3620605469</ele>
        <time>2012-08-09T09:40:45Z</time>
      </trkpt>
      <trkpt lat="45.30206" lon="6.09814">
        <ele>1620.9201660156</ele>
        <time>2012-08-09T09:40:51Z</time>
      </trkpt>
      <trkpt lat="45.30206" lon="6.09818">
        <ele>1619.9587402344</ele>
        <time>2012-08-09T09:40:58Z</time>
      </trkpt>
      <trkpt lat="45.30204" lon="6.09822">
        <ele>1622.3620605469</ele>
        <time>2012-08-09T09:41:04Z</time>
      </trkpt>
      <trkpt lat="45.30204" lon="6.09825">
        <ele>1622.8427734375</ele>
        <time>2012-08-09T09:41:09Z</time>
      </trkpt>
      <trkpt lat="45.30203" lon="6.09828">
        <ele>1623.8039550781</ele>
        <time>2012-08-09T09:41:13Z</time>
      </trkpt>
      <trkpt lat="45.30202" lon="6.09832">
        <ele>1626.6879882812</ele>
        <time>2012-08-09T09:41:20Z</time>
      </trkpt>
      <trkpt lat="45.30203" lon="6.09835">
        <ele>1626.6879882812</ele>
        <time>2012-08-09T09:41:25Z</time>
      </trkpt>
      <trkpt lat="45.30204" lon="6.09839">
        <ele>1625.7265625</ele>
        <time>2012-08-09T09:41:31Z</time>
      </trkpt>
      <trkpt lat="45.30203" lon="6.09844">
        <ele>1625.2458496094</ele>
        <time>2012-08-09T09:41:37Z</time>
      </trkpt>
      <trkpt lat="45.30202" lon="6.09847">
        <ele>1626.2072753906</ele>
        <time>2012-08-09T09:41:42Z</time>
      </trkpt>
      <trkpt lat="45.302" lon="6.09854">
        <ele>1627.1687011719</ele>
        <time>2012-08-09T09:41:51Z</time>
      </trkpt>
      <trkpt lat="45.30201" lon="6.09858">
        <ele>1630.5334472656</ele>
        <time>2012-08-09T09:41:58Z</time>
      </trkpt>
      <trkpt lat="45.30202" lon="6.09862">
        <ele>1631.9753417969</ele>
        <time>2012-08-09T09:42:03Z</time>
      </trkpt>
      <trkpt lat="45.30201" lon="6.09865">
        <ele>1633.8979492188</ele>
        <time>2012-08-09T09:42:08Z</time>
      </trkpt>
      <trkpt lat="45.30201" lon="6.09868">
        <ele>1635.33984375</ele>
        <time>2012-08-09T09:42:13Z</time>
      </trkpt>
      <trkpt lat="45.30201" lon="6.09871">
        <ele>1636.7817382812</ele>
        <time>2012-08-09T09:42:18Z</time>
      </trkpt>
      <trkpt lat="45.30202" lon="6.09875">
        <ele>1637.2624511719</ele>
        <time>2012-08-09T09:42:24Z</time>
      </trkpt>
      <trkpt lat="45.30202" lon="6.0988">
        <ele>1637.7431640625</ele>
        <time>2012-08-09T09:42:30Z</time>
      </trkpt>
      <trkpt lat="45.30201" lon="6.09883">
        <ele>1638.2238769531</ele>
        <time>2012-08-09T09:42:35Z</time>
      </trkpt>
      <trkpt lat="45.30202" lon="6.09886">
        <ele>1641.1076660156</ele>
        <time>2012-08-09T09:42:40Z</time>
      </trkpt>
      <trkpt lat="45.30201" lon="6.09888">
        <ele>1643.5109863281</ele>
        <time>2012-08-09T09:42:46Z</time>
      </trkpt>
      <trkpt lat="45.302" lon="6.09891">
        <ele>1644.953125</ele>
        <time>2012-08-09T09:42:51Z</time>
      </trkpt>
      <trkpt lat="45.30199" lon="6.09893">
        <ele>1646.3952636719</ele>
        <time>2012-08-09T09:42:56Z</time>
      </trkpt>
      <trkpt lat="45.30196" lon="6.09894">
        <ele>1647.3564453125</ele>
        <time>2012-08-09T09:43:03Z</time>
      </trkpt>
      <trkpt lat="45.30193" lon="6.09893">
        <ele>1648.3176269531</ele>
        <time>2012-08-09T09:43:09Z</time>
      </trkpt>
      <trkpt lat="45.30187" lon="6.0989">
        <ele>1647.8371582031</ele>
        <time>2012-08-09T09:43:17Z</time>
      </trkpt>
      <trkpt lat="45.3018" lon="6.09888">
        <ele>1648.3176269531</ele>
        <time>2012-08-09T09:43:26Z</time>
      </trkpt>
      <trkpt lat="45.30176" lon="6.09889">
        <ele>1648.7983398438</ele>
        <time>2012-08-09T09:43:32Z</time>
      </trkpt>
      <trkpt lat="45.30173" lon="6.09891">
        <ele>1648.7983398438</ele>
        <time>2012-08-09T09:43:38Z</time>
      </trkpt>
      <trkpt lat="45.3017" lon="6.0989">
        <ele>1652.1628417969</ele>
        <time>2012-08-09T09:43:45Z</time>
      </trkpt>
      <trkpt lat="45.30167" lon="6.09892">
        <ele>1653.6049804688</ele>
        <time>2012-08-09T09:43:53Z</time>
      </trkpt>
      <trkpt lat="45.30166" lon="6.09894">
        <ele>1656.4887695312</ele>
        <time>2012-08-09T09:44:01Z</time>
      </trkpt>
      <trkpt lat="45.30166" lon="6.09896">
        <ele>1657.9309082031</ele>
        <time>2012-08-09T09:44:07Z</time>
      </trkpt>
      <trkpt lat="45.30169" lon="6.09899">
        <ele>1658.8920898438</ele>
        <time>2012-08-09T09:44:15Z</time>
      </trkpt>
      <trkpt lat="45.30167" lon="6.09903">
        <ele>1659.8532714844</ele>
        <time>2012-08-09T09:44:20Z</time>
      </trkpt>
      <trkpt lat="45.30167" lon="6.09905">
        <ele>1660.8149414062</ele>
        <time>2012-08-09T09:44:25Z</time>
      </trkpt>
      <trkpt lat="45.30168" lon="6.09908">
        <ele>1661.2956542969</ele>
        <time>2012-08-09T09:44:31Z</time>
      </trkpt>
      <trkpt lat="45.30171" lon="6.09911">
        <ele>1662.2568359375</ele>
        <time>2012-08-09T09:44:36Z</time>
      </trkpt>
      <trkpt lat="45.30173" lon="6.09917">
        <ele>1663.2182617188</ele>
        <time>2012-08-09T09:44:43Z</time>
      </trkpt>
      <trkpt lat="45.30176" lon="6.09919">
        <ele>1663.6987304688</ele>
        <time>2012-08-09T09:44:48Z</time>
      </trkpt>
      <trkpt lat="45.30179" lon="6.09924">
        <ele>1664.66015625</ele>
        <time>2012-08-09T09:44:54Z</time>
      </trkpt>
      <trkpt lat="45.30177" lon="6.09927">
        <ele>1665.6215820312</ele>
        <time>2012-08-09T09:44:59Z</time>
      </trkpt>
      <trkpt lat="45.30176" lon="6.0993">
        <ele>1667.0634765625</ele>
        <time>2012-08-09T09:45:06Z</time>
      </trkpt>
      <trkpt lat="45.30174" lon="6.09933">
        <ele>1667.5439453125</ele>
        <time>2012-08-09T09:45:12Z</time>
      </trkpt>
      <trkpt lat="45.30171" lon="6.09935">
        <ele>1667.5439453125</ele>
        <time>2012-08-09T09:45:18Z</time>
      </trkpt>
      <trkpt lat="45.30168" lon="6.09937">
        <ele>1668.0246582031</ele>
        <time>2012-08-09T09:45:25Z</time>
      </trkpt>
      <trkpt lat="45.30163" lon="6.09939">
        <ele>1669.466796875</ele>
        <time>2012-08-09T09:45:32Z</time>
      </trkpt>
      <trkpt lat="45.3016" lon="6.09941">
        <ele>1670.4279785156</ele>
        <time>2012-08-09T09:45:37Z</time>
      </trkpt>
      <trkpt lat="45.30157" lon="6.09944">
        <ele>1671.3891601562</ele>
        <time>2012-08-09T09:45:42Z</time>
      </trkpt>
      <trkpt lat="45.3015" lon="6.09947">
        <ele>1672.3505859375</ele>
        <time>2012-08-09T09:45:50Z</time>
      </trkpt>
      <trkpt lat="45.30147" lon="6.09949">
        <ele>1672.8312988281</ele>
        <time>2012-08-09T09:45:55Z</time>
      </trkpt>
      <trkpt lat="45.30143" lon="6.09951">
        <ele>1674.2731933594</ele>
        <time>2012-08-09T09:46:01Z</time>
      </trkpt>
      <trkpt lat="45.30138" lon="6.09953">
        <ele>1675.7150878906</ele>
        <time>2012-08-09T09:46:09Z</time>
      </trkpt>
      <trkpt lat="45.30136" lon="6.09956">
        <ele>1677.1574707031</ele>
        <time>2012-08-09T09:46:14Z</time>
      </trkpt>
      <trkpt lat="45.30135" lon="6.09957">
        <ele>1678.5993652344</ele>
        <time>2012-08-09T09:46:18Z</time>
      </trkpt>
      <trkpt lat="45.30135" lon="6.09961">
        <ele>1679.560546875</ele>
        <time>2012-08-09T09:46:24Z</time>
      </trkpt>
      <trkpt lat="45.30134" lon="6.09966">
        <ele>1680.5219726562</ele>
        <time>2012-08-09T09:46:29Z</time>
      </trkpt>
      <trkpt lat="45.30134" lon="6.09972">
        <ele>1681.0026855469</ele>
        <time>2012-08-09T09:46:36Z</time>
      </trkpt>
      <trkpt lat="45.30134" lon="6.09979">
        <ele>1681.0026855469</ele>
        <time>2012-08-09T09:46:42Z</time>
      </trkpt>
      <trkpt lat="45.30133" lon="6.09984">
        <ele>1681.4831542969</ele>
        <time>2012-08-09T09:46:46Z</time>
      </trkpt>
      <trkpt lat="45.30131" lon="6.09991">
        <ele>1682.4445800781</ele>
        <time>2012-08-09T09:46:52Z</time>
      </trkpt>
      <trkpt lat="45.3013" lon="6.09997">
        <ele>1683.8864746094</ele>
        <time>2012-08-09T09:46:58Z</time>
      </trkpt>
      <trkpt lat="45.30133" lon="6.10005">
        <ele>1684.8479003906</ele>
        <time>2012-08-09T09:47:06Z</time>
      </trkpt>
      <trkpt lat="45.30137" lon="6.1001">
        <ele>1685.8090820312</ele>
        <time>2012-08-09T09:47:14Z</time>
      </trkpt>
      <trkpt lat="45.30139" lon="6.10017">
        <ele>1687.2509765625</ele>
        <time>2012-08-09T09:47:22Z</time>
      </trkpt>
      <trkpt lat="45.30138" lon="6.10024">
        <ele>1689.654296875</ele>
        <time>2012-08-09T09:47:31Z</time>
      </trkpt>
      <trkpt lat="45.30138" lon="6.10029">
        <ele>1692.0578613281</ele>
        <time>2012-08-09T09:47:38Z</time>
      </trkpt>
      <trkpt lat="45.3014" lon="6.10035">
        <ele>1693.4997558594</ele>
        <time>2012-08-09T09:47:44Z</time>
      </trkpt>
      <trkpt lat="45.30139" lon="6.10041">
        <ele>1694.9416503906</ele>
        <time>2012-08-09T09:47:50Z</time>
      </trkpt>
      <trkpt lat="45.30139" lon="6.10046">
        <ele>1695.9030761719</ele>
        <time>2012-08-09T09:47:55Z</time>
      </trkpt>
      <trkpt lat="45.30138" lon="6.10055">
        <ele>1695.9030761719</ele>
        <time>2012-08-09T09:48:02Z</time>
      </trkpt>
      <trkpt lat="45.30138" lon="6.10063">
        <ele>1696.3837890625</ele>
        <time>2012-08-09T09:48:08Z</time>
      </trkpt>
      <trkpt lat="45.30138" lon="6.10068">
        <ele>1697.3449707031</ele>
        <time>2012-08-09T09:48:12Z</time>
      </trkpt>
      <trkpt lat="45.30138" lon="6.10075">
        <ele>1698.3061523438</ele>
        <time>2012-08-09T09:48:18Z</time>
      </trkpt>
      <trkpt lat="45.30136" lon="6.10082">
        <ele>1698.7868652344</ele>
        <time>2012-08-09T09:48:24Z</time>
      </trkpt>
      <trkpt lat="45.30136" lon="6.10087">
        <ele>1699.267578125</ele>
        <time>2012-08-09T09:48:29Z</time>
      </trkpt>
      <trkpt lat="45.30136" lon="6.10093">
        <ele>1702.1513671875</ele>
        <time>2012-08-09T09:48:36Z</time>
      </trkpt>
      <trkpt lat="45.30136" lon="6.10097">
        <ele>1704.07421875</ele>
        <time>2012-08-09T09:48:41Z</time>
      </trkpt>
      <trkpt lat="45.30137" lon="6.101">
        <ele>1705.0354003906</ele>
        <time>2012-08-09T09:48:45Z</time>
      </trkpt>
      <trkpt lat="45.30137" lon="6.10104">
        <ele>1705.9965820312</ele>
        <time>2012-08-09T09:48:49Z</time>
      </trkpt>
      <trkpt lat="45.30136" lon="6.10108">
        <ele>1706.9580078125</ele>
        <time>2012-08-09T09:48:54Z</time>
      </trkpt>
      <trkpt lat="45.30134" lon="6.10112">
        <ele>1707.4387207031</ele>
        <time>2012-08-09T09:49:00Z</time>
      </trkpt>
      <trkpt lat="45.30131" lon="6.10118">
        <ele>1709.3615722656</ele>
        <time>2012-08-09T09:49:07Z</time>
      </trkpt>
      <trkpt lat="45.3013" lon="6.10124">
        <ele>1710.8034667969</ele>
        <time>2012-08-09T09:49:13Z</time>
      </trkpt>
      <trkpt lat="45.30132" lon="6.10127">
        <ele>1712.7260742188</ele>
        <time>2012-08-09T09:49:17Z</time>
      </trkpt>
      <trkpt lat="45.30129" lon="6.10131">
        <ele>1713.2067871094</ele>
        <time>2012-08-09T09:49:21Z</time>
      </trkpt>
      <trkpt lat="45.30126" lon="6.10136">
        <ele>1714.16796875</ele>
        <time>2012-08-09T09:49:27Z</time>
      </trkpt>
      <trkpt lat="45.30124" lon="6.1014">
        <ele>1714.16796875</ele>
        <time>2012-08-09T09:49:31Z</time>
      </trkpt>
      <trkpt lat="45.30122" lon="6.10143">
        <ele>1714.16796875</ele>
        <time>2012-08-09T09:49:36Z</time>
      </trkpt>
      <trkpt lat="45.30119" lon="6.10149">
        <ele>1714.16796875</ele>
        <time>2012-08-09T09:49:41Z</time>
      </trkpt>
      <trkpt lat="45.30119" lon="6.10153">
        <ele>1714.6486816406</ele>
        <time>2012-08-09T09:49:45Z</time>
      </trkpt>
      <trkpt lat="45.30115" lon="6.1016">
        <ele>1714.16796875</ele>
        <time>2012-08-09T09:49:52Z</time>
      </trkpt>
      <trkpt lat="45.30112" lon="6.10165">
        <ele>1716.5712890625</ele>
        <time>2012-08-09T09:49:58Z</time>
      </trkpt>
      <trkpt lat="45.30111" lon="6.10171">
        <ele>1717.5324707031</ele>
        <time>2012-08-09T09:50:04Z</time>
      </trkpt>
      <trkpt lat="45.30109" lon="6.10175">
        <ele>1718.4938964844</ele>
        <time>2012-08-09T09:50:08Z</time>
      </trkpt>
      <trkpt lat="45.30107" lon="6.10181">
        <ele>1719.9357910156</ele>
        <time>2012-08-09T09:50:15Z</time>
      </trkpt>
      <trkpt lat="45.30104" lon="6.10185">
        <ele>1720.8972167969</ele>
        <time>2012-08-09T09:50:20Z</time>
      </trkpt>
      <trkpt lat="45.30099" lon="6.10189">
        <ele>1720.4165039062</ele>
        <time>2012-08-09T09:50:26Z</time>
      </trkpt>
      <trkpt lat="45.30093" lon="6.10194">
        <ele>1721.8583984375</ele>
        <time>2012-08-09T09:50:33Z</time>
      </trkpt>
      <trkpt lat="45.30089" lon="6.10199">
        <ele>1722.8198242188</ele>
        <time>2012-08-09T09:50:39Z</time>
      </trkpt>
      <trkpt lat="45.30087" lon="6.10205">
        <ele>1723.3005371094</ele>
        <time>2012-08-09T09:50:45Z</time>
      </trkpt>
      <trkpt lat="45.30086" lon="6.10208">
        <ele>1724.2619628906</ele>
        <time>2012-08-09T09:50:49Z</time>
      </trkpt>
      <trkpt lat="45.30085" lon="6.10212">
        <ele>1725.7038574219</ele>
        <time>2012-08-09T09:50:54Z</time>
      </trkpt>
      <trkpt lat="45.30084" lon="6.10215">
        <ele>1726.1845703125</ele>
        <time>2012-08-09T09:50:58Z</time>
      </trkpt>
      <trkpt lat="45.3008" lon="6.10218">
        <ele>1727.6264648438</ele>
        <time>2012-08-09T09:51:04Z</time>
      </trkpt>
      <trkpt lat="45.30078" lon="6.10223">
        <ele>1729.068359375</ele>
        <time>2012-08-09T09:51:09Z</time>
      </trkpt>
      <trkpt lat="45.30077" lon="6.10226">
        <ele>1731.4716796875</ele>
        <time>2012-08-09T09:51:15Z</time>
      </trkpt>
      <trkpt lat="45.30076" lon="6.10228">
        <ele>1732.4331054688</ele>
        <time>2012-08-09T09:51:20Z</time>
      </trkpt>
      <trkpt lat="45.30075" lon="6.10233">
        <ele>1733.3942871094</ele>
        <time>2012-08-09T09:51:25Z</time>
      </trkpt>
      <trkpt lat="45.30074" lon="6.10239">
        <ele>1732.9135742188</ele>
        <time>2012-08-09T09:51:31Z</time>
      </trkpt>
      <trkpt lat="45.30073" lon="6.10244">
        <ele>1733.3942871094</ele>
        <time>2012-08-09T09:51:36Z</time>
      </trkpt>
      <trkpt lat="45.30072" lon="6.10248">
        <ele>1733.875</ele>
        <time>2012-08-09T09:51:41Z</time>
      </trkpt>
      <trkpt lat="45.30074" lon="6.1025">
        <ele>1735.3168945312</ele>
        <time>2012-08-09T09:51:47Z</time>
      </trkpt>
      <trkpt lat="45.30076" lon="6.1025">
        <ele>1736.2783203125</ele>
        <time>2012-08-09T09:51:52Z</time>
      </trkpt>
      <trkpt lat="45.30078" lon="6.10252">
        <ele>1736.2783203125</ele>
        <time>2012-08-09T09:51:58Z</time>
      </trkpt>
      <trkpt lat="45.30077" lon="6.10255">
        <ele>1737.2395019531</ele>
        <time>2012-08-09T09:52:02Z</time>
      </trkpt>
      <trkpt lat="45.30077" lon="6.10258">
        <ele>1738.681640625</ele>
        <time>2012-08-09T09:52:07Z</time>
      </trkpt>
      <trkpt lat="45.30081" lon="6.10257">
        <ele>1740.1237792969</ele>
        <time>2012-08-09T09:52:13Z</time>
      </trkpt>
      <trkpt lat="45.30082" lon="6.1026">
        <ele>1741.0849609375</ele>
        <time>2012-08-09T09:52:17Z</time>
      </trkpt>
      <trkpt lat="45.3008" lon="6.10263">
        <ele>1743.0075683594</ele>
        <time>2012-08-09T09:52:21Z</time>
      </trkpt>
      <trkpt lat="45.30079" lon="6.10266">
        <ele>1744.9301757812</ele>
        <time>2012-08-09T09:52:25Z</time>
      </trkpt>
      <trkpt lat="45.30076" lon="6.1027">
        <ele>1745.8916015625</ele>
        <time>2012-08-09T09:52:31Z</time>
      </trkpt>
      <trkpt lat="45.30075" lon="6.10275">
        <ele>1746.3723144531</ele>
        <time>2012-08-09T09:52:36Z</time>
      </trkpt>
      <trkpt lat="45.30075" lon="6.1028">
        <ele>1748.2946777344</ele>
        <time>2012-08-09T09:52:43Z</time>
      </trkpt>
      <trkpt lat="45.30073" lon="6.10287">
        <ele>1751.1787109375</ele>
        <time>2012-08-09T09:52:52Z</time>
      </trkpt>
      <trkpt lat="45.30073" lon="6.10291">
        <ele>1752.6206054688</ele>
        <time>2012-08-09T09:52:57Z</time>
      </trkpt>
      <trkpt lat="45.30074" lon="6.10294">
        <ele>1753.1013183594</ele>
        <time>2012-08-09T09:53:01Z</time>
      </trkpt>
      <trkpt lat="45.30076" lon="6.10295">
        <ele>1755.0239257812</ele>
        <time>2012-08-09T09:53:07Z</time>
      </trkpt>
      <trkpt lat="45.30078" lon="6.10297">
        <ele>1756.4660644531</ele>
        <time>2012-08-09T09:53:11Z</time>
      </trkpt>
      <trkpt lat="45.3008" lon="6.10302">
        <ele>1758.8693847656</ele>
        <time>2012-08-09T09:53:18Z</time>
      </trkpt>
      <trkpt lat="45.30084" lon="6.10304">
        <ele>1759.8305664062</ele>
        <time>2012-08-09T09:53:26Z</time>
      </trkpt>
      <trkpt lat="45.30085" lon="6.10308">
        <ele>1760.3112792969</ele>
        <time>2012-08-09T09:53:31Z</time>
      </trkpt>
      <trkpt lat="45.30085" lon="6.10314">
        <ele>1761.2727050781</ele>
        <time>2012-08-09T09:53:36Z</time>
      </trkpt>
      <trkpt lat="45.30083" lon="6.1032">
        <ele>1761.7534179688</ele>
        <time>2012-08-09T09:53:41Z</time>
      </trkpt>
      <trkpt lat="45.3008" lon="6.10324">
        <ele>1761.7534179688</ele>
        <time>2012-08-09T09:53:46Z</time>
      </trkpt>
      <trkpt lat="45.30075" lon="6.10329">
        <ele>1762.2338867188</ele>
        <time>2012-08-09T09:53:52Z</time>
      </trkpt>
      <trkpt lat="45.30074" lon="6.10334">
        <ele>1762.2338867188</ele>
        <time>2012-08-09T09:53:56Z</time>
      </trkpt>
      <trkpt lat="45.30076" lon="6.10337">
        <ele>1762.7145996094</ele>
        <time>2012-08-09T09:54:01Z</time>
      </trkpt>
      <trkpt lat="45.30077" lon="6.10341">
        <ele>1763.1953125</ele>
        <time>2012-08-09T09:54:06Z</time>
      </trkpt>
      <trkpt lat="45.30076" lon="6.10346">
        <ele>1763.67578125</ele>
        <time>2012-08-09T09:54:11Z</time>
      </trkpt>
      <trkpt lat="45.30075" lon="6.10351">
        <ele>1764.6372070312</ele>
        <time>2012-08-09T09:54:16Z</time>
      </trkpt>
      <trkpt lat="45.30076" lon="6.10356">
        <ele>1766.0791015625</ele>
        <time>2012-08-09T09:54:23Z</time>
      </trkpt>
      <trkpt lat="45.30074" lon="6.10359">
        <ele>1767.5209960938</ele>
        <time>2012-08-09T09:54:27Z</time>
      </trkpt>
      <trkpt lat="45.30072" lon="6.10363">
        <ele>1767.0405273438</ele>
        <time>2012-08-09T09:54:32Z</time>
      </trkpt>
      <trkpt lat="45.30069" lon="6.10367">
        <ele>1768.482421875</ele>
        <time>2012-08-09T09:54:37Z</time>
      </trkpt>
      <trkpt lat="45.30067" lon="6.10372">
        <ele>1769.9243164062</ele>
        <time>2012-08-09T09:54:44Z</time>
      </trkpt>
      <trkpt lat="45.3007" lon="6.10374">
        <ele>1772.3278808594</ele>
        <time>2012-08-09T09:54:51Z</time>
      </trkpt>
      <trkpt lat="45.30074" lon="6.10375">
        <ele>1773.7697753906</ele>
        <time>2012-08-09T09:54:56Z</time>
      </trkpt>
      <trkpt lat="45.30076" lon="6.10378">
        <ele>1774.7312011719</ele>
        <time>2012-08-09T09:55:02Z</time>
      </trkpt>
      <trkpt lat="45.30081" lon="6.10382">
        <ele>1774.7312011719</ele>
        <time>2012-08-09T09:55:08Z</time>
      </trkpt>
      <trkpt lat="45.30082" lon="6.10386">
        <ele>1775.2116699219</ele>
        <time>2012-08-09T09:55:13Z</time>
      </trkpt>
      <trkpt lat="45.30085" lon="6.1039">
        <ele>1775.6923828125</ele>
        <time>2012-08-09T09:55:18Z</time>
      </trkpt>
      <trkpt lat="45.30088" lon="6.10393">
        <ele>1777.1345214844</ele>
        <time>2012-08-09T09:55:24Z</time>
      </trkpt>
      <trkpt lat="45.3009" lon="6.10395">
        <ele>1778.095703125</ele>
        <time>2012-08-09T09:55:28Z</time>
      </trkpt>
      <trkpt lat="45.30093" lon="6.104">
        <ele>1780.0183105469</ele>
        <time>2012-08-09T09:55:34Z</time>
      </trkpt>
      <trkpt lat="45.30095" lon="6.10405">
        <ele>1780.4990234375</ele>
        <time>2012-08-09T09:55:39Z</time>
      </trkpt>
      <trkpt lat="45.30099" lon="6.10408">
        <ele>1781.9409179688</ele>
        <time>2012-08-09T09:55:45Z</time>
      </trkpt>
      <trkpt lat="45.30099" lon="6.10412">
        <ele>1783.3828125</ele>
        <time>2012-08-09T09:55:51Z</time>
      </trkpt>
      <trkpt lat="45.30098" lon="6.10416">
        <ele>1784.8249511719</ele>
        <time>2012-08-09T09:55:56Z</time>
      </trkpt>
      <trkpt lat="45.30098" lon="6.10417">
        <ele>1785.7861328125</ele>
        <time>2012-08-09T09:56:02Z</time>
      </trkpt>
      <trkpt lat="45.30097" lon="6.10417">
        <ele>1785.7861328125</ele>
        <time>2012-08-09T09:56:10Z</time>
      </trkpt>
      <trkpt lat="45.30098" lon="6.10416">
        <ele>1786.2668457031</ele>
        <time>2012-08-09T09:56:20Z</time>
      </trkpt>
      <trkpt lat="45.30097" lon="6.10416">
        <ele>1785.3054199219</ele>
        <time>2012-08-09T09:56:32Z</time>
      </trkpt>
      <trkpt lat="45.30097" lon="6.10415">
        <ele>1784.8249511719</ele>
        <time>2012-08-09T09:56:42Z</time>
      </trkpt>
      <trkpt lat="45.30097" lon="6.10416">
        <ele>1783.8635253906</ele>
        <time>2012-08-09T09:56:57Z</time>
      </trkpt>
      <trkpt lat="45.30099" lon="6.10416">
        <ele>1782.9020996094</ele>
        <time>2012-08-09T09:57:09Z</time>
      </trkpt>
      <trkpt lat="45.30098" lon="6.10416">
        <ele>1782.4216308594</ele>
        <time>2012-08-09T09:57:33Z</time>
      </trkpt>
      <trkpt lat="45.30096" lon="6.10416">
        <ele>1782.4216308594</ele>
        <time>2012-08-09T09:58:01Z</time>
      </trkpt>
      <trkpt lat="45.30096" lon="6.10415">
        <ele>1784.3442382812</ele>
        <time>2012-08-09T09:58:16Z</time>
      </trkpt>
      <trkpt lat="45.30098" lon="6.10416">
        <ele>1784.8249511719</ele>
        <time>2012-08-09T09:58:43Z</time>
      </trkpt>
      <trkpt lat="45.30099" lon="6.10417">
        <ele>1785.7861328125</ele>
        <time>2012-08-09T09:58:57Z</time>
      </trkpt>
      <trkpt lat="45.30098" lon="6.10415">
        <ele>1785.7861328125</ele>
        <time>2012-08-09T09:59:12Z</time>
      </trkpt>
      <trkpt lat="45.30098" lon="6.10416">
        <ele>1785.3054199219</ele>
        <time>2012-08-09T09:59:17Z</time>
      </trkpt>
      <trkpt lat="45.30098" lon="6.10418">
        <ele>1785.7861328125</ele>
        <time>2012-08-09T09:59:33Z</time>
      </trkpt>
      <trkpt lat="45.30095" lon="6.10419">
        <ele>1792.515625</ele>
        <time>2012-08-09T10:00:18Z</time>
      </trkpt>
      <trkpt lat="45.30096" lon="6.10421">
        <ele>1792.99609375</ele>
        <time>2012-08-09T10:00:29Z</time>
      </trkpt>
      <trkpt lat="45.301" lon="6.10425">
        <ele>1794.4379882812</ele>
        <time>2012-08-09T10:00:36Z</time>
      </trkpt>
      <trkpt lat="45.30104" lon="6.10429">
        <ele>1794.9187011719</ele>
        <time>2012-08-09T10:00:43Z</time>
      </trkpt>
      <trkpt lat="45.30107" lon="6.10432">
        <ele>1795.8801269531</ele>
        <time>2012-08-09T10:00:50Z</time>
      </trkpt>
      <trkpt lat="45.30111" lon="6.10434">
        <ele>1796.8413085938</ele>
        <time>2012-08-09T10:00:57Z</time>
      </trkpt>
      <trkpt lat="45.30113" lon="6.10438">
        <ele>1797.802734375</ele>
        <time>2012-08-09T10:01:04Z</time>
      </trkpt>
      <trkpt lat="45.30113" lon="6.10444">
        <ele>1799.2446289062</ele>
        <time>2012-08-09T10:01:11Z</time>
      </trkpt>
      <trkpt lat="45.30116" lon="6.10446">
        <ele>1800.6865234375</ele>
        <time>2012-08-09T10:01:17Z</time>
      </trkpt>
      <trkpt lat="45.30119" lon="6.10449">
        <ele>1801.6479492188</ele>
        <time>2012-08-09T10:01:23Z</time>
      </trkpt>
      <trkpt lat="45.30122" lon="6.10451">
        <ele>1802.6091308594</ele>
        <time>2012-08-09T10:01:29Z</time>
      </trkpt>
      <trkpt lat="45.30123" lon="6.10454">
        <ele>1803.08984375</ele>
        <time>2012-08-09T10:01:35Z</time>
      </trkpt>
      <trkpt lat="45.30125" lon="6.10458">
        <ele>1803.08984375</ele>
        <time>2012-08-09T10:01:42Z</time>
      </trkpt>
      <trkpt lat="45.30129" lon="6.1046">
        <ele>1803.5705566406</ele>
        <time>2012-08-09T10:01:49Z</time>
      </trkpt>
      <trkpt lat="45.30131" lon="6.10463">
        <ele>1805.0126953125</ele>
        <time>2012-08-09T10:01:56Z</time>
      </trkpt>
      <trkpt lat="45.30133" lon="6.10467">
        <ele>1806.4545898438</ele>
        <time>2012-08-09T10:02:05Z</time>
      </trkpt>
      <trkpt lat="45.30136" lon="6.10474">
        <ele>1807.416015625</ele>
        <time>2012-08-09T10:02:12Z</time>
      </trkpt>
      <trkpt lat="45.30136" lon="6.10484">
        <ele>1808.3771972656</ele>
        <time>2012-08-09T10:02:21Z</time>
      </trkpt>
      <trkpt lat="45.30136" lon="6.10488">
        <ele>1809.3386230469</ele>
        <time>2012-08-09T10:02:25Z</time>
      </trkpt>
      <trkpt lat="45.30138" lon="6.10492">
        <ele>1810.2998046875</ele>
        <time>2012-08-09T10:02:31Z</time>
      </trkpt>
      <trkpt lat="45.30138" lon="6.10495">
        <ele>1811.7419433594</ele>
        <time>2012-08-09T10:02:37Z</time>
      </trkpt>
      <trkpt lat="45.30137" lon="6.105">
        <ele>1813.6643066406</ele>
        <time>2012-08-09T10:02:45Z</time>
      </trkpt>
      <trkpt lat="45.30137" lon="6.10505">
        <ele>1815.1064453125</ele>
        <time>2012-08-09T10:02:51Z</time>
      </trkpt>
      <trkpt lat="45.30137" lon="6.10509">
        <ele>1816.5483398438</ele>
        <time>2012-08-09T10:02:57Z</time>
      </trkpt>
      <trkpt lat="45.30138" lon="6.10513">
        <ele>1817.0290527344</ele>
        <time>2012-08-09T10:03:03Z</time>
      </trkpt>
      <trkpt lat="45.30138" lon="6.10517">
        <ele>1817.990234375</ele>
        <time>2012-08-09T10:03:09Z</time>
      </trkpt>
      <trkpt lat="45.30138" lon="6.10522">
        <ele>1817.990234375</ele>
        <time>2012-08-09T10:03:15Z</time>
      </trkpt>
      <trkpt lat="45.30138" lon="6.10527">
        <ele>1819.4323730469</ele>
        <time>2012-08-09T10:03:22Z</time>
      </trkpt>
      <trkpt lat="45.30137" lon="6.10531">
        <ele>1819.9128417969</ele>
        <time>2012-08-09T10:03:27Z</time>
      </trkpt>
      <trkpt lat="45.30137" lon="6.10535">
        <ele>1820.8745117188</ele>
        <time>2012-08-09T10:03:32Z</time>
      </trkpt>
      <trkpt lat="45.30138" lon="6.10541">
        <ele>1821.8356933594</ele>
        <time>2012-08-09T10:03:38Z</time>
      </trkpt>
      <trkpt lat="45.30138" lon="6.10546">
        <ele>1823.2778320312</ele>
        <time>2012-08-09T10:03:44Z</time>
      </trkpt>
      <trkpt lat="45.30137" lon="6.1055">
        <ele>1825.2001953125</ele>
        <time>2012-08-09T10:03:51Z</time>
      </trkpt>
      <trkpt lat="45.30136" lon="6.10556">
        <ele>1827.123046875</ele>
        <time>2012-08-09T10:03:59Z</time>
      </trkpt>
      <trkpt lat="45.30136" lon="6.10561">
        <ele>1827.603515625</ele>
        <time>2012-08-09T10:04:06Z</time>
      </trkpt>
      <trkpt lat="45.30137" lon="6.10565">
        <ele>1828.0842285156</ele>
        <time>2012-08-09T10:04:12Z</time>
      </trkpt>
      <trkpt lat="45.30137" lon="6.10569">
        <ele>1829.0454101562</ele>
        <time>2012-08-09T10:04:19Z</time>
      </trkpt>
      <trkpt lat="45.30137" lon="6.10571">
        <ele>1829.5261230469</ele>
        <time>2012-08-09T10:04:26Z</time>
      </trkpt>
      <trkpt lat="45.30136" lon="6.10573">
        <ele>1829.5261230469</ele>
        <time>2012-08-09T10:04:32Z</time>
      </trkpt>
      <trkpt lat="45.30136" lon="6.10576">
        <ele>1830.9682617188</ele>
        <time>2012-08-09T10:04:39Z</time>
      </trkpt>
      <trkpt lat="45.3014" lon="6.10576">
        <ele>1831.4487304688</ele>
        <time>2012-08-09T10:04:44Z</time>
      </trkpt>
      <trkpt lat="45.30145" lon="6.10575">
        <ele>1832.890625</ele>
        <time>2012-08-09T10:04:53Z</time>
      </trkpt>
      <trkpt lat="45.30148" lon="6.10572">
        <ele>1834.3327636719</ele>
        <time>2012-08-09T10:05:00Z</time>
      </trkpt>
      <trkpt lat="45.30152" lon="6.10571">
        <ele>1836.2556152344</ele>
        <time>2012-08-09T10:05:07Z</time>
      </trkpt>
      <trkpt lat="45.30156" lon="6.10568">
        <ele>1837.6975097656</ele>
        <time>2012-08-09T10:05:14Z</time>
      </trkpt>
      <trkpt lat="45.3016" lon="6.10566">
        <ele>1838.1782226562</ele>
        <time>2012-08-09T10:05:21Z</time>
      </trkpt>
      <trkpt lat="45.30165" lon="6.10562">
        <ele>1838.6589355469</ele>
        <time>2012-08-09T10:05:28Z</time>
      </trkpt>
      <trkpt lat="45.3017" lon="6.1056">
        <ele>1839.6201171875</ele>
        <time>2012-08-09T10:05:35Z</time>
      </trkpt>
      <trkpt lat="45.30175" lon="6.10561">
        <ele>1841.0620117188</ele>
        <time>2012-08-09T10:05:43Z</time>
      </trkpt>
      <trkpt lat="45.30181" lon="6.1056">
        <ele>1841.0620117188</ele>
        <time>2012-08-09T10:05:51Z</time>
      </trkpt>
      <trkpt lat="45.30186" lon="6.10558">
        <ele>1841.5427246094</ele>
        <time>2012-08-09T10:05:56Z</time>
      </trkpt>
      <trkpt lat="45.30188" lon="6.10556">
        <ele>1841.5427246094</ele>
        <time>2012-08-09T10:05:58Z</time>
      </trkpt>
      <trkpt lat="45.30195" lon="6.10556">
        <ele>1842.0234375</ele>
        <time>2012-08-09T10:06:05Z</time>
      </trkpt>
      <trkpt lat="45.30202" lon="6.10553">
        <ele>1842.5041503906</ele>
        <time>2012-08-09T10:06:12Z</time>
      </trkpt>
      <trkpt lat="45.30207" lon="6.10549">
        <ele>1843.9460449219</ele>
        <time>2012-08-09T10:06:19Z</time>
      </trkpt>
      <trkpt lat="45.30211" lon="6.10549">
        <ele>1845.3879394531</ele>
        <time>2012-08-09T10:06:26Z</time>
      </trkpt>
      <trkpt lat="45.30214" lon="6.10549">
        <ele>1845.8686523438</ele>
        <time>2012-08-09T10:06:31Z</time>
      </trkpt>
      <trkpt lat="45.30217" lon="6.10551">
        <ele>1846.8298339844</ele>
        <time>2012-08-09T10:06:37Z</time>
      </trkpt>
      <trkpt lat="45.30222" lon="6.1055">
        <ele>1848.7524414062</ele>
        <time>2012-08-09T10:06:45Z</time>
      </trkpt>
      <trkpt lat="45.30226" lon="6.10548">
        <ele>1849.7138671875</ele>
        <time>2012-08-09T10:06:51Z</time>
      </trkpt>
      <trkpt lat="45.30228" lon="6.10547">
        <ele>1851.1557617188</ele>
        <time>2012-08-09T10:06:57Z</time>
      </trkpt>
      <trkpt lat="45.30234" lon="6.10544">
        <ele>1852.5979003906</ele>
        <time>2012-08-09T10:07:04Z</time>
      </trkpt>
      <trkpt lat="45.30238" lon="6.10545">
        <ele>1854.0400390625</ele>
        <time>2012-08-09T10:07:10Z</time>
      </trkpt>
      <trkpt lat="45.3024" lon="6.10547">
        <ele>1855.4819335938</ele>
        <time>2012-08-09T10:07:16Z</time>
      </trkpt>
      <trkpt lat="45.30243" lon="6.10545">
        <ele>1856.923828125</ele>
        <time>2012-08-09T10:07:21Z</time>
      </trkpt>
      <trkpt lat="45.30247" lon="6.10543">
        <ele>1858.3657226562</ele>
        <time>2012-08-09T10:07:27Z</time>
      </trkpt>
      <trkpt lat="45.30254" lon="6.10543">
        <ele>1859.8076171875</ele>
        <time>2012-08-09T10:07:36Z</time>
      </trkpt>
      <trkpt lat="45.30258" lon="6.10548">
        <ele>1861.73046875</ele>
        <time>2012-08-09T10:07:43Z</time>
      </trkpt>
      <trkpt lat="45.3026" lon="6.10559">
        <ele>1861.73046875</ele>
        <time>2012-08-09T10:07:51Z</time>
      </trkpt>
      <trkpt lat="45.30261" lon="6.10562">
        <ele>1862.2109375</ele>
        <time>2012-08-09T10:07:53Z</time>
      </trkpt>
      <trkpt lat="45.30263" lon="6.10567">
        <ele>1862.2109375</ele>
        <time>2012-08-09T10:07:57Z</time>
      </trkpt>
      <trkpt lat="45.30265" lon="6.10576">
        <ele>1862.6916503906</ele>
        <time>2012-08-09T10:08:04Z</time>
      </trkpt>
      <trkpt lat="45.30268" lon="6.10582">
        <ele>1864.6142578125</ele>
        <time>2012-08-09T10:08:11Z</time>
      </trkpt>
      <trkpt lat="45.30268" lon="6.10591">
        <ele>1867.017578125</ele>
        <time>2012-08-09T10:08:19Z</time>
      </trkpt>
      <trkpt lat="45.30268" lon="6.10597">
        <ele>1868.9404296875</ele>
        <time>2012-08-09T10:08:26Z</time>
      </trkpt>
      <trkpt lat="45.3027" lon="6.106">
        <ele>1869.9016113281</ele>
        <time>2012-08-09T10:08:30Z</time>
      </trkpt>
      <trkpt lat="45.3027" lon="6.10606">
        <ele>1871.3435058594</ele>
        <time>2012-08-09T10:08:36Z</time>
      </trkpt>
      <trkpt lat="45.30275" lon="6.1061">
        <ele>1871.82421875</ele>
        <time>2012-08-09T10:08:42Z</time>
      </trkpt>
      <trkpt lat="45.30281" lon="6.10615">
        <ele>1873.2663574219</ele>
        <time>2012-08-09T10:08:50Z</time>
      </trkpt>
      <trkpt lat="45.30285" lon="6.1062">
        <ele>1873.7468261719</ele>
        <time>2012-08-09T10:08:56Z</time>
      </trkpt>
      <trkpt lat="45.30288" lon="6.10626">
        <ele>1875.1887207031</ele>
        <time>2012-08-09T10:09:03Z</time>
      </trkpt>
      <trkpt lat="45.3029" lon="6.10627">
        <ele>1876.630859375</ele>
        <time>2012-08-09T10:09:08Z</time>
      </trkpt>
      <trkpt lat="45.30292" lon="6.10631">
        <ele>1877.1115722656</ele>
        <time>2012-08-09T10:09:14Z</time>
      </trkpt>
      <trkpt lat="45.30291" lon="6.10635">
        <ele>1878.0727539062</ele>
        <time>2012-08-09T10:09:19Z</time>
      </trkpt>
      <trkpt lat="45.30293" lon="6.10638">
        <ele>1879.5146484375</ele>
        <time>2012-08-09T10:09:25Z</time>
      </trkpt>
      <trkpt lat="45.30296" lon="6.10641">
        <ele>1880.9567871094</ele>
        <time>2012-08-09T10:09:32Z</time>
      </trkpt>
      <trkpt lat="45.303" lon="6.10643">
        <ele>1882.3986816406</ele>
        <time>2012-08-09T10:09:39Z</time>
      </trkpt>
      <trkpt lat="45.303" lon="6.10645">
        <ele>1883.8405761719</ele>
        <time>2012-08-09T10:09:44Z</time>
      </trkpt>
      <trkpt lat="45.30302" lon="6.10647">
        <ele>1884.8022460938</ele>
        <time>2012-08-09T10:09:50Z</time>
      </trkpt>
      <trkpt lat="45.30305" lon="6.10647">
        <ele>1886.244140625</ele>
        <time>2012-08-09T10:09:56Z</time>
      </trkpt>
      <trkpt lat="45.30308" lon="6.10649">
        <ele>1887.6860351562</ele>
        <time>2012-08-09T10:10:03Z</time>
      </trkpt>
      <trkpt lat="45.30313" lon="6.1065">
        <ele>1888.1667480469</ele>
        <time>2012-08-09T10:10:11Z</time>
      </trkpt>
      <trkpt lat="45.30316" lon="6.1065">
        <ele>1889.1279296875</ele>
        <time>2012-08-09T10:10:17Z</time>
      </trkpt>
      <trkpt lat="45.30318" lon="6.10651">
        <ele>1890.5698242188</ele>
        <time>2012-08-09T10:10:22Z</time>
      </trkpt>
      <trkpt lat="45.30318" lon="6.10655">
        <ele>1891.53125</ele>
        <time>2012-08-09T10:10:28Z</time>
      </trkpt>
      <trkpt lat="45.30322" lon="6.10657">
        <ele>1893.9345703125</ele>
        <time>2012-08-09T10:10:37Z</time>
      </trkpt>
      <trkpt lat="45.30325" lon="6.10662">
        <ele>1894.8957519531</ele>
        <time>2012-08-09T10:10:45Z</time>
      </trkpt>
      <trkpt lat="45.30325" lon="6.10666">
        <ele>1896.818359375</ele>
        <time>2012-08-09T10:10:51Z</time>
      </trkpt>
      <trkpt lat="45.30326" lon="6.1067">
        <ele>1898.2602539062</ele>
        <time>2012-08-09T10:10:58Z</time>
      </trkpt>
      <trkpt lat="45.30327" lon="6.10673">
        <ele>1900.6638183594</ele>
        <time>2012-08-09T10:11:05Z</time>
      </trkpt>
      <trkpt lat="45.30329" lon="6.10679">
        <ele>1902.1057128906</ele>
        <time>2012-08-09T10:11:13Z</time>
      </trkpt>
      <trkpt lat="45.30331" lon="6.10684">
        <ele>1904.0285644531</ele>
        <time>2012-08-09T10:11:20Z</time>
      </trkpt>
      <trkpt lat="45.30334" lon="6.10687">
        <ele>1904.5090332031</ele>
        <time>2012-08-09T10:11:26Z</time>
      </trkpt>
      <trkpt lat="45.30335" lon="6.10692">
        <ele>1904.9897460938</ele>
        <time>2012-08-09T10:11:33Z</time>
      </trkpt>
      <trkpt lat="45.30336" lon="6.10697">
        <ele>1907.3930664062</ele>
        <time>2012-08-09T10:11:41Z</time>
      </trkpt>
      <trkpt lat="45.30338" lon="6.10701">
        <ele>1909.3156738281</ele>
        <time>2012-08-09T10:11:47Z</time>
      </trkpt>
      <trkpt lat="45.3034" lon="6.10703">
        <ele>1909.7961425781</ele>
        <time>2012-08-09T10:11:52Z</time>
      </trkpt>
      <trkpt lat="45.30342" lon="6.10707">
        <ele>1910.7575683594</ele>
        <time>2012-08-09T10:11:57Z</time>
      </trkpt>
      <trkpt lat="45.30344" lon="6.10709">
        <ele>1911.23828125</ele>
        <time>2012-08-09T10:12:01Z</time>
      </trkpt>
      <trkpt lat="45.30346" lon="6.10708">
        <ele>1912.1994628906</ele>
        <time>2012-08-09T10:12:05Z</time>
      </trkpt>
      <trkpt lat="45.30347" lon="6.10714">
        <ele>1913.6413574219</ele>
        <time>2012-08-09T10:12:12Z</time>
      </trkpt>
      <trkpt lat="45.30347" lon="6.10718">
        <ele>1914.6027832031</ele>
        <time>2012-08-09T10:12:18Z</time>
      </trkpt>
      <trkpt lat="45.30349" lon="6.10723">
        <ele>1916.5256347656</ele>
        <time>2012-08-09T10:12:26Z</time>
      </trkpt>
      <trkpt lat="45.30352" lon="6.10726">
        <ele>1917.4868164062</ele>
        <time>2012-08-09T10:12:33Z</time>
      </trkpt>
      <trkpt lat="45.30354" lon="6.1073">
        <ele>1918.9289550781</ele>
        <time>2012-08-09T10:12:40Z</time>
      </trkpt>
      <trkpt lat="45.30356" lon="6.10733">
        <ele>1919.4096679688</ele>
        <time>2012-08-09T10:12:45Z</time>
      </trkpt>
      <trkpt lat="45.30362" lon="6.10739">
        <ele>1921.33203125</ele>
        <time>2012-08-09T10:12:56Z</time>
      </trkpt>
      <trkpt lat="45.30365" lon="6.10745">
        <ele>1922.7741699219</ele>
        <time>2012-08-09T10:13:02Z</time>
      </trkpt>
      <trkpt lat="45.30367" lon="6.10752">
        <ele>1923.2548828125</ele>
        <time>2012-08-09T10:13:09Z</time>
      </trkpt>
      <trkpt lat="45.3037" lon="6.10759">
        <ele>1924.6967773438</ele>
        <time>2012-08-09T10:13:16Z</time>
      </trkpt>
      <trkpt lat="45.30371" lon="6.10765">
        <ele>1925.1772460938</ele>
        <time>2012-08-09T10:13:22Z</time>
      </trkpt>
      <trkpt lat="45.30369" lon="6.10775">
        <ele>1924.6967773438</ele>
        <time>2012-08-09T10:13:29Z</time>
      </trkpt>
      <trkpt lat="45.3037" lon="6.10789">
        <ele>1924.2160644531</ele>
        <time>2012-08-09T10:13:37Z</time>
      </trkpt>
      <trkpt lat="45.30371" lon="6.10798">
        <ele>1924.6967773438</ele>
        <time>2012-08-09T10:13:43Z</time>
      </trkpt>
      <trkpt lat="45.30372" lon="6.10804">
        <ele>1924.6967773438</ele>
        <time>2012-08-09T10:13:47Z</time>
      </trkpt>
      <trkpt lat="45.30374" lon="6.10814">
        <ele>1925.1772460938</ele>
        <time>2012-08-09T10:13:54Z</time>
      </trkpt>
      <trkpt lat="45.30374" lon="6.10818">
        <ele>1925.1772460938</ele>
        <time>2012-08-09T10:13:57Z</time>
      </trkpt>
      <trkpt lat="45.30377" lon="6.10824">
        <ele>1926.138671875</ele>
        <time>2012-08-09T10:14:03Z</time>
      </trkpt>
      <trkpt lat="45.30378" lon="6.10831">
        <ele>1925.6579589844</ele>
        <time>2012-08-09T10:14:08Z</time>
      </trkpt>
      <trkpt lat="45.30378" lon="6.10835">
        <ele>1925.1772460938</ele>
        <time>2012-08-09T10:14:10Z</time>
      </trkpt>
      <trkpt lat="45.3038" lon="6.10846">
        <ele>1925.1772460938</ele>
        <time>2012-08-09T10:14:18Z</time>
      </trkpt>
      <trkpt lat="45.30381" lon="6.10848">
        <ele>1925.1772460938</ele>
        <time>2012-08-09T10:14:20Z</time>
      </trkpt>
      <trkpt lat="45.30383" lon="6.10855">
        <ele>1925.6579589844</ele>
        <time>2012-08-09T10:14:27Z</time>
      </trkpt>
      <trkpt lat="45.30384" lon="6.10858">
        <ele>1926.138671875</ele>
        <time>2012-08-09T10:14:31Z</time>
      </trkpt>
      <trkpt lat="45.30384" lon="6.10864">
        <ele>1928.0612792969</ele>
        <time>2012-08-09T10:14:38Z</time>
      </trkpt>
      <trkpt lat="45.30387" lon="6.10873">
        <ele>1929.0224609375</ele>
        <time>2012-08-09T10:14:46Z</time>
      </trkpt>
      <trkpt lat="45.30388" lon="6.10879">
        <ele>1929.9838867188</ele>
        <time>2012-08-09T10:14:52Z</time>
      </trkpt>
      <trkpt lat="45.30388" lon="6.10885">
        <ele>1930.9453125</ele>
        <time>2012-08-09T10:14:58Z</time>
      </trkpt>
      <trkpt lat="45.30389" lon="6.1089">
        <ele>1932.3874511719</ele>
        <time>2012-08-09T10:15:04Z</time>
      </trkpt>
      <trkpt lat="45.30391" lon="6.10896">
        <ele>1933.3486328125</ele>
        <time>2012-08-09T10:15:11Z</time>
      </trkpt>
      <trkpt lat="45.30393" lon="6.10899">
        <ele>1934.7907714844</ele>
        <time>2012-08-09T10:15:16Z</time>
      </trkpt>
      <trkpt lat="45.30396" lon="6.10903">
        <ele>1936.2326660156</ele>
        <time>2012-08-09T10:15:23Z</time>
      </trkpt>
      <trkpt lat="45.30397" lon="6.10905">
        <ele>1939.1164550781</ele>
        <time>2012-08-09T10:15:30Z</time>
      </trkpt>
      <trkpt lat="45.30399" lon="6.10912">
        <ele>1939.5971679688</ele>
        <time>2012-08-09T10:15:37Z</time>
      </trkpt>
      <trkpt lat="45.30403" lon="6.10918">
        <ele>1940.5583496094</ele>
        <time>2012-08-09T10:15:44Z</time>
      </trkpt>
      <trkpt lat="45.30405" lon="6.10922">
        <ele>1941.5197753906</ele>
        <time>2012-08-09T10:15:49Z</time>
      </trkpt>
      <trkpt lat="45.3041" lon="6.10927">
        <ele>1943.9230957031</ele>
        <time>2012-08-09T10:15:57Z</time>
      </trkpt>
      <trkpt lat="45.30414" lon="6.10926">
        <ele>1944.8842773438</ele>
        <time>2012-08-09T10:16:03Z</time>
      </trkpt>
      <trkpt lat="45.30416" lon="6.10925">
        <ele>1945.3649902344</ele>
        <time>2012-08-09T10:16:07Z</time>
      </trkpt>
      <trkpt lat="45.3042" lon="6.10921">
        <ele>1945.845703125</ele>
        <time>2012-08-09T10:16:14Z</time>
      </trkpt>
      <trkpt lat="45.30422" lon="6.10918">
        <ele>1946.3264160156</ele>
        <time>2012-08-09T10:16:19Z</time>
      </trkpt>
      <trkpt lat="45.30423" lon="6.10916">
        <ele>1946.3264160156</ele>
        <time>2012-08-09T10:16:24Z</time>
      </trkpt>
      <trkpt lat="45.30424" lon="6.10913">
        <ele>1947.2875976562</ele>
        <time>2012-08-09T10:16:30Z</time>
      </trkpt>
      <trkpt lat="45.30425" lon="6.10908">
        <ele>1948.7297363281</ele>
        <time>2012-08-09T10:16:37Z</time>
      </trkpt>
      <trkpt lat="45.30428" lon="6.10906">
        <ele>1949.6911621094</ele>
        <time>2012-08-09T10:16:43Z</time>
      </trkpt>
      <trkpt lat="45.30432" lon="6.10905">
        <ele>1951.1330566406</ele>
        <time>2012-08-09T10:16:50Z</time>
      </trkpt>
      <trkpt lat="45.30434" lon="6.10902">
        <ele>1952.0942382812</ele>
        <time>2012-08-09T10:16:55Z</time>
      </trkpt>
      <trkpt lat="45.30434" lon="6.10897">
        <ele>1953.5363769531</ele>
        <time>2012-08-09T10:17:01Z</time>
      </trkpt>
      <trkpt lat="45.30436" lon="6.10893">
        <ele>1954.4975585938</ele>
        <time>2012-08-09T10:17:08Z</time>
      </trkpt>
      <trkpt lat="45.30438" lon="6.1089">
        <ele>1955.939453125</ele>
        <time>2012-08-09T10:17:15Z</time>
      </trkpt>
      <trkpt lat="45.3044" lon="6.10887">
        <ele>1956.9008789062</ele>
        <time>2012-08-09T10:17:20Z</time>
      </trkpt>
      <trkpt lat="45.30442" lon="6.10881">
        <ele>1957.8623046875</ele>
        <time>2012-08-09T10:17:28Z</time>
      </trkpt>
      <trkpt lat="45.30444" lon="6.1088">
        <ele>1959.3041992188</ele>
        <time>2012-08-09T10:17:34Z</time>
      </trkpt>
      <trkpt lat="45.30445" lon="6.10876">
        <ele>1960.2653808594</ele>
        <time>2012-08-09T10:17:40Z</time>
      </trkpt>
      <trkpt lat="45.30448" lon="6.10875">
        <ele>1960.74609375</ele>
        <time>2012-08-09T10:17:46Z</time>
      </trkpt>
      <trkpt lat="45.30451" lon="6.10872">
        <ele>1961.2268066406</ele>
        <time>2012-08-09T10:17:53Z</time>
      </trkpt>
      <trkpt lat="45.30453" lon="6.10871">
        <ele>1964.1108398438</ele>
        <time>2012-08-09T10:18:01Z</time>
      </trkpt>
      <trkpt lat="45.30455" lon="6.10869">
        <ele>1965.072265625</ele>
        <time>2012-08-09T10:18:07Z</time>
      </trkpt>
      <trkpt lat="45.30458" lon="6.10868">
        <ele>1966.5141601562</ele>
        <time>2012-08-09T10:18:13Z</time>
      </trkpt>
      <trkpt lat="45.30458" lon="6.10865">
        <ele>1968.4367675781</ele>
        <time>2012-08-09T10:18:19Z</time>
      </trkpt>
      <trkpt lat="45.3046" lon="6.10861">
        <ele>1970.359375</ele>
        <time>2012-08-09T10:18:26Z</time>
      </trkpt>
      <trkpt lat="45.30462" lon="6.10863">
        <ele>1970.8400878906</ele>
        <time>2012-08-09T10:18:32Z</time>
      </trkpt>
      <trkpt lat="45.30463" lon="6.10862">
        <ele>1972.2819824219</ele>
        <time>2012-08-09T10:18:38Z</time>
      </trkpt>
      <trkpt lat="45.30465" lon="6.1086">
        <ele>1973.2434082031</ele>
        <time>2012-08-09T10:18:44Z</time>
      </trkpt>
      <trkpt lat="45.30467" lon="6.10858">
        <ele>1974.6853027344</ele>
        <time>2012-08-09T10:18:50Z</time>
      </trkpt>
      <trkpt lat="45.30469" lon="6.1086">
        <ele>1975.1657714844</ele>
        <time>2012-08-09T10:18:56Z</time>
      </trkpt>
      <trkpt lat="45.3047" lon="6.10862">
        <ele>1976.6079101562</ele>
        <time>2012-08-09T10:19:01Z</time>
      </trkpt>
      <trkpt lat="45.30472" lon="6.10864">
        <ele>1978.5305175781</ele>
        <time>2012-08-09T10:19:08Z</time>
      </trkpt>
      <trkpt lat="45.30474" lon="6.10867">
        <ele>1980.4533691406</ele>
        <time>2012-08-09T10:19:14Z</time>
      </trkpt>
      <trkpt lat="45.30476" lon="6.10867">
        <ele>1982.8564453125</ele>
        <time>2012-08-09T10:19:21Z</time>
      </trkpt>
      <trkpt lat="45.30479" lon="6.10864">
        <ele>1983.3371582031</ele>
        <time>2012-08-09T10:19:28Z</time>
      </trkpt>
      <trkpt lat="45.30481" lon="6.10862">
        <ele>1984.2985839844</ele>
        <time>2012-08-09T10:19:34Z</time>
      </trkpt>
      <trkpt lat="45.30482" lon="6.10862">
        <ele>1985.7404785156</ele>
        <time>2012-08-09T10:19:41Z</time>
      </trkpt>
      <trkpt lat="45.30484" lon="6.1086">
        <ele>1986.2211914062</ele>
        <time>2012-08-09T10:19:46Z</time>
      </trkpt>
      <trkpt lat="45.30487" lon="6.10863">
        <ele>1986.7016601562</ele>
        <time>2012-08-09T10:19:52Z</time>
      </trkpt>
      <trkpt lat="45.30489" lon="6.10865">
        <ele>1987.1823730469</ele>
        <time>2012-08-09T10:19:58Z</time>
      </trkpt>
      <trkpt lat="45.30492" lon="6.10865">
        <ele>1988.1437988281</ele>
        <time>2012-08-09T10:20:04Z</time>
      </trkpt>
      <trkpt lat="45.30495" lon="6.10864">
        <ele>1990.546875</ele>
        <time>2012-08-09T10:20:12Z</time>
      </trkpt>
      <trkpt lat="45.30498" lon="6.10867">
        <ele>1990.546875</ele>
        <time>2012-08-09T10:20:18Z</time>
      </trkpt>
      <trkpt lat="45.305" lon="6.10869">
        <ele>1991.5083007812</ele>
        <time>2012-08-09T10:20:25Z</time>
      </trkpt>
      <trkpt lat="45.30503" lon="6.1087">
        <ele>1991.9890136719</ele>
        <time>2012-08-09T10:20:31Z</time>
      </trkpt>
      <trkpt lat="45.30506" lon="6.10868">
        <ele>1993.9116210938</ele>
        <time>2012-08-09T10:20:39Z</time>
      </trkpt>
      <trkpt lat="45.30507" lon="6.10861">
        <ele>1995.353515625</ele>
        <time>2012-08-09T10:20:47Z</time>
      </trkpt>
      <trkpt lat="45.3051" lon="6.10859">
        <ele>1996.3151855469</ele>
        <time>2012-08-09T10:20:54Z</time>
      </trkpt>
      <trkpt lat="45.30512" lon="6.1086">
        <ele>1999.1989746094</ele>
        <time>2012-08-09T10:21:01Z</time>
      </trkpt>
      <trkpt lat="45.30516" lon="6.10862">
        <ele>2001.1215820312</ele>
        <time>2012-08-09T10:21:09Z</time>
      </trkpt>
      <trkpt lat="45.30523" lon="6.10864">
        <ele>2001.6022949219</ele>
        <time>2012-08-09T10:21:16Z</time>
      </trkpt>
      <trkpt lat="45.30528" lon="6.10862">
        <ele>2000.6408691406</ele>
        <time>2012-08-09T10:21:22Z</time>
      </trkpt>
      <trkpt lat="45.30533" lon="6.10869">
        <ele>1999.6796875</ele>
        <time>2012-08-09T10:21:29Z</time>
      </trkpt>
      <trkpt lat="45.30532" lon="6.1087">
        <ele>2000.1604003906</ele>
        <time>2012-08-09T10:21:30Z</time>
      </trkpt>
      <trkpt lat="45.30534" lon="6.10881">
        <ele>2000.1604003906</ele>
        <time>2012-08-09T10:21:35Z</time>
      </trkpt>
      <trkpt lat="45.30532" lon="6.10887">
        <ele>2000.1604003906</ele>
        <time>2012-08-09T10:21:39Z</time>
      </trkpt>
      <trkpt lat="45.30531" lon="6.10892">
        <ele>1999.6796875</ele>
        <time>2012-08-09T10:21:44Z</time>
      </trkpt>
      <trkpt lat="45.30531" lon="6.10897">
        <ele>2002.0827636719</ele>
        <time>2012-08-09T10:21:50Z</time>
      </trkpt>
      <trkpt lat="45.30533" lon="6.10903">
        <ele>2004.4860839844</ele>
        <time>2012-08-09T10:21:56Z</time>
      </trkpt>
      <trkpt lat="45.30535" lon="6.10909">
        <ele>2005.9279785156</ele>
        <time>2012-08-09T10:22:02Z</time>
      </trkpt>
      <trkpt lat="45.30539" lon="6.10915">
        <ele>2006.8894042969</ele>
        <time>2012-08-09T10:22:08Z</time>
      </trkpt>
      <trkpt lat="45.30543" lon="6.10918">
        <ele>2009.2927246094</ele>
        <time>2012-08-09T10:22:15Z</time>
      </trkpt>
      <trkpt lat="45.30546" lon="6.10919">
        <ele>2011.2153320312</ele>
        <time>2012-08-09T10:22:21Z</time>
      </trkpt>
      <trkpt lat="45.30549" lon="6.10922">
        <ele>2010.7346191406</ele>
        <time>2012-08-09T10:22:27Z</time>
      </trkpt>
      <trkpt lat="45.30552" lon="6.10925">
        <ele>2009.2927246094</ele>
        <time>2012-08-09T10:22:33Z</time>
      </trkpt>
      <trkpt lat="45.30556" lon="6.1093">
        <ele>2007.3701171875</ele>
        <time>2012-08-09T10:22:39Z</time>
      </trkpt>
      <trkpt lat="45.30559" lon="6.10936">
        <ele>2005.4475097656</ele>
        <time>2012-08-09T10:22:46Z</time>
      </trkpt>
      <trkpt lat="45.30561" lon="6.1094">
        <ele>2004.4860839844</ele>
        <time>2012-08-09T10:22:50Z</time>
      </trkpt>
      <trkpt lat="45.30564" lon="6.10943">
        <ele>2002.5634765625</ele>
        <time>2012-08-09T10:22:55Z</time>
      </trkpt>
      <trkpt lat="45.30567" lon="6.10946">
        <ele>2000.6408691406</ele>
        <time>2012-08-09T10:22:59Z</time>
      </trkpt>
      <trkpt lat="45.3057" lon="6.10949">
        <ele>2002.0827636719</ele>
        <time>2012-08-09T10:23:03Z</time>
      </trkpt>
      <trkpt lat="45.30576" lon="6.10954">
        <ele>2004.4860839844</ele>
        <time>2012-08-09T10:23:12Z</time>
      </trkpt>
      <trkpt lat="45.30581" lon="6.10957">
        <ele>2002.5634765625</ele>
        <time>2012-08-09T10:23:18Z</time>
      </trkpt>
      <trkpt lat="45.30584" lon="6.10959">
        <ele>2002.0827636719</ele>
        <time>2012-08-09T10:23:22Z</time>
      </trkpt>
      <trkpt lat="45.30586" lon="6.10963">
        <ele>1999.1989746094</ele>
        <time>2012-08-09T10:23:25Z</time>
      </trkpt>
      <trkpt lat="45.30591" lon="6.10966">
        <ele>2001.6022949219</ele>
        <time>2012-08-09T10:23:30Z</time>
      </trkpt>
      <trkpt lat="45.30593" lon="6.10969">
        <ele>2000.6408691406</ele>
        <time>2012-08-09T10:23:33Z</time>
      </trkpt>
      <trkpt lat="45.30594" lon="6.10974">
        <ele>1998.7182617188</ele>
        <time>2012-08-09T10:23:39Z</time>
      </trkpt>
      <trkpt lat="45.30595" lon="6.10981">
        <ele>1995.8342285156</ele>
        <time>2012-08-09T10:23:45Z</time>
      </trkpt>
      <trkpt lat="45.30595" lon="6.10982">
        <ele>1995.353515625</ele>
        <time>2012-08-09T10:23:49Z</time>
      </trkpt>
      <trkpt lat="45.30597" lon="6.10986">
        <ele>1994.3920898438</ele>
        <time>2012-08-09T10:23:53Z</time>
      </trkpt>
      <trkpt lat="45.30599" lon="6.10992">
        <ele>1992.9501953125</ele>
        <time>2012-08-09T10:23:59Z</time>
      </trkpt>
      <trkpt lat="45.30602" lon="6.11">
        <ele>1991.9890136719</ele>
        <time>2012-08-09T10:24:07Z</time>
      </trkpt>
      <trkpt lat="45.30604" lon="6.11004">
        <ele>1990.06640625</ele>
        <time>2012-08-09T10:24:13Z</time>
      </trkpt>
      <trkpt lat="45.30608" lon="6.11006">
        <ele>1989.5856933594</ele>
        <time>2012-08-09T10:24:19Z</time>
      </trkpt>
      <trkpt lat="45.3061" lon="6.1101">
        <ele>1988.6245117188</ele>
        <time>2012-08-09T10:24:25Z</time>
      </trkpt>
      <trkpt lat="45.30613" lon="6.11017">
        <ele>1988.1437988281</ele>
        <time>2012-08-09T10:24:31Z</time>
      </trkpt>
      <trkpt lat="45.30617" lon="6.11019">
        <ele>1986.7016601562</ele>
        <time>2012-08-09T10:24:39Z</time>
      </trkpt>
      <trkpt lat="45.3062" lon="6.11018">
        <ele>1985.7404785156</ele>
        <time>2012-08-09T10:24:43Z</time>
      </trkpt>
      <trkpt lat="45.30625" lon="6.11019">
        <ele>1983.3371582031</ele>
        <time>2012-08-09T10:24:48Z</time>
      </trkpt>
      <trkpt lat="45.30629" lon="6.11019">
        <ele>1982.3759765625</ele>
        <time>2012-08-09T10:24:53Z</time>
      </trkpt>
      <trkpt lat="45.30635" lon="6.11021">
        <ele>1982.8564453125</ele>
        <time>2012-08-09T10:25:00Z</time>
      </trkpt>
      <trkpt lat="45.30639" lon="6.11025">
        <ele>1983.3371582031</ele>
        <time>2012-08-09T10:25:06Z</time>
      </trkpt>
      <trkpt lat="45.30642" lon="6.11027">
        <ele>1984.779296875</ele>
        <time>2012-08-09T10:25:11Z</time>
      </trkpt>
      <trkpt lat="45.30644" lon="6.11032">
        <ele>1984.779296875</ele>
        <time>2012-08-09T10:25:16Z</time>
      </trkpt>
      <trkpt lat="45.30647" lon="6.11036">
        <ele>1985.259765625</ele>
        <time>2012-08-09T10:25:23Z</time>
      </trkpt>
      <trkpt lat="45.30651" lon="6.11041">
        <ele>1985.7404785156</ele>
        <time>2012-08-09T10:25:29Z</time>
      </trkpt>
      <trkpt lat="45.30655" lon="6.11041">
        <ele>1986.2211914062</ele>
        <time>2012-08-09T10:25:35Z</time>
      </trkpt>
      <trkpt lat="45.30661" lon="6.11038">
        <ele>1985.7404785156</ele>
        <time>2012-08-09T10:25:41Z</time>
      </trkpt>
      <trkpt lat="45.30666" lon="6.11037">
        <ele>1986.7016601562</ele>
        <time>2012-08-09T10:25:47Z</time>
      </trkpt>
      <trkpt lat="45.30672" lon="6.11035">
        <ele>1986.7016601562</ele>
        <time>2012-08-09T10:25:54Z</time>
      </trkpt>
      <trkpt lat="45.30678" lon="6.11033">
        <ele>1985.7404785156</ele>
        <time>2012-08-09T10:26:00Z</time>
      </trkpt>
      <trkpt lat="45.30684" lon="6.11031">
        <ele>1982.8564453125</ele>
        <time>2012-08-09T10:26:08Z</time>
      </trkpt>
      <trkpt lat="45.30691" lon="6.11033">
        <ele>1979.9724121094</ele>
        <time>2012-08-09T10:26:15Z</time>
      </trkpt>
      <trkpt lat="45.30695" lon="6.11033">
        <ele>1978.5305175781</ele>
        <time>2012-08-09T10:26:21Z</time>
      </trkpt>
      <trkpt lat="45.307" lon="6.11033">
        <ele>1977.0886230469</ele>
        <time>2012-08-09T10:26:27Z</time>
      </trkpt>
      <trkpt lat="45.30702" lon="6.11033">
        <ele>1974.6853027344</ele>
        <time>2012-08-09T10:26:33Z</time>
      </trkpt>
      <trkpt lat="45.30706" lon="6.1103">
        <ele>1972.7626953125</ele>
        <time>2012-08-09T10:26:39Z</time>
      </trkpt>
      <trkpt lat="45.30711" lon="6.11028">
        <ele>1971.8012695312</ele>
        <time>2012-08-09T10:26:46Z</time>
      </trkpt>
      <trkpt lat="45.30713" lon="6.11026">
        <ele>1970.8400878906</ele>
        <time>2012-08-09T10:26:51Z</time>
      </trkpt>
      <trkpt lat="45.30715" lon="6.11024">
        <ele>1968.9174804688</ele>
        <time>2012-08-09T10:26:55Z</time>
      </trkpt>
      <trkpt lat="45.3072" lon="6.11024">
        <ele>1967.9560546875</ele>
        <time>2012-08-09T10:27:01Z</time>
      </trkpt>
      <trkpt lat="45.30724" lon="6.11025">
        <ele>1966.5141601562</ele>
        <time>2012-08-09T10:27:06Z</time>
      </trkpt>
      <trkpt lat="45.30727" lon="6.11026">
        <ele>1965.072265625</ele>
        <time>2012-08-09T10:27:11Z</time>
      </trkpt>
      <trkpt lat="45.30731" lon="6.11027">
        <ele>1964.1108398438</ele>
        <time>2012-08-09T10:27:16Z</time>
      </trkpt>
      <trkpt lat="45.30738" lon="6.11031">
        <ele>1960.74609375</ele>
        <time>2012-08-09T10:27:24Z</time>
      </trkpt>
      <trkpt lat="45.30742" lon="6.11036">
        <ele>1959.7846679688</ele>
        <time>2012-08-09T10:27:29Z</time>
      </trkpt>
      <trkpt lat="45.30746" lon="6.11037">
        <ele>1957.8623046875</ele>
        <time>2012-08-09T10:27:36Z</time>
      </trkpt>
      <trkpt lat="45.30748" lon="6.11035">
        <ele>1957.3815917969</ele>
        <time>2012-08-09T10:27:41Z</time>
      </trkpt>
      <trkpt lat="45.3075" lon="6.11034">
        <ele>1956.4201660156</ele>
        <time>2012-08-09T10:27:47Z</time>
      </trkpt>
      <trkpt lat="45.30754" lon="6.11031">
        <ele>1957.8623046875</ele>
        <time>2012-08-09T10:27:54Z</time>
      </trkpt>
      <trkpt lat="45.30759" lon="6.11032">
        <ele>1958.8234863281</ele>
        <time>2012-08-09T10:28:01Z</time>
      </trkpt>
      <trkpt lat="45.30763" lon="6.11036">
        <ele>1960.2653808594</ele>
        <time>2012-08-09T10:28:08Z</time>
      </trkpt>
      <trkpt lat="45.30765" lon="6.1104">
        <ele>1961.7075195312</ele>
        <time>2012-08-09T10:28:14Z</time>
      </trkpt>
      <trkpt lat="45.30769" lon="6.11041">
        <ele>1963.1494140625</ele>
        <time>2012-08-09T10:28:20Z</time>
      </trkpt>
      <trkpt lat="45.30774" lon="6.11041">
        <ele>1962.6687011719</ele>
        <time>2012-08-09T10:28:26Z</time>
      </trkpt>
      <trkpt lat="45.3078" lon="6.1104">
        <ele>1962.1879882812</ele>
        <time>2012-08-09T10:28:32Z</time>
      </trkpt>
      <trkpt lat="45.30787" lon="6.11041">
        <ele>1963.6298828125</ele>
        <time>2012-08-09T10:28:39Z</time>
      </trkpt>
      <trkpt lat="45.30789" lon="6.1104">
        <ele>1964.1108398438</ele>
        <time>2012-08-09T10:28:41Z</time>
      </trkpt>
      <trkpt lat="45.30795" lon="6.11034">
        <ele>1962.6687011719</ele>
        <time>2012-08-09T10:28:48Z</time>
      </trkpt>
      <trkpt lat="45.308" lon="6.11027">
        <ele>1959.7846679688</ele>
        <time>2012-08-09T10:28:55Z</time>
      </trkpt>
      <trkpt lat="45.30806" lon="6.11024">
        <ele>1956.4201660156</ele>
        <time>2012-08-09T10:29:01Z</time>
      </trkpt>
      <trkpt lat="45.30811" lon="6.11021">
        <ele>1954.0170898438</ele>
        <time>2012-08-09T10:29:07Z</time>
      </trkpt>
      <trkpt lat="45.30819" lon="6.11019">
        <ele>1953.0556640625</ele>
        <time>2012-08-09T10:29:14Z</time>
      </trkpt>
      <trkpt lat="45.30821" lon="6.11019">
        <ele>1952.5749511719</ele>
        <time>2012-08-09T10:29:16Z</time>
      </trkpt>
      <trkpt lat="45.30824" lon="6.11019">
        <ele>1949.6911621094</ele>
        <time>2012-08-09T10:29:22Z</time>
      </trkpt>
      <trkpt lat="45.30827" lon="6.11016">
        <ele>1948.7297363281</ele>
        <time>2012-08-09T10:29:28Z</time>
      </trkpt>
      <trkpt lat="45.30832" lon="6.11013">
        <ele>1947.7683105469</ele>
        <time>2012-08-09T10:29:33Z</time>
      </trkpt>
      <trkpt lat="45.30837" lon="6.11013">
        <ele>1945.845703125</ele>
        <time>2012-08-09T10:29:38Z</time>
      </trkpt>
      <trkpt lat="45.30839" lon="6.11015">
        <ele>1945.3649902344</ele>
        <time>2012-08-09T10:29:41Z</time>
      </trkpt>
      <trkpt lat="45.30844" lon="6.11008">
        <ele>1942.9616699219</ele>
        <time>2012-08-09T10:29:49Z</time>
      </trkpt>
      <trkpt lat="45.30849" lon="6.11002">
        <ele>1940.0778808594</ele>
        <time>2012-08-09T10:29:56Z</time>
      </trkpt>
      <trkpt lat="45.30853" lon="6.10999">
        <ele>1938.6359863281</ele>
        <time>2012-08-09T10:30:03Z</time>
      </trkpt>
      <trkpt lat="45.30854" lon="6.10996">
        <ele>1937.6745605469</ele>
        <time>2012-08-09T10:30:11Z</time>
      </trkpt>
      <trkpt lat="45.30853" lon="6.10994">
        <ele>1937.1938476562</ele>
        <time>2012-08-09T10:30:15Z</time>
      </trkpt>
      <trkpt lat="45.30847" lon="6.10993">
        <ele>1936.2326660156</ele>
        <time>2012-08-09T10:30:20Z</time>
      </trkpt>
      <trkpt lat="45.30836" lon="6.10989">
        <ele>1934.7907714844</ele>
        <time>2012-08-09T10:30:28Z</time>
      </trkpt>
      <trkpt lat="45.30828" lon="6.10986">
        <ele>1931.9064941406</ele>
        <time>2012-08-09T10:30:35Z</time>
      </trkpt>
      <trkpt lat="45.30825" lon="6.10984">
        <ele>1928.5419921875</ele>
        <time>2012-08-09T10:30:39Z</time>
      </trkpt>
      <trkpt lat="45.3082" lon="6.10981">
        <ele>1923.7353515625</ele>
        <time>2012-08-09T10:30:45Z</time>
      </trkpt>
      <trkpt lat="45.30814" lon="6.1098">
        <ele>1924.2160644531</ele>
        <time>2012-08-09T10:30:49Z</time>
      </trkpt>
      <trkpt lat="45.30811" lon="6.10976">
        <ele>1920.8515625</ele>
        <time>2012-08-09T10:30:55Z</time>
      </trkpt>
      <trkpt lat="45.30809" lon="6.10976">
        <ele>1918.9289550781</ele>
        <time>2012-08-09T10:31:04Z</time>
      </trkpt>
      <trkpt lat="45.30809" lon="6.10976">
        <ele>1917.0063476562</ele>
        <time>2012-08-09T10:31:23Z</time>
      </trkpt>
      <trkpt lat="45.30806" lon="6.10972">
        <ele>1918.9289550781</ele>
        <time>2012-08-09T10:31:29Z</time>
      </trkpt>
      <trkpt lat="45.30811" lon="6.1097">
        <ele>1917.0063476562</ele>
        <time>2012-08-09T10:31:35Z</time>
      </trkpt>
      <trkpt lat="45.3082" lon="6.10967">
        <ele>1913.6413574219</ele>
        <time>2012-08-09T10:31:43Z</time>
      </trkpt>
      <trkpt lat="45.30827" lon="6.10961">
        <ele>1911.7189941406</ele>
        <time>2012-08-09T10:31:49Z</time>
      </trkpt>
      <trkpt lat="45.30833" lon="6.10955">
        <ele>1910.2768554688</ele>
        <time>2012-08-09T10:31:54Z</time>
      </trkpt>
      <trkpt lat="45.30841" lon="6.10949">
        <ele>1908.8349609375</ele>
        <time>2012-08-09T10:32:00Z</time>
      </trkpt>
      <trkpt lat="45.30851" lon="6.10941">
        <ele>1904.5090332031</ele>
        <time>2012-08-09T10:32:08Z</time>
      </trkpt>
      <trkpt lat="45.30859" lon="6.10938">
        <ele>1902.1057128906</ele>
        <time>2012-08-09T10:32:14Z</time>
      </trkpt>
      <trkpt lat="45.30868" lon="6.10933">
        <ele>1899.7023925781</ele>
        <time>2012-08-09T10:32:21Z</time>
      </trkpt>
      <trkpt lat="45.30879" lon="6.10931">
        <ele>1897.2990722656</ele>
        <time>2012-08-09T10:32:27Z</time>
      </trkpt>
      <trkpt lat="45.30886" lon="6.1093">
        <ele>1894.8957519531</ele>
        <time>2012-08-09T10:32:31Z</time>
      </trkpt>
      <trkpt lat="45.3089" lon="6.10929">
        <ele>1893.9345703125</ele>
        <time>2012-08-09T10:32:33Z</time>
      </trkpt>
      <trkpt lat="45.30894" lon="6.10932">
        <ele>1893.4538574219</ele>
        <time>2012-08-09T10:32:37Z</time>
      </trkpt>
      <trkpt lat="45.30901" lon="6.10934">
        <ele>1891.53125</ele>
        <time>2012-08-09T10:32:43Z</time>
      </trkpt>
      <trkpt lat="45.30906" lon="6.10932">
        <ele>1889.6086425781</ele>
        <time>2012-08-09T10:32:47Z</time>
      </trkpt>
      <trkpt lat="45.3091" lon="6.10929">
        <ele>1888.1667480469</ele>
        <time>2012-08-09T10:32:52Z</time>
      </trkpt>
      <trkpt lat="45.30913" lon="6.10927">
        <ele>1887.2053222656</ele>
        <time>2012-08-09T10:32:55Z</time>
      </trkpt>
      <trkpt lat="45.30917" lon="6.10922">
        <ele>1884.8022460938</ele>
        <time>2012-08-09T10:33:01Z</time>
      </trkpt>
      <trkpt lat="45.30922" lon="6.10917">
        <ele>1882.8791503906</ele>
        <time>2012-08-09T10:33:06Z</time>
      </trkpt>
      <trkpt lat="45.30928" lon="6.10911">
        <ele>1879.0339355469</ele>
        <time>2012-08-09T10:33:12Z</time>
      </trkpt>
      <trkpt lat="45.30934" lon="6.10906">
        <ele>1874.7082519531</ele>
        <time>2012-08-09T10:33:17Z</time>
      </trkpt>
      <trkpt lat="45.30941" lon="6.10899">
        <ele>1870.8630371094</ele>
        <time>2012-08-09T10:33:24Z</time>
      </trkpt>
      <trkpt lat="45.30943" lon="6.10896">
        <ele>1870.3823242188</ele>
        <time>2012-08-09T10:33:27Z</time>
      </trkpt>
      <trkpt lat="45.30944" lon="6.10893">
        <ele>1869.4211425781</ele>
        <time>2012-08-09T10:33:30Z</time>
      </trkpt>
      <trkpt lat="45.30951" lon="6.10889">
        <ele>1867.9787597656</ele>
        <time>2012-08-09T10:33:36Z</time>
      </trkpt>
      <trkpt lat="45.30955" lon="6.10887">
        <ele>1866.0561523438</ele>
        <time>2012-08-09T10:33:39Z</time>
      </trkpt>
      <trkpt lat="45.30961" lon="6.10877">
        <ele>1863.1723632812</ele>
        <time>2012-08-09T10:33:45Z</time>
      </trkpt>
      <trkpt lat="45.30964" lon="6.10872">
        <ele>1861.73046875</ele>
        <time>2012-08-09T10:33:48Z</time>
      </trkpt>
      <trkpt lat="45.30969" lon="6.10867">
        <ele>1858.8464355469</ele>
        <time>2012-08-09T10:33:52Z</time>
      </trkpt>
      <trkpt lat="45.30975" lon="6.10857">
        <ele>1855.4819335938</ele>
        <time>2012-08-09T10:33:58Z</time>
      </trkpt>
      <trkpt lat="45.30982" lon="6.1085">
        <ele>1851.6364746094</ele>
        <time>2012-08-09T10:34:03Z</time>
      </trkpt>
      <trkpt lat="45.30984" lon="6.10849">
        <ele>1851.1557617188</ele>
        <time>2012-08-09T10:34:04Z</time>
      </trkpt>
      <trkpt lat="45.30991" lon="6.10847">
        <ele>1848.7524414062</ele>
        <time>2012-08-09T10:34:09Z</time>
      </trkpt>
      <trkpt lat="45.30994" lon="6.10847">
        <ele>1848.2717285156</ele>
        <time>2012-08-09T10:34:13Z</time>
      </trkpt>
      <trkpt lat="45.31001" lon="6.10843">
        <ele>1848.2717285156</ele>
        <time>2012-08-09T10:34:20Z</time>
      </trkpt>
      <trkpt lat="45.31002" lon="6.10842">
        <ele>1848.2717285156</ele>
        <time>2012-08-09T10:34:21Z</time>
      </trkpt>
      <trkpt lat="45.31009" lon="6.10836">
        <ele>1848.7524414062</ele>
        <time>2012-08-09T10:34:26Z</time>
      </trkpt>
      <trkpt lat="45.31016" lon="6.10825">
        <ele>1846.3493652344</ele>
        <time>2012-08-09T10:34:34Z</time>
      </trkpt>
      <trkpt lat="45.3102" lon="6.10819">
        <ele>1845.8686523438</ele>
        <time>2012-08-09T10:34:39Z</time>
      </trkpt>
      <trkpt lat="45.31023" lon="6.10815">
        <ele>1844.9072265625</ele>
        <time>2012-08-09T10:34:42Z</time>
      </trkpt>
      <trkpt lat="45.31028" lon="6.10805">
        <ele>1846.3493652344</ele>
        <time>2012-08-09T10:34:49Z</time>
      </trkpt>
      <trkpt lat="45.3103" lon="6.10793">
        <ele>1849.7138671875</ele>
        <time>2012-08-09T10:34:57Z</time>
      </trkpt>
      <trkpt lat="45.31032" lon="6.10785">
        <ele>1848.7524414062</ele>
        <time>2012-08-09T10:35:03Z</time>
      </trkpt>
      <trkpt lat="45.31034" lon="6.10776">
        <ele>1848.7524414062</ele>
        <time>2012-08-09T10:35:09Z</time>
      </trkpt>
      <trkpt lat="45.31034" lon="6.10774">
        <ele>1848.2717285156</ele>
        <time>2012-08-09T10:35:10Z</time>
      </trkpt>
      <trkpt lat="45.31039" lon="6.10767">
        <ele>1846.8298339844</ele>
        <time>2012-08-09T10:35:16Z</time>
      </trkpt>
      <trkpt lat="45.31042" lon="6.10763">
        <ele>1845.3879394531</ele>
        <time>2012-08-09T10:35:21Z</time>
      </trkpt>
      <trkpt lat="45.31044" lon="6.10759">
        <ele>1844.4265136719</ele>
        <time>2012-08-09T10:35:24Z</time>
      </trkpt>
      <trkpt lat="45.3105" lon="6.10751">
        <ele>1842.0234375</ele>
        <time>2012-08-09T10:35:30Z</time>
      </trkpt>
      <trkpt lat="45.31058" lon="6.10747">
        <ele>1839.1394042969</ele>
        <time>2012-08-09T10:35:38Z</time>
      </trkpt>
      <trkpt lat="45.31063" lon="6.10743">
        <ele>1839.1394042969</ele>
        <time>2012-08-09T10:35:43Z</time>
      </trkpt>
      <trkpt lat="45.31067" lon="6.10739">
        <ele>1838.1782226562</ele>
        <time>2012-08-09T10:35:49Z</time>
      </trkpt>
      <trkpt lat="45.31068" lon="6.10733">
        <ele>1836.2556152344</ele>
        <time>2012-08-09T10:35:55Z</time>
      </trkpt>
      <trkpt lat="45.31074" lon="6.10726">
        <ele>1833.8520507812</ele>
        <time>2012-08-09T10:36:02Z</time>
      </trkpt>
      <trkpt lat="45.31079" lon="6.1072">
        <ele>1832.41015625</ele>
        <time>2012-08-09T10:36:08Z</time>
      </trkpt>
      <trkpt lat="45.3108" lon="6.10719">
        <ele>1830.9682617188</ele>
        <time>2012-08-09T10:36:13Z</time>
      </trkpt>
      <trkpt lat="45.3108" lon="6.10718">
        <ele>1830.0068359375</ele>
        <time>2012-08-09T10:36:23Z</time>
      </trkpt>
      <trkpt lat="45.31081" lon="6.10718">
        <ele>1828.5649414062</ele>
        <time>2012-08-09T10:36:40Z</time>
      </trkpt>
      <trkpt lat="45.31085" lon="6.10716">
        <ele>1827.123046875</ele>
        <time>2012-08-09T10:36:45Z</time>
      </trkpt>
      <trkpt lat="45.31087" lon="6.10712">
        <ele>1826.6423339844</ele>
        <time>2012-08-09T10:36:50Z</time>
      </trkpt>
      <trkpt lat="45.31093" lon="6.10708">
        <ele>1826.1616210938</ele>
        <time>2012-08-09T10:36:57Z</time>
      </trkpt>
      <trkpt lat="45.31095" lon="6.10706">
        <ele>1826.1616210938</ele>
        <time>2012-08-09T10:37:01Z</time>
      </trkpt>
      <trkpt lat="45.31103" lon="6.10705">
        <ele>1824.7197265625</ele>
        <time>2012-08-09T10:37:08Z</time>
      </trkpt>
      <trkpt lat="45.31104" lon="6.10705">
        <ele>1824.2390136719</ele>
        <time>2012-08-09T10:37:09Z</time>
      </trkpt>
      <trkpt lat="45.31107" lon="6.10708">
        <ele>1823.2778320312</ele>
        <time>2012-08-09T10:37:13Z</time>
      </trkpt>
      <trkpt lat="45.31112" lon="6.10708">
        <ele>1822.31640625</ele>
        <time>2012-08-09T10:37:19Z</time>
      </trkpt>
      <trkpt lat="45.31118" lon="6.10708">
        <ele>1822.31640625</ele>
        <time>2012-08-09T10:37:24Z</time>
      </trkpt>
      <trkpt lat="45.31122" lon="6.10711">
        <ele>1822.7971191406</ele>
        <time>2012-08-09T10:37:29Z</time>
      </trkpt>
      <trkpt lat="45.31125" lon="6.10709">
        <ele>1822.31640625</ele>
        <time>2012-08-09T10:37:33Z</time>
      </trkpt>
      <trkpt lat="45.31128" lon="6.10703">
        <ele>1822.31640625</ele>
        <time>2012-08-09T10:37:38Z</time>
      </trkpt>
      <trkpt lat="45.31134" lon="6.10702">
        <ele>1820.8745117188</ele>
        <time>2012-08-09T10:37:43Z</time>
      </trkpt>
      <trkpt lat="45.31137" lon="6.10698">
        <ele>1819.9128417969</ele>
        <time>2012-08-09T10:37:47Z</time>
      </trkpt>
      <trkpt lat="45.31139" lon="6.10694">
        <ele>1819.4323730469</ele>
        <time>2012-08-09T10:37:50Z</time>
      </trkpt>
      <trkpt lat="45.31139" lon="6.10693">
        <ele>1819.9128417969</ele>
        <time>2012-08-09T10:37:51Z</time>
      </trkpt>
      <trkpt lat="45.31143" lon="6.10688">
        <ele>1819.4323730469</ele>
        <time>2012-08-09T10:37:55Z</time>
      </trkpt>
      <trkpt lat="45.31149" lon="6.10684">
        <ele>1817.5095214844</ele>
        <time>2012-08-09T10:38:01Z</time>
      </trkpt>
      <trkpt lat="45.31155" lon="6.10678">
        <ele>1817.0290527344</ele>
        <time>2012-08-09T10:38:08Z</time>
      </trkpt>
      <trkpt lat="45.31157" lon="6.10677">
        <ele>1816.5483398438</ele>
        <time>2012-08-09T10:38:10Z</time>
      </trkpt>
      <trkpt lat="45.31161" lon="6.10672">
        <ele>1816.0676269531</ele>
        <time>2012-08-09T10:38:13Z</time>
      </trkpt>
      <trkpt lat="45.31168" lon="6.10662">
        <ele>1815.1064453125</ele>
        <time>2012-08-09T10:38:20Z</time>
      </trkpt>
      <trkpt lat="45.31177" lon="6.10653">
        <ele>1813.6643066406</ele>
        <time>2012-08-09T10:38:28Z</time>
      </trkpt>
      <trkpt lat="45.31182" lon="6.10645">
        <ele>1813.6643066406</ele>
        <time>2012-08-09T10:38:35Z</time>
      </trkpt>
      <trkpt lat="45.31185" lon="6.10639">
        <ele>1811.7419433594</ele>
        <time>2012-08-09T10:38:40Z</time>
      </trkpt>
      <trkpt lat="45.31187" lon="6.10629">
        <ele>1809.3386230469</ele>
        <time>2012-08-09T10:38:47Z</time>
      </trkpt>
      <trkpt lat="45.31187" lon="6.10628">
        <ele>1808.8579101562</ele>
        <time>2012-08-09T10:38:48Z</time>
      </trkpt>
      <trkpt lat="45.31187" lon="6.10616">
        <ele>1807.416015625</ele>
        <time>2012-08-09T10:38:55Z</time>
      </trkpt>
      <trkpt lat="45.31189" lon="6.10609">
        <ele>1806.4545898438</ele>
        <time>2012-08-09T10:38:59Z</time>
      </trkpt>
      <trkpt lat="45.31194" lon="6.10596">
        <ele>1805.0126953125</ele>
        <time>2012-08-09T10:39:04Z</time>
      </trkpt>
      <trkpt lat="45.31202" lon="6.10585">
        <ele>1803.08984375</ele>
        <time>2012-08-09T10:39:09Z</time>
      </trkpt>
      <trkpt lat="45.31205" lon="6.1058">
        <ele>1802.6091308594</ele>
        <time>2012-08-09T10:39:11Z</time>
      </trkpt>
      <trkpt lat="45.31212" lon="6.10578">
        <ele>1802.6091308594</ele>
        <time>2012-08-09T10:39:17Z</time>
      </trkpt>
      <trkpt lat="45.31215" lon="6.10577">
        <ele>1801.6479492188</ele>
        <time>2012-08-09T10:39:20Z</time>
      </trkpt>
      <trkpt lat="45.31218" lon="6.10575">
        <ele>1802.6091308594</ele>
        <time>2012-08-09T10:39:23Z</time>
      </trkpt>
      <trkpt lat="45.31223" lon="6.10571">
        <ele>1801.1672363281</ele>
        <time>2012-08-09T10:39:27Z</time>
      </trkpt>
      <trkpt lat="45.31231" lon="6.10564">
        <ele>1802.6091308594</ele>
        <time>2012-08-09T10:39:34Z</time>
      </trkpt>
      <trkpt lat="45.31237" lon="6.10559">
        <ele>1805.9738769531</ele>
        <time>2012-08-09T10:39:40Z</time>
      </trkpt>
      <trkpt lat="45.31245" lon="6.10553">
        <ele>1805.4934082031</ele>
        <time>2012-08-09T10:39:46Z</time>
      </trkpt>
      <trkpt lat="45.3125" lon="6.10548">
        <ele>1804.0515136719</ele>
        <time>2012-08-09T10:39:49Z</time>
      </trkpt>
      <trkpt lat="45.31259" lon="6.10547">
        <ele>1802.1284179688</ele>
        <time>2012-08-09T10:39:53Z</time>
      </trkpt>
      <trkpt lat="45.31261" lon="6.10547">
        <ele>1801.6479492188</ele>
        <time>2012-08-09T10:39:55Z</time>
      </trkpt>
      <trkpt lat="45.31268" lon="6.10544">
        <ele>1800.2060546875</ele>
        <time>2012-08-09T10:40:00Z</time>
      </trkpt>
      <trkpt lat="45.31269" lon="6.10544">
        <ele>1799.7253417969</ele>
        <time>2012-08-09T10:40:01Z</time>
      </trkpt>
      <trkpt lat="45.31274" lon="6.1054">
        <ele>1796.8413085938</ele>
        <time>2012-08-09T10:40:06Z</time>
      </trkpt>
      <trkpt lat="45.31282" lon="6.10535">
        <ele>1794.9187011719</ele>
        <time>2012-08-09T10:40:13Z</time>
      </trkpt>
      <trkpt lat="45.31291" lon="6.10531">
        <ele>1794.9187011719</ele>
        <time>2012-08-09T10:40:19Z</time>
      </trkpt>
      <trkpt lat="45.31292" lon="6.1053">
        <ele>1794.4379882812</ele>
        <time>2012-08-09T10:40:20Z</time>
      </trkpt>
      <trkpt lat="45.31301" lon="6.10526">
        <ele>1791.0734863281</ele>
        <time>2012-08-09T10:40:25Z</time>
      </trkpt>
      <trkpt lat="45.31311" lon="6.10521">
        <ele>1789.1508789062</ele>
        <time>2012-08-09T10:40:30Z</time>
      </trkpt>
      <trkpt lat="45.31314" lon="6.1052">
        <ele>1787.2280273438</ele>
        <time>2012-08-09T10:40:32Z</time>
      </trkpt>
      <trkpt lat="45.31322" lon="6.10518">
        <ele>1785.7861328125</ele>
        <time>2012-08-09T10:40:37Z</time>
      </trkpt>
      <trkpt lat="45.31327" lon="6.10519">
        <ele>1786.2668457031</ele>
        <time>2012-08-09T10:40:42Z</time>
      </trkpt>
      <trkpt lat="45.31329" lon="6.1052">
        <ele>1785.7861328125</ele>
        <time>2012-08-09T10:40:47Z</time>
      </trkpt>
      <trkpt lat="45.31332" lon="6.10523">
        <ele>1782.4216308594</ele>
        <time>2012-08-09T10:40:51Z</time>
      </trkpt>
      <trkpt lat="45.31337" lon="6.10523">
        <ele>1779.5375976562</ele>
        <time>2012-08-09T10:40:56Z</time>
      </trkpt>
      <trkpt lat="45.31339" lon="6.10522">
        <ele>1779.5375976562</ele>
        <time>2012-08-09T10:40:57Z</time>
      </trkpt>
      <trkpt lat="45.31343" lon="6.10516">
        <ele>1776.1730957031</ele>
        <time>2012-08-09T10:41:01Z</time>
      </trkpt>
      <trkpt lat="45.31346" lon="6.10512">
        <ele>1776.1730957031</ele>
        <time>2012-08-09T10:41:04Z</time>
      </trkpt>
      <trkpt lat="45.31351" lon="6.10505">
        <ele>1775.2116699219</ele>
        <time>2012-08-09T10:41:09Z</time>
      </trkpt>
      <trkpt lat="45.31356" lon="6.10497">
        <ele>1774.2504882812</ele>
        <time>2012-08-09T10:41:15Z</time>
      </trkpt>
      <trkpt lat="45.31361" lon="6.10491">
        <ele>1772.80859375</ele>
        <time>2012-08-09T10:41:18Z</time>
      </trkpt>
      <trkpt lat="45.31366" lon="6.10483">
        <ele>1772.3278808594</ele>
        <time>2012-08-09T10:41:24Z</time>
      </trkpt>
      <trkpt lat="45.31368" lon="6.10484">
        <ele>1771.3662109375</ele>
        <time>2012-08-09T10:41:28Z</time>
      </trkpt>
      <trkpt lat="45.31369" lon="6.10484">
        <ele>1771.8469238281</ele>
        <time>2012-08-09T10:41:29Z</time>
      </trkpt>
      <trkpt lat="45.31377" lon="6.1049">
        <ele>1770.4050292969</ele>
        <time>2012-08-09T10:41:36Z</time>
      </trkpt>
      <trkpt lat="45.31384" lon="6.10494">
        <ele>1768.0017089844</ele>
        <time>2012-08-09T10:41:42Z</time>
      </trkpt>
      <trkpt lat="45.31387" lon="6.10499">
        <ele>1768.0017089844</ele>
        <time>2012-08-09T10:41:45Z</time>
      </trkpt>
      <trkpt lat="45.31386" lon="6.1051">
        <ele>1766.5598144531</ele>
        <time>2012-08-09T10:41:51Z</time>
      </trkpt>
      <trkpt lat="45.31385" lon="6.10518">
        <ele>1765.5986328125</ele>
        <time>2012-08-09T10:41:56Z</time>
      </trkpt>
      <trkpt lat="45.31386" lon="6.10523">
        <ele>1765.5986328125</ele>
        <time>2012-08-09T10:41:59Z</time>
      </trkpt>
      <trkpt lat="45.31382" lon="6.10532">
        <ele>1768.0017089844</ele>
        <time>2012-08-09T10:42:05Z</time>
      </trkpt>
      <trkpt lat="45.3138" lon="6.10536">
        <ele>1767.0405273438</ele>
        <time>2012-08-09T10:42:08Z</time>
      </trkpt>
      <trkpt lat="45.31376" lon="6.1054">
        <ele>1768.482421875</ele>
        <time>2012-08-09T10:42:12Z</time>
      </trkpt>
      <trkpt lat="45.31375" lon="6.10545">
        <ele>1768.0017089844</ele>
        <time>2012-08-09T10:42:15Z</time>
      </trkpt>
      <trkpt lat="45.3137" lon="6.10551">
        <ele>1769.9243164062</ele>
        <time>2012-08-09T10:42:20Z</time>
      </trkpt>
      <trkpt lat="45.31368" lon="6.10557">
        <ele>1770.4050292969</ele>
        <time>2012-08-09T10:42:24Z</time>
      </trkpt>
      <trkpt lat="45.31367" lon="6.1056">
        <ele>1770.4050292969</ele>
        <time>2012-08-09T10:42:26Z</time>
      </trkpt>
      <trkpt lat="45.31366" lon="6.10575">
        <ele>1765.5986328125</ele>
        <time>2012-08-09T10:42:34Z</time>
      </trkpt>
      <trkpt lat="45.31366" lon="6.10576">
        <ele>1765.1179199219</ele>
        <time>2012-08-09T10:42:35Z</time>
      </trkpt>
      <trkpt lat="45.31363" lon="6.10587">
        <ele>1763.67578125</ele>
        <time>2012-08-09T10:42:41Z</time>
      </trkpt>
      <trkpt lat="45.31363" lon="6.10601">
        <ele>1764.1564941406</ele>
        <time>2012-08-09T10:42:49Z</time>
      </trkpt>
      <trkpt lat="45.31365" lon="6.10615">
        <ele>1762.2338867188</ele>
        <time>2012-08-09T10:42:56Z</time>
      </trkpt>
      <trkpt lat="45.31367" lon="6.10627">
        <ele>1760.3112792969</ele>
        <time>2012-08-09T10:43:02Z</time>
      </trkpt>
      <trkpt lat="45.31367" lon="6.10634">
        <ele>1760.3112792969</ele>
        <time>2012-08-09T10:43:05Z</time>
      </trkpt>
      <trkpt lat="45.3137" lon="6.10641">
        <ele>1758.8693847656</ele>
        <time>2012-08-09T10:43:09Z</time>
      </trkpt>
      <trkpt lat="45.31371" lon="6.10645">
        <ele>1757.908203125</ele>
        <time>2012-08-09T10:43:11Z</time>
      </trkpt>
      <trkpt lat="45.31372" lon="6.10649">
        <ele>1757.908203125</ele>
        <time>2012-08-09T10:43:13Z</time>
      </trkpt>
      <trkpt lat="45.31374" lon="6.10658">
        <ele>1757.908203125</ele>
        <time>2012-08-09T10:43:18Z</time>
      </trkpt>
      <trkpt lat="45.31376" lon="6.10669">
        <ele>1756.9467773438</ele>
        <time>2012-08-09T10:43:24Z</time>
      </trkpt>
      <trkpt lat="45.31379" lon="6.10678">
        <ele>1755.5046386719</ele>
        <time>2012-08-09T10:43:29Z</time>
      </trkpt>
      <trkpt lat="45.3138" lon="6.10681">
        <ele>1755.0239257812</ele>
        <time>2012-08-09T10:43:31Z</time>
      </trkpt>
      <trkpt lat="45.31381" lon="6.10696">
        <ele>1755.0239257812</ele>
        <time>2012-08-09T10:43:39Z</time>
      </trkpt>
      <trkpt lat="45.31382" lon="6.10698">
        <ele>1755.5046386719</ele>
        <time>2012-08-09T10:43:40Z</time>
      </trkpt>
      <trkpt lat="45.31383" lon="6.10707">
        <ele>1754.0627441406</ele>
        <time>2012-08-09T10:43:46Z</time>
      </trkpt>
      <trkpt lat="45.31385" lon="6.1071">
        <ele>1754.0627441406</ele>
        <time>2012-08-09T10:43:48Z</time>
      </trkpt>
      <trkpt lat="45.31387" lon="6.10712">
        <ele>1754.0627441406</ele>
        <time>2012-08-09T10:43:50Z</time>
      </trkpt>
      <trkpt lat="45.3139" lon="6.10716">
        <ele>1753.1013183594</ele>
        <time>2012-08-09T10:43:55Z</time>
      </trkpt>
      <trkpt lat="45.31391" lon="6.10719">
        <ele>1753.1013183594</ele>
        <time>2012-08-09T10:43:57Z</time>
      </trkpt>
      <trkpt lat="45.31395" lon="6.10722">
        <ele>1751.6594238281</ele>
        <time>2012-08-09T10:44:03Z</time>
      </trkpt>
      <trkpt lat="45.31398" lon="6.10726">
        <ele>1750.6979980469</ele>
        <time>2012-08-09T10:44:08Z</time>
      </trkpt>
      <trkpt lat="45.31403" lon="6.10726">
        <ele>1750.2175292969</ele>
        <time>2012-08-09T10:44:15Z</time>
      </trkpt>
      <trkpt lat="45.31406" lon="6.10724">
        <ele>1749.2561035156</ele>
        <time>2012-08-09T10:44:18Z</time>
      </trkpt>
      <trkpt lat="45.31408" lon="6.10723">
        <ele>1748.2946777344</ele>
        <time>2012-08-09T10:44:20Z</time>
      </trkpt>
      <trkpt lat="45.31419" lon="6.10721">
        <ele>1744.9301757812</ele>
        <time>2012-08-09T10:44:26Z</time>
      </trkpt>
      <trkpt lat="45.31421" lon="6.1072">
        <ele>1743.48828125</ele>
        <time>2012-08-09T10:44:28Z</time>
      </trkpt>
      <trkpt lat="45.31424" lon="6.10719">
        <ele>1743.0075683594</ele>
        <time>2012-08-09T10:44:30Z</time>
      </trkpt>
      <trkpt lat="45.31429" lon="6.10719">
        <ele>1744.9301757812</ele>
        <time>2012-08-09T10:44:36Z</time>
      </trkpt>
      <trkpt lat="45.3143" lon="6.10718">
        <ele>1744.9301757812</ele>
        <time>2012-08-09T10:44:37Z</time>
      </trkpt>
      <trkpt lat="45.31436" lon="6.10721">
        <ele>1743.48828125</ele>
        <time>2012-08-09T10:44:44Z</time>
      </trkpt>
      <trkpt lat="45.31442" lon="6.10726">
        <ele>1742.5270996094</ele>
        <time>2012-08-09T10:44:48Z</time>
      </trkpt>
      <trkpt lat="45.31445" lon="6.1073">
        <ele>1741.0849609375</ele>
        <time>2012-08-09T10:44:53Z</time>
      </trkpt>
      <trkpt lat="45.31449" lon="6.10732">
        <ele>1739.6428222656</ele>
        <time>2012-08-09T10:44:59Z</time>
      </trkpt>
      <trkpt lat="45.31451" lon="6.10732">
        <ele>1738.2009277344</ele>
        <time>2012-08-09T10:45:03Z</time>
      </trkpt>
      <trkpt lat="45.31455" lon="6.10734">
        <ele>1736.2783203125</ele>
        <time>2012-08-09T10:45:08Z</time>
      </trkpt>
      <trkpt lat="45.31459" lon="6.10736">
        <ele>1734.3557128906</ele>
        <time>2012-08-09T10:45:14Z</time>
      </trkpt>
      <trkpt lat="45.31463" lon="6.10737">
        <ele>1732.4331054688</ele>
        <time>2012-08-09T10:45:19Z</time>
      </trkpt>
      <trkpt lat="45.31468" lon="6.1074">
        <ele>1731.9523925781</ele>
        <time>2012-08-09T10:45:25Z</time>
      </trkpt>
      <trkpt lat="45.31474" lon="6.10741">
        <ele>1730.5104980469</ele>
        <time>2012-08-09T10:45:31Z</time>
      </trkpt>
      <trkpt lat="45.31479" lon="6.1074">
        <ele>1728.1071777344</ele>
        <time>2012-08-09T10:45:35Z</time>
      </trkpt>
      <trkpt lat="45.31489" lon="6.10743">
        <ele>1725.7038574219</ele>
        <time>2012-08-09T10:45:41Z</time>
      </trkpt>
      <trkpt lat="45.31498" lon="6.10748">
        <ele>1727.1459960938</ele>
        <time>2012-08-09T10:45:48Z</time>
      </trkpt>
      <trkpt lat="45.31501" lon="6.10754">
        <ele>1727.6264648438</ele>
        <time>2012-08-09T10:45:53Z</time>
      </trkpt>
      <trkpt lat="45.31506" lon="6.10758">
        <ele>1727.1459960938</ele>
        <time>2012-08-09T10:45:57Z</time>
      </trkpt>
      <trkpt lat="45.31505" lon="6.10767">
        <ele>1727.1459960938</ele>
        <time>2012-08-09T10:46:02Z</time>
      </trkpt>
      <trkpt lat="45.31509" lon="6.1077">
        <ele>1726.6652832031</ele>
        <time>2012-08-09T10:46:09Z</time>
      </trkpt>
      <trkpt lat="45.31514" lon="6.1077">
        <ele>1727.6264648438</ele>
        <time>2012-08-09T10:46:14Z</time>
      </trkpt>
      <trkpt lat="45.31516" lon="6.10771">
        <ele>1727.6264648438</ele>
        <time>2012-08-09T10:46:16Z</time>
      </trkpt>
      <trkpt lat="45.31524" lon="6.10771">
        <ele>1728.587890625</ele>
        <time>2012-08-09T10:46:22Z</time>
      </trkpt>
      <trkpt lat="45.31534" lon="6.10774">
        <ele>1728.587890625</ele>
        <time>2012-08-09T10:46:30Z</time>
      </trkpt>
      <trkpt lat="45.3154" lon="6.10779">
        <ele>1729.5490722656</ele>
        <time>2012-08-09T10:46:36Z</time>
      </trkpt>
      <trkpt lat="45.31544" lon="6.10785">
        <ele>1729.5490722656</ele>
        <time>2012-08-09T10:46:41Z</time>
      </trkpt>
      <trkpt lat="45.31549" lon="6.1079">
        <ele>1729.5490722656</ele>
        <time>2012-08-09T10:46:46Z</time>
      </trkpt>
      <trkpt lat="45.31553" lon="6.10796">
        <ele>1729.068359375</ele>
        <time>2012-08-09T10:46:50Z</time>
      </trkpt>
      <trkpt lat="45.31554" lon="6.10798">
        <ele>1729.068359375</ele>
        <time>2012-08-09T10:46:52Z</time>
      </trkpt>
      <trkpt lat="45.31559" lon="6.10807">
        <ele>1728.1071777344</ele>
        <time>2012-08-09T10:46:58Z</time>
      </trkpt>
      <trkpt lat="45.31564" lon="6.10816">
        <ele>1728.1071777344</ele>
        <time>2012-08-09T10:47:05Z</time>
      </trkpt>
      <trkpt lat="45.31564" lon="6.1082">
        <ele>1728.587890625</ele>
        <time>2012-08-09T10:47:12Z</time>
      </trkpt>
      <trkpt lat="45.31563" lon="6.10819">
        <ele>1728.587890625</ele>
        <time>2012-08-09T10:47:24Z</time>
      </trkpt>
      <trkpt lat="45.31562" lon="6.10816">
        <ele>1727.6264648438</ele>
        <time>2012-08-09T10:47:30Z</time>
      </trkpt>
      <trkpt lat="45.31563" lon="6.10813">
        <ele>1727.6264648438</ele>
        <time>2012-08-09T10:47:35Z</time>
      </trkpt>
      <trkpt lat="45.31564" lon="6.10811">
        <ele>1727.6264648438</ele>
        <time>2012-08-09T10:47:41Z</time>
      </trkpt>
      <trkpt lat="45.31567" lon="6.10804">
        <ele>1728.587890625</ele>
        <time>2012-08-09T10:47:48Z</time>
      </trkpt>
      <trkpt lat="45.31572" lon="6.108">
        <ele>1730.0297851562</ele>
        <time>2012-08-09T10:47:54Z</time>
      </trkpt>
      <trkpt lat="45.31578" lon="6.10795">
        <ele>1730.9912109375</ele>
        <time>2012-08-09T10:48:02Z</time>
      </trkpt>
      <trkpt lat="45.31583" lon="6.10788">
        <ele>1730.5104980469</ele>
        <time>2012-08-09T10:48:09Z</time>
      </trkpt>
      <trkpt lat="45.31591" lon="6.10784">
        <ele>1729.5490722656</ele>
        <time>2012-08-09T10:48:18Z</time>
      </trkpt>
      <trkpt lat="45.31597" lon="6.10782">
        <ele>1729.068359375</ele>
        <time>2012-08-09T10:48:25Z</time>
      </trkpt>
      <trkpt lat="45.31599" lon="6.10782">
        <ele>1727.6264648438</ele>
        <time>2012-08-09T10:48:32Z</time>
      </trkpt>
      <trkpt lat="45.3161" lon="6.10782">
        <ele>1726.1845703125</ele>
        <time>2012-08-09T10:48:40Z</time>
      </trkpt>
      <trkpt lat="45.31618" lon="6.10784">
        <ele>1726.1845703125</ele>
        <time>2012-08-09T10:48:46Z</time>
      </trkpt>
      <trkpt lat="45.31628" lon="6.10789">
        <ele>1725.7038574219</ele>
        <time>2012-08-09T10:48:54Z</time>
      </trkpt>
      <trkpt lat="45.31639" lon="6.10794">
        <ele>1724.7426757812</ele>
        <time>2012-08-09T10:49:03Z</time>
      </trkpt>
      <trkpt lat="45.31647" lon="6.10798">
        <ele>1724.7426757812</ele>
        <time>2012-08-09T10:49:10Z</time>
      </trkpt>
      <trkpt lat="45.3166" lon="6.10804">
        <ele>1722.3391113281</ele>
        <time>2012-08-09T10:49:20Z</time>
      </trkpt>
      <trkpt lat="45.31667" lon="6.10809">
        <ele>1720.8972167969</ele>
        <time>2012-08-09T10:49:25Z</time>
      </trkpt>
      <trkpt lat="45.31675" lon="6.10813">
        <ele>1719.4553222656</ele>
        <time>2012-08-09T10:49:31Z</time>
      </trkpt>
      <trkpt lat="45.31681" lon="6.10816">
        <ele>1718.974609375</ele>
        <time>2012-08-09T10:49:36Z</time>
      </trkpt>
      <trkpt lat="45.31688" lon="6.1082">
        <ele>1718.974609375</ele>
        <time>2012-08-09T10:49:41Z</time>
      </trkpt>
      <trkpt lat="45.31696" lon="6.10825">
        <ele>1718.974609375</ele>
        <time>2012-08-09T10:49:48Z</time>
      </trkpt>
      <trkpt lat="45.31706" lon="6.10832">
        <ele>1718.974609375</ele>
        <time>2012-08-09T10:49:56Z</time>
      </trkpt>
      <trkpt lat="45.31711" lon="6.10837">
        <ele>1718.974609375</ele>
        <time>2012-08-09T10:50:00Z</time>
      </trkpt>
      <trkpt lat="45.31715" lon="6.10838">
        <ele>1724.2619628906</ele>
        <time>2012-08-09T10:50:06Z</time>
      </trkpt>
      <trkpt lat="45.31719" lon="6.10839">
        <ele>1724.2619628906</ele>
        <time>2012-08-09T10:50:09Z</time>
      </trkpt>
      <trkpt lat="45.31729" lon="6.10839">
        <ele>1727.6264648438</ele>
        <time>2012-08-09T10:50:15Z</time>
      </trkpt>
      <trkpt lat="45.31733" lon="6.1084">
        <ele>1728.1071777344</ele>
        <time>2012-08-09T10:50:17Z</time>
      </trkpt>
      <trkpt lat="45.3174" lon="6.10835">
        <ele>1729.068359375</ele>
        <time>2012-08-09T10:50:22Z</time>
      </trkpt>
      <trkpt lat="45.3175" lon="6.10833">
        <ele>1730.0297851562</ele>
        <time>2012-08-09T10:50:30Z</time>
      </trkpt>
      <trkpt lat="45.31752" lon="6.10829">
        <ele>1729.5490722656</ele>
        <time>2012-08-09T10:50:33Z</time>
      </trkpt>
      <trkpt lat="45.31759" lon="6.10825">
        <ele>1731.4716796875</ele>
        <time>2012-08-09T10:50:39Z</time>
      </trkpt>
      <trkpt lat="45.3177" lon="6.10825">
        <ele>1726.1845703125</ele>
        <time>2012-08-09T10:50:46Z</time>
      </trkpt>
      <trkpt lat="45.3177" lon="6.10824">
        <ele>1726.1845703125</ele>
        <time>2012-08-09T10:50:47Z</time>
      </trkpt>
      <trkpt lat="45.31777" lon="6.10818">
        <ele>1727.1459960938</ele>
        <time>2012-08-09T10:50:52Z</time>
      </trkpt>
      <trkpt lat="45.31778" lon="6.10818">
        <ele>1725.7038574219</ele>
        <time>2012-08-09T10:50:53Z</time>
      </trkpt>
      <trkpt lat="45.31786" lon="6.10811">
        <ele>1723.7810058594</ele>
        <time>2012-08-09T10:50:59Z</time>
      </trkpt>
      <trkpt lat="45.31789" lon="6.10808">
        <ele>1726.1845703125</ele>
        <time>2012-08-09T10:51:02Z</time>
      </trkpt>
      <trkpt lat="45.31794" lon="6.10796">
        <ele>1727.6264648438</ele>
        <time>2012-08-09T10:51:09Z</time>
      </trkpt>
      <trkpt lat="45.31805" lon="6.10789">
        <ele>1726.6652832031</ele>
        <time>2012-08-09T10:51:14Z</time>
      </trkpt>
      <trkpt lat="45.31809" lon="6.10789">
        <ele>1723.3005371094</ele>
        <time>2012-08-09T10:51:16Z</time>
      </trkpt>
      <trkpt lat="45.31813" lon="6.10784">
        <ele>1719.4553222656</ele>
        <time>2012-08-09T10:51:21Z</time>
      </trkpt>
      <trkpt lat="45.31818" lon="6.10781">
        <ele>1715.1293945312</ele>
        <time>2012-08-09T10:51:24Z</time>
      </trkpt>
      <trkpt lat="45.3182" lon="6.10779">
        <ele>1714.16796875</ele>
        <time>2012-08-09T10:51:26Z</time>
      </trkpt>
      <trkpt lat="45.31824" lon="6.10773">
        <ele>1718.0131835938</ele>
        <time>2012-08-09T10:51:30Z</time>
      </trkpt>
      <trkpt lat="45.31838" lon="6.1077">
        <ele>1721.3776855469</ele>
        <time>2012-08-09T10:51:37Z</time>
      </trkpt>
      <trkpt lat="45.31845" lon="6.10769">
        <ele>1720.4165039062</ele>
        <time>2012-08-09T10:51:41Z</time>
      </trkpt>
      <trkpt lat="45.31851" lon="6.10768">
        <ele>1718.0131835938</ele>
        <time>2012-08-09T10:51:45Z</time>
      </trkpt>
      <trkpt lat="45.31863" lon="6.10765">
        <ele>1709.3615722656</ele>
        <time>2012-08-09T10:51:51Z</time>
      </trkpt>
      <trkpt lat="45.31873" lon="6.10763">
        <ele>1711.2841796875</ele>
        <time>2012-08-09T10:51:57Z</time>
      </trkpt>
      <trkpt lat="45.31883" lon="6.10765">
        <ele>1705.9965820312</ele>
        <time>2012-08-09T10:52:03Z</time>
      </trkpt>
      <trkpt lat="45.31892" lon="6.1077">
        <ele>1701.6708984375</ele>
        <time>2012-08-09T10:52:09Z</time>
      </trkpt>
      <trkpt lat="45.31893" lon="6.10771">
        <ele>1701.1901855469</ele>
        <time>2012-08-09T10:52:10Z</time>
      </trkpt>
      <trkpt lat="45.31901" lon="6.10776">
        <ele>1698.3061523438</ele>
        <time>2012-08-09T10:52:16Z</time>
      </trkpt>
      <trkpt lat="45.31905" lon="6.10778">
        <ele>1698.7868652344</ele>
        <time>2012-08-09T10:52:23Z</time>
      </trkpt>
      <trkpt lat="45.31908" lon="6.10779">
        <ele>1697.3449707031</ele>
        <time>2012-08-09T10:52:32Z</time>
      </trkpt>
      <trkpt lat="45.31915" lon="6.10781">
        <ele>1696.3837890625</ele>
        <time>2012-08-09T10:52:37Z</time>
      </trkpt>
      <trkpt lat="45.31923" lon="6.10789">
        <ele>1694.4609375</ele>
        <time>2012-08-09T10:52:44Z</time>
      </trkpt>
      <trkpt lat="45.3193" lon="6.10797">
        <ele>1693.98046875</ele>
        <time>2012-08-09T10:52:49Z</time>
      </trkpt>
      <trkpt lat="45.31937" lon="6.10806">
        <ele>1693.4997558594</ele>
        <time>2012-08-09T10:52:56Z</time>
      </trkpt>
      <trkpt lat="45.31944" lon="6.10811">
        <ele>1692.5385742188</ele>
        <time>2012-08-09T10:53:02Z</time>
      </trkpt>
      <trkpt lat="45.31952" lon="6.10819">
        <ele>1691.5769042969</ele>
        <time>2012-08-09T10:53:07Z</time>
      </trkpt>
      <trkpt lat="45.31961" lon="6.10826">
        <ele>1691.0961914062</ele>
        <time>2012-08-09T10:53:14Z</time>
      </trkpt>
      <trkpt lat="45.31969" lon="6.10833">
        <ele>1691.5769042969</ele>
        <time>2012-08-09T10:53:20Z</time>
      </trkpt>
      <trkpt lat="45.31972" lon="6.10837">
        <ele>1691.5769042969</ele>
        <time>2012-08-09T10:53:23Z</time>
      </trkpt>
      <trkpt lat="45.31976" lon="6.10838">
        <ele>1691.5769042969</ele>
        <time>2012-08-09T10:53:27Z</time>
      </trkpt>
      <trkpt lat="45.31984" lon="6.10844">
        <ele>1691.0961914062</ele>
        <time>2012-08-09T10:53:32Z</time>
      </trkpt>
      <trkpt lat="45.31985" lon="6.10845">
        <ele>1691.0961914062</ele>
        <time>2012-08-09T10:53:33Z</time>
      </trkpt>
      <trkpt lat="45.31989" lon="6.10848">
        <ele>1691.5769042969</ele>
        <time>2012-08-09T10:53:38Z</time>
      </trkpt>
      <trkpt lat="45.32" lon="6.10854">
        <ele>1693.98046875</ele>
        <time>2012-08-09T10:53:45Z</time>
      </trkpt>
      <trkpt lat="45.32009" lon="6.10858">
        <ele>1693.4997558594</ele>
        <time>2012-08-09T10:53:53Z</time>
      </trkpt>
      <trkpt lat="45.32011" lon="6.1086">
        <ele>1693.0190429688</ele>
        <time>2012-08-09T10:53:56Z</time>
      </trkpt>
      <trkpt lat="45.32016" lon="6.10862">
        <ele>1693.0190429688</ele>
        <time>2012-08-09T10:54:00Z</time>
      </trkpt>
      <trkpt lat="45.32021" lon="6.10864">
        <ele>1692.0578613281</ele>
        <time>2012-08-09T10:54:04Z</time>
      </trkpt>
      <trkpt lat="45.32032" lon="6.1087">
        <ele>1691.0961914062</ele>
        <time>2012-08-09T10:54:10Z</time>
      </trkpt>
      <trkpt lat="45.32038" lon="6.10874">
        <ele>1690.1350097656</ele>
        <time>2012-08-09T10:54:15Z</time>
      </trkpt>
      <trkpt lat="45.32047" lon="6.10879">
        <ele>1691.5769042969</ele>
        <time>2012-08-09T10:54:22Z</time>
      </trkpt>
      <trkpt lat="45.32054" lon="6.10883">
        <ele>1692.0578613281</ele>
        <time>2012-08-09T10:54:29Z</time>
      </trkpt>
      <trkpt lat="45.32055" lon="6.10883">
        <ele>1692.0578613281</ele>
        <time>2012-08-09T10:54:30Z</time>
      </trkpt>
      <trkpt lat="45.32066" lon="6.10887">
        <ele>1693.0190429688</ele>
        <time>2012-08-09T10:54:36Z</time>
      </trkpt>
      <trkpt lat="45.32069" lon="6.10889">
        <ele>1693.0190429688</ele>
        <time>2012-08-09T10:54:39Z</time>
      </trkpt>
      <trkpt lat="45.32081" lon="6.10893">
        <ele>1695.4223632812</ele>
        <time>2012-08-09T10:54:47Z</time>
      </trkpt>
      <trkpt lat="45.3209" lon="6.10899">
        <ele>1696.3837890625</ele>
        <time>2012-08-09T10:54:53Z</time>
      </trkpt>
      <trkpt lat="45.32094" lon="6.10904">
        <ele>1695.9030761719</ele>
        <time>2012-08-09T10:54:56Z</time>
      </trkpt>
      <trkpt lat="45.32098" lon="6.10906">
        <ele>1694.9416503906</ele>
        <time>2012-08-09T10:54:59Z</time>
      </trkpt>
      <trkpt lat="45.32103" lon="6.10909">
        <ele>1692.5385742188</ele>
        <time>2012-08-09T10:55:03Z</time>
      </trkpt>
      <trkpt lat="45.32112" lon="6.10909">
        <ele>1688.2124023438</ele>
        <time>2012-08-09T10:55:10Z</time>
      </trkpt>
      <trkpt lat="45.32117" lon="6.10911">
        <ele>1686.2897949219</ele>
        <time>2012-08-09T10:55:13Z</time>
      </trkpt>
      <trkpt lat="45.32124" lon="6.10913">
        <ele>1684.8479003906</ele>
        <time>2012-08-09T10:55:18Z</time>
      </trkpt>
      <trkpt lat="45.3213" lon="6.10914">
        <ele>1683.8864746094</ele>
        <time>2012-08-09T10:55:23Z</time>
      </trkpt>
      <trkpt lat="45.32135" lon="6.10914">
        <ele>1683.4057617188</ele>
        <time>2012-08-09T10:55:27Z</time>
      </trkpt>
      <trkpt lat="45.32141" lon="6.10916">
        <ele>1682.9250488281</ele>
        <time>2012-08-09T10:55:32Z</time>
      </trkpt>
      <trkpt lat="45.32148" lon="6.1092">
        <ele>1682.9250488281</ele>
        <time>2012-08-09T10:55:36Z</time>
      </trkpt>
      <trkpt lat="45.32158" lon="6.10923">
        <ele>1681.0026855469</ele>
        <time>2012-08-09T10:55:42Z</time>
      </trkpt>
      <trkpt lat="45.32166" lon="6.10924">
        <ele>1679.0798339844</ele>
        <time>2012-08-09T10:55:46Z</time>
      </trkpt>
      <trkpt lat="45.32172" lon="6.1092">
        <ele>1677.6379394531</ele>
        <time>2012-08-09T10:55:51Z</time>
      </trkpt>
      <trkpt lat="45.32178" lon="6.10915">
        <ele>1679.0798339844</ele>
        <time>2012-08-09T10:55:56Z</time>
      </trkpt>
      <trkpt lat="45.32182" lon="6.10913">
        <ele>1680.5219726562</ele>
        <time>2012-08-09T10:55:59Z</time>
      </trkpt>
      <trkpt lat="45.32189" lon="6.10911">
        <ele>1680.0412597656</ele>
        <time>2012-08-09T10:56:05Z</time>
      </trkpt>
      <trkpt lat="45.32193" lon="6.10913">
        <ele>1676.6767578125</ele>
        <time>2012-08-09T10:56:09Z</time>
      </trkpt>
      <trkpt lat="45.322" lon="6.10915">
        <ele>1674.75390625</ele>
        <time>2012-08-09T10:56:14Z</time>
      </trkpt>
      <trkpt lat="45.32206" lon="6.10919">
        <ele>1673.7924804688</ele>
        <time>2012-08-09T10:56:19Z</time>
      </trkpt>
      <trkpt lat="45.32211" lon="6.1092">
        <ele>1672.8312988281</ele>
        <time>2012-08-09T10:56:23Z</time>
      </trkpt>
      <trkpt lat="45.32219" lon="6.10923">
        <ele>1669.947265625</ele>
        <time>2012-08-09T10:56:29Z</time>
      </trkpt>
      <trkpt lat="45.32228" lon="6.10928">
        <ele>1668.0246582031</ele>
        <time>2012-08-09T10:56:36Z</time>
      </trkpt>
      <trkpt lat="45.32237" lon="6.10935">
        <ele>1669.466796875</ele>
        <time>2012-08-09T10:56:42Z</time>
      </trkpt>
      <trkpt lat="45.32243" lon="6.10934">
        <ele>1669.947265625</ele>
        <time>2012-08-09T10:56:46Z</time>
      </trkpt>
      <trkpt lat="45.32253" lon="6.10935">
        <ele>1668.5053710938</ele>
        <time>2012-08-09T10:56:52Z</time>
      </trkpt>
      <trkpt lat="45.32254" lon="6.10936">
        <ele>1668.0246582031</ele>
        <time>2012-08-09T10:56:53Z</time>
      </trkpt>
      <trkpt lat="45.32259" lon="6.10936">
        <ele>1667.5439453125</ele>
        <time>2012-08-09T10:56:56Z</time>
      </trkpt>
      <trkpt lat="45.32267" lon="6.10934">
        <ele>1666.5827636719</ele>
        <time>2012-08-09T10:57:02Z</time>
      </trkpt>
      <trkpt lat="45.32269" lon="6.10934">
        <ele>1666.1020507812</ele>
        <time>2012-08-09T10:57:03Z</time>
      </trkpt>
      <trkpt lat="45.32276" lon="6.10935">
        <ele>1666.1020507812</ele>
        <time>2012-08-09T10:57:10Z</time>
      </trkpt>
      <trkpt lat="45.32278" lon="6.10935">
        <ele>1665.1408691406</ele>
        <time>2012-08-09T10:57:12Z</time>
      </trkpt>
      <trkpt lat="45.32285" lon="6.10934">
        <ele>1663.2182617188</ele>
        <time>2012-08-09T10:57:18Z</time>
      </trkpt>
      <trkpt lat="45.32291" lon="6.10932">
        <ele>1661.2956542969</ele>
        <time>2012-08-09T10:57:23Z</time>
      </trkpt>
      <trkpt lat="45.32298" lon="6.10931">
        <ele>1659.3728027344</ele>
        <time>2012-08-09T10:57:28Z</time>
      </trkpt>
      <trkpt lat="45.32303" lon="6.1093">
        <ele>1656.4887695312</ele>
        <time>2012-08-09T10:57:33Z</time>
      </trkpt>
      <trkpt lat="45.32313" lon="6.10931">
        <ele>1654.5661621094</ele>
        <time>2012-08-09T10:57:39Z</time>
      </trkpt>
      <trkpt lat="45.32314" lon="6.10931">
        <ele>1654.0856933594</ele>
        <time>2012-08-09T10:57:40Z</time>
      </trkpt>
      <trkpt lat="45.32321" lon="6.10937">
        <ele>1650.2404785156</ele>
        <time>2012-08-09T10:57:45Z</time>
      </trkpt>
      <trkpt lat="45.32327" lon="6.10938">
        <ele>1650.2404785156</ele>
        <time>2012-08-09T10:57:49Z</time>
      </trkpt>
      <trkpt lat="45.32339" lon="6.10945">
        <ele>1647.8371582031</ele>
        <time>2012-08-09T10:57:55Z</time>
      </trkpt>
      <trkpt lat="45.32343" lon="6.10944">
        <ele>1646.8757324219</ele>
        <time>2012-08-09T10:57:59Z</time>
      </trkpt>
      <trkpt lat="45.32344" lon="6.10942">
        <ele>1646.3952636719</ele>
        <time>2012-08-09T10:58:00Z</time>
      </trkpt>
      <trkpt lat="45.32352" lon="6.10939">
        <ele>1643.5109863281</ele>
        <time>2012-08-09T10:58:06Z</time>
      </trkpt>
      <trkpt lat="45.32359" lon="6.10947">
        <ele>1641.5883789062</ele>
        <time>2012-08-09T10:58:11Z</time>
      </trkpt>
      <trkpt lat="45.32371" lon="6.10942">
        <ele>1637.2624511719</ele>
        <time>2012-08-09T10:58:18Z</time>
      </trkpt>
      <trkpt lat="45.3238" lon="6.10937">
        <ele>1634.859375</ele>
        <time>2012-08-09T10:58:23Z</time>
      </trkpt>
      <trkpt lat="45.32382" lon="6.10935">
        <ele>1634.3786621094</ele>
        <time>2012-08-09T10:58:24Z</time>
      </trkpt>
      <trkpt lat="45.32383" lon="6.10924">
        <ele>1631.4946289062</ele>
        <time>2012-08-09T10:58:30Z</time>
      </trkpt>
      <trkpt lat="45.32382" lon="6.10919">
        <ele>1630.5334472656</ele>
        <time>2012-08-09T10:58:33Z</time>
      </trkpt>
      <trkpt lat="45.32381" lon="6.10904">
        <ele>1628.1301269531</ele>
        <time>2012-08-09T10:58:40Z</time>
      </trkpt>
      <trkpt lat="45.32384" lon="6.10894">
        <ele>1624.2846679688</ele>
        <time>2012-08-09T10:58:45Z</time>
      </trkpt>
      <trkpt lat="45.32385" lon="6.1089">
        <ele>1623.3234863281</ele>
        <time>2012-08-09T10:58:48Z</time>
      </trkpt>
      <trkpt lat="45.32393" lon="6.10881">
        <ele>1619.4782714844</ele>
        <time>2012-08-09T10:58:53Z</time>
      </trkpt>
      <trkpt lat="45.32399" lon="6.1088">
        <ele>1617.0749511719</ele>
        <time>2012-08-09T10:58:57Z</time>
      </trkpt>
      <trkpt lat="45.32409" lon="6.10882">
        <ele>1615.6330566406</ele>
        <time>2012-08-09T10:59:02Z</time>
      </trkpt>
      <trkpt lat="45.32413" lon="6.10884">
        <ele>1615.15234375</ele>
        <time>2012-08-09T10:59:04Z</time>
      </trkpt>
      <trkpt lat="45.32423" lon="6.10887">
        <ele>1615.6330566406</ele>
        <time>2012-08-09T10:59:09Z</time>
      </trkpt>
      <trkpt lat="45.32431" lon="6.10889">
        <ele>1612.7490234375</ele>
        <time>2012-08-09T10:59:15Z</time>
      </trkpt>
      <trkpt lat="45.32435" lon="6.10889">
        <ele>1610.3454589844</ele>
        <time>2012-08-09T10:59:19Z</time>
      </trkpt>
      <trkpt lat="45.32448" lon="6.10896">
        <ele>1606.9809570312</ele>
        <time>2012-08-09T10:59:26Z</time>
      </trkpt>
      <trkpt lat="45.32458" lon="6.109">
        <ele>1605.0583496094</ele>
        <time>2012-08-09T10:59:31Z</time>
      </trkpt>
      <trkpt lat="45.32471" lon="6.10902">
        <ele>1603.6164550781</ele>
        <time>2012-08-09T10:59:36Z</time>
      </trkpt>
      <trkpt lat="45.32472" lon="6.10903">
        <ele>1603.6164550781</ele>
        <time>2012-08-09T10:59:37Z</time>
      </trkpt>
      <trkpt lat="45.32479" lon="6.10905">
        <ele>1601.2131347656</ele>
        <time>2012-08-09T10:59:42Z</time>
      </trkpt>
      <trkpt lat="45.32485" lon="6.10904">
        <ele>1598.3291015625</ele>
        <time>2012-08-09T10:59:46Z</time>
      </trkpt>
      <trkpt lat="45.32493" lon="6.10903">
        <ele>1596.8872070312</ele>
        <time>2012-08-09T10:59:51Z</time>
      </trkpt>
      <trkpt lat="45.32496" lon="6.10902">
        <ele>1595.92578125</ele>
        <time>2012-08-09T10:59:53Z</time>
      </trkpt>
      <trkpt lat="45.32499" lon="6.10899">
        <ele>1594.0031738281</ele>
        <time>2012-08-09T10:59:56Z</time>
      </trkpt>
      <trkpt lat="45.3251" lon="6.10899">
        <ele>1591.119140625</ele>
        <time>2012-08-09T11:00:02Z</time>
      </trkpt>
      <trkpt lat="45.32516" lon="6.10901">
        <ele>1587.7546386719</ele>
        <time>2012-08-09T11:00:06Z</time>
      </trkpt>
      <trkpt lat="45.32523" lon="6.10901">
        <ele>1585.83203125</ele>
        <time>2012-08-09T11:00:10Z</time>
      </trkpt>
      <trkpt lat="45.32528" lon="6.10901">
        <ele>1585.3513183594</ele>
        <time>2012-08-09T11:00:12Z</time>
      </trkpt>
      <trkpt lat="45.32539" lon="6.10899">
        <ele>1581.0256347656</ele>
        <time>2012-08-09T11:00:18Z</time>
      </trkpt>
      <trkpt lat="45.32546" lon="6.10897">
        <ele>1579.1025390625</ele>
        <time>2012-08-09T11:00:21Z</time>
      </trkpt>
      <trkpt lat="45.32558" lon="6.10899">
        <ele>1577.6606445312</ele>
        <time>2012-08-09T11:00:27Z</time>
      </trkpt>
      <trkpt lat="45.32564" lon="6.10901">
        <ele>1576.6994628906</ele>
        <time>2012-08-09T11:00:30Z</time>
      </trkpt>
      <trkpt lat="45.32573" lon="6.10902">
        <ele>1574.2961425781</ele>
        <time>2012-08-09T11:00:35Z</time>
      </trkpt>
      <trkpt lat="45.32582" lon="6.10895">
        <ele>1570.4509277344</ele>
        <time>2012-08-09T11:00:41Z</time>
      </trkpt>
      <trkpt lat="45.32586" lon="6.10893">
        <ele>1569.0090332031</ele>
        <time>2012-08-09T11:00:44Z</time>
      </trkpt>
      <trkpt lat="45.32595" lon="6.10893">
        <ele>1566.6057128906</ele>
        <time>2012-08-09T11:00:50Z</time>
      </trkpt>
      <trkpt lat="45.32602" lon="6.10893">
        <ele>1568.5283203125</ele>
        <time>2012-08-09T11:00:54Z</time>
      </trkpt>
      <trkpt lat="45.32603" lon="6.10893">
        <ele>1569.9702148438</ele>
        <time>2012-08-09T11:00:55Z</time>
      </trkpt>
      <trkpt lat="45.32616" lon="6.10896">
        <ele>1569.0090332031</ele>
        <time>2012-08-09T11:01:00Z</time>
      </trkpt>
      <trkpt lat="45.32631" lon="6.10896">
        <ele>1571.412109375</ele>
        <time>2012-08-09T11:01:06Z</time>
      </trkpt>
      <trkpt lat="45.32644" lon="6.10899">
        <ele>1569.0090332031</ele>
        <time>2012-08-09T11:01:10Z</time>
      </trkpt>
      <trkpt lat="45.32647" lon="6.109">
        <ele>1568.0476074219</ele>
        <time>2012-08-09T11:01:11Z</time>
      </trkpt>
      <trkpt lat="45.32661" lon="6.10899">
        <ele>1564.2023925781</ele>
        <time>2012-08-09T11:01:17Z</time>
      </trkpt>
      <trkpt lat="45.32668" lon="6.10898">
        <ele>1562.7602539062</ele>
        <time>2012-08-09T11:01:20Z</time>
      </trkpt>
      <trkpt lat="45.32677" lon="6.10901">
        <ele>1560.8376464844</ele>
        <time>2012-08-09T11:01:26Z</time>
      </trkpt>
      <trkpt lat="45.32687" lon="6.10898">
        <ele>1557.9538574219</ele>
        <time>2012-08-09T11:01:31Z</time>
      </trkpt>
      <trkpt lat="45.32689" lon="6.10897">
        <ele>1558.4343261719</ele>
        <time>2012-08-09T11:01:32Z</time>
      </trkpt>
      <trkpt lat="45.32701" lon="6.10892">
        <ele>1558.4343261719</ele>
        <time>2012-08-09T11:01:37Z</time>
      </trkpt>
      <trkpt lat="45.32703" lon="6.10891">
        <ele>1558.9150390625</ele>
        <time>2012-08-09T11:01:39Z</time>
      </trkpt>
      <trkpt lat="45.32715" lon="6.10883">
        <ele>1559.8762207031</ele>
        <time>2012-08-09T11:01:45Z</time>
      </trkpt>
      <trkpt lat="45.32724" lon="6.10877">
        <ele>1553.1472167969</ele>
        <time>2012-08-09T11:01:49Z</time>
      </trkpt>
      <trkpt lat="45.3273" lon="6.10868">
        <ele>1550.2634277344</ele>
        <time>2012-08-09T11:01:52Z</time>
      </trkpt>
      <trkpt lat="45.32742" lon="6.10861">
        <ele>1543.0532226562</ele>
        <time>2012-08-09T11:01:58Z</time>
      </trkpt>
      <trkpt lat="45.32751" lon="6.10854">
        <ele>1540.1694335938</ele>
        <time>2012-08-09T11:02:03Z</time>
      </trkpt>
      <trkpt lat="45.32758" lon="6.10849">
        <ele>1536.8046875</ele>
        <time>2012-08-09T11:02:07Z</time>
      </trkpt>
      <trkpt lat="45.32767" lon="6.10845">
        <ele>1534.8823242188</ele>
        <time>2012-08-09T11:02:11Z</time>
      </trkpt>
      <trkpt lat="45.32771" lon="6.10843">
        <ele>1533.9208984375</ele>
        <time>2012-08-09T11:02:13Z</time>
      </trkpt>
      <trkpt lat="45.32777" lon="6.10834">
        <ele>1531.998046875</ele>
        <time>2012-08-09T11:02:18Z</time>
      </trkpt>
      <trkpt lat="45.32789" lon="6.10826">
        <ele>1527.1916503906</ele>
        <time>2012-08-09T11:02:24Z</time>
      </trkpt>
      <trkpt lat="45.328" lon="6.10821">
        <ele>1522.8657226562</ele>
        <time>2012-08-09T11:02:29Z</time>
      </trkpt>
      <trkpt lat="45.32809" lon="6.10815">
        <ele>1524.7883300781</ele>
        <time>2012-08-09T11:02:34Z</time>
      </trkpt>
      <trkpt lat="45.32817" lon="6.10806">
        <ele>1519.9816894531</ele>
        <time>2012-08-09T11:02:39Z</time>
      </trkpt>
      <trkpt lat="45.32822" lon="6.10801">
        <ele>1518.0590820312</ele>
        <time>2012-08-09T11:02:42Z</time>
      </trkpt>
      <trkpt lat="45.32825" lon="6.10797">
        <ele>1515.6557617188</ele>
        <time>2012-08-09T11:02:44Z</time>
      </trkpt>
      <trkpt lat="45.32837" lon="6.10794">
        <ele>1514.2136230469</ele>
        <time>2012-08-09T11:02:50Z</time>
      </trkpt>
      <trkpt lat="45.32841" lon="6.10794">
        <ele>1513.2524414062</ele>
        <time>2012-08-09T11:02:52Z</time>
      </trkpt>
      <trkpt lat="45.32853" lon="6.10794">
        <ele>1511.810546875</ele>
        <time>2012-08-09T11:02:58Z</time>
      </trkpt>
      <trkpt lat="45.32857" lon="6.10793">
        <ele>1511.3298339844</ele>
        <time>2012-08-09T11:03:00Z</time>
      </trkpt>
      <trkpt lat="45.32869" lon="6.10781">
        <ele>1509.8876953125</ele>
        <time>2012-08-09T11:03:05Z</time>
      </trkpt>
      <trkpt lat="45.32871" lon="6.10778">
        <ele>1509.8876953125</ele>
        <time>2012-08-09T11:03:06Z</time>
      </trkpt>
      <trkpt lat="45.3288" lon="6.10765">
        <ele>1509.8876953125</ele>
        <time>2012-08-09T11:03:10Z</time>
      </trkpt>
      <trkpt lat="45.32891" lon="6.10752">
        <ele>1508.4458007812</ele>
        <time>2012-08-09T11:03:15Z</time>
      </trkpt>
      <trkpt lat="45.32895" lon="6.10742">
        <ele>1506.5231933594</ele>
        <time>2012-08-09T11:03:19Z</time>
      </trkpt>
      <trkpt lat="45.32901" lon="6.10737">
        <ele>1503.1586914062</ele>
        <time>2012-08-09T11:03:22Z</time>
      </trkpt>
      <trkpt lat="45.32908" lon="6.10736">
        <ele>1500.7553710938</ele>
        <time>2012-08-09T11:03:25Z</time>
      </trkpt>
      <trkpt lat="45.32914" lon="6.10735">
        <ele>1498.3518066406</ele>
        <time>2012-08-09T11:03:28Z</time>
      </trkpt>
      <trkpt lat="45.32925" lon="6.10734">
        <ele>1499.3132324219</ele>
        <time>2012-08-09T11:03:33Z</time>
      </trkpt>
      <trkpt lat="45.32937" lon="6.10724">
        <ele>1509.4072265625</ele>
        <time>2012-08-09T11:03:40Z</time>
      </trkpt>
      <trkpt lat="45.32949" lon="6.10728">
        <ele>1511.3298339844</ele>
        <time>2012-08-09T11:03:46Z</time>
      </trkpt>
      <trkpt lat="45.32953" lon="6.10729">
        <ele>1510.8491210938</ele>
        <time>2012-08-09T11:03:48Z</time>
      </trkpt>
      <trkpt lat="45.32961" lon="6.10727">
        <ele>1507.00390625</ele>
        <time>2012-08-09T11:03:51Z</time>
      </trkpt>
      <trkpt lat="45.3297" lon="6.10712">
        <ele>1499.7939453125</ele>
        <time>2012-08-09T11:03:57Z</time>
      </trkpt>
      <trkpt lat="45.32981" lon="6.10699">
        <ele>1491.6228027344</ele>
        <time>2012-08-09T11:04:04Z</time>
      </trkpt>
      <trkpt lat="45.32984" lon="6.10697">
        <ele>1489.7001953125</ele>
        <time>2012-08-09T11:04:06Z</time>
      </trkpt>
      <trkpt lat="45.32992" lon="6.10693">
        <ele>1485.8549804688</ele>
        <time>2012-08-09T11:04:11Z</time>
      </trkpt>
      <trkpt lat="45.32997" lon="6.10689">
        <ele>1482.490234375</ele>
        <time>2012-08-09T11:04:15Z</time>
      </trkpt>
      <trkpt lat="45.32999" lon="6.10689">
        <ele>1482.0095214844</ele>
        <time>2012-08-09T11:04:16Z</time>
      </trkpt>
      <trkpt lat="45.33007" lon="6.10683">
        <ele>1479.6062011719</ele>
        <time>2012-08-09T11:04:21Z</time>
      </trkpt>
      <trkpt lat="45.33012" lon="6.10672">
        <ele>1480.0869140625</ele>
        <time>2012-08-09T11:04:27Z</time>
      </trkpt>
      <trkpt lat="45.33017" lon="6.10663">
        <ele>1480.0869140625</ele>
        <time>2012-08-09T11:04:31Z</time>
      </trkpt>
      <trkpt lat="45.33019" lon="6.10656">
        <ele>1481.0483398438</ele>
        <time>2012-08-09T11:04:34Z</time>
      </trkpt>
      <trkpt lat="45.33029" lon="6.10648">
        <ele>1478.1643066406</ele>
        <time>2012-08-09T11:04:40Z</time>
      </trkpt>
      <trkpt lat="45.33035" lon="6.10641">
        <ele>1476.7224121094</ele>
        <time>2012-08-09T11:04:44Z</time>
      </trkpt>
      <trkpt lat="45.33041" lon="6.10639">
        <ele>1474.7998046875</ele>
        <time>2012-08-09T11:04:47Z</time>
      </trkpt>
      <trkpt lat="45.33051" lon="6.10648">
        <ele>1471.4350585938</ele>
        <time>2012-08-09T11:04:53Z</time>
      </trkpt>
      <trkpt lat="45.3306" lon="6.10659">
        <ele>1469.0319824219</ele>
        <time>2012-08-09T11:04:57Z</time>
      </trkpt>
      <trkpt lat="45.33066" lon="6.10665">
        <ele>1466.1477050781</ele>
        <time>2012-08-09T11:05:01Z</time>
      </trkpt>
      <trkpt lat="45.33073" lon="6.1067">
        <ele>1465.1865234375</ele>
        <time>2012-08-09T11:05:05Z</time>
      </trkpt>
      <trkpt lat="45.3308" lon="6.10672">
        <ele>1464.2250976562</ele>
        <time>2012-08-09T11:05:09Z</time>
      </trkpt>
      <trkpt lat="45.33086" lon="6.10677">
        <ele>1463.7443847656</ele>
        <time>2012-08-09T11:05:12Z</time>
      </trkpt>
      <trkpt lat="45.33094" lon="6.1068">
        <ele>1461.3413085938</ele>
        <time>2012-08-09T11:05:16Z</time>
      </trkpt>
      <trkpt lat="45.33106" lon="6.10689">
        <ele>1460.8605957031</ele>
        <time>2012-08-09T11:05:21Z</time>
      </trkpt>
      <trkpt lat="45.33113" lon="6.10693">
        <ele>1459.8991699219</ele>
        <time>2012-08-09T11:05:24Z</time>
      </trkpt>
      <trkpt lat="45.33123" lon="6.10702">
        <ele>1455.5734863281</ele>
        <time>2012-08-09T11:05:30Z</time>
      </trkpt>
      <trkpt lat="45.33134" lon="6.10704">
        <ele>1453.1701660156</ele>
        <time>2012-08-09T11:05:35Z</time>
      </trkpt>
      <trkpt lat="45.33144" lon="6.10712">
        <ele>1449.8054199219</ele>
        <time>2012-08-09T11:05:40Z</time>
      </trkpt>
      <trkpt lat="45.33148" lon="6.10715">
        <ele>1449.3247070312</ele>
        <time>2012-08-09T11:05:43Z</time>
      </trkpt>
      <trkpt lat="45.33152" lon="6.10716">
        <ele>1447.8828125</ele>
        <time>2012-08-09T11:05:45Z</time>
      </trkpt>
      <trkpt lat="45.33158" lon="6.10721">
        <ele>1445.4794921875</ele>
        <time>2012-08-09T11:05:48Z</time>
      </trkpt>
      <trkpt lat="45.3317" lon="6.10733">
        <ele>1440.1923828125</ele>
        <time>2012-08-09T11:05:54Z</time>
      </trkpt>
      <trkpt lat="45.33181" lon="6.10741">
        <ele>1435.8662109375</ele>
        <time>2012-08-09T11:05:59Z</time>
      </trkpt>
      <trkpt lat="45.33188" lon="6.1075">
        <ele>1431.5402832031</ele>
        <time>2012-08-09T11:06:04Z</time>
      </trkpt>
      <trkpt lat="45.33192" lon="6.10762">
        <ele>1428.6564941406</ele>
        <time>2012-08-09T11:06:08Z</time>
      </trkpt>
      <trkpt lat="45.33202" lon="6.10779">
        <ele>1424.3305664062</ele>
        <time>2012-08-09T11:06:14Z</time>
      </trkpt>
      <trkpt lat="45.33205" lon="6.10784">
        <ele>1423.8498535156</ele>
        <time>2012-08-09T11:06:16Z</time>
      </trkpt>
      <trkpt lat="45.33207" lon="6.10793">
        <ele>1424.8112792969</ele>
        <time>2012-08-09T11:06:18Z</time>
      </trkpt>
      <trkpt lat="45.33217" lon="6.1081">
        <ele>1424.3305664062</ele>
        <time>2012-08-09T11:06:23Z</time>
      </trkpt>
      <trkpt lat="45.33223" lon="6.10821">
        <ele>1421.9272460938</ele>
        <time>2012-08-09T11:06:27Z</time>
      </trkpt>
      <trkpt lat="45.33227" lon="6.1083">
        <ele>1420.0046386719</ele>
        <time>2012-08-09T11:06:30Z</time>
      </trkpt>
      <trkpt lat="45.33231" lon="6.10843">
        <ele>1416.1591796875</ele>
        <time>2012-08-09T11:06:34Z</time>
      </trkpt>
      <trkpt lat="45.33232" lon="6.10859">
        <ele>1415.6787109375</ele>
        <time>2012-08-09T11:06:39Z</time>
      </trkpt>
      <trkpt lat="45.33236" lon="6.10873">
        <ele>1415.6787109375</ele>
        <time>2012-08-09T11:06:43Z</time>
      </trkpt>
      <trkpt lat="45.33239" lon="6.10879">
        <ele>1416.6398925781</ele>
        <time>2012-08-09T11:06:46Z</time>
      </trkpt>
      <trkpt lat="45.33245" lon="6.10887">
        <ele>1416.6398925781</ele>
        <time>2012-08-09T11:06:51Z</time>
      </trkpt>
      <trkpt lat="45.33247" lon="6.10893">
        <ele>1417.6010742188</ele>
        <time>2012-08-09T11:06:54Z</time>
      </trkpt>
      <trkpt lat="45.33255" lon="6.10901">
        <ele>1414.2365722656</ele>
        <time>2012-08-09T11:07:00Z</time>
      </trkpt>
      <trkpt lat="45.33257" lon="6.10907">
        <ele>1412.7946777344</ele>
        <time>2012-08-09T11:07:03Z</time>
      </trkpt>
      <trkpt lat="45.33263" lon="6.10927">
        <ele>1409.9106445312</ele>
        <time>2012-08-09T11:07:10Z</time>
      </trkpt>
      <trkpt lat="45.33269" lon="6.10933">
        <ele>1408.9494628906</ele>
        <time>2012-08-09T11:07:13Z</time>
      </trkpt>
      <trkpt lat="45.33272" lon="6.1094">
        <ele>1407.5075683594</ele>
        <time>2012-08-09T11:07:17Z</time>
      </trkpt>
      <trkpt lat="45.33274" lon="6.10944">
        <ele>1406.0654296875</ele>
        <time>2012-08-09T11:07:19Z</time>
      </trkpt>
      <trkpt lat="45.33276" lon="6.10954">
        <ele>1404.6235351562</ele>
        <time>2012-08-09T11:07:23Z</time>
      </trkpt>
      <trkpt lat="45.33281" lon="6.10965">
        <ele>1405.5849609375</ele>
        <time>2012-08-09T11:07:29Z</time>
      </trkpt>
      <trkpt lat="45.33287" lon="6.10975">
        <ele>1405.5849609375</ele>
        <time>2012-08-09T11:07:35Z</time>
      </trkpt>
      <trkpt lat="45.33287" lon="6.10991">
        <ele>1403.662109375</ele>
        <time>2012-08-09T11:07:40Z</time>
      </trkpt>
      <trkpt lat="45.33293" lon="6.11006">
        <ele>1398.3747558594</ele>
        <time>2012-08-09T11:07:46Z</time>
      </trkpt>
      <trkpt lat="45.33297" lon="6.11014">
        <ele>1394.0490722656</ele>
        <time>2012-08-09T11:07:51Z</time>
      </trkpt>
      <trkpt lat="45.333" lon="6.11019">
        <ele>1391.1650390625</ele>
        <time>2012-08-09T11:07:54Z</time>
      </trkpt>
      <trkpt lat="45.33303" lon="6.11029">
        <ele>1388.28125</ele>
        <time>2012-08-09T11:07:59Z</time>
      </trkpt>
      <trkpt lat="45.33306" lon="6.11031">
        <ele>1387.8002929688</ele>
        <time>2012-08-09T11:08:00Z</time>
      </trkpt>
      <trkpt lat="45.33311" lon="6.11046">
        <ele>1383.955078125</ele>
        <time>2012-08-09T11:08:06Z</time>
      </trkpt>
      <trkpt lat="45.33307" lon="6.11059">
        <ele>1380.5905761719</ele>
        <time>2012-08-09T11:08:11Z</time>
      </trkpt>
      <trkpt lat="45.33307" lon="6.1107">
        <ele>1378.1872558594</ele>
        <time>2012-08-09T11:08:15Z</time>
      </trkpt>
      <trkpt lat="45.33303" lon="6.1108">
        <ele>1373.861328125</ele>
        <time>2012-08-09T11:08:20Z</time>
      </trkpt>
      <trkpt lat="45.333" lon="6.11093">
        <ele>1371.4577636719</ele>
        <time>2012-08-09T11:08:25Z</time>
      </trkpt>
      <trkpt lat="45.33299" lon="6.111">
        <ele>1369.5354003906</ele>
        <time>2012-08-09T11:08:28Z</time>
      </trkpt>
      <trkpt lat="45.33291" lon="6.11117">
        <ele>1364.248046875</ele>
        <time>2012-08-09T11:08:34Z</time>
      </trkpt>
      <trkpt lat="45.3328" lon="6.11133">
        <ele>1363.2868652344</ele>
        <time>2012-08-09T11:08:40Z</time>
      </trkpt>
      <trkpt lat="45.33274" lon="6.11148">
        <ele>1362.8061523438</ele>
        <time>2012-08-09T11:08:45Z</time>
      </trkpt>
      <trkpt lat="45.33271" lon="6.11163">
        <ele>1362.8061523438</ele>
        <time>2012-08-09T11:08:50Z</time>
      </trkpt>
      <trkpt lat="45.33269" lon="6.1117">
        <ele>1361.8449707031</ele>
        <time>2012-08-09T11:08:52Z</time>
      </trkpt>
      <trkpt lat="45.33269" lon="6.11185">
        <ele>1361.8449707031</ele>
        <time>2012-08-09T11:08:56Z</time>
      </trkpt>
      <trkpt lat="45.33265" lon="6.11198">
        <ele>1365.2094726562</ele>
        <time>2012-08-09T11:08:59Z</time>
      </trkpt>
      <trkpt lat="45.33263" lon="6.11202">
        <ele>1365.2094726562</ele>
        <time>2012-08-09T11:09:01Z</time>
      </trkpt>
      <trkpt lat="45.33261" lon="6.1121">
        <ele>1360.8835449219</ele>
        <time>2012-08-09T11:09:05Z</time>
      </trkpt>
      <trkpt lat="45.3326" lon="6.11225">
        <ele>1355.1154785156</ele>
        <time>2012-08-09T11:09:11Z</time>
      </trkpt>
      <trkpt lat="45.33257" lon="6.11234">
        <ele>1349.8283691406</ele>
        <time>2012-08-09T11:09:15Z</time>
      </trkpt>
      <trkpt lat="45.33252" lon="6.11241">
        <ele>1348.8669433594</ele>
        <time>2012-08-09T11:09:18Z</time>
      </trkpt>
      <trkpt lat="45.33242" lon="6.11253">
        <ele>1346.4638671875</ele>
        <time>2012-08-09T11:09:25Z</time>
      </trkpt>
      <trkpt lat="45.33234" lon="6.11263">
        <ele>1344.541015625</ele>
        <time>2012-08-09T11:09:30Z</time>
      </trkpt>
      <trkpt lat="45.33226" lon="6.11273">
        <ele>1342.6186523438</ele>
        <time>2012-08-09T11:09:36Z</time>
      </trkpt>
      <trkpt lat="45.33222" lon="6.11281">
        <ele>1340.2153320312</ele>
        <time>2012-08-09T11:09:42Z</time>
      </trkpt>
      <trkpt lat="45.3322" lon="6.11284">
        <ele>1338.7731933594</ele>
        <time>2012-08-09T11:09:44Z</time>
      </trkpt>
      <trkpt lat="45.33215" lon="6.11297">
        <ele>1335.8891601562</ele>
        <time>2012-08-09T11:09:50Z</time>
      </trkpt>
      <trkpt lat="45.33213" lon="6.11301">
        <ele>1335.4084472656</ele>
        <time>2012-08-09T11:09:52Z</time>
      </trkpt>
      <trkpt lat="45.33208" lon="6.11308">
        <ele>1335.4084472656</ele>
        <time>2012-08-09T11:09:56Z</time>
      </trkpt>
      <trkpt lat="45.33201" lon="6.11318">
        <ele>1331.0827636719</ele>
        <time>2012-08-09T11:10:02Z</time>
      </trkpt>
      <trkpt lat="45.33195" lon="6.11324">
        <ele>1328.6794433594</ele>
        <time>2012-08-09T11:10:07Z</time>
      </trkpt>
      <trkpt lat="45.33192" lon="6.11336">
        <ele>1324.353515625</ele>
        <time>2012-08-09T11:10:12Z</time>
      </trkpt>
      <trkpt lat="45.33185" lon="6.11345">
        <ele>1321.9499511719</ele>
        <time>2012-08-09T11:10:17Z</time>
      </trkpt>
      <trkpt lat="45.33175" lon="6.11352">
        <ele>1321.9499511719</ele>
        <time>2012-08-09T11:10:22Z</time>
      </trkpt>
      <trkpt lat="45.33164" lon="6.11359">
        <ele>1320.5080566406</ele>
        <time>2012-08-09T11:10:26Z</time>
      </trkpt>
      <trkpt lat="45.33166" lon="6.11367">
        <ele>1317.6240234375</ele>
        <time>2012-08-09T11:10:30Z</time>
      </trkpt>
      <trkpt lat="45.33176" lon="6.11374">
        <ele>1313.2983398438</ele>
        <time>2012-08-09T11:10:35Z</time>
      </trkpt>
      <trkpt lat="45.33185" lon="6.11375">
        <ele>1310.8950195312</ele>
        <time>2012-08-09T11:10:39Z</time>
      </trkpt>
      <trkpt lat="45.33192" lon="6.11382">
        <ele>1304.1657714844</ele>
        <time>2012-08-09T11:10:44Z</time>
      </trkpt>
      <trkpt lat="45.33201" lon="6.1139">
        <ele>1299.83984375</ele>
        <time>2012-08-09T11:10:49Z</time>
      </trkpt>
      <trkpt lat="45.33209" lon="6.11388">
        <ele>1296.9558105469</ele>
        <time>2012-08-09T11:10:53Z</time>
      </trkpt>
      <trkpt lat="45.3322" lon="6.1139">
        <ele>1293.1105957031</ele>
        <time>2012-08-09T11:10:59Z</time>
      </trkpt>
      <trkpt lat="45.33226" lon="6.11389">
        <ele>1289.7458496094</ele>
        <time>2012-08-09T11:11:03Z</time>
      </trkpt>
      <trkpt lat="45.33239" lon="6.11394">
        <ele>1288.3039550781</ele>
        <time>2012-08-09T11:11:08Z</time>
      </trkpt>
      <trkpt lat="45.33248" lon="6.114">
        <ele>1286.8618164062</ele>
        <time>2012-08-09T11:11:12Z</time>
      </trkpt>
      <trkpt lat="45.33257" lon="6.11407">
        <ele>1286.3813476562</ele>
        <time>2012-08-09T11:11:17Z</time>
      </trkpt>
      <trkpt lat="45.33266" lon="6.11408">
        <ele>1284.939453125</ele>
        <time>2012-08-09T11:11:21Z</time>
      </trkpt>
      <trkpt lat="45.33276" lon="6.11406">
        <ele>1281.5747070312</ele>
        <time>2012-08-09T11:11:26Z</time>
      </trkpt>
      <trkpt lat="45.33282" lon="6.11407">
        <ele>1280.1328125</ele>
        <time>2012-08-09T11:11:30Z</time>
      </trkpt>
      <trkpt lat="45.33289" lon="6.11407">
        <ele>1277.7294921875</ele>
        <time>2012-08-09T11:11:33Z</time>
      </trkpt>
      <trkpt lat="45.333" lon="6.11412">
        <ele>1271.4807128906</ele>
        <time>2012-08-09T11:11:39Z</time>
      </trkpt>
      <trkpt lat="45.33305" lon="6.11414">
        <ele>1271.0002441406</ele>
        <time>2012-08-09T11:11:42Z</time>
      </trkpt>
      <trkpt lat="45.33312" lon="6.11416">
        <ele>1269.5583496094</ele>
        <time>2012-08-09T11:11:48Z</time>
      </trkpt>
      <trkpt lat="45.33317" lon="6.1142">
        <ele>1269.5583496094</ele>
        <time>2012-08-09T11:11:51Z</time>
      </trkpt>
      <trkpt lat="45.33331" lon="6.11421">
        <ele>1263.3098144531</ele>
        <time>2012-08-09T11:11:57Z</time>
      </trkpt>
      <trkpt lat="45.3334" lon="6.11421">
        <ele>1262.8291015625</ele>
        <time>2012-08-09T11:12:02Z</time>
      </trkpt>
      <trkpt lat="45.33342" lon="6.11421">
        <ele>1262.8291015625</ele>
        <time>2012-08-09T11:12:03Z</time>
      </trkpt>
      <trkpt lat="45.33353" lon="6.11419">
        <ele>1258.9836425781</ele>
        <time>2012-08-09T11:12:09Z</time>
      </trkpt>
      <trkpt lat="45.33363" lon="6.11419">
        <ele>1256.099609375</ele>
        <time>2012-08-09T11:12:15Z</time>
      </trkpt>
      <trkpt lat="45.33366" lon="6.11418">
        <ele>1255.1384277344</ele>
        <time>2012-08-09T11:12:17Z</time>
      </trkpt>
      <trkpt lat="45.33373" lon="6.11421">
        <ele>1253.6965332031</ele>
        <time>2012-08-09T11:12:22Z</time>
      </trkpt>
      <trkpt lat="45.33373" lon="6.11422">
        <ele>1252.2543945312</ele>
        <time>2012-08-09T11:12:23Z</time>
      </trkpt>
      <trkpt lat="45.33369" lon="6.11432">
        <ele>1246.4868164062</ele>
        <time>2012-08-09T11:12:29Z</time>
      </trkpt>
      <trkpt lat="45.33365" lon="6.11446">
        <ele>1240.2380371094</ele>
        <time>2012-08-09T11:12:35Z</time>
      </trkpt>
      <trkpt lat="45.33364" lon="6.11449">
        <ele>1240.2380371094</ele>
        <time>2012-08-09T11:12:36Z</time>
      </trkpt>
      <trkpt lat="45.3336" lon="6.11453">
        <ele>1239.7573242188</ele>
        <time>2012-08-09T11:12:38Z</time>
      </trkpt>
      <trkpt lat="45.33346" lon="6.1147">
        <ele>1240.2380371094</ele>
        <time>2012-08-09T11:12:45Z</time>
      </trkpt>
      <trkpt lat="45.33343" lon="6.11472">
        <ele>1240.7185058594</ele>
        <time>2012-08-09T11:12:46Z</time>
      </trkpt>
      <trkpt lat="45.33333" lon="6.11487">
        <ele>1240.7185058594</ele>
        <time>2012-08-09T11:12:52Z</time>
      </trkpt>
      <trkpt lat="45.33328" lon="6.11496">
        <ele>1241.19921875</ele>
        <time>2012-08-09T11:12:55Z</time>
      </trkpt>
      <trkpt lat="45.33323" lon="6.11504">
        <ele>1243.1218261719</ele>
        <time>2012-08-09T11:12:58Z</time>
      </trkpt>
      <trkpt lat="45.33308" lon="6.1152">
        <ele>1243.6025390625</ele>
        <time>2012-08-09T11:13:05Z</time>
      </trkpt>
      <trkpt lat="45.33301" lon="6.11531">
        <ele>1243.6025390625</ele>
        <time>2012-08-09T11:13:09Z</time>
      </trkpt>
      <trkpt lat="45.33296" lon="6.11537">
        <ele>1238.3154296875</ele>
        <time>2012-08-09T11:13:13Z</time>
      </trkpt>
      <trkpt lat="45.33286" lon="6.11547">
        <ele>1237.3540039062</ele>
        <time>2012-08-09T11:13:18Z</time>
      </trkpt>
      <trkpt lat="45.33278" lon="6.11554">
        <ele>1234.4702148438</ele>
        <time>2012-08-09T11:13:22Z</time>
      </trkpt>
      <trkpt lat="45.33268" lon="6.1156">
        <ele>1230.625</ele>
        <time>2012-08-09T11:13:26Z</time>
      </trkpt>
      <trkpt lat="45.33257" lon="6.11567">
        <ele>1230.1442871094</ele>
        <time>2012-08-09T11:13:30Z</time>
      </trkpt>
      <trkpt lat="45.33242" lon="6.11568">
        <ele>1227.2602539062</ele>
        <time>2012-08-09T11:13:36Z</time>
      </trkpt>
      <trkpt lat="45.33229" lon="6.11568">
        <ele>1225.3374023438</ele>
        <time>2012-08-09T11:13:41Z</time>
      </trkpt>
      <trkpt lat="45.33215" lon="6.1157">
        <ele>1224.3762207031</ele>
        <time>2012-08-09T11:13:46Z</time>
      </trkpt>
      <trkpt lat="45.33203" lon="6.11573">
        <ele>1219.5698242188</ele>
        <time>2012-08-09T11:13:51Z</time>
      </trkpt>
      <trkpt lat="45.33196" lon="6.11579">
        <ele>1214.7631835938</ele>
        <time>2012-08-09T11:13:56Z</time>
      </trkpt>
      <trkpt lat="45.33193" lon="6.11581">
        <ele>1213.3212890625</ele>
        <time>2012-08-09T11:13:58Z</time>
      </trkpt>
      <trkpt lat="45.33182" lon="6.1159">
        <ele>1215.2438964844</ele>
        <time>2012-08-09T11:14:03Z</time>
      </trkpt>
      <trkpt lat="45.3317" lon="6.11592">
        <ele>1209.4758300781</ele>
        <time>2012-08-09T11:14:10Z</time>
      </trkpt>
      <trkpt lat="45.33161" lon="6.11596">
        <ele>1209.4758300781</ele>
        <time>2012-08-09T11:14:16Z</time>
      </trkpt>
      <trkpt lat="45.33154" lon="6.11599">
        <ele>1203.2272949219</ele>
        <time>2012-08-09T11:14:22Z</time>
      </trkpt>
      <trkpt lat="45.33147" lon="6.11603">
        <ele>1196.017578125</ele>
        <time>2012-08-09T11:14:29Z</time>
      </trkpt>
      <trkpt lat="45.33146" lon="6.11604">
        <ele>1194.0947265625</ele>
        <time>2012-08-09T11:14:30Z</time>
      </trkpt>
      <trkpt lat="45.33139" lon="6.11606">
        <ele>1187.8461914062</ele>
        <time>2012-08-09T11:14:35Z</time>
      </trkpt>
      <trkpt lat="45.33137" lon="6.11608">
        <ele>1185.4428710938</ele>
        <time>2012-08-09T11:14:37Z</time>
      </trkpt>
      <trkpt lat="45.33131" lon="6.11616">
        <ele>1182.5590820312</ele>
        <time>2012-08-09T11:14:42Z</time>
      </trkpt>
      <trkpt lat="45.33129" lon="6.11618">
        <ele>1179.1940917969</ele>
        <time>2012-08-09T11:14:44Z</time>
      </trkpt>
      <trkpt lat="45.33115" lon="6.1163">
        <ele>1194.0947265625</ele>
        <time>2012-08-09T11:14:48Z</time>
      </trkpt>
      <trkpt lat="45.33109" lon="6.11649">
        <ele>1201.7854003906</ele>
        <time>2012-08-09T11:14:55Z</time>
      </trkpt>
      <trkpt lat="45.33111" lon="6.11653">
        <ele>1199.3820800781</ele>
        <time>2012-08-09T11:14:57Z</time>
      </trkpt>
      <trkpt lat="45.33119" lon="6.11664">
        <ele>1189.2880859375</ele>
        <time>2012-08-09T11:15:03Z</time>
      </trkpt>
      <trkpt lat="45.33128" lon="6.1167">
        <ele>1181.1171875</ele>
        <time>2012-08-09T11:15:07Z</time>
      </trkpt>
      <trkpt lat="45.3313" lon="6.11672">
        <ele>1178.7136230469</ele>
        <time>2012-08-09T11:15:08Z</time>
      </trkpt>
      <trkpt lat="45.33136" lon="6.11682">
        <ele>1172.9458007812</ele>
        <time>2012-08-09T11:15:13Z</time>
      </trkpt>
      <trkpt lat="45.33145" lon="6.11697">
        <ele>1164.2939453125</ele>
        <time>2012-08-09T11:15:20Z</time>
      </trkpt>
      <trkpt lat="45.33146" lon="6.117">
        <ele>1161.890625</ele>
        <time>2012-08-09T11:15:21Z</time>
      </trkpt>
      <trkpt lat="45.33149" lon="6.1171">
        <ele>1161.4099121094</ele>
        <time>2012-08-09T11:15:25Z</time>
      </trkpt>
      <trkpt lat="45.33153" lon="6.11719">
        <ele>1156.6032714844</ele>
        <time>2012-08-09T11:15:28Z</time>
      </trkpt>
      <trkpt lat="45.33155" lon="6.1173">
        <ele>1149.3935546875</ele>
        <time>2012-08-09T11:15:32Z</time>
      </trkpt>
      <trkpt lat="45.33159" lon="6.11748">
        <ele>1143.1447753906</ele>
        <time>2012-08-09T11:15:38Z</time>
      </trkpt>
      <trkpt lat="45.33158" lon="6.11763">
        <ele>1138.3383789062</ele>
        <time>2012-08-09T11:15:43Z</time>
      </trkpt>
      <trkpt lat="45.33154" lon="6.11782">
        <ele>1136.4157714844</ele>
        <time>2012-08-09T11:15:49Z</time>
      </trkpt>
      <trkpt lat="45.33149" lon="6.11799">
        <ele>1141.2221679688</ele>
        <time>2012-08-09T11:15:54Z</time>
      </trkpt>
      <trkpt lat="45.33144" lon="6.11814">
        <ele>1143.6254882812</ele>
        <time>2012-08-09T11:15:59Z</time>
      </trkpt>
      <trkpt lat="45.33146" lon="6.11824">
        <ele>1132.5705566406</ele>
        <time>2012-08-09T11:16:03Z</time>
      </trkpt>
      <trkpt lat="45.33147" lon="6.11826">
        <ele>1129.6862792969</ele>
        <time>2012-08-09T11:16:04Z</time>
      </trkpt>
      <trkpt lat="45.33152" lon="6.11833">
        <ele>1118.6313476562</ele>
        <time>2012-08-09T11:16:07Z</time>
      </trkpt>
      <trkpt lat="45.33147" lon="6.11847">
        <ele>1122.4765625</ele>
        <time>2012-08-09T11:16:12Z</time>
      </trkpt>
      <trkpt lat="45.33142" lon="6.11863">
        <ele>1115.7473144531</ele>
        <time>2012-08-09T11:16:17Z</time>
      </trkpt>
      <trkpt lat="45.33138" lon="6.11873">
        <ele>1115.2666015625</ele>
        <time>2012-08-09T11:16:21Z</time>
      </trkpt>
      <trkpt lat="45.33138" lon="6.11885">
        <ele>1098.443359375</ele>
        <time>2012-08-09T11:16:27Z</time>
      </trkpt>
      <trkpt lat="45.33136" lon="6.11892">
        <ele>1093.6369628906</ele>
        <time>2012-08-09T11:16:30Z</time>
      </trkpt>
      <trkpt lat="45.33128" lon="6.11897">
        <ele>1093.6369628906</ele>
        <time>2012-08-09T11:16:34Z</time>
      </trkpt>
      <trkpt lat="45.33125" lon="6.11908">
        <ele>1084.9853515625</ele>
        <time>2012-08-09T11:16:38Z</time>
      </trkpt>
      <trkpt lat="45.33127" lon="6.11916">
        <ele>1063.35546875</ele>
        <time>2012-08-09T11:16:44Z</time>
      </trkpt>
      <trkpt lat="45.3313" lon="6.11937">
        <ele>1062.8747558594</ele>
        <time>2012-08-09T11:16:49Z</time>
      </trkpt>
      <trkpt lat="45.33131" lon="6.11945">
        <ele>1071.0461425781</ele>
        <time>2012-08-09T11:16:54Z</time>
      </trkpt>
      <trkpt lat="45.33127" lon="6.11952">
        <ele>1084.9853515625</ele>
        <time>2012-08-09T11:16:59Z</time>
      </trkpt>
      <trkpt lat="45.33128" lon="6.11955">
        <ele>1103.2502441406</ele>
        <time>2012-08-09T11:17:04Z</time>
      </trkpt>
      <trkpt lat="45.33129" lon="6.11957">
        <ele>1111.9020996094</ele>
        <time>2012-08-09T11:17:08Z</time>
      </trkpt>
      <trkpt lat="45.33131" lon="6.11957">
        <ele>1110.4599609375</ele>
        <time>2012-08-09T11:17:10Z</time>
      </trkpt>
      <trkpt lat="45.33142" lon="6.11955">
        <ele>1109.9792480469</ele>
        <time>2012-08-09T11:17:14Z</time>
      </trkpt>
      <trkpt lat="45.3316" lon="6.11959">
        <ele>1107.576171875</ele>
        <time>2012-08-09T11:17:20Z</time>
      </trkpt>
      <trkpt lat="45.33172" lon="6.11969">
        <ele>1101.8083496094</ele>
        <time>2012-08-09T11:17:25Z</time>
      </trkpt>
      <trkpt lat="45.33183" lon="6.11976">
        <ele>1097.4821777344</ele>
        <time>2012-08-09T11:17:30Z</time>
      </trkpt>
      <trkpt lat="45.33193" lon="6.11981">
        <ele>1094.5981445312</ele>
        <time>2012-08-09T11:17:34Z</time>
      </trkpt>
      <trkpt lat="45.33199" lon="6.11987">
        <ele>1091.7143554688</ele>
        <time>2012-08-09T11:17:40Z</time>
      </trkpt>
      <trkpt lat="45.33199" lon="6.11981">
        <ele>1094.5981445312</ele>
        <time>2012-08-09T11:17:49Z</time>
      </trkpt>
      <trkpt lat="45.33198" lon="6.11978">
        <ele>1094.5981445312</ele>
        <time>2012-08-09T11:17:53Z</time>
      </trkpt>
      <trkpt lat="45.33199" lon="6.11978">
        <ele>1097.962890625</ele>
        <time>2012-08-09T11:17:57Z</time>
      </trkpt>
      <trkpt lat="45.33205" lon="6.1199">
        <ele>1100.8469238281</ele>
        <time>2012-08-09T11:18:06Z</time>
      </trkpt>
      <trkpt lat="45.33207" lon="6.11993">
        <ele>1099.8854980469</ele>
        <time>2012-08-09T11:18:08Z</time>
      </trkpt>
      <trkpt lat="45.33209" lon="6.11997">
        <ele>1100.3664550781</ele>
        <time>2012-08-09T11:18:11Z</time>
      </trkpt>
      <trkpt lat="45.33213" lon="6.12001">
        <ele>1099.4047851562</ele>
        <time>2012-08-09T11:18:15Z</time>
      </trkpt>
      <trkpt lat="45.33218" lon="6.12006">
        <ele>1097.4821777344</ele>
        <time>2012-08-09T11:18:19Z</time>
      </trkpt>
      <trkpt lat="45.33222" lon="6.12011">
        <ele>1095.5595703125</ele>
        <time>2012-08-09T11:18:23Z</time>
      </trkpt>
      <trkpt lat="45.33224" lon="6.12013">
        <ele>1094.1176757812</ele>
        <time>2012-08-09T11:18:25Z</time>
      </trkpt>
      <trkpt lat="45.33232" lon="6.12019">
        <ele>1093.6369628906</ele>
        <time>2012-08-09T11:18:31Z</time>
      </trkpt>
      <trkpt lat="45.33238" lon="6.12023">
        <ele>1098.9240722656</ele>
        <time>2012-08-09T11:18:37Z</time>
      </trkpt>
      <trkpt lat="45.33245" lon="6.12028">
        <ele>1100.8469238281</ele>
        <time>2012-08-09T11:18:44Z</time>
      </trkpt>
      <trkpt lat="45.33247" lon="6.12029">
        <ele>1100.3664550781</ele>
        <time>2012-08-09T11:18:45Z</time>
      </trkpt>
      <trkpt lat="45.33256" lon="6.12035">
        <ele>1103.7309570312</ele>
        <time>2012-08-09T11:18:52Z</time>
      </trkpt>
      <trkpt lat="45.33257" lon="6.12038">
        <ele>1102.2888183594</ele>
        <time>2012-08-09T11:18:54Z</time>
      </trkpt>
      <trkpt lat="45.33265" lon="6.12048">
        <ele>1103.7309570312</ele>
        <time>2012-08-09T11:19:03Z</time>
      </trkpt>
      <trkpt lat="45.33272" lon="6.12052">
        <ele>1104.2116699219</ele>
        <time>2012-08-09T11:19:08Z</time>
      </trkpt>
      <trkpt lat="45.3328" lon="6.12056">
        <ele>1104.2116699219</ele>
        <time>2012-08-09T11:19:16Z</time>
      </trkpt>
      <trkpt lat="45.33281" lon="6.12057">
        <ele>1104.2116699219</ele>
        <time>2012-08-09T11:19:17Z</time>
      </trkpt>
      <trkpt lat="45.33288" lon="6.12058">
        <ele>1102.2888183594</ele>
        <time>2012-08-09T11:19:25Z</time>
      </trkpt>
      <trkpt lat="45.33292" lon="6.12058">
        <ele>1100.3664550781</ele>
        <time>2012-08-09T11:19:30Z</time>
      </trkpt>
      <trkpt lat="45.33301" lon="6.12057">
        <ele>1101.3276367188</ele>
        <time>2012-08-09T11:19:37Z</time>
      </trkpt>
      <trkpt lat="45.33308" lon="6.12056">
        <ele>1101.3276367188</ele>
        <time>2012-08-09T11:19:43Z</time>
      </trkpt>
      <trkpt lat="45.33316" lon="6.12054">
        <ele>1102.76953125</ele>
        <time>2012-08-09T11:19:50Z</time>
      </trkpt>
      <trkpt lat="45.33324" lon="6.1205">
        <ele>1101.8083496094</ele>
        <time>2012-08-09T11:19:57Z</time>
      </trkpt>
      <trkpt lat="45.3333" lon="6.12046">
        <ele>1101.8083496094</ele>
        <time>2012-08-09T11:20:02Z</time>
      </trkpt>
      <trkpt lat="45.33341" lon="6.12039">
        <ele>1100.8469238281</ele>
        <time>2012-08-09T11:20:11Z</time>
      </trkpt>
      <trkpt lat="45.33353" lon="6.1203">
        <ele>1100.3664550781</ele>
        <time>2012-08-09T11:20:20Z</time>
      </trkpt>
      <trkpt lat="45.33361" lon="6.12024">
        <ele>1098.9240722656</ele>
        <time>2012-08-09T11:20:27Z</time>
      </trkpt>
      <trkpt lat="45.33362" lon="6.12024">
        <ele>1098.9240722656</ele>
        <time>2012-08-09T11:20:28Z</time>
      </trkpt>
      <trkpt lat="45.33371" lon="6.12017">
        <ele>1100.8469238281</ele>
        <time>2012-08-09T11:20:36Z</time>
      </trkpt>
      <trkpt lat="45.33383" lon="6.1201">
        <ele>1102.2888183594</ele>
        <time>2012-08-09T11:20:45Z</time>
      </trkpt>
      <trkpt lat="45.33394" lon="6.12006">
        <ele>1101.8083496094</ele>
        <time>2012-08-09T11:20:54Z</time>
      </trkpt>
      <trkpt lat="45.33405" lon="6.12002">
        <ele>1102.2888183594</ele>
        <time>2012-08-09T11:21:02Z</time>
      </trkpt>
      <trkpt lat="45.33415" lon="6.11996">
        <ele>1103.2502441406</ele>
        <time>2012-08-09T11:21:10Z</time>
      </trkpt>
      <trkpt lat="45.33425" lon="6.11991">
        <ele>1103.2502441406</ele>
        <time>2012-08-09T11:21:18Z</time>
      </trkpt>
      <trkpt lat="45.33434" lon="6.11987">
        <ele>1103.2502441406</ele>
        <time>2012-08-09T11:21:25Z</time>
      </trkpt>
      <trkpt lat="45.33447" lon="6.11985">
        <ele>1103.2502441406</ele>
        <time>2012-08-09T11:21:35Z</time>
      </trkpt>
      <trkpt lat="45.33457" lon="6.11985">
        <ele>1103.7309570312</ele>
        <time>2012-08-09T11:21:43Z</time>
      </trkpt>
      <trkpt lat="45.33465" lon="6.1199">
        <ele>1105.1728515625</ele>
        <time>2012-08-09T11:21:50Z</time>
      </trkpt>
      <trkpt lat="45.3347" lon="6.11997">
        <ele>1104.2116699219</ele>
        <time>2012-08-09T11:21:56Z</time>
      </trkpt>
      <trkpt lat="45.33471" lon="6.11999">
        <ele>1104.2116699219</ele>
        <time>2012-08-09T11:21:57Z</time>
      </trkpt>
      <trkpt lat="45.33474" lon="6.12007">
        <ele>1104.2116699219</ele>
        <time>2012-08-09T11:22:02Z</time>
      </trkpt>
      <trkpt lat="45.33479" lon="6.12016">
        <ele>1103.7309570312</ele>
        <time>2012-08-09T11:22:08Z</time>
      </trkpt>
      <trkpt lat="45.33486" lon="6.12021">
        <ele>1104.2116699219</ele>
        <time>2012-08-09T11:22:13Z</time>
      </trkpt>
      <trkpt lat="45.3349" lon="6.12022">
        <ele>1104.2116699219</ele>
        <time>2012-08-09T11:22:17Z</time>
      </trkpt>
      <trkpt lat="45.33495" lon="6.12019">
        <ele>1103.7309570312</ele>
        <time>2012-08-09T11:22:21Z</time>
      </trkpt>
      <trkpt lat="45.335" lon="6.12009">
        <ele>1103.7309570312</ele>
        <time>2012-08-09T11:22:28Z</time>
      </trkpt>
      <trkpt lat="45.33505" lon="6.11998">
        <ele>1103.2502441406</ele>
        <time>2012-08-09T11:22:35Z</time>
      </trkpt>
      <trkpt lat="45.3351" lon="6.11987">
        <ele>1103.7309570312</ele>
        <time>2012-08-09T11:22:42Z</time>
      </trkpt>
      <trkpt lat="45.33517" lon="6.11978">
        <ele>1103.7309570312</ele>
        <time>2012-08-09T11:22:50Z</time>
      </trkpt>
      <trkpt lat="45.33524" lon="6.11973">
        <ele>1102.76953125</ele>
        <time>2012-08-09T11:22:57Z</time>
      </trkpt>
      <trkpt lat="45.33531" lon="6.11969">
        <ele>1100.8469238281</ele>
        <time>2012-08-09T11:23:04Z</time>
      </trkpt>
      <trkpt lat="45.3354" lon="6.11966">
        <ele>1099.8854980469</ele>
        <time>2012-08-09T11:23:11Z</time>
      </trkpt>
      <trkpt lat="45.33549" lon="6.11969">
        <ele>1099.4047851562</ele>
        <time>2012-08-09T11:23:19Z</time>
      </trkpt>
      <trkpt lat="45.33555" lon="6.11971">
        <ele>1099.4047851562</ele>
        <time>2012-08-09T11:23:25Z</time>
      </trkpt>
      <trkpt lat="45.3356" lon="6.11974">
        <ele>1101.3276367188</ele>
        <time>2012-08-09T11:23:30Z</time>
      </trkpt>
      <trkpt lat="45.33561" lon="6.11976">
        <ele>1101.3276367188</ele>
        <time>2012-08-09T11:23:37Z</time>
      </trkpt>
      <trkpt lat="45.3356" lon="6.11975">
        <ele>1101.3276367188</ele>
        <time>2012-08-09T11:23:44Z</time>
      </trkpt>
      <trkpt lat="45.3356" lon="6.11976">
        <ele>1101.3276367188</ele>
        <time>2012-08-09T11:23:54Z</time>
      </trkpt>
      <trkpt lat="45.33561" lon="6.11975">
        <ele>1099.4047851562</ele>
        <time>2012-08-09T11:24:05Z</time>
      </trkpt>
      <trkpt lat="45.3356" lon="6.11976">
        <ele>1098.9240722656</ele>
        <time>2012-08-09T11:24:19Z</time>
      </trkpt>
      <trkpt lat="45.3356" lon="6.11976">
        <ele>1097.4821777344</ele>
        <time>2012-08-09T11:24:32Z</time>
      </trkpt>
      <trkpt lat="45.33561" lon="6.11977">
        <ele>1096.0402832031</ele>
        <time>2012-08-09T11:24:39Z</time>
      </trkpt>
      <trkpt lat="45.33558" lon="6.11971">
        <ele>1099.4047851562</ele>
        <time>2012-08-09T11:25:15Z</time>
      </trkpt>
      <trkpt lat="45.33558" lon="6.11972">
        <ele>1099.8854980469</ele>
        <time>2012-08-09T11:25:31Z</time>
      </trkpt>
      <trkpt lat="45.33558" lon="6.11973">
        <ele>1101.3276367188</ele>
        <time>2012-08-09T11:26:01Z</time>
      </trkpt>
      <trkpt lat="45.33558" lon="6.11973">
        <ele>1099.8854980469</ele>
        <time>2012-08-09T11:26:13Z</time>
      </trkpt>
      <trkpt lat="45.33558" lon="6.11974">
        <ele>1100.3664550781</ele>
        <time>2012-08-09T11:26:34Z</time>
      </trkpt>
      <trkpt lat="45.33559" lon="6.11976">
        <ele>1097.0014648438</ele>
        <time>2012-08-09T11:27:45Z</time>
      </trkpt>
      <trkpt lat="45.33559" lon="6.11975">
        <ele>1096.5209960938</ele>
        <time>2012-08-09T11:28:13Z</time>
      </trkpt>
      <trkpt lat="45.33558" lon="6.11974">
        <ele>1097.0014648438</ele>
        <time>2012-08-09T11:28:24Z</time>
      </trkpt>
      <trkpt lat="45.33559" lon="6.11974">
        <ele>1099.4047851562</ele>
        <time>2012-08-09T11:28:55Z</time>
      </trkpt>
      <trkpt lat="45.33559" lon="6.11976">
        <ele>1099.8854980469</ele>
        <time>2012-08-09T11:29:07Z</time>
      </trkpt>
      <trkpt lat="45.33559" lon="6.11976">
        <ele>1097.0014648438</ele>
        <time>2012-08-09T11:29:24Z</time>
      </trkpt>
      <trkpt lat="45.33559" lon="6.11975">
        <ele>1096.5209960938</ele>
        <time>2012-08-09T11:29:33Z</time>
      </trkpt>
      <trkpt lat="45.33559" lon="6.11976">
        <ele>1097.0014648438</ele>
        <time>2012-08-09T11:29:55Z</time>
      </trkpt>
      <trkpt lat="45.33559" lon="6.11976">
        <ele>1097.0014648438</ele>
        <time>2012-08-09T11:30:11Z</time>
      </trkpt>
      <trkpt lat="45.33559" lon="6.11976">
        <ele>1097.0014648438</ele>
        <time>2012-08-09T11:30:22Z</time>
      </trkpt>
      <trkpt lat="45.33561" lon="6.11977">
        <ele>1095.0788574219</ele>
        <time>2012-08-09T11:31:17Z</time>
      </trkpt>
      <trkpt lat="45.3356" lon="6.11976">
        <ele>1096.0402832031</ele>
        <time>2012-08-09T11:31:24Z</time>
      </trkpt>
      <trkpt lat="45.33559" lon="6.11976">
        <ele>1097.0014648438</ele>
        <time>2012-08-09T11:31:33Z</time>
      </trkpt>
      <trkpt lat="45.33559" lon="6.11975">
        <ele>1098.443359375</ele>
        <time>2012-08-09T11:31:42Z</time>
      </trkpt>
      <trkpt lat="45.33559" lon="6.11972">
        <ele>1105.1728515625</ele>
        <time>2012-08-09T11:32:42Z</time>
      </trkpt>
      <trkpt lat="45.33559" lon="6.11971">
        <ele>1106.1340332031</ele>
        <time>2012-08-09T11:32:52Z</time>
      </trkpt>
      <trkpt lat="45.33559" lon="6.11973">
        <ele>1104.6921386719</ele>
        <time>2012-08-09T11:33:06Z</time>
      </trkpt>
      <trkpt lat="45.33559" lon="6.11976">
        <ele>1102.2888183594</ele>
        <time>2012-08-09T11:33:22Z</time>
      </trkpt>
      <trkpt lat="45.33559" lon="6.11977">
        <ele>1101.8083496094</ele>
        <time>2012-08-09T11:33:38Z</time>
      </trkpt>
      <trkpt lat="45.3356" lon="6.11976">
        <ele>1100.3664550781</ele>
        <time>2012-08-09T11:33:59Z</time>
      </trkpt>
      <trkpt lat="45.33559" lon="6.11978">
        <ele>1101.8083496094</ele>
        <time>2012-08-09T11:34:12Z</time>
      </trkpt>
      <trkpt lat="45.33559" lon="6.11976">
        <ele>1104.2116699219</ele>
        <time>2012-08-09T11:34:21Z</time>
      </trkpt>
      <trkpt lat="45.33558" lon="6.11973">
        <ele>1105.1728515625</ele>
        <time>2012-08-09T11:34:49Z</time>
      </trkpt>
      <trkpt lat="45.33559" lon="6.11972">
        <ele>1104.6921386719</ele>
        <time>2012-08-09T11:34:56Z</time>
      </trkpt>
      <trkpt lat="45.33563" lon="6.11967">
        <ele>1104.2116699219</ele>
        <time>2012-08-09T11:35:03Z</time>
      </trkpt>
      <trkpt lat="45.33569" lon="6.11966">
        <ele>1102.76953125</ele>
        <time>2012-08-09T11:35:10Z</time>
      </trkpt>
      <trkpt lat="45.33574" lon="6.11965">
        <ele>1100.8469238281</ele>
        <time>2012-08-09T11:35:18Z</time>
      </trkpt>
      <trkpt lat="45.33575" lon="6.11964">
        <ele>1098.9240722656</ele>
        <time>2012-08-09T11:35:26Z</time>
      </trkpt>
      <trkpt lat="45.33577" lon="6.11966">
        <ele>1097.962890625</ele>
        <time>2012-08-09T11:35:35Z</time>
      </trkpt>
      <trkpt lat="45.33577" lon="6.11966">
        <ele>1096.0402832031</ele>
        <time>2012-08-09T11:35:41Z</time>
      </trkpt>
      <trkpt lat="45.33577" lon="6.11967">
        <ele>1097.0014648438</ele>
        <time>2012-08-09T11:35:54Z</time>
      </trkpt>
      <trkpt lat="45.33578" lon="6.11966">
        <ele>1099.8854980469</ele>
        <time>2012-08-09T11:36:54Z</time>
      </trkpt>
      <trkpt lat="45.33578" lon="6.11966">
        <ele>1099.8854980469</ele>
        <time>2012-08-09T11:37:09Z</time>
      </trkpt>
      <trkpt lat="45.33579" lon="6.11966">
        <ele>1100.8469238281</ele>
        <time>2012-08-09T11:37:47Z</time>
      </trkpt>
      <trkpt lat="45.3358" lon="6.11966">
        <ele>1097.962890625</ele>
        <time>2012-08-09T11:38:10Z</time>
      </trkpt>
      <trkpt lat="45.3358" lon="6.11965">
        <ele>1096.0402832031</ele>
        <time>2012-08-09T11:38:24Z</time>
      </trkpt>
      <trkpt lat="45.33579" lon="6.11965">
        <ele>1097.4821777344</ele>
        <time>2012-08-09T11:38:33Z</time>
      </trkpt>
      <trkpt lat="45.33578" lon="6.11965">
        <ele>1099.8854980469</ele>
        <time>2012-08-09T11:39:00Z</time>
      </trkpt>
      <trkpt lat="45.33578" lon="6.11966">
        <ele>1097.4821777344</ele>
        <time>2012-08-09T11:39:17Z</time>
      </trkpt>
      <trkpt lat="45.33579" lon="6.11967">
        <ele>1102.2888183594</ele>
        <time>2012-08-09T11:39:34Z</time>
      </trkpt>
      <trkpt lat="45.33579" lon="6.11967">
        <ele>1098.443359375</ele>
        <time>2012-08-09T11:40:05Z</time>
      </trkpt>
      <trkpt lat="45.33579" lon="6.11966">
        <ele>1098.9240722656</ele>
        <time>2012-08-09T11:40:23Z</time>
      </trkpt>
      <trkpt lat="45.33579" lon="6.11968">
        <ele>1102.2888183594</ele>
        <time>2012-08-09T11:40:44Z</time>
      </trkpt>
      <trkpt lat="45.33579" lon="6.11967">
        <ele>1100.3664550781</ele>
        <time>2012-08-09T11:41:39Z</time>
      </trkpt>
      <trkpt lat="45.3358" lon="6.11967">
        <ele>1098.443359375</ele>
        <time>2012-08-09T11:41:58Z</time>
      </trkpt>
      <trkpt lat="45.33579" lon="6.11968">
        <ele>1096.5209960938</ele>
        <time>2012-08-09T11:42:16Z</time>
      </trkpt>
      <trkpt lat="45.33579" lon="6.11966">
        <ele>1095.5595703125</ele>
        <time>2012-08-09T11:42:39Z</time>
      </trkpt>
      <trkpt lat="45.3358" lon="6.11965">
        <ele>1098.443359375</ele>
        <time>2012-08-09T11:43:03Z</time>
      </trkpt>
      <trkpt lat="45.3358" lon="6.11966">
        <ele>1097.0014648438</ele>
        <time>2012-08-09T11:43:33Z</time>
      </trkpt>
      <trkpt lat="45.3358" lon="6.11967">
        <ele>1102.76953125</ele>
        <time>2012-08-09T11:44:29Z</time>
      </trkpt>
      <trkpt lat="45.33578" lon="6.11968">
        <ele>1103.7309570312</ele>
        <time>2012-08-09T11:44:35Z</time>
      </trkpt>
      <trkpt lat="45.33577" lon="6.11964">
        <ele>1095.0788574219</ele>
        <time>2012-08-09T11:45:05Z</time>
      </trkpt>
      <trkpt lat="45.33579" lon="6.11967">
        <ele>1098.9240722656</ele>
        <time>2012-08-09T11:45:29Z</time>
      </trkpt>
      <trkpt lat="45.33579" lon="6.11964">
        <ele>1091.7143554688</ele>
        <time>2012-08-09T11:45:47Z</time>
      </trkpt>
      <trkpt lat="45.33578" lon="6.11967">
        <ele>1101.8083496094</ele>
        <time>2012-08-09T11:46:47Z</time>
      </trkpt>
      <trkpt lat="45.33578" lon="6.11967">
        <ele>1101.8083496094</ele>
        <time>2012-08-09T11:46:53Z</time>
      </trkpt>
      <trkpt lat="45.33578" lon="6.11964">
        <ele>1093.6369628906</ele>
        <time>2012-08-09T11:48:22Z</time>
      </trkpt>
      <trkpt lat="45.33574" lon="6.11968">
        <ele>1102.76953125</ele>
        <time>2012-08-09T11:48:44Z</time>
      </trkpt>
      <trkpt lat="45.33574" lon="6.11967">
        <ele>1101.8083496094</ele>
        <time>2012-08-09T11:49:08Z</time>
      </trkpt>
      <trkpt lat="45.33573" lon="6.11969">
        <ele>1102.2888183594</ele>
        <time>2012-08-09T11:49:18Z</time>
      </trkpt>
      <trkpt lat="45.33569" lon="6.1197">
        <ele>1102.2888183594</ele>
        <time>2012-08-09T11:49:22Z</time>
      </trkpt>
      <trkpt lat="45.33564" lon="6.1197">
        <ele>1101.8083496094</ele>
        <time>2012-08-09T11:49:28Z</time>
      </trkpt>
      <trkpt lat="45.33557" lon="6.11969">
        <ele>1100.8469238281</ele>
        <time>2012-08-09T11:49:35Z</time>
      </trkpt>
      <trkpt lat="45.33552" lon="6.11968">
        <ele>1101.3276367188</ele>
        <time>2012-08-09T11:49:39Z</time>
      </trkpt>
      <trkpt lat="45.33546" lon="6.11966">
        <ele>1099.8854980469</ele>
        <time>2012-08-09T11:49:46Z</time>
      </trkpt>
      <trkpt lat="45.33541" lon="6.11965">
        <ele>1100.8469238281</ele>
        <time>2012-08-09T11:49:51Z</time>
      </trkpt>
      <trkpt lat="45.3353" lon="6.11968">
        <ele>1099.8854980469</ele>
        <time>2012-08-09T11:50:00Z</time>
      </trkpt>
      <trkpt lat="45.33523" lon="6.11974">
        <ele>1100.8469238281</ele>
        <time>2012-08-09T11:50:07Z</time>
      </trkpt>
      <trkpt lat="45.33514" lon="6.11982">
        <ele>1102.76953125</ele>
        <time>2012-08-09T11:50:16Z</time>
      </trkpt>
      <trkpt lat="45.33508" lon="6.11989">
        <ele>1102.76953125</ele>
        <time>2012-08-09T11:50:24Z</time>
      </trkpt>
      <trkpt lat="45.33503" lon="6.11999">
        <ele>1101.8083496094</ele>
        <time>2012-08-09T11:50:31Z</time>
      </trkpt>
      <trkpt lat="45.33496" lon="6.12014">
        <ele>1100.3664550781</ele>
        <time>2012-08-09T11:50:41Z</time>
      </trkpt>
      <trkpt lat="45.33492" lon="6.12027">
        <ele>1099.8854980469</ele>
        <time>2012-08-09T11:50:49Z</time>
      </trkpt>
      <trkpt lat="45.33492" lon="6.12032">
        <ele>1100.8469238281</ele>
        <time>2012-08-09T11:50:56Z</time>
      </trkpt>
      <trkpt lat="45.33493" lon="6.12035">
        <ele>1101.8083496094</ele>
        <time>2012-08-09T11:51:03Z</time>
      </trkpt>
      <trkpt lat="45.33494" lon="6.12035">
        <ele>1101.8083496094</ele>
        <time>2012-08-09T11:51:15Z</time>
      </trkpt>
      <trkpt lat="45.33493" lon="6.12038">
        <ele>1097.962890625</ele>
        <time>2012-08-09T11:51:28Z</time>
      </trkpt>
      <trkpt lat="45.33493" lon="6.12044">
        <ele>1098.9240722656</ele>
        <time>2012-08-09T11:51:34Z</time>
      </trkpt>
      <trkpt lat="45.33494" lon="6.12047">
        <ele>1100.8469238281</ele>
        <time>2012-08-09T11:51:39Z</time>
      </trkpt>
      <trkpt lat="45.33495" lon="6.12053">
        <ele>1103.2502441406</ele>
        <time>2012-08-09T11:51:46Z</time>
      </trkpt>
      <trkpt lat="45.33495" lon="6.12056">
        <ele>1104.2116699219</ele>
        <time>2012-08-09T11:51:50Z</time>
      </trkpt>
      <trkpt lat="45.33497" lon="6.12063">
        <ele>1106.6147460938</ele>
        <time>2012-08-09T11:51:59Z</time>
      </trkpt>
      <trkpt lat="45.33497" lon="6.12067">
        <ele>1107.0954589844</ele>
        <time>2012-08-09T11:52:05Z</time>
      </trkpt>
      <trkpt lat="45.33496" lon="6.12073">
        <ele>1108.0568847656</ele>
        <time>2012-08-09T11:52:11Z</time>
      </trkpt>
      <trkpt lat="45.33495" lon="6.12077">
        <ele>1109.9792480469</ele>
        <time>2012-08-09T11:52:17Z</time>
      </trkpt>
      <trkpt lat="45.33496" lon="6.12077">
        <ele>1110.9406738281</ele>
        <time>2012-08-09T11:52:27Z</time>
      </trkpt>
      <trkpt lat="45.33498" lon="6.12071">
        <ele>1110.9406738281</ele>
        <time>2012-08-09T11:52:36Z</time>
      </trkpt>
      <trkpt lat="45.33499" lon="6.12068">
        <ele>1110.9406738281</ele>
        <time>2012-08-09T11:52:38Z</time>
      </trkpt>
      <trkpt lat="45.33504" lon="6.12052">
        <ele>1113.3439941406</ele>
        <time>2012-08-09T11:52:49Z</time>
      </trkpt>
      <trkpt lat="45.33508" lon="6.12043">
        <ele>1114.3051757812</ele>
        <time>2012-08-09T11:52:57Z</time>
      </trkpt>
      <trkpt lat="45.33512" lon="6.12049">
        <ele>1114.3051757812</ele>
        <time>2012-08-09T11:53:04Z</time>
      </trkpt>
      <trkpt lat="45.33517" lon="6.12053">
        <ele>1115.7473144531</ele>
        <time>2012-08-09T11:53:11Z</time>
      </trkpt>
      <trkpt lat="45.33523" lon="6.12057">
        <ele>1116.7087402344</ele>
        <time>2012-08-09T11:53:18Z</time>
      </trkpt>
      <trkpt lat="45.33531" lon="6.12061">
        <ele>1117.669921875</ele>
        <time>2012-08-09T11:53:26Z</time>
      </trkpt>
      <trkpt lat="45.33535" lon="6.12062">
        <ele>1118.1506347656</ele>
        <time>2012-08-09T11:53:30Z</time>
      </trkpt>
      <trkpt lat="45.33543" lon="6.12069">
        <ele>1119.5927734375</ele>
        <time>2012-08-09T11:53:39Z</time>
      </trkpt>
      <trkpt lat="45.33553" lon="6.12075">
        <ele>1121.0346679688</ele>
        <time>2012-08-09T11:53:49Z</time>
      </trkpt>
      <trkpt lat="45.33562" lon="6.12077">
        <ele>1121.5151367188</ele>
        <time>2012-08-09T11:53:56Z</time>
      </trkpt>
      <trkpt lat="45.3357" lon="6.12077">
        <ele>1121.5151367188</ele>
        <time>2012-08-09T11:54:04Z</time>
      </trkpt>
      <trkpt lat="45.33579" lon="6.12075">
        <ele>1121.5151367188</ele>
        <time>2012-08-09T11:54:11Z</time>
      </trkpt>
      <trkpt lat="45.33588" lon="6.12072">
        <ele>1122.4765625</ele>
        <time>2012-08-09T11:54:19Z</time>
      </trkpt>
      <trkpt lat="45.33591" lon="6.12069">
        <ele>1124.3991699219</ele>
        <time>2012-08-09T11:54:28Z</time>
      </trkpt>
      <trkpt lat="45.33595" lon="6.12066">
        <ele>1125.3603515625</ele>
        <time>2012-08-09T11:54:33Z</time>
      </trkpt>
      <trkpt lat="45.33598" lon="6.12064">
        <ele>1126.3217773438</ele>
        <time>2012-08-09T11:54:36Z</time>
      </trkpt>
      <trkpt lat="45.33603" lon="6.12059">
        <ele>1133.0510253906</ele>
        <time>2012-08-09T11:54:41Z</time>
      </trkpt>
      <trkpt lat="45.33606" lon="6.12058">
        <ele>1133.5317382812</ele>
        <time>2012-08-09T11:54:44Z</time>
      </trkpt>
      <trkpt lat="45.3361" lon="6.12058">
        <ele>1130.6477050781</ele>
        <time>2012-08-09T11:54:48Z</time>
      </trkpt>
      <trkpt lat="45.33621" lon="6.12061">
        <ele>1125.8410644531</ele>
        <time>2012-08-09T11:54:57Z</time>
      </trkpt>
      <trkpt lat="45.33624" lon="6.12063">
        <ele>1125.3603515625</ele>
        <time>2012-08-09T11:55:03Z</time>
      </trkpt>
      <trkpt lat="45.3363" lon="6.1206">
        <ele>1127.283203125</ele>
        <time>2012-08-09T11:55:09Z</time>
      </trkpt>
      <trkpt lat="45.33635" lon="6.12056">
        <ele>1130.6477050781</ele>
        <time>2012-08-09T11:55:16Z</time>
      </trkpt>
      <trkpt lat="45.3364" lon="6.12052">
        <ele>1133.0510253906</ele>
        <time>2012-08-09T11:55:22Z</time>
      </trkpt>
      <trkpt lat="45.33641" lon="6.12052">
        <ele>1132.5705566406</ele>
        <time>2012-08-09T11:55:23Z</time>
      </trkpt>
      <trkpt lat="45.33647" lon="6.12053">
        <ele>1132.5705566406</ele>
        <time>2012-08-09T11:55:31Z</time>
      </trkpt>
      <trkpt lat="45.33652" lon="6.12052">
        <ele>1130.1669921875</ele>
        <time>2012-08-09T11:55:37Z</time>
      </trkpt>
      <trkpt lat="45.33658" lon="6.12052">
        <ele>1130.6477050781</ele>
        <time>2012-08-09T11:55:43Z</time>
      </trkpt>
      <trkpt lat="45.33662" lon="6.12052">
        <ele>1130.6477050781</ele>
        <time>2012-08-09T11:55:46Z</time>
      </trkpt>
      <trkpt lat="45.33664" lon="6.12049">
        <ele>1129.2055664062</ele>
        <time>2012-08-09T11:55:50Z</time>
      </trkpt>
      <trkpt lat="45.33672" lon="6.12045">
        <ele>1129.6862792969</ele>
        <time>2012-08-09T11:55:58Z</time>
      </trkpt>
      <trkpt lat="45.33674" lon="6.12044">
        <ele>1127.763671875</ele>
        <time>2012-08-09T11:56:02Z</time>
      </trkpt>
      <trkpt lat="45.33677" lon="6.12046">
        <ele>1125.8410644531</ele>
        <time>2012-08-09T11:56:07Z</time>
      </trkpt>
      <trkpt lat="45.33681" lon="6.12047">
        <ele>1124.8798828125</ele>
        <time>2012-08-09T11:56:12Z</time>
      </trkpt>
      <trkpt lat="45.33685" lon="6.12046">
        <ele>1123.9184570312</ele>
        <time>2012-08-09T11:56:17Z</time>
      </trkpt>
      <trkpt lat="45.33689" lon="6.12046">
        <ele>1122.9572753906</ele>
        <time>2012-08-09T11:56:21Z</time>
      </trkpt>
      <trkpt lat="45.33696" lon="6.12043">
        <ele>1121.9958496094</ele>
        <time>2012-08-09T11:56:27Z</time>
      </trkpt>
      <trkpt lat="45.33702" lon="6.1204">
        <ele>1120.5539550781</ele>
        <time>2012-08-09T11:56:32Z</time>
      </trkpt>
      <trkpt lat="45.3371" lon="6.12036">
        <ele>1119.5927734375</ele>
        <time>2012-08-09T11:56:39Z</time>
      </trkpt>
      <trkpt lat="45.33716" lon="6.12035">
        <ele>1120.5539550781</ele>
        <time>2012-08-09T11:56:43Z</time>
      </trkpt>
      <trkpt lat="45.3372" lon="6.12034">
        <ele>1120.5539550781</ele>
        <time>2012-08-09T11:56:47Z</time>
      </trkpt>
      <trkpt lat="45.33729" lon="6.1203">
        <ele>1123.9184570312</ele>
        <time>2012-08-09T11:56:54Z</time>
      </trkpt>
      <trkpt lat="45.33737" lon="6.12023">
        <ele>1128.7250976562</ele>
        <time>2012-08-09T11:57:01Z</time>
      </trkpt>
      <trkpt lat="45.33746" lon="6.12024">
        <ele>1127.283203125</ele>
        <time>2012-08-09T11:57:08Z</time>
      </trkpt>
      <trkpt lat="45.33754" lon="6.12023">
        <ele>1126.3217773438</ele>
        <time>2012-08-09T11:57:15Z</time>
      </trkpt>
      <trkpt lat="45.33757" lon="6.12021">
        <ele>1125.3603515625</ele>
        <time>2012-08-09T11:57:21Z</time>
      </trkpt>
      <trkpt lat="45.33767" lon="6.12018">
        <ele>1123.9184570312</ele>
        <time>2012-08-09T11:57:29Z</time>
      </trkpt>
      <trkpt lat="45.33771" lon="6.12015">
        <ele>1124.8798828125</ele>
        <time>2012-08-09T11:57:32Z</time>
      </trkpt>
      <trkpt lat="45.33776" lon="6.12011">
        <ele>1124.8798828125</ele>
        <time>2012-08-09T11:57:36Z</time>
      </trkpt>
      <trkpt lat="45.33784" lon="6.12009">
        <ele>1119.5927734375</ele>
        <time>2012-08-09T11:57:43Z</time>
      </trkpt>
      <trkpt lat="45.33788" lon="6.12005">
        <ele>1117.189453125</ele>
        <time>2012-08-09T11:57:47Z</time>
      </trkpt>
      <trkpt lat="45.33792" lon="6.11999">
        <ele>1115.7473144531</ele>
        <time>2012-08-09T11:57:52Z</time>
      </trkpt>
      <trkpt lat="45.33796" lon="6.11995">
        <ele>1116.2280273438</ele>
        <time>2012-08-09T11:57:56Z</time>
      </trkpt>
      <trkpt lat="45.338" lon="6.1199">
        <ele>1116.2280273438</ele>
        <time>2012-08-09T11:58:00Z</time>
      </trkpt>
      <trkpt lat="45.3381" lon="6.11984">
        <ele>1116.2280273438</ele>
        <time>2012-08-09T11:58:09Z</time>
      </trkpt>
      <trkpt lat="45.33811" lon="6.11984">
        <ele>1115.7473144531</ele>
        <time>2012-08-09T11:58:10Z</time>
      </trkpt>
      <trkpt lat="45.33816" lon="6.1198">
        <ele>1115.2666015625</ele>
        <time>2012-08-09T11:58:15Z</time>
      </trkpt>
      <trkpt lat="45.33822" lon="6.11974">
        <ele>1118.1506347656</ele>
        <time>2012-08-09T11:58:23Z</time>
      </trkpt>
      <trkpt lat="45.33823" lon="6.11975">
        <ele>1116.2280273438</ele>
        <time>2012-08-09T11:58:32Z</time>
      </trkpt>
      <trkpt lat="45.33823" lon="6.11975">
        <ele>1116.7087402344</ele>
        <time>2012-08-09T11:58:51Z</time>
      </trkpt>
      <trkpt lat="45.33817" lon="6.11978">
        <ele>1117.669921875</ele>
        <time>2012-08-09T11:58:55Z</time>
      </trkpt>
      <trkpt lat="45.33813" lon="6.11982">
        <ele>1116.2280273438</ele>
        <time>2012-08-09T11:59:01Z</time>
      </trkpt>
      <trkpt lat="45.33808" lon="6.11985">
        <ele>1117.669921875</ele>
        <time>2012-08-09T11:59:05Z</time>
      </trkpt>
      <trkpt lat="45.33805" lon="6.11986">
        <ele>1120.0732421875</ele>
        <time>2012-08-09T11:59:13Z</time>
      </trkpt>
      <trkpt lat="45.33802" lon="6.11989">
        <ele>1121.9958496094</ele>
        <time>2012-08-09T11:59:19Z</time>
      </trkpt>
      <trkpt lat="45.33798" lon="6.11994">
        <ele>1124.8798828125</ele>
        <time>2012-08-09T11:59:25Z</time>
      </trkpt>
      <trkpt lat="45.33794" lon="6.11998">
        <ele>1125.3603515625</ele>
        <time>2012-08-09T11:59:30Z</time>
      </trkpt>
      <trkpt lat="45.33792" lon="6.12001">
        <ele>1125.3603515625</ele>
        <time>2012-08-09T11:59:34Z</time>
      </trkpt>
      <trkpt lat="45.3379" lon="6.12004">
        <ele>1123.4379882812</ele>
        <time>2012-08-09T11:59:38Z</time>
      </trkpt>
      <trkpt lat="45.33787" lon="6.12008">
        <ele>1121.5151367188</ele>
        <time>2012-08-09T11:59:43Z</time>
      </trkpt>
      <trkpt lat="45.33784" lon="6.12013">
        <ele>1121.0346679688</ele>
        <time>2012-08-09T11:59:48Z</time>
      </trkpt>
      <trkpt lat="45.3378" lon="6.12015">
        <ele>1122.4765625</ele>
        <time>2012-08-09T11:59:54Z</time>
      </trkpt>
      <trkpt lat="45.33776" lon="6.12017">
        <ele>1126.8024902344</ele>
        <time>2012-08-09T12:00:01Z</time>
      </trkpt>
      <trkpt lat="45.33772" lon="6.1202">
        <ele>1127.283203125</ele>
        <time>2012-08-09T12:00:06Z</time>
      </trkpt>
      <trkpt lat="45.33764" lon="6.12023">
        <ele>1128.7250976562</ele>
        <time>2012-08-09T12:00:13Z</time>
      </trkpt>
      <trkpt lat="45.33752" lon="6.12029">
        <ele>1129.6862792969</ele>
        <time>2012-08-09T12:00:21Z</time>
      </trkpt>
      <trkpt lat="45.33748" lon="6.12027">
        <ele>1130.6477050781</ele>
        <time>2012-08-09T12:00:26Z</time>
      </trkpt>
      <trkpt lat="45.33745" lon="6.12028">
        <ele>1128.2443847656</ele>
        <time>2012-08-09T12:00:31Z</time>
      </trkpt>
      <trkpt lat="45.33739" lon="6.12032">
        <ele>1128.7250976562</ele>
        <time>2012-08-09T12:00:37Z</time>
      </trkpt>
      <trkpt lat="45.33734" lon="6.12035">
        <ele>1129.6862792969</ele>
        <time>2012-08-09T12:00:44Z</time>
      </trkpt>
      <trkpt lat="45.33732" lon="6.12033">
        <ele>1131.1284179688</ele>
        <time>2012-08-09T12:00:49Z</time>
      </trkpt>
      <trkpt lat="45.33727" lon="6.12031">
        <ele>1137.376953125</ele>
        <time>2012-08-09T12:00:56Z</time>
      </trkpt>
      <trkpt lat="45.33725" lon="6.12032">
        <ele>1139.7802734375</ele>
        <time>2012-08-09T12:00:59Z</time>
      </trkpt>
      <trkpt lat="45.33722" lon="6.12038">
        <ele>1140.7414550781</ele>
        <time>2012-08-09T12:01:06Z</time>
      </trkpt>
      <trkpt lat="45.33725" lon="6.12044">
        <ele>1137.376953125</ele>
        <time>2012-08-09T12:01:18Z</time>
      </trkpt>
      <trkpt lat="45.33728" lon="6.12048">
        <ele>1133.0510253906</ele>
        <time>2012-08-09T12:01:23Z</time>
      </trkpt>
      <trkpt lat="45.33733" lon="6.12049">
        <ele>1130.6477050781</ele>
        <time>2012-08-09T12:01:30Z</time>
      </trkpt>
      <trkpt lat="45.33736" lon="6.12052">
        <ele>1128.2443847656</ele>
        <time>2012-08-09T12:01:38Z</time>
      </trkpt>
      <trkpt lat="45.33739" lon="6.12053">
        <ele>1125.3603515625</ele>
        <time>2012-08-09T12:01:47Z</time>
      </trkpt>
      <trkpt lat="45.33739" lon="6.12058">
        <ele>1129.2055664062</ele>
        <time>2012-08-09T12:02:07Z</time>
      </trkpt>
      <trkpt lat="45.33746" lon="6.12061">
        <ele>1138.3383789062</ele>
        <time>2012-08-09T12:02:19Z</time>
      </trkpt>
      <trkpt lat="45.3375" lon="6.12061">
        <ele>1142.18359375</ele>
        <time>2012-08-09T12:02:26Z</time>
      </trkpt>
      <trkpt lat="45.33757" lon="6.12062">
        <ele>1144.1062011719</ele>
        <time>2012-08-09T12:02:58Z</time>
      </trkpt>
      <trkpt lat="45.3376" lon="6.1206">
        <ele>1144.1062011719</ele>
        <time>2012-08-09T12:03:03Z</time>
      </trkpt>
      <trkpt lat="45.33763" lon="6.12062">
        <ele>1144.5866699219</ele>
        <time>2012-08-09T12:03:08Z</time>
      </trkpt>
      <trkpt lat="45.33767" lon="6.12063">
        <ele>1145.5480957031</ele>
        <time>2012-08-09T12:03:15Z</time>
      </trkpt>
      <trkpt lat="45.33769" lon="6.12066">
        <ele>1146.5095214844</ele>
        <time>2012-08-09T12:03:20Z</time>
      </trkpt>
      <trkpt lat="45.33772" lon="6.12069">
        <ele>1146.0288085938</ele>
        <time>2012-08-09T12:03:26Z</time>
      </trkpt>
      <trkpt lat="45.33773" lon="6.12073">
        <ele>1144.1062011719</ele>
        <time>2012-08-09T12:03:31Z</time>
      </trkpt>
      <trkpt lat="45.33778" lon="6.12077">
        <ele>1142.6643066406</ele>
        <time>2012-08-09T12:03:40Z</time>
      </trkpt>
      <trkpt lat="45.33782" lon="6.1208">
        <ele>1142.18359375</ele>
        <time>2012-08-09T12:03:46Z</time>
      </trkpt>
      <trkpt lat="45.33786" lon="6.12085">
        <ele>1148.9128417969</ele>
        <time>2012-08-09T12:04:01Z</time>
      </trkpt>
      <trkpt lat="45.33787" lon="6.12086">
        <ele>1151.796875</ele>
        <time>2012-08-09T12:04:06Z</time>
      </trkpt>
      <trkpt lat="45.33786" lon="6.12093">
        <ele>1150.8354492188</ele>
        <time>2012-08-09T12:04:14Z</time>
      </trkpt>
      <trkpt lat="45.33784" lon="6.12094">
        <ele>1152.27734375</ele>
        <time>2012-08-09T12:04:19Z</time>
      </trkpt>
      <trkpt lat="45.33787" lon="6.12107">
        <ele>1159.9677734375</ele>
        <time>2012-08-09T12:04:40Z</time>
      </trkpt>
      <trkpt lat="45.33788" lon="6.1211">
        <ele>1159.4873046875</ele>
        <time>2012-08-09T12:04:44Z</time>
      </trkpt>
      <trkpt lat="45.33787" lon="6.12116">
        <ele>1160.4484863281</ele>
        <time>2012-08-09T12:04:51Z</time>
      </trkpt>
      <trkpt lat="45.33784" lon="6.12118">
        <ele>1161.4099121094</ele>
        <time>2012-08-09T12:04:57Z</time>
      </trkpt>
      <trkpt lat="45.33786" lon="6.12133">
        <ele>1159.9677734375</ele>
        <time>2012-08-09T12:05:31Z</time>
      </trkpt>
      <trkpt lat="45.33767" lon="6.12134">
        <ele>1149.8742675781</ele>
        <time>2012-08-09T12:05:42Z</time>
      </trkpt>
      <trkpt lat="45.33776" lon="6.12118">
        <ele>1164.2939453125</ele>
        <time>2012-08-09T12:06:08Z</time>
      </trkpt>
      <trkpt lat="45.33774" lon="6.12119">
        <ele>1168.6198730469</ele>
        <time>2012-08-09T12:06:17Z</time>
      </trkpt>
      <trkpt lat="45.33768" lon="6.12125">
        <ele>1170.0617675781</ele>
        <time>2012-08-09T12:06:22Z</time>
      </trkpt>
      <trkpt lat="45.33763" lon="6.12129">
        <ele>1172.4650878906</ele>
        <time>2012-08-09T12:06:27Z</time>
      </trkpt>
      <trkpt lat="45.33756" lon="6.12136">
        <ele>1171.5036621094</ele>
        <time>2012-08-09T12:06:33Z</time>
      </trkpt>
      <trkpt lat="45.33752" lon="6.1214">
        <ele>1171.5036621094</ele>
        <time>2012-08-09T12:06:40Z</time>
      </trkpt>
      <trkpt lat="45.33749" lon="6.12145">
        <ele>1171.984375</ele>
        <time>2012-08-09T12:06:47Z</time>
      </trkpt>
      <trkpt lat="45.33749" lon="6.12148">
        <ele>1172.4650878906</ele>
        <time>2012-08-09T12:07:00Z</time>
      </trkpt>
      <trkpt lat="45.33749" lon="6.1215">
        <ele>1176.791015625</ele>
        <time>2012-08-09T12:07:17Z</time>
      </trkpt>
      <trkpt lat="45.33752" lon="6.12148">
        <ele>1176.3103027344</ele>
        <time>2012-08-09T12:07:23Z</time>
      </trkpt>
      <trkpt lat="45.33762" lon="6.12142">
        <ele>1180.1557617188</ele>
        <time>2012-08-09T12:07:31Z</time>
      </trkpt>
      <trkpt lat="45.33764" lon="6.1214">
        <ele>1182.0783691406</ele>
        <time>2012-08-09T12:07:33Z</time>
      </trkpt>
      <trkpt lat="45.33773" lon="6.12138">
        <ele>1184.0009765625</ele>
        <time>2012-08-09T12:07:40Z</time>
      </trkpt>
      <trkpt lat="45.33782" lon="6.12134">
        <ele>1188.3269042969</ele>
        <time>2012-08-09T12:07:48Z</time>
      </trkpt>
      <trkpt lat="45.33789" lon="6.12135">
        <ele>1188.8076171875</ele>
        <time>2012-08-09T12:07:54Z</time>
      </trkpt>
      <trkpt lat="45.33795" lon="6.12139">
        <ele>1189.2880859375</ele>
        <time>2012-08-09T12:07:58Z</time>
      </trkpt>
      <trkpt lat="45.338" lon="6.12136">
        <ele>1193.1333007812</ele>
        <time>2012-08-09T12:08:02Z</time>
      </trkpt>
      <trkpt lat="45.33809" lon="6.12135">
        <ele>1197.9401855469</ele>
        <time>2012-08-09T12:08:09Z</time>
      </trkpt>
      <trkpt lat="45.33819" lon="6.12126">
        <ele>1205.6306152344</ele>
        <time>2012-08-09T12:08:17Z</time>
      </trkpt>
      <trkpt lat="45.3382" lon="6.12126">
        <ele>1206.1110839844</ele>
        <time>2012-08-09T12:08:18Z</time>
      </trkpt>
      <trkpt lat="45.33823" lon="6.1212">
        <ele>1210.4370117188</ele>
        <time>2012-08-09T12:08:21Z</time>
      </trkpt>
      <trkpt lat="45.33829" lon="6.12114">
        <ele>1213.3212890625</ele>
        <time>2012-08-09T12:08:26Z</time>
      </trkpt>
      <trkpt lat="45.33834" lon="6.12115">
        <ele>1208.9951171875</ele>
        <time>2012-08-09T12:08:32Z</time>
      </trkpt>
      <trkpt lat="45.33837" lon="6.1212">
        <ele>1201.7854003906</ele>
        <time>2012-08-09T12:08:36Z</time>
      </trkpt>
      <trkpt lat="45.3384" lon="6.12124">
        <ele>1195.5366210938</ele>
        <time>2012-08-09T12:08:40Z</time>
      </trkpt>
      <trkpt lat="45.33848" lon="6.12129">
        <ele>1187.3654785156</ele>
        <time>2012-08-09T12:08:47Z</time>
      </trkpt>
      <trkpt lat="45.33853" lon="6.12129">
        <ele>1187.3654785156</ele>
        <time>2012-08-09T12:08:51Z</time>
      </trkpt>
      <trkpt lat="45.33862" lon="6.12129">
        <ele>1187.8461914062</ele>
        <time>2012-08-09T12:08:58Z</time>
      </trkpt>
      <trkpt lat="45.33868" lon="6.12127">
        <ele>1190.2495117188</ele>
        <time>2012-08-09T12:09:04Z</time>
      </trkpt>
      <trkpt lat="45.33877" lon="6.12128">
        <ele>1189.7687988281</ele>
        <time>2012-08-09T12:09:10Z</time>
      </trkpt>
      <trkpt lat="45.33886" lon="6.12128">
        <ele>1191.2106933594</ele>
        <time>2012-08-09T12:09:18Z</time>
      </trkpt>
      <trkpt lat="45.33892" lon="6.12129">
        <ele>1194.0947265625</ele>
        <time>2012-08-09T12:09:23Z</time>
      </trkpt>
      <trkpt lat="45.33902" lon="6.12128">
        <ele>1198.4206542969</ele>
        <time>2012-08-09T12:09:31Z</time>
      </trkpt>
      <trkpt lat="45.33909" lon="6.12124">
        <ele>1205.6306152344</ele>
        <time>2012-08-09T12:09:37Z</time>
      </trkpt>
      <trkpt lat="45.33919" lon="6.12124">
        <ele>1206.591796875</ele>
        <time>2012-08-09T12:09:45Z</time>
      </trkpt>
      <trkpt lat="45.33928" lon="6.12129">
        <ele>1199.3820800781</ele>
        <time>2012-08-09T12:09:53Z</time>
      </trkpt>
      <trkpt lat="45.33941" lon="6.1213">
        <ele>1196.4982910156</ele>
        <time>2012-08-09T12:10:03Z</time>
      </trkpt>
      <trkpt lat="45.33949" lon="6.1213">
        <ele>1191.2106933594</ele>
        <time>2012-08-09T12:10:12Z</time>
      </trkpt>
      <trkpt lat="45.33954" lon="6.12129">
        <ele>1188.8076171875</ele>
        <time>2012-08-09T12:10:17Z</time>
      </trkpt>
      <trkpt lat="45.33961" lon="6.12127">
        <ele>1188.3269042969</ele>
        <time>2012-08-09T12:10:23Z</time>
      </trkpt>
      <trkpt lat="45.33963" lon="6.12129">
        <ele>1186.404296875</ele>
        <time>2012-08-09T12:10:25Z</time>
      </trkpt>
      <trkpt lat="45.33966" lon="6.12132">
        <ele>1183.5202636719</ele>
        <time>2012-08-09T12:10:28Z</time>
      </trkpt>
      <trkpt lat="45.33968" lon="6.12139">
        <ele>1184.0009765625</ele>
        <time>2012-08-09T12:10:33Z</time>
      </trkpt>
      <trkpt lat="45.33958" lon="6.1215">
        <ele>1187.8461914062</ele>
        <time>2012-08-09T12:10:42Z</time>
      </trkpt>
      <trkpt lat="45.3395" lon="6.12156">
        <ele>1187.8461914062</ele>
        <time>2012-08-09T12:10:49Z</time>
      </trkpt>
      <trkpt lat="45.33939" lon="6.12159">
        <ele>1189.2880859375</ele>
        <time>2012-08-09T12:10:57Z</time>
      </trkpt>
      <trkpt lat="45.3393" lon="6.12163">
        <ele>1189.7687988281</ele>
        <time>2012-08-09T12:11:04Z</time>
      </trkpt>
      <trkpt lat="45.3392" lon="6.12171">
        <ele>1185.9235839844</ele>
        <time>2012-08-09T12:11:11Z</time>
      </trkpt>
      <trkpt lat="45.3391" lon="6.12172">
        <ele>1189.7687988281</ele>
        <time>2012-08-09T12:11:19Z</time>
      </trkpt>
      <trkpt lat="45.33901" lon="6.12177">
        <ele>1190.7299804688</ele>
        <time>2012-08-09T12:11:25Z</time>
      </trkpt>
      <trkpt lat="45.33892" lon="6.12179">
        <ele>1196.017578125</ele>
        <time>2012-08-09T12:11:32Z</time>
      </trkpt>
      <trkpt lat="45.33885" lon="6.12181">
        <ele>1201.3046875</ele>
        <time>2012-08-09T12:11:37Z</time>
      </trkpt>
      <trkpt lat="45.3388" lon="6.12183">
        <ele>1205.6306152344</ele>
        <time>2012-08-09T12:11:42Z</time>
      </trkpt>
      <trkpt lat="45.33871" lon="6.12187">
        <ele>1205.6306152344</ele>
        <time>2012-08-09T12:11:49Z</time>
      </trkpt>
      <trkpt lat="45.33871" lon="6.12185">
        <ele>1208.5144042969</ele>
        <time>2012-08-09T12:11:53Z</time>
      </trkpt>
      <trkpt lat="45.33867" lon="6.12189">
        <ele>1208.5144042969</ele>
        <time>2012-08-09T12:12:00Z</time>
      </trkpt>
      <trkpt lat="45.33862" lon="6.12193">
        <ele>1212.8405761719</ele>
        <time>2012-08-09T12:12:05Z</time>
      </trkpt>
      <trkpt lat="45.33855" lon="6.12199">
        <ele>1209.9562988281</ele>
        <time>2012-08-09T12:12:11Z</time>
      </trkpt>
      <trkpt lat="45.33849" lon="6.12205">
        <ele>1205.1499023438</ele>
        <time>2012-08-09T12:12:17Z</time>
      </trkpt>
      <trkpt lat="45.33844" lon="6.1221">
        <ele>1202.7465820312</ele>
        <time>2012-08-09T12:12:22Z</time>
      </trkpt>
      <trkpt lat="45.3384" lon="6.12212">
        <ele>1204.6691894531</ele>
        <time>2012-08-09T12:12:27Z</time>
      </trkpt>
      <trkpt lat="45.33831" lon="6.1222">
        <ele>1205.6306152344</ele>
        <time>2012-08-09T12:12:33Z</time>
      </trkpt>
      <trkpt lat="45.33821" lon="6.12223">
        <ele>1213.3212890625</ele>
        <time>2012-08-09T12:12:39Z</time>
      </trkpt>
      <trkpt lat="45.33811" lon="6.12226">
        <ele>1216.205078125</ele>
        <time>2012-08-09T12:12:46Z</time>
      </trkpt>
      <trkpt lat="45.3381" lon="6.12226">
        <ele>1218.1276855469</ele>
        <time>2012-08-09T12:12:47Z</time>
      </trkpt>
      <trkpt lat="45.33803" lon="6.12227">
        <ele>1220.0502929688</ele>
        <time>2012-08-09T12:12:51Z</time>
      </trkpt>
      <trkpt lat="45.33796" lon="6.12228">
        <ele>1218.6083984375</ele>
        <time>2012-08-09T12:12:58Z</time>
      </trkpt>
      <trkpt lat="45.33791" lon="6.12226">
        <ele>1219.5698242188</ele>
        <time>2012-08-09T12:13:03Z</time>
      </trkpt>
      <trkpt lat="45.33783" lon="6.1223">
        <ele>1216.6857910156</ele>
        <time>2012-08-09T12:13:08Z</time>
      </trkpt>
      <trkpt lat="45.33781" lon="6.12231">
        <ele>1214.7631835938</ele>
        <time>2012-08-09T12:13:11Z</time>
      </trkpt>
      <trkpt lat="45.33777" lon="6.12231">
        <ele>1215.724609375</ele>
        <time>2012-08-09T12:13:14Z</time>
      </trkpt>
      <trkpt lat="45.33772" lon="6.12233">
        <ele>1214.2824707031</ele>
        <time>2012-08-09T12:13:18Z</time>
      </trkpt>
      <trkpt lat="45.33764" lon="6.12235">
        <ele>1213.3212890625</ele>
        <time>2012-08-09T12:13:26Z</time>
      </trkpt>
      <trkpt lat="45.33759" lon="6.12236">
        <ele>1212.8405761719</ele>
        <time>2012-08-09T12:13:32Z</time>
      </trkpt>
      <trkpt lat="45.33753" lon="6.12235">
        <ele>1214.2824707031</ele>
        <time>2012-08-09T12:13:38Z</time>
      </trkpt>
      <trkpt lat="45.33746" lon="6.12238">
        <ele>1215.2438964844</ele>
        <time>2012-08-09T12:13:44Z</time>
      </trkpt>
      <trkpt lat="45.33738" lon="6.12235">
        <ele>1220.0502929688</ele>
        <time>2012-08-09T12:13:51Z</time>
      </trkpt>
      <trkpt lat="45.33731" lon="6.12237">
        <ele>1223.4150390625</ele>
        <time>2012-08-09T12:13:57Z</time>
      </trkpt>
      <trkpt lat="45.33725" lon="6.1224">
        <ele>1222.4536132812</ele>
        <time>2012-08-09T12:14:02Z</time>
      </trkpt>
      <trkpt lat="45.33719" lon="6.12241">
        <ele>1221.9729003906</ele>
        <time>2012-08-09T12:14:07Z</time>
      </trkpt>
      <trkpt lat="45.33709" lon="6.12248">
        <ele>1216.6857910156</ele>
        <time>2012-08-09T12:14:15Z</time>
      </trkpt>
      <trkpt lat="45.33701" lon="6.12252">
        <ele>1212.8405761719</ele>
        <time>2012-08-09T12:14:22Z</time>
      </trkpt>
      <trkpt lat="45.33695" lon="6.12253">
        <ele>1211.3984375</ele>
        <time>2012-08-09T12:14:28Z</time>
      </trkpt>
      <trkpt lat="45.3369" lon="6.12253">
        <ele>1212.3598632812</ele>
        <time>2012-08-09T12:14:33Z</time>
      </trkpt>
      <trkpt lat="45.33683" lon="6.12257">
        <ele>1211.3984375</ele>
        <time>2012-08-09T12:14:40Z</time>
      </trkpt>
      <trkpt lat="45.33674" lon="6.12264">
        <ele>1211.8791503906</ele>
        <time>2012-08-09T12:14:47Z</time>
      </trkpt>
      <trkpt lat="45.33664" lon="6.12272">
        <ele>1211.3984375</ele>
        <time>2012-08-09T12:14:54Z</time>
      </trkpt>
      <trkpt lat="45.33662" lon="6.12276">
        <ele>1212.8405761719</ele>
        <time>2012-08-09T12:15:00Z</time>
      </trkpt>
      <trkpt lat="45.33668" lon="6.12273">
        <ele>1214.7631835938</ele>
        <time>2012-08-09T12:15:07Z</time>
      </trkpt>
      <trkpt lat="45.3367" lon="6.12273">
        <ele>1215.2438964844</ele>
        <time>2012-08-09T12:15:11Z</time>
      </trkpt>
      <trkpt lat="45.33673" lon="6.12274">
        <ele>1215.2438964844</ele>
        <time>2012-08-09T12:15:15Z</time>
      </trkpt>
      <trkpt lat="45.33678" lon="6.12273">
        <ele>1215.2438964844</ele>
        <time>2012-08-09T12:15:21Z</time>
      </trkpt>
      <trkpt lat="45.33685" lon="6.12272">
        <ele>1214.2824707031</ele>
        <time>2012-08-09T12:15:28Z</time>
      </trkpt>
      <trkpt lat="45.33689" lon="6.12272">
        <ele>1213.8017578125</ele>
        <time>2012-08-09T12:15:33Z</time>
      </trkpt>
      <trkpt lat="45.33693" lon="6.12271">
        <ele>1213.3212890625</ele>
        <time>2012-08-09T12:15:39Z</time>
      </trkpt>
      <trkpt lat="45.33699" lon="6.12272">
        <ele>1213.3212890625</ele>
        <time>2012-08-09T12:15:45Z</time>
      </trkpt>
      <trkpt lat="45.33706" lon="6.12276">
        <ele>1213.3212890625</ele>
        <time>2012-08-09T12:15:52Z</time>
      </trkpt>
      <trkpt lat="45.33711" lon="6.12276">
        <ele>1215.2438964844</ele>
        <time>2012-08-09T12:15:57Z</time>
      </trkpt>
      <trkpt lat="45.33715" lon="6.12278">
        <ele>1215.2438964844</ele>
        <time>2012-08-09T12:16:01Z</time>
      </trkpt>
      <trkpt lat="45.3372" lon="6.12279">
        <ele>1216.6857910156</ele>
        <time>2012-08-09T12:16:04Z</time>
      </trkpt>
      <trkpt lat="45.33723" lon="6.1228">
        <ele>1219.5698242188</ele>
        <time>2012-08-09T12:16:07Z</time>
      </trkpt>
      <trkpt lat="45.3373" lon="6.12282">
        <ele>1219.5698242188</ele>
        <time>2012-08-09T12:16:14Z</time>
      </trkpt>
      <trkpt lat="45.33736" lon="6.12289">
        <ele>1217.1665039062</ele>
        <time>2012-08-09T12:16:21Z</time>
      </trkpt>
      <trkpt lat="45.33743" lon="6.1229">
        <ele>1217.1665039062</ele>
        <time>2012-08-09T12:16:26Z</time>
      </trkpt>
      <trkpt lat="45.33748" lon="6.12296">
        <ele>1217.1665039062</ele>
        <time>2012-08-09T12:16:31Z</time>
      </trkpt>
      <trkpt lat="45.33752" lon="6.123">
        <ele>1219.5698242188</ele>
        <time>2012-08-09T12:16:36Z</time>
      </trkpt>
      <trkpt lat="45.33758" lon="6.12303">
        <ele>1220.5310058594</ele>
        <time>2012-08-09T12:16:40Z</time>
      </trkpt>
      <trkpt lat="45.33764" lon="6.12305">
        <ele>1222.9343261719</ele>
        <time>2012-08-09T12:16:45Z</time>
      </trkpt>
      <trkpt lat="45.33771" lon="6.12308">
        <ele>1229.1828613281</ele>
        <time>2012-08-09T12:16:50Z</time>
      </trkpt>
      <trkpt lat="45.33774" lon="6.12308">
        <ele>1233.9895019531</ele>
        <time>2012-08-09T12:16:54Z</time>
      </trkpt>
      <trkpt lat="45.33779" lon="6.12314">
        <ele>1231.1057128906</ele>
        <time>2012-08-09T12:16:59Z</time>
      </trkpt>
      <trkpt lat="45.33785" lon="6.1232">
        <ele>1235.4313964844</ele>
        <time>2012-08-09T12:17:05Z</time>
      </trkpt>
      <trkpt lat="45.33794" lon="6.12329">
        <ele>1231.5861816406</ele>
        <time>2012-08-09T12:17:16Z</time>
      </trkpt>
      <trkpt lat="45.33797" lon="6.12335">
        <ele>1229.6635742188</ele>
        <time>2012-08-09T12:17:21Z</time>
      </trkpt>
      <trkpt lat="45.33806" lon="6.12341">
        <ele>1232.0668945312</ele>
        <time>2012-08-09T12:17:31Z</time>
      </trkpt>
      <trkpt lat="45.33812" lon="6.12339">
        <ele>1236.8732910156</ele>
        <time>2012-08-09T12:17:37Z</time>
      </trkpt>
      <trkpt lat="45.33817" lon="6.1234">
        <ele>1242.1606445312</ele>
        <time>2012-08-09T12:17:42Z</time>
      </trkpt>
      <trkpt lat="45.33824" lon="6.12344">
        <ele>1244.5639648438</ele>
        <time>2012-08-09T12:17:51Z</time>
      </trkpt>
      <trkpt lat="45.33826" lon="6.12347">
        <ele>1246.4868164062</ele>
        <time>2012-08-09T12:17:56Z</time>
      </trkpt>
      <trkpt lat="45.33828" lon="6.12349">
        <ele>1250.33203125</ele>
        <time>2012-08-09T12:18:01Z</time>
      </trkpt>
      <trkpt lat="45.33838" lon="6.12354">
        <ele>1250.33203125</ele>
        <time>2012-08-09T12:18:13Z</time>
      </trkpt>
      <trkpt lat="45.33842" lon="6.12355">
        <ele>1252.7351074219</ele>
        <time>2012-08-09T12:18:18Z</time>
      </trkpt>
      <trkpt lat="45.33849" lon="6.12351">
        <ele>1253.2158203125</ele>
        <time>2012-08-09T12:18:24Z</time>
      </trkpt>
      <trkpt lat="45.33853" lon="6.12347">
        <ele>1256.099609375</ele>
        <time>2012-08-09T12:18:30Z</time>
      </trkpt>
      <trkpt lat="45.3386" lon="6.12344">
        <ele>1257.0610351562</ele>
        <time>2012-08-09T12:18:37Z</time>
      </trkpt>
      <trkpt lat="45.33864" lon="6.12342">
        <ele>1258.5029296875</ele>
        <time>2012-08-09T12:18:41Z</time>
      </trkpt>
      <trkpt lat="45.33874" lon="6.12341">
        <ele>1265.232421875</ele>
        <time>2012-08-09T12:18:49Z</time>
      </trkpt>
      <trkpt lat="45.33882" lon="6.12343">
        <ele>1266.6743164062</ele>
        <time>2012-08-09T12:18:56Z</time>
      </trkpt>
      <trkpt lat="45.33889" lon="6.1235">
        <ele>1264.2709960938</ele>
        <time>2012-08-09T12:19:04Z</time>
      </trkpt>
      <trkpt lat="45.33895" lon="6.12351">
        <ele>1264.2709960938</ele>
        <time>2012-08-09T12:19:11Z</time>
      </trkpt>
      <trkpt lat="45.339" lon="6.12355">
        <ele>1261.8679199219</ele>
        <time>2012-08-09T12:19:16Z</time>
      </trkpt>
      <trkpt lat="45.33907" lon="6.12363">
        <ele>1261.8679199219</ele>
        <time>2012-08-09T12:19:23Z</time>
      </trkpt>
      <trkpt lat="45.3391" lon="6.1237">
        <ele>1259.9448242188</ele>
        <time>2012-08-09T12:19:28Z</time>
      </trkpt>
      <trkpt lat="45.3391" lon="6.12375">
        <ele>1261.3872070312</ele>
        <time>2012-08-09T12:19:35Z</time>
      </trkpt>
      <trkpt lat="45.33916" lon="6.12379">
        <ele>1266.6743164062</ele>
        <time>2012-08-09T12:19:40Z</time>
      </trkpt>
      <trkpt lat="45.33921" lon="6.12384">
        <ele>1268.5969238281</ele>
        <time>2012-08-09T12:19:47Z</time>
      </trkpt>
      <trkpt lat="45.33924" lon="6.12387">
        <ele>1267.6354980469</ele>
        <time>2012-08-09T12:19:53Z</time>
      </trkpt>
      <trkpt lat="45.3393" lon="6.12395">
        <ele>1263.7902832031</ele>
        <time>2012-08-09T12:20:02Z</time>
      </trkpt>
      <trkpt lat="45.33938" lon="6.12397">
        <ele>1262.8291015625</ele>
        <time>2012-08-09T12:20:10Z</time>
      </trkpt>
      <trkpt lat="45.33941" lon="6.12396">
        <ele>1263.3098144531</ele>
        <time>2012-08-09T12:20:13Z</time>
      </trkpt>
      <trkpt lat="45.33945" lon="6.12396">
        <ele>1264.7517089844</ele>
        <time>2012-08-09T12:20:17Z</time>
      </trkpt>
      <trkpt lat="45.33951" lon="6.12397">
        <ele>1264.2709960938</ele>
        <time>2012-08-09T12:20:25Z</time>
      </trkpt>
      <trkpt lat="45.33957" lon="6.12394">
        <ele>1268.1162109375</ele>
        <time>2012-08-09T12:20:33Z</time>
      </trkpt>
      <trkpt lat="45.3396" lon="6.12391">
        <ele>1274.3647460938</ele>
        <time>2012-08-09T12:20:41Z</time>
      </trkpt>
      <trkpt lat="45.33965" lon="6.12391">
        <ele>1271.9614257812</ele>
        <time>2012-08-09T12:20:47Z</time>
      </trkpt>
      <trkpt lat="45.3397" lon="6.1239">
        <ele>1273.8840332031</ele>
        <time>2012-08-09T12:20:54Z</time>
      </trkpt>
      <trkpt lat="45.33974" lon="6.12396">
        <ele>1271.0002441406</ele>
        <time>2012-08-09T12:20:59Z</time>
      </trkpt>
      <trkpt lat="45.33981" lon="6.12399">
        <ele>1269.5583496094</ele>
        <time>2012-08-09T12:21:07Z</time>
      </trkpt>
      <trkpt lat="45.33992" lon="6.12397">
        <ele>1267.6354980469</ele>
        <time>2012-08-09T12:21:16Z</time>
      </trkpt>
      <trkpt lat="45.34001" lon="6.12395">
        <ele>1268.1162109375</ele>
        <time>2012-08-09T12:21:23Z</time>
      </trkpt>
      <trkpt lat="45.34003" lon="6.12394">
        <ele>1268.1162109375</ele>
        <time>2012-08-09T12:21:25Z</time>
      </trkpt>
      <trkpt lat="45.3401" lon="6.12391">
        <ele>1272.9228515625</ele>
        <time>2012-08-09T12:21:31Z</time>
      </trkpt>
      <trkpt lat="45.34015" lon="6.12387">
        <ele>1275.806640625</ele>
        <time>2012-08-09T12:21:35Z</time>
      </trkpt>
      <trkpt lat="45.34021" lon="6.1238">
        <ele>1281.5747070312</ele>
        <time>2012-08-09T12:21:40Z</time>
      </trkpt>
      <trkpt lat="45.34027" lon="6.12379">
        <ele>1283.4973144531</ele>
        <time>2012-08-09T12:21:44Z</time>
      </trkpt>
      <trkpt lat="45.34032" lon="6.12384">
        <ele>1279.6520996094</ele>
        <time>2012-08-09T12:21:50Z</time>
      </trkpt>
      <trkpt lat="45.34037" lon="6.12384">
        <ele>1282.0554199219</ele>
        <time>2012-08-09T12:21:55Z</time>
      </trkpt>
      <trkpt lat="45.34043" lon="6.12388">
        <ele>1283.0166015625</ele>
        <time>2012-08-09T12:22:01Z</time>
      </trkpt>
      <trkpt lat="45.34047" lon="6.12389">
        <ele>1283.9780273438</ele>
        <time>2012-08-09T12:22:06Z</time>
      </trkpt>
      <trkpt lat="45.34055" lon="6.12394">
        <ele>1282.0554199219</ele>
        <time>2012-08-09T12:22:17Z</time>
      </trkpt>
      <trkpt lat="45.34061" lon="6.12397">
        <ele>1282.5361328125</ele>
        <time>2012-08-09T12:22:22Z</time>
      </trkpt>
      <trkpt lat="45.34068" lon="6.12401">
        <ele>1288.7846679688</ele>
        <time>2012-08-09T12:22:27Z</time>
      </trkpt>
      <trkpt lat="45.34074" lon="6.12404">
        <ele>1291.1877441406</ele>
        <time>2012-08-09T12:22:31Z</time>
      </trkpt>
      <trkpt lat="45.34082" lon="6.12412">
        <ele>1293.5913085938</ele>
        <time>2012-08-09T12:22:40Z</time>
      </trkpt>
      <trkpt lat="45.34081" lon="6.12418">
        <ele>1286.3813476562</ele>
        <time>2012-08-09T12:22:46Z</time>
      </trkpt>
      <trkpt lat="45.34085" lon="6.12418">
        <ele>1284.4587402344</ele>
        <time>2012-08-09T12:22:51Z</time>
      </trkpt>
      <trkpt lat="45.34088" lon="6.12416">
        <ele>1285.9006347656</ele>
        <time>2012-08-09T12:22:54Z</time>
      </trkpt>
      <trkpt lat="45.34099" lon="6.1241">
        <ele>1292.6301269531</ele>
        <time>2012-08-09T12:23:02Z</time>
      </trkpt>
      <trkpt lat="45.341" lon="6.12405">
        <ele>1296.4753417969</ele>
        <time>2012-08-09T12:23:04Z</time>
      </trkpt>
      <trkpt lat="45.34108" lon="6.12399">
        <ele>1303.2043457031</ele>
        <time>2012-08-09T12:23:10Z</time>
      </trkpt>
      <trkpt lat="45.34116" lon="6.12408">
        <ele>1289.7458496094</ele>
        <time>2012-08-09T12:23:17Z</time>
      </trkpt>
      <trkpt lat="45.34122" lon="6.1241">
        <ele>1284.4587402344</ele>
        <time>2012-08-09T12:23:23Z</time>
      </trkpt>
      <trkpt lat="45.3413" lon="6.12414">
        <ele>1280.6135253906</ele>
        <time>2012-08-09T12:23:30Z</time>
      </trkpt>
      <trkpt lat="45.3414" lon="6.12418">
        <ele>1278.2102050781</ele>
        <time>2012-08-09T12:23:38Z</time>
      </trkpt>
      <trkpt lat="45.3415" lon="6.12423">
        <ele>1277.2490234375</ele>
        <time>2012-08-09T12:23:46Z</time>
      </trkpt>
      <trkpt lat="45.3415" lon="6.12424">
        <ele>1276.7683105469</ele>
        <time>2012-08-09T12:23:47Z</time>
      </trkpt>
      <trkpt lat="45.34156" lon="6.12435">
        <ele>1275.3259277344</ele>
        <time>2012-08-09T12:23:55Z</time>
      </trkpt>
      <trkpt lat="45.34163" lon="6.12439">
        <ele>1275.3259277344</ele>
        <time>2012-08-09T12:24:01Z</time>
      </trkpt>
      <trkpt lat="45.34165" lon="6.1244">
        <ele>1275.806640625</ele>
        <time>2012-08-09T12:24:03Z</time>
      </trkpt>
      <trkpt lat="45.34172" lon="6.12435">
        <ele>1279.1713867188</ele>
        <time>2012-08-09T12:24:08Z</time>
      </trkpt>
      <trkpt lat="45.34174" lon="6.12433">
        <ele>1280.1328125</ele>
        <time>2012-08-09T12:24:10Z</time>
      </trkpt>
      <trkpt lat="45.3418" lon="6.1243">
        <ele>1282.0554199219</ele>
        <time>2012-08-09T12:24:16Z</time>
      </trkpt>
      <trkpt lat="45.34184" lon="6.12432">
        <ele>1281.5747070312</ele>
        <time>2012-08-09T12:24:21Z</time>
      </trkpt>
      <trkpt lat="45.34188" lon="6.1243">
        <ele>1283.9780273438</ele>
        <time>2012-08-09T12:24:27Z</time>
      </trkpt>
      <trkpt lat="45.34193" lon="6.12429">
        <ele>1283.9780273438</ele>
        <time>2012-08-09T12:24:32Z</time>
      </trkpt>
      <trkpt lat="45.34195" lon="6.12429">
        <ele>1283.9780273438</ele>
        <time>2012-08-09T12:24:33Z</time>
      </trkpt>
      <trkpt lat="45.34204" lon="6.12429">
        <ele>1286.8618164062</ele>
        <time>2012-08-09T12:24:40Z</time>
      </trkpt>
      <trkpt lat="45.34209" lon="6.1243">
        <ele>1286.3813476562</ele>
        <time>2012-08-09T12:24:44Z</time>
      </trkpt>
      <trkpt lat="45.34217" lon="6.1243">
        <ele>1285.9006347656</ele>
        <time>2012-08-09T12:24:52Z</time>
      </trkpt>
      <trkpt lat="45.34226" lon="6.12424">
        <ele>1289.7458496094</ele>
        <time>2012-08-09T12:24:58Z</time>
      </trkpt>
      <trkpt lat="45.34233" lon="6.12417">
        <ele>1293.5913085938</ele>
        <time>2012-08-09T12:25:04Z</time>
      </trkpt>
      <trkpt lat="45.34237" lon="6.12416">
        <ele>1298.3977050781</ele>
        <time>2012-08-09T12:25:09Z</time>
      </trkpt>
      <trkpt lat="45.34241" lon="6.12414">
        <ele>1304.1657714844</ele>
        <time>2012-08-09T12:25:13Z</time>
      </trkpt>
      <trkpt lat="45.34242" lon="6.12414">
        <ele>1303.6850585938</ele>
        <time>2012-08-09T12:25:14Z</time>
      </trkpt>
      <trkpt lat="45.34245" lon="6.12413">
        <ele>1301.7624511719</ele>
        <time>2012-08-09T12:25:17Z</time>
      </trkpt>
      <trkpt lat="45.3425" lon="6.12415">
        <ele>1300.8010253906</ele>
        <time>2012-08-09T12:25:22Z</time>
      </trkpt>
      <trkpt lat="45.34254" lon="6.12418">
        <ele>1299.3591308594</ele>
        <time>2012-08-09T12:25:30Z</time>
      </trkpt>
      <trkpt lat="45.34256" lon="6.12413">
        <ele>1299.3591308594</ele>
        <time>2012-08-09T12:25:35Z</time>
      </trkpt>
      <trkpt lat="45.34262" lon="6.12411">
        <ele>1295.5139160156</ele>
        <time>2012-08-09T12:25:46Z</time>
      </trkpt>
      <trkpt lat="45.3427" lon="6.12406">
        <ele>1295.9946289062</ele>
        <time>2012-08-09T12:25:54Z</time>
      </trkpt>
      <trkpt lat="45.34276" lon="6.12395">
        <ele>1297.9172363281</ele>
        <time>2012-08-09T12:26:05Z</time>
      </trkpt>
      <trkpt lat="45.3428" lon="6.12388">
        <ele>1299.83984375</ele>
        <time>2012-08-09T12:26:13Z</time>
      </trkpt>
      <trkpt lat="45.34292" lon="6.12401">
        <ele>1299.3591308594</ele>
        <time>2012-08-09T12:26:32Z</time>
      </trkpt>
      <trkpt lat="45.34293" lon="6.12407">
        <ele>1300.8010253906</ele>
        <time>2012-08-09T12:26:37Z</time>
      </trkpt>
      <trkpt lat="45.34294" lon="6.12412">
        <ele>1301.7624511719</ele>
        <time>2012-08-09T12:26:42Z</time>
      </trkpt>
      <trkpt lat="45.34293" lon="6.12418">
        <ele>1305.126953125</ele>
        <time>2012-08-09T12:26:48Z</time>
      </trkpt>
      <trkpt lat="45.34294" lon="6.12422">
        <ele>1308.9724121094</ele>
        <time>2012-08-09T12:26:53Z</time>
      </trkpt>
      <trkpt lat="45.34298" lon="6.12418">
        <ele>1312.8176269531</ele>
        <time>2012-08-09T12:26:57Z</time>
      </trkpt>
      <trkpt lat="45.34303" lon="6.12415">
        <ele>1317.1435546875</ele>
        <time>2012-08-09T12:27:05Z</time>
      </trkpt>
      <trkpt lat="45.34306" lon="6.12412">
        <ele>1318.5854492188</ele>
        <time>2012-08-09T12:27:09Z</time>
      </trkpt>
      <trkpt lat="45.34309" lon="6.12406">
        <ele>1323.8725585938</ele>
        <time>2012-08-09T12:27:15Z</time>
      </trkpt>
      <trkpt lat="45.34314" lon="6.12401">
        <ele>1328.1987304688</ele>
        <time>2012-08-09T12:27:21Z</time>
      </trkpt>
      <trkpt lat="45.34319" lon="6.12408">
        <ele>1325.3146972656</ele>
        <time>2012-08-09T12:27:26Z</time>
      </trkpt>
      <trkpt lat="45.34327" lon="6.12415">
        <ele>1317.1435546875</ele>
        <time>2012-08-09T12:27:37Z</time>
      </trkpt>
      <trkpt lat="45.34334" lon="6.12414">
        <ele>1320.5080566406</ele>
        <time>2012-08-09T12:27:44Z</time>
      </trkpt>
      <trkpt lat="45.34336" lon="6.12411">
        <ele>1324.8342285156</ele>
        <time>2012-08-09T12:27:47Z</time>
      </trkpt>
      <trkpt lat="45.34341" lon="6.12409">
        <ele>1329.640625</ele>
        <time>2012-08-09T12:27:53Z</time>
      </trkpt>
      <trkpt lat="45.34345" lon="6.1241">
        <ele>1333.0051269531</ele>
        <time>2012-08-09T12:27:59Z</time>
      </trkpt>
      <trkpt lat="45.3435" lon="6.12412">
        <ele>1333.4858398438</ele>
        <time>2012-08-09T12:28:05Z</time>
      </trkpt>
      <trkpt lat="45.34358" lon="6.12414">
        <ele>1330.6020507812</ele>
        <time>2012-08-09T12:28:17Z</time>
      </trkpt>
      <trkpt lat="45.34362" lon="6.12416">
        <ele>1325.3146972656</ele>
        <time>2012-08-09T12:28:22Z</time>
      </trkpt>
      <trkpt lat="45.34372" lon="6.12422">
        <ele>1319.546875</ele>
        <time>2012-08-09T12:28:37Z</time>
      </trkpt>
      <trkpt lat="45.34374" lon="6.12419">
        <ele>1322.4306640625</ele>
        <time>2012-08-09T12:28:41Z</time>
      </trkpt>
      <trkpt lat="45.34381" lon="6.12419">
        <ele>1326.2761230469</ele>
        <time>2012-08-09T12:28:50Z</time>
      </trkpt>
      <trkpt lat="45.34384" lon="6.12418">
        <ele>1328.6794433594</ele>
        <time>2012-08-09T12:28:55Z</time>
      </trkpt>
      <trkpt lat="45.34386" lon="6.12429">
        <ele>1327.7180175781</ele>
        <time>2012-08-09T12:29:05Z</time>
      </trkpt>
      <trkpt lat="45.34388" lon="6.12436">
        <ele>1331.5632324219</ele>
        <time>2012-08-09T12:29:11Z</time>
      </trkpt>
      <trkpt lat="45.34385" lon="6.12441">
        <ele>1329.1599121094</ele>
        <time>2012-08-09T12:29:18Z</time>
      </trkpt>
      <trkpt lat="45.34386" lon="6.12449">
        <ele>1328.6794433594</ele>
        <time>2012-08-09T12:29:24Z</time>
      </trkpt>
      <trkpt lat="45.34386" lon="6.12456">
        <ele>1335.4084472656</ele>
        <time>2012-08-09T12:29:35Z</time>
      </trkpt>
      <trkpt lat="45.34388" lon="6.12455">
        <ele>1341.6572265625</ele>
        <time>2012-08-09T12:29:44Z</time>
      </trkpt>
      <trkpt lat="45.34406" lon="6.12461">
        <ele>1360.8835449219</ele>
        <time>2012-08-09T12:30:16Z</time>
      </trkpt>
      <trkpt lat="45.34412" lon="6.12462">
        <ele>1367.6125488281</ele>
        <time>2012-08-09T12:30:27Z</time>
      </trkpt>
      <trkpt lat="45.34417" lon="6.12466">
        <ele>1358.9609375</ele>
        <time>2012-08-09T12:30:33Z</time>
      </trkpt>
      <trkpt lat="45.34417" lon="6.12467">
        <ele>1357.9997558594</ele>
        <time>2012-08-09T12:30:34Z</time>
      </trkpt>
      <trkpt lat="45.34418" lon="6.12471">
        <ele>1353.6735839844</ele>
        <time>2012-08-09T12:30:36Z</time>
      </trkpt>
      <trkpt lat="45.34423" lon="6.12471">
        <ele>1356.5576171875</ele>
        <time>2012-08-09T12:30:42Z</time>
      </trkpt>
      <trkpt lat="45.34425" lon="6.1246">
        <ele>1363.7673339844</ele>
        <time>2012-08-09T12:30:49Z</time>
      </trkpt>
      <trkpt lat="45.34427" lon="6.12453">
        <ele>1368.5739746094</ele>
        <time>2012-08-09T12:30:53Z</time>
      </trkpt>
      <trkpt lat="45.3443" lon="6.12448">
        <ele>1365.2094726562</ele>
        <time>2012-08-09T12:30:59Z</time>
      </trkpt>
      <trkpt lat="45.34434" lon="6.12448">
        <ele>1361.8449707031</ele>
        <time>2012-08-09T12:31:04Z</time>
      </trkpt>
      <trkpt lat="45.34436" lon="6.12452">
        <ele>1358.4802246094</ele>
        <time>2012-08-09T12:31:08Z</time>
      </trkpt>
      <trkpt lat="45.34439" lon="6.1245">
        <ele>1361.8449707031</ele>
        <time>2012-08-09T12:31:14Z</time>
      </trkpt>
      <trkpt lat="45.34446" lon="6.12442">
        <ele>1368.5739746094</ele>
        <time>2012-08-09T12:31:22Z</time>
      </trkpt>
      <trkpt lat="45.34452" lon="6.12441">
        <ele>1369.5354003906</ele>
        <time>2012-08-09T12:31:31Z</time>
      </trkpt>
      <trkpt lat="45.34457" lon="6.1244">
        <ele>1366.6513671875</ele>
        <time>2012-08-09T12:31:38Z</time>
      </trkpt>
      <trkpt lat="45.34458" lon="6.1244">
        <ele>1366.6513671875</ele>
        <time>2012-08-09T12:31:39Z</time>
      </trkpt>
      <trkpt lat="45.34464" lon="6.12436">
        <ele>1367.1320800781</ele>
        <time>2012-08-09T12:31:46Z</time>
      </trkpt>
      <trkpt lat="45.34469" lon="6.12437">
        <ele>1367.1320800781</ele>
        <time>2012-08-09T12:31:53Z</time>
      </trkpt>
      <trkpt lat="45.34473" lon="6.12439">
        <ele>1367.6125488281</ele>
        <time>2012-08-09T12:31:57Z</time>
      </trkpt>
      <trkpt lat="45.34477" lon="6.12439">
        <ele>1370.0158691406</ele>
        <time>2012-08-09T12:32:01Z</time>
      </trkpt>
      <trkpt lat="45.34481" lon="6.12441">
        <ele>1369.5354003906</ele>
        <time>2012-08-09T12:32:07Z</time>
      </trkpt>
      <trkpt lat="45.34486" lon="6.12442">
        <ele>1372.9001464844</ele>
        <time>2012-08-09T12:32:12Z</time>
      </trkpt>
      <trkpt lat="45.3449" lon="6.12442">
        <ele>1376.7453613281</ele>
        <time>2012-08-09T12:32:17Z</time>
      </trkpt>
      <trkpt lat="45.34493" lon="6.12445">
        <ele>1377.7065429688</ele>
        <time>2012-08-09T12:32:23Z</time>
      </trkpt>
      <trkpt lat="45.34496" lon="6.12447">
        <ele>1379.1484375</ele>
        <time>2012-08-09T12:32:28Z</time>
      </trkpt>
      <trkpt lat="45.34501" lon="6.12446">
        <ele>1382.5131835938</ele>
        <time>2012-08-09T12:32:33Z</time>
      </trkpt>
      <trkpt lat="45.34505" lon="6.12445">
        <ele>1387.3195800781</ele>
        <time>2012-08-09T12:32:40Z</time>
      </trkpt>
      <trkpt lat="45.34509" lon="6.12453">
        <ele>1393.0876464844</ele>
        <time>2012-08-09T12:32:51Z</time>
      </trkpt>
      <trkpt lat="45.34505" lon="6.12452">
        <ele>1399.3361816406</ele>
        <time>2012-08-09T12:32:58Z</time>
      </trkpt>
      <trkpt lat="45.34496" lon="6.12461">
        <ele>1392.6071777344</ele>
        <time>2012-08-09T12:33:10Z</time>
      </trkpt>
      <trkpt lat="45.34495" lon="6.12467">
        <ele>1388.7619628906</ele>
        <time>2012-08-09T12:33:17Z</time>
      </trkpt>
      <trkpt lat="45.34492" lon="6.12475">
        <ele>1389.7231445312</ele>
        <time>2012-08-09T12:33:23Z</time>
      </trkpt>
      <trkpt lat="45.34487" lon="6.12484">
        <ele>1384.9165039062</ele>
        <time>2012-08-09T12:33:29Z</time>
      </trkpt>
      <trkpt lat="45.34486" lon="6.12489">
        <ele>1382.5131835938</ele>
        <time>2012-08-09T12:33:41Z</time>
      </trkpt>
      <trkpt lat="45.34481" lon="6.12496">
        <ele>1391.6457519531</ele>
        <time>2012-08-09T12:33:57Z</time>
      </trkpt>
      <trkpt lat="45.34486" lon="6.1249">
        <ele>1400.7780761719</ele>
        <time>2012-08-09T12:34:08Z</time>
      </trkpt>
      <trkpt lat="45.34504" lon="6.12492">
        <ele>1411.3527832031</ele>
        <time>2012-08-09T12:34:44Z</time>
      </trkpt>
      <trkpt lat="45.34509" lon="6.12494">
        <ele>1413.275390625</ele>
        <time>2012-08-09T12:34:53Z</time>
      </trkpt>
      <trkpt lat="45.34514" lon="6.12497">
        <ele>1409.9106445312</ele>
        <time>2012-08-09T12:34:59Z</time>
      </trkpt>
      <trkpt lat="45.34523" lon="6.125">
        <ele>1409.4301757812</ele>
        <time>2012-08-09T12:35:12Z</time>
      </trkpt>
      <trkpt lat="45.34528" lon="6.12503">
        <ele>1406.5461425781</ele>
        <time>2012-08-09T12:35:21Z</time>
      </trkpt>
      <trkpt lat="45.34534" lon="6.12506">
        <ele>1409.4301757812</ele>
        <time>2012-08-09T12:35:29Z</time>
      </trkpt>
      <trkpt lat="45.34539" lon="6.12509">
        <ele>1410.3913574219</ele>
        <time>2012-08-09T12:35:37Z</time>
      </trkpt>
      <trkpt lat="45.34544" lon="6.12507">
        <ele>1414.7172851562</ele>
        <time>2012-08-09T12:35:46Z</time>
      </trkpt>
      <trkpt lat="45.34549" lon="6.12503">
        <ele>1424.3305664062</ele>
        <time>2012-08-09T12:35:55Z</time>
      </trkpt>
      <trkpt lat="45.34558" lon="6.12501">
        <ele>1433.462890625</ele>
        <time>2012-08-09T12:36:06Z</time>
      </trkpt>
      <trkpt lat="45.34564" lon="6.12505">
        <ele>1433.9436035156</ele>
        <time>2012-08-09T12:36:14Z</time>
      </trkpt>
      <trkpt lat="45.34565" lon="6.12505">
        <ele>1434.4243164062</ele>
        <time>2012-08-09T12:36:15Z</time>
      </trkpt>
      <trkpt lat="45.34572" lon="6.12509">
        <ele>1435.3854980469</ele>
        <time>2012-08-09T12:36:24Z</time>
      </trkpt>
      <trkpt lat="45.34576" lon="6.12514">
        <ele>1436.3471679688</ele>
        <time>2012-08-09T12:36:30Z</time>
      </trkpt>
      <trkpt lat="45.34579" lon="6.12521">
        <ele>1430.5791015625</ele>
        <time>2012-08-09T12:36:35Z</time>
      </trkpt>
      <trkpt lat="45.34587" lon="6.12526">
        <ele>1429.6176757812</ele>
        <time>2012-08-09T12:36:49Z</time>
      </trkpt>
      <trkpt lat="45.3459" lon="6.12531">
        <ele>1426.7338867188</ele>
        <time>2012-08-09T12:36:54Z</time>
      </trkpt>
      <trkpt lat="45.34594" lon="6.12535">
        <ele>1427.6950683594</ele>
        <time>2012-08-09T12:37:00Z</time>
      </trkpt>
      <trkpt lat="45.34592" lon="6.12536">
        <ele>1429.6176757812</ele>
        <time>2012-08-09T12:37:04Z</time>
      </trkpt>
      <trkpt lat="45.34586" lon="6.12535">
        <ele>1434.9050292969</ele>
        <time>2012-08-09T12:37:15Z</time>
      </trkpt>
      <trkpt lat="45.34581" lon="6.12542">
        <ele>1431.5402832031</ele>
        <time>2012-08-09T12:37:21Z</time>
      </trkpt>
      <trkpt lat="45.34577" lon="6.12545">
        <ele>1431.0598144531</ele>
        <time>2012-08-09T12:37:26Z</time>
      </trkpt>
      <trkpt lat="45.34575" lon="6.1255">
        <ele>1429.6176757812</ele>
        <time>2012-08-09T12:37:35Z</time>
      </trkpt>
      <trkpt lat="45.34562" lon="6.1256">
        <ele>1429.6176757812</ele>
        <time>2012-08-09T12:38:03Z</time>
      </trkpt>
      <trkpt lat="45.3456" lon="6.12561">
        <ele>1434.4243164062</ele>
        <time>2012-08-09T12:38:08Z</time>
      </trkpt>
      <trkpt lat="45.34556" lon="6.12563">
        <ele>1436.8276367188</ele>
        <time>2012-08-09T12:38:14Z</time>
      </trkpt>
      <trkpt lat="45.34554" lon="6.12566">
        <ele>1437.3083496094</ele>
        <time>2012-08-09T12:38:18Z</time>
      </trkpt>
      <trkpt lat="45.34552" lon="6.12574">
        <ele>1433.462890625</ele>
        <time>2012-08-09T12:38:28Z</time>
      </trkpt>
      <trkpt lat="45.34547" lon="6.12579">
        <ele>1431.0598144531</ele>
        <time>2012-08-09T12:38:36Z</time>
      </trkpt>
      <trkpt lat="45.3454" lon="6.12593">
        <ele>1440.1923828125</ele>
        <time>2012-08-09T12:38:50Z</time>
      </trkpt>
      <trkpt lat="45.34536" lon="6.12597">
        <ele>1440.1923828125</ele>
        <time>2012-08-09T12:38:58Z</time>
      </trkpt>
      <trkpt lat="45.34534" lon="6.12601">
        <ele>1441.6342773438</ele>
        <time>2012-08-09T12:39:03Z</time>
      </trkpt>
      <trkpt lat="45.34533" lon="6.12605">
        <ele>1442.1149902344</ele>
        <time>2012-08-09T12:39:09Z</time>
      </trkpt>
      <trkpt lat="45.34532" lon="6.1261">
        <ele>1443.5568847656</ele>
        <time>2012-08-09T12:39:14Z</time>
      </trkpt>
      <trkpt lat="45.34528" lon="6.12618">
        <ele>1446.4409179688</ele>
        <time>2012-08-09T12:39:20Z</time>
      </trkpt>
      <trkpt lat="45.34532" lon="6.12624">
        <ele>1444.9987792969</ele>
        <time>2012-08-09T12:39:25Z</time>
      </trkpt>
      <trkpt lat="45.34538" lon="6.12629">
        <ele>1442.595703125</ele>
        <time>2012-08-09T12:39:30Z</time>
      </trkpt>
      <trkpt lat="45.34542" lon="6.12636">
        <ele>1442.1149902344</ele>
        <time>2012-08-09T12:39:34Z</time>
      </trkpt>
      <trkpt lat="45.34543" lon="6.12641">
        <ele>1444.5180664062</ele>
        <time>2012-08-09T12:39:38Z</time>
      </trkpt>
      <trkpt lat="45.3454" lon="6.12641">
        <ele>1450.7666015625</ele>
        <time>2012-08-09T12:39:44Z</time>
      </trkpt>
      <trkpt lat="45.34546" lon="6.12641">
        <ele>1459.4187011719</ele>
        <time>2012-08-09T12:40:04Z</time>
      </trkpt>
      <trkpt lat="45.34549" lon="6.12645">
        <ele>1456.5346679688</ele>
        <time>2012-08-09T12:40:08Z</time>
      </trkpt>
      <trkpt lat="45.34555" lon="6.12645">
        <ele>1454.6120605469</ele>
        <time>2012-08-09T12:40:15Z</time>
      </trkpt>
      <trkpt lat="45.34562" lon="6.12647">
        <ele>1453.6508789062</ele>
        <time>2012-08-09T12:40:21Z</time>
      </trkpt>
      <trkpt lat="45.3457" lon="6.12658">
        <ele>1453.6508789062</ele>
        <time>2012-08-09T12:40:34Z</time>
      </trkpt>
      <trkpt lat="45.34571" lon="6.12661">
        <ele>1452.689453125</ele>
        <time>2012-08-09T12:40:36Z</time>
      </trkpt>
      <trkpt lat="45.34568" lon="6.12667">
        <ele>1454.1315917969</ele>
        <time>2012-08-09T12:40:42Z</time>
      </trkpt>
      <trkpt lat="45.34551" lon="6.12678">
        <ele>1474.7998046875</ele>
        <time>2012-08-09T12:41:11Z</time>
      </trkpt>
      <trkpt lat="45.34549" lon="6.12681">
        <ele>1475.2802734375</ele>
        <time>2012-08-09T12:41:19Z</time>
      </trkpt>
      <trkpt lat="45.34538" lon="6.12699">
        <ele>1474.3190917969</ele>
        <time>2012-08-09T12:41:41Z</time>
      </trkpt>
      <trkpt lat="45.34534" lon="6.12703">
        <ele>1475.7609863281</ele>
        <time>2012-08-09T12:41:57Z</time>
      </trkpt>
      <trkpt lat="45.34528" lon="6.12719">
        <ele>1480.5676269531</ele>
        <time>2012-08-09T12:42:27Z</time>
      </trkpt>
      <trkpt lat="45.34531" lon="6.12721">
        <ele>1485.3742675781</ele>
        <time>2012-08-09T12:42:37Z</time>
      </trkpt>
      <trkpt lat="45.34538" lon="6.12719">
        <ele>1490.6613769531</ele>
        <time>2012-08-09T12:42:49Z</time>
      </trkpt>
      <trkpt lat="45.3455" lon="6.12727">
        <ele>1491.1420898438</ele>
        <time>2012-08-09T12:43:00Z</time>
      </trkpt>
      <trkpt lat="45.34551" lon="6.1273">
        <ele>1492.5842285156</ele>
        <time>2012-08-09T12:43:06Z</time>
      </trkpt>
      <trkpt lat="45.34556" lon="6.1273">
        <ele>1500.2749023438</ele>
        <time>2012-08-09T12:43:18Z</time>
      </trkpt>
      <trkpt lat="45.34562" lon="6.1273">
        <ele>1507.4846191406</ele>
        <time>2012-08-09T12:43:30Z</time>
      </trkpt>
      <trkpt lat="45.34565" lon="6.12729">
        <ele>1511.810546875</ele>
        <time>2012-08-09T12:43:38Z</time>
      </trkpt>
      <trkpt lat="45.34576" lon="6.12733">
        <ele>1510.3684082031</ele>
        <time>2012-08-09T12:43:55Z</time>
      </trkpt>
      <trkpt lat="45.34581" lon="6.12734">
        <ele>1509.8876953125</ele>
        <time>2012-08-09T12:44:02Z</time>
      </trkpt>
      <trkpt lat="45.34586" lon="6.12731">
        <ele>1512.291015625</ele>
        <time>2012-08-09T12:44:08Z</time>
      </trkpt>
      <trkpt lat="45.3459" lon="6.12726">
        <ele>1518.0590820312</ele>
        <time>2012-08-09T12:44:15Z</time>
      </trkpt>
      <trkpt lat="45.34593" lon="6.12725">
        <ele>1519.9816894531</ele>
        <time>2012-08-09T12:44:20Z</time>
      </trkpt>
      <trkpt lat="45.34597" lon="6.12734">
        <ele>1516.6171875</ele>
        <time>2012-08-09T12:44:27Z</time>
      </trkpt>
      <trkpt lat="45.34599" lon="6.1274">
        <ele>1515.1750488281</ele>
        <time>2012-08-09T12:44:31Z</time>
      </trkpt>
      <trkpt lat="45.34597" lon="6.12752">
        <ele>1512.7717285156</ele>
        <time>2012-08-09T12:44:39Z</time>
      </trkpt>
      <trkpt lat="45.34592" lon="6.12759">
        <ele>1509.4072265625</ele>
        <time>2012-08-09T12:44:44Z</time>
      </trkpt>
      <trkpt lat="45.3459" lon="6.1276">
        <ele>1509.4072265625</ele>
        <time>2012-08-09T12:44:47Z</time>
      </trkpt>
      <trkpt lat="45.34583" lon="6.12761">
        <ele>1514.6943359375</ele>
        <time>2012-08-09T12:44:56Z</time>
      </trkpt>
      <trkpt lat="45.34578" lon="6.12763">
        <ele>1518.5397949219</ele>
        <time>2012-08-09T12:45:04Z</time>
      </trkpt>
      <trkpt lat="45.34575" lon="6.1277">
        <ele>1516.6171875</ele>
        <time>2012-08-09T12:45:09Z</time>
      </trkpt>
      <trkpt lat="45.34572" lon="6.12774">
        <ele>1518.0590820312</ele>
        <time>2012-08-09T12:45:15Z</time>
      </trkpt>
      <trkpt lat="45.34566" lon="6.12786">
        <ele>1509.8876953125</ele>
        <time>2012-08-09T12:45:23Z</time>
      </trkpt>
      <trkpt lat="45.34565" lon="6.12792">
        <ele>1508.4458007812</ele>
        <time>2012-08-09T12:45:30Z</time>
      </trkpt>
      <trkpt lat="45.34561" lon="6.12793">
        <ele>1512.7717285156</ele>
        <time>2012-08-09T12:45:37Z</time>
      </trkpt>
      <trkpt lat="45.34558" lon="6.12791">
        <ele>1521.4235839844</ele>
        <time>2012-08-09T12:45:45Z</time>
      </trkpt>
      <trkpt lat="45.34542" lon="6.12808">
        <ele>1522.8657226562</ele>
        <time>2012-08-09T12:46:19Z</time>
      </trkpt>
      <trkpt lat="45.34535" lon="6.12814">
        <ele>1525.7495117188</ele>
        <time>2012-08-09T12:46:27Z</time>
      </trkpt>
      <trkpt lat="45.34528" lon="6.12826">
        <ele>1527.1916503906</ele>
        <time>2012-08-09T12:46:40Z</time>
      </trkpt>
      <trkpt lat="45.34528" lon="6.12831">
        <ele>1526.2302246094</ele>
        <time>2012-08-09T12:46:46Z</time>
      </trkpt>
      <trkpt lat="45.34526" lon="6.12836">
        <ele>1526.2302246094</ele>
        <time>2012-08-09T12:46:53Z</time>
      </trkpt>
      <trkpt lat="45.34524" lon="6.1284">
        <ele>1527.1916503906</ele>
        <time>2012-08-09T12:46:58Z</time>
      </trkpt>
      <trkpt lat="45.34519" lon="6.1284">
        <ele>1528.6335449219</ele>
        <time>2012-08-09T12:47:03Z</time>
      </trkpt>
      <trkpt lat="45.34515" lon="6.12844">
        <ele>1528.6335449219</ele>
        <time>2012-08-09T12:47:08Z</time>
      </trkpt>
      <trkpt lat="45.34513" lon="6.12848">
        <ele>1530.5561523438</ele>
        <time>2012-08-09T12:47:13Z</time>
      </trkpt>
      <trkpt lat="45.3451" lon="6.12854">
        <ele>1532.4790039062</ele>
        <time>2012-08-09T12:47:19Z</time>
      </trkpt>
      <trkpt lat="45.34505" lon="6.12856">
        <ele>1532.4790039062</ele>
        <time>2012-08-09T12:47:23Z</time>
      </trkpt>
      <trkpt lat="45.34504" lon="6.1286">
        <ele>1532.4790039062</ele>
        <time>2012-08-09T12:47:26Z</time>
      </trkpt>
      <trkpt lat="45.34503" lon="6.12865">
        <ele>1531.998046875</ele>
        <time>2012-08-09T12:47:29Z</time>
      </trkpt>
      <trkpt lat="45.34505" lon="6.12868">
        <ele>1532.9594726562</ele>
        <time>2012-08-09T12:47:31Z</time>
      </trkpt>
      <trkpt lat="45.34507" lon="6.12873">
        <ele>1534.4016113281</ele>
        <time>2012-08-09T12:47:34Z</time>
      </trkpt>
      <trkpt lat="45.34501" lon="6.12884">
        <ele>1537.2854003906</ele>
        <time>2012-08-09T12:47:41Z</time>
      </trkpt>
      <trkpt lat="45.34498" lon="6.12886">
        <ele>1536.32421875</ele>
        <time>2012-08-09T12:47:43Z</time>
      </trkpt>
      <trkpt lat="45.3449" lon="6.12892">
        <ele>1537.2854003906</ele>
        <time>2012-08-09T12:47:51Z</time>
      </trkpt>
      <trkpt lat="45.34488" lon="6.12899">
        <ele>1538.7275390625</ele>
        <time>2012-08-09T12:47:59Z</time>
      </trkpt>
      <trkpt lat="45.34481" lon="6.12906">
        <ele>1539.2080078125</ele>
        <time>2012-08-09T12:48:07Z</time>
      </trkpt>
      <trkpt lat="45.34474" lon="6.12911">
        <ele>1538.7275390625</ele>
        <time>2012-08-09T12:48:17Z</time>
      </trkpt>
      <trkpt lat="45.3447" lon="6.12915">
        <ele>1541.611328125</ele>
        <time>2012-08-09T12:48:22Z</time>
      </trkpt>
      <trkpt lat="45.34467" lon="6.12919">
        <ele>1543.5339355469</ele>
        <time>2012-08-09T12:48:26Z</time>
      </trkpt>
      <trkpt lat="45.34459" lon="6.12928">
        <ele>1546.8984375</ele>
        <time>2012-08-09T12:48:30Z</time>
      </trkpt>
      <trkpt lat="45.34455" lon="6.12935">
        <ele>1545.9372558594</ele>
        <time>2012-08-09T12:48:36Z</time>
      </trkpt>
      <trkpt lat="45.34452" lon="6.12942">
        <ele>1545.4565429688</ele>
        <time>2012-08-09T12:48:42Z</time>
      </trkpt>
      <trkpt lat="45.34448" lon="6.12949">
        <ele>1546.41796875</ele>
        <time>2012-08-09T12:48:47Z</time>
      </trkpt>
      <trkpt lat="45.34443" lon="6.12956">
        <ele>1547.8598632812</ele>
        <time>2012-08-09T12:48:54Z</time>
      </trkpt>
      <trkpt lat="45.34442" lon="6.1296">
        <ele>1547.3791503906</ele>
        <time>2012-08-09T12:49:00Z</time>
      </trkpt>
      <trkpt lat="45.34439" lon="6.12966">
        <ele>1547.3791503906</ele>
        <time>2012-08-09T12:49:05Z</time>
      </trkpt>
      <trkpt lat="45.34443" lon="6.12973">
        <ele>1546.8984375</ele>
        <time>2012-08-09T12:49:09Z</time>
      </trkpt>
      <trkpt lat="45.34445" lon="6.12977">
        <ele>1546.41796875</ele>
        <time>2012-08-09T12:49:11Z</time>
      </trkpt>
      <trkpt lat="45.34444" lon="6.12985">
        <ele>1547.8598632812</ele>
        <time>2012-08-09T12:49:18Z</time>
      </trkpt>
      <trkpt lat="45.34443" lon="6.1299">
        <ele>1547.8598632812</ele>
        <time>2012-08-09T12:49:23Z</time>
      </trkpt>
      <trkpt lat="45.34444" lon="6.12997">
        <ele>1547.8598632812</ele>
        <time>2012-08-09T12:49:29Z</time>
      </trkpt>
      <trkpt lat="45.34448" lon="6.13007">
        <ele>1549.7827148438</ele>
        <time>2012-08-09T12:49:35Z</time>
      </trkpt>
      <trkpt lat="45.34447" lon="6.13019">
        <ele>1550.2634277344</ele>
        <time>2012-08-09T12:49:42Z</time>
      </trkpt>
      <trkpt lat="45.34449" lon="6.13028">
        <ele>1553.1472167969</ele>
        <time>2012-08-09T12:49:48Z</time>
      </trkpt>
      <trkpt lat="45.3445" lon="6.13032">
        <ele>1556.0310058594</ele>
        <time>2012-08-09T12:49:51Z</time>
      </trkpt>
      <trkpt lat="45.34451" lon="6.13037">
        <ele>1563.7214355469</ele>
        <time>2012-08-09T12:49:58Z</time>
      </trkpt>
      <trkpt lat="45.34446" lon="6.1304">
        <ele>1569.4897460938</ele>
        <time>2012-08-09T12:50:06Z</time>
      </trkpt>
      <trkpt lat="45.34445" lon="6.13042">
        <ele>1578.6220703125</ele>
        <time>2012-08-09T12:50:12Z</time>
      </trkpt>
      <trkpt lat="45.3444" lon="6.13041">
        <ele>1587.7546386719</ele>
        <time>2012-08-09T12:50:16Z</time>
      </trkpt>
      <trkpt lat="45.34443" lon="6.13048">
        <ele>1592.5612792969</ele>
        <time>2012-08-09T12:50:21Z</time>
      </trkpt>
      <trkpt lat="45.34441" lon="6.1305">
        <ele>1593.5224609375</ele>
        <time>2012-08-09T12:50:23Z</time>
      </trkpt>
      <trkpt lat="45.34438" lon="6.13056">
        <ele>1597.8486328125</ele>
        <time>2012-08-09T12:50:30Z</time>
      </trkpt>
      <trkpt lat="45.34433" lon="6.13061">
        <ele>1601.6938476562</ele>
        <time>2012-08-09T12:50:38Z</time>
      </trkpt>
      <trkpt lat="45.34435" lon="6.13074">
        <ele>1600.732421875</ele>
        <time>2012-08-09T12:50:49Z</time>
      </trkpt>
      <trkpt lat="45.34431" lon="6.13081">
        <ele>1593.5224609375</ele>
        <time>2012-08-09T12:50:55Z</time>
      </trkpt>
      <trkpt lat="45.34418" lon="6.1311">
        <ele>1575.2573242188</ele>
        <time>2012-08-09T12:51:21Z</time>
      </trkpt>
      <trkpt lat="45.34415" lon="6.13112">
        <ele>1575.7380371094</ele>
        <time>2012-08-09T12:51:25Z</time>
      </trkpt>
      <trkpt lat="45.34414" lon="6.13114">
        <ele>1573.8154296875</ele>
        <time>2012-08-09T12:51:28Z</time>
      </trkpt>
      <trkpt lat="45.34411" lon="6.13121">
        <ele>1574.7768554688</ele>
        <time>2012-08-09T12:51:34Z</time>
      </trkpt>
      <trkpt lat="45.3441" lon="6.13125">
        <ele>1576.21875</ele>
        <time>2012-08-09T12:51:40Z</time>
      </trkpt>
      <trkpt lat="45.34408" lon="6.13129">
        <ele>1579.1025390625</ele>
        <time>2012-08-09T12:51:44Z</time>
      </trkpt>
      <trkpt lat="45.34407" lon="6.13131">
        <ele>1581.0256347656</ele>
        <time>2012-08-09T12:51:46Z</time>
      </trkpt>
      <trkpt lat="45.344" lon="6.13142">
        <ele>1582.9479980469</ele>
        <time>2012-08-09T12:51:55Z</time>
      </trkpt>
      <trkpt lat="45.34401" lon="6.13147">
        <ele>1581.9868164062</ele>
        <time>2012-08-09T12:51:58Z</time>
      </trkpt>
      <trkpt lat="45.34398" lon="6.13153">
        <ele>1580.0642089844</ele>
        <time>2012-08-09T12:52:02Z</time>
      </trkpt>
      <trkpt lat="45.3439" lon="6.13162">
        <ele>1578.1413574219</ele>
        <time>2012-08-09T12:52:08Z</time>
      </trkpt>
      <trkpt lat="45.34389" lon="6.13164">
        <ele>1578.6220703125</ele>
        <time>2012-08-09T12:52:11Z</time>
      </trkpt>
      <trkpt lat="45.34384" lon="6.13175">
        <ele>1578.6220703125</ele>
        <time>2012-08-09T12:52:18Z</time>
      </trkpt>
      <trkpt lat="45.34382" lon="6.13179">
        <ele>1580.544921875</ele>
        <time>2012-08-09T12:52:23Z</time>
      </trkpt>
      <trkpt lat="45.34382" lon="6.13179">
        <ele>1581.5061035156</ele>
        <time>2012-08-09T12:52:29Z</time>
      </trkpt>
      <trkpt lat="45.3438" lon="6.13177">
        <ele>1585.83203125</ele>
        <time>2012-08-09T12:52:45Z</time>
      </trkpt>
      <trkpt lat="45.34372" lon="6.13179">
        <ele>1585.3513183594</ele>
        <time>2012-08-09T12:53:03Z</time>
      </trkpt>
      <trkpt lat="45.34372" lon="6.13184">
        <ele>1584.8708496094</ele>
        <time>2012-08-09T12:53:07Z</time>
      </trkpt>
      <trkpt lat="45.34369" lon="6.13189">
        <ele>1585.3513183594</ele>
        <time>2012-08-09T12:53:13Z</time>
      </trkpt>
      <trkpt lat="45.34369" lon="6.13189">
        <ele>1585.3513183594</ele>
        <time>2012-08-09T12:53:21Z</time>
      </trkpt>
      <trkpt lat="45.34374" lon="6.13185">
        <ele>1582.9479980469</ele>
        <time>2012-08-09T12:53:51Z</time>
      </trkpt>
      <trkpt lat="45.34376" lon="6.1318">
        <ele>1582.9479980469</ele>
        <time>2012-08-09T12:53:55Z</time>
      </trkpt>
      <trkpt lat="45.3438" lon="6.13181">
        <ele>1583.4287109375</ele>
        <time>2012-08-09T12:54:01Z</time>
      </trkpt>
      <trkpt lat="45.34381" lon="6.13178">
        <ele>1583.9094238281</ele>
        <time>2012-08-09T12:54:18Z</time>
      </trkpt>
      <trkpt lat="45.34385" lon="6.13177">
        <ele>1584.8708496094</ele>
        <time>2012-08-09T12:54:25Z</time>
      </trkpt>
      <trkpt lat="45.3439" lon="6.13176">
        <ele>1585.3513183594</ele>
        <time>2012-08-09T12:54:30Z</time>
      </trkpt>
      <trkpt lat="45.34393" lon="6.13174">
        <ele>1584.8708496094</ele>
        <time>2012-08-09T12:54:33Z</time>
      </trkpt>
      <trkpt lat="45.34399" lon="6.13169">
        <ele>1585.83203125</ele>
        <time>2012-08-09T12:54:41Z</time>
      </trkpt>
      <trkpt lat="45.34403" lon="6.13165">
        <ele>1587.2739257812</ele>
        <time>2012-08-09T12:54:47Z</time>
      </trkpt>
      <trkpt lat="45.34408" lon="6.1316">
        <ele>1588.2353515625</ele>
        <time>2012-08-09T12:54:53Z</time>
      </trkpt>
      <trkpt lat="45.34411" lon="6.1316">
        <ele>1589.1965332031</ele>
        <time>2012-08-09T12:54:57Z</time>
      </trkpt>
      <trkpt lat="45.34415" lon="6.13159">
        <ele>1590.6384277344</ele>
        <time>2012-08-09T12:55:02Z</time>
      </trkpt>
      <trkpt lat="45.34421" lon="6.13158">
        <ele>1592.0805664062</ele>
        <time>2012-08-09T12:55:07Z</time>
      </trkpt>
      <trkpt lat="45.34426" lon="6.13156">
        <ele>1591.5998535156</ele>
        <time>2012-08-09T12:55:14Z</time>
      </trkpt>
      <trkpt lat="45.3443" lon="6.13153">
        <ele>1589.1965332031</ele>
        <time>2012-08-09T12:55:21Z</time>
      </trkpt>
      <trkpt lat="45.34432" lon="6.1315">
        <ele>1588.2353515625</ele>
        <time>2012-08-09T12:55:25Z</time>
      </trkpt>
      <trkpt lat="45.34428" lon="6.13158">
        <ele>1591.119140625</ele>
        <time>2012-08-09T12:55:37Z</time>
      </trkpt>
      <trkpt lat="45.34428" lon="6.13161">
        <ele>1591.5998535156</ele>
        <time>2012-08-09T12:55:42Z</time>
      </trkpt>
      <trkpt lat="45.34431" lon="6.13165">
        <ele>1592.0805664062</ele>
        <time>2012-08-09T12:55:46Z</time>
      </trkpt>
      <trkpt lat="45.34433" lon="6.13168">
        <ele>1592.0805664062</ele>
        <time>2012-08-09T12:55:51Z</time>
      </trkpt>
      <trkpt lat="45.34431" lon="6.13171">
        <ele>1593.5224609375</ele>
        <time>2012-08-09T12:55:56Z</time>
      </trkpt>
      <trkpt lat="45.34431" lon="6.13176">
        <ele>1594.0031738281</ele>
        <time>2012-08-09T12:56:02Z</time>
      </trkpt>
      <trkpt lat="45.34431" lon="6.13183">
        <ele>1594.9643554688</ele>
        <time>2012-08-09T12:56:09Z</time>
      </trkpt>
      <trkpt lat="45.34429" lon="6.13185">
        <ele>1596.8872070312</ele>
        <time>2012-08-09T12:56:13Z</time>
      </trkpt>
      <trkpt lat="45.34429" lon="6.13189">
        <ele>1596.8872070312</ele>
        <time>2012-08-09T12:56:18Z</time>
      </trkpt>
      <trkpt lat="45.3443" lon="6.13193">
        <ele>1597.3679199219</ele>
        <time>2012-08-09T12:56:23Z</time>
      </trkpt>
      <trkpt lat="45.34436" lon="6.13198">
        <ele>1597.8486328125</ele>
        <time>2012-08-09T12:56:33Z</time>
      </trkpt>
      <trkpt lat="45.3444" lon="6.13199">
        <ele>1597.3679199219</ele>
        <time>2012-08-09T12:56:39Z</time>
      </trkpt>
      <trkpt lat="45.34446" lon="6.13197">
        <ele>1601.6938476562</ele>
        <time>2012-08-09T12:56:50Z</time>
      </trkpt>
      <trkpt lat="45.34452" lon="6.13197">
        <ele>1603.6164550781</ele>
        <time>2012-08-09T12:57:01Z</time>
      </trkpt>
      <trkpt lat="45.34459" lon="6.13204">
        <ele>1603.1357421875</ele>
        <time>2012-08-09T12:57:09Z</time>
      </trkpt>
      <trkpt lat="45.34465" lon="6.1321">
        <ele>1601.6938476562</ele>
        <time>2012-08-09T12:57:16Z</time>
      </trkpt>
      <trkpt lat="45.34469" lon="6.13213">
        <ele>1601.6938476562</ele>
        <time>2012-08-09T12:57:21Z</time>
      </trkpt>
      <trkpt lat="45.34472" lon="6.13217">
        <ele>1600.251953125</ele>
        <time>2012-08-09T12:57:27Z</time>
      </trkpt>
      <trkpt lat="45.3448" lon="6.13224">
        <ele>1600.732421875</ele>
        <time>2012-08-09T12:57:34Z</time>
      </trkpt>
      <trkpt lat="45.34485" lon="6.13227">
        <ele>1603.6164550781</ele>
        <time>2012-08-09T12:57:39Z</time>
      </trkpt>
      <trkpt lat="45.34492" lon="6.1323">
        <ele>1606.5002441406</ele>
        <time>2012-08-09T12:57:45Z</time>
      </trkpt>
      <trkpt lat="45.34502" lon="6.13235">
        <ele>1612.2683105469</ele>
        <time>2012-08-09T12:58:00Z</time>
      </trkpt>
      <trkpt lat="45.34512" lon="6.13237">
        <ele>1616.1135253906</ele>
        <time>2012-08-09T12:58:13Z</time>
      </trkpt>
      <trkpt lat="45.34515" lon="6.13237">
        <ele>1615.6330566406</ele>
        <time>2012-08-09T12:58:15Z</time>
      </trkpt>
      <trkpt lat="45.34519" lon="6.13238">
        <ele>1615.6330566406</ele>
        <time>2012-08-09T12:58:20Z</time>
      </trkpt>
      <trkpt lat="45.34525" lon="6.13243">
        <ele>1616.5942382812</ele>
        <time>2012-08-09T12:58:28Z</time>
      </trkpt>
      <trkpt lat="45.34538" lon="6.13257">
        <ele>1618.0361328125</ele>
        <time>2012-08-09T12:58:51Z</time>
      </trkpt>
      <trkpt lat="45.34583" lon="6.13265">
        <ele>1632.4560546875</ele>
        <time>2012-08-09T12:59:53Z</time>
      </trkpt>
      <trkpt lat="45.34596" lon="6.13269">
        <ele>1633.8979492188</ele>
        <time>2012-08-09T13:00:06Z</time>
      </trkpt>
      <trkpt lat="45.34636" lon="6.13282">
        <ele>1646.3952636719</ele>
        <time>2012-08-09T13:00:55Z</time>
      </trkpt>
      <trkpt lat="45.34644" lon="6.13286">
        <ele>1642.5498046875</ele>
        <time>2012-08-09T13:01:03Z</time>
      </trkpt>
      <trkpt lat="45.34654" lon="6.13288">
        <ele>1641.1076660156</ele>
        <time>2012-08-09T13:01:10Z</time>
      </trkpt>
      <trkpt lat="45.34723" lon="6.13286">
        <ele>1662.7375488281</ele>
        <time>2012-08-09T13:02:34Z</time>
      </trkpt>
      <trkpt lat="45.34731" lon="6.13278">
        <ele>1666.5827636719</ele>
        <time>2012-08-09T13:02:44Z</time>
      </trkpt>
      <trkpt lat="45.34737" lon="6.13277">
        <ele>1665.6215820312</ele>
        <time>2012-08-09T13:02:49Z</time>
      </trkpt>
      <trkpt lat="45.34762" lon="6.13277">
        <ele>1662.2568359375</ele>
        <time>2012-08-09T13:03:14Z</time>
      </trkpt>
      <trkpt lat="45.34765" lon="6.13275">
        <ele>1661.7763671875</ele>
        <time>2012-08-09T13:03:18Z</time>
      </trkpt>
      <trkpt lat="45.34772" lon="6.13266">
        <ele>1664.66015625</ele>
        <time>2012-08-09T13:03:25Z</time>
      </trkpt>
      <trkpt lat="45.3478" lon="6.13262">
        <ele>1667.0634765625</ele>
        <time>2012-08-09T13:03:33Z</time>
      </trkpt>
      <trkpt lat="45.3479" lon="6.13258">
        <ele>1667.5439453125</ele>
        <time>2012-08-09T13:03:43Z</time>
      </trkpt>
      <trkpt lat="45.34792" lon="6.13251">
        <ele>1669.466796875</ele>
        <time>2012-08-09T13:03:47Z</time>
      </trkpt>
      <trkpt lat="45.34793" lon="6.13251">
        <ele>1669.466796875</ele>
        <time>2012-08-09T13:03:48Z</time>
      </trkpt>
      <trkpt lat="45.34797" lon="6.13245">
        <ele>1670.4279785156</ele>
        <time>2012-08-09T13:03:52Z</time>
      </trkpt>
      <trkpt lat="45.34802" lon="6.13243">
        <ele>1671.3891601562</ele>
        <time>2012-08-09T13:03:57Z</time>
      </trkpt>
      <trkpt lat="45.34805" lon="6.13239">
        <ele>1674.2731933594</ele>
        <time>2012-08-09T13:04:01Z</time>
      </trkpt>
      <trkpt lat="45.34813" lon="6.13237">
        <ele>1673.7924804688</ele>
        <time>2012-08-09T13:04:07Z</time>
      </trkpt>
      <trkpt lat="45.34818" lon="6.13238">
        <ele>1671.8698730469</ele>
        <time>2012-08-09T13:04:11Z</time>
      </trkpt>
      <trkpt lat="45.34826" lon="6.13241">
        <ele>1670.9086914062</ele>
        <time>2012-08-09T13:04:16Z</time>
      </trkpt>
      <trkpt lat="45.34834" lon="6.13243">
        <ele>1670.4279785156</ele>
        <time>2012-08-09T13:04:21Z</time>
      </trkpt>
      <trkpt lat="45.34834" lon="6.13243">
        <ele>1669.947265625</ele>
        <time>2012-08-09T13:04:22Z</time>
      </trkpt>
      <trkpt lat="45.34836" lon="6.13242">
        <ele>1669.947265625</ele>
        <time>2012-08-09T13:04:24Z</time>
      </trkpt>
      <trkpt lat="45.34842" lon="6.13242">
        <ele>1668.9860839844</ele>
        <time>2012-08-09T13:04:28Z</time>
      </trkpt>
      <trkpt lat="45.3485" lon="6.13238">
        <ele>1667.0634765625</ele>
        <time>2012-08-09T13:04:35Z</time>
      </trkpt>
      <trkpt lat="45.34857" lon="6.13234">
        <ele>1666.1020507812</ele>
        <time>2012-08-09T13:04:41Z</time>
      </trkpt>
      <trkpt lat="45.34862" lon="6.13228">
        <ele>1667.0634765625</ele>
        <time>2012-08-09T13:04:46Z</time>
      </trkpt>
      <trkpt lat="45.34869" lon="6.13222">
        <ele>1666.1020507812</ele>
        <time>2012-08-09T13:04:53Z</time>
      </trkpt>
      <trkpt lat="45.34874" lon="6.13218">
        <ele>1665.1408691406</ele>
        <time>2012-08-09T13:04:58Z</time>
      </trkpt>
      <trkpt lat="45.34876" lon="6.13213">
        <ele>1666.5827636719</ele>
        <time>2012-08-09T13:05:02Z</time>
      </trkpt>
      <trkpt lat="45.34877" lon="6.13211">
        <ele>1667.0634765625</ele>
        <time>2012-08-09T13:05:03Z</time>
      </trkpt>
      <trkpt lat="45.34882" lon="6.13208">
        <ele>1668.0246582031</ele>
        <time>2012-08-09T13:05:06Z</time>
      </trkpt>
      <trkpt lat="45.34888" lon="6.13204">
        <ele>1669.466796875</ele>
        <time>2012-08-09T13:05:12Z</time>
      </trkpt>
      <trkpt lat="45.34891" lon="6.13202">
        <ele>1669.947265625</ele>
        <time>2012-08-09T13:05:15Z</time>
      </trkpt>
      <trkpt lat="45.349" lon="6.13199">
        <ele>1669.466796875</ele>
        <time>2012-08-09T13:05:23Z</time>
      </trkpt>
      <trkpt lat="45.34907" lon="6.13198">
        <ele>1668.0246582031</ele>
        <time>2012-08-09T13:05:29Z</time>
      </trkpt>
      <trkpt lat="45.34912" lon="6.13197">
        <ele>1666.5827636719</ele>
        <time>2012-08-09T13:05:33Z</time>
      </trkpt>
      <trkpt lat="45.34914" lon="6.13194">
        <ele>1667.5439453125</ele>
        <time>2012-08-09T13:05:37Z</time>
      </trkpt>
      <trkpt lat="45.34917" lon="6.1319">
        <ele>1668.9860839844</ele>
        <time>2012-08-09T13:05:42Z</time>
      </trkpt>
      <trkpt lat="45.34921" lon="6.13187">
        <ele>1670.4279785156</ele>
        <time>2012-08-09T13:05:48Z</time>
      </trkpt>
      <trkpt lat="45.34928" lon="6.13188">
        <ele>1671.3891601562</ele>
        <time>2012-08-09T13:05:53Z</time>
      </trkpt>
      <trkpt lat="45.34933" lon="6.13188">
        <ele>1673.3120117188</ele>
        <time>2012-08-09T13:05:58Z</time>
      </trkpt>
      <trkpt lat="45.34941" lon="6.1319">
        <ele>1675.234375</ele>
        <time>2012-08-09T13:06:06Z</time>
      </trkpt>
      <trkpt lat="45.34946" lon="6.13193">
        <ele>1677.6379394531</ele>
        <time>2012-08-09T13:06:12Z</time>
      </trkpt>
      <trkpt lat="45.34953" lon="6.13196">
        <ele>1680.0412597656</ele>
        <time>2012-08-09T13:06:23Z</time>
      </trkpt>
      <trkpt lat="45.34958" lon="6.13198">
        <ele>1681.4831542969</ele>
        <time>2012-08-09T13:06:28Z</time>
      </trkpt>
      <trkpt lat="45.34964" lon="6.13201">
        <ele>1683.4057617188</ele>
        <time>2012-08-09T13:06:36Z</time>
      </trkpt>
      <trkpt lat="45.34969" lon="6.13203">
        <ele>1683.8864746094</ele>
        <time>2012-08-09T13:06:42Z</time>
      </trkpt>
      <trkpt lat="45.34972" lon="6.13204">
        <ele>1684.3671875</ele>
        <time>2012-08-09T13:06:48Z</time>
      </trkpt>
      <trkpt lat="45.34977" lon="6.13206">
        <ele>1684.3671875</ele>
        <time>2012-08-09T13:06:57Z</time>
      </trkpt>
      <trkpt lat="45.34981" lon="6.13207">
        <ele>1687.7316894531</ele>
        <time>2012-08-09T13:07:10Z</time>
      </trkpt>
      <trkpt lat="45.34985" lon="6.13208">
        <ele>1689.1735839844</ele>
        <time>2012-08-09T13:07:15Z</time>
      </trkpt>
      <trkpt lat="45.35021" lon="6.13197">
        <ele>1704.5546875</ele>
        <time>2012-08-09T13:08:22Z</time>
      </trkpt>
      <trkpt lat="45.35029" lon="6.13186">
        <ele>1704.07421875</ele>
        <time>2012-08-09T13:08:37Z</time>
      </trkpt>
      <trkpt lat="45.35031" lon="6.13182">
        <ele>1704.5546875</ele>
        <time>2012-08-09T13:08:42Z</time>
      </trkpt>
      <trkpt lat="45.35035" lon="6.13179">
        <ele>1705.9965820312</ele>
        <time>2012-08-09T13:08:48Z</time>
      </trkpt>
      <trkpt lat="45.35038" lon="6.13177">
        <ele>1709.3615722656</ele>
        <time>2012-08-09T13:08:53Z</time>
      </trkpt>
      <trkpt lat="45.35039" lon="6.13178">
        <ele>1709.8420410156</ele>
        <time>2012-08-09T13:08:55Z</time>
      </trkpt>
      <trkpt lat="45.35046" lon="6.1318">
        <ele>1709.8420410156</ele>
        <time>2012-08-09T13:09:03Z</time>
      </trkpt>
      <trkpt lat="45.3505" lon="6.1318">
        <ele>1711.2841796875</ele>
        <time>2012-08-09T13:09:08Z</time>
      </trkpt>
      <trkpt lat="45.35057" lon="6.13178">
        <ele>1712.2453613281</ele>
        <time>2012-08-09T13:09:17Z</time>
      </trkpt>
      <trkpt lat="45.35064" lon="6.13173">
        <ele>1711.2841796875</ele>
        <time>2012-08-09T13:09:24Z</time>
      </trkpt>
      <trkpt lat="45.35069" lon="6.13165">
        <ele>1711.2841796875</ele>
        <time>2012-08-09T13:09:29Z</time>
      </trkpt>
      <trkpt lat="45.35073" lon="6.13162">
        <ele>1709.3615722656</ele>
        <time>2012-08-09T13:09:34Z</time>
      </trkpt>
      <trkpt lat="45.3508" lon="6.13158">
        <ele>1708.880859375</ele>
        <time>2012-08-09T13:09:39Z</time>
      </trkpt>
      <trkpt lat="45.35089" lon="6.13155">
        <ele>1706.9580078125</ele>
        <time>2012-08-09T13:09:44Z</time>
      </trkpt>
      <trkpt lat="45.35094" lon="6.13148">
        <ele>1710.8034667969</ele>
        <time>2012-08-09T13:09:50Z</time>
      </trkpt>
      <trkpt lat="45.35097" lon="6.13146">
        <ele>1712.7260742188</ele>
        <time>2012-08-09T13:09:53Z</time>
      </trkpt>
      <trkpt lat="45.351" lon="6.13144">
        <ele>1712.2453613281</ele>
        <time>2012-08-09T13:09:56Z</time>
      </trkpt>
      <trkpt lat="45.35109" lon="6.1314">
        <ele>1716.0905761719</ele>
        <time>2012-08-09T13:10:03Z</time>
      </trkpt>
      <trkpt lat="45.35116" lon="6.13138">
        <ele>1718.974609375</ele>
        <time>2012-08-09T13:10:08Z</time>
      </trkpt>
      <trkpt lat="45.35121" lon="6.13139">
        <ele>1715.6101074219</ele>
        <time>2012-08-09T13:10:14Z</time>
      </trkpt>
      <trkpt lat="45.35123" lon="6.13136">
        <ele>1717.0520019531</ele>
        <time>2012-08-09T13:10:18Z</time>
      </trkpt>
      <trkpt lat="45.35129" lon="6.13137">
        <ele>1718.4938964844</ele>
        <time>2012-08-09T13:10:23Z</time>
      </trkpt>
      <trkpt lat="45.35133" lon="6.13135">
        <ele>1720.4165039062</ele>
        <time>2012-08-09T13:10:28Z</time>
      </trkpt>
      <trkpt lat="45.35137" lon="6.13131">
        <ele>1720.8972167969</ele>
        <time>2012-08-09T13:10:33Z</time>
      </trkpt>
      <trkpt lat="45.3514" lon="6.13129">
        <ele>1723.7810058594</ele>
        <time>2012-08-09T13:10:37Z</time>
      </trkpt>
      <trkpt lat="45.35144" lon="6.13124">
        <ele>1724.7426757812</ele>
        <time>2012-08-09T13:10:43Z</time>
      </trkpt>
      <trkpt lat="45.35147" lon="6.13123">
        <ele>1725.2231445312</ele>
        <time>2012-08-09T13:10:45Z</time>
      </trkpt>
      <trkpt lat="45.3515" lon="6.13122">
        <ele>1726.1845703125</ele>
        <time>2012-08-09T13:10:48Z</time>
      </trkpt>
      <trkpt lat="45.35155" lon="6.1312">
        <ele>1725.7038574219</ele>
        <time>2012-08-09T13:10:55Z</time>
      </trkpt>
      <trkpt lat="45.3516" lon="6.13119">
        <ele>1725.7038574219</ele>
        <time>2012-08-09T13:11:00Z</time>
      </trkpt>
      <trkpt lat="45.35165" lon="6.13117">
        <ele>1725.2231445312</ele>
        <time>2012-08-09T13:11:04Z</time>
      </trkpt>
      <trkpt lat="45.3517" lon="6.13114">
        <ele>1728.1071777344</ele>
        <time>2012-08-09T13:11:11Z</time>
      </trkpt>
      <trkpt lat="45.35171" lon="6.13112">
        <ele>1728.587890625</ele>
        <time>2012-08-09T13:11:13Z</time>
      </trkpt>
      <trkpt lat="45.35177" lon="6.1311">
        <ele>1730.0297851562</ele>
        <time>2012-08-09T13:11:20Z</time>
      </trkpt>
      <trkpt lat="45.35182" lon="6.13108">
        <ele>1729.5490722656</ele>
        <time>2012-08-09T13:11:25Z</time>
      </trkpt>
      <trkpt lat="45.35188" lon="6.13106">
        <ele>1727.1459960938</ele>
        <time>2012-08-09T13:11:31Z</time>
      </trkpt>
      <trkpt lat="45.35194" lon="6.13104">
        <ele>1727.1459960938</ele>
        <time>2012-08-09T13:11:36Z</time>
      </trkpt>
      <trkpt lat="45.35198" lon="6.13103">
        <ele>1730.5104980469</ele>
        <time>2012-08-09T13:11:44Z</time>
      </trkpt>
      <trkpt lat="45.35201" lon="6.13099">
        <ele>1730.0297851562</ele>
        <time>2012-08-09T13:11:52Z</time>
      </trkpt>
      <trkpt lat="45.35207" lon="6.13094">
        <ele>1731.9523925781</ele>
        <time>2012-08-09T13:11:57Z</time>
      </trkpt>
      <trkpt lat="45.35213" lon="6.13091">
        <ele>1730.5104980469</ele>
        <time>2012-08-09T13:12:04Z</time>
      </trkpt>
      <trkpt lat="45.35218" lon="6.13085">
        <ele>1731.9523925781</ele>
        <time>2012-08-09T13:12:11Z</time>
      </trkpt>
      <trkpt lat="45.35221" lon="6.13081">
        <ele>1731.4716796875</ele>
        <time>2012-08-09T13:12:15Z</time>
      </trkpt>
      <trkpt lat="45.35223" lon="6.13079">
        <ele>1730.5104980469</ele>
        <time>2012-08-09T13:12:17Z</time>
      </trkpt>
      <trkpt lat="45.35232" lon="6.13071">
        <ele>1730.5104980469</ele>
        <time>2012-08-09T13:12:26Z</time>
      </trkpt>
      <trkpt lat="45.35234" lon="6.13068">
        <ele>1730.0297851562</ele>
        <time>2012-08-09T13:12:29Z</time>
      </trkpt>
      <trkpt lat="45.35244" lon="6.13064">
        <ele>1731.4716796875</ele>
        <time>2012-08-09T13:12:38Z</time>
      </trkpt>
      <trkpt lat="45.35244" lon="6.13063">
        <ele>1731.4716796875</ele>
        <time>2012-08-09T13:12:39Z</time>
      </trkpt>
      <trkpt lat="45.35249" lon="6.1306">
        <ele>1732.9135742188</ele>
        <time>2012-08-09T13:12:45Z</time>
      </trkpt>
      <trkpt lat="45.35253" lon="6.13053">
        <ele>1734.3557128906</ele>
        <time>2012-08-09T13:12:51Z</time>
      </trkpt>
      <trkpt lat="45.35261" lon="6.1305">
        <ele>1734.3557128906</ele>
        <time>2012-08-09T13:12:58Z</time>
      </trkpt>
      <trkpt lat="45.3527" lon="6.13046">
        <ele>1733.875</ele>
        <time>2012-08-09T13:13:06Z</time>
      </trkpt>
      <trkpt lat="45.35277" lon="6.13037">
        <ele>1735.3168945312</ele>
        <time>2012-08-09T13:13:13Z</time>
      </trkpt>
      <trkpt lat="45.35279" lon="6.13035">
        <ele>1736.7587890625</ele>
        <time>2012-08-09T13:13:16Z</time>
      </trkpt>
      <trkpt lat="45.35285" lon="6.13033">
        <ele>1739.162109375</ele>
        <time>2012-08-09T13:13:22Z</time>
      </trkpt>
      <trkpt lat="45.35292" lon="6.13033">
        <ele>1740.1237792969</ele>
        <time>2012-08-09T13:13:27Z</time>
      </trkpt>
      <trkpt lat="45.35298" lon="6.13031">
        <ele>1740.1237792969</ele>
        <time>2012-08-09T13:13:33Z</time>
      </trkpt>
      <trkpt lat="45.353" lon="6.1303">
        <ele>1738.2009277344</ele>
        <time>2012-08-09T13:13:36Z</time>
      </trkpt>
      <trkpt lat="45.35307" lon="6.13027">
        <ele>1740.1237792969</ele>
        <time>2012-08-09T13:13:43Z</time>
      </trkpt>
      <trkpt lat="45.35308" lon="6.13027">
        <ele>1740.1237792969</ele>
        <time>2012-08-09T13:13:44Z</time>
      </trkpt>
      <trkpt lat="45.35314" lon="6.13028">
        <ele>1742.5270996094</ele>
        <time>2012-08-09T13:13:49Z</time>
      </trkpt>
      <trkpt lat="45.35319" lon="6.13027">
        <ele>1743.9689941406</ele>
        <time>2012-08-09T13:13:54Z</time>
      </trkpt>
      <trkpt lat="45.35321" lon="6.13025">
        <ele>1744.9301757812</ele>
        <time>2012-08-09T13:13:56Z</time>
      </trkpt>
      <trkpt lat="45.35321" lon="6.13024">
        <ele>1746.3723144531</ele>
        <time>2012-08-09T13:13:58Z</time>
      </trkpt>
      <trkpt lat="45.35328" lon="6.13024">
        <ele>1747.3334960938</ele>
        <time>2012-08-09T13:14:03Z</time>
      </trkpt>
      <trkpt lat="45.35339" lon="6.13025">
        <ele>1750.2175292969</ele>
        <time>2012-08-09T13:14:11Z</time>
      </trkpt>
      <trkpt lat="45.35344" lon="6.13025">
        <ele>1750.2175292969</ele>
        <time>2012-08-09T13:14:15Z</time>
      </trkpt>
      <trkpt lat="45.35346" lon="6.13026">
        <ele>1751.6594238281</ele>
        <time>2012-08-09T13:14:17Z</time>
      </trkpt>
      <trkpt lat="45.35352" lon="6.13031">
        <ele>1754.5432128906</ele>
        <time>2012-08-09T13:14:22Z</time>
      </trkpt>
      <trkpt lat="45.35359" lon="6.13034">
        <ele>1755.9851074219</ele>
        <time>2012-08-09T13:14:30Z</time>
      </trkpt>
      <trkpt lat="45.35368" lon="6.13037">
        <ele>1755.5046386719</ele>
        <time>2012-08-09T13:14:36Z</time>
      </trkpt>
      <trkpt lat="45.35377" lon="6.13045">
        <ele>1754.0627441406</ele>
        <time>2012-08-09T13:14:44Z</time>
      </trkpt>
      <trkpt lat="45.35378" lon="6.13046">
        <ele>1754.5432128906</ele>
        <time>2012-08-09T13:14:46Z</time>
      </trkpt>
      <trkpt lat="45.35383" lon="6.13051">
        <ele>1755.5046386719</ele>
        <time>2012-08-09T13:14:54Z</time>
      </trkpt>
      <trkpt lat="45.35391" lon="6.13057">
        <ele>1751.6594238281</ele>
        <time>2012-08-09T13:14:59Z</time>
      </trkpt>
      <trkpt lat="45.35394" lon="6.1306">
        <ele>1751.6594238281</ele>
        <time>2012-08-09T13:15:02Z</time>
      </trkpt>
      <trkpt lat="45.35401" lon="6.13065">
        <ele>1753.1013183594</ele>
        <time>2012-08-09T13:15:10Z</time>
      </trkpt>
      <trkpt lat="45.3541" lon="6.13068">
        <ele>1750.2175292969</ele>
        <time>2012-08-09T13:15:16Z</time>
      </trkpt>
      <trkpt lat="45.35415" lon="6.13071">
        <ele>1751.1787109375</ele>
        <time>2012-08-09T13:15:21Z</time>
      </trkpt>
      <trkpt lat="45.35417" lon="6.1307">
        <ele>1751.1787109375</ele>
        <time>2012-08-09T13:15:22Z</time>
      </trkpt>
      <trkpt lat="45.35423" lon="6.13073">
        <ele>1752.6206054688</ele>
        <time>2012-08-09T13:15:25Z</time>
      </trkpt>
      <trkpt lat="45.3543" lon="6.13079">
        <ele>1749.2561035156</ele>
        <time>2012-08-09T13:15:33Z</time>
      </trkpt>
      <trkpt lat="45.35435" lon="6.13084">
        <ele>1745.8916015625</ele>
        <time>2012-08-09T13:15:39Z</time>
      </trkpt>
      <trkpt lat="45.35436" lon="6.13085">
        <ele>1745.4108886719</ele>
        <time>2012-08-09T13:15:40Z</time>
      </trkpt>
      <trkpt lat="45.35443" lon="6.13088">
        <ele>1743.9689941406</ele>
        <time>2012-08-09T13:15:45Z</time>
      </trkpt>
      <trkpt lat="45.35452" lon="6.13096">
        <ele>1740.1237792969</ele>
        <time>2012-08-09T13:15:52Z</time>
      </trkpt>
      <trkpt lat="45.35459" lon="6.13099">
        <ele>1740.1237792969</ele>
        <time>2012-08-09T13:15:57Z</time>
      </trkpt>
      <trkpt lat="45.35461" lon="6.131">
        <ele>1738.2009277344</ele>
        <time>2012-08-09T13:15:59Z</time>
      </trkpt>
      <trkpt lat="45.35466" lon="6.13103">
        <ele>1737.7202148438</ele>
        <time>2012-08-09T13:16:04Z</time>
      </trkpt>
      <trkpt lat="45.3547" lon="6.13103">
        <ele>1736.7587890625</ele>
        <time>2012-08-09T13:16:07Z</time>
      </trkpt>
      <trkpt lat="45.35474" lon="6.13104">
        <ele>1736.7587890625</ele>
        <time>2012-08-09T13:16:10Z</time>
      </trkpt>
      <trkpt lat="45.35479" lon="6.13104">
        <ele>1737.7202148438</ele>
        <time>2012-08-09T13:16:13Z</time>
      </trkpt>
      <trkpt lat="45.35485" lon="6.13107">
        <ele>1739.162109375</ele>
        <time>2012-08-09T13:16:17Z</time>
      </trkpt>
      <trkpt lat="45.35498" lon="6.13114">
        <ele>1742.0463867188</ele>
        <time>2012-08-09T13:16:23Z</time>
      </trkpt>
      <trkpt lat="45.35501" lon="6.13114">
        <ele>1742.5270996094</ele>
        <time>2012-08-09T13:16:24Z</time>
      </trkpt>
      <trkpt lat="45.35514" lon="6.13118">
        <ele>1747.3334960938</ele>
        <time>2012-08-09T13:16:30Z</time>
      </trkpt>
      <trkpt lat="45.35517" lon="6.1312">
        <ele>1747.3334960938</ele>
        <time>2012-08-09T13:16:32Z</time>
      </trkpt>
      <trkpt lat="45.35526" lon="6.13126">
        <ele>1744.9301757812</ele>
        <time>2012-08-09T13:16:38Z</time>
      </trkpt>
      <trkpt lat="45.35534" lon="6.13131">
        <ele>1745.4108886719</ele>
        <time>2012-08-09T13:16:42Z</time>
      </trkpt>
      <trkpt lat="45.35545" lon="6.13136">
        <ele>1744.9301757812</ele>
        <time>2012-08-09T13:16:47Z</time>
      </trkpt>
      <trkpt lat="45.35556" lon="6.13144">
        <ele>1745.4108886719</ele>
        <time>2012-08-09T13:16:53Z</time>
      </trkpt>
      <trkpt lat="45.3556" lon="6.13148">
        <ele>1744.4494628906</ele>
        <time>2012-08-09T13:16:57Z</time>
      </trkpt>
      <trkpt lat="45.35567" lon="6.13158">
        <ele>1743.48828125</ele>
        <time>2012-08-09T13:17:02Z</time>
      </trkpt>
      <trkpt lat="45.35571" lon="6.13163">
        <ele>1741.5656738281</ele>
        <time>2012-08-09T13:17:05Z</time>
      </trkpt>
      <trkpt lat="45.35574" lon="6.13168">
        <ele>1741.5656738281</ele>
        <time>2012-08-09T13:17:10Z</time>
      </trkpt>
      <trkpt lat="45.35581" lon="6.13172">
        <ele>1742.5270996094</ele>
        <time>2012-08-09T13:17:15Z</time>
      </trkpt>
      <trkpt lat="45.35589" lon="6.13177">
        <ele>1741.0849609375</ele>
        <time>2012-08-09T13:17:21Z</time>
      </trkpt>
      <trkpt lat="45.35601" lon="6.13178">
        <ele>1737.2395019531</ele>
        <time>2012-08-09T13:17:28Z</time>
      </trkpt>
      <trkpt lat="45.35609" lon="6.13181">
        <ele>1738.2009277344</ele>
        <time>2012-08-09T13:17:32Z</time>
      </trkpt>
      <trkpt lat="45.35622" lon="6.13177">
        <ele>1738.681640625</ele>
        <time>2012-08-09T13:17:39Z</time>
      </trkpt>
      <trkpt lat="45.35624" lon="6.13174">
        <ele>1737.7202148438</ele>
        <time>2012-08-09T13:17:41Z</time>
      </trkpt>
      <trkpt lat="45.35632" lon="6.13174">
        <ele>1736.2783203125</ele>
        <time>2012-08-09T13:17:46Z</time>
      </trkpt>
      <trkpt lat="45.35635" lon="6.13173">
        <ele>1735.7976074219</ele>
        <time>2012-08-09T13:17:48Z</time>
      </trkpt>
      <trkpt lat="45.35648" lon="6.13169">
        <ele>1734.3557128906</ele>
        <time>2012-08-09T13:17:54Z</time>
      </trkpt>
      <trkpt lat="45.35656" lon="6.13168">
        <ele>1731.9523925781</ele>
        <time>2012-08-09T13:18:00Z</time>
      </trkpt>
      <trkpt lat="45.35666" lon="6.13164">
        <ele>1729.068359375</ele>
        <time>2012-08-09T13:18:06Z</time>
      </trkpt>
      <trkpt lat="45.35674" lon="6.13157">
        <ele>1728.587890625</ele>
        <time>2012-08-09T13:18:11Z</time>
      </trkpt>
      <trkpt lat="45.35677" lon="6.13149">
        <ele>1729.5490722656</ele>
        <time>2012-08-09T13:18:15Z</time>
      </trkpt>
      <trkpt lat="45.35683" lon="6.13144">
        <ele>1731.4716796875</ele>
        <time>2012-08-09T13:18:19Z</time>
      </trkpt>
      <trkpt lat="45.35689" lon="6.13137">
        <ele>1732.4331054688</ele>
        <time>2012-08-09T13:18:23Z</time>
      </trkpt>
      <trkpt lat="45.35695" lon="6.13131">
        <ele>1731.9523925781</ele>
        <time>2012-08-09T13:18:27Z</time>
      </trkpt>
      <trkpt lat="45.35699" lon="6.13125">
        <ele>1731.9523925781</ele>
        <time>2012-08-09T13:18:31Z</time>
      </trkpt>
      <trkpt lat="45.35707" lon="6.13115">
        <ele>1731.9523925781</ele>
        <time>2012-08-09T13:18:36Z</time>
      </trkpt>
      <trkpt lat="45.35714" lon="6.13105">
        <ele>1733.3942871094</ele>
        <time>2012-08-09T13:18:41Z</time>
      </trkpt>
      <trkpt lat="45.35724" lon="6.13102">
        <ele>1733.3942871094</ele>
        <time>2012-08-09T13:18:44Z</time>
      </trkpt>
      <trkpt lat="45.3573" lon="6.13098">
        <ele>1732.9135742188</ele>
        <time>2012-08-09T13:18:47Z</time>
      </trkpt>
      <trkpt lat="45.35736" lon="6.13092">
        <ele>1731.9523925781</ele>
        <time>2012-08-09T13:18:51Z</time>
      </trkpt>
      <trkpt lat="45.35739" lon="6.1309">
        <ele>1731.9523925781</ele>
        <time>2012-08-09T13:18:53Z</time>
      </trkpt>
      <trkpt lat="45.35746" lon="6.13086">
        <ele>1732.9135742188</ele>
        <time>2012-08-09T13:18:59Z</time>
      </trkpt>
      <trkpt lat="45.35752" lon="6.13081">
        <ele>1733.875</ele>
        <time>2012-08-09T13:19:06Z</time>
      </trkpt>
      <trkpt lat="45.35756" lon="6.13077">
        <ele>1735.3168945312</ele>
        <time>2012-08-09T13:19:10Z</time>
      </trkpt>
      <trkpt lat="45.35763" lon="6.13074">
        <ele>1736.2783203125</ele>
        <time>2012-08-09T13:19:17Z</time>
      </trkpt>
      <trkpt lat="45.3577" lon="6.13073">
        <ele>1737.2395019531</ele>
        <time>2012-08-09T13:19:24Z</time>
      </trkpt>
      <trkpt lat="45.35781" lon="6.13073">
        <ele>1739.6428222656</ele>
        <time>2012-08-09T13:19:34Z</time>
      </trkpt>
      <trkpt lat="45.35788" lon="6.13072">
        <ele>1741.0849609375</ele>
        <time>2012-08-09T13:19:43Z</time>
      </trkpt>
      <trkpt lat="45.35794" lon="6.13071">
        <ele>1742.5270996094</ele>
        <time>2012-08-09T13:19:52Z</time>
      </trkpt>
      <trkpt lat="45.35796" lon="6.13069">
        <ele>1742.0463867188</ele>
        <time>2012-08-09T13:20:01Z</time>
      </trkpt>
      <trkpt lat="45.35798" lon="6.13068">
        <ele>1741.0849609375</ele>
        <time>2012-08-09T13:20:06Z</time>
      </trkpt>
      <trkpt lat="45.35795" lon="6.13071">
        <ele>1740.6042480469</ele>
        <time>2012-08-09T13:20:11Z</time>
      </trkpt>
      <trkpt lat="45.35797" lon="6.13069">
        <ele>1740.6042480469</ele>
        <time>2012-08-09T13:20:16Z</time>
      </trkpt>
      <trkpt lat="45.35804" lon="6.13062">
        <ele>1740.6042480469</ele>
        <time>2012-08-09T13:20:23Z</time>
      </trkpt>
      <trkpt lat="45.35811" lon="6.13054">
        <ele>1741.0849609375</ele>
        <time>2012-08-09T13:20:30Z</time>
      </trkpt>
      <trkpt lat="45.35816" lon="6.13049">
        <ele>1740.1237792969</ele>
        <time>2012-08-09T13:20:34Z</time>
      </trkpt>
      <trkpt lat="45.35819" lon="6.13045">
        <ele>1739.6428222656</ele>
        <time>2012-08-09T13:20:37Z</time>
      </trkpt>
      <trkpt lat="45.35819" lon="6.13037">
        <ele>1738.681640625</ele>
        <time>2012-08-09T13:20:41Z</time>
      </trkpt>
      <trkpt lat="45.3582" lon="6.13034">
        <ele>1737.7202148438</ele>
        <time>2012-08-09T13:20:43Z</time>
      </trkpt>
      <trkpt lat="45.35828" lon="6.13024">
        <ele>1734.8364257812</ele>
        <time>2012-08-09T13:20:50Z</time>
      </trkpt>
      <trkpt lat="45.35829" lon="6.13022">
        <ele>1734.8364257812</ele>
        <time>2012-08-09T13:20:51Z</time>
      </trkpt>
      <trkpt lat="45.35834" lon="6.13017">
        <ele>1733.875</ele>
        <time>2012-08-09T13:20:56Z</time>
      </trkpt>
      <trkpt lat="45.35838" lon="6.13014">
        <ele>1734.3557128906</ele>
        <time>2012-08-09T13:20:59Z</time>
      </trkpt>
      <trkpt lat="45.35846" lon="6.1301">
        <ele>1734.3557128906</ele>
        <time>2012-08-09T13:21:05Z</time>
      </trkpt>
      <trkpt lat="45.35855" lon="6.13006">
        <ele>1734.3557128906</ele>
        <time>2012-08-09T13:21:12Z</time>
      </trkpt>
      <trkpt lat="45.35862" lon="6.12999">
        <ele>1734.3557128906</ele>
        <time>2012-08-09T13:21:18Z</time>
      </trkpt>
      <trkpt lat="45.35865" lon="6.12994">
        <ele>1733.875</ele>
        <time>2012-08-09T13:21:21Z</time>
      </trkpt>
      <trkpt lat="45.35872" lon="6.12989">
        <ele>1733.3942871094</ele>
        <time>2012-08-09T13:21:26Z</time>
      </trkpt>
      <trkpt lat="45.35876" lon="6.12986">
        <ele>1733.3942871094</ele>
        <time>2012-08-09T13:21:30Z</time>
      </trkpt>
      <trkpt lat="45.35883" lon="6.12983">
        <ele>1734.3557128906</ele>
        <time>2012-08-09T13:21:36Z</time>
      </trkpt>
      <trkpt lat="45.35891" lon="6.12977">
        <ele>1733.875</ele>
        <time>2012-08-09T13:21:42Z</time>
      </trkpt>
      <trkpt lat="45.35896" lon="6.12967">
        <ele>1734.3557128906</ele>
        <time>2012-08-09T13:21:49Z</time>
      </trkpt>
      <trkpt lat="45.35899" lon="6.12956">
        <ele>1735.3168945312</ele>
        <time>2012-08-09T13:21:55Z</time>
      </trkpt>
      <trkpt lat="45.35902" lon="6.12946">
        <ele>1735.3168945312</ele>
        <time>2012-08-09T13:22:01Z</time>
      </trkpt>
      <trkpt lat="45.35905" lon="6.12935">
        <ele>1736.7587890625</ele>
        <time>2012-08-09T13:22:08Z</time>
      </trkpt>
      <trkpt lat="45.35907" lon="6.1293">
        <ele>1737.7202148438</ele>
        <time>2012-08-09T13:22:11Z</time>
      </trkpt>
      <trkpt lat="45.35907" lon="6.12925">
        <ele>1737.7202148438</ele>
        <time>2012-08-09T13:22:14Z</time>
      </trkpt>
      <trkpt lat="45.3591" lon="6.12915">
        <ele>1736.7587890625</ele>
        <time>2012-08-09T13:22:18Z</time>
      </trkpt>
      <trkpt lat="45.35913" lon="6.12906">
        <ele>1737.7202148438</ele>
        <time>2012-08-09T13:22:22Z</time>
      </trkpt>
      <trkpt lat="45.35919" lon="6.12899">
        <ele>1738.681640625</ele>
        <time>2012-08-09T13:22:28Z</time>
      </trkpt>
      <trkpt lat="45.35926" lon="6.12891">
        <ele>1740.6042480469</ele>
        <time>2012-08-09T13:22:35Z</time>
      </trkpt>
      <trkpt lat="45.35937" lon="6.12882">
        <ele>1742.0463867188</ele>
        <time>2012-08-09T13:22:44Z</time>
      </trkpt>
      <trkpt lat="45.35942" lon="6.12877">
        <ele>1741.5656738281</ele>
        <time>2012-08-09T13:22:48Z</time>
      </trkpt>
      <trkpt lat="45.35949" lon="6.12869">
        <ele>1742.0463867188</ele>
        <time>2012-08-09T13:22:54Z</time>
      </trkpt>
      <trkpt lat="45.35956" lon="6.12856">
        <ele>1742.0463867188</ele>
        <time>2012-08-09T13:23:02Z</time>
      </trkpt>
      <trkpt lat="45.35961" lon="6.12848">
        <ele>1741.5656738281</ele>
        <time>2012-08-09T13:23:08Z</time>
      </trkpt>
      <trkpt lat="45.35969" lon="6.12837">
        <ele>1742.0463867188</ele>
        <time>2012-08-09T13:23:16Z</time>
      </trkpt>
      <trkpt lat="45.35973" lon="6.12829">
        <ele>1743.0075683594</ele>
        <time>2012-08-09T13:23:22Z</time>
      </trkpt>
      <trkpt lat="45.3598" lon="6.12818">
        <ele>1742.5270996094</ele>
        <time>2012-08-09T13:23:29Z</time>
      </trkpt>
      <trkpt lat="45.35983" lon="6.12815">
        <ele>1742.0463867188</ele>
        <time>2012-08-09T13:23:32Z</time>
      </trkpt>
      <trkpt lat="45.35984" lon="6.12814">
        <ele>1742.0463867188</ele>
        <time>2012-08-09T13:23:34Z</time>
      </trkpt>
      <trkpt lat="45.35987" lon="6.12811">
        <ele>1742.0463867188</ele>
        <time>2012-08-09T13:23:37Z</time>
      </trkpt>
      <trkpt lat="45.35991" lon="6.12807">
        <ele>1741.5656738281</ele>
        <time>2012-08-09T13:23:41Z</time>
      </trkpt>
      <trkpt lat="45.35997" lon="6.12803">
        <ele>1737.7202148438</ele>
        <time>2012-08-09T13:23:47Z</time>
      </trkpt>
      <trkpt lat="45.36003" lon="6.12795">
        <ele>1735.7976074219</ele>
        <time>2012-08-09T13:23:52Z</time>
      </trkpt>
      <trkpt lat="45.36016" lon="6.12784">
        <ele>1734.3557128906</ele>
        <time>2012-08-09T13:23:59Z</time>
      </trkpt>
      <trkpt lat="45.36028" lon="6.12779">
        <ele>1732.4331054688</ele>
        <time>2012-08-09T13:24:04Z</time>
      </trkpt>
      <trkpt lat="45.36038" lon="6.12774">
        <ele>1729.068359375</ele>
        <time>2012-08-09T13:24:09Z</time>
      </trkpt>
      <trkpt lat="45.36047" lon="6.12766">
        <ele>1729.068359375</ele>
        <time>2012-08-09T13:24:14Z</time>
      </trkpt>
      <trkpt lat="45.36053" lon="6.12765">
        <ele>1729.068359375</ele>
        <time>2012-08-09T13:24:17Z</time>
      </trkpt>
      <trkpt lat="45.36059" lon="6.1276">
        <ele>1729.068359375</ele>
        <time>2012-08-09T13:24:21Z</time>
      </trkpt>
      <trkpt lat="45.36072" lon="6.12758">
        <ele>1729.068359375</ele>
        <time>2012-08-09T13:24:27Z</time>
      </trkpt>
      <trkpt lat="45.36077" lon="6.12758">
        <ele>1728.587890625</ele>
        <time>2012-08-09T13:24:30Z</time>
      </trkpt>
      <trkpt lat="45.36092" lon="6.12763">
        <ele>1726.6652832031</ele>
        <time>2012-08-09T13:24:37Z</time>
      </trkpt>
      <trkpt lat="45.36101" lon="6.12767">
        <ele>1726.1845703125</ele>
        <time>2012-08-09T13:24:41Z</time>
      </trkpt>
      <trkpt lat="45.36107" lon="6.12768">
        <ele>1726.1845703125</ele>
        <time>2012-08-09T13:24:45Z</time>
      </trkpt>
      <trkpt lat="45.36118" lon="6.12765">
        <ele>1725.2231445312</ele>
        <time>2012-08-09T13:24:50Z</time>
      </trkpt>
      <trkpt lat="45.36129" lon="6.12759">
        <ele>1725.2231445312</ele>
        <time>2012-08-09T13:24:55Z</time>
      </trkpt>
      <trkpt lat="45.36137" lon="6.12757">
        <ele>1726.6652832031</ele>
        <time>2012-08-09T13:25:00Z</time>
      </trkpt>
      <trkpt lat="45.36146" lon="6.12757">
        <ele>1727.6264648438</ele>
        <time>2012-08-09T13:25:05Z</time>
      </trkpt>
      <trkpt lat="45.36154" lon="6.12755">
        <ele>1726.6652832031</ele>
        <time>2012-08-09T13:25:10Z</time>
      </trkpt>
      <trkpt lat="45.36158" lon="6.12754">
        <ele>1727.6264648438</ele>
        <time>2012-08-09T13:25:12Z</time>
      </trkpt>
      <trkpt lat="45.36169" lon="6.12757">
        <ele>1729.068359375</ele>
        <time>2012-08-09T13:25:18Z</time>
      </trkpt>
      <trkpt lat="45.36179" lon="6.12755">
        <ele>1730.0297851562</ele>
        <time>2012-08-09T13:25:24Z</time>
      </trkpt>
      <trkpt lat="45.36187" lon="6.12752">
        <ele>1731.4716796875</ele>
        <time>2012-08-09T13:25:30Z</time>
      </trkpt>
      <trkpt lat="45.36195" lon="6.12748">
        <ele>1730.0297851562</ele>
        <time>2012-08-09T13:25:37Z</time>
      </trkpt>
      <trkpt lat="45.362" lon="6.12746">
        <ele>1730.0297851562</ele>
        <time>2012-08-09T13:25:42Z</time>
      </trkpt>
      <trkpt lat="45.36208" lon="6.12741">
        <ele>1730.5104980469</ele>
        <time>2012-08-09T13:25:48Z</time>
      </trkpt>
      <trkpt lat="45.36211" lon="6.12741">
        <ele>1730.5104980469</ele>
        <time>2012-08-09T13:25:50Z</time>
      </trkpt>
      <trkpt lat="45.36217" lon="6.12737">
        <ele>1729.068359375</ele>
        <time>2012-08-09T13:25:55Z</time>
      </trkpt>
      <trkpt lat="45.36226" lon="6.12732">
        <ele>1729.068359375</ele>
        <time>2012-08-09T13:25:59Z</time>
      </trkpt>
      <trkpt lat="45.36231" lon="6.1273">
        <ele>1728.1071777344</ele>
        <time>2012-08-09T13:26:02Z</time>
      </trkpt>
      <trkpt lat="45.36243" lon="6.12715">
        <ele>1722.8198242188</ele>
        <time>2012-08-09T13:26:08Z</time>
      </trkpt>
      <trkpt lat="45.36247" lon="6.1271">
        <ele>1721.3776855469</ele>
        <time>2012-08-09T13:26:10Z</time>
      </trkpt>
      <trkpt lat="45.36258" lon="6.12697">
        <ele>1720.4165039062</ele>
        <time>2012-08-09T13:26:16Z</time>
      </trkpt>
      <trkpt lat="45.36264" lon="6.12692">
        <ele>1718.974609375</ele>
        <time>2012-08-09T13:26:19Z</time>
      </trkpt>
      <trkpt lat="45.3627" lon="6.12689">
        <ele>1716.5712890625</ele>
        <time>2012-08-09T13:26:22Z</time>
      </trkpt>
      <trkpt lat="45.36277" lon="6.12679">
        <ele>1714.16796875</ele>
        <time>2012-08-09T13:26:27Z</time>
      </trkpt>
      <trkpt lat="45.36279" lon="6.12677">
        <ele>1714.16796875</ele>
        <time>2012-08-09T13:26:28Z</time>
      </trkpt>
      <trkpt lat="45.3629" lon="6.12661">
        <ele>1712.2453613281</ele>
        <time>2012-08-09T13:26:36Z</time>
      </trkpt>
      <trkpt lat="45.36301" lon="6.12651">
        <ele>1709.3615722656</ele>
        <time>2012-08-09T13:26:41Z</time>
      </trkpt>
      <trkpt lat="45.36308" lon="6.12641">
        <ele>1709.8420410156</ele>
        <time>2012-08-09T13:26:45Z</time>
      </trkpt>
      <trkpt lat="45.36311" lon="6.12632">
        <ele>1709.8420410156</ele>
        <time>2012-08-09T13:26:48Z</time>
      </trkpt>
      <trkpt lat="45.36317" lon="6.12619">
        <ele>1709.8420410156</ele>
        <time>2012-08-09T13:26:53Z</time>
      </trkpt>
      <trkpt lat="45.36325" lon="6.12609">
        <ele>1709.3615722656</ele>
        <time>2012-08-09T13:26:58Z</time>
      </trkpt>
      <trkpt lat="45.3633" lon="6.12593">
        <ele>1709.3615722656</ele>
        <time>2012-08-09T13:27:04Z</time>
      </trkpt>
      <trkpt lat="45.36332" lon="6.12585">
        <ele>1710.3227539062</ele>
        <time>2012-08-09T13:27:07Z</time>
      </trkpt>
      <trkpt lat="45.36332" lon="6.12575">
        <ele>1710.8034667969</ele>
        <time>2012-08-09T13:27:11Z</time>
      </trkpt>
      <trkpt lat="45.36337" lon="6.12562">
        <ele>1707.9194335938</ele>
        <time>2012-08-09T13:27:16Z</time>
      </trkpt>
      <trkpt lat="45.36342" lon="6.12546">
        <ele>1702.1513671875</ele>
        <time>2012-08-09T13:27:21Z</time>
      </trkpt>
      <trkpt lat="45.36347" lon="6.12539">
        <ele>1700.2290039062</ele>
        <time>2012-08-09T13:27:24Z</time>
      </trkpt>
      <trkpt lat="45.36358" lon="6.12521">
        <ele>1695.4223632812</ele>
        <time>2012-08-09T13:27:31Z</time>
      </trkpt>
      <trkpt lat="45.36363" lon="6.12514">
        <ele>1695.4223632812</ele>
        <time>2012-08-09T13:27:35Z</time>
      </trkpt>
      <trkpt lat="45.3637" lon="6.12505">
        <ele>1700.7094726562</ele>
        <time>2012-08-09T13:27:42Z</time>
      </trkpt>
      <trkpt lat="45.36379" lon="6.12495">
        <ele>1702.6320800781</ele>
        <time>2012-08-09T13:27:50Z</time>
      </trkpt>
      <trkpt lat="45.36381" lon="6.12493">
        <ele>1703.1127929688</ele>
        <time>2012-08-09T13:27:52Z</time>
      </trkpt>
      <trkpt lat="45.36385" lon="6.12488">
        <ele>1703.5935058594</ele>
        <time>2012-08-09T13:27:56Z</time>
      </trkpt>
      <trkpt lat="45.36392" lon="6.12482">
        <ele>1703.5935058594</ele>
        <time>2012-08-09T13:28:02Z</time>
      </trkpt>
      <trkpt lat="45.364" lon="6.12479">
        <ele>1703.1127929688</ele>
        <time>2012-08-09T13:28:09Z</time>
      </trkpt>
      <trkpt lat="45.36401" lon="6.12479">
        <ele>1703.1127929688</ele>
        <time>2012-08-09T13:28:10Z</time>
      </trkpt>
      <trkpt lat="45.36403" lon="6.1249">
        <ele>1701.1901855469</ele>
        <time>2012-08-09T13:28:15Z</time>
      </trkpt>
      <trkpt lat="45.36404" lon="6.12504">
        <ele>1699.7482910156</ele>
        <time>2012-08-09T13:28:19Z</time>
      </trkpt>
      <trkpt lat="45.36403" lon="6.1251">
        <ele>1699.7482910156</ele>
        <time>2012-08-09T13:28:21Z</time>
      </trkpt>
      <trkpt lat="45.36401" lon="6.12517">
        <ele>1700.2290039062</ele>
        <time>2012-08-09T13:28:24Z</time>
      </trkpt>
      <trkpt lat="45.36392" lon="6.12527">
        <ele>1702.6320800781</ele>
        <time>2012-08-09T13:28:28Z</time>
      </trkpt>
      <trkpt lat="45.3639" lon="6.12535">
        <ele>1702.1513671875</ele>
        <time>2012-08-09T13:28:31Z</time>
      </trkpt>
      <trkpt lat="45.36389" lon="6.12547">
        <ele>1701.1901855469</ele>
        <time>2012-08-09T13:28:37Z</time>
      </trkpt>
      <trkpt lat="45.36389" lon="6.12549">
        <ele>1700.7094726562</ele>
        <time>2012-08-09T13:28:39Z</time>
      </trkpt>
      <trkpt lat="45.36389" lon="6.12558">
        <ele>1699.267578125</ele>
        <time>2012-08-09T13:28:44Z</time>
      </trkpt>
      <trkpt lat="45.36389" lon="6.12564">
        <ele>1697.3449707031</ele>
        <time>2012-08-09T13:28:50Z</time>
      </trkpt>
      <trkpt lat="45.3639" lon="6.12567">
        <ele>1700.2290039062</ele>
        <time>2012-08-09T13:29:14Z</time>
      </trkpt>
      <trkpt lat="45.3639" lon="6.12567">
        <ele>1700.7094726562</ele>
        <time>2012-08-09T13:29:19Z</time>
      </trkpt>
      <trkpt lat="45.36392" lon="6.12568">
        <ele>1702.6320800781</ele>
        <time>2012-08-09T13:29:29Z</time>
      </trkpt>
      <trkpt lat="45.36391" lon="6.12568">
        <ele>1701.6708984375</ele>
        <time>2012-08-09T13:29:45Z</time>
      </trkpt>
      <trkpt lat="45.3639" lon="6.1257">
        <ele>1702.1513671875</ele>
        <time>2012-08-09T13:29:59Z</time>
      </trkpt>
      <trkpt lat="45.3639" lon="6.1257">
        <ele>1703.1127929688</ele>
        <time>2012-08-09T13:30:04Z</time>
      </trkpt>
      <trkpt lat="45.36389" lon="6.12573">
        <ele>1706.9580078125</ele>
        <time>2012-08-09T13:30:14Z</time>
      </trkpt>
      <trkpt lat="45.3639" lon="6.12572">
        <ele>1704.5546875</ele>
        <time>2012-08-09T13:30:31Z</time>
      </trkpt>
      <trkpt lat="45.3639" lon="6.12571">
        <ele>1704.07421875</ele>
        <time>2012-08-09T13:30:39Z</time>
      </trkpt>
      <trkpt lat="45.36389" lon="6.12577">
        <ele>1702.6320800781</ele>
        <time>2012-08-09T13:30:46Z</time>
      </trkpt>
      <trkpt lat="45.36386" lon="6.12584">
        <ele>1700.2290039062</ele>
        <time>2012-08-09T13:30:53Z</time>
      </trkpt>
      <trkpt lat="45.36384" lon="6.1259">
        <ele>1698.7868652344</ele>
        <time>2012-08-09T13:30:58Z</time>
      </trkpt>
      <trkpt lat="45.36383" lon="6.12594">
        <ele>1698.7868652344</ele>
        <time>2012-08-09T13:31:04Z</time>
      </trkpt>
      <trkpt lat="45.36382" lon="6.12598">
        <ele>1697.3449707031</ele>
        <time>2012-08-09T13:31:07Z</time>
      </trkpt>
      <trkpt lat="45.36382" lon="6.12605">
        <ele>1696.3837890625</ele>
        <time>2012-08-09T13:31:11Z</time>
      </trkpt>
      <trkpt lat="45.36382" lon="6.12609">
        <ele>1696.3837890625</ele>
        <time>2012-08-09T13:31:13Z</time>
      </trkpt>
      <trkpt lat="45.36384" lon="6.12616">
        <ele>1695.9030761719</ele>
        <time>2012-08-09T13:31:17Z</time>
      </trkpt>
      <trkpt lat="45.36388" lon="6.12626">
        <ele>1693.98046875</ele>
        <time>2012-08-09T13:31:24Z</time>
      </trkpt>
      <trkpt lat="45.3639" lon="6.1263">
        <ele>1693.0190429688</ele>
        <time>2012-08-09T13:31:27Z</time>
      </trkpt>
      <trkpt lat="45.36392" lon="6.12643">
        <ele>1692.0578613281</ele>
        <time>2012-08-09T13:31:35Z</time>
      </trkpt>
      <trkpt lat="45.36392" lon="6.12649">
        <ele>1691.5769042969</ele>
        <time>2012-08-09T13:31:37Z</time>
      </trkpt>
      <trkpt lat="45.36393" lon="6.12654">
        <ele>1691.0961914062</ele>
        <time>2012-08-09T13:31:39Z</time>
      </trkpt>
      <trkpt lat="45.36392" lon="6.12664">
        <ele>1688.6931152344</ele>
        <time>2012-08-09T13:31:42Z</time>
      </trkpt>
      <trkpt lat="45.36395" lon="6.12677">
        <ele>1686.7702636719</ele>
        <time>2012-08-09T13:31:46Z</time>
      </trkpt>
      <trkpt lat="45.36396" lon="6.12681">
        <ele>1686.2897949219</ele>
        <time>2012-08-09T13:31:47Z</time>
      </trkpt>
      <trkpt lat="45.36399" lon="6.127">
        <ele>1685.3283691406</ele>
        <time>2012-08-09T13:31:54Z</time>
      </trkpt>
      <trkpt lat="45.36403" lon="6.12716">
        <ele>1683.4057617188</ele>
        <time>2012-08-09T13:31:59Z</time>
      </trkpt>
      <trkpt lat="45.36407" lon="6.12731">
        <ele>1680.0412597656</ele>
        <time>2012-08-09T13:32:04Z</time>
      </trkpt>
      <trkpt lat="45.36409" lon="6.12738">
        <ele>1678.5993652344</ele>
        <time>2012-08-09T13:32:06Z</time>
      </trkpt>
      <trkpt lat="45.36409" lon="6.12747">
        <ele>1674.75390625</ele>
        <time>2012-08-09T13:32:10Z</time>
      </trkpt>
      <trkpt lat="45.36415" lon="6.12756">
        <ele>1671.8698730469</ele>
        <time>2012-08-09T13:32:14Z</time>
      </trkpt>
      <trkpt lat="45.36419" lon="6.12768">
        <ele>1668.0246582031</ele>
        <time>2012-08-09T13:32:19Z</time>
      </trkpt>
      <trkpt lat="45.36423" lon="6.12775">
        <ele>1666.1020507812</ele>
        <time>2012-08-09T13:32:22Z</time>
      </trkpt>
      <trkpt lat="45.36423" lon="6.1278">
        <ele>1665.1408691406</ele>
        <time>2012-08-09T13:32:24Z</time>
      </trkpt>
      <trkpt lat="45.36424" lon="6.1279">
        <ele>1664.1794433594</ele>
        <time>2012-08-09T13:32:27Z</time>
      </trkpt>
      <trkpt lat="45.36424" lon="6.12799">
        <ele>1662.7375488281</ele>
        <time>2012-08-09T13:32:31Z</time>
      </trkpt>
      <trkpt lat="45.36423" lon="6.12813">
        <ele>1660.8149414062</ele>
        <time>2012-08-09T13:32:36Z</time>
      </trkpt>
      <trkpt lat="45.36422" lon="6.12824">
        <ele>1659.8532714844</ele>
        <time>2012-08-09T13:32:40Z</time>
      </trkpt>
      <trkpt lat="45.36416" lon="6.12833">
        <ele>1656.9694824219</ele>
        <time>2012-08-09T13:32:44Z</time>
      </trkpt>
      <trkpt lat="45.36411" lon="6.1284">
        <ele>1656.0080566406</ele>
        <time>2012-08-09T13:32:47Z</time>
      </trkpt>
      <trkpt lat="45.36405" lon="6.1285">
        <ele>1654.5661621094</ele>
        <time>2012-08-09T13:32:51Z</time>
      </trkpt>
      <trkpt lat="45.36396" lon="6.12861">
        <ele>1652.1628417969</ele>
        <time>2012-08-09T13:32:56Z</time>
      </trkpt>
      <trkpt lat="45.36388" lon="6.12874">
        <ele>1650.2404785156</ele>
        <time>2012-08-09T13:33:01Z</time>
      </trkpt>
      <trkpt lat="45.36383" lon="6.12882">
        <ele>1649.2790527344</ele>
        <time>2012-08-09T13:33:05Z</time>
      </trkpt>
      <trkpt lat="45.36376" lon="6.1289">
        <ele>1647.3564453125</ele>
        <time>2012-08-09T13:33:09Z</time>
      </trkpt>
      <trkpt lat="45.3637" lon="6.12899">
        <ele>1645.4338378906</ele>
        <time>2012-08-09T13:33:13Z</time>
      </trkpt>
      <trkpt lat="45.36355" lon="6.12909">
        <ele>1643.0302734375</ele>
        <time>2012-08-09T13:33:19Z</time>
      </trkpt>
      <trkpt lat="45.36346" lon="6.12917">
        <ele>1640.146484375</ele>
        <time>2012-08-09T13:33:24Z</time>
      </trkpt>
      <trkpt lat="45.36346" lon="6.12919">
        <ele>1640.146484375</ele>
        <time>2012-08-09T13:33:25Z</time>
      </trkpt>
      <trkpt lat="45.36343" lon="6.1293">
        <ele>1639.1850585938</ele>
        <time>2012-08-09T13:33:30Z</time>
      </trkpt>
      <trkpt lat="45.36339" lon="6.12937">
        <ele>1637.7431640625</ele>
        <time>2012-08-09T13:33:33Z</time>
      </trkpt>
      <trkpt lat="45.3633" lon="6.12947">
        <ele>1633.8979492188</ele>
        <time>2012-08-09T13:33:39Z</time>
      </trkpt>
      <trkpt lat="45.36317" lon="6.1295">
        <ele>1629.5720214844</ele>
        <time>2012-08-09T13:33:45Z</time>
      </trkpt>
      <trkpt lat="45.36308" lon="6.12952">
        <ele>1626.2072753906</ele>
        <time>2012-08-09T13:33:49Z</time>
      </trkpt>
      <trkpt lat="45.363" lon="6.12954">
        <ele>1624.7653808594</ele>
        <time>2012-08-09T13:33:55Z</time>
      </trkpt>
      <trkpt lat="45.36293" lon="6.12953">
        <ele>1626.6879882812</ele>
        <time>2012-08-09T13:34:01Z</time>
      </trkpt>
      <trkpt lat="45.36294" lon="6.12958">
        <ele>1630.052734375</ele>
        <time>2012-08-09T13:34:15Z</time>
      </trkpt>
      <trkpt lat="45.36292" lon="6.1296">
        <ele>1630.052734375</ele>
        <time>2012-08-09T13:34:21Z</time>
      </trkpt>
      <trkpt lat="45.36291" lon="6.12963">
        <ele>1630.052734375</ele>
        <time>2012-08-09T13:34:27Z</time>
      </trkpt>
      <trkpt lat="45.36295" lon="6.12973">
        <ele>1633.4172363281</ele>
        <time>2012-08-09T13:34:36Z</time>
      </trkpt>
      <trkpt lat="45.36298" lon="6.12974">
        <ele>1633.4172363281</ele>
        <time>2012-08-09T13:34:38Z</time>
      </trkpt>
      <trkpt lat="45.36303" lon="6.12977">
        <ele>1633.4172363281</ele>
        <time>2012-08-09T13:34:43Z</time>
      </trkpt>
      <trkpt lat="45.36305" lon="6.12976">
        <ele>1632.9365234375</ele>
        <time>2012-08-09T13:34:46Z</time>
      </trkpt>
      <trkpt lat="45.36313" lon="6.12975">
        <ele>1631.0141601562</ele>
        <time>2012-08-09T13:34:52Z</time>
      </trkpt>
      <trkpt lat="45.36319" lon="6.12978">
        <ele>1629.5720214844</ele>
        <time>2012-08-09T13:34:55Z</time>
      </trkpt>
      <trkpt lat="45.36327" lon="6.12979">
        <ele>1628.1301269531</ele>
        <time>2012-08-09T13:34:59Z</time>
      </trkpt>
      <trkpt lat="45.36337" lon="6.12979">
        <ele>1623.3234863281</ele>
        <time>2012-08-09T13:35:05Z</time>
      </trkpt>
      <trkpt lat="45.36347" lon="6.12981">
        <ele>1623.3234863281</ele>
        <time>2012-08-09T13:35:09Z</time>
      </trkpt>
      <trkpt lat="45.36354" lon="6.12983">
        <ele>1624.2846679688</ele>
        <time>2012-08-09T13:35:12Z</time>
      </trkpt>
      <trkpt lat="45.36362" lon="6.12984">
        <ele>1624.7653808594</ele>
        <time>2012-08-09T13:35:15Z</time>
      </trkpt>
      <trkpt lat="45.36367" lon="6.12986">
        <ele>1623.8039550781</ele>
        <time>2012-08-09T13:35:20Z</time>
      </trkpt>
      <trkpt lat="45.36369" lon="6.12987">
        <ele>1623.8039550781</ele>
        <time>2012-08-09T13:35:21Z</time>
      </trkpt>
      <trkpt lat="45.36383" lon="6.12987">
        <ele>1618.9975585938</ele>
        <time>2012-08-09T13:35:27Z</time>
      </trkpt>
      <trkpt lat="45.36395" lon="6.12988">
        <ele>1616.5942382812</ele>
        <time>2012-08-09T13:35:32Z</time>
      </trkpt>
      <trkpt lat="45.36405" lon="6.12985">
        <ele>1612.2683105469</ele>
        <time>2012-08-09T13:35:36Z</time>
      </trkpt>
      <trkpt lat="45.36414" lon="6.12982">
        <ele>1608.9035644531</ele>
        <time>2012-08-09T13:35:40Z</time>
      </trkpt>
      <trkpt lat="45.36425" lon="6.1298">
        <ele>1606.5002441406</ele>
        <time>2012-08-09T13:35:45Z</time>
      </trkpt>
      <trkpt lat="45.36433" lon="6.12979">
        <ele>1604.0971679688</ele>
        <time>2012-08-09T13:35:49Z</time>
      </trkpt>
      <trkpt lat="45.36444" lon="6.12977">
        <ele>1603.6164550781</ele>
        <time>2012-08-09T13:35:54Z</time>
      </trkpt>
      <trkpt lat="45.36452" lon="6.12975">
        <ele>1601.6938476562</ele>
        <time>2012-08-09T13:35:57Z</time>
      </trkpt>
      <trkpt lat="45.36465" lon="6.12971">
        <ele>1598.8098144531</ele>
        <time>2012-08-09T13:36:03Z</time>
      </trkpt>
      <trkpt lat="45.36472" lon="6.12968">
        <ele>1597.8486328125</ele>
        <time>2012-08-09T13:36:06Z</time>
      </trkpt>
      <trkpt lat="45.3648" lon="6.12966">
        <ele>1597.3679199219</ele>
        <time>2012-08-09T13:36:09Z</time>
      </trkpt>
      <trkpt lat="45.36493" lon="6.12978">
        <ele>1597.8486328125</ele>
        <time>2012-08-09T13:36:14Z</time>
      </trkpt>
      <trkpt lat="45.36496" lon="6.12989">
        <ele>1595.92578125</ele>
        <time>2012-08-09T13:36:17Z</time>
      </trkpt>
      <trkpt lat="45.36494" lon="6.13006">
        <ele>1594.9643554688</ele>
        <time>2012-08-09T13:36:22Z</time>
      </trkpt>
      <trkpt lat="45.36491" lon="6.13018">
        <ele>1595.4450683594</ele>
        <time>2012-08-09T13:36:26Z</time>
      </trkpt>
      <trkpt lat="45.36488" lon="6.13032">
        <ele>1594.9643554688</ele>
        <time>2012-08-09T13:36:30Z</time>
      </trkpt>
      <trkpt lat="45.36489" lon="6.13051">
        <ele>1594.4836425781</ele>
        <time>2012-08-09T13:36:36Z</time>
      </trkpt>
      <trkpt lat="45.36491" lon="6.13055">
        <ele>1593.5224609375</ele>
        <time>2012-08-09T13:36:38Z</time>
      </trkpt>
      <trkpt lat="45.36492" lon="6.1307">
        <ele>1591.5998535156</ele>
        <time>2012-08-09T13:36:43Z</time>
      </trkpt>
      <trkpt lat="45.36487" lon="6.13087">
        <ele>1590.6384277344</ele>
        <time>2012-08-09T13:36:47Z</time>
      </trkpt>
      <trkpt lat="45.36484" lon="6.13097">
        <ele>1587.2739257812</ele>
        <time>2012-08-09T13:36:51Z</time>
      </trkpt>
      <trkpt lat="45.3648" lon="6.13112">
        <ele>1579.5832519531</ele>
        <time>2012-08-09T13:36:57Z</time>
      </trkpt>
      <trkpt lat="45.36479" lon="6.13115">
        <ele>1578.1413574219</ele>
        <time>2012-08-09T13:36:58Z</time>
      </trkpt>
      <trkpt lat="45.36473" lon="6.13126">
        <ele>1575.2573242188</ele>
        <time>2012-08-09T13:37:03Z</time>
      </trkpt>
      <trkpt lat="45.36465" lon="6.13134">
        <ele>1572.3735351562</ele>
        <time>2012-08-09T13:37:07Z</time>
      </trkpt>
      <trkpt lat="45.36455" lon="6.1314">
        <ele>1575.2573242188</ele>
        <time>2012-08-09T13:37:11Z</time>
      </trkpt>
      <trkpt lat="45.36447" lon="6.1314">
        <ele>1578.1413574219</ele>
        <time>2012-08-09T13:37:14Z</time>
      </trkpt>
      <trkpt lat="45.36443" lon="6.13138">
        <ele>1580.544921875</ele>
        <time>2012-08-09T13:37:16Z</time>
      </trkpt>
      <trkpt lat="45.3643" lon="6.1314">
        <ele>1586.3127441406</ele>
        <time>2012-08-09T13:37:21Z</time>
      </trkpt>
      <trkpt lat="45.36425" lon="6.13139">
        <ele>1585.83203125</ele>
        <time>2012-08-09T13:37:23Z</time>
      </trkpt>
      <trkpt lat="45.36409" lon="6.13136">
        <ele>1583.9094238281</ele>
        <time>2012-08-09T13:37:28Z</time>
      </trkpt>
      <trkpt lat="45.36401" lon="6.13136">
        <ele>1581.9868164062</ele>
        <time>2012-08-09T13:37:32Z</time>
      </trkpt>
      <trkpt lat="45.3639" lon="6.13136">
        <ele>1577.1801757812</ele>
        <time>2012-08-09T13:37:37Z</time>
      </trkpt>
      <trkpt lat="45.36378" lon="6.1314">
        <ele>1573.8154296875</ele>
        <time>2012-08-09T13:37:42Z</time>
      </trkpt>
      <trkpt lat="45.3637" lon="6.13141">
        <ele>1569.4897460938</ele>
        <time>2012-08-09T13:37:46Z</time>
      </trkpt>
      <trkpt lat="45.36362" lon="6.13147">
        <ele>1564.2023925781</ele>
        <time>2012-08-09T13:37:51Z</time>
      </trkpt>
      <trkpt lat="45.36351" lon="6.1315">
        <ele>1554.1086425781</ele>
        <time>2012-08-09T13:37:57Z</time>
      </trkpt>
      <trkpt lat="45.36343" lon="6.13146">
        <ele>1545.9372558594</ele>
        <time>2012-08-09T13:38:02Z</time>
      </trkpt>
      <trkpt lat="45.36335" lon="6.13143">
        <ele>1542.0920410156</ele>
        <time>2012-08-09T13:38:06Z</time>
      </trkpt>
      <trkpt lat="45.36332" lon="6.13146">
        <ele>1538.2468261719</ele>
        <time>2012-08-09T13:38:09Z</time>
      </trkpt>
      <trkpt lat="45.36322" lon="6.13165">
        <ele>1534.8823242188</ele>
        <time>2012-08-09T13:38:16Z</time>
      </trkpt>
      <trkpt lat="45.36315" lon="6.13177">
        <ele>1533.4401855469</ele>
        <time>2012-08-09T13:38:20Z</time>
      </trkpt>
      <trkpt lat="45.36308" lon="6.13182">
        <ele>1531.0368652344</ele>
        <time>2012-08-09T13:38:23Z</time>
      </trkpt>
      <trkpt lat="45.36297" lon="6.13191">
        <ele>1537.2854003906</ele>
        <time>2012-08-09T13:38:27Z</time>
      </trkpt>
      <trkpt lat="45.36292" lon="6.13193">
        <ele>1539.2080078125</ele>
        <time>2012-08-09T13:38:29Z</time>
      </trkpt>
      <trkpt lat="45.36277" lon="6.13199">
        <ele>1545.4565429688</ele>
        <time>2012-08-09T13:38:34Z</time>
      </trkpt>
      <trkpt lat="45.36264" lon="6.13204">
        <ele>1545.9372558594</ele>
        <time>2012-08-09T13:38:38Z</time>
      </trkpt>
      <trkpt lat="45.36252" lon="6.13207">
        <ele>1554.1086425781</ele>
        <time>2012-08-09T13:38:42Z</time>
      </trkpt>
      <trkpt lat="45.36233" lon="6.13216">
        <ele>1567.0864257812</ele>
        <time>2012-08-09T13:38:48Z</time>
      </trkpt>
      <trkpt lat="45.36225" lon="6.13222">
        <ele>1565.1638183594</ele>
        <time>2012-08-09T13:38:52Z</time>
      </trkpt>
      <trkpt lat="45.36221" lon="6.13226">
        <ele>1558.4343261719</ele>
        <time>2012-08-09T13:38:55Z</time>
      </trkpt>
      <trkpt lat="45.36214" lon="6.13236">
        <ele>1556.51171875</ele>
        <time>2012-08-09T13:38:59Z</time>
      </trkpt>
      <trkpt lat="45.36214" lon="6.13238">
        <ele>1555.5505371094</ele>
        <time>2012-08-09T13:39:00Z</time>
      </trkpt>
      <trkpt lat="45.36221" lon="6.13257">
        <ele>1542.5727539062</ele>
        <time>2012-08-09T13:39:06Z</time>
      </trkpt>
      <trkpt lat="45.3623" lon="6.13264">
        <ele>1534.8823242188</ele>
        <time>2012-08-09T13:39:10Z</time>
      </trkpt>
      <trkpt lat="45.36244" lon="6.13263">
        <ele>1520.9431152344</ele>
        <time>2012-08-09T13:39:15Z</time>
      </trkpt>
      <trkpt lat="45.36257" lon="6.13261">
        <ele>1513.7329101562</ele>
        <time>2012-08-09T13:39:20Z</time>
      </trkpt>
      <trkpt lat="45.36259" lon="6.13259">
        <ele>1511.810546875</ele>
        <time>2012-08-09T13:39:21Z</time>
      </trkpt>
      <trkpt lat="45.36275" lon="6.13242">
        <ele>1510.3684082031</ele>
        <time>2012-08-09T13:39:28Z</time>
      </trkpt>
      <trkpt lat="45.36277" lon="6.13241">
        <ele>1513.7329101562</ele>
        <time>2012-08-09T13:39:30Z</time>
      </trkpt>
      <trkpt lat="45.3629" lon="6.13233">
        <ele>1519.0205078125</ele>
        <time>2012-08-09T13:39:36Z</time>
      </trkpt>
      <trkpt lat="45.36298" lon="6.13229">
        <ele>1531.5173339844</ele>
        <time>2012-08-09T13:39:41Z</time>
      </trkpt>
      <trkpt lat="45.3631" lon="6.13225">
        <ele>1536.32421875</ele>
        <time>2012-08-09T13:39:46Z</time>
      </trkpt>
      <trkpt lat="45.36317" lon="6.13224">
        <ele>1542.5727539062</ele>
        <time>2012-08-09T13:39:50Z</time>
      </trkpt>
      <trkpt lat="45.36325" lon="6.13227">
        <ele>1550.2634277344</ele>
        <time>2012-08-09T13:39:54Z</time>
      </trkpt>
      <trkpt lat="45.36331" lon="6.1323">
        <ele>1553.6279296875</ele>
        <time>2012-08-09T13:39:58Z</time>
      </trkpt>
      <trkpt lat="45.36341" lon="6.13242">
        <ele>1554.5891113281</ele>
        <time>2012-08-09T13:40:02Z</time>
      </trkpt>
      <trkpt lat="45.36351" lon="6.13254">
        <ele>1556.0310058594</ele>
        <time>2012-08-09T13:40:07Z</time>
      </trkpt>
      <trkpt lat="45.36342" lon="6.13261">
        <ele>1559.3957519531</ele>
        <time>2012-08-09T13:40:11Z</time>
      </trkpt>
      <trkpt lat="45.36333" lon="6.13258">
        <ele>1558.9150390625</ele>
        <time>2012-08-09T13:40:15Z</time>
      </trkpt>
      <trkpt lat="45.36323" lon="6.13252">
        <ele>1556.51171875</ele>
        <time>2012-08-09T13:40:20Z</time>
      </trkpt>
      <trkpt lat="45.36311" lon="6.13262">
        <ele>1554.1086425781</ele>
        <time>2012-08-09T13:40:26Z</time>
      </trkpt>
      <trkpt lat="45.36304" lon="6.13277">
        <ele>1547.3791503906</ele>
        <time>2012-08-09T13:40:30Z</time>
      </trkpt>
      <trkpt lat="45.36304" lon="6.13284">
        <ele>1544.4951171875</ele>
        <time>2012-08-09T13:40:32Z</time>
      </trkpt>
      <trkpt lat="45.36313" lon="6.13297">
        <ele>1530.0754394531</ele>
        <time>2012-08-09T13:40:37Z</time>
      </trkpt>
      <trkpt lat="45.36329" lon="6.13309">
        <ele>1509.8876953125</ele>
        <time>2012-08-09T13:40:41Z</time>
      </trkpt>
      <trkpt lat="45.36333" lon="6.13318">
        <ele>1502.6779785156</ele>
        <time>2012-08-09T13:40:44Z</time>
      </trkpt>
      <trkpt lat="45.3633" lon="6.13335">
        <ele>1494.5065917969</ele>
        <time>2012-08-09T13:40:49Z</time>
      </trkpt>
      <trkpt lat="45.36319" lon="6.13345">
        <ele>1491.1420898438</ele>
        <time>2012-08-09T13:40:53Z</time>
      </trkpt>
      <trkpt lat="45.36307" lon="6.13356">
        <ele>1486.8161621094</ele>
        <time>2012-08-09T13:40:58Z</time>
      </trkpt>
      <trkpt lat="45.36296" lon="6.13361">
        <ele>1485.8549804688</ele>
        <time>2012-08-09T13:41:02Z</time>
      </trkpt>
      <trkpt lat="45.36281" lon="6.13372">
        <ele>1492.5842285156</ele>
        <time>2012-08-09T13:41:07Z</time>
      </trkpt>
      <trkpt lat="45.36267" lon="6.13381">
        <ele>1500.7553710938</ele>
        <time>2012-08-09T13:41:11Z</time>
      </trkpt>
      <trkpt lat="45.36251" lon="6.13393">
        <ele>1509.8876953125</ele>
        <time>2012-08-09T13:41:15Z</time>
      </trkpt>
      <trkpt lat="45.36243" lon="6.134">
        <ele>1512.291015625</ele>
        <time>2012-08-09T13:41:18Z</time>
      </trkpt>
      <trkpt lat="45.36233" lon="6.13405">
        <ele>1506.5231933594</ele>
        <time>2012-08-09T13:41:23Z</time>
      </trkpt>
      <trkpt lat="45.36222" lon="6.13406">
        <ele>1500.7553710938</ele>
        <time>2012-08-09T13:41:28Z</time>
      </trkpt>
      <trkpt lat="45.36209" lon="6.13408">
        <ele>1509.8876953125</ele>
        <time>2012-08-09T13:41:32Z</time>
      </trkpt>
      <trkpt lat="45.362" lon="6.13413">
        <ele>1503.6394042969</ele>
        <time>2012-08-09T13:41:36Z</time>
      </trkpt>
      <trkpt lat="45.3619" lon="6.13416">
        <ele>1501.2360839844</ele>
        <time>2012-08-09T13:41:40Z</time>
      </trkpt>
      <trkpt lat="45.36181" lon="6.13423">
        <ele>1499.3132324219</ele>
        <time>2012-08-09T13:41:45Z</time>
      </trkpt>
      <trkpt lat="45.36169" lon="6.13435">
        <ele>1499.7939453125</ele>
        <time>2012-08-09T13:41:50Z</time>
      </trkpt>
      <trkpt lat="45.36168" lon="6.13437">
        <ele>1500.2749023438</ele>
        <time>2012-08-09T13:41:51Z</time>
      </trkpt>
      <trkpt lat="45.36168" lon="6.13457">
        <ele>1491.1420898438</ele>
        <time>2012-08-09T13:41:57Z</time>
      </trkpt>
      <trkpt lat="45.36172" lon="6.13475">
        <ele>1484.8937988281</ele>
        <time>2012-08-09T13:42:02Z</time>
      </trkpt>
      <trkpt lat="45.36172" lon="6.1349">
        <ele>1479.6062011719</ele>
        <time>2012-08-09T13:42:06Z</time>
      </trkpt>
      <trkpt lat="45.36173" lon="6.13502">
        <ele>1475.7609863281</ele>
        <time>2012-08-09T13:42:09Z</time>
      </trkpt>
      <trkpt lat="45.3617" lon="6.13521">
        <ele>1468.0705566406</ele>
        <time>2012-08-09T13:42:14Z</time>
      </trkpt>
      <trkpt lat="45.36167" lon="6.1354">
        <ele>1464.2250976562</ele>
        <time>2012-08-09T13:42:19Z</time>
      </trkpt>
      <trkpt lat="45.36166" lon="6.13543">
        <ele>1464.2250976562</ele>
        <time>2012-08-09T13:42:20Z</time>
      </trkpt>
      <trkpt lat="45.3616" lon="6.13555">
        <ele>1458.4572753906</ele>
        <time>2012-08-09T13:42:24Z</time>
      </trkpt>
      <trkpt lat="45.36148" lon="6.1357">
        <ele>1456.0539550781</ele>
        <time>2012-08-09T13:42:30Z</time>
      </trkpt>
      <trkpt lat="45.36145" lon="6.13572">
        <ele>1457.0153808594</ele>
        <time>2012-08-09T13:42:31Z</time>
      </trkpt>
      <trkpt lat="45.36127" lon="6.13583">
        <ele>1463.7443847656</ele>
        <time>2012-08-09T13:42:37Z</time>
      </trkpt>
      <trkpt lat="45.36123" lon="6.13592">
        <ele>1465.6672363281</ele>
        <time>2012-08-09T13:42:40Z</time>
      </trkpt>
      <trkpt lat="45.36133" lon="6.13596">
        <ele>1460.3798828125</ele>
        <time>2012-08-09T13:42:45Z</time>
      </trkpt>
      <trkpt lat="45.36135" lon="6.13596">
        <ele>1459.8991699219</ele>
        <time>2012-08-09T13:42:46Z</time>
      </trkpt>
      <trkpt lat="45.36153" lon="6.1359">
        <ele>1457.49609375</ele>
        <time>2012-08-09T13:42:53Z</time>
      </trkpt>
      <trkpt lat="45.36166" lon="6.13582">
        <ele>1456.5346679688</ele>
        <time>2012-08-09T13:42:58Z</time>
      </trkpt>
      <trkpt lat="45.36176" lon="6.1358">
        <ele>1456.5346679688</ele>
        <time>2012-08-09T13:43:02Z</time>
      </trkpt>
      <trkpt lat="45.36187" lon="6.13579">
        <ele>1456.5346679688</ele>
        <time>2012-08-09T13:43:06Z</time>
      </trkpt>
      <trkpt lat="45.362" lon="6.13577">
        <ele>1455.0927734375</ele>
        <time>2012-08-09T13:43:11Z</time>
      </trkpt>
      <trkpt lat="45.3621" lon="6.13564">
        <ele>1452.2087402344</ele>
        <time>2012-08-09T13:43:16Z</time>
      </trkpt>
      <trkpt lat="45.36216" lon="6.13545">
        <ele>1452.2087402344</ele>
        <time>2012-08-09T13:43:21Z</time>
      </trkpt>
      <trkpt lat="45.36219" lon="6.13529">
        <ele>1450.2861328125</ele>
        <time>2012-08-09T13:43:25Z</time>
      </trkpt>
      <trkpt lat="45.36225" lon="6.13516">
        <ele>1453.6508789062</ele>
        <time>2012-08-09T13:43:29Z</time>
      </trkpt>
      <trkpt lat="45.3623" lon="6.1351">
        <ele>1456.0539550781</ele>
        <time>2012-08-09T13:43:32Z</time>
      </trkpt>
      <trkpt lat="45.36245" lon="6.13511">
        <ele>1462.783203125</ele>
        <time>2012-08-09T13:43:38Z</time>
      </trkpt>
      <trkpt lat="45.36253" lon="6.13513">
        <ele>1465.1865234375</ele>
        <time>2012-08-09T13:43:42Z</time>
      </trkpt>
      <trkpt lat="45.36262" lon="6.13514">
        <ele>1465.6672363281</ele>
        <time>2012-08-09T13:43:46Z</time>
      </trkpt>
      <trkpt lat="45.36276" lon="6.1351">
        <ele>1467.1091308594</ele>
        <time>2012-08-09T13:43:51Z</time>
      </trkpt>
      <trkpt lat="45.36287" lon="6.13507">
        <ele>1467.5895996094</ele>
        <time>2012-08-09T13:43:56Z</time>
      </trkpt>
      <trkpt lat="45.36301" lon="6.13501">
        <ele>1457.9768066406</ele>
        <time>2012-08-09T13:44:01Z</time>
      </trkpt>
      <trkpt lat="45.36303" lon="6.13501">
        <ele>1456.5346679688</ele>
        <time>2012-08-09T13:44:02Z</time>
      </trkpt>
      <trkpt lat="45.36311" lon="6.13514">
        <ele>1451.7280273438</ele>
        <time>2012-08-09T13:44:07Z</time>
      </trkpt>
      <trkpt lat="45.36308" lon="6.13521">
        <ele>1447.8828125</ele>
        <time>2012-08-09T13:44:09Z</time>
      </trkpt>
      <trkpt lat="45.36304" lon="6.13537">
        <ele>1439.7116699219</ele>
        <time>2012-08-09T13:44:14Z</time>
      </trkpt>
      <trkpt lat="45.36303" lon="6.13556">
        <ele>1433.462890625</ele>
        <time>2012-08-09T13:44:19Z</time>
      </trkpt>
      <trkpt lat="45.36304" lon="6.13567">
        <ele>1432.5017089844</ele>
        <time>2012-08-09T13:44:22Z</time>
      </trkpt>
      <trkpt lat="45.36297" lon="6.13586">
        <ele>1428.6564941406</ele>
        <time>2012-08-09T13:44:27Z</time>
      </trkpt>
      <trkpt lat="45.36287" lon="6.13605">
        <ele>1426.2531738281</ele>
        <time>2012-08-09T13:44:33Z</time>
      </trkpt>
      <trkpt lat="45.36275" lon="6.13619">
        <ele>1424.3305664062</ele>
        <time>2012-08-09T13:44:38Z</time>
      </trkpt>
      <trkpt lat="45.36261" lon="6.1363">
        <ele>1425.2917480469</ele>
        <time>2012-08-09T13:44:43Z</time>
      </trkpt>
      <trkpt lat="45.36245" lon="6.13641">
        <ele>1431.5402832031</ele>
        <time>2012-08-09T13:44:48Z</time>
      </trkpt>
      <trkpt lat="45.36234" lon="6.13648">
        <ele>1437.3083496094</ele>
        <time>2012-08-09T13:44:52Z</time>
      </trkpt>
      <trkpt lat="45.3622" lon="6.13658">
        <ele>1445.4794921875</ele>
        <time>2012-08-09T13:44:57Z</time>
      </trkpt>
      <trkpt lat="45.36218" lon="6.1366">
        <ele>1444.0375976562</ele>
        <time>2012-08-09T13:44:58Z</time>
      </trkpt>
      <trkpt lat="45.36206" lon="6.13673">
        <ele>1442.1149902344</ele>
        <time>2012-08-09T13:45:03Z</time>
      </trkpt>
      <trkpt lat="45.36193" lon="6.13684">
        <ele>1443.076171875</ele>
        <time>2012-08-09T13:45:08Z</time>
      </trkpt>
      <trkpt lat="45.36184" lon="6.13691">
        <ele>1445.9602050781</ele>
        <time>2012-08-09T13:45:11Z</time>
      </trkpt>
      <trkpt lat="45.36178" lon="6.13698">
        <ele>1440.6728515625</ele>
        <time>2012-08-09T13:45:15Z</time>
      </trkpt>
      <trkpt lat="45.36171" lon="6.13703">
        <ele>1438.2697753906</ele>
        <time>2012-08-09T13:45:18Z</time>
      </trkpt>
      <trkpt lat="45.36159" lon="6.13714">
        <ele>1438.2697753906</ele>
        <time>2012-08-09T13:45:23Z</time>
      </trkpt>
      <trkpt lat="45.3615" lon="6.13725">
        <ele>1426.7338867188</ele>
        <time>2012-08-09T13:45:28Z</time>
      </trkpt>
      <trkpt lat="45.36134" lon="6.13737">
        <ele>1431.5402832031</ele>
        <time>2012-08-09T13:45:34Z</time>
      </trkpt>
      <trkpt lat="45.36126" lon="6.13739">
        <ele>1431.5402832031</ele>
        <time>2012-08-09T13:45:37Z</time>
      </trkpt>
      <trkpt lat="45.36116" lon="6.13744">
        <ele>1430.0983886719</ele>
        <time>2012-08-09T13:45:41Z</time>
      </trkpt>
      <trkpt lat="45.36102" lon="6.13749">
        <ele>1433.9436035156</ele>
        <time>2012-08-09T13:45:46Z</time>
      </trkpt>
      <trkpt lat="45.3609" lon="6.13753">
        <ele>1437.3083496094</ele>
        <time>2012-08-09T13:45:50Z</time>
      </trkpt>
      <trkpt lat="45.36089" lon="6.13754">
        <ele>1435.8662109375</ele>
        <time>2012-08-09T13:45:51Z</time>
      </trkpt>
      <trkpt lat="45.36075" lon="6.13762">
        <ele>1430.0983886719</ele>
        <time>2012-08-09T13:45:57Z</time>
      </trkpt>
      <trkpt lat="45.36064" lon="6.13769">
        <ele>1436.3471679688</ele>
        <time>2012-08-09T13:46:01Z</time>
      </trkpt>
      <trkpt lat="45.36057" lon="6.13775">
        <ele>1438.7504882812</ele>
        <time>2012-08-09T13:46:05Z</time>
      </trkpt>
      <trkpt lat="45.36053" lon="6.13796">
        <ele>1439.2309570312</ele>
        <time>2012-08-09T13:46:11Z</time>
      </trkpt>
      <trkpt lat="45.36052" lon="6.13811">
        <ele>1428.17578125</ele>
        <time>2012-08-09T13:46:16Z</time>
      </trkpt>
      <trkpt lat="45.36053" lon="6.13827">
        <ele>1409.4301757812</ele>
        <time>2012-08-09T13:46:21Z</time>
      </trkpt>
      <trkpt lat="45.36052" lon="6.13842">
        <ele>1402.7006835938</ele>
        <time>2012-08-09T13:46:25Z</time>
      </trkpt>
      <trkpt lat="45.36052" lon="6.13845">
        <ele>1401.2587890625</ele>
        <time>2012-08-09T13:46:26Z</time>
      </trkpt>
      <trkpt lat="45.36045" lon="6.13863">
        <ele>1391.1650390625</ele>
        <time>2012-08-09T13:46:32Z</time>
      </trkpt>
      <trkpt lat="45.36044" lon="6.13868">
        <ele>1390.6843261719</ele>
        <time>2012-08-09T13:46:34Z</time>
      </trkpt>
      <trkpt lat="45.36039" lon="6.13884">
        <ele>1388.28125</ele>
        <time>2012-08-09T13:46:39Z</time>
      </trkpt>
      <trkpt lat="45.36031" lon="6.13901">
        <ele>1384.4357910156</ele>
        <time>2012-08-09T13:46:44Z</time>
      </trkpt>
      <trkpt lat="45.36025" lon="6.13911">
        <ele>1381.5517578125</ele>
        <time>2012-08-09T13:46:47Z</time>
      </trkpt>
      <trkpt lat="45.36015" lon="6.13925">
        <ele>1380.1098632812</ele>
        <time>2012-08-09T13:46:52Z</time>
      </trkpt>
      <trkpt lat="45.36002" lon="6.13933">
        <ele>1382.5131835938</ele>
        <time>2012-08-09T13:46:57Z</time>
      </trkpt>
      <trkpt lat="45.35991" lon="6.13945">
        <ele>1380.5905761719</ele>
        <time>2012-08-09T13:47:02Z</time>
      </trkpt>
      <trkpt lat="45.35978" lon="6.13956">
        <ele>1387.3195800781</ele>
        <time>2012-08-09T13:47:07Z</time>
      </trkpt>
      <trkpt lat="45.3597" lon="6.13969">
        <ele>1402.7006835938</ele>
        <time>2012-08-09T13:47:11Z</time>
      </trkpt>
      <trkpt lat="45.35968" lon="6.13979">
        <ele>1398.3747558594</ele>
        <time>2012-08-09T13:47:15Z</time>
      </trkpt>
      <trkpt lat="45.35961" lon="6.13989">
        <ele>1390.2038574219</ele>
        <time>2012-08-09T13:47:20Z</time>
      </trkpt>
      <trkpt lat="45.3596" lon="6.13992">
        <ele>1388.7619628906</ele>
        <time>2012-08-09T13:47:21Z</time>
      </trkpt>
      <trkpt lat="45.35958" lon="6.14006">
        <ele>1381.0712890625</ele>
        <time>2012-08-09T13:47:25Z</time>
      </trkpt>
      <trkpt lat="45.35957" lon="6.14012">
        <ele>1378.66796875</ele>
        <time>2012-08-09T13:47:27Z</time>
      </trkpt>
      <trkpt lat="45.35956" lon="6.14022">
        <ele>1375.7839355469</ele>
        <time>2012-08-09T13:47:32Z</time>
      </trkpt>
      <trkpt lat="45.35956" lon="6.14035">
        <ele>1374.3420410156</ele>
        <time>2012-08-09T13:47:39Z</time>
      </trkpt>
      <trkpt lat="45.35958" lon="6.14048">
        <ele>1372.9001464844</ele>
        <time>2012-08-09T13:47:44Z</time>
      </trkpt>
      <trkpt lat="45.35963" lon="6.14063">
        <ele>1373.380859375</ele>
        <time>2012-08-09T13:47:49Z</time>
      </trkpt>
      <trkpt lat="45.3597" lon="6.14079">
        <ele>1373.380859375</ele>
        <time>2012-08-09T13:47:54Z</time>
      </trkpt>
      <trkpt lat="45.35977" lon="6.14094">
        <ele>1369.5354003906</ele>
        <time>2012-08-09T13:47:58Z</time>
      </trkpt>
      <trkpt lat="45.35981" lon="6.14113">
        <ele>1366.1706542969</ele>
        <time>2012-08-09T13:48:03Z</time>
      </trkpt>
      <trkpt lat="45.3598" lon="6.14117">
        <ele>1365.6901855469</ele>
        <time>2012-08-09T13:48:04Z</time>
      </trkpt>
      <trkpt lat="45.35978" lon="6.14137">
        <ele>1361.3642578125</ele>
        <time>2012-08-09T13:48:09Z</time>
      </trkpt>
      <trkpt lat="45.35975" lon="6.14154">
        <ele>1358.4802246094</ele>
        <time>2012-08-09T13:48:13Z</time>
      </trkpt>
      <trkpt lat="45.35973" lon="6.14162">
        <ele>1356.0769042969</ele>
        <time>2012-08-09T13:48:15Z</time>
      </trkpt>
      <trkpt lat="45.3597" lon="6.14184">
        <ele>1353.1928710938</ele>
        <time>2012-08-09T13:48:20Z</time>
      </trkpt>
      <trkpt lat="45.35965" lon="6.14197">
        <ele>1349.8283691406</ele>
        <time>2012-08-09T13:48:24Z</time>
      </trkpt>
      <trkpt lat="45.35958" lon="6.14205">
        <ele>1347.9057617188</ele>
        <time>2012-08-09T13:48:27Z</time>
      </trkpt>
      <trkpt lat="45.35953" lon="6.1421">
        <ele>1346.4638671875</ele>
        <time>2012-08-09T13:48:30Z</time>
      </trkpt>
      <trkpt lat="45.35937" lon="6.14218">
        <ele>1351.7509765625</ele>
        <time>2012-08-09T13:48:36Z</time>
      </trkpt>
      <trkpt lat="45.35932" lon="6.14222">
        <ele>1350.7895507812</ele>
        <time>2012-08-09T13:48:38Z</time>
      </trkpt>
      <trkpt lat="45.35921" lon="6.14229">
        <ele>1352.7121582031</ele>
        <time>2012-08-09T13:48:43Z</time>
      </trkpt>
      <trkpt lat="45.35909" lon="6.14235">
        <ele>1352.7121582031</ele>
        <time>2012-08-09T13:48:48Z</time>
      </trkpt>
      <trkpt lat="45.35899" lon="6.14242">
        <ele>1350.3090820312</ele>
        <time>2012-08-09T13:48:52Z</time>
      </trkpt>
      <trkpt lat="45.35889" lon="6.14248">
        <ele>1355.5961914062</ele>
        <time>2012-08-09T13:48:56Z</time>
      </trkpt>
      <trkpt lat="45.35876" lon="6.14258">
        <ele>1355.5961914062</ele>
        <time>2012-08-09T13:49:01Z</time>
      </trkpt>
      <trkpt lat="45.35863" lon="6.1427">
        <ele>1360.4028320312</ele>
        <time>2012-08-09T13:49:06Z</time>
      </trkpt>
      <trkpt lat="45.35846" lon="6.1428">
        <ele>1357.9997558594</ele>
        <time>2012-08-09T13:49:13Z</time>
      </trkpt>
      <trkpt lat="45.35832" lon="6.14289">
        <ele>1353.1928710938</ele>
        <time>2012-08-09T13:49:19Z</time>
      </trkpt>
      <trkpt lat="45.35823" lon="6.14295">
        <ele>1354.634765625</ele>
        <time>2012-08-09T13:49:22Z</time>
      </trkpt>
      <trkpt lat="45.35812" lon="6.14304">
        <ele>1362.3254394531</ele>
        <time>2012-08-09T13:49:26Z</time>
      </trkpt>
      <trkpt lat="45.35801" lon="6.14316">
        <ele>1365.2094726562</ele>
        <time>2012-08-09T13:49:30Z</time>
      </trkpt>
      <trkpt lat="45.35794" lon="6.14332">
        <ele>1363.2868652344</ele>
        <time>2012-08-09T13:49:35Z</time>
      </trkpt>
      <trkpt lat="45.3579" lon="6.14352">
        <ele>1346.9443359375</ele>
        <time>2012-08-09T13:49:41Z</time>
      </trkpt>
      <trkpt lat="45.35783" lon="6.14366">
        <ele>1333.4858398438</ele>
        <time>2012-08-09T13:49:46Z</time>
      </trkpt>
      <trkpt lat="45.35782" lon="6.14372">
        <ele>1329.1599121094</ele>
        <time>2012-08-09T13:49:48Z</time>
      </trkpt>
      <trkpt lat="45.35781" lon="6.1439">
        <ele>1316.6628417969</ele>
        <time>2012-08-09T13:49:53Z</time>
      </trkpt>
      <trkpt lat="45.35778" lon="6.14396">
        <ele>1313.7788085938</ele>
        <time>2012-08-09T13:49:55Z</time>
      </trkpt>
      <trkpt lat="45.35775" lon="6.14409">
        <ele>1309.93359375</ele>
        <time>2012-08-09T13:49:59Z</time>
      </trkpt>
      <trkpt lat="45.35772" lon="6.14423">
        <ele>1305.126953125</ele>
        <time>2012-08-09T13:50:03Z</time>
      </trkpt>
      <trkpt lat="45.35765" lon="6.14435">
        <ele>1305.126953125</ele>
        <time>2012-08-09T13:50:07Z</time>
      </trkpt>
      <trkpt lat="45.35757" lon="6.14446">
        <ele>1305.6076660156</ele>
        <time>2012-08-09T13:50:11Z</time>
      </trkpt>
      <trkpt lat="45.35748" lon="6.14459">
        <ele>1306.5688476562</ele>
        <time>2012-08-09T13:50:16Z</time>
      </trkpt>
      <trkpt lat="45.3574" lon="6.14469">
        <ele>1305.126953125</ele>
        <time>2012-08-09T13:50:20Z</time>
      </trkpt>
      <trkpt lat="45.35732" lon="6.14482">
        <ele>1306.0881347656</ele>
        <time>2012-08-09T13:50:25Z</time>
      </trkpt>
      <trkpt lat="45.35729" lon="6.14496">
        <ele>1306.5688476562</ele>
        <time>2012-08-09T13:50:29Z</time>
      </trkpt>
      <trkpt lat="45.3573" lon="6.145">
        <ele>1306.5688476562</ele>
        <time>2012-08-09T13:50:30Z</time>
      </trkpt>
      <trkpt lat="45.35728" lon="6.14519">
        <ele>1305.126953125</ele>
        <time>2012-08-09T13:50:35Z</time>
      </trkpt>
      <trkpt lat="45.35727" lon="6.14523">
        <ele>1304.6462402344</ele>
        <time>2012-08-09T13:50:36Z</time>
      </trkpt>
      <trkpt lat="45.35723" lon="6.14546">
        <ele>1301.2817382812</ele>
        <time>2012-08-09T13:50:42Z</time>
      </trkpt>
      <trkpt lat="45.35723" lon="6.1455">
        <ele>1300.3205566406</ele>
        <time>2012-08-09T13:50:43Z</time>
      </trkpt>
      <trkpt lat="45.35722" lon="6.14568">
        <ele>1297.9172363281</ele>
        <time>2012-08-09T13:50:48Z</time>
      </trkpt>
      <trkpt lat="45.3572" lon="6.14585">
        <ele>1295.5139160156</ele>
        <time>2012-08-09T13:50:52Z</time>
      </trkpt>
      <trkpt lat="45.35714" lon="6.14605">
        <ele>1291.1877441406</ele>
        <time>2012-08-09T13:50:57Z</time>
      </trkpt>
      <trkpt lat="45.35709" lon="6.14623">
        <ele>1288.3039550781</ele>
        <time>2012-08-09T13:51:02Z</time>
      </trkpt>
      <trkpt lat="45.35701" lon="6.14643">
        <ele>1283.9780273438</ele>
        <time>2012-08-09T13:51:08Z</time>
      </trkpt>
      <trkpt lat="45.35697" lon="6.14658">
        <ele>1282.0554199219</ele>
        <time>2012-08-09T13:51:12Z</time>
      </trkpt>
      <trkpt lat="45.35695" lon="6.14677">
        <ele>1279.1713867188</ele>
        <time>2012-08-09T13:51:17Z</time>
      </trkpt>
      <trkpt lat="45.35697" lon="6.14693">
        <ele>1277.2490234375</ele>
        <time>2012-08-09T13:51:22Z</time>
      </trkpt>
      <trkpt lat="45.35703" lon="6.14701">
        <ele>1276.7683105469</ele>
        <time>2012-08-09T13:51:26Z</time>
      </trkpt>
      <trkpt lat="45.35714" lon="6.14712">
        <ele>1278.2102050781</ele>
        <time>2012-08-09T13:51:32Z</time>
      </trkpt>
      <trkpt lat="45.35719" lon="6.14713">
        <ele>1280.1328125</ele>
        <time>2012-08-09T13:51:34Z</time>
      </trkpt>
      <trkpt lat="45.35731" lon="6.14713">
        <ele>1284.4587402344</ele>
        <time>2012-08-09T13:51:39Z</time>
      </trkpt>
      <trkpt lat="45.35744" lon="6.14706">
        <ele>1287.3425292969</ele>
        <time>2012-08-09T13:51:44Z</time>
      </trkpt>
      <trkpt lat="45.35756" lon="6.147">
        <ele>1287.3425292969</ele>
        <time>2012-08-09T13:51:48Z</time>
      </trkpt>
      <trkpt lat="45.35763" lon="6.14696">
        <ele>1286.8618164062</ele>
        <time>2012-08-09T13:51:52Z</time>
      </trkpt>
      <trkpt lat="45.35774" lon="6.14694">
        <ele>1288.3039550781</ele>
        <time>2012-08-09T13:51:56Z</time>
      </trkpt>
      <trkpt lat="45.35781" lon="6.14689">
        <ele>1289.7458496094</ele>
        <time>2012-08-09T13:52:01Z</time>
      </trkpt>
      <trkpt lat="45.35788" lon="6.14686">
        <ele>1293.1105957031</ele>
        <time>2012-08-09T13:52:06Z</time>
      </trkpt>
      <trkpt lat="45.35792" lon="6.14684">
        <ele>1294.0720214844</ele>
        <time>2012-08-09T13:52:11Z</time>
      </trkpt>
      <trkpt lat="45.35793" lon="6.14683">
        <ele>1294.0720214844</ele>
        <time>2012-08-09T13:52:12Z</time>
      </trkpt>
      <trkpt lat="45.35798" lon="6.14681">
        <ele>1293.1105957031</ele>
        <time>2012-08-09T13:52:16Z</time>
      </trkpt>
      <trkpt lat="45.35807" lon="6.1468">
        <ele>1294.0720214844</ele>
        <time>2012-08-09T13:52:23Z</time>
      </trkpt>
      <trkpt lat="45.35809" lon="6.14679">
        <ele>1294.0720214844</ele>
        <time>2012-08-09T13:52:24Z</time>
      </trkpt>
      <trkpt lat="45.35816" lon="6.1467">
        <ele>1290.70703125</ele>
        <time>2012-08-09T13:52:31Z</time>
      </trkpt>
      <trkpt lat="45.35821" lon="6.14658">
        <ele>1291.1877441406</ele>
        <time>2012-08-09T13:52:37Z</time>
      </trkpt>
      <trkpt lat="45.35826" lon="6.14649">
        <ele>1294.5524902344</ele>
        <time>2012-08-09T13:52:41Z</time>
      </trkpt>
      <trkpt lat="45.35829" lon="6.14644">
        <ele>1296.4753417969</ele>
        <time>2012-08-09T13:52:44Z</time>
      </trkpt>
      <trkpt lat="45.35834" lon="6.14634">
        <ele>1298.3977050781</ele>
        <time>2012-08-09T13:52:50Z</time>
      </trkpt>
      <trkpt lat="45.3584" lon="6.14624">
        <ele>1296.9558105469</ele>
        <time>2012-08-09T13:52:54Z</time>
      </trkpt>
      <trkpt lat="45.35847" lon="6.14612">
        <ele>1295.033203125</ele>
        <time>2012-08-09T13:52:59Z</time>
      </trkpt>
      <trkpt lat="45.35854" lon="6.14601">
        <ele>1294.5524902344</ele>
        <time>2012-08-09T13:53:03Z</time>
      </trkpt>
      <trkpt lat="45.35862" lon="6.14588">
        <ele>1293.1105957031</ele>
        <time>2012-08-09T13:53:08Z</time>
      </trkpt>
      <trkpt lat="45.3587" lon="6.14577">
        <ele>1292.1494140625</ele>
        <time>2012-08-09T13:53:12Z</time>
      </trkpt>
      <trkpt lat="45.3588" lon="6.1457">
        <ele>1292.1494140625</ele>
        <time>2012-08-09T13:53:16Z</time>
      </trkpt>
      <trkpt lat="45.3589" lon="6.1456">
        <ele>1290.2265625</ele>
        <time>2012-08-09T13:53:21Z</time>
      </trkpt>
      <trkpt lat="45.35896" lon="6.14554">
        <ele>1289.2651367188</ele>
        <time>2012-08-09T13:53:25Z</time>
      </trkpt>
      <trkpt lat="45.35903" lon="6.14548">
        <ele>1288.3039550781</ele>
        <time>2012-08-09T13:53:30Z</time>
      </trkpt>
      <trkpt lat="45.35911" lon="6.14543">
        <ele>1287.8232421875</ele>
        <time>2012-08-09T13:53:34Z</time>
      </trkpt>
      <trkpt lat="45.35922" lon="6.14535">
        <ele>1286.8618164062</ele>
        <time>2012-08-09T13:53:39Z</time>
      </trkpt>
      <trkpt lat="45.3593" lon="6.14531">
        <ele>1286.8618164062</ele>
        <time>2012-08-09T13:53:43Z</time>
      </trkpt>
      <trkpt lat="45.35932" lon="6.1453">
        <ele>1286.8618164062</ele>
        <time>2012-08-09T13:53:44Z</time>
      </trkpt>
      <trkpt lat="45.35947" lon="6.1452">
        <ele>1286.3813476562</ele>
        <time>2012-08-09T13:53:50Z</time>
      </trkpt>
      <trkpt lat="45.3596" lon="6.14513">
        <ele>1286.8618164062</ele>
        <time>2012-08-09T13:53:55Z</time>
      </trkpt>
      <trkpt lat="45.35969" lon="6.1451">
        <ele>1286.8618164062</ele>
        <time>2012-08-09T13:53:59Z</time>
      </trkpt>
      <trkpt lat="45.35984" lon="6.14503">
        <ele>1283.4973144531</ele>
        <time>2012-08-09T13:54:05Z</time>
      </trkpt>
      <trkpt lat="45.35991" lon="6.14494">
        <ele>1280.6135253906</ele>
        <time>2012-08-09T13:54:09Z</time>
      </trkpt>
      <trkpt lat="45.35995" lon="6.1449">
        <ele>1279.1713867188</ele>
        <time>2012-08-09T13:54:11Z</time>
      </trkpt>
      <trkpt lat="45.36003" lon="6.14487">
        <ele>1277.2490234375</ele>
        <time>2012-08-09T13:54:15Z</time>
      </trkpt>
      <trkpt lat="45.36015" lon="6.14487">
        <ele>1277.2490234375</ele>
        <time>2012-08-09T13:54:20Z</time>
      </trkpt>
      <trkpt lat="45.36032" lon="6.14489">
        <ele>1284.4587402344</ele>
        <time>2012-08-09T13:54:26Z</time>
      </trkpt>
      <trkpt lat="45.36045" lon="6.14493">
        <ele>1289.2651367188</ele>
        <time>2012-08-09T13:54:30Z</time>
      </trkpt>
      <trkpt lat="45.36058" lon="6.145">
        <ele>1295.9946289062</ele>
        <time>2012-08-09T13:54:34Z</time>
      </trkpt>
      <trkpt lat="45.36071" lon="6.14503">
        <ele>1299.83984375</ele>
        <time>2012-08-09T13:54:39Z</time>
      </trkpt>
      <trkpt lat="45.36078" lon="6.14505">
        <ele>1291.6684570312</ele>
        <time>2012-08-09T13:54:43Z</time>
      </trkpt>
      <trkpt lat="45.36083" lon="6.14501">
        <ele>1282.0554199219</ele>
        <time>2012-08-09T13:54:47Z</time>
      </trkpt>
      <trkpt lat="45.36092" lon="6.14495">
        <ele>1275.3259277344</ele>
        <time>2012-08-09T13:54:51Z</time>
      </trkpt>
      <trkpt lat="45.361" lon="6.14487">
        <ele>1270.0388183594</ele>
        <time>2012-08-09T13:54:55Z</time>
      </trkpt>
      <trkpt lat="45.36111" lon="6.14487">
        <ele>1267.6354980469</ele>
        <time>2012-08-09T13:54:59Z</time>
      </trkpt>
      <trkpt lat="45.36121" lon="6.14488">
        <ele>1266.6743164062</ele>
        <time>2012-08-09T13:55:03Z</time>
      </trkpt>
      <trkpt lat="45.36132" lon="6.14489">
        <ele>1268.1162109375</ele>
        <time>2012-08-09T13:55:07Z</time>
      </trkpt>
      <trkpt lat="45.36149" lon="6.14486">
        <ele>1268.5969238281</ele>
        <time>2012-08-09T13:55:13Z</time>
      </trkpt>
      <trkpt lat="45.36164" lon="6.14488">
        <ele>1270.0388183594</ele>
        <time>2012-08-09T13:55:18Z</time>
      </trkpt>
      <trkpt lat="45.36178" lon="6.14487">
        <ele>1273.4035644531</ele>
        <time>2012-08-09T13:55:23Z</time>
      </trkpt>
      <trkpt lat="45.36188" lon="6.1449">
        <ele>1273.8840332031</ele>
        <time>2012-08-09T13:55:27Z</time>
      </trkpt>
      <trkpt lat="45.36198" lon="6.14492">
        <ele>1274.8454589844</ele>
        <time>2012-08-09T13:55:31Z</time>
      </trkpt>
      <trkpt lat="45.36213" lon="6.14495">
        <ele>1277.7294921875</ele>
        <time>2012-08-09T13:55:36Z</time>
      </trkpt>
      <trkpt lat="45.36227" lon="6.14499">
        <ele>1279.1713867188</ele>
        <time>2012-08-09T13:55:42Z</time>
      </trkpt>
      <trkpt lat="45.3624" lon="6.14506">
        <ele>1280.1328125</ele>
        <time>2012-08-09T13:55:47Z</time>
      </trkpt>
      <trkpt lat="45.36243" lon="6.14507">
        <ele>1280.1328125</ele>
        <time>2012-08-09T13:55:48Z</time>
      </trkpt>
      <trkpt lat="45.36254" lon="6.1451">
        <ele>1278.2102050781</ele>
        <time>2012-08-09T13:55:53Z</time>
      </trkpt>
      <trkpt lat="45.36265" lon="6.14513">
        <ele>1278.6909179688</ele>
        <time>2012-08-09T13:55:58Z</time>
      </trkpt>
      <trkpt lat="45.36279" lon="6.14518">
        <ele>1282.0554199219</ele>
        <time>2012-08-09T13:56:03Z</time>
      </trkpt>
      <trkpt lat="45.36281" lon="6.14519">
        <ele>1282.0554199219</ele>
        <time>2012-08-09T13:56:04Z</time>
      </trkpt>
      <trkpt lat="45.36292" lon="6.14528">
        <ele>1282.5361328125</ele>
        <time>2012-08-09T13:56:10Z</time>
      </trkpt>
      <trkpt lat="45.36307" lon="6.14537">
        <ele>1288.3039550781</ele>
        <time>2012-08-09T13:56:15Z</time>
      </trkpt>
      <trkpt lat="45.36315" lon="6.14547">
        <ele>1287.3425292969</ele>
        <time>2012-08-09T13:56:20Z</time>
      </trkpt>
      <trkpt lat="45.36326" lon="6.14557">
        <ele>1284.4587402344</ele>
        <time>2012-08-09T13:56:26Z</time>
      </trkpt>
      <trkpt lat="45.36332" lon="6.14562">
        <ele>1283.0166015625</ele>
        <time>2012-08-09T13:56:30Z</time>
      </trkpt>
      <trkpt lat="45.36344" lon="6.14567">
        <ele>1281.5747070312</ele>
        <time>2012-08-09T13:56:35Z</time>
      </trkpt>
      <trkpt lat="45.36353" lon="6.14573">
        <ele>1278.2102050781</ele>
        <time>2012-08-09T13:56:40Z</time>
      </trkpt>
      <trkpt lat="45.36363" lon="6.14579">
        <ele>1274.3647460938</ele>
        <time>2012-08-09T13:56:45Z</time>
      </trkpt>
      <trkpt lat="45.36375" lon="6.1458">
        <ele>1269.5583496094</ele>
        <time>2012-08-09T13:56:50Z</time>
      </trkpt>
      <trkpt lat="45.36385" lon="6.14577">
        <ele>1266.6743164062</ele>
        <time>2012-08-09T13:56:55Z</time>
      </trkpt>
      <trkpt lat="45.36399" lon="6.14574">
        <ele>1262.8291015625</ele>
        <time>2012-08-09T13:57:01Z</time>
      </trkpt>
      <trkpt lat="45.36414" lon="6.1457">
        <ele>1259.4643554688</ele>
        <time>2012-08-09T13:57:07Z</time>
      </trkpt>
      <trkpt lat="45.36424" lon="6.14566">
        <ele>1258.0224609375</ele>
        <time>2012-08-09T13:57:11Z</time>
      </trkpt>
      <trkpt lat="45.36439" lon="6.1456">
        <ele>1256.099609375</ele>
        <time>2012-08-09T13:57:17Z</time>
      </trkpt>
      <trkpt lat="45.36452" lon="6.14554">
        <ele>1255.1384277344</ele>
        <time>2012-08-09T13:57:23Z</time>
      </trkpt>
      <trkpt lat="45.36465" lon="6.14546">
        <ele>1256.099609375</ele>
        <time>2012-08-09T13:57:28Z</time>
      </trkpt>
      <trkpt lat="45.3647" lon="6.14543">
        <ele>1256.5803222656</ele>
        <time>2012-08-09T13:57:30Z</time>
      </trkpt>
      <trkpt lat="45.36481" lon="6.14532">
        <ele>1254.1772460938</ele>
        <time>2012-08-09T13:57:35Z</time>
      </trkpt>
      <trkpt lat="45.36483" lon="6.14529">
        <ele>1252.7351074219</ele>
        <time>2012-08-09T13:57:36Z</time>
      </trkpt>
      <trkpt lat="45.36492" lon="6.14515">
        <ele>1250.33203125</ele>
        <time>2012-08-09T13:57:41Z</time>
      </trkpt>
      <trkpt lat="45.36497" lon="6.14502">
        <ele>1247.4479980469</ele>
        <time>2012-08-09T13:57:45Z</time>
      </trkpt>
      <trkpt lat="45.36499" lon="6.14499">
        <ele>1246.4868164062</ele>
        <time>2012-08-09T13:57:46Z</time>
      </trkpt>
      <trkpt lat="45.36506" lon="6.14479">
        <ele>1243.6025390625</ele>
        <time>2012-08-09T13:57:51Z</time>
      </trkpt>
      <trkpt lat="45.36511" lon="6.14472">
        <ele>1241.19921875</ele>
        <time>2012-08-09T13:57:54Z</time>
      </trkpt>
      <trkpt lat="45.36518" lon="6.14458">
        <ele>1239.2766113281</ele>
        <time>2012-08-09T13:57:59Z</time>
      </trkpt>
      <trkpt lat="45.36524" lon="6.14445">
        <ele>1237.8347167969</ele>
        <time>2012-08-09T13:58:03Z</time>
      </trkpt>
      <trkpt lat="45.36524" lon="6.14442">
        <ele>1237.3540039062</ele>
        <time>2012-08-09T13:58:04Z</time>
      </trkpt>
      <trkpt lat="45.36528" lon="6.14429">
        <ele>1238.3154296875</ele>
        <time>2012-08-09T13:58:08Z</time>
      </trkpt>
      <trkpt lat="45.36535" lon="6.14414">
        <ele>1237.3540039062</ele>
        <time>2012-08-09T13:58:13Z</time>
      </trkpt>
      <trkpt lat="45.3654" lon="6.14401">
        <ele>1234.9509277344</ele>
        <time>2012-08-09T13:58:17Z</time>
      </trkpt>
      <trkpt lat="45.36541" lon="6.14397">
        <ele>1234.9509277344</ele>
        <time>2012-08-09T13:58:18Z</time>
      </trkpt>
      <trkpt lat="45.36546" lon="6.14386">
        <ele>1233.9895019531</ele>
        <time>2012-08-09T13:58:22Z</time>
      </trkpt>
      <trkpt lat="45.36551" lon="6.14371">
        <ele>1234.4702148438</ele>
        <time>2012-08-09T13:58:30Z</time>
      </trkpt>
      <trkpt lat="45.36555" lon="6.14362">
        <ele>1233.5087890625</ele>
        <time>2012-08-09T13:58:33Z</time>
      </trkpt>
      <trkpt lat="45.36562" lon="6.14353">
        <ele>1233.9895019531</ele>
        <time>2012-08-09T13:58:37Z</time>
      </trkpt>
      <trkpt lat="45.36573" lon="6.14342">
        <ele>1233.0280761719</ele>
        <time>2012-08-09T13:58:42Z</time>
      </trkpt>
      <trkpt lat="45.36581" lon="6.14329">
        <ele>1230.1442871094</ele>
        <time>2012-08-09T13:58:47Z</time>
      </trkpt>
      <trkpt lat="45.36583" lon="6.14326">
        <ele>1229.6635742188</ele>
        <time>2012-08-09T13:58:48Z</time>
      </trkpt>
      <trkpt lat="45.36592" lon="6.14314">
        <ele>1227.2602539062</ele>
        <time>2012-08-09T13:58:53Z</time>
      </trkpt>
      <trkpt lat="45.36595" lon="6.14299">
        <ele>1222.9343261719</ele>
        <time>2012-08-09T13:58:58Z</time>
      </trkpt>
      <trkpt lat="45.36593" lon="6.14294">
        <ele>1223.4150390625</ele>
        <time>2012-08-09T13:59:00Z</time>
      </trkpt>
      <trkpt lat="45.3659" lon="6.1429">
        <ele>1223.8955078125</ele>
        <time>2012-08-09T13:59:02Z</time>
      </trkpt>
      <trkpt lat="45.3658" lon="6.14289">
        <ele>1223.8955078125</ele>
        <time>2012-08-09T13:59:06Z</time>
      </trkpt>
      <trkpt lat="45.3657" lon="6.14294">
        <ele>1222.4536132812</ele>
        <time>2012-08-09T13:59:11Z</time>
      </trkpt>
      <trkpt lat="45.36559" lon="6.14303">
        <ele>1220.0502929688</ele>
        <time>2012-08-09T13:59:16Z</time>
      </trkpt>
      <trkpt lat="45.36555" lon="6.14305">
        <ele>1224.3762207031</ele>
        <time>2012-08-09T13:59:18Z</time>
      </trkpt>
      <trkpt lat="45.3654" lon="6.14314">
        <ele>1229.6635742188</ele>
        <time>2012-08-09T13:59:24Z</time>
      </trkpt>
      <trkpt lat="45.36535" lon="6.14317">
        <ele>1231.5861816406</ele>
        <time>2012-08-09T13:59:26Z</time>
      </trkpt>
      <trkpt lat="45.36525" lon="6.14322">
        <ele>1231.5861816406</ele>
        <time>2012-08-09T13:59:30Z</time>
      </trkpt>
      <trkpt lat="45.36512" lon="6.14326">
        <ele>1232.5476074219</ele>
        <time>2012-08-09T13:59:35Z</time>
      </trkpt>
      <trkpt lat="45.36497" lon="6.14329">
        <ele>1241.6799316406</ele>
        <time>2012-08-09T13:59:40Z</time>
      </trkpt>
      <trkpt lat="45.3649" lon="6.14329">
        <ele>1241.19921875</ele>
        <time>2012-08-09T13:59:43Z</time>
      </trkpt>
      <trkpt lat="45.36476" lon="6.14329">
        <ele>1225.8181152344</ele>
        <time>2012-08-09T13:59:49Z</time>
      </trkpt>
      <trkpt lat="45.36466" lon="6.14329">
        <ele>1222.9343261719</ele>
        <time>2012-08-09T13:59:53Z</time>
      </trkpt>
      <trkpt lat="45.36464" lon="6.1433">
        <ele>1221.9729003906</ele>
        <time>2012-08-09T13:59:54Z</time>
      </trkpt>
      <trkpt lat="45.3645" lon="6.14329">
        <ele>1215.2438964844</ele>
        <time>2012-08-09T14:00:00Z</time>
      </trkpt>
      <trkpt lat="45.36441" lon="6.14326">
        <ele>1212.8405761719</ele>
        <time>2012-08-09T14:00:03Z</time>
      </trkpt>
      <trkpt lat="45.3643" lon="6.14324">
        <ele>1209.4758300781</ele>
        <time>2012-08-09T14:00:07Z</time>
      </trkpt>
      <trkpt lat="45.36416" lon="6.14324">
        <ele>1207.5532226562</ele>
        <time>2012-08-09T14:00:12Z</time>
      </trkpt>
      <trkpt lat="45.36411" lon="6.14324">
        <ele>1208.0339355469</ele>
        <time>2012-08-09T14:00:14Z</time>
      </trkpt>
      <trkpt lat="45.36398" lon="6.14322">
        <ele>1212.8405761719</ele>
        <time>2012-08-09T14:00:19Z</time>
      </trkpt>
      <trkpt lat="45.36392" lon="6.14322">
        <ele>1212.8405761719</ele>
        <time>2012-08-09T14:00:21Z</time>
      </trkpt>
      <trkpt lat="45.36381" lon="6.14321">
        <ele>1209.4758300781</ele>
        <time>2012-08-09T14:00:25Z</time>
      </trkpt>
      <trkpt lat="45.36372" lon="6.14316">
        <ele>1208.0339355469</ele>
        <time>2012-08-09T14:00:29Z</time>
      </trkpt>
      <trkpt lat="45.36374" lon="6.143">
        <ele>1201.3046875</ele>
        <time>2012-08-09T14:00:34Z</time>
      </trkpt>
      <trkpt lat="45.36384" lon="6.14291">
        <ele>1200.3435058594</ele>
        <time>2012-08-09T14:00:38Z</time>
      </trkpt>
      <trkpt lat="45.364" lon="6.14285">
        <ele>1198.4206542969</ele>
        <time>2012-08-09T14:00:43Z</time>
      </trkpt>
      <trkpt lat="45.36405" lon="6.14282">
        <ele>1197.4594726562</ele>
        <time>2012-08-09T14:00:45Z</time>
      </trkpt>
      <trkpt lat="45.36418" lon="6.14276">
        <ele>1197.4594726562</ele>
        <time>2012-08-09T14:00:51Z</time>
      </trkpt>
      <trkpt lat="45.3643" lon="6.14273">
        <ele>1197.4594726562</ele>
        <time>2012-08-09T14:00:56Z</time>
      </trkpt>
      <trkpt lat="45.3644" lon="6.14273">
        <ele>1198.4206542969</ele>
        <time>2012-08-09T14:00:59Z</time>
      </trkpt>
      <trkpt lat="45.36453" lon="6.14268">
        <ele>1196.4982910156</ele>
        <time>2012-08-09T14:01:05Z</time>
      </trkpt>
      <trkpt lat="45.36465" lon="6.14263">
        <ele>1194.5751953125</ele>
        <time>2012-08-09T14:01:10Z</time>
      </trkpt>
      <trkpt lat="45.36478" lon="6.14256">
        <ele>1191.69140625</ele>
        <time>2012-08-09T14:01:15Z</time>
      </trkpt>
      <trkpt lat="45.3649" lon="6.14251">
        <ele>1188.8076171875</ele>
        <time>2012-08-09T14:01:20Z</time>
      </trkpt>
      <trkpt lat="45.36502" lon="6.14247">
        <ele>1186.404296875</ele>
        <time>2012-08-09T14:01:25Z</time>
      </trkpt>
      <trkpt lat="45.36514" lon="6.14234">
        <ele>1183.5202636719</ele>
        <time>2012-08-09T14:01:30Z</time>
      </trkpt>
      <trkpt lat="45.36523" lon="6.14224">
        <ele>1179.6748046875</ele>
        <time>2012-08-09T14:01:34Z</time>
      </trkpt>
      <trkpt lat="45.36534" lon="6.14213">
        <ele>1176.791015625</ele>
        <time>2012-08-09T14:01:39Z</time>
      </trkpt>
      <trkpt lat="45.36546" lon="6.14209">
        <ele>1178.2329101562</ele>
        <time>2012-08-09T14:01:43Z</time>
      </trkpt>
      <trkpt lat="45.36561" lon="6.14208">
        <ele>1181.1171875</ele>
        <time>2012-08-09T14:01:48Z</time>
      </trkpt>
      <trkpt lat="45.36574" lon="6.14203">
        <ele>1177.2717285156</ele>
        <time>2012-08-09T14:01:53Z</time>
      </trkpt>
      <trkpt lat="45.36585" lon="6.14193">
        <ele>1173.4265136719</ele>
        <time>2012-08-09T14:01:58Z</time>
      </trkpt>
      <trkpt lat="45.36595" lon="6.1418">
        <ele>1169.1005859375</ele>
        <time>2012-08-09T14:02:03Z</time>
      </trkpt>
      <trkpt lat="45.36601" lon="6.1417">
        <ele>1164.7746582031</ele>
        <time>2012-08-09T14:02:07Z</time>
      </trkpt>
      <trkpt lat="45.3661" lon="6.14161">
        <ele>1163.3325195312</ele>
        <time>2012-08-09T14:02:11Z</time>
      </trkpt>
      <trkpt lat="45.36623" lon="6.14145">
        <ele>1162.8518066406</ele>
        <time>2012-08-09T14:02:17Z</time>
      </trkpt>
      <trkpt lat="45.36631" lon="6.1413">
        <ele>1161.890625</ele>
        <time>2012-08-09T14:02:22Z</time>
      </trkpt>
      <trkpt lat="45.36636" lon="6.14122">
        <ele>1163.8129882812</ele>
        <time>2012-08-09T14:02:25Z</time>
      </trkpt>
      <trkpt lat="45.36642" lon="6.14108">
        <ele>1157.5646972656</ele>
        <time>2012-08-09T14:02:30Z</time>
      </trkpt>
      <trkpt lat="45.36646" lon="6.14102">
        <ele>1153.7194824219</ele>
        <time>2012-08-09T14:02:32Z</time>
      </trkpt>
      <trkpt lat="45.36659" lon="6.14086">
        <ele>1149.3935546875</ele>
        <time>2012-08-09T14:02:38Z</time>
      </trkpt>
      <trkpt lat="45.36669" lon="6.1408">
        <ele>1146.5095214844</ele>
        <time>2012-08-09T14:02:42Z</time>
      </trkpt>
      <trkpt lat="45.3668" lon="6.14074">
        <ele>1143.6254882812</ele>
        <time>2012-08-09T14:02:47Z</time>
      </trkpt>
      <trkpt lat="45.36694" lon="6.14062">
        <ele>1144.1062011719</ele>
        <time>2012-08-09T14:02:53Z</time>
      </trkpt>
      <trkpt lat="45.36705" lon="6.14055">
        <ele>1144.5866699219</ele>
        <time>2012-08-09T14:02:57Z</time>
      </trkpt>
      <trkpt lat="45.36718" lon="6.14052">
        <ele>1148.9128417969</ele>
        <time>2012-08-09T14:03:01Z</time>
      </trkpt>
      <trkpt lat="45.36728" lon="6.14043">
        <ele>1146.0288085938</ele>
        <time>2012-08-09T14:03:05Z</time>
      </trkpt>
      <trkpt lat="45.3673" lon="6.1404">
        <ele>1146.9899902344</ele>
        <time>2012-08-09T14:03:06Z</time>
      </trkpt>
      <trkpt lat="45.36748" lon="6.14032">
        <ele>1150.8354492188</ele>
        <time>2012-08-09T14:03:12Z</time>
      </trkpt>
      <trkpt lat="45.36758" lon="6.14027">
        <ele>1152.7580566406</ele>
        <time>2012-08-09T14:03:16Z</time>
      </trkpt>
      <trkpt lat="45.36776" lon="6.14021">
        <ele>1155.6420898438</ele>
        <time>2012-08-09T14:03:23Z</time>
      </trkpt>
      <trkpt lat="45.36791" lon="6.14019">
        <ele>1157.083984375</ele>
        <time>2012-08-09T14:03:28Z</time>
      </trkpt>
      <trkpt lat="45.36802" lon="6.14017">
        <ele>1158.0454101562</ele>
        <time>2012-08-09T14:03:32Z</time>
      </trkpt>
      <trkpt lat="45.36817" lon="6.14013">
        <ele>1159.0065917969</ele>
        <time>2012-08-09T14:03:37Z</time>
      </trkpt>
      <trkpt lat="45.36827" lon="6.1401">
        <ele>1152.27734375</ele>
        <time>2012-08-09T14:03:41Z</time>
      </trkpt>
      <trkpt lat="45.3684" lon="6.13996">
        <ele>1153.2387695312</ele>
        <time>2012-08-09T14:03:46Z</time>
      </trkpt>
      <trkpt lat="45.36845" lon="6.13982">
        <ele>1154.2001953125</ele>
        <time>2012-08-09T14:03:49Z</time>
      </trkpt>
      <trkpt lat="45.36855" lon="6.13968">
        <ele>1151.796875</ele>
        <time>2012-08-09T14:03:54Z</time>
      </trkpt>
      <trkpt lat="45.36857" lon="6.13963">
        <ele>1150.8354492188</ele>
        <time>2012-08-09T14:03:55Z</time>
      </trkpt>
      <trkpt lat="45.36866" lon="6.13942">
        <ele>1142.18359375</ele>
        <time>2012-08-09T14:04:01Z</time>
      </trkpt>
      <trkpt lat="45.36874" lon="6.13936">
        <ele>1137.376953125</ele>
        <time>2012-08-09T14:04:05Z</time>
      </trkpt>
      <trkpt lat="45.36887" lon="6.13929">
        <ele>1131.1284179688</ele>
        <time>2012-08-09T14:04:10Z</time>
      </trkpt>
      <trkpt lat="45.36896" lon="6.13921">
        <ele>1126.8024902344</ele>
        <time>2012-08-09T14:04:14Z</time>
      </trkpt>
      <trkpt lat="45.36905" lon="6.13915">
        <ele>1123.9184570312</ele>
        <time>2012-08-09T14:04:18Z</time>
      </trkpt>
      <trkpt lat="45.36918" lon="6.13907">
        <ele>1122.4765625</ele>
        <time>2012-08-09T14:04:23Z</time>
      </trkpt>
      <trkpt lat="45.36931" lon="6.13905">
        <ele>1125.3603515625</ele>
        <time>2012-08-09T14:04:27Z</time>
      </trkpt>
      <trkpt lat="45.36947" lon="6.139">
        <ele>1130.1669921875</ele>
        <time>2012-08-09T14:04:32Z</time>
      </trkpt>
      <trkpt lat="45.36956" lon="6.1389">
        <ele>1128.7250976562</ele>
        <time>2012-08-09T14:04:36Z</time>
      </trkpt>
      <trkpt lat="45.36963" lon="6.13881">
        <ele>1127.763671875</ele>
        <time>2012-08-09T14:04:40Z</time>
      </trkpt>
      <trkpt lat="45.3697" lon="6.13863">
        <ele>1125.3603515625</ele>
        <time>2012-08-09T14:04:46Z</time>
      </trkpt>
      <trkpt lat="45.3698" lon="6.13847">
        <ele>1124.8798828125</ele>
        <time>2012-08-09T14:04:51Z</time>
      </trkpt>
      <trkpt lat="45.36983" lon="6.13831">
        <ele>1123.4379882812</ele>
        <time>2012-08-09T14:04:55Z</time>
      </trkpt>
      <trkpt lat="45.36985" lon="6.13812">
        <ele>1117.189453125</ele>
        <time>2012-08-09T14:05:00Z</time>
      </trkpt>
      <trkpt lat="45.36987" lon="6.13808">
        <ele>1116.7087402344</ele>
        <time>2012-08-09T14:05:01Z</time>
      </trkpt>
      <trkpt lat="45.36985" lon="6.13786">
        <ele>1119.5927734375</ele>
        <time>2012-08-09T14:05:07Z</time>
      </trkpt>
      <trkpt lat="45.3698" lon="6.13769">
        <ele>1121.0346679688</ele>
        <time>2012-08-09T14:05:12Z</time>
      </trkpt>
      <trkpt lat="45.36979" lon="6.13765">
        <ele>1122.4765625</ele>
        <time>2012-08-09T14:05:13Z</time>
      </trkpt>
      <trkpt lat="45.36971" lon="6.13756">
        <ele>1123.4379882812</ele>
        <time>2012-08-09T14:05:19Z</time>
      </trkpt>
      <trkpt lat="45.36969" lon="6.13755">
        <ele>1122.9572753906</ele>
        <time>2012-08-09T14:05:20Z</time>
      </trkpt>
      <trkpt lat="45.36967" lon="6.13754">
        <ele>1124.3991699219</ele>
        <time>2012-08-09T14:05:23Z</time>
      </trkpt>
      <trkpt lat="45.3696" lon="6.1375">
        <ele>1136.4157714844</ele>
        <time>2012-08-09T14:05:30Z</time>
      </trkpt>
      <trkpt lat="45.36958" lon="6.13747">
        <ele>1134.9738769531</ele>
        <time>2012-08-09T14:05:32Z</time>
      </trkpt>
      <trkpt lat="45.36951" lon="6.13735">
        <ele>1134.9738769531</ele>
        <time>2012-08-09T14:05:40Z</time>
      </trkpt>
      <trkpt lat="45.36951" lon="6.13728">
        <ele>1130.1669921875</ele>
        <time>2012-08-09T14:05:44Z</time>
      </trkpt>
      <trkpt lat="45.3695" lon="6.13714">
        <ele>1122.4765625</ele>
        <time>2012-08-09T14:05:50Z</time>
      </trkpt>
      <trkpt lat="45.3695" lon="6.13704">
        <ele>1118.6313476562</ele>
        <time>2012-08-09T14:05:55Z</time>
      </trkpt>
      <trkpt lat="45.3695" lon="6.13702">
        <ele>1118.1506347656</ele>
        <time>2012-08-09T14:05:56Z</time>
      </trkpt>
      <trkpt lat="45.36953" lon="6.13684">
        <ele>1116.2280273438</ele>
        <time>2012-08-09T14:06:02Z</time>
      </trkpt>
      <trkpt lat="45.36956" lon="6.13663">
        <ele>1114.3051757812</ele>
        <time>2012-08-09T14:06:08Z</time>
      </trkpt>
      <trkpt lat="45.36955" lon="6.13653">
        <ele>1115.7473144531</ele>
        <time>2012-08-09T14:06:11Z</time>
      </trkpt>
      <trkpt lat="45.36957" lon="6.13631">
        <ele>1112.86328125</ele>
        <time>2012-08-09T14:06:17Z</time>
      </trkpt>
      <trkpt lat="45.36958" lon="6.13615">
        <ele>1112.3825683594</ele>
        <time>2012-08-09T14:06:21Z</time>
      </trkpt>
      <trkpt lat="45.3696" lon="6.13609">
        <ele>1111.4213867188</ele>
        <time>2012-08-09T14:06:23Z</time>
      </trkpt>
      <trkpt lat="45.36964" lon="6.13591">
        <ele>1109.4987792969</ele>
        <time>2012-08-09T14:06:28Z</time>
      </trkpt>
      <trkpt lat="45.36968" lon="6.13579">
        <ele>1105.1728515625</ele>
        <time>2012-08-09T14:06:32Z</time>
      </trkpt>
      <trkpt lat="45.36971" lon="6.1357">
        <ele>1103.2502441406</ele>
        <time>2012-08-09T14:06:35Z</time>
      </trkpt>
      <trkpt lat="45.36973" lon="6.1356">
        <ele>1103.2502441406</ele>
        <time>2012-08-09T14:06:39Z</time>
      </trkpt>
      <trkpt lat="45.36976" lon="6.13543">
        <ele>1103.7309570312</ele>
        <time>2012-08-09T14:06:44Z</time>
      </trkpt>
      <trkpt lat="45.36982" lon="6.13523">
        <ele>1101.3276367188</ele>
        <time>2012-08-09T14:06:50Z</time>
      </trkpt>
      <trkpt lat="45.36986" lon="6.13513">
        <ele>1098.9240722656</ele>
        <time>2012-08-09T14:06:53Z</time>
      </trkpt>
      <trkpt lat="45.36998" lon="6.13504">
        <ele>1105.1728515625</ele>
        <time>2012-08-09T14:06:59Z</time>
      </trkpt>
      <trkpt lat="45.37007" lon="6.13501">
        <ele>1105.1728515625</ele>
        <time>2012-08-09T14:07:03Z</time>
      </trkpt>
      <trkpt lat="45.37012" lon="6.135">
        <ele>1107.0954589844</ele>
        <time>2012-08-09T14:07:05Z</time>
      </trkpt>
      <trkpt lat="45.37025" lon="6.13496">
        <ele>1110.4599609375</ele>
        <time>2012-08-09T14:07:11Z</time>
      </trkpt>
      <trkpt lat="45.37034" lon="6.13492">
        <ele>1115.2666015625</ele>
        <time>2012-08-09T14:07:15Z</time>
      </trkpt>
      <trkpt lat="45.37045" lon="6.13484">
        <ele>1117.669921875</ele>
        <time>2012-08-09T14:07:20Z</time>
      </trkpt>
      <trkpt lat="45.37057" lon="6.13477">
        <ele>1118.1506347656</ele>
        <time>2012-08-09T14:07:25Z</time>
      </trkpt>
      <trkpt lat="45.37063" lon="6.13475">
        <ele>1117.189453125</ele>
        <time>2012-08-09T14:07:28Z</time>
      </trkpt>
      <trkpt lat="45.37074" lon="6.13467">
        <ele>1116.2280273438</ele>
        <time>2012-08-09T14:07:34Z</time>
      </trkpt>
      <trkpt lat="45.37084" lon="6.13463">
        <ele>1115.7473144531</ele>
        <time>2012-08-09T14:07:39Z</time>
      </trkpt>
      <trkpt lat="45.37093" lon="6.13458">
        <ele>1117.669921875</ele>
        <time>2012-08-09T14:07:44Z</time>
      </trkpt>
      <trkpt lat="45.37103" lon="6.13455">
        <ele>1114.7858886719</ele>
        <time>2012-08-09T14:07:49Z</time>
      </trkpt>
      <trkpt lat="45.37114" lon="6.13451">
        <ele>1113.3439941406</ele>
        <time>2012-08-09T14:07:55Z</time>
      </trkpt>
      <trkpt lat="45.37116" lon="6.1345">
        <ele>1112.3825683594</ele>
        <time>2012-08-09T14:07:56Z</time>
      </trkpt>
      <trkpt lat="45.37123" lon="6.13443">
        <ele>1110.4599609375</ele>
        <time>2012-08-09T14:08:01Z</time>
      </trkpt>
      <trkpt lat="45.37127" lon="6.13439">
        <ele>1109.4987792969</ele>
        <time>2012-08-09T14:08:04Z</time>
      </trkpt>
      <trkpt lat="45.37132" lon="6.13426">
        <ele>1108.5373535156</ele>
        <time>2012-08-09T14:08:12Z</time>
      </trkpt>
      <trkpt lat="45.37136" lon="6.13419">
        <ele>1107.576171875</ele>
        <time>2012-08-09T14:08:16Z</time>
      </trkpt>
      <trkpt lat="45.37139" lon="6.13404">
        <ele>1106.6147460938</ele>
        <time>2012-08-09T14:08:21Z</time>
      </trkpt>
      <trkpt lat="45.37144" lon="6.13388">
        <ele>1105.6535644531</ele>
        <time>2012-08-09T14:08:26Z</time>
      </trkpt>
      <trkpt lat="45.37149" lon="6.13378">
        <ele>1105.6535644531</ele>
        <time>2012-08-09T14:08:29Z</time>
      </trkpt>
      <trkpt lat="45.37159" lon="6.13364">
        <ele>1106.6147460938</ele>
        <time>2012-08-09T14:08:34Z</time>
      </trkpt>
      <trkpt lat="45.37161" lon="6.13363">
        <ele>1107.0954589844</ele>
        <time>2012-08-09T14:08:35Z</time>
      </trkpt>
      <trkpt lat="45.37172" lon="6.13354">
        <ele>1102.76953125</ele>
        <time>2012-08-09T14:08:40Z</time>
      </trkpt>
      <trkpt lat="45.37181" lon="6.1334">
        <ele>1094.5981445312</ele>
        <time>2012-08-09T14:08:45Z</time>
      </trkpt>
      <trkpt lat="45.37189" lon="6.13318">
        <ele>1083.54296875</ele>
        <time>2012-08-09T14:08:51Z</time>
      </trkpt>
      <trkpt lat="45.37196" lon="6.13304">
        <ele>1075.3718261719</ele>
        <time>2012-08-09T14:08:56Z</time>
      </trkpt>
      <trkpt lat="45.37204" lon="6.13292">
        <ele>1075.3718261719</ele>
        <time>2012-08-09T14:09:02Z</time>
      </trkpt>
      <trkpt lat="45.37209" lon="6.13279">
        <ele>1071.5266113281</ele>
        <time>2012-08-09T14:09:07Z</time>
      </trkpt>
      <trkpt lat="45.37212" lon="6.13272">
        <ele>1070.5654296875</ele>
        <time>2012-08-09T14:09:10Z</time>
      </trkpt>
      <trkpt lat="45.37218" lon="6.13265">
        <ele>1072.0073242188</ele>
        <time>2012-08-09T14:09:15Z</time>
      </trkpt>
      <trkpt lat="45.37225" lon="6.13253">
        <ele>1072.0073242188</ele>
        <time>2012-08-09T14:09:22Z</time>
      </trkpt>
      <trkpt lat="45.3723" lon="6.13241">
        <ele>1074.8913574219</ele>
        <time>2012-08-09T14:09:28Z</time>
      </trkpt>
      <trkpt lat="45.37234" lon="6.13226">
        <ele>1076.8139648438</ele>
        <time>2012-08-09T14:09:34Z</time>
      </trkpt>
      <trkpt lat="45.37243" lon="6.13216">
        <ele>1078.7365722656</ele>
        <time>2012-08-09T14:09:42Z</time>
      </trkpt>
      <trkpt lat="45.37247" lon="6.13205">
        <ele>1083.0622558594</ele>
        <time>2012-08-09T14:09:47Z</time>
      </trkpt>
      <trkpt lat="45.37251" lon="6.13197">
        <ele>1085.4658203125</ele>
        <time>2012-08-09T14:09:51Z</time>
      </trkpt>
      <trkpt lat="45.37259" lon="6.13185">
        <ele>1087.3884277344</ele>
        <time>2012-08-09T14:10:00Z</time>
      </trkpt>
      <trkpt lat="45.37268" lon="6.13178">
        <ele>1086.4272460938</ele>
        <time>2012-08-09T14:10:09Z</time>
      </trkpt>
      <trkpt lat="45.3728" lon="6.13174">
        <ele>1094.5981445312</ele>
        <time>2012-08-09T14:10:17Z</time>
      </trkpt>
      <trkpt lat="45.37289" lon="6.13173">
        <ele>1093.6369628906</ele>
        <time>2012-08-09T14:10:23Z</time>
      </trkpt>
      <trkpt lat="45.37299" lon="6.13166">
        <ele>1090.2724609375</ele>
        <time>2012-08-09T14:10:32Z</time>
      </trkpt>
      <trkpt lat="45.37308" lon="6.13164">
        <ele>1092.67578125</ele>
        <time>2012-08-09T14:10:39Z</time>
      </trkpt>
      <trkpt lat="45.37315" lon="6.13163">
        <ele>1096.0402832031</ele>
        <time>2012-08-09T14:10:44Z</time>
      </trkpt>
      <trkpt lat="45.37317" lon="6.13164">
        <ele>1097.0014648438</ele>
        <time>2012-08-09T14:10:53Z</time>
      </trkpt>
      <trkpt lat="45.37327" lon="6.1316">
        <ele>1102.2888183594</ele>
        <time>2012-08-09T14:11:53Z</time>
      </trkpt>
      <trkpt lat="45.37331" lon="6.13159">
        <ele>1101.8083496094</ele>
        <time>2012-08-09T14:11:59Z</time>
      </trkpt>
      <trkpt lat="45.37335" lon="6.1316">
        <ele>1102.2888183594</ele>
        <time>2012-08-09T14:12:03Z</time>
      </trkpt>
      <trkpt lat="45.37342" lon="6.13159">
        <ele>1105.1728515625</ele>
        <time>2012-08-09T14:12:10Z</time>
      </trkpt>
      <trkpt lat="45.37346" lon="6.13156">
        <ele>1103.7309570312</ele>
        <time>2012-08-09T14:12:25Z</time>
      </trkpt>
      <trkpt lat="45.37353" lon="6.13158">
        <ele>1104.6921386719</ele>
        <time>2012-08-09T14:12:33Z</time>
      </trkpt>
      <trkpt lat="45.37355" lon="6.13151">
        <ele>1104.6921386719</ele>
        <time>2012-08-09T14:12:40Z</time>
      </trkpt>
      <trkpt lat="45.37361" lon="6.13154">
        <ele>1105.6535644531</ele>
        <time>2012-08-09T14:12:46Z</time>
      </trkpt>
      <trkpt lat="45.37363" lon="6.13154">
        <ele>1107.576171875</ele>
        <time>2012-08-09T14:12:48Z</time>
      </trkpt>
      <trkpt lat="45.37366" lon="6.13154">
        <ele>1108.5373535156</ele>
        <time>2012-08-09T14:12:52Z</time>
      </trkpt>
      <trkpt lat="45.37372" lon="6.13154">
        <ele>1111.9020996094</ele>
        <time>2012-08-09T14:12:58Z</time>
      </trkpt>
      <trkpt lat="45.37377" lon="6.13152">
        <ele>1116.7087402344</ele>
        <time>2012-08-09T14:13:05Z</time>
      </trkpt>
      <trkpt lat="45.37377" lon="6.13147">
        <ele>1110.9406738281</ele>
        <time>2012-08-09T14:13:09Z</time>
      </trkpt>
      <trkpt lat="45.37382" lon="6.13147">
        <ele>1109.9792480469</ele>
        <time>2012-08-09T14:13:16Z</time>
      </trkpt>
      <trkpt lat="45.37387" lon="6.13144">
        <ele>1117.189453125</ele>
        <time>2012-08-09T14:13:20Z</time>
      </trkpt>
      <trkpt lat="45.37394" lon="6.13143">
        <ele>1118.6313476562</ele>
        <time>2012-08-09T14:13:27Z</time>
      </trkpt>
      <trkpt lat="45.37397" lon="6.1314">
        <ele>1120.0732421875</ele>
        <time>2012-08-09T14:13:33Z</time>
      </trkpt>
      <trkpt lat="45.374" lon="6.13138">
        <ele>1120.5539550781</ele>
        <time>2012-08-09T14:13:38Z</time>
      </trkpt>
      <trkpt lat="45.37405" lon="6.13138">
        <ele>1119.5927734375</ele>
        <time>2012-08-09T14:13:45Z</time>
      </trkpt>
      <trkpt lat="45.37407" lon="6.13132">
        <ele>1116.7087402344</ele>
        <time>2012-08-09T14:13:52Z</time>
      </trkpt>
      <trkpt lat="45.37411" lon="6.13129">
        <ele>1116.2280273438</ele>
        <time>2012-08-09T14:13:57Z</time>
      </trkpt>
      <trkpt lat="45.37418" lon="6.13126">
        <ele>1119.5927734375</ele>
        <time>2012-08-09T14:14:05Z</time>
      </trkpt>
      <trkpt lat="45.3742" lon="6.13125">
        <ele>1119.5927734375</ele>
        <time>2012-08-09T14:14:06Z</time>
      </trkpt>
      <trkpt lat="45.37428" lon="6.13127">
        <ele>1122.4765625</ele>
        <time>2012-08-09T14:14:11Z</time>
      </trkpt>
      <trkpt lat="45.37435" lon="6.13129">
        <ele>1126.8024902344</ele>
        <time>2012-08-09T14:14:17Z</time>
      </trkpt>
      <trkpt lat="45.3744" lon="6.1313">
        <ele>1127.763671875</ele>
        <time>2012-08-09T14:14:23Z</time>
      </trkpt>
      <trkpt lat="45.37445" lon="6.13133">
        <ele>1127.283203125</ele>
        <time>2012-08-09T14:14:29Z</time>
      </trkpt>
      <trkpt lat="45.37449" lon="6.13137">
        <ele>1127.283203125</ele>
        <time>2012-08-09T14:14:35Z</time>
      </trkpt>
      <trkpt lat="45.37452" lon="6.13139">
        <ele>1126.3217773438</ele>
        <time>2012-08-09T14:14:42Z</time>
      </trkpt>
      <trkpt lat="45.37457" lon="6.13143">
        <ele>1126.3217773438</ele>
        <time>2012-08-09T14:14:50Z</time>
      </trkpt>
      <trkpt lat="45.3746" lon="6.13149">
        <ele>1125.3603515625</ele>
        <time>2012-08-09T14:14:55Z</time>
      </trkpt>
      <trkpt lat="45.3746" lon="6.1315">
        <ele>1123.9184570312</ele>
        <time>2012-08-09T14:14:56Z</time>
      </trkpt>
      <trkpt lat="45.37454" lon="6.1316">
        <ele>1122.9572753906</ele>
        <time>2012-08-09T14:15:11Z</time>
      </trkpt>
      <trkpt lat="45.37448" lon="6.13174">
        <ele>1129.6862792969</ele>
        <time>2012-08-09T14:15:31Z</time>
      </trkpt>
      <trkpt lat="45.3744" lon="6.13195">
        <ele>1135.9350585938</ele>
        <time>2012-08-09T14:16:10Z</time>
      </trkpt>
      <trkpt lat="45.37451" lon="6.13195">
        <ele>1148.9128417969</ele>
        <time>2012-08-09T14:16:46Z</time>
      </trkpt>
      <trkpt lat="45.37455" lon="6.13195">
        <ele>1153.2387695312</ele>
        <time>2012-08-09T14:16:51Z</time>
      </trkpt>
      <trkpt lat="45.37459" lon="6.13197">
        <ele>1159.4873046875</ele>
        <time>2012-08-09T14:16:58Z</time>
      </trkpt>
      <trkpt lat="45.37466" lon="6.132">
        <ele>1152.7580566406</ele>
        <time>2012-08-09T14:17:34Z</time>
      </trkpt>
      <trkpt lat="45.37485" lon="6.132">
        <ele>1164.7746582031</ele>
        <time>2012-08-09T14:18:13Z</time>
      </trkpt>
      <trkpt lat="45.37494" lon="6.13204">
        <ele>1171.984375</ele>
        <time>2012-08-09T14:18:30Z</time>
      </trkpt>
      <trkpt lat="45.37499" lon="6.13203">
        <ele>1171.0231933594</ele>
        <time>2012-08-09T14:18:38Z</time>
      </trkpt>
      <trkpt lat="45.375" lon="6.13201">
        <ele>1169.1005859375</ele>
        <time>2012-08-09T14:18:42Z</time>
      </trkpt>
      <trkpt lat="45.37504" lon="6.13203">
        <ele>1169.1005859375</ele>
        <time>2012-08-09T14:18:47Z</time>
      </trkpt>
      <trkpt lat="45.37506" lon="6.13207">
        <ele>1168.6198730469</ele>
        <time>2012-08-09T14:18:53Z</time>
      </trkpt>
      <trkpt lat="45.37513" lon="6.13216">
        <ele>1165.7360839844</ele>
        <time>2012-08-09T14:19:04Z</time>
      </trkpt>
      <trkpt lat="45.37511" lon="6.13223">
        <ele>1163.8129882812</ele>
        <time>2012-08-09T14:19:11Z</time>
      </trkpt>
      <trkpt lat="45.37508" lon="6.13225">
        <ele>1166.2165527344</ele>
        <time>2012-08-09T14:19:15Z</time>
      </trkpt>
      <trkpt lat="45.375" lon="6.13237">
        <ele>1179.6748046875</ele>
        <time>2012-08-09T14:19:38Z</time>
      </trkpt>
      <trkpt lat="45.37508" lon="6.13263">
        <ele>1207.0725097656</ele>
        <time>2012-08-09T14:20:37Z</time>
      </trkpt>
      <trkpt lat="45.37503" lon="6.13263">
        <ele>1211.3984375</ele>
        <time>2012-08-09T14:20:53Z</time>
      </trkpt>
      <trkpt lat="45.37503" lon="6.13271">
        <ele>1200.3435058594</ele>
        <time>2012-08-09T14:20:59Z</time>
      </trkpt>
      <trkpt lat="45.375" lon="6.13273">
        <ele>1196.017578125</ele>
        <time>2012-08-09T14:21:02Z</time>
      </trkpt>
      <trkpt lat="45.375" lon="6.13271">
        <ele>1193.6140136719</ele>
        <time>2012-08-09T14:21:10Z</time>
      </trkpt>
      <trkpt lat="45.37504" lon="6.13286">
        <ele>1210.4370117188</ele>
        <time>2012-08-09T14:22:13Z</time>
      </trkpt>
      <trkpt lat="45.37499" lon="6.13289">
        <ele>1214.7631835938</ele>
        <time>2012-08-09T14:22:22Z</time>
      </trkpt>
      <trkpt lat="45.375" lon="6.13304">
        <ele>1237.8347167969</ele>
        <time>2012-08-09T14:22:42Z</time>
      </trkpt>
      <trkpt lat="45.37498" lon="6.13307">
        <ele>1233.9895019531</ele>
        <time>2012-08-09T14:22:52Z</time>
      </trkpt>
      <trkpt lat="45.37495" lon="6.1331">
        <ele>1227.7407226562</ele>
        <time>2012-08-09T14:22:58Z</time>
      </trkpt>
      <trkpt lat="45.37496" lon="6.13308">
        <ele>1226.7795410156</ele>
        <time>2012-08-09T14:23:05Z</time>
      </trkpt>
      <trkpt lat="45.37498" lon="6.13307">
        <ele>1225.3374023438</ele>
        <time>2012-08-09T14:23:13Z</time>
      </trkpt>
      <trkpt lat="45.37502" lon="6.13311">
        <ele>1221.4921875</ele>
        <time>2012-08-09T14:23:24Z</time>
      </trkpt>
      <trkpt lat="45.37505" lon="6.13314">
        <ele>1222.4536132812</ele>
        <time>2012-08-09T14:23:32Z</time>
      </trkpt>
      <trkpt lat="45.3751" lon="6.13322">
        <ele>1225.3374023438</ele>
        <time>2012-08-09T14:23:41Z</time>
      </trkpt>
      <trkpt lat="45.37506" lon="6.13326">
        <ele>1225.3374023438</ele>
        <time>2012-08-09T14:23:48Z</time>
      </trkpt>
      <trkpt lat="45.37508" lon="6.13331">
        <ele>1224.3762207031</ele>
        <time>2012-08-09T14:23:54Z</time>
      </trkpt>
      <trkpt lat="45.37503" lon="6.13335">
        <ele>1234.9509277344</ele>
        <time>2012-08-09T14:24:07Z</time>
      </trkpt>
      <trkpt lat="45.37505" lon="6.13336">
        <ele>1246.4868164062</ele>
        <time>2012-08-09T14:24:14Z</time>
      </trkpt>
      <trkpt lat="45.375" lon="6.13346">
        <ele>1226.7795410156</ele>
        <time>2012-08-09T14:24:32Z</time>
      </trkpt>
      <trkpt lat="45.37498" lon="6.13342">
        <ele>1218.1276855469</ele>
        <time>2012-08-09T14:24:39Z</time>
      </trkpt>
      <trkpt lat="45.37508" lon="6.1334">
        <ele>1227.2602539062</ele>
        <time>2012-08-09T14:24:50Z</time>
      </trkpt>
      <trkpt lat="45.37505" lon="6.13354">
        <ele>1265.7131347656</ele>
        <time>2012-08-09T14:25:16Z</time>
      </trkpt>
      <trkpt lat="45.37506" lon="6.13366">
        <ele>1260.9064941406</ele>
        <time>2012-08-09T14:26:14Z</time>
      </trkpt>
      <trkpt lat="45.37517" lon="6.13371">
        <ele>1265.7131347656</ele>
        <time>2012-08-09T14:26:30Z</time>
      </trkpt>
      <trkpt lat="45.37509" lon="6.13397">
        <ele>1242.1606445312</ele>
        <time>2012-08-09T14:26:54Z</time>
      </trkpt>
      <trkpt lat="45.37516" lon="6.13368">
        <ele>1270.51953125</ele>
        <time>2012-08-09T14:27:25Z</time>
      </trkpt>
      <trkpt lat="45.37522" lon="6.13372">
        <ele>1270.0388183594</ele>
        <time>2012-08-09T14:27:30Z</time>
      </trkpt>
      <trkpt lat="45.37529" lon="6.13366">
        <ele>1280.6135253906</ele>
        <time>2012-08-09T14:27:44Z</time>
      </trkpt>
      <trkpt lat="45.37534" lon="6.13369">
        <ele>1292.6301269531</ele>
        <time>2012-08-09T14:28:06Z</time>
      </trkpt>
      <trkpt lat="45.37539" lon="6.13378">
        <ele>1281.0942382812</ele>
        <time>2012-08-09T14:28:12Z</time>
      </trkpt>
      <trkpt lat="45.37547" lon="6.13379">
        <ele>1284.939453125</ele>
        <time>2012-08-09T14:28:32Z</time>
      </trkpt>
      <trkpt lat="45.37548" lon="6.1338">
        <ele>1288.3039550781</ele>
        <time>2012-08-09T14:28:40Z</time>
      </trkpt>
      <trkpt lat="45.37551" lon="6.13367">
        <ele>1298.3977050781</ele>
        <time>2012-08-09T14:28:56Z</time>
      </trkpt>
      <trkpt lat="45.37553" lon="6.13367">
        <ele>1297.4365234375</ele>
        <time>2012-08-09T14:29:01Z</time>
      </trkpt>
      <trkpt lat="45.37558" lon="6.13368">
        <ele>1298.3977050781</ele>
        <time>2012-08-09T14:29:09Z</time>
      </trkpt>
      <trkpt lat="45.37563" lon="6.13365">
        <ele>1290.70703125</ele>
        <time>2012-08-09T14:29:25Z</time>
      </trkpt>
      <trkpt lat="45.37565" lon="6.13363">
        <ele>1293.1105957031</ele>
        <time>2012-08-09T14:29:30Z</time>
      </trkpt>
      <trkpt lat="45.37569" lon="6.13365">
        <ele>1293.5913085938</ele>
        <time>2012-08-09T14:29:36Z</time>
      </trkpt>
      <trkpt lat="45.37574" lon="6.13366">
        <ele>1301.7624511719</ele>
        <time>2012-08-09T14:29:44Z</time>
      </trkpt>
      <trkpt lat="45.37577" lon="6.13364">
        <ele>1304.6462402344</ele>
        <time>2012-08-09T14:29:49Z</time>
      </trkpt>
      <trkpt lat="45.37579" lon="6.13358">
        <ele>1300.8010253906</ele>
        <time>2012-08-09T14:29:56Z</time>
      </trkpt>
      <trkpt lat="45.37581" lon="6.13355">
        <ele>1302.7236328125</ele>
        <time>2012-08-09T14:30:03Z</time>
      </trkpt>
      <trkpt lat="45.37584" lon="6.13353">
        <ele>1296.9558105469</ele>
        <time>2012-08-09T14:30:10Z</time>
      </trkpt>
      <trkpt lat="45.37587" lon="6.13348">
        <ele>1296.4753417969</ele>
        <time>2012-08-09T14:30:15Z</time>
      </trkpt>
      <trkpt lat="45.37591" lon="6.13346">
        <ele>1297.9172363281</ele>
        <time>2012-08-09T14:30:22Z</time>
      </trkpt>
      <trkpt lat="45.37593" lon="6.13344">
        <ele>1295.033203125</ele>
        <time>2012-08-09T14:30:30Z</time>
      </trkpt>
      <trkpt lat="45.37595" lon="6.13339">
        <ele>1297.4365234375</ele>
        <time>2012-08-09T14:30:36Z</time>
      </trkpt>
      <trkpt lat="45.37598" lon="6.13333">
        <ele>1291.1877441406</ele>
        <time>2012-08-09T14:30:49Z</time>
      </trkpt>
      <trkpt lat="45.37602" lon="6.13336">
        <ele>1289.7458496094</ele>
        <time>2012-08-09T14:30:56Z</time>
      </trkpt>
      <trkpt lat="45.37605" lon="6.13336">
        <ele>1292.1494140625</ele>
        <time>2012-08-09T14:31:02Z</time>
      </trkpt>
      <trkpt lat="45.3761" lon="6.13335">
        <ele>1293.1105957031</ele>
        <time>2012-08-09T14:31:10Z</time>
      </trkpt>
      <trkpt lat="45.37613" lon="6.13333">
        <ele>1293.1105957031</ele>
        <time>2012-08-09T14:31:14Z</time>
      </trkpt>
      <trkpt lat="45.37621" lon="6.13333">
        <ele>1292.6301269531</ele>
        <time>2012-08-09T14:31:22Z</time>
      </trkpt>
      <trkpt lat="45.37628" lon="6.13335">
        <ele>1295.5139160156</ele>
        <time>2012-08-09T14:31:29Z</time>
      </trkpt>
      <trkpt lat="45.37629" lon="6.13334">
        <ele>1295.033203125</ele>
        <time>2012-08-09T14:31:31Z</time>
      </trkpt>
      <trkpt lat="45.37637" lon="6.13335">
        <ele>1293.1105957031</ele>
        <time>2012-08-09T14:31:39Z</time>
      </trkpt>
      <trkpt lat="45.37642" lon="6.13338">
        <ele>1293.5913085938</ele>
        <time>2012-08-09T14:31:45Z</time>
      </trkpt>
      <trkpt lat="45.37648" lon="6.13337">
        <ele>1294.5524902344</ele>
        <time>2012-08-09T14:31:52Z</time>
      </trkpt>
      <trkpt lat="45.37653" lon="6.13339">
        <ele>1293.5913085938</ele>
        <time>2012-08-09T14:31:57Z</time>
      </trkpt>
      <trkpt lat="45.37655" lon="6.1334">
        <ele>1293.1105957031</ele>
        <time>2012-08-09T14:31:59Z</time>
      </trkpt>
      <trkpt lat="45.37665" lon="6.13339">
        <ele>1292.6301269531</ele>
        <time>2012-08-09T14:32:06Z</time>
      </trkpt>
      <trkpt lat="45.37669" lon="6.13339">
        <ele>1291.1877441406</ele>
        <time>2012-08-09T14:32:09Z</time>
      </trkpt>
      <trkpt lat="45.37674" lon="6.13339">
        <ele>1289.7458496094</ele>
        <time>2012-08-09T14:32:13Z</time>
      </trkpt>
      <trkpt lat="45.37675" lon="6.13339">
        <ele>1290.70703125</ele>
        <time>2012-08-09T14:32:14Z</time>
      </trkpt>
      <trkpt lat="45.3768" lon="6.13338">
        <ele>1292.1494140625</ele>
        <time>2012-08-09T14:32:19Z</time>
      </trkpt>
      <trkpt lat="45.37684" lon="6.13336">
        <ele>1292.6301269531</ele>
        <time>2012-08-09T14:32:24Z</time>
      </trkpt>
      <trkpt lat="45.37687" lon="6.13331">
        <ele>1297.4365234375</ele>
        <time>2012-08-09T14:32:28Z</time>
      </trkpt>
      <trkpt lat="45.37691" lon="6.13327">
        <ele>1298.8784179688</ele>
        <time>2012-08-09T14:32:33Z</time>
      </trkpt>
      <trkpt lat="45.37695" lon="6.13313">
        <ele>1309.93359375</ele>
        <time>2012-08-09T14:32:38Z</time>
      </trkpt>
      <trkpt lat="45.37699" lon="6.13312">
        <ele>1310.8950195312</ele>
        <time>2012-08-09T14:32:43Z</time>
      </trkpt>
      <trkpt lat="45.37703" lon="6.13313">
        <ele>1306.5688476562</ele>
        <time>2012-08-09T14:32:46Z</time>
      </trkpt>
      <trkpt lat="45.37708" lon="6.13311">
        <ele>1308.0112304688</ele>
        <time>2012-08-09T14:32:52Z</time>
      </trkpt>
      <trkpt lat="45.37715" lon="6.13313">
        <ele>1310.4143066406</ele>
        <time>2012-08-09T14:32:58Z</time>
      </trkpt>
      <trkpt lat="45.37722" lon="6.13315">
        <ele>1309.93359375</ele>
        <time>2012-08-09T14:33:04Z</time>
      </trkpt>
      <trkpt lat="45.37728" lon="6.13313">
        <ele>1312.8176269531</ele>
        <time>2012-08-09T14:33:09Z</time>
      </trkpt>
      <trkpt lat="45.37732" lon="6.13313">
        <ele>1313.7788085938</ele>
        <time>2012-08-09T14:33:13Z</time>
      </trkpt>
      <trkpt lat="45.37735" lon="6.13314">
        <ele>1314.740234375</ele>
        <time>2012-08-09T14:33:18Z</time>
      </trkpt>
      <trkpt lat="45.37737" lon="6.13321">
        <ele>1308.0112304688</ele>
        <time>2012-08-09T14:33:28Z</time>
      </trkpt>
      <trkpt lat="45.3774" lon="6.1332">
        <ele>1308.4916992188</ele>
        <time>2012-08-09T14:33:32Z</time>
      </trkpt>
      <trkpt lat="45.37746" lon="6.13318">
        <ele>1309.93359375</ele>
        <time>2012-08-09T14:33:37Z</time>
      </trkpt>
      <trkpt lat="45.37753" lon="6.13315">
        <ele>1311.3757324219</ele>
        <time>2012-08-09T14:33:44Z</time>
      </trkpt>
      <trkpt lat="45.37759" lon="6.13314">
        <ele>1311.8564453125</ele>
        <time>2012-08-09T14:33:49Z</time>
      </trkpt>
      <trkpt lat="45.37762" lon="6.13313">
        <ele>1313.2983398438</ele>
        <time>2012-08-09T14:33:53Z</time>
      </trkpt>
      <trkpt lat="45.3777" lon="6.13316">
        <ele>1311.8564453125</ele>
        <time>2012-08-09T14:34:00Z</time>
      </trkpt>
      <trkpt lat="45.37772" lon="6.13317">
        <ele>1310.4143066406</ele>
        <time>2012-08-09T14:34:02Z</time>
      </trkpt>
      <trkpt lat="45.37781" lon="6.13322">
        <ele>1308.0112304688</ele>
        <time>2012-08-09T14:34:09Z</time>
      </trkpt>
      <trkpt lat="45.37788" lon="6.13326">
        <ele>1305.6076660156</ele>
        <time>2012-08-09T14:34:16Z</time>
      </trkpt>
      <trkpt lat="45.37797" lon="6.13328">
        <ele>1307.0495605469</ele>
        <time>2012-08-09T14:34:24Z</time>
      </trkpt>
      <trkpt lat="45.37804" lon="6.1333">
        <ele>1307.0495605469</ele>
        <time>2012-08-09T14:34:31Z</time>
      </trkpt>
      <trkpt lat="45.37812" lon="6.13336">
        <ele>1308.0112304688</ele>
        <time>2012-08-09T14:34:39Z</time>
      </trkpt>
      <trkpt lat="45.37817" lon="6.1334">
        <ele>1307.5302734375</ele>
        <time>2012-08-09T14:34:45Z</time>
      </trkpt>
      <trkpt lat="45.37823" lon="6.13342">
        <ele>1309.453125</ele>
        <time>2012-08-09T14:34:52Z</time>
      </trkpt>
      <trkpt lat="45.37825" lon="6.13347">
        <ele>1311.3757324219</ele>
        <time>2012-08-09T14:34:57Z</time>
      </trkpt>
      <trkpt lat="45.37826" lon="6.13351">
        <ele>1311.3757324219</ele>
        <time>2012-08-09T14:34:59Z</time>
      </trkpt>
      <trkpt lat="45.3783" lon="6.13357">
        <ele>1311.3757324219</ele>
        <time>2012-08-09T14:35:03Z</time>
      </trkpt>
      <trkpt lat="45.37836" lon="6.13364">
        <ele>1310.8950195312</ele>
        <time>2012-08-09T14:35:09Z</time>
      </trkpt>
      <trkpt lat="45.37841" lon="6.13368">
        <ele>1311.8564453125</ele>
        <time>2012-08-09T14:35:13Z</time>
      </trkpt>
      <trkpt lat="45.37845" lon="6.13371">
        <ele>1313.2983398438</ele>
        <time>2012-08-09T14:35:18Z</time>
      </trkpt>
      <trkpt lat="45.37852" lon="6.13372">
        <ele>1320.5080566406</ele>
        <time>2012-08-09T14:35:29Z</time>
      </trkpt>
      <trkpt lat="45.37857" lon="6.13373">
        <ele>1322.4306640625</ele>
        <time>2012-08-09T14:35:36Z</time>
      </trkpt>
      <trkpt lat="45.37864" lon="6.13374">
        <ele>1320.02734375</ele>
        <time>2012-08-09T14:35:43Z</time>
      </trkpt>
      <trkpt lat="45.37867" lon="6.13384">
        <ele>1314.740234375</ele>
        <time>2012-08-09T14:35:49Z</time>
      </trkpt>
      <trkpt lat="45.37855" lon="6.13394">
        <ele>1321.4692382812</ele>
        <time>2012-08-09T14:36:04Z</time>
      </trkpt>
      <trkpt lat="45.37833" lon="6.13406">
        <ele>1339.734375</ele>
        <time>2012-08-09T14:36:52Z</time>
      </trkpt>
      <trkpt lat="45.37827" lon="6.13407">
        <ele>1344.541015625</ele>
        <time>2012-08-09T14:36:58Z</time>
      </trkpt>
      <trkpt lat="45.37814" lon="6.13413">
        <ele>1341.1765136719</ele>
        <time>2012-08-09T14:37:24Z</time>
      </trkpt>
      <trkpt lat="45.3781" lon="6.13416">
        <ele>1339.734375</ele>
        <time>2012-08-09T14:37:35Z</time>
      </trkpt>
      <trkpt lat="45.37807" lon="6.13417">
        <ele>1340.2153320312</ele>
        <time>2012-08-09T14:37:41Z</time>
      </trkpt>
      <trkpt lat="45.37802" lon="6.13413">
        <ele>1340.2153320312</ele>
        <time>2012-08-09T14:37:49Z</time>
      </trkpt>
      <trkpt lat="45.37798" lon="6.13411">
        <ele>1339.734375</ele>
        <time>2012-08-09T14:37:54Z</time>
      </trkpt>
      <trkpt lat="45.37794" lon="6.13413">
        <ele>1336.8503417969</ele>
        <time>2012-08-09T14:37:59Z</time>
      </trkpt>
      <trkpt lat="45.37788" lon="6.13418">
        <ele>1338.7731933594</ele>
        <time>2012-08-09T14:38:13Z</time>
      </trkpt>
      <trkpt lat="45.37783" lon="6.13424">
        <ele>1331.0827636719</ele>
        <time>2012-08-09T14:38:20Z</time>
      </trkpt>
      <trkpt lat="45.37781" lon="6.13424">
        <ele>1329.1599121094</ele>
        <time>2012-08-09T14:38:28Z</time>
      </trkpt>
      <trkpt lat="45.37778" lon="6.13426">
        <ele>1338.7731933594</ele>
        <time>2012-08-09T14:38:39Z</time>
      </trkpt>
      <trkpt lat="45.37775" lon="6.13426">
        <ele>1337.3310546875</ele>
        <time>2012-08-09T14:38:45Z</time>
      </trkpt>
      <trkpt lat="45.37775" lon="6.13431">
        <ele>1339.734375</ele>
        <time>2012-08-09T14:38:56Z</time>
      </trkpt>
      <trkpt lat="45.3778" lon="6.13435">
        <ele>1340.2153320312</ele>
        <time>2012-08-09T14:39:05Z</time>
      </trkpt>
      <trkpt lat="45.37785" lon="6.13438">
        <ele>1342.1379394531</ele>
        <time>2012-08-09T14:39:12Z</time>
      </trkpt>
      <trkpt lat="45.37788" lon="6.13442">
        <ele>1346.4638671875</ele>
        <time>2012-08-09T14:39:20Z</time>
      </trkpt>
      <trkpt lat="45.37784" lon="6.13444">
        <ele>1344.060546875</ele>
        <time>2012-08-09T14:39:26Z</time>
      </trkpt>
      <trkpt lat="45.37778" lon="6.13445">
        <ele>1346.9443359375</ele>
        <time>2012-08-09T14:39:33Z</time>
      </trkpt>
      <trkpt lat="45.37767" lon="6.1345">
        <ele>1350.3090820312</ele>
        <time>2012-08-09T14:39:51Z</time>
      </trkpt>
      <trkpt lat="45.37762" lon="6.13453">
        <ele>1346.9443359375</ele>
        <time>2012-08-09T14:39:58Z</time>
      </trkpt>
      <trkpt lat="45.37762" lon="6.13455">
        <ele>1351.2702636719</ele>
        <time>2012-08-09T14:40:04Z</time>
      </trkpt>
      <trkpt lat="45.37767" lon="6.13459">
        <ele>1358.4802246094</ele>
        <time>2012-08-09T14:40:12Z</time>
      </trkpt>
      <trkpt lat="45.37772" lon="6.13463">
        <ele>1362.8061523438</ele>
        <time>2012-08-09T14:40:17Z</time>
      </trkpt>
      <trkpt lat="45.3778" lon="6.13465">
        <ele>1367.6125488281</ele>
        <time>2012-08-09T14:40:26Z</time>
      </trkpt>
      <trkpt lat="45.37786" lon="6.13469">
        <ele>1365.6901855469</ele>
        <time>2012-08-09T14:40:36Z</time>
      </trkpt>
      <trkpt lat="45.37789" lon="6.1347">
        <ele>1367.6125488281</ele>
        <time>2012-08-09T14:40:44Z</time>
      </trkpt>
      <trkpt lat="45.37791" lon="6.1347">
        <ele>1368.5739746094</ele>
        <time>2012-08-09T14:40:49Z</time>
      </trkpt>
      <trkpt lat="45.37796" lon="6.13478">
        <ele>1368.5739746094</ele>
        <time>2012-08-09T14:40:57Z</time>
      </trkpt>
      <trkpt lat="45.37799" lon="6.13482">
        <ele>1370.4965820312</ele>
        <time>2012-08-09T14:41:02Z</time>
      </trkpt>
      <trkpt lat="45.378" lon="6.13486">
        <ele>1366.6513671875</ele>
        <time>2012-08-09T14:41:08Z</time>
      </trkpt>
      <trkpt lat="45.37806" lon="6.13495">
        <ele>1376.2646484375</ele>
        <time>2012-08-09T14:41:25Z</time>
      </trkpt>
      <trkpt lat="45.37808" lon="6.135">
        <ele>1384.9165039062</ele>
        <time>2012-08-09T14:41:41Z</time>
      </trkpt>
      <trkpt lat="45.37803" lon="6.135">
        <ele>1385.3969726562</ele>
        <time>2012-08-09T14:41:48Z</time>
      </trkpt>
      <trkpt lat="45.37797" lon="6.13499">
        <ele>1379.1484375</ele>
        <time>2012-08-09T14:41:57Z</time>
      </trkpt>
      <trkpt lat="45.37792" lon="6.135">
        <ele>1374.8227539062</ele>
        <time>2012-08-09T14:42:05Z</time>
      </trkpt>
      <trkpt lat="45.37786" lon="6.13498">
        <ele>1380.1098632812</ele>
        <time>2012-08-09T14:42:11Z</time>
      </trkpt>
      <trkpt lat="45.37782" lon="6.13499">
        <ele>1385.3969726562</ele>
        <time>2012-08-09T14:42:16Z</time>
      </trkpt>
      <trkpt lat="45.37777" lon="6.13501">
        <ele>1384.9165039062</ele>
        <time>2012-08-09T14:42:22Z</time>
      </trkpt>
      <trkpt lat="45.37772" lon="6.13505">
        <ele>1382.0324707031</ele>
        <time>2012-08-09T14:42:31Z</time>
      </trkpt>
      <trkpt lat="45.3777" lon="6.13505">
        <ele>1388.7619628906</ele>
        <time>2012-08-09T14:42:37Z</time>
      </trkpt>
      <trkpt lat="45.37769" lon="6.1351">
        <ele>1395.0102539062</ele>
        <time>2012-08-09T14:42:48Z</time>
      </trkpt>
      <trkpt lat="45.37769" lon="6.13513">
        <ele>1396.9328613281</ele>
        <time>2012-08-09T14:43:02Z</time>
      </trkpt>
      <trkpt lat="45.37766" lon="6.13512">
        <ele>1395.9716796875</ele>
        <time>2012-08-09T14:43:06Z</time>
      </trkpt>
      <trkpt lat="45.37765" lon="6.13511">
        <ele>1396.4523925781</ele>
        <time>2012-08-09T14:43:07Z</time>
      </trkpt>
      <trkpt lat="45.37762" lon="6.13509">
        <ele>1399.8168945312</ele>
        <time>2012-08-09T14:43:10Z</time>
      </trkpt>
      <trkpt lat="45.37756" lon="6.1351">
        <ele>1399.8168945312</ele>
        <time>2012-08-09T14:43:16Z</time>
      </trkpt>
      <trkpt lat="45.37756" lon="6.1351">
        <ele>1398.3747558594</ele>
        <time>2012-08-09T14:43:17Z</time>
      </trkpt>
      <trkpt lat="45.37749" lon="6.13506">
        <ele>1404.1430664062</ele>
        <time>2012-08-09T14:43:24Z</time>
      </trkpt>
      <trkpt lat="45.37743" lon="6.13501">
        <ele>1406.0654296875</ele>
        <time>2012-08-09T14:43:30Z</time>
      </trkpt>
      <trkpt lat="45.37735" lon="6.13504">
        <ele>1404.6235351562</ele>
        <time>2012-08-09T14:43:39Z</time>
      </trkpt>
      <trkpt lat="45.37732" lon="6.13509">
        <ele>1401.7395019531</ele>
        <time>2012-08-09T14:43:45Z</time>
      </trkpt>
      <trkpt lat="45.37729" lon="6.13514">
        <ele>1402.7006835938</ele>
        <time>2012-08-09T14:43:51Z</time>
      </trkpt>
      <trkpt lat="45.37727" lon="6.13517">
        <ele>1403.1813964844</ele>
        <time>2012-08-09T14:43:53Z</time>
      </trkpt>
      <trkpt lat="45.37724" lon="6.13522">
        <ele>1400.7780761719</ele>
        <time>2012-08-09T14:44:00Z</time>
      </trkpt>
      <trkpt lat="45.37722" lon="6.13526">
        <ele>1398.85546875</ele>
        <time>2012-08-09T14:44:05Z</time>
      </trkpt>
      <trkpt lat="45.37725" lon="6.1353">
        <ele>1400.7780761719</ele>
        <time>2012-08-09T14:44:10Z</time>
      </trkpt>
      <trkpt lat="45.37728" lon="6.13533">
        <ele>1400.2976074219</ele>
        <time>2012-08-09T14:44:15Z</time>
      </trkpt>
      <trkpt lat="45.3773" lon="6.13534">
        <ele>1397.8942871094</ele>
        <time>2012-08-09T14:44:25Z</time>
      </trkpt>
      <trkpt lat="45.37732" lon="6.13536">
        <ele>1398.3747558594</ele>
        <time>2012-08-09T14:44:35Z</time>
      </trkpt>
      <trkpt lat="45.37732" lon="6.13538">
        <ele>1400.2976074219</ele>
        <time>2012-08-09T14:45:01Z</time>
      </trkpt>
      <trkpt lat="45.37733" lon="6.1354">
        <ele>1399.3361816406</ele>
        <time>2012-08-09T14:45:06Z</time>
      </trkpt>
      <trkpt lat="45.37736" lon="6.13543">
        <ele>1396.9328613281</ele>
        <time>2012-08-09T14:45:13Z</time>
      </trkpt>
      <trkpt lat="45.37737" lon="6.13545">
        <ele>1394.0490722656</ele>
        <time>2012-08-09T14:45:19Z</time>
      </trkpt>
      <trkpt lat="45.37739" lon="6.13545">
        <ele>1394.5295410156</ele>
        <time>2012-08-09T14:45:24Z</time>
      </trkpt>
      <trkpt lat="45.37741" lon="6.13545">
        <ele>1396.9328613281</ele>
        <time>2012-08-09T14:45:31Z</time>
      </trkpt>
      <trkpt lat="45.37743" lon="6.13546">
        <ele>1399.8168945312</ele>
        <time>2012-08-09T14:45:40Z</time>
      </trkpt>
      <trkpt lat="45.37745" lon="6.13548">
        <ele>1402.7006835938</ele>
        <time>2012-08-09T14:45:47Z</time>
      </trkpt>
      <trkpt lat="45.37746" lon="6.13549">
        <ele>1405.1042480469</ele>
        <time>2012-08-09T14:45:52Z</time>
      </trkpt>
      <trkpt lat="45.37748" lon="6.13549">
        <ele>1407.0268554688</ele>
        <time>2012-08-09T14:45:56Z</time>
      </trkpt>
      <trkpt lat="45.37751" lon="6.13552">
        <ele>1407.5075683594</ele>
        <time>2012-08-09T14:46:04Z</time>
      </trkpt>
      <trkpt lat="45.37751" lon="6.13554">
        <ele>1407.5075683594</ele>
        <time>2012-08-09T14:46:09Z</time>
      </trkpt>
      <trkpt lat="45.37753" lon="6.13555">
        <ele>1409.9106445312</ele>
        <time>2012-08-09T14:46:14Z</time>
      </trkpt>
      <trkpt lat="45.37754" lon="6.13558">
        <ele>1410.8720703125</ele>
        <time>2012-08-09T14:46:19Z</time>
      </trkpt>
      <trkpt lat="45.37756" lon="6.1356">
        <ele>1408.9494628906</ele>
        <time>2012-08-09T14:46:24Z</time>
      </trkpt>
      <trkpt lat="45.37758" lon="6.13562">
        <ele>1410.3913574219</ele>
        <time>2012-08-09T14:46:29Z</time>
      </trkpt>
      <trkpt lat="45.3776" lon="6.13565">
        <ele>1411.3527832031</ele>
        <time>2012-08-09T14:46:35Z</time>
      </trkpt>
      <trkpt lat="45.37762" lon="6.13569">
        <ele>1412.7946777344</ele>
        <time>2012-08-09T14:46:42Z</time>
      </trkpt>
      <trkpt lat="45.37764" lon="6.13572">
        <ele>1413.755859375</ele>
        <time>2012-08-09T14:46:48Z</time>
      </trkpt>
      <trkpt lat="45.37765" lon="6.13574">
        <ele>1414.7172851562</ele>
        <time>2012-08-09T14:46:54Z</time>
      </trkpt>
      <trkpt lat="45.37766" lon="6.13579">
        <ele>1415.1979980469</ele>
        <time>2012-08-09T14:47:02Z</time>
      </trkpt>
      <trkpt lat="45.37767" lon="6.13582">
        <ele>1414.7172851562</ele>
        <time>2012-08-09T14:47:08Z</time>
      </trkpt>
      <trkpt lat="45.37769" lon="6.13585">
        <ele>1414.7172851562</ele>
        <time>2012-08-09T14:47:14Z</time>
      </trkpt>
      <trkpt lat="45.3777" lon="6.13587">
        <ele>1415.6787109375</ele>
        <time>2012-08-09T14:47:19Z</time>
      </trkpt>
      <trkpt lat="45.37771" lon="6.1359">
        <ele>1416.1591796875</ele>
        <time>2012-08-09T14:47:24Z</time>
      </trkpt>
      <trkpt lat="45.37772" lon="6.13592">
        <ele>1418.0817871094</ele>
        <time>2012-08-09T14:47:29Z</time>
      </trkpt>
      <trkpt lat="45.37773" lon="6.13594">
        <ele>1420.4853515625</ele>
        <time>2012-08-09T14:47:35Z</time>
      </trkpt>
      <trkpt lat="45.37773" lon="6.13596">
        <ele>1423.3693847656</ele>
        <time>2012-08-09T14:47:40Z</time>
      </trkpt>
      <trkpt lat="45.37773" lon="6.13595">
        <ele>1429.1369628906</ele>
        <time>2012-08-09T14:47:47Z</time>
      </trkpt>
      <trkpt lat="45.37773" lon="6.13595">
        <ele>1432.9821777344</ele>
        <time>2012-08-09T14:47:52Z</time>
      </trkpt>
      <trkpt lat="45.37772" lon="6.13598">
        <ele>1435.8662109375</ele>
        <time>2012-08-09T14:47:59Z</time>
      </trkpt>
      <trkpt lat="45.3777" lon="6.13601">
        <ele>1435.3854980469</ele>
        <time>2012-08-09T14:48:05Z</time>
      </trkpt>
      <trkpt lat="45.37767" lon="6.13607">
        <ele>1432.9821777344</ele>
        <time>2012-08-09T14:48:12Z</time>
      </trkpt>
      <trkpt lat="45.37765" lon="6.13609">
        <ele>1432.0209960938</ele>
        <time>2012-08-09T14:48:17Z</time>
      </trkpt>
      <trkpt lat="45.37763" lon="6.13611">
        <ele>1431.5402832031</ele>
        <time>2012-08-09T14:48:23Z</time>
      </trkpt>
      <trkpt lat="45.37759" lon="6.13612">
        <ele>1431.5402832031</ele>
        <time>2012-08-09T14:48:30Z</time>
      </trkpt>
      <trkpt lat="45.37756" lon="6.13615">
        <ele>1431.5402832031</ele>
        <time>2012-08-09T14:48:37Z</time>
      </trkpt>
      <trkpt lat="45.37754" lon="6.13616">
        <ele>1432.0209960938</ele>
        <time>2012-08-09T14:48:43Z</time>
      </trkpt>
      <trkpt lat="45.37751" lon="6.13618">
        <ele>1432.5017089844</ele>
        <time>2012-08-09T14:48:49Z</time>
      </trkpt>
      <trkpt lat="45.37749" lon="6.1362">
        <ele>1433.462890625</ele>
        <time>2012-08-09T14:48:55Z</time>
      </trkpt>
      <trkpt lat="45.37748" lon="6.13623">
        <ele>1433.462890625</ele>
        <time>2012-08-09T14:49:01Z</time>
      </trkpt>
      <trkpt lat="45.37746" lon="6.13626">
        <ele>1434.4243164062</ele>
        <time>2012-08-09T14:49:07Z</time>
      </trkpt>
      <trkpt lat="45.37744" lon="6.13628">
        <ele>1435.3854980469</ele>
        <time>2012-08-09T14:49:13Z</time>
      </trkpt>
      <trkpt lat="45.37742" lon="6.13631">
        <ele>1436.3471679688</ele>
        <time>2012-08-09T14:49:18Z</time>
      </trkpt>
      <trkpt lat="45.37741" lon="6.13634">
        <ele>1437.7890625</ele>
        <time>2012-08-09T14:49:25Z</time>
      </trkpt>
      <trkpt lat="45.37739" lon="6.13638">
        <ele>1438.7504882812</ele>
        <time>2012-08-09T14:49:33Z</time>
      </trkpt>
      <trkpt lat="45.37739" lon="6.1364">
        <ele>1439.2309570312</ele>
        <time>2012-08-09T14:49:38Z</time>
      </trkpt>
      <trkpt lat="45.37738" lon="6.13644">
        <ele>1440.1923828125</ele>
        <time>2012-08-09T14:49:44Z</time>
      </trkpt>
      <trkpt lat="45.37736" lon="6.13645">
        <ele>1440.6728515625</ele>
        <time>2012-08-09T14:49:49Z</time>
      </trkpt>
      <trkpt lat="45.37733" lon="6.13649">
        <ele>1440.6728515625</ele>
        <time>2012-08-09T14:49:56Z</time>
      </trkpt>
      <trkpt lat="45.37731" lon="6.13652">
        <ele>1441.1535644531</ele>
        <time>2012-08-09T14:50:03Z</time>
      </trkpt>
      <trkpt lat="45.37727" lon="6.13654">
        <ele>1443.076171875</ele>
        <time>2012-08-09T14:50:11Z</time>
      </trkpt>
      <trkpt lat="45.37724" lon="6.13656">
        <ele>1444.0375976562</ele>
        <time>2012-08-09T14:50:17Z</time>
      </trkpt>
      <trkpt lat="45.37722" lon="6.13657">
        <ele>1445.4794921875</ele>
        <time>2012-08-09T14:50:22Z</time>
      </trkpt>
      <trkpt lat="45.37719" lon="6.13659">
        <ele>1446.9213867188</ele>
        <time>2012-08-09T14:50:28Z</time>
      </trkpt>
      <trkpt lat="45.37716" lon="6.13661">
        <ele>1448.36328125</ele>
        <time>2012-08-09T14:50:35Z</time>
      </trkpt>
      <trkpt lat="45.37714" lon="6.13664">
        <ele>1448.8439941406</ele>
        <time>2012-08-09T14:50:41Z</time>
      </trkpt>
      <trkpt lat="45.37711" lon="6.13666">
        <ele>1449.8054199219</ele>
        <time>2012-08-09T14:50:47Z</time>
      </trkpt>
      <trkpt lat="45.37709" lon="6.13667">
        <ele>1450.2861328125</ele>
        <time>2012-08-09T14:50:52Z</time>
      </trkpt>
      <trkpt lat="45.37706" lon="6.13668">
        <ele>1452.689453125</ele>
        <time>2012-08-09T14:50:58Z</time>
      </trkpt>
      <trkpt lat="45.37704" lon="6.13669">
        <ele>1453.6508789062</ele>
        <time>2012-08-09T14:51:03Z</time>
      </trkpt>
      <trkpt lat="45.37702" lon="6.13671">
        <ele>1454.6120605469</ele>
        <time>2012-08-09T14:51:08Z</time>
      </trkpt>
      <trkpt lat="45.37699" lon="6.13672">
        <ele>1456.0539550781</ele>
        <time>2012-08-09T14:51:14Z</time>
      </trkpt>
      <trkpt lat="45.37696" lon="6.13674">
        <ele>1457.49609375</ele>
        <time>2012-08-09T14:51:22Z</time>
      </trkpt>
      <trkpt lat="45.37693" lon="6.13677">
        <ele>1458.9379882812</ele>
        <time>2012-08-09T14:51:29Z</time>
      </trkpt>
      <trkpt lat="45.3769" lon="6.13677">
        <ele>1460.3798828125</ele>
        <time>2012-08-09T14:51:35Z</time>
      </trkpt>
      <trkpt lat="45.37688" lon="6.13679">
        <ele>1460.3798828125</ele>
        <time>2012-08-09T14:51:40Z</time>
      </trkpt>
      <trkpt lat="45.37684" lon="6.13681">
        <ele>1461.8220214844</ele>
        <time>2012-08-09T14:51:48Z</time>
      </trkpt>
      <trkpt lat="45.37682" lon="6.13683">
        <ele>1462.783203125</ele>
        <time>2012-08-09T14:51:55Z</time>
      </trkpt>
      <trkpt lat="45.37679" lon="6.13684">
        <ele>1463.2639160156</ele>
        <time>2012-08-09T14:52:01Z</time>
      </trkpt>
      <trkpt lat="45.37677" lon="6.13685">
        <ele>1464.2250976562</ele>
        <time>2012-08-09T14:52:07Z</time>
      </trkpt>
      <trkpt lat="45.37675" lon="6.13686">
        <ele>1464.7058105469</ele>
        <time>2012-08-09T14:52:12Z</time>
      </trkpt>
      <trkpt lat="45.37671" lon="6.13687">
        <ele>1465.1865234375</ele>
        <time>2012-08-09T14:52:19Z</time>
      </trkpt>
      <trkpt lat="45.37669" lon="6.13688">
        <ele>1466.1477050781</ele>
        <time>2012-08-09T14:52:23Z</time>
      </trkpt>
      <trkpt lat="45.37667" lon="6.13689">
        <ele>1468.0705566406</ele>
        <time>2012-08-09T14:52:27Z</time>
      </trkpt>
      <trkpt lat="45.37664" lon="6.1369">
        <ele>1469.0319824219</ele>
        <time>2012-08-09T14:52:34Z</time>
      </trkpt>
      <trkpt lat="45.37661" lon="6.13692">
        <ele>1469.0319824219</ele>
        <time>2012-08-09T14:52:41Z</time>
      </trkpt>
      <trkpt lat="45.37658" lon="6.13694">
        <ele>1469.5126953125</ele>
        <time>2012-08-09T14:52:46Z</time>
      </trkpt>
      <trkpt lat="45.37655" lon="6.13695">
        <ele>1470.9545898438</ele>
        <time>2012-08-09T14:52:52Z</time>
      </trkpt>
      <trkpt lat="45.37653" lon="6.13697">
        <ele>1471.4350585938</ele>
        <time>2012-08-09T14:52:59Z</time>
      </trkpt>
      <trkpt lat="45.3765" lon="6.13699">
        <ele>1471.9157714844</ele>
        <time>2012-08-09T14:53:04Z</time>
      </trkpt>
      <trkpt lat="45.37647" lon="6.13702">
        <ele>1472.8771972656</ele>
        <time>2012-08-09T14:53:11Z</time>
      </trkpt>
      <trkpt lat="45.37644" lon="6.13704">
        <ele>1475.2802734375</ele>
        <time>2012-08-09T14:53:19Z</time>
      </trkpt>
      <trkpt lat="45.37642" lon="6.13706">
        <ele>1476.2416992188</ele>
        <time>2012-08-09T14:53:25Z</time>
      </trkpt>
      <trkpt lat="45.3764" lon="6.13707">
        <ele>1477.68359375</ele>
        <time>2012-08-09T14:53:32Z</time>
      </trkpt>
      <trkpt lat="45.37638" lon="6.13708">
        <ele>1478.1643066406</ele>
        <time>2012-08-09T14:53:36Z</time>
      </trkpt>
      <trkpt lat="45.37637" lon="6.1371">
        <ele>1479.1254882812</ele>
        <time>2012-08-09T14:53:41Z</time>
      </trkpt>
      <trkpt lat="45.37634" lon="6.13712">
        <ele>1480.0869140625</ele>
        <time>2012-08-09T14:53:48Z</time>
      </trkpt>
      <trkpt lat="45.37632" lon="6.13713">
        <ele>1480.5676269531</ele>
        <time>2012-08-09T14:53:53Z</time>
      </trkpt>
      <trkpt lat="45.3763" lon="6.13715">
        <ele>1481.0483398438</ele>
        <time>2012-08-09T14:53:58Z</time>
      </trkpt>
      <trkpt lat="45.37629" lon="6.13718">
        <ele>1482.0095214844</ele>
        <time>2012-08-09T14:54:02Z</time>
      </trkpt>
      <trkpt lat="45.37626" lon="6.1372">
        <ele>1483.9321289062</ele>
        <time>2012-08-09T14:54:10Z</time>
      </trkpt>
      <trkpt lat="45.37624" lon="6.13722">
        <ele>1485.8549804688</ele>
        <time>2012-08-09T14:54:16Z</time>
      </trkpt>
      <trkpt lat="45.37622" lon="6.13724">
        <ele>1485.8549804688</ele>
        <time>2012-08-09T14:54:21Z</time>
      </trkpt>
      <trkpt lat="45.37619" lon="6.13727">
        <ele>1487.7775878906</ele>
        <time>2012-08-09T14:54:28Z</time>
      </trkpt>
      <trkpt lat="45.37617" lon="6.13729">
        <ele>1488.7390136719</ele>
        <time>2012-08-09T14:54:32Z</time>
      </trkpt>
      <trkpt lat="45.37616" lon="6.13732">
        <ele>1490.1809082031</ele>
        <time>2012-08-09T14:54:37Z</time>
      </trkpt>
      <trkpt lat="45.37613" lon="6.13734">
        <ele>1491.1420898438</ele>
        <time>2012-08-09T14:54:43Z</time>
      </trkpt>
      <trkpt lat="45.37611" lon="6.13736">
        <ele>1492.103515625</ele>
        <time>2012-08-09T14:54:49Z</time>
      </trkpt>
      <trkpt lat="45.37611" lon="6.1374">
        <ele>1492.103515625</ele>
        <time>2012-08-09T14:54:54Z</time>
      </trkpt>
      <trkpt lat="45.37609" lon="6.13745">
        <ele>1491.1420898438</ele>
        <time>2012-08-09T14:55:00Z</time>
      </trkpt>
      <trkpt lat="45.37607" lon="6.13749">
        <ele>1490.1809082031</ele>
        <time>2012-08-09T14:55:06Z</time>
      </trkpt>
      <trkpt lat="45.37605" lon="6.13752">
        <ele>1491.1420898438</ele>
        <time>2012-08-09T14:55:13Z</time>
      </trkpt>
      <trkpt lat="45.37601" lon="6.13756">
        <ele>1492.5842285156</ele>
        <time>2012-08-09T14:55:20Z</time>
      </trkpt>
      <trkpt lat="45.37598" lon="6.1376">
        <ele>1493.0646972656</ele>
        <time>2012-08-09T14:55:27Z</time>
      </trkpt>
      <trkpt lat="45.37595" lon="6.13764">
        <ele>1493.0646972656</ele>
        <time>2012-08-09T14:55:33Z</time>
      </trkpt>
      <trkpt lat="45.37591" lon="6.13769">
        <ele>1493.5454101562</ele>
        <time>2012-08-09T14:55:40Z</time>
      </trkpt>
      <trkpt lat="45.37587" lon="6.13773">
        <ele>1495.4680175781</ele>
        <time>2012-08-09T14:55:47Z</time>
      </trkpt>
      <trkpt lat="45.37585" lon="6.13777">
        <ele>1495.9487304688</ele>
        <time>2012-08-09T14:55:53Z</time>
      </trkpt>
      <trkpt lat="45.37581" lon="6.13783">
        <ele>1496.9099121094</ele>
        <time>2012-08-09T14:56:01Z</time>
      </trkpt>
      <trkpt lat="45.37577" lon="6.13785">
        <ele>1499.7939453125</ele>
        <time>2012-08-09T14:56:07Z</time>
      </trkpt>
      <trkpt lat="45.37573" lon="6.1379">
        <ele>1501.2360839844</ele>
        <time>2012-08-09T14:56:14Z</time>
      </trkpt>
      <trkpt lat="45.3757" lon="6.13794">
        <ele>1503.1586914062</ele>
        <time>2012-08-09T14:56:21Z</time>
      </trkpt>
      <trkpt lat="45.37568" lon="6.13796">
        <ele>1505.0812988281</ele>
        <time>2012-08-09T14:56:26Z</time>
      </trkpt>
      <trkpt lat="45.37564" lon="6.138">
        <ele>1506.0424804688</ele>
        <time>2012-08-09T14:56:33Z</time>
      </trkpt>
      <trkpt lat="45.37561" lon="6.13803">
        <ele>1507.00390625</ele>
        <time>2012-08-09T14:56:39Z</time>
      </trkpt>
      <trkpt lat="45.37559" lon="6.13807">
        <ele>1506.5231933594</ele>
        <time>2012-08-09T14:56:46Z</time>
      </trkpt>
      <trkpt lat="45.37556" lon="6.13811">
        <ele>1506.5231933594</ele>
        <time>2012-08-09T14:56:53Z</time>
      </trkpt>
      <trkpt lat="45.37554" lon="6.13815">
        <ele>1506.5231933594</ele>
        <time>2012-08-09T14:56:59Z</time>
      </trkpt>
      <trkpt lat="45.37552" lon="6.13818">
        <ele>1507.00390625</ele>
        <time>2012-08-09T14:57:04Z</time>
      </trkpt>
      <trkpt lat="45.3755" lon="6.13821">
        <ele>1507.9653320312</ele>
        <time>2012-08-09T14:57:10Z</time>
      </trkpt>
      <trkpt lat="45.37546" lon="6.13825">
        <ele>1508.4458007812</ele>
        <time>2012-08-09T14:57:18Z</time>
      </trkpt>
      <trkpt lat="45.37543" lon="6.13829">
        <ele>1509.8876953125</ele>
        <time>2012-08-09T14:57:26Z</time>
      </trkpt>
      <trkpt lat="45.37539" lon="6.13833">
        <ele>1510.8491210938</ele>
        <time>2012-08-09T14:57:34Z</time>
      </trkpt>
      <trkpt lat="45.37536" lon="6.13836">
        <ele>1511.3298339844</ele>
        <time>2012-08-09T14:57:40Z</time>
      </trkpt>
      <trkpt lat="45.37534" lon="6.13838">
        <ele>1511.3298339844</ele>
        <time>2012-08-09T14:57:45Z</time>
      </trkpt>
      <trkpt lat="45.37532" lon="6.13841">
        <ele>1511.3298339844</ele>
        <time>2012-08-09T14:57:49Z</time>
      </trkpt>
      <trkpt lat="45.37531" lon="6.13843">
        <ele>1511.810546875</ele>
        <time>2012-08-09T14:57:54Z</time>
      </trkpt>
      <trkpt lat="45.37528" lon="6.13846">
        <ele>1513.2524414062</ele>
        <time>2012-08-09T14:58:01Z</time>
      </trkpt>
      <trkpt lat="45.37527" lon="6.13848">
        <ele>1514.2136230469</ele>
        <time>2012-08-09T14:58:05Z</time>
      </trkpt>
      <trkpt lat="45.37525" lon="6.13851">
        <ele>1514.6943359375</ele>
        <time>2012-08-09T14:58:11Z</time>
      </trkpt>
      <trkpt lat="45.37523" lon="6.13854">
        <ele>1516.1364746094</ele>
        <time>2012-08-09T14:58:17Z</time>
      </trkpt>
      <trkpt lat="45.37521" lon="6.13856">
        <ele>1518.5397949219</ele>
        <time>2012-08-09T14:58:23Z</time>
      </trkpt>
      <trkpt lat="45.37519" lon="6.13859">
        <ele>1519.5012207031</ele>
        <time>2012-08-09T14:58:29Z</time>
      </trkpt>
      <trkpt lat="45.37516" lon="6.13865">
        <ele>1523.3464355469</ele>
        <time>2012-08-09T14:58:38Z</time>
      </trkpt>
      <trkpt lat="45.37516" lon="6.13872">
        <ele>1524.3076171875</ele>
        <time>2012-08-09T14:58:44Z</time>
      </trkpt>
      <trkpt lat="45.37517" lon="6.13879">
        <ele>1524.7883300781</ele>
        <time>2012-08-09T14:58:50Z</time>
      </trkpt>
      <trkpt lat="45.37518" lon="6.13885">
        <ele>1525.7495117188</ele>
        <time>2012-08-09T14:58:56Z</time>
      </trkpt>
      <trkpt lat="45.3752" lon="6.13887">
        <ele>1525.7495117188</ele>
        <time>2012-08-09T14:59:00Z</time>
      </trkpt>
      <trkpt lat="45.37524" lon="6.13888">
        <ele>1526.2302246094</ele>
        <time>2012-08-09T14:59:06Z</time>
      </trkpt>
      <trkpt lat="45.37529" lon="6.13888">
        <ele>1527.6721191406</ele>
        <time>2012-08-09T14:59:13Z</time>
      </trkpt>
      <trkpt lat="45.37535" lon="6.1389">
        <ele>1529.5947265625</ele>
        <time>2012-08-09T14:59:20Z</time>
      </trkpt>
      <trkpt lat="45.37541" lon="6.1389">
        <ele>1530.5561523438</ele>
        <time>2012-08-09T14:59:27Z</time>
      </trkpt>
      <trkpt lat="45.37547" lon="6.13892">
        <ele>1531.0368652344</ele>
        <time>2012-08-09T14:59:33Z</time>
      </trkpt>
      <trkpt lat="45.37551" lon="6.13894">
        <ele>1531.0368652344</ele>
        <time>2012-08-09T14:59:38Z</time>
      </trkpt>
      <trkpt lat="45.37554" lon="6.13897">
        <ele>1531.5173339844</ele>
        <time>2012-08-09T14:59:43Z</time>
      </trkpt>
      <trkpt lat="45.37558" lon="6.13899">
        <ele>1531.0368652344</ele>
        <time>2012-08-09T14:59:48Z</time>
      </trkpt>
      <trkpt lat="45.37563" lon="6.13901">
        <ele>1531.0368652344</ele>
        <time>2012-08-09T14:59:55Z</time>
      </trkpt>
      <trkpt lat="45.37567" lon="6.13903">
        <ele>1531.5173339844</ele>
        <time>2012-08-09T15:00:01Z</time>
      </trkpt>
      <trkpt lat="45.37571" lon="6.13903">
        <ele>1532.9594726562</ele>
        <time>2012-08-09T15:00:07Z</time>
      </trkpt>
      <trkpt lat="45.37576" lon="6.13903">
        <ele>1534.8823242188</ele>
        <time>2012-08-09T15:00:14Z</time>
      </trkpt>
      <trkpt lat="45.37579" lon="6.13904">
        <ele>1536.32421875</ele>
        <time>2012-08-09T15:00:19Z</time>
      </trkpt>
      <trkpt lat="45.37582" lon="6.13906">
        <ele>1537.7661132812</ele>
        <time>2012-08-09T15:00:25Z</time>
      </trkpt>
      <trkpt lat="45.37584" lon="6.13909">
        <ele>1538.2468261719</ele>
        <time>2012-08-09T15:00:31Z</time>
      </trkpt>
      <trkpt lat="45.37586" lon="6.13911">
        <ele>1538.2468261719</ele>
        <time>2012-08-09T15:00:36Z</time>
      </trkpt>
      <trkpt lat="45.3759" lon="6.13913">
        <ele>1539.6887207031</ele>
        <time>2012-08-09T15:00:43Z</time>
      </trkpt>
      <trkpt lat="45.37593" lon="6.13915">
        <ele>1540.6499023438</ele>
        <time>2012-08-09T15:00:50Z</time>
      </trkpt>
      <trkpt lat="45.37595" lon="6.13917">
        <ele>1541.1306152344</ele>
        <time>2012-08-09T15:00:55Z</time>
      </trkpt>
      <trkpt lat="45.37598" lon="6.13918">
        <ele>1542.0920410156</ele>
        <time>2012-08-09T15:01:01Z</time>
      </trkpt>
      <trkpt lat="45.376" lon="6.1392">
        <ele>1543.5339355469</ele>
        <time>2012-08-09T15:01:06Z</time>
      </trkpt>
      <trkpt lat="45.37603" lon="6.13922">
        <ele>1544.0146484375</ele>
        <time>2012-08-09T15:01:11Z</time>
      </trkpt>
      <trkpt lat="45.37605" lon="6.13924">
        <ele>1544.4951171875</ele>
        <time>2012-08-09T15:01:16Z</time>
      </trkpt>
      <trkpt lat="45.37608" lon="6.13927">
        <ele>1545.4565429688</ele>
        <time>2012-08-09T15:01:24Z</time>
      </trkpt>
      <trkpt lat="45.37611" lon="6.1393">
        <ele>1546.41796875</ele>
        <time>2012-08-09T15:01:30Z</time>
      </trkpt>
      <trkpt lat="45.37611" lon="6.13933">
        <ele>1546.8984375</ele>
        <time>2012-08-09T15:01:35Z</time>
      </trkpt>
      <trkpt lat="45.37613" lon="6.13935">
        <ele>1546.8984375</ele>
        <time>2012-08-09T15:01:39Z</time>
      </trkpt>
      <trkpt lat="45.37614" lon="6.13937">
        <ele>1547.8598632812</ele>
        <time>2012-08-09T15:01:44Z</time>
      </trkpt>
      <trkpt lat="45.37615" lon="6.1394">
        <ele>1548.8212890625</ele>
        <time>2012-08-09T15:01:51Z</time>
      </trkpt>
      <trkpt lat="45.37616" lon="6.13942">
        <ele>1549.7827148438</ele>
        <time>2012-08-09T15:01:57Z</time>
      </trkpt>
      <trkpt lat="45.37617" lon="6.13946">
        <ele>1550.7438964844</ele>
        <time>2012-08-09T15:02:04Z</time>
      </trkpt>
      <trkpt lat="45.37619" lon="6.13948">
        <ele>1552.1857910156</ele>
        <time>2012-08-09T15:02:10Z</time>
      </trkpt>
      <trkpt lat="45.37619" lon="6.13951">
        <ele>1553.1472167969</ele>
        <time>2012-08-09T15:02:16Z</time>
      </trkpt>
      <trkpt lat="45.37621" lon="6.13955">
        <ele>1554.5891113281</ele>
        <time>2012-08-09T15:02:25Z</time>
      </trkpt>
      <trkpt lat="45.37623" lon="6.13957">
        <ele>1555.5505371094</ele>
        <time>2012-08-09T15:02:31Z</time>
      </trkpt>
      <trkpt lat="45.37626" lon="6.13958">
        <ele>1556.51171875</ele>
        <time>2012-08-09T15:02:38Z</time>
      </trkpt>
      <trkpt lat="45.37627" lon="6.1396">
        <ele>1557.9538574219</ele>
        <time>2012-08-09T15:02:44Z</time>
      </trkpt>
      <trkpt lat="45.37629" lon="6.13962">
        <ele>1558.9150390625</ele>
        <time>2012-08-09T15:02:50Z</time>
      </trkpt>
      <trkpt lat="45.3763" lon="6.13963">
        <ele>1559.8762207031</ele>
        <time>2012-08-09T15:02:55Z</time>
      </trkpt>
      <trkpt lat="45.37631" lon="6.13966">
        <ele>1560.3569335938</ele>
        <time>2012-08-09T15:03:01Z</time>
      </trkpt>
      <trkpt lat="45.37633" lon="6.13969">
        <ele>1560.8376464844</ele>
        <time>2012-08-09T15:03:07Z</time>
      </trkpt>
      <trkpt lat="45.37635" lon="6.13971">
        <ele>1561.7990722656</ele>
        <time>2012-08-09T15:03:13Z</time>
      </trkpt>
      <trkpt lat="45.37636" lon="6.13972">
        <ele>1562.2795410156</ele>
        <time>2012-08-09T15:03:17Z</time>
      </trkpt>
      <trkpt lat="45.37638" lon="6.13973">
        <ele>1563.2409667969</ele>
        <time>2012-08-09T15:03:22Z</time>
      </trkpt>
      <trkpt lat="45.37642" lon="6.13972">
        <ele>1564.2023925781</ele>
        <time>2012-08-09T15:03:28Z</time>
      </trkpt>
      <trkpt lat="45.37645" lon="6.13971">
        <ele>1565.1638183594</ele>
        <time>2012-08-09T15:03:33Z</time>
      </trkpt>
      <trkpt lat="45.3765" lon="6.13971">
        <ele>1565.64453125</ele>
        <time>2012-08-09T15:03:40Z</time>
      </trkpt>
      <trkpt lat="45.37655" lon="6.13971">
        <ele>1565.64453125</ele>
        <time>2012-08-09T15:03:46Z</time>
      </trkpt>
      <trkpt lat="45.37657" lon="6.13973">
        <ele>1567.0864257812</ele>
        <time>2012-08-09T15:03:51Z</time>
      </trkpt>
      <trkpt lat="45.37658" lon="6.13976">
        <ele>1568.5283203125</ele>
        <time>2012-08-09T15:03:57Z</time>
      </trkpt>
      <trkpt lat="45.37658" lon="6.13979">
        <ele>1570.4509277344</ele>
        <time>2012-08-09T15:04:03Z</time>
      </trkpt>
      <trkpt lat="45.37658" lon="6.13982">
        <ele>1571.8928222656</ele>
        <time>2012-08-09T15:04:10Z</time>
      </trkpt>
      <trkpt lat="45.37657" lon="6.13986">
        <ele>1571.8928222656</ele>
        <time>2012-08-09T15:04:16Z</time>
      </trkpt>
      <trkpt lat="45.37657" lon="6.13991">
        <ele>1571.412109375</ele>
        <time>2012-08-09T15:04:22Z</time>
      </trkpt>
      <trkpt lat="45.37656" lon="6.13994">
        <ele>1570.931640625</ele>
        <time>2012-08-09T15:04:29Z</time>
      </trkpt>
      <trkpt lat="45.37656" lon="6.13998">
        <ele>1571.8928222656</ele>
        <time>2012-08-09T15:04:35Z</time>
      </trkpt>
      <trkpt lat="45.37655" lon="6.14001">
        <ele>1572.8542480469</ele>
        <time>2012-08-09T15:04:40Z</time>
      </trkpt>
      <trkpt lat="45.37653" lon="6.14004">
        <ele>1574.2961425781</ele>
        <time>2012-08-09T15:04:47Z</time>
      </trkpt>
      <trkpt lat="45.37653" lon="6.14008">
        <ele>1574.2961425781</ele>
        <time>2012-08-09T15:04:53Z</time>
      </trkpt>
      <trkpt lat="45.37653" lon="6.14011">
        <ele>1574.7768554688</ele>
        <time>2012-08-09T15:04:58Z</time>
      </trkpt>
      <trkpt lat="45.37652" lon="6.14014">
        <ele>1575.7380371094</ele>
        <time>2012-08-09T15:05:05Z</time>
      </trkpt>
      <trkpt lat="45.3765" lon="6.14018">
        <ele>1576.6994628906</ele>
        <time>2012-08-09T15:05:11Z</time>
      </trkpt>
      <trkpt lat="45.37648" lon="6.14024">
        <ele>1577.1801757812</ele>
        <time>2012-08-09T15:05:18Z</time>
      </trkpt>
      <trkpt lat="45.37646" lon="6.14031">
        <ele>1578.1413574219</ele>
        <time>2012-08-09T15:05:25Z</time>
      </trkpt>
      <trkpt lat="45.37645" lon="6.14039">
        <ele>1578.6220703125</ele>
        <time>2012-08-09T15:05:32Z</time>
      </trkpt>
      <trkpt lat="45.37644" lon="6.14043">
        <ele>1580.0642089844</ele>
        <time>2012-08-09T15:05:37Z</time>
      </trkpt>
      <trkpt lat="45.37642" lon="6.14047">
        <ele>1581.5061035156</ele>
        <time>2012-08-09T15:05:43Z</time>
      </trkpt>
      <trkpt lat="45.37642" lon="6.14051">
        <ele>1582.9479980469</ele>
        <time>2012-08-09T15:05:48Z</time>
      </trkpt>
      <trkpt lat="45.37641" lon="6.14053">
        <ele>1585.3513183594</ele>
        <time>2012-08-09T15:05:53Z</time>
      </trkpt>
      <trkpt lat="45.37641" lon="6.14057">
        <ele>1586.7932128906</ele>
        <time>2012-08-09T15:05:58Z</time>
      </trkpt>
      <trkpt lat="45.37642" lon="6.1406">
        <ele>1587.2739257812</ele>
        <time>2012-08-09T15:06:04Z</time>
      </trkpt>
      <trkpt lat="45.37644" lon="6.1406">
        <ele>1587.2739257812</ele>
        <time>2012-08-09T15:06:08Z</time>
      </trkpt>
      <trkpt lat="45.37646" lon="6.14058">
        <ele>1588.7160644531</ele>
        <time>2012-08-09T15:06:13Z</time>
      </trkpt>
      <trkpt lat="45.37649" lon="6.14054">
        <ele>1589.1965332031</ele>
        <time>2012-08-09T15:06:19Z</time>
      </trkpt>
      <trkpt lat="45.37653" lon="6.14051">
        <ele>1590.1579589844</ele>
        <time>2012-08-09T15:06:26Z</time>
      </trkpt>
      <trkpt lat="45.37658" lon="6.14045">
        <ele>1592.5612792969</ele>
        <time>2012-08-09T15:06:33Z</time>
      </trkpt>
      <trkpt lat="45.37661" lon="6.14042">
        <ele>1594.9643554688</ele>
        <time>2012-08-09T15:06:39Z</time>
      </trkpt>
      <trkpt lat="45.37664" lon="6.14041">
        <ele>1594.9643554688</ele>
        <time>2012-08-09T15:06:44Z</time>
      </trkpt>
      <trkpt lat="45.37668" lon="6.14041">
        <ele>1596.4067382812</ele>
        <time>2012-08-09T15:06:50Z</time>
      </trkpt>
      <trkpt lat="45.3767" lon="6.14041">
        <ele>1597.8486328125</ele>
        <time>2012-08-09T15:06:55Z</time>
      </trkpt>
      <trkpt lat="45.37673" lon="6.1404">
        <ele>1598.8098144531</ele>
        <time>2012-08-09T15:07:02Z</time>
      </trkpt>
      <trkpt lat="45.37675" lon="6.14039">
        <ele>1599.7712402344</ele>
        <time>2012-08-09T15:07:06Z</time>
      </trkpt>
      <trkpt lat="45.37677" lon="6.14039">
        <ele>1601.6938476562</ele>
        <time>2012-08-09T15:07:11Z</time>
      </trkpt>
      <trkpt lat="45.3768" lon="6.14038">
        <ele>1604.0971679688</ele>
        <time>2012-08-09T15:07:18Z</time>
      </trkpt>
      <trkpt lat="45.37682" lon="6.14038">
        <ele>1605.0583496094</ele>
        <time>2012-08-09T15:07:22Z</time>
      </trkpt>
      <trkpt lat="45.37684" lon="6.14038">
        <ele>1606.9809570312</ele>
        <time>2012-08-09T15:07:27Z</time>
      </trkpt>
      <trkpt lat="45.37685" lon="6.14038">
        <ele>1607.9423828125</ele>
        <time>2012-08-09T15:07:31Z</time>
      </trkpt>
      <trkpt lat="45.37687" lon="6.14038">
        <ele>1608.4228515625</ele>
        <time>2012-08-09T15:07:36Z</time>
      </trkpt>
      <trkpt lat="45.3769" lon="6.1404">
        <ele>1608.9035644531</ele>
        <time>2012-08-09T15:07:43Z</time>
      </trkpt>
      <trkpt lat="45.37692" lon="6.14042">
        <ele>1610.3454589844</ele>
        <time>2012-08-09T15:07:49Z</time>
      </trkpt>
      <trkpt lat="45.37692" lon="6.14045">
        <ele>1610.3454589844</ele>
        <time>2012-08-09T15:07:54Z</time>
      </trkpt>
      <trkpt lat="45.37692" lon="6.14051">
        <ele>1609.8647460938</ele>
        <time>2012-08-09T15:08:00Z</time>
      </trkpt>
      <trkpt lat="45.3769" lon="6.14054">
        <ele>1609.8647460938</ele>
        <time>2012-08-09T15:08:06Z</time>
      </trkpt>
      <trkpt lat="45.37687" lon="6.14057">
        <ele>1610.826171875</ele>
        <time>2012-08-09T15:08:13Z</time>
      </trkpt>
      <trkpt lat="45.37685" lon="6.1406">
        <ele>1611.3068847656</ele>
        <time>2012-08-09T15:08:19Z</time>
      </trkpt>
      <trkpt lat="45.37683" lon="6.14064">
        <ele>1611.3068847656</ele>
        <time>2012-08-09T15:08:26Z</time>
      </trkpt>
      <trkpt lat="45.3768" lon="6.14068">
        <ele>1612.2683105469</ele>
        <time>2012-08-09T15:08:33Z</time>
      </trkpt>
      <trkpt lat="45.37679" lon="6.1407">
        <ele>1612.7490234375</ele>
        <time>2012-08-09T15:08:38Z</time>
      </trkpt>
      <trkpt lat="45.37678" lon="6.14072">
        <ele>1614.6716308594</ele>
        <time>2012-08-09T15:08:44Z</time>
      </trkpt>
      <trkpt lat="45.37677" lon="6.14075">
        <ele>1614.6716308594</ele>
        <time>2012-08-09T15:08:49Z</time>
      </trkpt>
      <trkpt lat="45.37677" lon="6.14078">
        <ele>1614.1909179688</ele>
        <time>2012-08-09T15:08:54Z</time>
      </trkpt>
      <trkpt lat="45.37676" lon="6.14079">
        <ele>1616.1135253906</ele>
        <time>2012-08-09T15:08:59Z</time>
      </trkpt>
      <trkpt lat="45.37675" lon="6.14082">
        <ele>1617.0749511719</ele>
        <time>2012-08-09T15:09:06Z</time>
      </trkpt>
      <trkpt lat="45.37675" lon="6.14085">
        <ele>1618.0361328125</ele>
        <time>2012-08-09T15:09:10Z</time>
      </trkpt>
      <trkpt lat="45.37675" lon="6.14088">
        <ele>1618.9975585938</ele>
        <time>2012-08-09T15:09:16Z</time>
      </trkpt>
      <trkpt lat="45.37676" lon="6.14092">
        <ele>1619.9587402344</ele>
        <time>2012-08-09T15:09:22Z</time>
      </trkpt>
      <trkpt lat="45.37677" lon="6.14095">
        <ele>1620.439453125</ele>
        <time>2012-08-09T15:09:28Z</time>
      </trkpt>
      <trkpt lat="45.37677" lon="6.14099">
        <ele>1620.9201660156</ele>
        <time>2012-08-09T15:09:34Z</time>
      </trkpt>
      <trkpt lat="45.37678" lon="6.14104">
        <ele>1620.439453125</ele>
        <time>2012-08-09T15:09:40Z</time>
      </trkpt>
      <trkpt lat="45.37678" lon="6.14108">
        <ele>1619.9587402344</ele>
        <time>2012-08-09T15:09:45Z</time>
      </trkpt>
      <trkpt lat="45.37679" lon="6.14112">
        <ele>1620.9201660156</ele>
        <time>2012-08-09T15:09:52Z</time>
      </trkpt>
      <trkpt lat="45.37679" lon="6.14115">
        <ele>1621.8813476562</ele>
        <time>2012-08-09T15:09:58Z</time>
      </trkpt>
      <trkpt lat="45.3768" lon="6.1412">
        <ele>1622.3620605469</ele>
        <time>2012-08-09T15:10:04Z</time>
      </trkpt>
      <trkpt lat="45.37681" lon="6.14123">
        <ele>1623.3234863281</ele>
        <time>2012-08-09T15:10:11Z</time>
      </trkpt>
      <trkpt lat="45.37682" lon="6.14126">
        <ele>1625.2458496094</ele>
        <time>2012-08-09T15:10:18Z</time>
      </trkpt>
      <trkpt lat="45.37683" lon="6.14128">
        <ele>1626.2072753906</ele>
        <time>2012-08-09T15:10:24Z</time>
      </trkpt>
      <trkpt lat="45.37684" lon="6.14131">
        <ele>1627.1687011719</ele>
        <time>2012-08-09T15:10:31Z</time>
      </trkpt>
      <trkpt lat="45.37686" lon="6.14133">
        <ele>1627.6491699219</ele>
        <time>2012-08-09T15:10:37Z</time>
      </trkpt>
      <trkpt lat="45.37689" lon="6.14134">
        <ele>1628.1301269531</ele>
        <time>2012-08-09T15:10:43Z</time>
      </trkpt>
      <trkpt lat="45.37691" lon="6.14134">
        <ele>1630.052734375</ele>
        <time>2012-08-09T15:10:49Z</time>
      </trkpt>
      <trkpt lat="45.37692" lon="6.14135">
        <ele>1632.4560546875</ele>
        <time>2012-08-09T15:10:55Z</time>
      </trkpt>
      <trkpt lat="45.37693" lon="6.14136">
        <ele>1634.3786621094</ele>
        <time>2012-08-09T15:11:01Z</time>
      </trkpt>
      <trkpt lat="45.37693" lon="6.14136">
        <ele>1638.2238769531</ele>
        <time>2012-08-09T15:11:08Z</time>
      </trkpt>
      <trkpt lat="45.37696" lon="6.14138">
        <ele>1638.2238769531</ele>
        <time>2012-08-09T15:11:14Z</time>
      </trkpt>
      <trkpt lat="45.37698" lon="6.14141">
        <ele>1637.7431640625</ele>
        <time>2012-08-09T15:11:21Z</time>
      </trkpt>
      <trkpt lat="45.377" lon="6.14143">
        <ele>1637.7431640625</ele>
        <time>2012-08-09T15:11:27Z</time>
      </trkpt>
      <trkpt lat="45.37701" lon="6.14143">
        <ele>1639.6657714844</ele>
        <time>2012-08-09T15:11:32Z</time>
      </trkpt>
      <trkpt lat="45.37701" lon="6.14143">
        <ele>1642.5498046875</ele>
        <time>2012-08-09T15:11:37Z</time>
      </trkpt>
      <trkpt lat="45.37703" lon="6.14144">
        <ele>1643.5109863281</ele>
        <time>2012-08-09T15:11:43Z</time>
      </trkpt>
      <trkpt lat="45.37703" lon="6.14144">
        <ele>1644.953125</ele>
        <time>2012-08-09T15:11:47Z</time>
      </trkpt>
      <trkpt lat="45.37705" lon="6.14145">
        <ele>1645.4338378906</ele>
        <time>2012-08-09T15:11:52Z</time>
      </trkpt>
      <trkpt lat="45.37708" lon="6.14145">
        <ele>1642.0690917969</ele>
        <time>2012-08-09T15:11:58Z</time>
      </trkpt>
      <trkpt lat="45.37711" lon="6.14143">
        <ele>1642.5498046875</ele>
        <time>2012-08-09T15:12:05Z</time>
      </trkpt>
      <trkpt lat="45.37713" lon="6.14142">
        <ele>1642.0690917969</ele>
        <time>2012-08-09T15:12:13Z</time>
      </trkpt>
      <trkpt lat="45.37715" lon="6.14141">
        <ele>1642.5498046875</ele>
        <time>2012-08-09T15:12:18Z</time>
      </trkpt>
      <trkpt lat="45.37716" lon="6.14139">
        <ele>1643.9916992188</ele>
        <time>2012-08-09T15:12:25Z</time>
      </trkpt>
      <trkpt lat="45.37717" lon="6.14137">
        <ele>1645.4338378906</ele>
        <time>2012-08-09T15:12:30Z</time>
      </trkpt>
      <trkpt lat="45.37718" lon="6.14135">
        <ele>1647.8371582031</ele>
        <time>2012-08-09T15:12:36Z</time>
      </trkpt>
      <trkpt lat="45.37719" lon="6.14134">
        <ele>1650.2404785156</ele>
        <time>2012-08-09T15:12:41Z</time>
      </trkpt>
      <trkpt lat="45.37723" lon="6.14132">
        <ele>1650.7209472656</ele>
        <time>2012-08-09T15:12:47Z</time>
      </trkpt>
      <trkpt lat="45.37725" lon="6.14132">
        <ele>1651.2016601562</ele>
        <time>2012-08-09T15:12:52Z</time>
      </trkpt>
      <trkpt lat="45.37728" lon="6.14131">
        <ele>1652.1628417969</ele>
        <time>2012-08-09T15:12:57Z</time>
      </trkpt>
      <trkpt lat="45.3773" lon="6.14129">
        <ele>1652.6435546875</ele>
        <time>2012-08-09T15:13:03Z</time>
      </trkpt>
      <trkpt lat="45.37733" lon="6.14129">
        <ele>1654.0856933594</ele>
        <time>2012-08-09T15:13:11Z</time>
      </trkpt>
      <trkpt lat="45.37733" lon="6.14129">
        <ele>1656.4887695312</ele>
        <time>2012-08-09T15:13:16Z</time>
      </trkpt>
      <trkpt lat="45.37735" lon="6.1413">
        <ele>1658.8920898438</ele>
        <time>2012-08-09T15:13:22Z</time>
      </trkpt>
      <trkpt lat="45.37735" lon="6.14131">
        <ele>1661.2956542969</ele>
        <time>2012-08-09T15:13:27Z</time>
      </trkpt>
      <trkpt lat="45.37736" lon="6.14132">
        <ele>1662.2568359375</ele>
        <time>2012-08-09T15:13:31Z</time>
      </trkpt>
      <trkpt lat="45.37739" lon="6.14134">
        <ele>1664.1794433594</ele>
        <time>2012-08-09T15:13:39Z</time>
      </trkpt>
      <trkpt lat="45.37741" lon="6.14133">
        <ele>1665.6215820312</ele>
        <time>2012-08-09T15:13:46Z</time>
      </trkpt>
      <trkpt lat="45.37743" lon="6.14132">
        <ele>1667.0634765625</ele>
        <time>2012-08-09T15:13:52Z</time>
      </trkpt>
      <trkpt lat="45.37746" lon="6.14131">
        <ele>1668.0246582031</ele>
        <time>2012-08-09T15:13:58Z</time>
      </trkpt>
      <trkpt lat="45.37747" lon="6.1413">
        <ele>1669.466796875</ele>
        <time>2012-08-09T15:14:02Z</time>
      </trkpt>
      <trkpt lat="45.3775" lon="6.1413">
        <ele>1669.466796875</ele>
        <time>2012-08-09T15:14:08Z</time>
      </trkpt>
      <trkpt lat="45.37753" lon="6.1413">
        <ele>1669.947265625</ele>
        <time>2012-08-09T15:14:14Z</time>
      </trkpt>
      <trkpt lat="45.37754" lon="6.14129">
        <ele>1670.4279785156</ele>
        <time>2012-08-09T15:14:25Z</time>
      </trkpt>
      <trkpt lat="45.37757" lon="6.14129">
        <ele>1670.4279785156</ele>
        <time>2012-08-09T15:14:30Z</time>
      </trkpt>
      <trkpt lat="45.37759" lon="6.14128">
        <ele>1670.9086914062</ele>
        <time>2012-08-09T15:14:35Z</time>
      </trkpt>
      <trkpt lat="45.3776" lon="6.14128">
        <ele>1671.3891601562</ele>
        <time>2012-08-09T15:14:40Z</time>
      </trkpt>
      <trkpt lat="45.37761" lon="6.14128">
        <ele>1671.8698730469</ele>
        <time>2012-08-09T15:14:45Z</time>
      </trkpt>
      <trkpt lat="45.37764" lon="6.14128">
        <ele>1672.3505859375</ele>
        <time>2012-08-09T15:14:51Z</time>
      </trkpt>
      <trkpt lat="45.37767" lon="6.14128">
        <ele>1673.7924804688</ele>
        <time>2012-08-09T15:15:02Z</time>
      </trkpt>
      <trkpt lat="45.3777" lon="6.14129">
        <ele>1675.234375</ele>
        <time>2012-08-09T15:15:09Z</time>
      </trkpt>
      <trkpt lat="45.37771" lon="6.14129">
        <ele>1675.7150878906</ele>
        <time>2012-08-09T15:15:15Z</time>
      </trkpt>
      <trkpt lat="45.37774" lon="6.14129">
        <ele>1675.7150878906</ele>
        <time>2012-08-09T15:15:22Z</time>
      </trkpt>
      <trkpt lat="45.37775" lon="6.14132">
        <ele>1676.1960449219</ele>
        <time>2012-08-09T15:15:30Z</time>
      </trkpt>
      <trkpt lat="45.37775" lon="6.14134">
        <ele>1678.1186523438</ele>
        <time>2012-08-09T15:15:37Z</time>
      </trkpt>
      <trkpt lat="45.37775" lon="6.14138">
        <ele>1678.1186523438</ele>
        <time>2012-08-09T15:15:44Z</time>
      </trkpt>
      <trkpt lat="45.37773" lon="6.1414">
        <ele>1680.5219726562</ele>
        <time>2012-08-09T15:15:54Z</time>
      </trkpt>
      <trkpt lat="45.37773" lon="6.14142">
        <ele>1681.4831542969</ele>
        <time>2012-08-09T15:16:00Z</time>
      </trkpt>
      <trkpt lat="45.37773" lon="6.14145">
        <ele>1681.0026855469</ele>
        <time>2012-08-09T15:16:06Z</time>
      </trkpt>
      <trkpt lat="45.37774" lon="6.14146">
        <ele>1682.4445800781</ele>
        <time>2012-08-09T15:16:11Z</time>
      </trkpt>
      <trkpt lat="45.37775" lon="6.14147">
        <ele>1683.8864746094</ele>
        <time>2012-08-09T15:16:17Z</time>
      </trkpt>
      <trkpt lat="45.37777" lon="6.14146">
        <ele>1684.3671875</ele>
        <time>2012-08-09T15:16:25Z</time>
      </trkpt>
      <trkpt lat="45.37779" lon="6.14147">
        <ele>1683.4057617188</ele>
        <time>2012-08-09T15:16:33Z</time>
      </trkpt>
      <trkpt lat="45.37782" lon="6.14148">
        <ele>1684.3671875</ele>
        <time>2012-08-09T15:16:43Z</time>
      </trkpt>
      <trkpt lat="45.37786" lon="6.14146">
        <ele>1684.3671875</ele>
        <time>2012-08-09T15:16:48Z</time>
      </trkpt>
      <trkpt lat="45.3779" lon="6.14144">
        <ele>1685.8090820312</ele>
        <time>2012-08-09T15:16:54Z</time>
      </trkpt>
      <trkpt lat="45.37794" lon="6.14144">
        <ele>1685.8090820312</ele>
        <time>2012-08-09T15:17:00Z</time>
      </trkpt>
      <trkpt lat="45.37798" lon="6.14145">
        <ele>1685.8090820312</ele>
        <time>2012-08-09T15:17:05Z</time>
      </trkpt>
      <trkpt lat="45.378" lon="6.14144">
        <ele>1685.8090820312</ele>
        <time>2012-08-09T15:17:10Z</time>
      </trkpt>
      <trkpt lat="45.37803" lon="6.14144">
        <ele>1685.3283691406</ele>
        <time>2012-08-09T15:17:14Z</time>
      </trkpt>
      <trkpt lat="45.37809" lon="6.14141">
        <ele>1685.3283691406</ele>
        <time>2012-08-09T15:17:21Z</time>
      </trkpt>
      <trkpt lat="45.37812" lon="6.14138">
        <ele>1685.8090820312</ele>
        <time>2012-08-09T15:17:26Z</time>
      </trkpt>
      <trkpt lat="45.37814" lon="6.14139">
        <ele>1685.3283691406</ele>
        <time>2012-08-09T15:17:30Z</time>
      </trkpt>
      <trkpt lat="45.37818" lon="6.14138">
        <ele>1687.2509765625</ele>
        <time>2012-08-09T15:17:35Z</time>
      </trkpt>
      <trkpt lat="45.37822" lon="6.14135">
        <ele>1687.7316894531</ele>
        <time>2012-08-09T15:17:42Z</time>
      </trkpt>
      <trkpt lat="45.37825" lon="6.14133">
        <ele>1690.1350097656</ele>
        <time>2012-08-09T15:17:48Z</time>
      </trkpt>
      <trkpt lat="45.37828" lon="6.14132">
        <ele>1690.6154785156</ele>
        <time>2012-08-09T15:17:52Z</time>
      </trkpt>
      <trkpt lat="45.37831" lon="6.1413">
        <ele>1693.98046875</ele>
        <time>2012-08-09T15:18:00Z</time>
      </trkpt>
      <trkpt lat="45.37835" lon="6.14129">
        <ele>1695.4223632812</ele>
        <time>2012-08-09T15:18:05Z</time>
      </trkpt>
      <trkpt lat="45.37837" lon="6.14129">
        <ele>1695.9030761719</ele>
        <time>2012-08-09T15:18:09Z</time>
      </trkpt>
      <trkpt lat="45.3784" lon="6.14127">
        <ele>1698.3061523438</ele>
        <time>2012-08-09T15:18:13Z</time>
      </trkpt>
      <trkpt lat="45.37842" lon="6.14127">
        <ele>1698.3061523438</ele>
        <time>2012-08-09T15:18:19Z</time>
      </trkpt>
      <trkpt lat="45.37844" lon="6.14127">
        <ele>1699.7482910156</ele>
        <time>2012-08-09T15:18:24Z</time>
      </trkpt>
      <trkpt lat="45.37848" lon="6.1413">
        <ele>1698.3061523438</ele>
        <time>2012-08-09T15:18:30Z</time>
      </trkpt>
      <trkpt lat="45.37854" lon="6.14129">
        <ele>1698.3061523438</ele>
        <time>2012-08-09T15:18:38Z</time>
      </trkpt>
      <trkpt lat="45.37858" lon="6.14126">
        <ele>1698.3061523438</ele>
        <time>2012-08-09T15:18:46Z</time>
      </trkpt>
      <trkpt lat="45.37862" lon="6.14126">
        <ele>1697.8256835938</ele>
        <time>2012-08-09T15:18:51Z</time>
      </trkpt>
      <trkpt lat="45.37865" lon="6.14125">
        <ele>1699.267578125</ele>
        <time>2012-08-09T15:18:57Z</time>
      </trkpt>
      <trkpt lat="45.37868" lon="6.14125">
        <ele>1700.2290039062</ele>
        <time>2012-08-09T15:19:03Z</time>
      </trkpt>
      <trkpt lat="45.37868" lon="6.14125">
        <ele>1700.7094726562</ele>
        <time>2012-08-09T15:19:12Z</time>
      </trkpt>
      <trkpt lat="45.37868" lon="6.14124">
        <ele>1703.1127929688</ele>
        <time>2012-08-09T15:19:26Z</time>
      </trkpt>
      <trkpt lat="45.37873" lon="6.14123">
        <ele>1702.6320800781</ele>
        <time>2012-08-09T15:19:33Z</time>
      </trkpt>
      <trkpt lat="45.37875" lon="6.14125">
        <ele>1702.6320800781</ele>
        <time>2012-08-09T15:19:38Z</time>
      </trkpt>
      <trkpt lat="45.37878" lon="6.14126">
        <ele>1703.1127929688</ele>
        <time>2012-08-09T15:19:42Z</time>
      </trkpt>
      <trkpt lat="45.37881" lon="6.14126">
        <ele>1704.5546875</ele>
        <time>2012-08-09T15:19:48Z</time>
      </trkpt>
      <trkpt lat="45.37885" lon="6.14125">
        <ele>1705.5161132812</ele>
        <time>2012-08-09T15:19:55Z</time>
      </trkpt>
      <trkpt lat="45.37888" lon="6.14126">
        <ele>1705.9965820312</ele>
        <time>2012-08-09T15:20:00Z</time>
      </trkpt>
      <trkpt lat="45.37889" lon="6.14126">
        <ele>1708.4001464844</ele>
        <time>2012-08-09T15:20:07Z</time>
      </trkpt>
      <trkpt lat="45.3789" lon="6.14128">
        <ele>1712.7260742188</ele>
        <time>2012-08-09T15:20:13Z</time>
      </trkpt>
      <trkpt lat="45.37887" lon="6.14126">
        <ele>1717.0520019531</ele>
        <time>2012-08-09T15:20:25Z</time>
      </trkpt>
      <trkpt lat="45.37888" lon="6.1413">
        <ele>1717.5324707031</ele>
        <time>2012-08-09T15:20:32Z</time>
      </trkpt>
      <trkpt lat="45.37888" lon="6.14135">
        <ele>1720.4165039062</ele>
        <time>2012-08-09T15:20:38Z</time>
      </trkpt>
      <trkpt lat="45.37886" lon="6.14138">
        <ele>1722.8198242188</ele>
        <time>2012-08-09T15:20:43Z</time>
      </trkpt>
      <trkpt lat="45.37886" lon="6.1414">
        <ele>1723.7810058594</ele>
        <time>2012-08-09T15:20:48Z</time>
      </trkpt>
      <trkpt lat="45.37885" lon="6.14142">
        <ele>1724.2619628906</ele>
        <time>2012-08-09T15:20:53Z</time>
      </trkpt>
      <trkpt lat="45.37884" lon="6.14146">
        <ele>1725.7038574219</ele>
        <time>2012-08-09T15:21:00Z</time>
      </trkpt>
      <trkpt lat="45.37884" lon="6.14148">
        <ele>1725.7038574219</ele>
        <time>2012-08-09T15:21:05Z</time>
      </trkpt>
      <trkpt lat="45.37883" lon="6.14151">
        <ele>1726.1845703125</ele>
        <time>2012-08-09T15:21:10Z</time>
      </trkpt>
      <trkpt lat="45.37881" lon="6.14155">
        <ele>1726.6652832031</ele>
        <time>2012-08-09T15:21:18Z</time>
      </trkpt>
      <trkpt lat="45.3788" lon="6.14158">
        <ele>1727.1459960938</ele>
        <time>2012-08-09T15:21:24Z</time>
      </trkpt>
      <trkpt lat="45.37878" lon="6.14161">
        <ele>1728.1071777344</ele>
        <time>2012-08-09T15:21:31Z</time>
      </trkpt>
      <trkpt lat="45.37876" lon="6.14163">
        <ele>1728.587890625</ele>
        <time>2012-08-09T15:21:37Z</time>
      </trkpt>
      <trkpt lat="45.37875" lon="6.14166">
        <ele>1729.5490722656</ele>
        <time>2012-08-09T15:21:44Z</time>
      </trkpt>
      <trkpt lat="45.37875" lon="6.14169">
        <ele>1729.5490722656</ele>
        <time>2012-08-09T15:21:50Z</time>
      </trkpt>
      <trkpt lat="45.37873" lon="6.14171">
        <ele>1730.5104980469</ele>
        <time>2012-08-09T15:21:57Z</time>
      </trkpt>
      <trkpt lat="45.37871" lon="6.14174">
        <ele>1731.9523925781</ele>
        <time>2012-08-09T15:22:05Z</time>
      </trkpt>
      <trkpt lat="45.3787" lon="6.14177">
        <ele>1732.4331054688</ele>
        <time>2012-08-09T15:22:11Z</time>
      </trkpt>
      <trkpt lat="45.37868" lon="6.14177">
        <ele>1732.9135742188</ele>
        <time>2012-08-09T15:22:18Z</time>
      </trkpt>
      <trkpt lat="45.37867" lon="6.14182">
        <ele>1733.875</ele>
        <time>2012-08-09T15:22:27Z</time>
      </trkpt>
      <trkpt lat="45.37868" lon="6.14186">
        <ele>1730.5104980469</ele>
        <time>2012-08-09T15:22:36Z</time>
      </trkpt>
      <trkpt lat="45.37868" lon="6.14188">
        <ele>1730.0297851562</ele>
        <time>2012-08-09T15:22:46Z</time>
      </trkpt>
      <trkpt lat="45.37866" lon="6.1419">
        <ele>1730.0297851562</ele>
        <time>2012-08-09T15:22:52Z</time>
      </trkpt>
      <trkpt lat="45.37864" lon="6.14192">
        <ele>1731.9523925781</ele>
        <time>2012-08-09T15:23:03Z</time>
      </trkpt>
      <trkpt lat="45.37862" lon="6.14194">
        <ele>1733.3942871094</ele>
        <time>2012-08-09T15:23:08Z</time>
      </trkpt>
      <trkpt lat="45.37859" lon="6.14199">
        <ele>1731.9523925781</ele>
        <time>2012-08-09T15:23:16Z</time>
      </trkpt>
      <trkpt lat="45.37857" lon="6.14204">
        <ele>1731.4716796875</ele>
        <time>2012-08-09T15:23:22Z</time>
      </trkpt>
      <trkpt lat="45.37857" lon="6.14212">
        <ele>1731.9523925781</ele>
        <time>2012-08-09T15:23:29Z</time>
      </trkpt>
      <trkpt lat="45.37857" lon="6.14219">
        <ele>1731.9523925781</ele>
        <time>2012-08-09T15:23:35Z</time>
      </trkpt>
      <trkpt lat="45.37856" lon="6.1423">
        <ele>1731.4716796875</ele>
        <time>2012-08-09T15:23:43Z</time>
      </trkpt>
      <trkpt lat="45.37856" lon="6.14241">
        <ele>1732.9135742188</ele>
        <time>2012-08-09T15:23:51Z</time>
      </trkpt>
      <trkpt lat="45.37856" lon="6.14257">
        <ele>1734.8364257812</ele>
        <time>2012-08-09T15:24:02Z</time>
      </trkpt>
      <trkpt lat="45.37855" lon="6.14263">
        <ele>1735.7976074219</ele>
        <time>2012-08-09T15:24:08Z</time>
      </trkpt>
      <trkpt lat="45.37854" lon="6.14269">
        <ele>1736.2783203125</ele>
        <time>2012-08-09T15:24:14Z</time>
      </trkpt>
      <trkpt lat="45.37854" lon="6.14276">
        <ele>1736.7587890625</ele>
        <time>2012-08-09T15:24:22Z</time>
      </trkpt>
      <trkpt lat="45.37854" lon="6.14285">
        <ele>1736.7587890625</ele>
        <time>2012-08-09T15:24:28Z</time>
      </trkpt>
      <trkpt lat="45.37853" lon="6.14291">
        <ele>1736.7587890625</ele>
        <time>2012-08-09T15:24:32Z</time>
      </trkpt>
      <trkpt lat="45.37851" lon="6.14297">
        <ele>1736.7587890625</ele>
        <time>2012-08-09T15:24:37Z</time>
      </trkpt>
      <trkpt lat="45.3785" lon="6.14299">
        <ele>1736.2783203125</ele>
        <time>2012-08-09T15:24:39Z</time>
      </trkpt>
    </trkseg>
  </trk>
</gpx>